<?xml version="1.0" encoding="UTF-8" standalone="no" ?>
<gpx xmlns="http://www.topografix.com/GPX/1/1" xmlns:xsi="http://www.w3.org/2001/XMLSchema-instance" xsi:schemaLocation="http://www.topografix.com/GPX/1/1 http://www.topografix.com/GPX/1/1/gpx.xsd" version="1.1" creator="VisuGPX - https://www.visugpx.com">
  <metadata>
    <name>DB Clem</name>
  </metadata>
  <trk>
    <name><![CDATA[Desertus Bikus Clem]]></name>
    <trkseg>
      <trkpt lat="43.49569" lon="-1.49675">
        <ele>3.350408</ele>
        <time>2022-02-21T13:24:47.948Z</time>
      </trkpt>
      <trkpt lat="43.49424" lon="-1.49665">
        <ele>3.354164</ele>
        <time>2022-02-21T13:25:20.491Z</time>
      </trkpt>
      <trkpt lat="43.49398" lon="-1.49681">
        <ele>3.35605</ele>
        <time>2022-02-21T13:25:26.809Z</time>
      </trkpt>
      <trkpt lat="43.49398" lon="-1.49659">
        <ele>3.357115</ele>
        <time>2022-02-21T13:25:30.223Z</time>
      </trkpt>
      <trkpt lat="43.49394" lon="-1.49577">
        <ele>3.361171</ele>
        <time>2022-02-21T13:25:43.631Z</time>
      </trkpt>
      <trkpt lat="43.49388" lon="-1.49544">
        <ele>3.437993</ele>
        <time>2022-02-21T13:25:49.518Z</time>
      </trkpt>
      <trkpt lat="43.49381" lon="-1.49514">
        <ele>3.923289</ele>
        <time>2022-02-21T13:25:55.399Z</time>
      </trkpt>
      <trkpt lat="43.49379" lon="-1.49494">
        <ele>4.24341</ele>
        <time>2022-02-21T13:25:59.467Z</time>
      </trkpt>
      <trkpt lat="43.49376" lon="-1.49477">
        <ele>4.512837</ele>
        <time>2022-02-21T13:26:03.007Z</time>
      </trkpt>
      <trkpt lat="43.49371" lon="-1.49472">
        <ele>4.633885</ele>
        <time>2022-02-21T13:26:04.661Z</time>
      </trkpt>
      <trkpt lat="43.49369" lon="-1.49461">
        <ele>4.811399</ele>
        <time>2022-02-21T13:26:07.080Z</time>
      </trkpt>
      <trkpt lat="43.49369" lon="-1.49457">
        <ele>4.870263</ele>
        <time>2022-02-21T13:26:07.936Z</time>
      </trkpt>
      <trkpt lat="43.49376" lon="-1.49445">
        <ele>5.09487</ele>
        <time>2022-02-21T13:26:11.080Z</time>
      </trkpt>
      <trkpt lat="43.49382" lon="-1.49427">
        <ele>5.404025</ele>
        <time>2022-02-21T13:26:15.737Z</time>
      </trkpt>
      <trkpt lat="43.4938" lon="-1.49402">
        <ele>5.799738</ele>
        <time>2022-02-21T13:26:21.533Z</time>
      </trkpt>
      <trkpt lat="43.49374" lon="-1.49368">
        <ele>6.329709</ele>
        <time>2022-02-21T13:26:30.597Z</time>
      </trkpt>
      <trkpt lat="43.4935" lon="-1.49233">
        <ele>9.698432</ele>
        <time>2022-02-21T13:27:14.310Z</time>
      </trkpt>
      <trkpt lat="43.49354" lon="-1.49197">
        <ele>10.787256</ele>
        <time>2022-02-21T13:27:26.070Z</time>
      </trkpt>
      <trkpt lat="43.49364" lon="-1.49161">
        <ele>11.946365</ele>
        <time>2022-02-21T13:27:39.233Z</time>
      </trkpt>
      <trkpt lat="43.49363" lon="-1.49156">
        <ele>12.084471</ele>
        <time>2022-02-21T13:27:40.906Z</time>
      </trkpt>
      <trkpt lat="43.49368" lon="-1.49146">
        <ele>12.465443</ele>
        <time>2022-02-21T13:27:45.047Z</time>
      </trkpt>
      <trkpt lat="43.49375" lon="-1.49147">
        <ele>12.757928</ele>
        <time>2022-02-21T13:27:47.706Z</time>
      </trkpt>
      <trkpt lat="43.49379" lon="-1.49139">
        <ele>13.053897</ele>
        <time>2022-02-21T13:27:50.968Z</time>
      </trkpt>
      <trkpt lat="43.494" lon="-1.49105">
        <ele>14.401701</ele>
        <time>2022-02-21T13:28:04.460Z</time>
      </trkpt>
      <trkpt lat="43.49415" lon="-1.4909">
        <ele>14.864779</ele>
        <time>2022-02-21T13:28:12.264Z</time>
      </trkpt>
      <trkpt lat="43.49451" lon="-1.49073">
        <ele>15.595068</ele>
        <time>2022-02-21T13:28:26.707Z</time>
      </trkpt>
      <trkpt lat="43.49461" lon="-1.49053">
        <ele>15.920091</ele>
        <time>2022-02-21T13:28:32.523Z</time>
      </trkpt>
      <trkpt lat="43.49459" lon="-1.49034">
        <ele>16.18432</ele>
        <time>2022-02-21T13:28:38.076Z</time>
      </trkpt>
      <trkpt lat="43.49448" lon="-1.49004">
        <ele>16.657946</ele>
        <time>2022-02-21T13:28:45.409Z</time>
      </trkpt>
      <trkpt lat="43.49428" lon="-1.48958">
        <ele>17.399714</ele>
        <time>2022-02-21T13:28:55.840Z</time>
      </trkpt>
      <trkpt lat="43.49396" lon="-1.48884">
        <ele>18.060147</ele>
        <time>2022-02-21T13:29:09.850Z</time>
      </trkpt>
      <trkpt lat="43.4938" lon="-1.48865">
        <ele>18.067524</ele>
        <time>2022-02-21T13:29:14.448Z</time>
      </trkpt>
      <trkpt lat="43.49318" lon="-1.4883">
        <ele>18.091636</ele>
        <time>2022-02-21T13:29:28.461Z</time>
      </trkpt>
      <trkpt lat="43.49306" lon="-1.48826">
        <ele>18.096266</ele>
        <time>2022-02-21T13:29:31.320Z</time>
      </trkpt>
      <trkpt lat="43.49305" lon="-1.48828">
        <ele>18.096909</ele>
        <time>2022-02-21T13:29:31.754Z</time>
      </trkpt>
      <trkpt lat="43.493" lon="-1.48834">
        <ele>18.099384</ele>
        <time>2022-02-21T13:29:33.395Z</time>
      </trkpt>
      <trkpt lat="43.49295" lon="-1.48829">
        <ele>18.10143</ele>
        <time>2022-02-21T13:29:34.635Z</time>
      </trkpt>
      <trkpt lat="43.49296" lon="-1.48819">
        <ele>18.10405</ele>
        <time>2022-02-21T13:29:36.267Z</time>
      </trkpt>
      <trkpt lat="43.49289" lon="-1.4881">
        <ele>18.10749</ele>
        <time>2022-02-21T13:29:38.569Z</time>
      </trkpt>
      <trkpt lat="43.49282" lon="-1.48792">
        <ele>18.112886</ele>
        <time>2022-02-21T13:29:42.300Z</time>
      </trkpt>
      <trkpt lat="43.49267" lon="-1.48756">
        <ele>18.422233</ele>
        <time>2022-02-21T13:29:49.894Z</time>
      </trkpt>
      <trkpt lat="43.49238" lon="-1.48685">
        <ele>19.130153</ele>
        <time>2022-02-21T13:30:06.486Z</time>
      </trkpt>
      <trkpt lat="43.49209" lon="-1.48701">
        <ele>19.503708</ele>
        <time>2022-02-21T13:30:16.007Z</time>
      </trkpt>
      <trkpt lat="43.49178" lon="-1.48714">
        <ele>19.884325</ele>
        <time>2022-02-21T13:30:25.880Z</time>
      </trkpt>
      <trkpt lat="43.49145" lon="-1.48704">
        <ele>20.257488</ele>
        <time>2022-02-21T13:30:36.505Z</time>
      </trkpt>
      <trkpt lat="43.49117" lon="-1.48686">
        <ele>20.218291</ele>
        <time>2022-02-21T13:30:45.267Z</time>
      </trkpt>
      <trkpt lat="43.49078" lon="-1.48676">
        <ele>20.16838</ele>
        <time>2022-02-21T13:30:54.918Z</time>
      </trkpt>
      <trkpt lat="43.49067" lon="-1.48668">
        <ele>20.152562</ele>
        <time>2022-02-21T13:30:57.880Z</time>
      </trkpt>
      <trkpt lat="43.49057" lon="-1.48606">
        <ele>20.094463</ele>
        <time>2022-02-21T13:31:07.708Z</time>
      </trkpt>
      <trkpt lat="43.49049" lon="-1.48524">
        <ele>19.787382</ele>
        <time>2022-02-21T13:31:19.337Z</time>
      </trkpt>
      <trkpt lat="43.49047" lon="-1.48509">
        <ele>19.574332</ele>
        <time>2022-02-21T13:31:21.255Z</time>
      </trkpt>
      <trkpt lat="43.49046" lon="-1.48495">
        <ele>19.354705</ele>
        <time>2022-02-21T13:31:23.165Z</time>
      </trkpt>
      <trkpt lat="43.49034" lon="-1.484">
        <ele>17.914353</ele>
        <time>2022-02-21T13:31:35.428Z</time>
      </trkpt>
      <trkpt lat="43.49027" lon="-1.48322">
        <ele>16.747041</ele>
        <time>2022-02-21T13:31:45.545Z</time>
      </trkpt>
      <trkpt lat="43.49013" lon="-1.48228">
        <ele>16.166101</ele>
        <time>2022-02-21T13:31:59.414Z</time>
      </trkpt>
      <trkpt lat="43.49005" lon="-1.48229">
        <ele>16.136437</ele>
        <time>2022-02-21T13:32:02.484Z</time>
      </trkpt>
      <trkpt lat="43.48993" lon="-1.48234">
        <ele>16.094283</ele>
        <time>2022-02-21T13:32:06.865Z</time>
      </trkpt>
      <trkpt lat="43.48983" lon="-1.48238">
        <ele>16.058178</ele>
        <time>2022-02-21T13:32:10.674Z</time>
      </trkpt>
      <trkpt lat="43.48971" lon="-1.48243">
        <ele>16.016275</ele>
        <time>2022-02-21T13:32:15.129Z</time>
      </trkpt>
      <trkpt lat="43.48958" lon="-1.48249">
        <ele>15.967511</ele>
        <time>2022-02-21T13:32:20.243Z</time>
      </trkpt>
      <trkpt lat="43.48951" lon="-1.48251">
        <ele>15.943257</ele>
        <time>2022-02-21T13:32:22.853Z</time>
      </trkpt>
      <trkpt lat="43.48911" lon="-1.48272">
        <ele>15.795219</ele>
        <time>2022-02-21T13:32:38.905Z</time>
      </trkpt>
      <trkpt lat="43.48869" lon="-1.48283">
        <ele>15.921724</ele>
        <time>2022-02-21T13:32:49.693Z</time>
      </trkpt>
      <trkpt lat="43.48791" lon="-1.48317">
        <ele>16.747825</ele>
        <time>2022-02-21T13:33:12.381Z</time>
      </trkpt>
      <trkpt lat="43.48783" lon="-1.48305">
        <ele>16.869049</ele>
        <time>2022-02-21T13:33:15.893Z</time>
      </trkpt>
      <trkpt lat="43.48776" lon="-1.48293">
        <ele>16.975291</ele>
        <time>2022-02-21T13:33:19.587Z</time>
      </trkpt>
      <trkpt lat="43.48769" lon="-1.48291">
        <ele>17.052472</ele>
        <time>2022-02-21T13:33:22.309Z</time>
      </trkpt>
      <trkpt lat="43.48762" lon="-1.48289">
        <ele>17.121063</ele>
        <time>2022-02-21T13:33:24.684Z</time>
      </trkpt>
      <trkpt lat="43.48763" lon="-1.48282">
        <ele>17.169537</ele>
        <time>2022-02-21T13:33:26.356Z</time>
      </trkpt>
      <trkpt lat="43.48728" lon="-1.48297">
        <ele>17.535843</ele>
        <time>2022-02-21T13:33:36.944Z</time>
      </trkpt>
      <trkpt lat="43.48718" lon="-1.48297">
        <ele>17.713865</ele>
        <time>2022-02-21T13:33:39.865Z</time>
      </trkpt>
      <trkpt lat="43.48696" lon="-1.48297">
        <ele>18.132317</ele>
        <time>2022-02-21T13:33:46.999Z</time>
      </trkpt>
      <trkpt lat="43.48689" lon="-1.48303">
        <ele>18.279536</ele>
        <time>2022-02-21T13:33:49.609Z</time>
      </trkpt>
      <trkpt lat="43.48683" lon="-1.48297">
        <ele>18.398378</ele>
        <time>2022-02-21T13:33:51.531Z</time>
      </trkpt>
      <trkpt lat="43.48671" lon="-1.4829">
        <ele>18.637001</ele>
        <time>2022-02-21T13:33:55.723Z</time>
      </trkpt>
      <trkpt lat="43.48584" lon="-1.48284">
        <ele>20.241713</ele>
        <time>2022-02-21T13:34:23.360Z</time>
      </trkpt>
      <trkpt lat="43.48552" lon="-1.48281">
        <ele>20.83717</ele>
        <time>2022-02-21T13:34:34.021Z</time>
      </trkpt>
      <trkpt lat="43.48529" lon="-1.4828">
        <ele>21.230238</ele>
        <time>2022-02-21T13:34:41.525Z</time>
      </trkpt>
      <trkpt lat="43.4851" lon="-1.48278">
        <ele>21.553969</ele>
        <time>2022-02-21T13:34:47.760Z</time>
      </trkpt>
      <trkpt lat="43.48461" lon="-1.48269">
        <ele>22.399324</ele>
        <time>2022-02-21T13:35:03.167Z</time>
      </trkpt>
      <trkpt lat="43.48454" lon="-1.48267">
        <ele>22.52196</ele>
        <time>2022-02-21T13:35:05.364Z</time>
      </trkpt>
      <trkpt lat="43.48377" lon="-1.48253">
        <ele>23.845601</ele>
        <time>2022-02-21T13:35:27.775Z</time>
      </trkpt>
      <trkpt lat="43.48361" lon="-1.48249">
        <ele>24.224823</ele>
        <time>2022-02-21T13:35:32.395Z</time>
      </trkpt>
      <trkpt lat="43.4832" lon="-1.48241">
        <ele>25.25507</ele>
        <time>2022-02-21T13:35:45.047Z</time>
      </trkpt>
      <trkpt lat="43.48265" lon="-1.48249">
        <ele>26.63198</ele>
        <time>2022-02-21T13:36:03.967Z</time>
      </trkpt>
      <trkpt lat="43.48241" lon="-1.48247">
        <ele>27.251404</ele>
        <time>2022-02-21T13:36:13.251Z</time>
      </trkpt>
      <trkpt lat="43.48236" lon="-1.48257">
        <ele>27.473491</ele>
        <time>2022-02-21T13:36:16.728Z</time>
      </trkpt>
      <trkpt lat="43.48228" lon="-1.48255">
        <ele>27.68097</ele>
        <time>2022-02-21T13:36:19.981Z</time>
      </trkpt>
      <trkpt lat="43.48199" lon="-1.48265">
        <ele>28.419057</ele>
        <time>2022-02-21T13:36:31.854Z</time>
      </trkpt>
      <trkpt lat="43.4817" lon="-1.48265">
        <ele>29.416774</ele>
        <time>2022-02-21T13:36:43.343Z</time>
      </trkpt>
      <trkpt lat="43.48142" lon="-1.48266">
        <ele>30.386991</ele>
        <time>2022-02-21T13:36:54.630Z</time>
      </trkpt>
      <trkpt lat="43.48134" lon="-1.48267">
        <ele>30.678671</ele>
        <time>2022-02-21T13:36:57.868Z</time>
      </trkpt>
      <trkpt lat="43.4813" lon="-1.48273">
        <ele>30.877988</ele>
        <time>2022-02-21T13:37:00.195Z</time>
      </trkpt>
      <trkpt lat="43.48122" lon="-1.48275">
        <ele>31.142616</ele>
        <time>2022-02-21T13:37:03.152Z</time>
      </trkpt>
      <trkpt lat="43.4808" lon="-1.48305">
        <ele>32.794813</ele>
        <time>2022-02-21T13:37:22.093Z</time>
      </trkpt>
      <trkpt lat="43.48066" lon="-1.48319">
        <ele>33.40275</ele>
        <time>2022-02-21T13:37:28.953Z</time>
      </trkpt>
      <trkpt lat="43.47996" lon="-1.48386">
        <ele>35.884997</ele>
        <time>2022-02-21T13:38:02.442Z</time>
      </trkpt>
      <trkpt lat="43.47952" lon="-1.48414">
        <ele>37.122747</ele>
        <time>2022-02-21T13:38:20.194Z</time>
      </trkpt>
      <trkpt lat="43.47935" lon="-1.48422">
        <ele>37.604175</ele>
        <time>2022-02-21T13:38:26.349Z</time>
      </trkpt>
      <trkpt lat="43.47926" lon="-1.48427">
        <ele>37.848537</ele>
        <time>2022-02-21T13:38:29.282Z</time>
      </trkpt>
      <trkpt lat="43.4791" lon="-1.4843">
        <ele>38.240194</ele>
        <time>2022-02-21T13:38:34.191Z</time>
      </trkpt>
      <trkpt lat="43.47868" lon="-1.48431">
        <ele>39.277253</ele>
        <time>2022-02-21T13:38:47.541Z</time>
      </trkpt>
      <trkpt lat="43.47835" lon="-1.48426">
        <ele>39.719415</ele>
        <time>2022-02-21T13:38:57.719Z</time>
      </trkpt>
      <trkpt lat="43.47747" lon="-1.48407">
        <ele>40.906574</ele>
        <time>2022-02-21T13:39:23.234Z</time>
      </trkpt>
      <trkpt lat="43.47726" lon="-1.48401">
        <ele>41.197335</ele>
        <time>2022-02-21T13:39:29.216Z</time>
      </trkpt>
      <trkpt lat="43.47683" lon="-1.48396">
        <ele>41.54663</ele>
        <time>2022-02-21T13:39:40.734Z</time>
      </trkpt>
      <trkpt lat="43.47638" lon="-1.48407">
        <ele>41.201703</ele>
        <time>2022-02-21T13:39:53.647Z</time>
      </trkpt>
      <trkpt lat="43.47594" lon="-1.48422">
        <ele>40.864816</ele>
        <time>2022-02-21T13:40:04.962Z</time>
      </trkpt>
      <trkpt lat="43.47568" lon="-1.48434">
        <ele>40.662818</ele>
        <time>2022-02-21T13:40:10.519Z</time>
      </trkpt>
      <trkpt lat="43.4754" lon="-1.48455">
        <ele>40.417992</ele>
        <time>2022-02-21T13:40:16.550Z</time>
      </trkpt>
      <trkpt lat="43.47496" lon="-1.48488">
        <ele>37.855125</ele>
        <time>2022-02-21T13:40:24.607Z</time>
      </trkpt>
      <trkpt lat="43.475" lon="-1.48459">
        <ele>36.20423</ele>
        <time>2022-02-21T13:40:27.805Z</time>
      </trkpt>
      <trkpt lat="43.47523" lon="-1.4842">
        <ele>33.352865</ele>
        <time>2022-02-21T13:40:33.133Z</time>
      </trkpt>
      <trkpt lat="43.47507" lon="-1.48346">
        <ele>28.907389</ele>
        <time>2022-02-21T13:40:41.216Z</time>
      </trkpt>
      <trkpt lat="43.47497" lon="-1.48335">
        <ele>27.90948</ele>
        <time>2022-02-21T13:40:43.024Z</time>
      </trkpt>
      <trkpt lat="43.47406" lon="-1.48306">
        <ele>19.700244</ele>
        <time>2022-02-21T13:40:56.127Z</time>
      </trkpt>
      <trkpt lat="43.4737" lon="-1.48353">
        <ele>15.232188</ele>
        <time>2022-02-21T13:41:03.083Z</time>
      </trkpt>
      <trkpt lat="43.47361" lon="-1.48356">
        <ele>14.369893</ele>
        <time>2022-02-21T13:41:04.431Z</time>
      </trkpt>
      <trkpt lat="43.47353" lon="-1.48338">
        <ele>13.012939</ele>
        <time>2022-02-21T13:41:06.571Z</time>
      </trkpt>
      <trkpt lat="43.47367" lon="-1.48312">
        <ele>10.854783</ele>
        <time>2022-02-21T13:41:10.179Z</time>
      </trkpt>
      <trkpt lat="43.47362" lon="-1.4827">
        <ele>9.280073</ele>
        <time>2022-02-21T13:41:15.002Z</time>
      </trkpt>
      <trkpt lat="43.47337" lon="-1.48211">
        <ele>7.843021</ele>
        <time>2022-02-21T13:41:23.492Z</time>
      </trkpt>
      <trkpt lat="43.47278" lon="-1.48347">
        <ele>4.606953</ele>
        <time>2022-02-21T13:42:01.139Z</time>
      </trkpt>
      <trkpt lat="43.47247" lon="-1.48397">
        <ele>4.320759</ele>
        <time>2022-02-21T13:42:17.832Z</time>
      </trkpt>
      <trkpt lat="43.47178" lon="-1.48446">
        <ele>3.855232</ele>
        <time>2022-02-21T13:42:46.426Z</time>
      </trkpt>
      <trkpt lat="43.47131" lon="-1.48463">
        <ele>3.564244</ele>
        <time>2022-02-21T13:43:03.764Z</time>
      </trkpt>
      <trkpt lat="43.47025" lon="-1.48478">
        <ele>2.935321</ele>
        <time>2022-02-21T13:43:41.391Z</time>
      </trkpt>
      <trkpt lat="43.46935" lon="-1.48493">
        <ele>2.475569</ele>
        <time>2022-02-21T13:44:13.493Z</time>
      </trkpt>
      <trkpt lat="43.46879" lon="-1.48493">
        <ele>2.408448</ele>
        <time>2022-02-21T13:44:33.631Z</time>
      </trkpt>
      <trkpt lat="43.46764" lon="-1.48466">
        <ele>2.331899</ele>
        <time>2022-02-21T13:45:16.958Z</time>
      </trkpt>
      <trkpt lat="43.46657" lon="-1.48413">
        <ele>3.053262</ele>
        <time>2022-02-21T13:46:04.570Z</time>
      </trkpt>
      <trkpt lat="43.46568" lon="-1.48353">
        <ele>3.268</ele>
        <time>2022-02-21T13:46:43.575Z</time>
      </trkpt>
      <trkpt lat="43.465" lon="-1.48301">
        <ele>2.982109</ele>
        <time>2022-02-21T13:47:11.594Z</time>
      </trkpt>
      <trkpt lat="43.46363" lon="-1.48174">
        <ele>1.954289</ele>
        <time>2022-02-21T13:48:08.390Z</time>
      </trkpt>
      <trkpt lat="43.46305" lon="-1.48137">
        <ele>1.458839</ele>
        <time>2022-02-21T13:48:31.170Z</time>
      </trkpt>
      <trkpt lat="43.46242" lon="-1.48118">
        <ele>1.363807</ele>
        <time>2022-02-21T13:48:54.632Z</time>
      </trkpt>
      <trkpt lat="43.46214" lon="-1.48116">
        <ele>1.359913</ele>
        <time>2022-02-21T13:49:04.957Z</time>
      </trkpt>
      <trkpt lat="43.46168" lon="-1.48121">
        <ele>1.353441</ele>
        <time>2022-02-21T13:49:22.259Z</time>
      </trkpt>
      <trkpt lat="43.46116" lon="-1.48139">
        <ele>1.348785</ele>
        <time>2022-02-21T13:49:42.724Z</time>
      </trkpt>
      <trkpt lat="43.46042" lon="-1.48187">
        <ele>1.641846</ele>
        <time>2022-02-21T13:50:13.869Z</time>
      </trkpt>
      <trkpt lat="43.45996" lon="-1.48237">
        <ele>1.850104</ele>
        <time>2022-02-21T13:50:36.619Z</time>
      </trkpt>
      <trkpt lat="43.45962" lon="-1.48291">
        <ele>2.076189</ele>
        <time>2022-02-21T13:50:57.166Z</time>
      </trkpt>
      <trkpt lat="43.45905" lon="-1.48411">
        <ele>2.781436</ele>
        <time>2022-02-21T13:51:40.334Z</time>
      </trkpt>
      <trkpt lat="43.45854" lon="-1.48589">
        <ele>3.263978</ele>
        <time>2022-02-21T13:52:35.149Z</time>
      </trkpt>
      <trkpt lat="43.45834" lon="-1.48628">
        <ele>3.291475</ele>
        <time>2022-02-21T13:52:48.010Z</time>
      </trkpt>
      <trkpt lat="43.45807" lon="-1.48654">
        <ele>3.317273</ele>
        <time>2022-02-21T13:53:00.004Z</time>
      </trkpt>
      <trkpt lat="43.45782" lon="-1.48658">
        <ele>3.337142</ele>
        <time>2022-02-21T13:53:09.179Z</time>
      </trkpt>
      <trkpt lat="43.45767" lon="-1.48655">
        <ele>3.331757</ele>
        <time>2022-02-21T13:53:14.837Z</time>
      </trkpt>
      <trkpt lat="43.45724" lon="-1.48634">
        <ele>3.194617</ele>
        <time>2022-02-21T13:53:31.064Z</time>
      </trkpt>
      <trkpt lat="43.45716" lon="-1.48628">
        <ele>3.166451</ele>
        <time>2022-02-21T13:53:34.351Z</time>
      </trkpt>
      <trkpt lat="43.45712" lon="-1.48625">
        <ele>3.152403</ele>
        <time>2022-02-21T13:53:35.983Z</time>
      </trkpt>
      <trkpt lat="43.45646" lon="-1.48557">
        <ele>2.901989</ele>
        <time>2022-02-21T13:54:05.407Z</time>
      </trkpt>
      <trkpt lat="43.45586" lon="-1.48473">
        <ele>2.889336</ele>
        <time>2022-02-21T13:54:37.411Z</time>
      </trkpt>
      <trkpt lat="43.4558" lon="-1.4846">
        <ele>2.909097</ele>
        <time>2022-02-21T13:54:41.722Z</time>
      </trkpt>
      <trkpt lat="43.45558" lon="-1.48421">
        <ele>2.972193</ele>
        <time>2022-02-21T13:54:56.005Z</time>
      </trkpt>
      <trkpt lat="43.45508" lon="-1.48351">
        <ele>3.098326</ele>
        <time>2022-02-21T13:55:23.923Z</time>
      </trkpt>
      <trkpt lat="43.45423" lon="-1.48275">
        <ele>2.704001</ele>
        <time>2022-02-21T13:56:00.128Z</time>
      </trkpt>
      <trkpt lat="43.45384" lon="-1.48232">
        <ele>2.477837</ele>
        <time>2022-02-21T13:56:17.876Z</time>
      </trkpt>
      <trkpt lat="43.45361" lon="-1.48189">
        <ele>2.301811</ele>
        <time>2022-02-21T13:56:31.598Z</time>
      </trkpt>
      <trkpt lat="43.45359" lon="-1.48182">
        <ele>2.278635</ele>
        <time>2022-02-21T13:56:33.392Z</time>
      </trkpt>
      <trkpt lat="43.45337" lon="-1.48147">
        <ele>2.126042</ele>
        <time>2022-02-21T13:56:45.020Z</time>
      </trkpt>
      <trkpt lat="43.45306" lon="-1.48072">
        <ele>1.836089</ele>
        <time>2022-02-21T13:57:07.098Z</time>
      </trkpt>
      <trkpt lat="43.45293" lon="-1.4801">
        <ele>1.623987</ele>
        <time>2022-02-21T13:57:23.642Z</time>
      </trkpt>
      <trkpt lat="43.45291" lon="-1.47921">
        <ele>1.693962</ele>
        <time>2022-02-21T13:57:48.870Z</time>
      </trkpt>
      <trkpt lat="43.45325" lon="-1.47773">
        <ele>2.406488</ele>
        <time>2022-02-21T13:58:35.136Z</time>
      </trkpt>
      <trkpt lat="43.4532" lon="-1.47741">
        <ele>2.55754</ele>
        <time>2022-02-21T13:58:44.891Z</time>
      </trkpt>
      <trkpt lat="43.45302" lon="-1.47708">
        <ele>2.685924</ele>
        <time>2022-02-21T13:58:57.123Z</time>
      </trkpt>
      <trkpt lat="43.45275" lon="-1.47682">
        <ele>2.792439</ele>
        <time>2022-02-21T13:59:10.347Z</time>
      </trkpt>
      <trkpt lat="43.45223" lon="-1.4765">
        <ele>2.975279</ele>
        <time>2022-02-21T13:59:32.519Z</time>
      </trkpt>
      <trkpt lat="43.45164" lon="-1.47631">
        <ele>3.169802</ele>
        <time>2022-02-21T13:59:55.278Z</time>
      </trkpt>
      <trkpt lat="43.45132" lon="-1.47613">
        <ele>3.18194</ele>
        <time>2022-02-21T14:00:07.864Z</time>
      </trkpt>
      <trkpt lat="43.45083" lon="-1.47604">
        <ele>3.146903</ele>
        <time>2022-02-21T14:00:25.897Z</time>
      </trkpt>
      <trkpt lat="43.44982" lon="-1.47554">
        <ele>3.08016</ele>
        <time>2022-02-21T14:01:05.404Z</time>
      </trkpt>
      <trkpt lat="43.4494" lon="-1.4752">
        <ele>3.235468</ele>
        <time>2022-02-21T14:01:23.940Z</time>
      </trkpt>
      <trkpt lat="43.44899" lon="-1.47471">
        <ele>3.408934</ele>
        <time>2022-02-21T14:01:45.095Z</time>
      </trkpt>
      <trkpt lat="43.44843" lon="-1.47387">
        <ele>3.6493</ele>
        <time>2022-02-21T14:02:17.854Z</time>
      </trkpt>
      <trkpt lat="43.44826" lon="-1.47375">
        <ele>3.650039</ele>
        <time>2022-02-21T14:02:25.478Z</time>
      </trkpt>
      <trkpt lat="43.448" lon="-1.47372">
        <ele>3.651045</ele>
        <time>2022-02-21T14:02:35.768Z</time>
      </trkpt>
      <trkpt lat="43.4476" lon="-1.47385">
        <ele>3.652597</ele>
        <time>2022-02-21T14:02:51.145Z</time>
      </trkpt>
      <trkpt lat="43.44644" lon="-1.47471">
        <ele>3.37436</ele>
        <time>2022-02-21T14:03:38.579Z</time>
      </trkpt>
      <trkpt lat="43.445" lon="-1.47538">
        <ele>2.469819</ele>
        <time>2022-02-21T14:04:31.954Z</time>
      </trkpt>
      <trkpt lat="43.44427" lon="-1.47554">
        <ele>2.110465</ele>
        <time>2022-02-21T14:04:58.222Z</time>
      </trkpt>
      <trkpt lat="43.44372" lon="-1.47558">
        <ele>1.841956</ele>
        <time>2022-02-21T14:05:18.097Z</time>
      </trkpt>
      <trkpt lat="43.44243" lon="-1.47555">
        <ele>1.638828</ele>
        <time>2022-02-21T14:06:05.003Z</time>
      </trkpt>
      <trkpt lat="43.44159" lon="-1.47534">
        <ele>1.60556</ele>
        <time>2022-02-21T14:06:36.857Z</time>
      </trkpt>
      <trkpt lat="43.44071" lon="-1.47522">
        <ele>2.024442</ele>
        <time>2022-02-21T14:07:11.201Z</time>
      </trkpt>
      <trkpt lat="43.43925" lon="-1.47491">
        <ele>2.845321</ele>
        <time>2022-02-21T14:08:11.010Z</time>
      </trkpt>
      <trkpt lat="43.4392" lon="-1.4749">
        <ele>2.875197</ele>
        <time>2022-02-21T14:08:12.813Z</time>
      </trkpt>
      <trkpt lat="43.43903" lon="-1.47486">
        <ele>2.993021</ele>
        <time>2022-02-21T14:08:19.984Z</time>
      </trkpt>
      <trkpt lat="43.43844" lon="-1.47448">
        <ele>3.434381</ele>
        <time>2022-02-21T14:08:46.429Z</time>
      </trkpt>
      <trkpt lat="43.43812" lon="-1.47418">
        <ele>3.698756</ele>
        <time>2022-02-21T14:09:02.033Z</time>
      </trkpt>
      <trkpt lat="43.43791" lon="-1.47387">
        <ele>3.933113</ele>
        <time>2022-02-21T14:09:14.544Z</time>
      </trkpt>
      <trkpt lat="43.43755" lon="-1.47255">
        <ele>4.712191</ele>
        <time>2022-02-21T14:09:56.670Z</time>
      </trkpt>
      <trkpt lat="43.43756" lon="-1.47236">
        <ele>4.816241</ele>
        <time>2022-02-21T14:10:02.424Z</time>
      </trkpt>
      <trkpt lat="43.43757" lon="-1.47221">
        <ele>4.900444</ele>
        <time>2022-02-21T14:10:06.870Z</time>
      </trkpt>
      <trkpt lat="43.43764" lon="-1.47137">
        <ele>5.275427</ele>
        <time>2022-02-21T14:10:31.767Z</time>
      </trkpt>
      <trkpt lat="43.4376" lon="-1.4703">
        <ele>5.700943</ele>
        <time>2022-02-21T14:11:02.837Z</time>
      </trkpt>
      <trkpt lat="43.43745" lon="-1.46917">
        <ele>6.046641</ele>
        <time>2022-02-21T14:11:35.395Z</time>
      </trkpt>
      <trkpt lat="43.43758" lon="-1.4661">
        <ele>6.01476</ele>
        <time>2022-02-21T14:12:58.408Z</time>
      </trkpt>
      <trkpt lat="43.4378" lon="-1.46443">
        <ele>5.666323</ele>
        <time>2022-02-21T14:13:42.741Z</time>
      </trkpt>
      <trkpt lat="43.4378" lon="-1.46388">
        <ele>5.481936</ele>
        <time>2022-02-21T14:13:56.836Z</time>
      </trkpt>
      <trkpt lat="43.43768" lon="-1.46335">
        <ele>5.296785</ele>
        <time>2022-02-21T14:14:10.975Z</time>
      </trkpt>
      <trkpt lat="43.4361" lon="-1.46061">
        <ele>4.318841</ele>
        <time>2022-02-21T14:15:42.641Z</time>
      </trkpt>
      <trkpt lat="43.43577" lon="-1.46009">
        <ele>4.113302</ele>
        <time>2022-02-21T14:16:00.776Z</time>
      </trkpt>
      <trkpt lat="43.43481" lon="-1.45881">
        <ele>3.533141</ele>
        <time>2022-02-21T14:16:48.534Z</time>
      </trkpt>
      <trkpt lat="43.43447" lon="-1.45848">
        <ele>3.423927</ele>
        <time>2022-02-21T14:17:03.506Z</time>
      </trkpt>
      <trkpt lat="43.43393" lon="-1.45811">
        <ele>3.298252</ele>
        <time>2022-02-21T14:17:25.421Z</time>
      </trkpt>
      <trkpt lat="43.43343" lon="-1.45782">
        <ele>3.185543</ele>
        <time>2022-02-21T14:17:45.267Z</time>
      </trkpt>
      <trkpt lat="43.43303" lon="-1.45772">
        <ele>3.097839</ele>
        <time>2022-02-21T14:18:00.516Z</time>
      </trkpt>
      <trkpt lat="43.43274" lon="-1.45753">
        <ele>3.023757</ele>
        <time>2022-02-21T14:18:12.248Z</time>
      </trkpt>
      <trkpt lat="43.43242" lon="-1.45742">
        <ele>2.944715</ele>
        <time>2022-02-21T14:18:24.626Z</time>
      </trkpt>
      <trkpt lat="43.43229" lon="-1.45744">
        <ele>2.915203</ele>
        <time>2022-02-21T14:18:29.193Z</time>
      </trkpt>
      <trkpt lat="43.43219" lon="-1.45757">
        <ele>2.882695</ele>
        <time>2022-02-21T14:18:34.246Z</time>
      </trkpt>
      <trkpt lat="43.4321" lon="-1.45778">
        <ele>2.841084</ele>
        <time>2022-02-21T14:18:40.640Z</time>
      </trkpt>
      <trkpt lat="43.43203" lon="-1.45851">
        <ele>2.715237</ele>
        <time>2022-02-21T14:18:59.809Z</time>
      </trkpt>
      <trkpt lat="43.43175" lon="-1.45995">
        <ele>2.210948</ele>
        <time>2022-02-21T14:19:38.273Z</time>
      </trkpt>
      <trkpt lat="43.43154" lon="-1.46057">
        <ele>1.968637</ele>
        <time>2022-02-21T14:19:55.998Z</time>
      </trkpt>
      <trkpt lat="43.43122" lon="-1.46111">
        <ele>1.873163</ele>
        <time>2022-02-21T14:20:14.190Z</time>
      </trkpt>
      <trkpt lat="43.43099" lon="-1.46126">
        <ele>1.943811</ele>
        <time>2022-02-21T14:20:23.565Z</time>
      </trkpt>
      <trkpt lat="43.43058" lon="-1.46138">
        <ele>2.062559</ele>
        <time>2022-02-21T14:20:39.772Z</time>
      </trkpt>
      <trkpt lat="43.43012" lon="-1.46125">
        <ele>2.192439</ele>
        <time>2022-02-21T14:20:58.162Z</time>
      </trkpt>
      <trkpt lat="43.42854" lon="-1.46062">
        <ele>2.934255</ele>
        <time>2022-02-21T14:22:04.624Z</time>
      </trkpt>
      <trkpt lat="43.42705" lon="-1.46015">
        <ele>3.275472</ele>
        <time>2022-02-21T14:23:03.161Z</time>
      </trkpt>
      <trkpt lat="43.4269" lon="-1.46015">
        <ele>3.279299</ele>
        <time>2022-02-21T14:23:08.659Z</time>
      </trkpt>
      <trkpt lat="43.42677" lon="-1.46042">
        <ele>3.285186</ele>
        <time>2022-02-21T14:23:17.156Z</time>
      </trkpt>
      <trkpt lat="43.42668" lon="-1.46049">
        <ele>3.287868</ele>
        <time>2022-02-21T14:23:21.002Z</time>
      </trkpt>
      <trkpt lat="43.42615" lon="-1.46017">
        <ele>3.250403</ele>
        <time>2022-02-21T14:23:42.138Z</time>
      </trkpt>
      <trkpt lat="43.42619" lon="-1.46004">
        <ele>3.222436</ele>
        <time>2022-02-21T14:23:45.877Z</time>
      </trkpt>
      <trkpt lat="43.42618" lon="-1.45991">
        <ele>3.197411</ele>
        <time>2022-02-21T14:23:49.369Z</time>
      </trkpt>
      <trkpt lat="43.42601" lon="-1.4597">
        <ele>3.138255</ele>
        <time>2022-02-21T14:23:57.357Z</time>
      </trkpt>
      <trkpt lat="43.42589" lon="-1.45953">
        <ele>3.090972</ele>
        <time>2022-02-21T14:24:01.379Z</time>
      </trkpt>
      <trkpt lat="43.42536" lon="-1.45894">
        <ele>2.910585</ele>
        <time>2022-02-21T14:24:16.376Z</time>
      </trkpt>
      <trkpt lat="43.42486" lon="-1.45867">
        <ele>2.852373</ele>
        <time>2022-02-21T14:24:28.470Z</time>
      </trkpt>
      <trkpt lat="43.42445" lon="-1.4583">
        <ele>2.933275</ele>
        <time>2022-02-21T14:24:39.712Z</time>
      </trkpt>
      <trkpt lat="43.42393" lon="-1.45771">
        <ele>3.04513</ele>
        <time>2022-02-21T14:24:56.139Z</time>
      </trkpt>
      <trkpt lat="43.42347" lon="-1.45747">
        <ele>3.153655</ele>
        <time>2022-02-21T14:25:08.748Z</time>
      </trkpt>
      <trkpt lat="43.4232" lon="-1.45742">
        <ele>3.328143</ele>
        <time>2022-02-21T14:25:15.906Z</time>
      </trkpt>
      <trkpt lat="43.42208" lon="-1.45735">
        <ele>4.059586</ele>
        <time>2022-02-21T14:25:46.087Z</time>
      </trkpt>
      <trkpt lat="43.42179" lon="-1.45728">
        <ele>4.254257</ele>
        <time>2022-02-21T14:25:54.159Z</time>
      </trkpt>
      <trkpt lat="43.42105" lon="-1.45693">
        <ele>4.420558</ele>
        <time>2022-02-21T14:26:14.068Z</time>
      </trkpt>
      <trkpt lat="43.42092" lon="-1.45682">
        <ele>4.44912</ele>
        <time>2022-02-21T14:26:17.869Z</time>
      </trkpt>
      <trkpt lat="43.42072" lon="-1.45652">
        <ele>4.503887</ele>
        <time>2022-02-21T14:26:25.053Z</time>
      </trkpt>
      <trkpt lat="43.42026" lon="-1.45572">
        <ele>4.574204</ele>
        <time>2022-02-21T14:26:41.691Z</time>
      </trkpt>
      <trkpt lat="43.42009" lon="-1.45564">
        <ele>4.504613</ele>
        <time>2022-02-21T14:26:45.816Z</time>
      </trkpt>
      <trkpt lat="43.41968" lon="-1.45572">
        <ele>4.352111</ele>
        <time>2022-02-21T14:26:54.796Z</time>
      </trkpt>
      <trkpt lat="43.41801" lon="-1.45703">
        <ele>3.935006</ele>
        <time>2022-02-21T14:27:37.115Z</time>
      </trkpt>
      <trkpt lat="43.41743" lon="-1.45742">
        <ele>3.925184</ele>
        <time>2022-02-21T14:27:52.594Z</time>
      </trkpt>
      <trkpt lat="43.41627" lon="-1.45797">
        <ele>4.286172</ele>
        <time>2022-02-21T14:28:24.776Z</time>
      </trkpt>
      <trkpt lat="43.41594" lon="-1.45818">
        <ele>4.432038</ele>
        <time>2022-02-21T14:28:34.233Z</time>
      </trkpt>
      <trkpt lat="43.41377" lon="-1.46016">
        <ele>4.830244</ele>
        <time>2022-02-21T14:29:35.723Z</time>
      </trkpt>
      <trkpt lat="43.41352" lon="-1.46114">
        <ele>4.800583</ele>
        <time>2022-02-21T14:29:52.827Z</time>
      </trkpt>
      <trkpt lat="43.41348" lon="-1.46167">
        <ele>4.785275</ele>
        <time>2022-02-21T14:30:01.758Z</time>
      </trkpt>
      <trkpt lat="43.41327" lon="-1.46225">
        <ele>4.7683</ele>
        <time>2022-02-21T14:30:12.797Z</time>
      </trkpt>
      <trkpt lat="43.41319" lon="-1.46242">
        <ele>4.765105</ele>
        <time>2022-02-21T14:30:16.265Z</time>
      </trkpt>
      <trkpt lat="43.41313" lon="-1.46266">
        <ele>4.761061</ele>
        <time>2022-02-21T14:30:20.680Z</time>
      </trkpt>
      <trkpt lat="43.4122" lon="-1.46315">
        <ele>4.739324</ele>
        <time>2022-02-21T14:30:43.450Z</time>
      </trkpt>
      <trkpt lat="43.41186" lon="-1.46336">
        <ele>4.731087</ele>
        <time>2022-02-21T14:30:52.135Z</time>
      </trkpt>
      <trkpt lat="43.41173" lon="-1.46344">
        <ele>4.725812</ele>
        <time>2022-02-21T14:30:55.471Z</time>
      </trkpt>
      <trkpt lat="43.41172" lon="-1.46329">
        <ele>4.721578</ele>
        <time>2022-02-21T14:30:58.664Z</time>
      </trkpt>
      <trkpt lat="43.41147" lon="-1.46272">
        <ele>4.702625</ele>
        <time>2022-02-21T14:31:09.415Z</time>
      </trkpt>
      <trkpt lat="43.41086" lon="-1.46244">
        <ele>4.677649</ele>
        <time>2022-02-21T14:31:23.514Z</time>
      </trkpt>
      <trkpt lat="43.4107" lon="-1.46221">
        <ele>4.668469</ele>
        <time>2022-02-21T14:31:28.643Z</time>
      </trkpt>
      <trkpt lat="43.41052" lon="-1.46216">
        <ele>4.661349</ele>
        <time>2022-02-21T14:31:32.555Z</time>
      </trkpt>
      <trkpt lat="43.40927" lon="-1.4613">
        <ele>4.769702</ele>
        <time>2022-02-21T14:32:03.753Z</time>
      </trkpt>
      <trkpt lat="43.40873" lon="-1.46127">
        <ele>4.859437</ele>
        <time>2022-02-21T14:32:16.256Z</time>
      </trkpt>
      <trkpt lat="43.40773" lon="-1.46095">
        <ele>5.350109</ele>
        <time>2022-02-21T14:32:40.848Z</time>
      </trkpt>
      <trkpt lat="43.40692" lon="-1.46079">
        <ele>5.998586</ele>
        <time>2022-02-21T14:33:01.911Z</time>
      </trkpt>
      <trkpt lat="43.40655" lon="-1.46061">
        <ele>6.756702</ele>
        <time>2022-02-21T14:33:13.279Z</time>
      </trkpt>
      <trkpt lat="43.40575" lon="-1.46028">
        <ele>8.406263</ele>
        <time>2022-02-21T14:33:41.030Z</time>
      </trkpt>
      <trkpt lat="43.40567" lon="-1.46024">
        <ele>8.564614</ele>
        <time>2022-02-21T14:33:43.971Z</time>
      </trkpt>
      <trkpt lat="43.40535" lon="-1.46014">
        <ele>9.218069</ele>
        <time>2022-02-21T14:33:56.525Z</time>
      </trkpt>
      <trkpt lat="43.4052" lon="-1.46009">
        <ele>9.597596</ele>
        <time>2022-02-21T14:34:02.749Z</time>
      </trkpt>
      <trkpt lat="43.40514" lon="-1.46008">
        <ele>9.743116</ele>
        <time>2022-02-21T14:34:05.075Z</time>
      </trkpt>
      <trkpt lat="43.40391" lon="-1.45985">
        <ele>12.693134</ele>
        <time>2022-02-21T14:34:49.288Z</time>
      </trkpt>
      <trkpt lat="43.40377" lon="-1.45985">
        <ele>13.030368</ele>
        <time>2022-02-21T14:34:54.150Z</time>
      </trkpt>
      <trkpt lat="43.40332" lon="-1.45989">
        <ele>13.712206</ele>
        <time>2022-02-21T14:35:08.506Z</time>
      </trkpt>
      <trkpt lat="43.40321" lon="-1.45997">
        <ele>13.811389</ele>
        <time>2022-02-21T14:35:12.124Z</time>
      </trkpt>
      <trkpt lat="43.40311" lon="-1.45979">
        <ele>13.949742</ele>
        <time>2022-02-21T14:35:16.983Z</time>
      </trkpt>
      <trkpt lat="43.40269" lon="-1.45937">
        <ele>14.378004</ele>
        <time>2022-02-21T14:35:31.197Z</time>
      </trkpt>
      <trkpt lat="43.40261" lon="-1.45928">
        <ele>14.459633</ele>
        <time>2022-02-21T14:35:33.797Z</time>
      </trkpt>
      <trkpt lat="43.4022" lon="-1.45878">
        <ele>14.914143</ele>
        <time>2022-02-21T14:35:46.592Z</time>
      </trkpt>
      <trkpt lat="43.40199" lon="-1.4584">
        <ele>14.891495</ele>
        <time>2022-02-21T14:35:54.489Z</time>
      </trkpt>
      <trkpt lat="43.40184" lon="-1.45816">
        <ele>14.809821</ele>
        <time>2022-02-21T14:36:00.096Z</time>
      </trkpt>
      <trkpt lat="43.40151" lon="-1.45782">
        <ele>14.668732</ele>
        <time>2022-02-21T14:36:09.576Z</time>
      </trkpt>
      <trkpt lat="43.40106" lon="-1.45741">
        <ele>14.484365</ele>
        <time>2022-02-21T14:36:21.290Z</time>
      </trkpt>
      <trkpt lat="43.40082" lon="-1.45719">
        <ele>14.38508</ele>
        <time>2022-02-21T14:36:27.421Z</time>
      </trkpt>
      <trkpt lat="43.40066" lon="-1.45712">
        <ele>14.294706</ele>
        <time>2022-02-21T14:36:30.857Z</time>
      </trkpt>
      <trkpt lat="43.40037" lon="-1.45699">
        <ele>14.090014</ele>
        <time>2022-02-21T14:36:37.261Z</time>
      </trkpt>
      <trkpt lat="43.40014" lon="-1.45678">
        <ele>13.905442</ele>
        <time>2022-02-21T14:36:43.099Z</time>
      </trkpt>
      <trkpt lat="43.40004" lon="-1.45662">
        <ele>13.803673</ele>
        <time>2022-02-21T14:36:46.222Z</time>
      </trkpt>
      <trkpt lat="43.39943" lon="-1.45591">
        <ele>13.271652</ele>
        <time>2022-02-21T14:37:02.799Z</time>
      </trkpt>
      <trkpt lat="43.39894" lon="-1.45533">
        <ele>13.377215</ele>
        <time>2022-02-21T14:37:16.367Z</time>
      </trkpt>
      <trkpt lat="43.39816" lon="-1.45479">
        <ele>13.762102</ele>
        <time>2022-02-21T14:37:36.992Z</time>
      </trkpt>
      <trkpt lat="43.39735" lon="-1.45431">
        <ele>14.945875</ele>
        <time>2022-02-21T14:38:04.188Z</time>
      </trkpt>
      <trkpt lat="43.39706" lon="-1.4543">
        <ele>15.582803</ele>
        <time>2022-02-21T14:38:13.358Z</time>
      </trkpt>
      <trkpt lat="43.39699" lon="-1.45438">
        <ele>15.787817</ele>
        <time>2022-02-21T14:38:16.510Z</time>
      </trkpt>
      <trkpt lat="43.39688" lon="-1.45468">
        <ele>16.330437</ele>
        <time>2022-02-21T14:38:24.588Z</time>
      </trkpt>
      <trkpt lat="43.39678" lon="-1.45502">
        <ele>16.921354</ele>
        <time>2022-02-21T14:38:33.859Z</time>
      </trkpt>
      <trkpt lat="43.39683" lon="-1.45544">
        <ele>17.607524</ele>
        <time>2022-02-21T14:38:44.873Z</time>
      </trkpt>
      <trkpt lat="43.39682" lon="-1.45559">
        <ele>17.86269</ele>
        <time>2022-02-21T14:38:49.066Z</time>
      </trkpt>
      <trkpt lat="43.39674" lon="-1.45575">
        <ele>18.218792</ele>
        <time>2022-02-21T14:38:53.907Z</time>
      </trkpt>
      <trkpt lat="43.39655" lon="-1.45587">
        <ele>18.852226</ele>
        <time>2022-02-21T14:39:02.269Z</time>
      </trkpt>
      <trkpt lat="43.39635" lon="-1.45582">
        <ele>19.415259</ele>
        <time>2022-02-21T14:39:09.818Z</time>
      </trkpt>
      <trkpt lat="43.39601" lon="-1.45575">
        <ele>20.425932</ele>
        <time>2022-02-21T14:39:22.598Z</time>
      </trkpt>
      <trkpt lat="43.3958" lon="-1.45578">
        <ele>21.039205</ele>
        <time>2022-02-21T14:39:29.862Z</time>
      </trkpt>
      <trkpt lat="43.39509" lon="-1.4561">
        <ele>23.222605</ele>
        <time>2022-02-21T14:39:56.065Z</time>
      </trkpt>
      <trkpt lat="43.39498" lon="-1.45624">
        <ele>23.832596</ele>
        <time>2022-02-21T14:40:01.773Z</time>
      </trkpt>
      <trkpt lat="43.39466" lon="-1.45691">
        <ele>26.236581</ele>
        <time>2022-02-21T14:40:26.625Z</time>
      </trkpt>
      <trkpt lat="43.39449" lon="-1.45726">
        <ele>27.495846</ele>
        <time>2022-02-21T14:40:41.952Z</time>
      </trkpt>
      <trkpt lat="43.39431" lon="-1.45784">
        <ele>29.380525</ele>
        <time>2022-02-21T14:41:03.298Z</time>
      </trkpt>
      <trkpt lat="43.39425" lon="-1.45802">
        <ele>29.989555</ele>
        <time>2022-02-21T14:41:09.874Z</time>
      </trkpt>
      <trkpt lat="43.39417" lon="-1.45828">
        <ele>30.70084</ele>
        <time>2022-02-21T14:41:17.804Z</time>
      </trkpt>
      <trkpt lat="43.39409" lon="-1.45882">
        <ele>31.484186</ele>
        <time>2022-02-21T14:41:32.832Z</time>
      </trkpt>
      <trkpt lat="43.39413" lon="-1.45914">
        <ele>31.9497</ele>
        <time>2022-02-21T14:41:42.700Z</time>
      </trkpt>
      <trkpt lat="43.39424" lon="-1.45935">
        <ele>32.329091</ele>
        <time>2022-02-21T14:41:47.970Z</time>
      </trkpt>
      <trkpt lat="43.39427" lon="-1.45938">
        <ele>32.40414</ele>
        <time>2022-02-21T14:41:49.567Z</time>
      </trkpt>
      <trkpt lat="43.39437" lon="-1.45946">
        <ele>32.63243</ele>
        <time>2022-02-21T14:41:54.368Z</time>
      </trkpt>
      <trkpt lat="43.39448" lon="-1.45936">
        <ele>32.87957</ele>
        <time>2022-02-21T14:41:57.267Z</time>
      </trkpt>
      <trkpt lat="43.39448" lon="-1.45921">
        <ele>33.091823</ele>
        <time>2022-02-21T14:42:00.573Z</time>
      </trkpt>
      <trkpt lat="43.39423" lon="-1.45885">
        <ele>33.798146</ele>
        <time>2022-02-21T14:42:10.748Z</time>
      </trkpt>
      <trkpt lat="43.394" lon="-1.45848">
        <ele>33.997314</ele>
        <time>2022-02-21T14:42:18.522Z</time>
      </trkpt>
      <trkpt lat="43.39337" lon="-1.45748">
        <ele>33.250216</ele>
        <time>2022-02-21T14:42:36.145Z</time>
      </trkpt>
      <trkpt lat="43.39289" lon="-1.45677">
        <ele>32.732015</ele>
        <time>2022-02-21T14:42:50.999Z</time>
      </trkpt>
      <trkpt lat="43.39252" lon="-1.45625">
        <ele>32.629242</ele>
        <time>2022-02-21T14:43:05.855Z</time>
      </trkpt>
      <trkpt lat="43.3924" lon="-1.45608">
        <ele>32.596562</ele>
        <time>2022-02-21T14:43:10.198Z</time>
      </trkpt>
      <trkpt lat="43.39207" lon="-1.45573">
        <ele>32.515953</ele>
        <time>2022-02-21T14:43:19.844Z</time>
      </trkpt>
      <trkpt lat="43.39154" lon="-1.45518">
        <ele>32.290277</ele>
        <time>2022-02-21T14:43:33.737Z</time>
      </trkpt>
      <trkpt lat="43.39141" lon="-1.45497">
        <ele>31.579117</ele>
        <time>2022-02-21T14:43:37.765Z</time>
      </trkpt>
      <trkpt lat="43.39057" lon="-1.45297">
        <ele>25.784372</ele>
        <time>2022-02-21T14:44:05.502Z</time>
      </trkpt>
      <trkpt lat="43.39042" lon="-1.45274">
        <ele>24.96433</ele>
        <time>2022-02-21T14:44:08.881Z</time>
      </trkpt>
      <trkpt lat="43.39013" lon="-1.45241">
        <ele>23.579358</ele>
        <time>2022-02-21T14:44:14.754Z</time>
      </trkpt>
      <trkpt lat="43.39004" lon="-1.45248">
        <ele>23.198159</ele>
        <time>2022-02-21T14:44:16.441Z</time>
      </trkpt>
      <trkpt lat="43.38994" lon="-1.45243">
        <ele>22.818324</ele>
        <time>2022-02-21T14:44:18.135Z</time>
      </trkpt>
      <trkpt lat="43.3899" lon="-1.45231">
        <ele>22.44532</ele>
        <time>2022-02-21T14:44:19.718Z</time>
      </trkpt>
      <trkpt lat="43.38994" lon="-1.45218">
        <ele>22.070304</ele>
        <time>2022-02-21T14:44:21.357Z</time>
      </trkpt>
      <trkpt lat="43.38946" lon="-1.45174">
        <ele>19.923181</ele>
        <time>2022-02-21T14:44:31.258Z</time>
      </trkpt>
      <trkpt lat="43.38819" lon="-1.45118">
        <ele>20.306334</ele>
        <time>2022-02-21T14:45:02.297Z</time>
      </trkpt>
      <trkpt lat="43.38757" lon="-1.45066">
        <ele>20.774639</ele>
        <time>2022-02-21T14:45:27.579Z</time>
      </trkpt>
      <trkpt lat="43.38739" lon="-1.45049">
        <ele>20.950971</ele>
        <time>2022-02-21T14:45:35.363Z</time>
      </trkpt>
      <trkpt lat="43.38677" lon="-1.44981">
        <ele>21.585397</ele>
        <time>2022-02-21T14:46:00.517Z</time>
      </trkpt>
      <trkpt lat="43.38609" lon="-1.44885">
        <ele>20.947666</ele>
        <time>2022-02-21T14:46:19.858Z</time>
      </trkpt>
      <trkpt lat="43.38555" lon="-1.44781">
        <ele>17.911369</ele>
        <time>2022-02-21T14:46:35.101Z</time>
      </trkpt>
      <trkpt lat="43.38482" lon="-1.44617">
        <ele>13.945803</ele>
        <time>2022-02-21T14:46:58.118Z</time>
      </trkpt>
      <trkpt lat="43.38479" lon="-1.4461">
        <ele>13.783775</ele>
        <time>2022-02-21T14:46:59.279Z</time>
      </trkpt>
      <trkpt lat="43.3847" lon="-1.44589">
        <ele>13.334447</ele>
        <time>2022-02-21T14:47:02.315Z</time>
      </trkpt>
      <trkpt lat="43.38443" lon="-1.44558">
        <ele>12.437073</ele>
        <time>2022-02-21T14:47:08.818Z</time>
      </trkpt>
      <trkpt lat="43.38434" lon="-1.44559">
        <ele>12.191099</ele>
        <time>2022-02-21T14:47:10.724Z</time>
      </trkpt>
      <trkpt lat="43.38418" lon="-1.44544">
        <ele>11.69298</ele>
        <time>2022-02-21T14:47:14.706Z</time>
      </trkpt>
      <trkpt lat="43.38414" lon="-1.4453">
        <ele>11.56643</ele>
        <time>2022-02-21T14:47:16.771Z</time>
      </trkpt>
      <trkpt lat="43.38399" lon="-1.44526">
        <ele>11.611818</ele>
        <time>2022-02-21T14:47:21.506Z</time>
      </trkpt>
      <trkpt lat="43.38391" lon="-1.44523">
        <ele>11.636725</ele>
        <time>2022-02-21T14:47:23.828Z</time>
      </trkpt>
      <trkpt lat="43.38382" lon="-1.44506">
        <ele>11.682148</ele>
        <time>2022-02-21T14:47:28.031Z</time>
      </trkpt>
      <trkpt lat="43.38387" lon="-1.4446">
        <ele>11.784417</ele>
        <time>2022-02-21T14:47:38.864Z</time>
      </trkpt>
      <trkpt lat="43.38382" lon="-1.44429">
        <ele>11.852518</ele>
        <time>2022-02-21T14:47:46.951Z</time>
      </trkpt>
      <trkpt lat="43.38348" lon="-1.44355">
        <ele>12.042499</ele>
        <time>2022-02-21T14:48:07.926Z</time>
      </trkpt>
      <trkpt lat="43.38347" lon="-1.44318">
        <ele>12.159691</ele>
        <time>2022-02-21T14:48:15.862Z</time>
      </trkpt>
      <trkpt lat="43.38129" lon="-1.43832">
        <ele>14.859417</ele>
        <time>2022-02-21T14:50:01.739Z</time>
      </trkpt>
      <trkpt lat="43.38093" lon="-1.43752">
        <ele>15.360671</ele>
        <time>2022-02-21T14:50:20.943Z</time>
      </trkpt>
      <trkpt lat="43.38056" lon="-1.43668">
        <ele>15.58249</ele>
        <time>2022-02-21T14:50:38.204Z</time>
      </trkpt>
      <trkpt lat="43.38003" lon="-1.43575">
        <ele>15.247424</ele>
        <time>2022-02-21T14:50:57.000Z</time>
      </trkpt>
      <trkpt lat="43.37972" lon="-1.43542">
        <ele>15.093801</ele>
        <time>2022-02-21T14:51:04.860Z</time>
      </trkpt>
      <trkpt lat="43.37965" lon="-1.43534">
        <ele>15.05901</ele>
        <time>2022-02-21T14:51:06.613Z</time>
      </trkpt>
      <trkpt lat="43.37918" lon="-1.43498">
        <ele>14.623638</ele>
        <time>2022-02-21T14:51:16.922Z</time>
      </trkpt>
      <trkpt lat="43.37768" lon="-1.43413">
        <ele>13.089632</ele>
        <time>2022-02-21T14:51:49.188Z</time>
      </trkpt>
      <trkpt lat="43.37727" lon="-1.43391">
        <ele>12.999384</ele>
        <time>2022-02-21T14:51:58.153Z</time>
      </trkpt>
      <trkpt lat="43.37656" lon="-1.43354">
        <ele>12.842836</ele>
        <time>2022-02-21T14:52:14.559Z</time>
      </trkpt>
      <trkpt lat="43.37603" lon="-1.43338">
        <ele>12.883806</ele>
        <time>2022-02-21T14:52:27.417Z</time>
      </trkpt>
      <trkpt lat="43.37355" lon="-1.43253">
        <ele>16.192652</ele>
        <time>2022-02-21T14:53:41.076Z</time>
      </trkpt>
      <trkpt lat="43.37273" lon="-1.43211">
        <ele>17.610088</ele>
        <time>2022-02-21T14:54:09.450Z</time>
      </trkpt>
      <trkpt lat="43.3721" lon="-1.43173">
        <ele>18.454047</ele>
        <time>2022-02-21T14:54:30.020Z</time>
      </trkpt>
      <trkpt lat="43.37196" lon="-1.43174">
        <ele>18.622383</ele>
        <time>2022-02-21T14:54:34.513Z</time>
      </trkpt>
      <trkpt lat="43.37186" lon="-1.43162">
        <ele>18.788692</ele>
        <time>2022-02-21T14:54:38.477Z</time>
      </trkpt>
      <trkpt lat="43.37185" lon="-1.43143">
        <ele>18.95642</ele>
        <time>2022-02-21T14:54:42.249Z</time>
      </trkpt>
      <trkpt lat="43.37172" lon="-1.43108">
        <ele>19.29205</ele>
        <time>2022-02-21T14:54:50.269Z</time>
      </trkpt>
      <trkpt lat="43.37079" lon="-1.42987">
        <ele>20.368665</ele>
        <time>2022-02-21T14:55:21.114Z</time>
      </trkpt>
      <trkpt lat="43.37053" lon="-1.42954">
        <ele>20.597408</ele>
        <time>2022-02-21T14:55:30.057Z</time>
      </trkpt>
      <trkpt lat="43.37029" lon="-1.42911">
        <ele>20.850155</ele>
        <time>2022-02-21T14:55:40.268Z</time>
      </trkpt>
      <trkpt lat="43.36994" lon="-1.42827">
        <ele>21.966868</ele>
        <time>2022-02-21T14:55:59.232Z</time>
      </trkpt>
      <trkpt lat="43.36968" lon="-1.42772">
        <ele>22.94871</ele>
        <time>2022-02-21T14:56:14.224Z</time>
      </trkpt>
      <trkpt lat="43.36926" lon="-1.42711">
        <ele>24.213526</ele>
        <time>2022-02-21T14:56:36.278Z</time>
      </trkpt>
      <trkpt lat="43.36881" lon="-1.42677">
        <ele>25.610161</ele>
        <time>2022-02-21T14:56:55.717Z</time>
      </trkpt>
      <trkpt lat="43.36833" lon="-1.42647">
        <ele>27.353659</ele>
        <time>2022-02-21T14:57:15.898Z</time>
      </trkpt>
      <trkpt lat="43.36808" lon="-1.42627">
        <ele>28.327668</ele>
        <time>2022-02-21T14:57:27.564Z</time>
      </trkpt>
      <trkpt lat="43.36706" lon="-1.42523">
        <ele>32.39529</ele>
        <time>2022-02-21T14:58:17.685Z</time>
      </trkpt>
      <trkpt lat="43.36663" lon="-1.42483">
        <ele>33.948687</ele>
        <time>2022-02-21T14:58:37.024Z</time>
      </trkpt>
      <trkpt lat="43.36655" lon="-1.42475">
        <ele>34.243917</ele>
        <time>2022-02-21T14:58:40.359Z</time>
      </trkpt>
      <trkpt lat="43.36584" lon="-1.42404">
        <ele>36.536203</ele>
        <time>2022-02-21T14:59:12.230Z</time>
      </trkpt>
      <trkpt lat="43.36545" lon="-1.42357">
        <ele>37.354739</ele>
        <time>2022-02-21T14:59:30.379Z</time>
      </trkpt>
      <trkpt lat="43.36521" lon="-1.42316">
        <ele>37.955267</ele>
        <time>2022-02-21T14:59:42.089Z</time>
      </trkpt>
      <trkpt lat="43.36504" lon="-1.42275">
        <ele>38.493835</ele>
        <time>2022-02-21T14:59:51.268Z</time>
      </trkpt>
      <trkpt lat="43.36484" lon="-1.42192">
        <ele>38.760927</ele>
        <time>2022-02-21T15:00:05.576Z</time>
      </trkpt>
      <trkpt lat="43.36465" lon="-1.42106">
        <ele>38.395004</ele>
        <time>2022-02-21T15:00:18.452Z</time>
      </trkpt>
      <trkpt lat="43.36446" lon="-1.42052">
        <ele>38.149038</ele>
        <time>2022-02-21T15:00:27.234Z</time>
      </trkpt>
      <trkpt lat="43.36415" lon="-1.41997">
        <ele>38.074521</ele>
        <time>2022-02-21T15:00:37.378Z</time>
      </trkpt>
      <trkpt lat="43.36385" lon="-1.41957">
        <ele>38.496873</ele>
        <time>2022-02-21T15:00:46.438Z</time>
      </trkpt>
      <trkpt lat="43.36353" lon="-1.41928">
        <ele>38.878859</ele>
        <time>2022-02-21T15:00:56.484Z</time>
      </trkpt>
      <trkpt lat="43.36301" lon="-1.41894">
        <ele>39.456274</ele>
        <time>2022-02-21T15:01:13.564Z</time>
      </trkpt>
      <trkpt lat="43.36092" lon="-1.4182">
        <ele>44.917571</ele>
        <time>2022-02-21T15:02:32.220Z</time>
      </trkpt>
      <trkpt lat="43.35952" lon="-1.4177">
        <ele>49.062254</ele>
        <time>2022-02-21T15:03:25.587Z</time>
      </trkpt>
      <trkpt lat="43.35843" lon="-1.41737">
        <ele>52.041918</ele>
        <time>2022-02-21T15:04:05.962Z</time>
      </trkpt>
      <trkpt lat="43.35743" lon="-1.41727">
        <ele>54.589885</ele>
        <time>2022-02-21T15:04:40.935Z</time>
      </trkpt>
      <trkpt lat="43.35689" lon="-1.4173">
        <ele>55.150773</ele>
        <time>2022-02-21T15:04:58.854Z</time>
      </trkpt>
      <trkpt lat="43.35601" lon="-1.41754">
        <ele>56.08338</ele>
        <time>2022-02-21T15:05:22.508Z</time>
      </trkpt>
      <trkpt lat="43.35546" lon="-1.41784">
        <ele>56.296491</ele>
        <time>2022-02-21T15:05:35.122Z</time>
      </trkpt>
      <trkpt lat="43.35516" lon="-1.41799">
        <ele>56.162866</ele>
        <time>2022-02-21T15:05:41.456Z</time>
      </trkpt>
      <trkpt lat="43.35449" lon="-1.41825">
        <ele>55.863927</ele>
        <time>2022-02-21T15:05:55.648Z</time>
      </trkpt>
      <trkpt lat="43.35401" lon="-1.41831">
        <ele>55.661928</ele>
        <time>2022-02-21T15:06:05.586Z</time>
      </trkpt>
      <trkpt lat="43.35359" lon="-1.41825">
        <ele>56.308071</ele>
        <time>2022-02-21T15:06:15.478Z</time>
      </trkpt>
      <trkpt lat="43.35307" lon="-1.418">
        <ele>57.239422</ele>
        <time>2022-02-21T15:06:32.201Z</time>
      </trkpt>
      <trkpt lat="43.35244" lon="-1.41742">
        <ele>58.498984</ele>
        <time>2022-02-21T15:06:58.554Z</time>
      </trkpt>
      <trkpt lat="43.35193" lon="-1.41685">
        <ele>60.535409</ele>
        <time>2022-02-21T15:07:23.950Z</time>
      </trkpt>
      <trkpt lat="43.35137" lon="-1.41618">
        <ele>63.000347</ele>
        <time>2022-02-21T15:07:52.115Z</time>
      </trkpt>
      <trkpt lat="43.35087" lon="-1.41549">
        <ele>65.654018</ele>
        <time>2022-02-21T15:08:21.376Z</time>
      </trkpt>
      <trkpt lat="43.35057" lon="-1.41495">
        <ele>67.899234</ele>
        <time>2022-02-21T15:08:42.079Z</time>
      </trkpt>
      <trkpt lat="43.34937" lon="-1.41162">
        <ele>81.00353</ele>
        <time>2022-02-21T15:10:50.301Z</time>
      </trkpt>
      <trkpt lat="43.34912" lon="-1.41068">
        <ele>84.430722</ele>
        <time>2022-02-21T15:11:24.947Z</time>
      </trkpt>
      <trkpt lat="43.34891" lon="-1.40963">
        <ele>88.055112</ele>
        <time>2022-02-21T15:12:01.508Z</time>
      </trkpt>
      <trkpt lat="43.34859" lon="-1.40725">
        <ele>93.957634</ele>
        <time>2022-02-21T15:13:13.713Z</time>
      </trkpt>
      <trkpt lat="43.3484" lon="-1.40651">
        <ele>95.335531</ele>
        <time>2022-02-21T15:13:30.692Z</time>
      </trkpt>
      <trkpt lat="43.3482" lon="-1.40598">
        <ele>94.766454</ele>
        <time>2022-02-21T15:13:40.858Z</time>
      </trkpt>
      <trkpt lat="43.34788" lon="-1.40541">
        <ele>94.090873</ele>
        <time>2022-02-21T15:13:51.147Z</time>
      </trkpt>
      <trkpt lat="43.34677" lon="-1.40394">
        <ele>91.008041</ele>
        <time>2022-02-21T15:14:17.660Z</time>
      </trkpt>
      <trkpt lat="43.34601" lon="-1.40293">
        <ele>88.193003</ele>
        <time>2022-02-21T15:14:36.244Z</time>
      </trkpt>
      <trkpt lat="43.34545" lon="-1.40248">
        <ele>87.6308</ele>
        <time>2022-02-21T15:14:48.532Z</time>
      </trkpt>
      <trkpt lat="43.34486" lon="-1.40226">
        <ele>87.099479</ele>
        <time>2022-02-21T15:15:01.183Z</time>
      </trkpt>
      <trkpt lat="43.34473" lon="-1.40239">
        <ele>86.955479</ele>
        <time>2022-02-21T15:15:04.750Z</time>
      </trkpt>
      <trkpt lat="43.34461" lon="-1.40233">
        <ele>86.845072</ele>
        <time>2022-02-21T15:15:07.780Z</time>
      </trkpt>
      <trkpt lat="43.34456" lon="-1.40217">
        <ele>86.734582</ele>
        <time>2022-02-21T15:15:10.948Z</time>
      </trkpt>
      <trkpt lat="43.34402" lon="-1.40221">
        <ele>86.50727</ele>
        <time>2022-02-21T15:15:24.151Z</time>
      </trkpt>
      <trkpt lat="43.34258" lon="-1.40249">
        <ele>85.858201</ele>
        <time>2022-02-21T15:15:55.213Z</time>
      </trkpt>
      <trkpt lat="43.34231" lon="-1.40246">
        <ele>85.281498</ele>
        <time>2022-02-21T15:16:00.224Z</time>
      </trkpt>
      <trkpt lat="43.34194" lon="-1.40231">
        <ele>84.476549</ele>
        <time>2022-02-21T15:16:07.012Z</time>
      </trkpt>
      <trkpt lat="43.34144" lon="-1.40204">
        <ele>83.330546</ele>
        <time>2022-02-21T15:16:16.584Z</time>
      </trkpt>
      <trkpt lat="43.34141" lon="-1.40203">
        <ele>83.269574</ele>
        <time>2022-02-21T15:16:17.101Z</time>
      </trkpt>
      <trkpt lat="43.3411" lon="-1.40188">
        <ele>82.568645</ele>
        <time>2022-02-21T15:16:22.981Z</time>
      </trkpt>
      <trkpt lat="43.34069" lon="-1.40182">
        <ele>81.911477</ele>
        <time>2022-02-21T15:16:30.273Z</time>
      </trkpt>
      <trkpt lat="43.3403" lon="-1.40185">
        <ele>81.38601</ele>
        <time>2022-02-21T15:16:37.385Z</time>
      </trkpt>
      <trkpt lat="43.33995" lon="-1.40196">
        <ele>80.902432</ele>
        <time>2022-02-21T15:16:44.173Z</time>
      </trkpt>
      <trkpt lat="43.33936" lon="-1.40227">
        <ele>80.057426</ele>
        <time>2022-02-21T15:16:56.980Z</time>
      </trkpt>
      <trkpt lat="43.33874" lon="-1.40271">
        <ele>80.036063</ele>
        <time>2022-02-21T15:17:14.037Z</time>
      </trkpt>
      <trkpt lat="43.33819" lon="-1.40314">
        <ele>80.228757</ele>
        <time>2022-02-21T15:17:30.110Z</time>
      </trkpt>
      <trkpt lat="43.33783" lon="-1.40332">
        <ele>80.344728</ele>
        <time>2022-02-21T15:17:39.815Z</time>
      </trkpt>
      <trkpt lat="43.33697" lon="-1.40361">
        <ele>79.827922</ele>
        <time>2022-02-21T15:17:58.985Z</time>
      </trkpt>
      <trkpt lat="43.33671" lon="-1.40364">
        <ele>79.592132</ele>
        <time>2022-02-21T15:18:04.232Z</time>
      </trkpt>
      <trkpt lat="43.33661" lon="-1.40363">
        <ele>79.498737</ele>
        <time>2022-02-21T15:18:06.217Z</time>
      </trkpt>
      <trkpt lat="43.33653" lon="-1.40378">
        <ele>79.375235</ele>
        <time>2022-02-21T15:18:08.879Z</time>
      </trkpt>
      <trkpt lat="43.33639" lon="-1.40377">
        <ele>79.252048</ele>
        <time>2022-02-21T15:18:11.535Z</time>
      </trkpt>
      <trkpt lat="43.33636" lon="-1.40373">
        <ele>79.209343</ele>
        <time>2022-02-21T15:18:12.420Z</time>
      </trkpt>
      <trkpt lat="43.33633" lon="-1.40354">
        <ele>79.085932</ele>
        <time>2022-02-21T15:18:14.996Z</time>
      </trkpt>
      <trkpt lat="43.3353" lon="-1.40308">
        <ele>77.044297</ele>
        <time>2022-02-21T15:18:35.187Z</time>
      </trkpt>
      <trkpt lat="43.33445" lon="-1.40246">
        <ele>74.81703</ele>
        <time>2022-02-21T15:18:52.095Z</time>
      </trkpt>
      <trkpt lat="43.33429" lon="-1.40234">
        <ele>74.184657</ele>
        <time>2022-02-21T15:18:55.323Z</time>
      </trkpt>
      <trkpt lat="43.33397" lon="-1.40208">
        <ele>72.534558</ele>
        <time>2022-02-21T15:19:01.641Z</time>
      </trkpt>
      <trkpt lat="43.33322" lon="-1.40138">
        <ele>68.444749</ele>
        <time>2022-02-21T15:19:16.393Z</time>
      </trkpt>
      <trkpt lat="43.33277" lon="-1.40083">
        <ele>65.47181</ele>
        <time>2022-02-21T15:19:25.622Z</time>
      </trkpt>
      <trkpt lat="43.33228" lon="-1.40004">
        <ele>60.862267</ele>
        <time>2022-02-21T15:19:36.972Z</time>
      </trkpt>
      <trkpt lat="43.33222" lon="-1.39993">
        <ele>60.238138</ele>
        <time>2022-02-21T15:19:38.497Z</time>
      </trkpt>
      <trkpt lat="43.33179" lon="-1.39904">
        <ele>55.498476</ele>
        <time>2022-02-21T15:19:50.326Z</time>
      </trkpt>
      <trkpt lat="43.33127" lon="-1.39768">
        <ele>51.22422</ele>
        <time>2022-02-21T15:20:08.880Z</time>
      </trkpt>
      <trkpt lat="43.33121" lon="-1.39751">
        <ele>50.684146</ele>
        <time>2022-02-21T15:20:11.342Z</time>
      </trkpt>
      <trkpt lat="43.33095" lon="-1.39674">
        <ele>48.405487</ele>
        <time>2022-02-21T15:20:21.997Z</time>
      </trkpt>
      <trkpt lat="43.33086" lon="-1.39645">
        <ele>47.713321</ele>
        <time>2022-02-21T15:20:25.975Z</time>
      </trkpt>
      <trkpt lat="43.32962" lon="-1.39239">
        <ele>38.785513</ele>
        <time>2022-02-21T15:21:21.076Z</time>
      </trkpt>
      <trkpt lat="43.32921" lon="-1.39106">
        <ele>41.044112</ele>
        <time>2022-02-21T15:21:48.455Z</time>
      </trkpt>
      <trkpt lat="43.3289" lon="-1.39007">
        <ele>43.016931</ele>
        <time>2022-02-21T15:22:25.156Z</time>
      </trkpt>
      <trkpt lat="43.32877" lon="-1.38963">
        <ele>45.053693</ele>
        <time>2022-02-21T15:22:44.476Z</time>
      </trkpt>
      <trkpt lat="43.32818" lon="-1.38778">
        <ele>54.377102</ele>
        <time>2022-02-21T15:24:05.614Z</time>
      </trkpt>
      <trkpt lat="43.32777" lon="-1.38689">
        <ele>58.136318</ele>
        <time>2022-02-21T15:24:46.316Z</time>
      </trkpt>
      <trkpt lat="43.32756" lon="-1.38653">
        <ele>59.747219</ele>
        <time>2022-02-21T15:25:01.511Z</time>
      </trkpt>
      <trkpt lat="43.3266" lon="-1.38509">
        <ele>65.798081</ele>
        <time>2022-02-21T15:25:57.069Z</time>
      </trkpt>
      <trkpt lat="43.32532" lon="-1.38271">
        <ele>73.832121</ele>
        <time>2022-02-21T15:27:26.836Z</time>
      </trkpt>
      <trkpt lat="43.32506" lon="-1.38201">
        <ele>75.993629</ele>
        <time>2022-02-21T15:27:51.025Z</time>
      </trkpt>
      <trkpt lat="43.3245" lon="-1.38051">
        <ele>79.808735</ele>
        <time>2022-02-21T15:28:38.339Z</time>
      </trkpt>
      <trkpt lat="43.32385" lon="-1.37806">
        <ele>85.409386</ele>
        <time>2022-02-21T15:29:43.768Z</time>
      </trkpt>
      <trkpt lat="43.32346" lon="-1.37682">
        <ele>89.058887</ele>
        <time>2022-02-21T15:30:22.480Z</time>
      </trkpt>
      <trkpt lat="43.32281" lon="-1.37578">
        <ele>94.327119</ele>
        <time>2022-02-21T15:31:12.370Z</time>
      </trkpt>
      <trkpt lat="43.32231" lon="-1.37463">
        <ele>100.772068</ele>
        <time>2022-02-21T15:32:04.334Z</time>
      </trkpt>
      <trkpt lat="43.32169" lon="-1.37301">
        <ele>111.230549</ele>
        <time>2022-02-21T15:33:30.231Z</time>
      </trkpt>
      <trkpt lat="43.32106" lon="-1.37188">
        <ele>120.535672</ele>
        <time>2022-02-21T15:34:40.359Z</time>
      </trkpt>
      <trkpt lat="43.32083" lon="-1.37131">
        <ele>124.760184</ele>
        <time>2022-02-21T15:35:14.055Z</time>
      </trkpt>
      <trkpt lat="43.3208" lon="-1.37123">
        <ele>125.326365</ele>
        <time>2022-02-21T15:35:18.674Z</time>
      </trkpt>
      <trkpt lat="43.32042" lon="-1.3701">
        <ele>131.601733</ele>
        <time>2022-02-21T15:36:15.864Z</time>
      </trkpt>
      <trkpt lat="43.3203" lon="-1.36978">
        <ele>133.246049</ele>
        <time>2022-02-21T15:36:29.900Z</time>
      </trkpt>
      <trkpt lat="43.31994" lon="-1.36817">
        <ele>140.037939</ele>
        <time>2022-02-21T15:37:24.750Z</time>
      </trkpt>
      <trkpt lat="43.31989" lon="-1.36746">
        <ele>142.051574</ele>
        <time>2022-02-21T15:37:47.712Z</time>
      </trkpt>
      <trkpt lat="43.31994" lon="-1.36659">
        <ele>144.517798</ele>
        <time>2022-02-21T15:38:13.073Z</time>
      </trkpt>
      <trkpt lat="43.31979" lon="-1.3665">
        <ele>145.147311</ele>
        <time>2022-02-21T15:38:19.561Z</time>
      </trkpt>
      <trkpt lat="43.31957" lon="-1.36592">
        <ele>147.006067</ele>
        <time>2022-02-21T15:38:37.598Z</time>
      </trkpt>
      <trkpt lat="43.31946" lon="-1.36516">
        <ele>149.212056</ele>
        <time>2022-02-21T15:38:57.145Z</time>
      </trkpt>
      <trkpt lat="43.31908" lon="-1.36387">
        <ele>154.623441</ele>
        <time>2022-02-21T15:39:44.124Z</time>
      </trkpt>
      <trkpt lat="43.31906" lon="-1.36383">
        <ele>155.056221</ele>
        <time>2022-02-21T15:39:46.239Z</time>
      </trkpt>
      <trkpt lat="43.31893" lon="-1.36381">
        <ele>156.519458</ele>
        <time>2022-02-21T15:39:54.747Z</time>
      </trkpt>
      <trkpt lat="43.31875" lon="-1.36361">
        <ele>159.220983</ele>
        <time>2022-02-21T15:40:09.613Z</time>
      </trkpt>
      <trkpt lat="43.31853" lon="-1.36379">
        <ele>162.238167</ele>
        <time>2022-02-21T15:40:29.935Z</time>
      </trkpt>
      <trkpt lat="43.3185" lon="-1.36432">
        <ele>166.687874</ele>
        <time>2022-02-21T15:41:04.739Z</time>
      </trkpt>
      <trkpt lat="43.3183" lon="-1.36471">
        <ele>170.720398</ele>
        <time>2022-02-21T15:41:39.541Z</time>
      </trkpt>
      <trkpt lat="43.31817" lon="-1.36478">
        <ele>172.416518</ele>
        <time>2022-02-21T15:41:56.094Z</time>
      </trkpt>
      <trkpt lat="43.31745" lon="-1.36525">
        <ele>183.376085</ele>
        <time>2022-02-21T15:43:19.275Z</time>
      </trkpt>
      <trkpt lat="43.31711" lon="-1.3651">
        <ele>188.394661</ele>
        <time>2022-02-21T15:43:54.354Z</time>
      </trkpt>
      <trkpt lat="43.31691" lon="-1.36494">
        <ele>191.517843</ele>
        <time>2022-02-21T15:44:15.590Z</time>
      </trkpt>
      <trkpt lat="43.31631" lon="-1.36408">
        <ele>200.233085</ele>
        <time>2022-02-21T15:45:25.332Z</time>
      </trkpt>
      <trkpt lat="43.31623" lon="-1.36403">
        <ele>200.622315</ele>
        <time>2022-02-21T15:45:30.429Z</time>
      </trkpt>
      <trkpt lat="43.31568" lon="-1.36408">
        <ele>203.023907</ele>
        <time>2022-02-21T15:45:56.250Z</time>
      </trkpt>
      <trkpt lat="43.31522" lon="-1.36376">
        <ele>205.298017</ele>
        <time>2022-02-21T15:46:13.287Z</time>
      </trkpt>
      <trkpt lat="43.31503" lon="-1.36369">
        <ele>206.199584</ele>
        <time>2022-02-21T15:46:19.028Z</time>
      </trkpt>
      <trkpt lat="43.31494" lon="-1.36392">
        <ele>205.658258</ele>
        <time>2022-02-21T15:46:22.859Z</time>
      </trkpt>
      <trkpt lat="43.3149" lon="-1.36399">
        <ele>205.110915</ele>
        <time>2022-02-21T15:46:24.529Z</time>
      </trkpt>
      <trkpt lat="43.31454" lon="-1.36461">
        <ele>200.28815</ele>
        <time>2022-02-21T15:46:36.969Z</time>
      </trkpt>
      <trkpt lat="43.3141" lon="-1.36476">
        <ele>196.496916</ele>
        <time>2022-02-21T15:46:46.075Z</time>
      </trkpt>
      <trkpt lat="43.3137" lon="-1.36473">
        <ele>193.105394</ele>
        <time>2022-02-21T15:46:53.774Z</time>
      </trkpt>
      <trkpt lat="43.31298" lon="-1.36451">
        <ele>181.227636</ele>
        <time>2022-02-21T15:47:11.120Z</time>
      </trkpt>
      <trkpt lat="43.31253" lon="-1.36449">
        <ele>172.527494</ele>
        <time>2022-02-21T15:47:21.704Z</time>
      </trkpt>
      <trkpt lat="43.31204" lon="-1.36427">
        <ele>162.737766</ele>
        <time>2022-02-21T15:47:33.618Z</time>
      </trkpt>
      <trkpt lat="43.31123" lon="-1.36376">
        <ele>146.626147</ele>
        <time>2022-02-21T15:47:54.532Z</time>
      </trkpt>
      <trkpt lat="43.31066" lon="-1.36304">
        <ele>133.093948</ele>
        <time>2022-02-21T15:48:12.652Z</time>
      </trkpt>
      <trkpt lat="43.31051" lon="-1.36274">
        <ele>128.423778</ele>
        <time>2022-02-21T15:48:19.089Z</time>
      </trkpt>
      <trkpt lat="43.31035" lon="-1.36262">
        <ele>125.365995</ele>
        <time>2022-02-21T15:48:23.552Z</time>
      </trkpt>
      <trkpt lat="43.31029" lon="-1.36271">
        <ele>124.279266</ele>
        <time>2022-02-21T15:48:25.711Z</time>
      </trkpt>
      <trkpt lat="43.31028" lon="-1.36296">
        <ele>121.969159</ele>
        <time>2022-02-21T15:48:30.211Z</time>
      </trkpt>
      <trkpt lat="43.31027" lon="-1.3639">
        <ele>113.360852</ele>
        <time>2022-02-21T15:48:43.140Z</time>
      </trkpt>
      <trkpt lat="43.31032" lon="-1.36428">
        <ele>109.773636</ele>
        <time>2022-02-21T15:48:48.615Z</time>
      </trkpt>
      <trkpt lat="43.31047" lon="-1.36488">
        <ele>103.97245</ele>
        <time>2022-02-21T15:48:57.227Z</time>
      </trkpt>
      <trkpt lat="43.31043" lon="-1.36501">
        <ele>102.671758</ele>
        <time>2022-02-21T15:48:59.313Z</time>
      </trkpt>
      <trkpt lat="43.31018" lon="-1.36499">
        <ele>100.016794</ele>
        <time>2022-02-21T15:49:03.981Z</time>
      </trkpt>
      <trkpt lat="43.31" lon="-1.36475">
        <ele>97.367253</ele>
        <time>2022-02-21T15:49:08.664Z</time>
      </trkpt>
      <trkpt lat="43.30979" lon="-1.36439">
        <ele>93.697132</ele>
        <time>2022-02-21T15:49:15.216Z</time>
      </trkpt>
      <trkpt lat="43.3097" lon="-1.36413">
        <ele>91.475592</ele>
        <time>2022-02-21T15:49:19.249Z</time>
      </trkpt>
      <trkpt lat="43.30956" lon="-1.36395">
        <ele>89.391968</ele>
        <time>2022-02-21T15:49:22.884Z</time>
      </trkpt>
      <trkpt lat="43.30909" lon="-1.36292">
        <ele>82.268168</ele>
        <time>2022-02-21T15:49:35.571Z</time>
      </trkpt>
      <trkpt lat="43.30877" lon="-1.36233">
        <ele>80.164697</ele>
        <time>2022-02-21T15:49:43.564Z</time>
      </trkpt>
      <trkpt lat="43.30854" lon="-1.36205">
        <ele>78.943631</ele>
        <time>2022-02-21T15:49:49.260Z</time>
      </trkpt>
      <trkpt lat="43.30842" lon="-1.36144">
        <ele>77.161267</ele>
        <time>2022-02-21T15:50:00.434Z</time>
      </trkpt>
      <trkpt lat="43.30825" lon="-1.36124">
        <ele>76.858085</ele>
        <time>2022-02-21T15:50:07.906Z</time>
      </trkpt>
      <trkpt lat="43.30802" lon="-1.3611">
        <ele>77.743197</ele>
        <time>2022-02-21T15:50:16.232Z</time>
      </trkpt>
      <trkpt lat="43.30791" lon="-1.3611">
        <ele>78.097823</ele>
        <time>2022-02-21T15:50:20.767Z</time>
      </trkpt>
      <trkpt lat="43.30783" lon="-1.36112">
        <ele>78.408822</ele>
        <time>2022-02-21T15:50:23.928Z</time>
      </trkpt>
      <trkpt lat="43.30749" lon="-1.36104">
        <ele>79.607197</ele>
        <time>2022-02-21T15:50:37.494Z</time>
      </trkpt>
      <trkpt lat="43.30711" lon="-1.3609">
        <ele>80.997005</ele>
        <time>2022-02-21T15:50:54.445Z</time>
      </trkpt>
      <trkpt lat="43.30651" lon="-1.3612">
        <ele>83.012493</ele>
        <time>2022-02-21T15:51:24.774Z</time>
      </trkpt>
      <trkpt lat="43.30638" lon="-1.36121">
        <ele>83.165184</ele>
        <time>2022-02-21T15:51:30.234Z</time>
      </trkpt>
      <trkpt lat="43.30619" lon="-1.361">
        <ele>83.463804</ele>
        <time>2022-02-21T15:51:41.200Z</time>
      </trkpt>
      <trkpt lat="43.30597" lon="-1.36063">
        <ele>83.887322</ele>
        <time>2022-02-21T15:51:52.821Z</time>
      </trkpt>
      <trkpt lat="43.30563" lon="-1.36012">
        <ele>84.490413</ele>
        <time>2022-02-21T15:52:03.743Z</time>
      </trkpt>
      <trkpt lat="43.30567" lon="-1.35998">
        <ele>84.621684</ele>
        <time>2022-02-21T15:52:06.467Z</time>
      </trkpt>
      <trkpt lat="43.30532" lon="-1.3595">
        <ele>84.590948</ele>
        <time>2022-02-21T15:52:15.879Z</time>
      </trkpt>
      <trkpt lat="43.30497" lon="-1.35887">
        <ele>82.510645</ele>
        <time>2022-02-21T15:52:26.083Z</time>
      </trkpt>
      <trkpt lat="43.3047" lon="-1.35805">
        <ele>80.116402</ele>
        <time>2022-02-21T15:52:36.492Z</time>
      </trkpt>
      <trkpt lat="43.30447" lon="-1.35709">
        <ele>77.788989</ele>
        <time>2022-02-21T15:52:48.277Z</time>
      </trkpt>
      <trkpt lat="43.30443" lon="-1.35655">
        <ele>76.836786</ele>
        <time>2022-02-21T15:52:54.891Z</time>
      </trkpt>
      <trkpt lat="43.30448" lon="-1.35603">
        <ele>75.921078</ele>
        <time>2022-02-21T15:53:01.704Z</time>
      </trkpt>
      <trkpt lat="43.30494" lon="-1.35446">
        <ele>74.435808</ele>
        <time>2022-02-21T15:53:26.861Z</time>
      </trkpt>
      <trkpt lat="43.305" lon="-1.3539">
        <ele>74.651853</ele>
        <time>2022-02-21T15:53:38.423Z</time>
      </trkpt>
      <trkpt lat="43.3049" lon="-1.3533">
        <ele>74.889569</ele>
        <time>2022-02-21T15:53:50.974Z</time>
      </trkpt>
      <trkpt lat="43.30432" lon="-1.35182">
        <ele>75.930731</ele>
        <time>2022-02-21T15:54:24.401Z</time>
      </trkpt>
      <trkpt lat="43.30398" lon="-1.35128">
        <ele>76.46776</ele>
        <time>2022-02-21T15:54:38.820Z</time>
      </trkpt>
      <trkpt lat="43.30352" lon="-1.35087">
        <ele>77.026814</ele>
        <time>2022-02-21T15:54:53.701Z</time>
      </trkpt>
      <trkpt lat="43.30208" lon="-1.35016">
        <ele>78.455959</ele>
        <time>2022-02-21T15:55:34.195Z</time>
      </trkpt>
      <trkpt lat="43.30151" lon="-1.34995">
        <ele>79.529809</ele>
        <time>2022-02-21T15:55:50.528Z</time>
      </trkpt>
      <trkpt lat="43.3007" lon="-1.34989">
        <ele>81.426474</ele>
        <time>2022-02-21T15:56:16.312Z</time>
      </trkpt>
      <trkpt lat="43.29991" lon="-1.35001">
        <ele>83.894119</ele>
        <time>2022-02-21T15:56:47.349Z</time>
      </trkpt>
      <trkpt lat="43.29914" lon="-1.35001">
        <ele>88.231775</ele>
        <time>2022-02-21T15:57:24.218Z</time>
      </trkpt>
      <trkpt lat="43.29822" lon="-1.35016">
        <ele>93.482543</ele>
        <time>2022-02-21T15:58:17.202Z</time>
      </trkpt>
      <trkpt lat="43.29695" lon="-1.35011">
        <ele>100.913972</ele>
        <time>2022-02-21T15:59:29.569Z</time>
      </trkpt>
      <trkpt lat="43.29604" lon="-1.35026">
        <ele>102.796762</ele>
        <time>2022-02-21T16:00:05.974Z</time>
      </trkpt>
      <trkpt lat="43.29514" lon="-1.35074">
        <ele>101.425242</ele>
        <time>2022-02-21T16:00:23.996Z</time>
      </trkpt>
      <trkpt lat="43.29342" lon="-1.35235">
        <ele>89.269692</ele>
        <time>2022-02-21T16:00:54.994Z</time>
      </trkpt>
      <trkpt lat="43.29285" lon="-1.35282">
        <ele>86.373136</ele>
        <time>2022-02-21T16:01:05.153Z</time>
      </trkpt>
      <trkpt lat="43.29232" lon="-1.35315">
        <ele>84.070986</ele>
        <time>2022-02-21T16:01:14.406Z</time>
      </trkpt>
      <trkpt lat="43.29198" lon="-1.35325">
        <ele>82.672416</ele>
        <time>2022-02-21T16:01:20.636Z</time>
      </trkpt>
      <trkpt lat="43.29143" lon="-1.35323">
        <ele>82.436357</ele>
        <time>2022-02-21T16:01:32.446Z</time>
      </trkpt>
      <trkpt lat="43.29097" lon="-1.35313">
        <ele>84.001283</ele>
        <time>2022-02-21T16:01:47.587Z</time>
      </trkpt>
      <trkpt lat="43.28871" lon="-1.35193">
        <ele>93.291188</ele>
        <time>2022-02-21T16:03:45.799Z</time>
      </trkpt>
      <trkpt lat="43.28727" lon="-1.35161">
        <ele>94.681773</ele>
        <time>2022-02-21T16:04:29.924Z</time>
      </trkpt>
      <trkpt lat="43.28677" lon="-1.35163">
        <ele>94.442178</ele>
        <time>2022-02-21T16:04:38.557Z</time>
      </trkpt>
      <trkpt lat="43.28607" lon="-1.35185">
        <ele>92.348751</ele>
        <time>2022-02-21T16:04:50.417Z</time>
      </trkpt>
      <trkpt lat="43.28568" lon="-1.35211">
        <ele>90.40982</ele>
        <time>2022-02-21T16:04:57.178Z</time>
      </trkpt>
      <trkpt lat="43.28442" lon="-1.35321">
        <ele>84.881348</ele>
        <time>2022-02-21T16:05:21.294Z</time>
      </trkpt>
      <trkpt lat="43.28349" lon="-1.35376">
        <ele>82.423051</ele>
        <time>2022-02-21T16:05:39.977Z</time>
      </trkpt>
      <trkpt lat="43.28284" lon="-1.35397">
        <ele>82.010753</ele>
        <time>2022-02-21T16:05:54.271Z</time>
      </trkpt>
      <trkpt lat="43.28209" lon="-1.35393">
        <ele>82.228487</ele>
        <time>2022-02-21T16:06:12.826Z</time>
      </trkpt>
      <trkpt lat="43.28129" lon="-1.35362">
        <ele>82.708325</ele>
        <time>2022-02-21T16:06:34.497Z</time>
      </trkpt>
      <trkpt lat="43.28022" lon="-1.35304">
        <ele>84.258396</ele>
        <time>2022-02-21T16:07:07.150Z</time>
      </trkpt>
      <trkpt lat="43.2796" lon="-1.35247">
        <ele>85.635293</ele>
        <time>2022-02-21T16:07:31.021Z</time>
      </trkpt>
      <trkpt lat="43.27903" lon="-1.35172">
        <ele>87.55834</ele>
        <time>2022-02-21T16:07:58.415Z</time>
      </trkpt>
      <trkpt lat="43.27865" lon="-1.35138">
        <ele>88.663122</ele>
        <time>2022-02-21T16:08:15.170Z</time>
      </trkpt>
      <trkpt lat="43.27679" lon="-1.35036">
        <ele>93.360473</ele>
        <time>2022-02-21T16:09:25.402Z</time>
      </trkpt>
      <trkpt lat="43.27552" lon="-1.34962">
        <ele>94.354616</ele>
        <time>2022-02-21T16:10:00.392Z</time>
      </trkpt>
      <trkpt lat="43.27344" lon="-1.34863">
        <ele>94.749497</ele>
        <time>2022-02-21T16:10:49.296Z</time>
      </trkpt>
      <trkpt lat="43.2722" lon="-1.34765">
        <ele>94.179016</ele>
        <time>2022-02-21T16:11:22.892Z</time>
      </trkpt>
      <trkpt lat="43.27019" lon="-1.34645">
        <ele>90.517136</ele>
        <time>2022-02-21T16:12:02.914Z</time>
      </trkpt>
      <trkpt lat="43.26952" lon="-1.34583">
        <ele>89.63445</ele>
        <time>2022-02-21T16:12:17.609Z</time>
      </trkpt>
      <trkpt lat="43.2687" lon="-1.34488">
        <ele>88.521098</ele>
        <time>2022-02-21T16:12:40.110Z</time>
      </trkpt>
      <trkpt lat="43.26836" lon="-1.34449">
        <ele>88.415258</ele>
        <time>2022-02-21T16:12:50.844Z</time>
      </trkpt>
      <trkpt lat="43.26802" lon="-1.34395">
        <ele>88.288788</ele>
        <time>2022-02-21T16:13:03.970Z</time>
      </trkpt>
      <trkpt lat="43.26761" lon="-1.34306">
        <ele>88.103214</ele>
        <time>2022-02-21T16:13:20.152Z</time>
      </trkpt>
      <trkpt lat="43.26735" lon="-1.34234">
        <ele>86.824817</ele>
        <time>2022-02-21T16:13:30.966Z</time>
      </trkpt>
      <trkpt lat="43.26696" lon="-1.34068">
        <ele>84.117027</ele>
        <time>2022-02-21T16:13:53.093Z</time>
      </trkpt>
      <trkpt lat="43.26635" lon="-1.33905">
        <ele>82.422381</ele>
        <time>2022-02-21T16:14:18.274Z</time>
      </trkpt>
      <trkpt lat="43.26615" lon="-1.33829">
        <ele>81.922296</ele>
        <time>2022-02-21T16:14:31.795Z</time>
      </trkpt>
      <trkpt lat="43.26608" lon="-1.33777">
        <ele>81.974007</ele>
        <time>2022-02-21T16:14:40.881Z</time>
      </trkpt>
      <trkpt lat="43.26604" lon="-1.33726">
        <ele>82.02425</ele>
        <time>2022-02-21T16:14:49.860Z</time>
      </trkpt>
      <trkpt lat="43.26609" lon="-1.33654">
        <ele>82.094766</ele>
        <time>2022-02-21T16:15:02.581Z</time>
      </trkpt>
      <trkpt lat="43.2666" lon="-1.33444">
        <ele>82.247811</ele>
        <time>2022-02-21T16:15:37.985Z</time>
      </trkpt>
      <trkpt lat="43.26667" lon="-1.33396">
        <ele>82.278035</ele>
        <time>2022-02-21T16:15:46.072Z</time>
      </trkpt>
      <trkpt lat="43.26671" lon="-1.33313">
        <ele>82.897619</ele>
        <time>2022-02-21T16:16:00.794Z</time>
      </trkpt>
      <trkpt lat="43.26673" lon="-1.33249">
        <ele>83.541231</ele>
        <time>2022-02-21T16:16:13.983Z</time>
      </trkpt>
      <trkpt lat="43.26674" lon="-1.33219">
        <ele>83.839842</ele>
        <time>2022-02-21T16:16:21.000Z</time>
      </trkpt>
      <trkpt lat="43.26673" lon="-1.33145">
        <ele>84.58077</ele>
        <time>2022-02-21T16:16:38.134Z</time>
      </trkpt>
      <trkpt lat="43.26668" lon="-1.33101">
        <ele>85.30352</ele>
        <time>2022-02-21T16:16:48.726Z</time>
      </trkpt>
      <trkpt lat="43.26647" lon="-1.33031">
        <ele>86.857915</ele>
        <time>2022-02-21T16:17:07.899Z</time>
      </trkpt>
      <trkpt lat="43.266" lon="-1.32904">
        <ele>89.775959</ele>
        <time>2022-02-21T16:17:47.560Z</time>
      </trkpt>
      <trkpt lat="43.26555" lon="-1.32819">
        <ele>92.14087</ele>
        <time>2022-02-21T16:18:16.507Z</time>
      </trkpt>
      <trkpt lat="43.26373" lon="-1.32586">
        <ele>99.511056</ele>
        <time>2022-02-21T16:19:50.400Z</time>
      </trkpt>
      <trkpt lat="43.26241" lon="-1.32344">
        <ele>104.171419</ele>
        <time>2022-02-21T16:21:03.699Z</time>
      </trkpt>
      <trkpt lat="43.26115" lon="-1.32205">
        <ele>104.87179</ele>
        <time>2022-02-21T16:21:39.634Z</time>
      </trkpt>
      <trkpt lat="43.26047" lon="-1.32075">
        <ele>106.898697</ele>
        <time>2022-02-21T16:22:10.040Z</time>
      </trkpt>
      <trkpt lat="43.26003" lon="-1.32019">
        <ele>108.064845</ele>
        <time>2022-02-21T16:22:32.002Z</time>
      </trkpt>
      <trkpt lat="43.25894" lon="-1.31953">
        <ele>114.13698</ele>
        <time>2022-02-21T16:23:26.600Z</time>
      </trkpt>
      <trkpt lat="43.25815" lon="-1.31919">
        <ele>118.860055</ele>
        <time>2022-02-21T16:24:13.977Z</time>
      </trkpt>
      <trkpt lat="43.25778" lon="-1.31914">
        <ele>121.183464</ele>
        <time>2022-02-21T16:24:37.112Z</time>
      </trkpt>
      <trkpt lat="43.25663" lon="-1.31915">
        <ele>128.448439</ele>
        <time>2022-02-21T16:25:45.532Z</time>
      </trkpt>
      <trkpt lat="43.25631" lon="-1.31929">
        <ele>129.423101</ele>
        <time>2022-02-21T16:26:01.104Z</time>
      </trkpt>
      <trkpt lat="43.25591" lon="-1.31971">
        <ele>127.232403</ele>
        <time>2022-02-21T16:26:11.194Z</time>
      </trkpt>
      <trkpt lat="43.25566" lon="-1.3202">
        <ele>125.343372</ele>
        <time>2022-02-21T16:26:17.820Z</time>
      </trkpt>
      <trkpt lat="43.25541" lon="-1.32109">
        <ele>122.294047</ele>
        <time>2022-02-21T16:26:28.055Z</time>
      </trkpt>
      <trkpt lat="43.25512" lon="-1.32144">
        <ele>119.654071</ele>
        <time>2022-02-21T16:26:33.434Z</time>
      </trkpt>
      <trkpt lat="43.25474" lon="-1.32155">
        <ele>116.818736</ele>
        <time>2022-02-21T16:26:38.921Z</time>
      </trkpt>
      <trkpt lat="43.25454" lon="-1.3215">
        <ele>115.309305</ele>
        <time>2022-02-21T16:26:41.900Z</time>
      </trkpt>
      <trkpt lat="43.25426" lon="-1.32136">
        <ele>113.16571</ele>
        <time>2022-02-21T16:26:46.175Z</time>
      </trkpt>
      <trkpt lat="43.25381" lon="-1.32093">
        <ele>109.127621</ele>
        <time>2022-02-21T16:26:54.522Z</time>
      </trkpt>
      <trkpt lat="43.25354" lon="-1.32045">
        <ele>109.435816</ele>
        <time>2022-02-21T16:27:05.151Z</time>
      </trkpt>
      <trkpt lat="43.2531" lon="-1.31972">
        <ele>110.427885</ele>
        <time>2022-02-21T16:27:28.063Z</time>
      </trkpt>
      <trkpt lat="43.25288" lon="-1.31948">
        <ele>110.83787</ele>
        <time>2022-02-21T16:27:38.785Z</time>
      </trkpt>
      <trkpt lat="43.25196" lon="-1.31879">
        <ele>113.436553</ele>
        <time>2022-02-21T16:28:22.141Z</time>
      </trkpt>
      <trkpt lat="43.25152" lon="-1.31854">
        <ele>114.920948</ele>
        <time>2022-02-21T16:28:39.960Z</time>
      </trkpt>
      <trkpt lat="43.2513" lon="-1.31845">
        <ele>115.657974</ele>
        <time>2022-02-21T16:28:48.623Z</time>
      </trkpt>
      <trkpt lat="43.25061" lon="-1.31832">
        <ele>117.34228</ele>
        <time>2022-02-21T16:29:13.862Z</time>
      </trkpt>
      <trkpt lat="43.2503" lon="-1.31834">
        <ele>117.605219</ele>
        <time>2022-02-21T16:29:24.177Z</time>
      </trkpt>
      <trkpt lat="43.24962" lon="-1.31851">
        <ele>118.181281</ele>
        <time>2022-02-21T16:29:42.728Z</time>
      </trkpt>
      <trkpt lat="43.2491" lon="-1.31849">
        <ele>118.61271</ele>
        <time>2022-02-21T16:29:53.634Z</time>
      </trkpt>
      <trkpt lat="43.2488" lon="-1.31839">
        <ele>118.28075</ele>
        <time>2022-02-21T16:29:59.657Z</time>
      </trkpt>
      <trkpt lat="43.24761" lon="-1.31766">
        <ele>116.422418</ele>
        <time>2022-02-21T16:30:23.729Z</time>
      </trkpt>
      <trkpt lat="43.24723" lon="-1.31728">
        <ele>115.878753</ele>
        <time>2022-02-21T16:30:33.051Z</time>
      </trkpt>
      <trkpt lat="43.24706" lon="-1.31703">
        <ele>115.668986</ele>
        <time>2022-02-21T16:30:38.058Z</time>
      </trkpt>
      <trkpt lat="43.24619" lon="-1.31535">
        <ele>114.277355</ele>
        <time>2022-02-21T16:31:08.810Z</time>
      </trkpt>
      <trkpt lat="43.24581" lon="-1.31402">
        <ele>112.779658</ele>
        <time>2022-02-21T16:31:29.255Z</time>
      </trkpt>
      <trkpt lat="43.24499" lon="-1.31184">
        <ele>109.550179</ele>
        <time>2022-02-21T16:32:01.807Z</time>
      </trkpt>
      <trkpt lat="43.24447" lon="-1.31053">
        <ele>107.751774</ele>
        <time>2022-02-21T16:32:21.945Z</time>
      </trkpt>
      <trkpt lat="43.24416" lon="-1.30932">
        <ele>106.535124</ele>
        <time>2022-02-21T16:32:39.878Z</time>
      </trkpt>
      <trkpt lat="43.24401" lon="-1.30824">
        <ele>106.460822</ele>
        <time>2022-02-21T16:32:56.421Z</time>
      </trkpt>
      <trkpt lat="43.24405" lon="-1.30696">
        <ele>107.300669</ele>
        <time>2022-02-21T16:33:20.470Z</time>
      </trkpt>
      <trkpt lat="43.24414" lon="-1.30485">
        <ele>111.077141</ele>
        <time>2022-02-21T16:34:16.936Z</time>
      </trkpt>
      <trkpt lat="43.24418" lon="-1.30368">
        <ele>113.468253</ele>
        <time>2022-02-21T16:34:51.217Z</time>
      </trkpt>
      <trkpt lat="43.24415" lon="-1.30333">
        <ele>113.964467</ele>
        <time>2022-02-21T16:35:01.199Z</time>
      </trkpt>
      <trkpt lat="43.24392" lon="-1.30228">
        <ele>115.494118</ele>
        <time>2022-02-21T16:35:29.101Z</time>
      </trkpt>
      <trkpt lat="43.24337" lon="-1.30082">
        <ele>115.898162</ele>
        <time>2022-02-21T16:35:55.729Z</time>
      </trkpt>
      <trkpt lat="43.24313" lon="-1.30025">
        <ele>115.355857</ele>
        <time>2022-02-21T16:36:04.940Z</time>
      </trkpt>
      <trkpt lat="43.24287" lon="-1.29979">
        <ele>114.884349</ele>
        <time>2022-02-21T16:36:12.714Z</time>
      </trkpt>
      <trkpt lat="43.24183" lon="-1.29862">
        <ele>112.29249</ele>
        <time>2022-02-21T16:36:37.126Z</time>
      </trkpt>
      <trkpt lat="43.24098" lon="-1.29772">
        <ele>109.944825</ele>
        <time>2022-02-21T16:36:56.688Z</time>
      </trkpt>
      <trkpt lat="43.24082" lon="-1.29755">
        <ele>109.489994</ele>
        <time>2022-02-21T16:37:00.230Z</time>
      </trkpt>
      <trkpt lat="43.2404" lon="-1.29711">
        <ele>108.278172</ele>
        <time>2022-02-21T16:37:09.716Z</time>
      </trkpt>
      <trkpt lat="43.2398" lon="-1.29672">
        <ele>106.767498</ele>
        <time>2022-02-21T16:37:21.576Z</time>
      </trkpt>
      <trkpt lat="43.23978" lon="-1.29671">
        <ele>106.69605</ele>
        <time>2022-02-21T16:37:22.149Z</time>
      </trkpt>
      <trkpt lat="43.23971" lon="-1.29666">
        <ele>106.555575</ele>
        <time>2022-02-21T16:37:23.411Z</time>
      </trkpt>
      <trkpt lat="43.23883" lon="-1.29613">
        <ele>104.843349</ele>
        <time>2022-02-21T16:37:40.937Z</time>
      </trkpt>
      <trkpt lat="43.23825" lon="-1.29602">
        <ele>103.808218</ele>
        <time>2022-02-21T16:37:51.940Z</time>
      </trkpt>
      <trkpt lat="43.23802" lon="-1.29604">
        <ele>103.427151</ele>
        <time>2022-02-21T16:37:56.559Z</time>
      </trkpt>
      <trkpt lat="43.2371" lon="-1.2963">
        <ele>103.056977</ele>
        <time>2022-02-21T16:38:15.783Z</time>
      </trkpt>
      <trkpt lat="43.23645" lon="-1.2964">
        <ele>102.79808</ele>
        <time>2022-02-21T16:38:30.031Z</time>
      </trkpt>
      <trkpt lat="43.23533" lon="-1.29654">
        <ele>103.976068</ele>
        <time>2022-02-21T16:38:58.425Z</time>
      </trkpt>
      <trkpt lat="43.23499" lon="-1.29668">
        <ele>104.446726</ele>
        <time>2022-02-21T16:39:09.429Z</time>
      </trkpt>
      <trkpt lat="43.23463" lon="-1.29699">
        <ele>105.019463</ele>
        <time>2022-02-21T16:39:24.223Z</time>
      </trkpt>
      <trkpt lat="43.23419" lon="-1.29739">
        <ele>106.39489</ele>
        <time>2022-02-21T16:39:42.559Z</time>
      </trkpt>
      <trkpt lat="43.23334" lon="-1.29819">
        <ele>109.342204</ele>
        <time>2022-02-21T16:40:18.867Z</time>
      </trkpt>
      <trkpt lat="43.23227" lon="-1.29918">
        <ele>113.515683</ele>
        <time>2022-02-21T16:41:12.489Z</time>
      </trkpt>
      <trkpt lat="43.23081" lon="-1.30053">
        <ele>116.863813</ele>
        <time>2022-02-21T16:42:17.405Z</time>
      </trkpt>
      <trkpt lat="43.23043" lon="-1.30082">
        <ele>117.128616</ele>
        <time>2022-02-21T16:42:25.447Z</time>
      </trkpt>
      <trkpt lat="43.23023" lon="-1.30088">
        <ele>117.257519</ele>
        <time>2022-02-21T16:42:29.975Z</time>
      </trkpt>
      <trkpt lat="43.23023" lon="-1.30113">
        <ele>117.368404</ele>
        <time>2022-02-21T16:42:32.952Z</time>
      </trkpt>
      <trkpt lat="43.23025" lon="-1.30168">
        <ele>116.594706</ele>
        <time>2022-02-21T16:42:40.267Z</time>
      </trkpt>
      <trkpt lat="43.23025" lon="-1.30171">
        <ele>116.539327</ele>
        <time>2022-02-21T16:42:40.805Z</time>
      </trkpt>
      <trkpt lat="43.2302" lon="-1.30196">
        <ele>116.12648</ele>
        <time>2022-02-21T16:42:44.201Z</time>
      </trkpt>
      <trkpt lat="43.23011" lon="-1.30205">
        <ele>115.865137</ele>
        <time>2022-02-21T16:42:46.077Z</time>
      </trkpt>
      <trkpt lat="43.22978" lon="-1.30213">
        <ele>115.129454</ele>
        <time>2022-02-21T16:42:51.684Z</time>
      </trkpt>
      <trkpt lat="43.22933" lon="-1.30222">
        <ele>114.118027</ele>
        <time>2022-02-21T16:42:59.305Z</time>
      </trkpt>
      <trkpt lat="43.22887" lon="-1.30245">
        <ele>113.58469</ele>
        <time>2022-02-21T16:43:09.082Z</time>
      </trkpt>
      <trkpt lat="43.22846" lon="-1.30279">
        <ele>114.212456</ele>
        <time>2022-02-21T16:43:22.819Z</time>
      </trkpt>
      <trkpt lat="43.22814" lon="-1.30332">
        <ele>114.868533</ele>
        <time>2022-02-21T16:43:39.302Z</time>
      </trkpt>
      <trkpt lat="43.22805" lon="-1.30366">
        <ele>115.21555</ele>
        <time>2022-02-21T16:43:47.893Z</time>
      </trkpt>
      <trkpt lat="43.22803" lon="-1.30444">
        <ele>116.125877</ele>
        <time>2022-02-21T16:44:06.336Z</time>
      </trkpt>
      <trkpt lat="43.22796" lon="-1.30513">
        <ele>117.289823</ele>
        <time>2022-02-21T16:44:24.155Z</time>
      </trkpt>
      <trkpt lat="43.2276" lon="-1.30697">
        <ele>120.128849</ele>
        <time>2022-02-21T16:45:11.467Z</time>
      </trkpt>
      <trkpt lat="43.22707" lon="-1.30839">
        <ele>121.42603</ele>
        <time>2022-02-21T16:45:44.321Z</time>
      </trkpt>
      <trkpt lat="43.22689" lon="-1.30911">
        <ele>121.830824</ele>
        <time>2022-02-21T16:45:56.545Z</time>
      </trkpt>
      <trkpt lat="43.22674" lon="-1.31014">
        <ele>121.828148</ele>
        <time>2022-02-21T16:46:12.596Z</time>
      </trkpt>
      <trkpt lat="43.2259" lon="-1.31302">
        <ele>122.823101</ele>
        <time>2022-02-21T16:47:05.895Z</time>
      </trkpt>
      <trkpt lat="43.22568" lon="-1.31359">
        <ele>123.203533</ele>
        <time>2022-02-21T16:47:20.775Z</time>
      </trkpt>
      <trkpt lat="43.22543" lon="-1.31392">
        <ele>123.639484</ele>
        <time>2022-02-21T16:47:32.128Z</time>
      </trkpt>
      <trkpt lat="43.22521" lon="-1.31407">
        <ele>123.944019</ele>
        <time>2022-02-21T16:47:39.857Z</time>
      </trkpt>
      <trkpt lat="43.22472" lon="-1.31429">
        <ele>124.593736</ele>
        <time>2022-02-21T16:47:55.931Z</time>
      </trkpt>
      <trkpt lat="43.22445" lon="-1.31432">
        <ele>124.938895</ele>
        <time>2022-02-21T16:48:03.684Z</time>
      </trkpt>
      <trkpt lat="43.22404" lon="-1.31421">
        <ele>125.297522</ele>
        <time>2022-02-21T16:48:13.619Z</time>
      </trkpt>
      <trkpt lat="43.22338" lon="-1.31349">
        <ele>124.612518</ele>
        <time>2022-02-21T16:48:30.398Z</time>
      </trkpt>
      <trkpt lat="43.22298" lon="-1.31329">
        <ele>124.260849</ele>
        <time>2022-02-21T16:48:38.739Z</time>
      </trkpt>
      <trkpt lat="43.22251" lon="-1.31329">
        <ele>123.908922</ele>
        <time>2022-02-21T16:48:47.797Z</time>
      </trkpt>
      <trkpt lat="43.2223" lon="-1.31337">
        <ele>123.980263</ele>
        <time>2022-02-21T16:48:52.234Z</time>
      </trkpt>
      <trkpt lat="43.22215" lon="-1.31352">
        <ele>124.039229</ele>
        <time>2022-02-21T16:48:55.945Z</time>
      </trkpt>
      <trkpt lat="43.22151" lon="-1.31456">
        <ele>124.358435</ele>
        <time>2022-02-21T16:49:18.518Z</time>
      </trkpt>
      <trkpt lat="43.22132" lon="-1.31475">
        <ele>124.43482</ele>
        <time>2022-02-21T16:49:25.626Z</time>
      </trkpt>
      <trkpt lat="43.22101" lon="-1.31493">
        <ele>124.975102</ele>
        <time>2022-02-21T16:49:36.920Z</time>
      </trkpt>
      <trkpt lat="43.22024" lon="-1.31512">
        <ele>126.918436</ele>
        <time>2022-02-21T16:50:05.160Z</time>
      </trkpt>
      <trkpt lat="43.21863" lon="-1.31522">
        <ele>129.843013</ele>
        <time>2022-02-21T16:51:02.556Z</time>
      </trkpt>
      <trkpt lat="43.21809" lon="-1.31542">
        <ele>130.439053</ele>
        <time>2022-02-21T16:51:16.838Z</time>
      </trkpt>
      <trkpt lat="43.21777" lon="-1.31567">
        <ele>130.836079</ele>
        <time>2022-02-21T16:51:24.585Z</time>
      </trkpt>
      <trkpt lat="43.21711" lon="-1.31644">
        <ele>130.655236</ele>
        <time>2022-02-21T16:51:41.159Z</time>
      </trkpt>
      <trkpt lat="43.2165" lon="-1.317">
        <ele>130.396686</ele>
        <time>2022-02-21T16:51:56.266Z</time>
      </trkpt>
      <trkpt lat="43.21563" lon="-1.31751">
        <ele>132.08825</ele>
        <time>2022-02-21T16:52:25.744Z</time>
      </trkpt>
      <trkpt lat="43.21451" lon="-1.31802">
        <ele>135.270601</ele>
        <time>2022-02-21T16:53:13.306Z</time>
      </trkpt>
      <trkpt lat="43.21368" lon="-1.31861">
        <ele>137.449269</ele>
        <time>2022-02-21T16:53:47.006Z</time>
      </trkpt>
      <trkpt lat="43.2132" lon="-1.31918">
        <ele>138.942359</ele>
        <time>2022-02-21T16:54:06.671Z</time>
      </trkpt>
      <trkpt lat="43.2127" lon="-1.31998">
        <ele>140.034346</ele>
        <time>2022-02-21T16:54:28.892Z</time>
      </trkpt>
      <trkpt lat="43.21197" lon="-1.32097">
        <ele>141.189983</ele>
        <time>2022-02-21T16:54:57.702Z</time>
      </trkpt>
      <trkpt lat="43.21133" lon="-1.32231">
        <ele>141.547438</ele>
        <time>2022-02-21T16:55:26.869Z</time>
      </trkpt>
      <trkpt lat="43.21079" lon="-1.32295">
        <ele>141.65064</ele>
        <time>2022-02-21T16:55:41.696Z</time>
      </trkpt>
      <trkpt lat="43.21026" lon="-1.32371">
        <ele>141.914459</ele>
        <time>2022-02-21T16:55:58.226Z</time>
      </trkpt>
      <trkpt lat="43.20988" lon="-1.32397">
        <ele>142.074545</ele>
        <time>2022-02-21T16:56:08.454Z</time>
      </trkpt>
      <trkpt lat="43.20968" lon="-1.32403">
        <ele>142.149322</ele>
        <time>2022-02-21T16:56:13.527Z</time>
      </trkpt>
      <trkpt lat="43.20877" lon="-1.32423">
        <ele>142.289022</ele>
        <time>2022-02-21T16:56:40.081Z</time>
      </trkpt>
      <trkpt lat="43.20783" lon="-1.32425">
        <ele>142.165123</ele>
        <time>2022-02-21T16:57:03.078Z</time>
      </trkpt>
      <trkpt lat="43.20761" lon="-1.32437">
        <ele>142.134341</ele>
        <time>2022-02-21T16:57:07.532Z</time>
      </trkpt>
      <trkpt lat="43.20739" lon="-1.32494">
        <ele>141.329021</ele>
        <time>2022-02-21T16:57:15.890Z</time>
      </trkpt>
      <trkpt lat="43.20733" lon="-1.32603">
        <ele>138.982213</ele>
        <time>2022-02-21T16:57:29.404Z</time>
      </trkpt>
      <trkpt lat="43.20714" lon="-1.32652">
        <ele>137.780261</ele>
        <time>2022-02-21T16:57:36.161Z</time>
      </trkpt>
      <trkpt lat="43.20705" lon="-1.32663">
        <ele>137.423462</ele>
        <time>2022-02-21T16:57:38.264Z</time>
      </trkpt>
      <trkpt lat="43.20681" lon="-1.32676">
        <ele>136.712364</ele>
        <time>2022-02-21T16:57:42.694Z</time>
      </trkpt>
      <trkpt lat="43.20562" lon="-1.32711">
        <ele>134.635873</ele>
        <time>2022-02-21T16:58:04.655Z</time>
      </trkpt>
      <trkpt lat="43.20535" lon="-1.32729">
        <ele>134.113654</ele>
        <time>2022-02-21T16:58:10.981Z</time>
      </trkpt>
      <trkpt lat="43.20529" lon="-1.32734">
        <ele>133.996378</ele>
        <time>2022-02-21T16:58:12.461Z</time>
      </trkpt>
      <trkpt lat="43.20504" lon="-1.32754">
        <ele>133.720488</ele>
        <time>2022-02-21T16:58:18.598Z</time>
      </trkpt>
      <trkpt lat="43.20443" lon="-1.32815">
        <ele>133.826963</ele>
        <time>2022-02-21T16:58:36.188Z</time>
      </trkpt>
      <trkpt lat="43.20392" lon="-1.32882">
        <ele>133.925674</ele>
        <time>2022-02-21T16:58:53.113Z</time>
      </trkpt>
      <trkpt lat="43.2035" lon="-1.32954">
        <ele>134.123979</ele>
        <time>2022-02-21T16:59:09.353Z</time>
      </trkpt>
      <trkpt lat="43.20295" lon="-1.33082">
        <ele>134.516819</ele>
        <time>2022-02-21T16:59:35.978Z</time>
      </trkpt>
      <trkpt lat="43.20226" lon="-1.33212">
        <ele>134.966331</ele>
        <time>2022-02-21T17:00:02.591Z</time>
      </trkpt>
      <trkpt lat="43.20199" lon="-1.33246">
        <ele>135.109876</ele>
        <time>2022-02-21T17:00:11.616Z</time>
      </trkpt>
      <trkpt lat="43.20171" lon="-1.33272">
        <ele>135.242637</ele>
        <time>2022-02-21T17:00:20.260Z</time>
      </trkpt>
      <trkpt lat="43.20137" lon="-1.33295">
        <ele>135.518297</ele>
        <time>2022-02-21T17:00:29.967Z</time>
      </trkpt>
      <trkpt lat="43.20097" lon="-1.33312">
        <ele>135.947885</ele>
        <time>2022-02-21T17:00:41.211Z</time>
      </trkpt>
      <trkpt lat="43.20055" lon="-1.33324">
        <ele>136.39292</ele>
        <time>2022-02-21T17:00:53.286Z</time>
      </trkpt>
      <trkpt lat="43.19995" lon="-1.33339">
        <ele>137.027232</ele>
        <time>2022-02-21T17:01:10.721Z</time>
      </trkpt>
      <trkpt lat="43.19883" lon="-1.33389">
        <ele>138.014204</ele>
        <time>2022-02-21T17:01:42.670Z</time>
      </trkpt>
      <trkpt lat="43.19868" lon="-1.33388">
        <ele>138.139268</ele>
        <time>2022-02-21T17:01:46.507Z</time>
      </trkpt>
      <trkpt lat="43.19693" lon="-1.33324">
        <ele>139.388047</ele>
        <time>2022-02-21T17:02:31.302Z</time>
      </trkpt>
      <trkpt lat="43.19661" lon="-1.33329">
        <ele>139.595248</ele>
        <time>2022-02-21T17:02:39.506Z</time>
      </trkpt>
      <trkpt lat="43.19636" lon="-1.33348">
        <ele>139.781417</ele>
        <time>2022-02-21T17:02:47.033Z</time>
      </trkpt>
      <trkpt lat="43.19614" lon="-1.33362">
        <ele>140.112541</ele>
        <time>2022-02-21T17:02:53.577Z</time>
      </trkpt>
      <trkpt lat="43.19552" lon="-1.33361">
        <ele>140.95909</ele>
        <time>2022-02-21T17:03:11.235Z</time>
      </trkpt>
      <trkpt lat="43.19504" lon="-1.33385">
        <ele>141.657519</ele>
        <time>2022-02-21T17:03:26.781Z</time>
      </trkpt>
      <trkpt lat="43.19416" lon="-1.33467">
        <ele>143.461431</ele>
        <time>2022-02-21T17:03:59.421Z</time>
      </trkpt>
      <trkpt lat="43.19405" lon="-1.33491">
        <ele>143.853286</ele>
        <time>2022-02-21T17:04:06.695Z</time>
      </trkpt>
      <trkpt lat="43.19384" lon="-1.3356">
        <ele>144.901234</ele>
        <time>2022-02-21T17:04:23.949Z</time>
      </trkpt>
      <trkpt lat="43.19371" lon="-1.33574">
        <ele>145.205239</ele>
        <time>2022-02-21T17:04:29.810Z</time>
      </trkpt>
      <trkpt lat="43.19343" lon="-1.3358">
        <ele>145.725393</ele>
        <time>2022-02-21T17:04:38.745Z</time>
      </trkpt>
      <trkpt lat="43.19305" lon="-1.3358">
        <ele>146.232965</ele>
        <time>2022-02-21T17:04:50.715Z</time>
      </trkpt>
      <trkpt lat="43.19227" lon="-1.33566">
        <ele>147.298148</ele>
        <time>2022-02-21T17:05:13.908Z</time>
      </trkpt>
      <trkpt lat="43.19182" lon="-1.3358">
        <ele>147.919655</ele>
        <time>2022-02-21T17:05:25.712Z</time>
      </trkpt>
      <trkpt lat="43.19104" lon="-1.33577">
        <ele>148.526519</ele>
        <time>2022-02-21T17:05:45.847Z</time>
      </trkpt>
      <trkpt lat="43.19065" lon="-1.33568">
        <ele>148.793566</ele>
        <time>2022-02-21T17:05:55.737Z</time>
      </trkpt>
      <trkpt lat="43.19007" lon="-1.33535">
        <ele>149.213777</ele>
        <time>2022-02-21T17:06:11.606Z</time>
      </trkpt>
      <trkpt lat="43.18984" lon="-1.3354">
        <ele>149.381727</ele>
        <time>2022-02-21T17:06:18.016Z</time>
      </trkpt>
      <trkpt lat="43.18935" lon="-1.33562">
        <ele>149.756648</ele>
        <time>2022-02-21T17:06:31.205Z</time>
      </trkpt>
      <trkpt lat="43.18907" lon="-1.33562">
        <ele>149.960839</ele>
        <time>2022-02-21T17:06:38.290Z</time>
      </trkpt>
      <trkpt lat="43.18884" lon="-1.33555">
        <ele>150.133977</ele>
        <time>2022-02-21T17:06:44.836Z</time>
      </trkpt>
      <trkpt lat="43.18878" lon="-1.33553">
        <ele>150.178332</ele>
        <time>2022-02-21T17:06:46.135Z</time>
      </trkpt>
      <trkpt lat="43.18755" lon="-1.33504">
        <ele>150.865161</ele>
        <time>2022-02-21T17:07:19.369Z</time>
      </trkpt>
      <trkpt lat="43.18747" lon="-1.33501">
        <ele>150.893307</ele>
        <time>2022-02-21T17:07:21.440Z</time>
      </trkpt>
      <trkpt lat="43.18699" lon="-1.33493">
        <ele>151.070963</ele>
        <time>2022-02-21T17:07:32.099Z</time>
      </trkpt>
      <trkpt lat="43.18651" lon="-1.33499">
        <ele>151.246376</ele>
        <time>2022-02-21T17:07:43.196Z</time>
      </trkpt>
      <trkpt lat="43.18602" lon="-1.33507">
        <ele>151.233643</ele>
        <time>2022-02-21T17:07:55.406Z</time>
      </trkpt>
      <trkpt lat="43.18567" lon="-1.33521">
        <ele>151.203824</ele>
        <time>2022-02-21T17:08:03.789Z</time>
      </trkpt>
      <trkpt lat="43.18551" lon="-1.33533">
        <ele>151.188735</ele>
        <time>2022-02-21T17:08:07.897Z</time>
      </trkpt>
      <trkpt lat="43.18539" lon="-1.33556">
        <ele>151.172176</ele>
        <time>2022-02-21T17:08:12.244Z</time>
      </trkpt>
      <trkpt lat="43.18554" lon="-1.33624">
        <ele>151.130183</ele>
        <time>2022-02-21T17:08:23.209Z</time>
      </trkpt>
      <trkpt lat="43.18549" lon="-1.33674">
        <ele>151.007034</ele>
        <time>2022-02-21T17:08:30.799Z</time>
      </trkpt>
      <trkpt lat="43.18536" lon="-1.3372">
        <ele>150.852604</ele>
        <time>2022-02-21T17:08:38.317Z</time>
      </trkpt>
      <trkpt lat="43.18513" lon="-1.33741">
        <ele>150.731462</ele>
        <time>2022-02-21T17:08:44.246Z</time>
      </trkpt>
      <trkpt lat="43.18503" lon="-1.33745">
        <ele>150.686744</ele>
        <time>2022-02-21T17:08:46.500Z</time>
      </trkpt>
      <trkpt lat="43.18469" lon="-1.33755">
        <ele>150.540215</ele>
        <time>2022-02-21T17:08:53.587Z</time>
      </trkpt>
      <trkpt lat="43.18429" lon="-1.33749">
        <ele>150.366151</ele>
        <time>2022-02-21T17:09:01.729Z</time>
      </trkpt>
      <trkpt lat="43.18365" lon="-1.33696">
        <ele>150.611899</ele>
        <time>2022-02-21T17:09:18.724Z</time>
      </trkpt>
      <trkpt lat="43.18323" lon="-1.33677">
        <ele>150.776254</ele>
        <time>2022-02-21T17:09:29.837Z</time>
      </trkpt>
      <trkpt lat="43.18289" lon="-1.33675">
        <ele>150.904757</ele>
        <time>2022-02-21T17:09:38.815Z</time>
      </trkpt>
      <trkpt lat="43.18253" lon="-1.33689">
        <ele>151.070256</ele>
        <time>2022-02-21T17:09:48.407Z</time>
      </trkpt>
      <trkpt lat="43.18249" lon="-1.33691">
        <ele>151.111186</ele>
        <time>2022-02-21T17:09:49.720Z</time>
      </trkpt>
      <trkpt lat="43.18204" lon="-1.33719">
        <ele>151.513274</ele>
        <time>2022-02-21T17:10:02.494Z</time>
      </trkpt>
      <trkpt lat="43.18157" lon="-1.33763">
        <ele>151.979342</ele>
        <time>2022-02-21T17:10:17.624Z</time>
      </trkpt>
      <trkpt lat="43.18129" lon="-1.33792">
        <ele>152.269757</ele>
        <time>2022-02-21T17:10:27.159Z</time>
      </trkpt>
      <trkpt lat="43.18104" lon="-1.33834">
        <ele>152.583149</ele>
        <time>2022-02-21T17:10:37.685Z</time>
      </trkpt>
      <trkpt lat="43.18076" lon="-1.33899">
        <ele>152.981971</ele>
        <time>2022-02-21T17:10:51.928Z</time>
      </trkpt>
      <trkpt lat="43.18025" lon="-1.33929">
        <ele>153.386884</ele>
        <time>2022-02-21T17:11:06.530Z</time>
      </trkpt>
      <trkpt lat="43.17941" lon="-1.34005">
        <ele>154.361896</ele>
        <time>2022-02-21T17:11:31.572Z</time>
      </trkpt>
      <trkpt lat="43.17924" lon="-1.34021">
        <ele>154.632625</ele>
        <time>2022-02-21T17:11:36.980Z</time>
      </trkpt>
      <trkpt lat="43.17907" lon="-1.34037">
        <ele>154.907088</ele>
        <time>2022-02-21T17:11:42.493Z</time>
      </trkpt>
      <trkpt lat="43.17903" lon="-1.3404">
        <ele>154.967908</ele>
        <time>2022-02-21T17:11:43.822Z</time>
      </trkpt>
      <trkpt lat="43.17883" lon="-1.34063">
        <ele>155.306108</ele>
        <time>2022-02-21T17:11:50.948Z</time>
      </trkpt>
      <trkpt lat="43.17863" lon="-1.34087">
        <ele>155.65419</ele>
        <time>2022-02-21T17:11:58.830Z</time>
      </trkpt>
      <trkpt lat="43.17851" lon="-1.34102">
        <ele>155.863269</ele>
        <time>2022-02-21T17:12:03.620Z</time>
      </trkpt>
      <trkpt lat="43.1777" lon="-1.34195">
        <ele>158.51473</ele>
        <time>2022-02-21T17:12:42.529Z</time>
      </trkpt>
      <trkpt lat="43.17748" lon="-1.34197">
        <ele>159.142043</ele>
        <time>2022-02-21T17:12:50.940Z</time>
      </trkpt>
      <trkpt lat="43.17716" lon="-1.3419">
        <ele>160.073287</ele>
        <time>2022-02-21T17:13:03.530Z</time>
      </trkpt>
      <trkpt lat="43.17696" lon="-1.34187">
        <ele>160.650474</ele>
        <time>2022-02-21T17:13:11.418Z</time>
      </trkpt>
      <trkpt lat="43.17691" lon="-1.34188">
        <ele>160.779331</ele>
        <time>2022-02-21T17:13:13.162Z</time>
      </trkpt>
      <trkpt lat="43.1767" lon="-1.34197">
        <ele>161.306762</ele>
        <time>2022-02-21T17:13:21.202Z</time>
      </trkpt>
      <trkpt lat="43.17655" lon="-1.34236">
        <ele>161.676279</ele>
        <time>2022-02-21T17:13:32.346Z</time>
      </trkpt>
      <trkpt lat="43.17623" lon="-1.34332">
        <ele>162.547431</ele>
        <time>2022-02-21T17:13:55.575Z</time>
      </trkpt>
      <trkpt lat="43.17614" lon="-1.3438">
        <ele>162.955082</ele>
        <time>2022-02-21T17:14:03.949Z</time>
      </trkpt>
      <trkpt lat="43.17609" lon="-1.34488">
        <ele>163.273539</ele>
        <time>2022-02-21T17:14:19.746Z</time>
      </trkpt>
      <trkpt lat="43.17598" lon="-1.34541">
        <ele>163.264195</ele>
        <time>2022-02-21T17:14:28.384Z</time>
      </trkpt>
      <trkpt lat="43.17584" lon="-1.34575">
        <ele>163.257715</ele>
        <time>2022-02-21T17:14:34.577Z</time>
      </trkpt>
      <trkpt lat="43.17578" lon="-1.3458">
        <ele>163.256117</ele>
        <time>2022-02-21T17:14:36.173Z</time>
      </trkpt>
      <trkpt lat="43.17563" lon="-1.34628">
        <ele>163.247369</ele>
        <time>2022-02-21T17:14:45.320Z</time>
      </trkpt>
      <trkpt lat="43.17561" lon="-1.34632">
        <ele>163.246471</ele>
        <time>2022-02-21T17:14:46.372Z</time>
      </trkpt>
      <trkpt lat="43.17548" lon="-1.34667">
        <ele>163.679137</ele>
        <time>2022-02-21T17:14:53.744Z</time>
      </trkpt>
      <trkpt lat="43.17541" lon="-1.3468">
        <ele>163.998495</ele>
        <time>2022-02-21T17:14:57.054Z</time>
      </trkpt>
      <trkpt lat="43.17534" lon="-1.34692">
        <ele>164.306125</ele>
        <time>2022-02-21T17:15:00.116Z</time>
      </trkpt>
      <trkpt lat="43.17515" lon="-1.34719">
        <ele>165.038847</ele>
        <time>2022-02-21T17:15:07.974Z</time>
      </trkpt>
      <trkpt lat="43.17511" lon="-1.3473">
        <ele>165.297388</ele>
        <time>2022-02-21T17:15:10.887Z</time>
      </trkpt>
      <trkpt lat="43.17417" lon="-1.34869">
        <ele>170.043607</ele>
        <time>2022-02-21T17:16:08.783Z</time>
      </trkpt>
      <trkpt lat="43.1736" lon="-1.3493">
        <ele>174.11617</ele>
        <time>2022-02-21T17:16:47.473Z</time>
      </trkpt>
      <trkpt lat="43.17336" lon="-1.34965">
        <ele>176.133391</ele>
        <time>2022-02-21T17:17:07.350Z</time>
      </trkpt>
      <trkpt lat="43.17308" lon="-1.34987">
        <ele>177.928591</ele>
        <time>2022-02-21T17:17:25.239Z</time>
      </trkpt>
      <trkpt lat="43.17273" lon="-1.35039">
        <ele>180.436654</ele>
        <time>2022-02-21T17:17:53.124Z</time>
      </trkpt>
      <trkpt lat="43.17265" lon="-1.35038">
        <ele>180.807315</ele>
        <time>2022-02-21T17:17:58.375Z</time>
      </trkpt>
      <trkpt lat="43.17252" lon="-1.35061">
        <ele>181.790552</ele>
        <time>2022-02-21T17:18:08.294Z</time>
      </trkpt>
      <trkpt lat="43.17236" lon="-1.35096">
        <ele>183.17079</ele>
        <time>2022-02-21T17:18:23.046Z</time>
      </trkpt>
      <trkpt lat="43.17215" lon="-1.35158">
        <ele>185.534626</ele>
        <time>2022-02-21T17:18:43.598Z</time>
      </trkpt>
      <trkpt lat="43.17177" lon="-1.35275">
        <ele>187.287629</ele>
        <time>2022-02-21T17:19:14.688Z</time>
      </trkpt>
      <trkpt lat="43.17125" lon="-1.35498">
        <ele>187.931594</ele>
        <time>2022-02-21T17:19:51.957Z</time>
      </trkpt>
      <trkpt lat="43.17077" lon="-1.35617">
        <ele>187.426272</ele>
        <time>2022-02-21T17:20:10.875Z</time>
      </trkpt>
      <trkpt lat="43.17024" lon="-1.35703">
        <ele>189.454842</ele>
        <time>2022-02-21T17:20:32.330Z</time>
      </trkpt>
      <trkpt lat="43.16989" lon="-1.35744">
        <ele>191.081028</ele>
        <time>2022-02-21T17:20:55.968Z</time>
      </trkpt>
      <trkpt lat="43.16923" lon="-1.35788">
        <ele>193.698321</ele>
        <time>2022-02-21T17:21:33.510Z</time>
      </trkpt>
      <trkpt lat="43.16865" lon="-1.35809">
        <ele>193.838802</ele>
        <time>2022-02-21T17:21:56.984Z</time>
      </trkpt>
      <trkpt lat="43.1682" lon="-1.35841">
        <ele>193.953451</ele>
        <time>2022-02-21T17:22:09.048Z</time>
      </trkpt>
      <trkpt lat="43.16793" lon="-1.35882">
        <ele>194.045318</ele>
        <time>2022-02-21T17:22:17.043Z</time>
      </trkpt>
      <trkpt lat="43.16732" lon="-1.36018">
        <ele>190.977548</ele>
        <time>2022-02-21T17:22:35.478Z</time>
      </trkpt>
      <trkpt lat="43.1671" lon="-1.36036">
        <ele>190.066629</ele>
        <time>2022-02-21T17:22:39.382Z</time>
      </trkpt>
      <trkpt lat="43.16692" lon="-1.36036">
        <ele>189.413098</ele>
        <time>2022-02-21T17:22:42.392Z</time>
      </trkpt>
      <trkpt lat="43.16667" lon="-1.36014">
        <ele>188.348201</ele>
        <time>2022-02-21T17:22:47.630Z</time>
      </trkpt>
      <trkpt lat="43.16636" lon="-1.35902">
        <ele>189.579881</ele>
        <time>2022-02-21T17:23:09.148Z</time>
      </trkpt>
      <trkpt lat="43.16597" lon="-1.35829">
        <ele>191.446435</ele>
        <time>2022-02-21T17:23:42.312Z</time>
      </trkpt>
      <trkpt lat="43.16566" lon="-1.35782">
        <ele>192.770707</ele>
        <time>2022-02-21T17:24:02.422Z</time>
      </trkpt>
      <trkpt lat="43.16528" lon="-1.35745">
        <ele>193.712392</ele>
        <time>2022-02-21T17:24:20.666Z</time>
      </trkpt>
      <trkpt lat="43.16515" lon="-1.35739">
        <ele>193.989547</ele>
        <time>2022-02-21T17:24:27.036Z</time>
      </trkpt>
      <trkpt lat="43.1649" lon="-1.35731">
        <ele>194.50957</ele>
        <time>2022-02-21T17:24:35.045Z</time>
      </trkpt>
      <trkpt lat="43.16456" lon="-1.35736">
        <ele>195.198488</ele>
        <time>2022-02-21T17:24:44.580Z</time>
      </trkpt>
      <trkpt lat="43.16429" lon="-1.35757">
        <ele>195.826892</ele>
        <time>2022-02-21T17:24:52.665Z</time>
      </trkpt>
      <trkpt lat="43.16354" lon="-1.35844">
        <ele>197.546916</ele>
        <time>2022-02-21T17:25:16.063Z</time>
      </trkpt>
      <trkpt lat="43.16319" lon="-1.35856">
        <ele>198.141057</ele>
        <time>2022-02-21T17:25:23.435Z</time>
      </trkpt>
      <trkpt lat="43.16291" lon="-1.35844">
        <ele>198.622617</ele>
        <time>2022-02-21T17:25:32.013Z</time>
      </trkpt>
      <trkpt lat="43.16264" lon="-1.35819">
        <ele>199.153513</ele>
        <time>2022-02-21T17:25:44.585Z</time>
      </trkpt>
      <trkpt lat="43.16203" lon="-1.35714">
        <ele>205.547276</ele>
        <time>2022-02-21T17:26:38.636Z</time>
      </trkpt>
      <trkpt lat="43.16168" lon="-1.35668">
        <ele>209.029795</ele>
        <time>2022-02-21T17:27:10.626Z</time>
      </trkpt>
      <trkpt lat="43.1613" lon="-1.35631">
        <ele>212.397851</ele>
        <time>2022-02-21T17:27:41.958Z</time>
      </trkpt>
      <trkpt lat="43.16093" lon="-1.35607">
        <ele>214.139409</ele>
        <time>2022-02-21T17:28:07.307Z</time>
      </trkpt>
      <trkpt lat="43.16055" lon="-1.35592">
        <ele>215.814688</ele>
        <time>2022-02-21T17:28:29.236Z</time>
      </trkpt>
      <trkpt lat="43.16016" lon="-1.35588">
        <ele>217.475308</ele>
        <time>2022-02-21T17:28:46.076Z</time>
      </trkpt>
      <trkpt lat="43.15998" lon="-1.35595">
        <ele>218.269621</ele>
        <time>2022-02-21T17:28:51.978Z</time>
      </trkpt>
      <trkpt lat="43.15967" lon="-1.35613">
        <ele>219.699912</ele>
        <time>2022-02-21T17:29:00.710Z</time>
      </trkpt>
      <trkpt lat="43.15959" lon="-1.35625">
        <ele>219.804457</ele>
        <time>2022-02-21T17:29:03.295Z</time>
      </trkpt>
      <trkpt lat="43.15934" lon="-1.35687">
        <ele>217.838394</ele>
        <time>2022-02-21T17:29:12.412Z</time>
      </trkpt>
      <trkpt lat="43.1593" lon="-1.35732">
        <ele>216.56785</ele>
        <time>2022-02-21T17:29:17.837Z</time>
      </trkpt>
      <trkpt lat="43.15934" lon="-1.359">
        <ele>211.925468</ele>
        <time>2022-02-21T17:29:36.870Z</time>
      </trkpt>
      <trkpt lat="43.1594" lon="-1.35979">
        <ele>209.778494</ele>
        <time>2022-02-21T17:29:46.188Z</time>
      </trkpt>
      <trkpt lat="43.1594" lon="-1.35992">
        <ele>209.409141</ele>
        <time>2022-02-21T17:29:47.836Z</time>
      </trkpt>
      <trkpt lat="43.15929" lon="-1.36062">
        <ele>207.473576</ele>
        <time>2022-02-21T17:29:56.702Z</time>
      </trkpt>
      <trkpt lat="43.1591" lon="-1.3609">
        <ele>206.437286</ele>
        <time>2022-02-21T17:30:01.645Z</time>
      </trkpt>
      <trkpt lat="43.15899" lon="-1.36096">
        <ele>206.752174</ele>
        <time>2022-02-21T17:30:03.975Z</time>
      </trkpt>
      <trkpt lat="43.15878" lon="-1.36097">
        <ele>207.28659</ele>
        <time>2022-02-21T17:30:08.281Z</time>
      </trkpt>
      <trkpt lat="43.15845" lon="-1.36074">
        <ele>208.249727</ele>
        <time>2022-02-21T17:30:17.854Z</time>
      </trkpt>
      <trkpt lat="43.15811" lon="-1.36022">
        <ele>209.553514</ele>
        <time>2022-02-21T17:30:36.594Z</time>
      </trkpt>
      <trkpt lat="43.158" lon="-1.35986">
        <ele>210.291135</ele>
        <time>2022-02-21T17:30:50.036Z</time>
      </trkpt>
      <trkpt lat="43.15773" lon="-1.35771">
        <ele>218.958981</ele>
        <time>2022-02-21T17:32:20.972Z</time>
      </trkpt>
      <trkpt lat="43.1576" lon="-1.35746">
        <ele>220.274961</ele>
        <time>2022-02-21T17:32:33.249Z</time>
      </trkpt>
      <trkpt lat="43.15738" lon="-1.35722">
        <ele>222.018668</ele>
        <time>2022-02-21T17:32:46.666Z</time>
      </trkpt>
      <trkpt lat="43.15708" lon="-1.35713">
        <ele>222.461626</ele>
        <time>2022-02-21T17:32:58.850Z</time>
      </trkpt>
      <trkpt lat="43.15694" lon="-1.35715">
        <ele>222.649364</ele>
        <time>2022-02-21T17:33:04.258Z</time>
      </trkpt>
      <trkpt lat="43.15665" lon="-1.35733">
        <ele>223.07121</ele>
        <time>2022-02-21T17:33:13.723Z</time>
      </trkpt>
      <trkpt lat="43.1565" lon="-1.35754">
        <ele>223.346931</ele>
        <time>2022-02-21T17:33:18.488Z</time>
      </trkpt>
      <trkpt lat="43.15583" lon="-1.35918">
        <ele>225.244958</ele>
        <time>2022-02-21T17:33:47.687Z</time>
      </trkpt>
      <trkpt lat="43.15554" lon="-1.35962">
        <ele>225.877751</ele>
        <time>2022-02-21T17:33:59.592Z</time>
      </trkpt>
      <trkpt lat="43.15376" lon="-1.36151">
        <ele>230.95875</ele>
        <time>2022-02-21T17:35:23.598Z</time>
      </trkpt>
      <trkpt lat="43.15354" lon="-1.36168">
        <ele>231.629015</ele>
        <time>2022-02-21T17:35:31.986Z</time>
      </trkpt>
      <trkpt lat="43.15188" lon="-1.36246">
        <ele>236.238369</ele>
        <time>2022-02-21T17:36:23.264Z</time>
      </trkpt>
      <trkpt lat="43.15112" lon="-1.36291">
        <ele>242.75987</ele>
        <time>2022-02-21T17:37:12.412Z</time>
      </trkpt>
      <trkpt lat="43.15005" lon="-1.36357">
        <ele>253.122315</ele>
        <time>2022-02-21T17:38:48.908Z</time>
      </trkpt>
      <trkpt lat="43.14986" lon="-1.36372">
        <ele>253.046914</ele>
        <time>2022-02-21T17:39:03.741Z</time>
      </trkpt>
      <trkpt lat="43.1497" lon="-1.36396">
        <ele>252.962615</ele>
        <time>2022-02-21T17:39:17.638Z</time>
      </trkpt>
      <trkpt lat="43.14956" lon="-1.36431">
        <ele>252.862645</ele>
        <time>2022-02-21T17:39:27.711Z</time>
      </trkpt>
      <trkpt lat="43.14952" lon="-1.36466">
        <ele>252.772691</ele>
        <time>2022-02-21T17:39:32.795Z</time>
      </trkpt>
      <trkpt lat="43.14956" lon="-1.365">
        <ele>252.68699</ele>
        <time>2022-02-21T17:39:37.048Z</time>
      </trkpt>
      <trkpt lat="43.14962" lon="-1.36523">
        <ele>252.625701</ele>
        <time>2022-02-21T17:39:39.662Z</time>
      </trkpt>
      <trkpt lat="43.15032" lon="-1.36653">
        <ele>245.00699</ele>
        <time>2022-02-21T17:39:56.242Z</time>
      </trkpt>
      <trkpt lat="43.15053" lon="-1.36716">
        <ele>240.585964</ele>
        <time>2022-02-21T17:40:03.273Z</time>
      </trkpt>
      <trkpt lat="43.15048" lon="-1.36751">
        <ele>238.333725</ele>
        <time>2022-02-21T17:40:07.096Z</time>
      </trkpt>
      <trkpt lat="43.15041" lon="-1.36762">
        <ele>237.376294</ele>
        <time>2022-02-21T17:40:08.803Z</time>
      </trkpt>
      <trkpt lat="43.15024" lon="-1.36769">
        <ele>237.016731</ele>
        <time>2022-02-21T17:40:11.753Z</time>
      </trkpt>
      <trkpt lat="43.14954" lon="-1.3676">
        <ele>238.708489</ele>
        <time>2022-02-21T17:40:30.788Z</time>
      </trkpt>
      <trkpt lat="43.14871" lon="-1.36723">
        <ele>240.836703</ele>
        <time>2022-02-21T17:41:15.674Z</time>
      </trkpt>
      <trkpt lat="43.14773" lon="-1.36706">
        <ele>244.789413</ele>
        <time>2022-02-21T17:42:06.593Z</time>
      </trkpt>
      <trkpt lat="43.14742" lon="-1.36686">
        <ele>246.226089</ele>
        <time>2022-02-21T17:42:22.003Z</time>
      </trkpt>
      <trkpt lat="43.14692" lon="-1.36634">
        <ele>248.656906</ele>
        <time>2022-02-21T17:42:46.892Z</time>
      </trkpt>
      <trkpt lat="43.14516" lon="-1.3661">
        <ele>245.977557</ele>
        <time>2022-02-21T17:43:19.546Z</time>
      </trkpt>
      <trkpt lat="43.14411" lon="-1.36624">
        <ele>241.978934</ele>
        <time>2022-02-21T17:43:36.498Z</time>
      </trkpt>
      <trkpt lat="43.14396" lon="-1.36622">
        <ele>241.42351</ele>
        <time>2022-02-21T17:43:38.860Z</time>
      </trkpt>
      <trkpt lat="43.14305" lon="-1.36541">
        <ele>238.576817</ele>
        <time>2022-02-21T17:43:57.232Z</time>
      </trkpt>
      <trkpt lat="43.14208" lon="-1.36517">
        <ele>237.370609</ele>
        <time>2022-02-21T17:44:17.231Z</time>
      </trkpt>
      <trkpt lat="43.14121" lon="-1.36524">
        <ele>238.957857</ele>
        <time>2022-02-21T17:44:38.812Z</time>
      </trkpt>
      <trkpt lat="43.14004" lon="-1.36499">
        <ele>243.184688</ele>
        <time>2022-02-21T17:45:30.515Z</time>
      </trkpt>
      <trkpt lat="43.1398" lon="-1.36479">
        <ele>245.147896</ele>
        <time>2022-02-21T17:45:47.766Z</time>
      </trkpt>
      <trkpt lat="43.1394" lon="-1.36417">
        <ele>249.996647</ele>
        <time>2022-02-21T17:46:28.311Z</time>
      </trkpt>
      <trkpt lat="43.139" lon="-1.36367">
        <ele>254.30806</ele>
        <time>2022-02-21T17:47:05.398Z</time>
      </trkpt>
      <trkpt lat="43.13856" lon="-1.36343">
        <ele>257.772189</ele>
        <time>2022-02-21T17:47:37.198Z</time>
      </trkpt>
      <trkpt lat="43.13785" lon="-1.36346">
        <ele>258.771934</ele>
        <time>2022-02-21T17:48:10.629Z</time>
      </trkpt>
      <trkpt lat="43.13744" lon="-1.36356">
        <ele>259.365465</ele>
        <time>2022-02-21T17:48:21.569Z</time>
      </trkpt>
      <trkpt lat="43.13689" lon="-1.36396">
        <ele>260.233614</ele>
        <time>2022-02-21T17:48:32.129Z</time>
      </trkpt>
      <trkpt lat="43.13618" lon="-1.3648">
        <ele>256.366919</ele>
        <time>2022-02-21T17:48:46.904Z</time>
      </trkpt>
      <trkpt lat="43.13613" lon="-1.36486">
        <ele>256.08317</ele>
        <time>2022-02-21T17:48:47.989Z</time>
      </trkpt>
      <trkpt lat="43.13585" lon="-1.36501">
        <ele>254.834418</ele>
        <time>2022-02-21T17:48:52.771Z</time>
      </trkpt>
      <trkpt lat="43.13534" lon="-1.36505">
        <ele>252.762594</ele>
        <time>2022-02-21T17:49:01.330Z</time>
      </trkpt>
      <trkpt lat="43.13494" lon="-1.36493">
        <ele>252.637516</ele>
        <time>2022-02-21T17:49:08.743Z</time>
      </trkpt>
      <trkpt lat="43.13475" lon="-1.36494">
        <ele>252.580757</ele>
        <time>2022-02-21T17:49:12.355Z</time>
      </trkpt>
      <trkpt lat="43.13425" lon="-1.36518">
        <ele>252.421874</ele>
        <time>2022-02-21T17:49:25.337Z</time>
      </trkpt>
      <trkpt lat="43.13283" lon="-1.36654">
        <ele>254.131544</ele>
        <time>2022-02-21T17:50:15.760Z</time>
      </trkpt>
      <trkpt lat="43.13155" lon="-1.36732">
        <ele>256.945579</ele>
        <time>2022-02-21T17:51:03.712Z</time>
      </trkpt>
      <trkpt lat="43.13123" lon="-1.36762">
        <ele>257.806953</ele>
        <time>2022-02-21T17:51:16.864Z</time>
      </trkpt>
      <trkpt lat="43.13111" lon="-1.36779">
        <ele>258.197776</ele>
        <time>2022-02-21T17:51:22.827Z</time>
      </trkpt>
      <trkpt lat="43.13095" lon="-1.36819">
        <ele>258.951444</ele>
        <time>2022-02-21T17:51:34.049Z</time>
      </trkpt>
      <trkpt lat="43.13091" lon="-1.36946">
        <ele>259.927096</ele>
        <time>2022-02-21T17:52:02.925Z</time>
      </trkpt>
      <trkpt lat="43.13079" lon="-1.37025">
        <ele>260.315164</ele>
        <time>2022-02-21T17:52:18.911Z</time>
      </trkpt>
      <trkpt lat="43.13064" lon="-1.37062">
        <ele>260.517</ele>
        <time>2022-02-21T17:52:25.605Z</time>
      </trkpt>
      <trkpt lat="43.13024" lon="-1.37136">
        <ele>259.641805</ele>
        <time>2022-02-21T17:52:38.218Z</time>
      </trkpt>
      <trkpt lat="43.13012" lon="-1.3717">
        <ele>259.062652</ele>
        <time>2022-02-21T17:52:43.041Z</time>
      </trkpt>
      <trkpt lat="43.13009" lon="-1.372">
        <ele>258.595156</ele>
        <time>2022-02-21T17:52:46.930Z</time>
      </trkpt>
      <trkpt lat="43.13013" lon="-1.3726">
        <ele>257.65942</ele>
        <time>2022-02-21T17:52:54.574Z</time>
      </trkpt>
      <trkpt lat="43.13008" lon="-1.37312">
        <ele>256.848309</ele>
        <time>2022-02-21T17:53:01.176Z</time>
      </trkpt>
      <trkpt lat="43.12996" lon="-1.37337">
        <ele>257.568161</ele>
        <time>2022-02-21T17:53:05.100Z</time>
      </trkpt>
      <trkpt lat="43.12969" lon="-1.37362">
        <ele>258.666415</ele>
        <time>2022-02-21T17:53:12.119Z</time>
      </trkpt>
      <trkpt lat="43.12944" lon="-1.37371">
        <ele>259.544179</ele>
        <time>2022-02-21T17:53:20.798Z</time>
      </trkpt>
      <trkpt lat="43.12901" lon="-1.37373">
        <ele>260.98256</ele>
        <time>2022-02-21T17:53:38.599Z</time>
      </trkpt>
      <trkpt lat="43.12863" lon="-1.37365">
        <ele>262.284778</ele>
        <time>2022-02-21T17:54:00.386Z</time>
      </trkpt>
      <trkpt lat="43.1285" lon="-1.37348">
        <ele>262.893429</ele>
        <time>2022-02-21T17:54:13.034Z</time>
      </trkpt>
      <trkpt lat="43.1285" lon="-1.3733">
        <ele>263.945053</ele>
        <time>2022-02-21T17:54:22.275Z</time>
      </trkpt>
      <trkpt lat="43.12849" lon="-1.37326">
        <ele>264.191813</ele>
        <time>2022-02-21T17:54:24.332Z</time>
      </trkpt>
      <trkpt lat="43.12832" lon="-1.37315">
        <ele>265.707911</ele>
        <time>2022-02-21T17:54:38.536Z</time>
      </trkpt>
      <trkpt lat="43.12764" lon="-1.37315">
        <ele>271.168408</ele>
        <time>2022-02-21T17:55:24.645Z</time>
      </trkpt>
      <trkpt lat="43.12711" lon="-1.37321">
        <ele>275.465607</ele>
        <time>2022-02-21T17:55:57.983Z</time>
      </trkpt>
      <trkpt lat="43.12684" lon="-1.37341">
        <ele>277.543893</ele>
        <time>2022-02-21T17:56:16.593Z</time>
      </trkpt>
      <trkpt lat="43.12652" lon="-1.37392">
        <ele>278.247921</ele>
        <time>2022-02-21T17:56:38.473Z</time>
      </trkpt>
      <trkpt lat="43.12642" lon="-1.37448">
        <ele>278.845424</ele>
        <time>2022-02-21T17:56:49.925Z</time>
      </trkpt>
      <trkpt lat="43.12639" lon="-1.37482">
        <ele>279.205851</ele>
        <time>2022-02-21T17:56:55.179Z</time>
      </trkpt>
      <trkpt lat="43.12624" lon="-1.37545">
        <ele>279.892955</ele>
        <time>2022-02-21T17:57:04.009Z</time>
      </trkpt>
      <trkpt lat="43.12626" lon="-1.37568">
        <ele>280.040937</ele>
        <time>2022-02-21T17:57:07.198Z</time>
      </trkpt>
      <trkpt lat="43.12653" lon="-1.37602">
        <ele>280.133092</ele>
        <time>2022-02-21T17:57:13.831Z</time>
      </trkpt>
      <trkpt lat="43.1267" lon="-1.37641">
        <ele>280.215029</ele>
        <time>2022-02-21T17:57:20.480Z</time>
      </trkpt>
      <trkpt lat="43.1268" lon="-1.37754">
        <ele>280.420757</ele>
        <time>2022-02-21T17:57:46.321Z</time>
      </trkpt>
      <trkpt lat="43.12699" lon="-1.3781">
        <ele>280.9326</ele>
        <time>2022-02-21T17:57:58.962Z</time>
      </trkpt>
      <trkpt lat="43.12688" lon="-1.37854">
        <ele>281.518796</ele>
        <time>2022-02-21T17:58:11.044Z</time>
      </trkpt>
      <trkpt lat="43.12669" lon="-1.37897">
        <ele>282.162804</ele>
        <time>2022-02-21T17:58:23.825Z</time>
      </trkpt>
      <trkpt lat="43.1266" lon="-1.37913">
        <ele>282.414265</ele>
        <time>2022-02-21T17:58:28.846Z</time>
      </trkpt>
      <trkpt lat="43.12643" lon="-1.37981">
        <ele>283.330056</ele>
        <time>2022-02-21T17:58:45.357Z</time>
      </trkpt>
      <trkpt lat="43.12543" lon="-1.38083">
        <ele>283.739756</ele>
        <time>2022-02-21T17:59:17.735Z</time>
      </trkpt>
      <trkpt lat="43.12447" lon="-1.38147">
        <ele>283.364949</ele>
        <time>2022-02-21T17:59:39.564Z</time>
      </trkpt>
      <trkpt lat="43.12404" lon="-1.38209">
        <ele>282.548639</ele>
        <time>2022-02-21T17:59:50.161Z</time>
      </trkpt>
      <trkpt lat="43.12372" lon="-1.38296">
        <ele>281.631907</ele>
        <time>2022-02-21T18:00:03.978Z</time>
      </trkpt>
      <trkpt lat="43.12371" lon="-1.38317">
        <ele>281.760623</ele>
        <time>2022-02-21T18:00:07.385Z</time>
      </trkpt>
      <trkpt lat="43.1238" lon="-1.38343">
        <ele>282.792932</ele>
        <time>2022-02-21T18:00:13.202Z</time>
      </trkpt>
      <trkpt lat="43.12382" lon="-1.38349">
        <ele>283.015371</ele>
        <time>2022-02-21T18:00:14.335Z</time>
      </trkpt>
      <trkpt lat="43.12385" lon="-1.38357">
        <ele>283.357633</ele>
        <time>2022-02-21T18:00:16.172Z</time>
      </trkpt>
      <trkpt lat="43.12442" lon="-1.38523">
        <ele>289.958819</ele>
        <time>2022-02-21T18:01:19.578Z</time>
      </trkpt>
      <trkpt lat="43.12447" lon="-1.38581">
        <ele>294.227626</ele>
        <time>2022-02-21T18:01:57.313Z</time>
      </trkpt>
      <trkpt lat="43.12445" lon="-1.38642">
        <ele>299.216111</ele>
        <time>2022-02-21T18:02:36.140Z</time>
      </trkpt>
      <trkpt lat="43.12433" lon="-1.38677">
        <ele>302.35883</ele>
        <time>2022-02-21T18:03:01.041Z</time>
      </trkpt>
      <trkpt lat="43.12403" lon="-1.3872">
        <ele>307.157616</ele>
        <time>2022-02-21T18:03:35.140Z</time>
      </trkpt>
      <trkpt lat="43.12367" lon="-1.388">
        <ele>312.941484</ele>
        <time>2022-02-21T18:04:24.320Z</time>
      </trkpt>
      <trkpt lat="43.12354" lon="-1.38846">
        <ele>315.203316</ele>
        <time>2022-02-21T18:04:47.887Z</time>
      </trkpt>
      <trkpt lat="43.12351" lon="-1.38876">
        <ele>316.634405</ele>
        <time>2022-02-21T18:04:59.884Z</time>
      </trkpt>
      <trkpt lat="43.12353" lon="-1.38966">
        <ele>320.780162</ele>
        <time>2022-02-21T18:05:28.160Z</time>
      </trkpt>
      <trkpt lat="43.12329" lon="-1.39074">
        <ele>322.613079</ele>
        <time>2022-02-21T18:05:55.606Z</time>
      </trkpt>
      <trkpt lat="43.12327" lon="-1.39112">
        <ele>322.929231</ele>
        <time>2022-02-21T18:06:02.891Z</time>
      </trkpt>
      <trkpt lat="43.12356" lon="-1.39205">
        <ele>323.776194</ele>
        <time>2022-02-21T18:06:19.464Z</time>
      </trkpt>
      <trkpt lat="43.12357" lon="-1.39224">
        <ele>323.930719</ele>
        <time>2022-02-21T18:06:22.488Z</time>
      </trkpt>
      <trkpt lat="43.12347" lon="-1.39309">
        <ele>324.512631</ele>
        <time>2022-02-21T18:06:36.401Z</time>
      </trkpt>
      <trkpt lat="43.12352" lon="-1.39411">
        <ele>325.207944</ele>
        <time>2022-02-21T18:06:57.250Z</time>
      </trkpt>
      <trkpt lat="43.12322" lon="-1.3949">
        <ele>325.905576</ele>
        <time>2022-02-21T18:07:18.819Z</time>
      </trkpt>
      <trkpt lat="43.1226" lon="-1.39662">
        <ele>327.745324</ele>
        <time>2022-02-21T18:07:58.049Z</time>
      </trkpt>
      <trkpt lat="43.12257" lon="-1.39695">
        <ele>328.100632</ele>
        <time>2022-02-21T18:08:05.175Z</time>
      </trkpt>
      <trkpt lat="43.12271" lon="-1.39778">
        <ele>329.208574</ele>
        <time>2022-02-21T18:08:21.762Z</time>
      </trkpt>
      <trkpt lat="43.1225" lon="-1.39821">
        <ele>329.881194</ele>
        <time>2022-02-21T18:08:31.398Z</time>
      </trkpt>
      <trkpt lat="43.12189" lon="-1.39887">
        <ele>331.39815</ele>
        <time>2022-02-21T18:08:55.769Z</time>
      </trkpt>
      <trkpt lat="43.12148" lon="-1.39964">
        <ele>334.50083</ele>
        <time>2022-02-21T18:09:33.809Z</time>
      </trkpt>
      <trkpt lat="43.12104" lon="-1.40016">
        <ele>337.079871</ele>
        <time>2022-02-21T18:10:00.515Z</time>
      </trkpt>
      <trkpt lat="43.12073" lon="-1.40039">
        <ele>338.624974</ele>
        <time>2022-02-21T18:10:15.601Z</time>
      </trkpt>
      <trkpt lat="43.1206" lon="-1.40043">
        <ele>339.128886</ele>
        <time>2022-02-21T18:10:20.749Z</time>
      </trkpt>
      <trkpt lat="43.12019" lon="-1.4004">
        <ele>339.399788</ele>
        <time>2022-02-21T18:10:36.494Z</time>
      </trkpt>
      <trkpt lat="43.1198" lon="-1.40056">
        <ele>339.661367</ele>
        <time>2022-02-21T18:10:49.222Z</time>
      </trkpt>
      <trkpt lat="43.11954" lon="-1.40095">
        <ele>339.909254</ele>
        <time>2022-02-21T18:10:58.182Z</time>
      </trkpt>
      <trkpt lat="43.11902" lon="-1.40222">
        <ele>339.238789</ele>
        <time>2022-02-21T18:11:17.656Z</time>
      </trkpt>
      <trkpt lat="43.1189" lon="-1.40247">
        <ele>338.769356</ele>
        <time>2022-02-21T18:11:21.410Z</time>
      </trkpt>
      <trkpt lat="43.11879" lon="-1.40259">
        <ele>338.478047</ele>
        <time>2022-02-21T18:11:23.662Z</time>
      </trkpt>
      <trkpt lat="43.11859" lon="-1.40268">
        <ele>338.009176</ele>
        <time>2022-02-21T18:11:27.354Z</time>
      </trkpt>
      <trkpt lat="43.11846" lon="-1.40267">
        <ele>337.733089</ele>
        <time>2022-02-21T18:11:29.519Z</time>
      </trkpt>
      <trkpt lat="43.11771" lon="-1.40246">
        <ele>336.536424</ele>
        <time>2022-02-21T18:11:43.873Z</time>
      </trkpt>
      <trkpt lat="43.11713" lon="-1.40239">
        <ele>336.908481</ele>
        <time>2022-02-21T18:11:58.960Z</time>
      </trkpt>
      <trkpt lat="43.11712" lon="-1.40239">
        <ele>336.918733</ele>
        <time>2022-02-21T18:11:59.336Z</time>
      </trkpt>
      <trkpt lat="43.11667" lon="-1.40237">
        <ele>337.2076</ele>
        <time>2022-02-21T18:12:12.675Z</time>
      </trkpt>
      <trkpt lat="43.11642" lon="-1.40244">
        <ele>337.369052</ele>
        <time>2022-02-21T18:12:19.014Z</time>
      </trkpt>
      <trkpt lat="43.11586" lon="-1.40272">
        <ele>338.15108</ele>
        <time>2022-02-21T18:12:35.851Z</time>
      </trkpt>
      <trkpt lat="43.11495" lon="-1.40416">
        <ele>341.242443</ele>
        <time>2022-02-21T18:13:23.868Z</time>
      </trkpt>
      <trkpt lat="43.11438" lon="-1.40484">
        <ele>343.34851</ele>
        <time>2022-02-21T18:13:50.943Z</time>
      </trkpt>
      <trkpt lat="43.11358" lon="-1.40544">
        <ele>345.998874</ele>
        <time>2022-02-21T18:14:25.324Z</time>
      </trkpt>
      <trkpt lat="43.1134" lon="-1.40564">
        <ele>346.684457</ele>
        <time>2022-02-21T18:14:34.512Z</time>
      </trkpt>
      <trkpt lat="43.1133" lon="-1.40608">
        <ele>347.489428</ele>
        <time>2022-02-21T18:14:46.913Z</time>
      </trkpt>
      <trkpt lat="43.11339" lon="-1.407">
        <ele>349.036712</ele>
        <time>2022-02-21T18:15:09.940Z</time>
      </trkpt>
      <trkpt lat="43.11338" lon="-1.40748">
        <ele>349.830753</ele>
        <time>2022-02-21T18:15:21.322Z</time>
      </trkpt>
      <trkpt lat="43.11328" lon="-1.40796">
        <ele>350.668799</ele>
        <time>2022-02-21T18:15:32.746Z</time>
      </trkpt>
      <trkpt lat="43.11313" lon="-1.40836">
        <ele>351.421423</ele>
        <time>2022-02-21T18:15:42.453Z</time>
      </trkpt>
      <trkpt lat="43.11298" lon="-1.40857">
        <ele>351.912933</ele>
        <time>2022-02-21T18:15:48.798Z</time>
      </trkpt>
      <trkpt lat="43.11238" lon="-1.40935">
        <ele>353.807723</ele>
        <time>2022-02-21T18:16:16.248Z</time>
      </trkpt>
      <trkpt lat="43.11217" lon="-1.40952">
        <ele>354.371872</ele>
        <time>2022-02-21T18:16:24.568Z</time>
      </trkpt>
      <trkpt lat="43.1114" lon="-1.40976">
        <ele>356.565475</ele>
        <time>2022-02-21T18:16:55.177Z</time>
      </trkpt>
      <trkpt lat="43.111" lon="-1.40977">
        <ele>357.789041</ele>
        <time>2022-02-21T18:17:11.425Z</time>
      </trkpt>
      <trkpt lat="43.11084" lon="-1.40985">
        <ele>358.315287</ele>
        <time>2022-02-21T18:17:18.257Z</time>
      </trkpt>
      <trkpt lat="43.1107" lon="-1.41006">
        <ele>358.950032</ele>
        <time>2022-02-21T18:17:26.608Z</time>
      </trkpt>
      <trkpt lat="43.11033" lon="-1.41123">
        <ele>360.902971</ele>
        <time>2022-02-21T18:17:59.110Z</time>
      </trkpt>
      <trkpt lat="43.11006" lon="-1.41183">
        <ele>361.294567</ele>
        <time>2022-02-21T18:18:13.740Z</time>
      </trkpt>
      <trkpt lat="43.10946" lon="-1.41266">
        <ele>361.946854</ele>
        <time>2022-02-21T18:18:31.910Z</time>
      </trkpt>
      <trkpt lat="43.10916" lon="-1.41298">
        <ele>361.829008</ele>
        <time>2022-02-21T18:18:39.529Z</time>
      </trkpt>
      <trkpt lat="43.10828" lon="-1.41336">
        <ele>361.427394</ele>
        <time>2022-02-21T18:18:59.128Z</time>
      </trkpt>
      <trkpt lat="43.10816" lon="-1.41341">
        <ele>361.37299</ele>
        <time>2022-02-21T18:19:01.956Z</time>
      </trkpt>
      <trkpt lat="43.10727" lon="-1.41368">
        <ele>361.218781</ele>
        <time>2022-02-21T18:19:21.133Z</time>
      </trkpt>
      <trkpt lat="43.10703" lon="-1.41391">
        <ele>361.231619</ele>
        <time>2022-02-21T18:19:27.003Z</time>
      </trkpt>
      <trkpt lat="43.10696" lon="-1.41415">
        <ele>361.240092</ele>
        <time>2022-02-21T18:19:31.769Z</time>
      </trkpt>
      <trkpt lat="43.10693" lon="-1.41501">
        <ele>361.268164</ele>
        <time>2022-02-21T18:19:46.318Z</time>
      </trkpt>
      <trkpt lat="43.1068" lon="-1.41552">
        <ele>361.760163</ele>
        <time>2022-02-21T18:19:56.916Z</time>
      </trkpt>
      <trkpt lat="43.10663" lon="-1.41578">
        <ele>362.372146</ele>
        <time>2022-02-21T18:20:03.223Z</time>
      </trkpt>
      <trkpt lat="43.10636" lon="-1.41605">
        <ele>363.162982</ele>
        <time>2022-02-21T18:20:12.816Z</time>
      </trkpt>
      <trkpt lat="43.10606" lon="-1.41623">
        <ele>363.939271</ele>
        <time>2022-02-21T18:20:25.100Z</time>
      </trkpt>
      <trkpt lat="43.10553" lon="-1.41635">
        <ele>365.211635</ele>
        <time>2022-02-21T18:20:48.187Z</time>
      </trkpt>
      <trkpt lat="43.10535" lon="-1.41647">
        <ele>365.653484</ele>
        <time>2022-02-21T18:20:55.560Z</time>
      </trkpt>
      <trkpt lat="43.10504" lon="-1.41692">
        <ele>366.514606</ele>
        <time>2022-02-21T18:21:14.338Z</time>
      </trkpt>
      <trkpt lat="43.1049" lon="-1.41741">
        <ele>367.226864</ele>
        <time>2022-02-21T18:21:29.512Z</time>
      </trkpt>
      <trkpt lat="43.10488" lon="-1.41815">
        <ele>368.241872</ele>
        <time>2022-02-21T18:21:44.692Z</time>
      </trkpt>
      <trkpt lat="43.10477" lon="-1.41853">
        <ele>368.813219</ele>
        <time>2022-02-21T18:21:51.516Z</time>
      </trkpt>
      <trkpt lat="43.10455" lon="-1.41884">
        <ele>368.442231</ele>
        <time>2022-02-21T18:21:57.813Z</time>
      </trkpt>
      <trkpt lat="43.10428" lon="-1.4191">
        <ele>367.790351</ele>
        <time>2022-02-21T18:22:03.901Z</time>
      </trkpt>
      <trkpt lat="43.10374" lon="-1.41949">
        <ele>366.616137</ele>
        <time>2022-02-21T18:22:13.664Z</time>
      </trkpt>
      <trkpt lat="43.10315" lon="-1.41975">
        <ele>365.48331</ele>
        <time>2022-02-21T18:22:25.475Z</time>
      </trkpt>
      <trkpt lat="43.103" lon="-1.41987">
        <ele>366.138569</ele>
        <time>2022-02-21T18:22:29.727Z</time>
      </trkpt>
      <trkpt lat="43.10286" lon="-1.42014">
        <ele>367.04161</ele>
        <time>2022-02-21T18:22:35.767Z</time>
      </trkpt>
      <trkpt lat="43.10285" lon="-1.42042">
        <ele>367.825525</ele>
        <time>2022-02-21T18:22:42.495Z</time>
      </trkpt>
      <trkpt lat="43.10286" lon="-1.42047">
        <ele>367.955199</ele>
        <time>2022-02-21T18:22:43.769Z</time>
      </trkpt>
      <trkpt lat="43.10295" lon="-1.42085">
        <ele>369.055538</ele>
        <time>2022-02-21T18:22:55.600Z</time>
      </trkpt>
      <trkpt lat="43.10299" lon="-1.42104">
        <ele>369.595432</ele>
        <time>2022-02-21T18:23:01.885Z</time>
      </trkpt>
      <trkpt lat="43.10301" lon="-1.42111">
        <ele>369.795246</ele>
        <time>2022-02-21T18:23:04.181Z</time>
      </trkpt>
      <trkpt lat="43.10308" lon="-1.42127">
        <ele>370.318925</ele>
        <time>2022-02-21T18:23:11.703Z</time>
      </trkpt>
      <trkpt lat="43.10339" lon="-1.42166">
        <ele>371.889603</ele>
        <time>2022-02-21T18:23:33.711Z</time>
      </trkpt>
      <trkpt lat="43.10421" lon="-1.42243">
        <ele>380.544933</ele>
        <time>2022-02-21T18:24:41.580Z</time>
      </trkpt>
      <trkpt lat="43.10444" lon="-1.42283">
        <ele>383.980188</ele>
        <time>2022-02-21T18:25:07.984Z</time>
      </trkpt>
      <trkpt lat="43.10449" lon="-1.42299">
        <ele>385.174182</ele>
        <time>2022-02-21T18:25:16.781Z</time>
      </trkpt>
      <trkpt lat="43.1045" lon="-1.42322">
        <ele>386.712294</ele>
        <time>2022-02-21T18:25:29.195Z</time>
      </trkpt>
      <trkpt lat="43.10441" lon="-1.42375">
        <ele>390.187711</ele>
        <time>2022-02-21T18:25:57.974Z</time>
      </trkpt>
      <trkpt lat="43.10419" lon="-1.42434">
        <ele>394.06054</ele>
        <time>2022-02-21T18:26:32.934Z</time>
      </trkpt>
      <trkpt lat="43.10345" lon="-1.42547">
        <ele>403.097904</ele>
        <time>2022-02-21T18:27:41.453Z</time>
      </trkpt>
      <trkpt lat="43.10311" lon="-1.42586">
        <ele>403.718284</ele>
        <time>2022-02-21T18:28:02.034Z</time>
      </trkpt>
      <trkpt lat="43.10215" lon="-1.42667">
        <ele>404.751752</ele>
        <time>2022-02-21T18:28:31.706Z</time>
      </trkpt>
      <trkpt lat="43.1013" lon="-1.42708">
        <ele>400.492557</ele>
        <time>2022-02-21T18:28:45.763Z</time>
      </trkpt>
      <trkpt lat="43.10059" lon="-1.42767">
        <ele>394.701015</ele>
        <time>2022-02-21T18:28:57.883Z</time>
      </trkpt>
      <trkpt lat="43.10007" lon="-1.42796">
        <ele>391.307703</ele>
        <time>2022-02-21T18:29:05.930Z</time>
      </trkpt>
      <trkpt lat="43.09975" lon="-1.42805">
        <ele>389.685263</ele>
        <time>2022-02-21T18:29:10.918Z</time>
      </trkpt>
      <trkpt lat="43.09955" lon="-1.428">
        <ele>388.715196</ele>
        <time>2022-02-21T18:29:13.952Z</time>
      </trkpt>
      <trkpt lat="43.09861" lon="-1.42745">
        <ele>383.68419</ele>
        <time>2022-02-21T18:29:30.976Z</time>
      </trkpt>
      <trkpt lat="43.09845" lon="-1.42728">
        <ele>383.785825</ele>
        <time>2022-02-21T18:29:35.511Z</time>
      </trkpt>
      <trkpt lat="43.09822" lon="-1.42688">
        <ele>384.03247</ele>
        <time>2022-02-21T18:29:45.130Z</time>
      </trkpt>
      <trkpt lat="43.098" lon="-1.42673">
        <ele>384.199098</ele>
        <time>2022-02-21T18:29:52.097Z</time>
      </trkpt>
      <trkpt lat="43.09791" lon="-1.42668">
        <ele>384.264164</ele>
        <time>2022-02-21T18:29:54.961Z</time>
      </trkpt>
      <trkpt lat="43.09761" lon="-1.42652">
        <ele>384.474457</ele>
        <time>2022-02-21T18:30:04.475Z</time>
      </trkpt>
      <trkpt lat="43.09578" lon="-1.42576">
        <ele>387.615372</ele>
        <time>2022-02-21T18:31:03.003Z</time>
      </trkpt>
      <trkpt lat="43.09486" lon="-1.42521">
        <ele>389.6245</ele>
        <time>2022-02-21T18:31:41.103Z</time>
      </trkpt>
      <trkpt lat="43.09439" lon="-1.42502">
        <ele>390.583319</ele>
        <time>2022-02-21T18:31:57.407Z</time>
      </trkpt>
      <trkpt lat="43.09416" lon="-1.42494">
        <ele>391.038249</ele>
        <time>2022-02-21T18:32:04.794Z</time>
      </trkpt>
      <trkpt lat="43.09378" lon="-1.42482">
        <ele>391.803572</ele>
        <time>2022-02-21T18:32:16.729Z</time>
      </trkpt>
      <trkpt lat="43.09347" lon="-1.42479">
        <ele>391.905456</ele>
        <time>2022-02-21T18:32:24.125Z</time>
      </trkpt>
      <trkpt lat="43.09262" lon="-1.42502">
        <ele>391.200815</ele>
        <time>2022-02-21T18:32:41.873Z</time>
      </trkpt>
      <trkpt lat="43.09214" lon="-1.42483">
        <ele>390.791551</ele>
        <time>2022-02-21T18:32:50.773Z</time>
      </trkpt>
      <trkpt lat="43.09045" lon="-1.42465">
        <ele>389.266386</ele>
        <time>2022-02-21T18:33:25.020Z</time>
      </trkpt>
      <trkpt lat="43.08968" lon="-1.4244">
        <ele>389.077318</ele>
        <time>2022-02-21T18:33:41.004Z</time>
      </trkpt>
      <trkpt lat="43.08946" lon="-1.4244">
        <ele>389.150186</ele>
        <time>2022-02-21T18:33:45.634Z</time>
      </trkpt>
      <trkpt lat="43.08891" lon="-1.42439">
        <ele>389.326408</ele>
        <time>2022-02-21T18:33:57.506Z</time>
      </trkpt>
      <trkpt lat="43.08769" lon="-1.42407">
        <ele>391.17842</ele>
        <time>2022-02-21T18:34:37.234Z</time>
      </trkpt>
      <trkpt lat="43.08633" lon="-1.42375">
        <ele>394.131182</ele>
        <time>2022-02-21T18:35:29.824Z</time>
      </trkpt>
      <trkpt lat="43.08576" lon="-1.42365">
        <ele>394.229398</ele>
        <time>2022-02-21T18:35:45.452Z</time>
      </trkpt>
      <trkpt lat="43.08516" lon="-1.42364">
        <ele>394.331242</ele>
        <time>2022-02-21T18:35:57.661Z</time>
      </trkpt>
      <trkpt lat="43.08458" lon="-1.4235">
        <ele>394.402287</ele>
        <time>2022-02-21T18:36:08.465Z</time>
      </trkpt>
      <trkpt lat="43.08418" lon="-1.4234">
        <ele>394.411063</ele>
        <time>2022-02-21T18:36:15.901Z</time>
      </trkpt>
      <trkpt lat="43.08378" lon="-1.42312">
        <ele>394.420801</ele>
        <time>2022-02-21T18:36:24.793Z</time>
      </trkpt>
      <trkpt lat="43.08358" lon="-1.42305">
        <ele>394.425316</ele>
        <time>2022-02-21T18:36:29.292Z</time>
      </trkpt>
      <trkpt lat="43.08262" lon="-1.42299">
        <ele>396.344804</ele>
        <time>2022-02-21T18:37:03.635Z</time>
      </trkpt>
      <trkpt lat="43.0821" lon="-1.42261">
        <ele>398.978161</ele>
        <time>2022-02-21T18:37:32.012Z</time>
      </trkpt>
      <trkpt lat="43.08094" lon="-1.42222">
        <ele>404.310339</ele>
        <time>2022-02-21T18:38:30.323Z</time>
      </trkpt>
      <trkpt lat="43.07953" lon="-1.42225">
        <ele>410.568704</ele>
        <time>2022-02-21T18:39:33.461Z</time>
      </trkpt>
      <trkpt lat="43.07885" lon="-1.42184">
        <ele>411.898416</ele>
        <time>2022-02-21T18:39:58.575Z</time>
      </trkpt>
      <trkpt lat="43.07808" lon="-1.42174">
        <ele>413.27683</ele>
        <time>2022-02-21T18:40:23.174Z</time>
      </trkpt>
      <trkpt lat="43.07711" lon="-1.42115">
        <ele>413.11623</ele>
        <time>2022-02-21T18:40:44.768Z</time>
      </trkpt>
      <trkpt lat="43.07664" lon="-1.42075">
        <ele>412.668344</ele>
        <time>2022-02-21T18:40:55.423Z</time>
      </trkpt>
      <trkpt lat="43.0764" lon="-1.42064">
        <ele>412.456994</ele>
        <time>2022-02-21T18:41:00.128Z</time>
      </trkpt>
      <trkpt lat="43.07596" lon="-1.42058">
        <ele>412.624941</ele>
        <time>2022-02-21T18:41:09.060Z</time>
      </trkpt>
      <trkpt lat="43.07581" lon="-1.42048">
        <ele>412.859026</ele>
        <time>2022-02-21T18:41:12.489Z</time>
      </trkpt>
      <trkpt lat="43.07526" lon="-1.41985">
        <ele>413.845124</ele>
        <time>2022-02-21T18:41:31.268Z</time>
      </trkpt>
      <trkpt lat="43.07512" lon="-1.41969">
        <ele>414.09882</ele>
        <time>2022-02-21T18:41:36.558Z</time>
      </trkpt>
      <trkpt lat="43.07486" lon="-1.41915">
        <ele>414.748701</ele>
        <time>2022-02-21T18:41:55.543Z</time>
      </trkpt>
      <trkpt lat="43.07485" lon="-1.41908">
        <ele>414.937551</ele>
        <time>2022-02-21T18:41:57.504Z</time>
      </trkpt>
      <trkpt lat="43.07471" lon="-1.41876">
        <ele>416.333393</ele>
        <time>2022-02-21T18:42:10.037Z</time>
      </trkpt>
      <trkpt lat="43.07411" lon="-1.4182">
        <ele>420.019826</ele>
        <time>2022-02-21T18:42:46.937Z</time>
      </trkpt>
      <trkpt lat="43.07357" lon="-1.41807">
        <ele>422.834004</ele>
        <time>2022-02-21T18:43:18.655Z</time>
      </trkpt>
      <trkpt lat="43.07323" lon="-1.41792">
        <ele>424.120777</ele>
        <time>2022-02-21T18:43:34.209Z</time>
      </trkpt>
      <trkpt lat="43.07238" lon="-1.41734">
        <ele>425.303305</ele>
        <time>2022-02-21T18:44:03.646Z</time>
      </trkpt>
      <trkpt lat="43.07229" lon="-1.41731">
        <ele>425.411448</ele>
        <time>2022-02-21T18:44:06.223Z</time>
      </trkpt>
      <trkpt lat="43.07175" lon="-1.41751">
        <ele>426.110484</ele>
        <time>2022-02-21T18:44:17.834Z</time>
      </trkpt>
      <trkpt lat="43.07152" lon="-1.4175">
        <ele>425.818476</ele>
        <time>2022-02-21T18:44:22.243Z</time>
      </trkpt>
      <trkpt lat="43.07143" lon="-1.41748">
        <ele>425.615719</ele>
        <time>2022-02-21T18:44:23.895Z</time>
      </trkpt>
      <trkpt lat="43.07103" lon="-1.41706">
        <ele>424.526893</ele>
        <time>2022-02-21T18:44:32.526Z</time>
      </trkpt>
      <trkpt lat="43.07088" lon="-1.41692">
        <ele>424.137692</ele>
        <time>2022-02-21T18:44:35.481Z</time>
      </trkpt>
      <trkpt lat="43.0708" lon="-1.41688">
        <ele>423.960487</ele>
        <time>2022-02-21T18:44:36.771Z</time>
      </trkpt>
      <trkpt lat="43.07039" lon="-1.41668">
        <ele>423.015993</ele>
        <time>2022-02-21T18:44:44.562Z</time>
      </trkpt>
      <trkpt lat="43.06998" lon="-1.41666">
        <ele>422.286839</ele>
        <time>2022-02-21T18:44:52.892Z</time>
      </trkpt>
      <trkpt lat="43.0697" lon="-1.41627">
        <ele>422.192069</ele>
        <time>2022-02-21T18:45:01.332Z</time>
      </trkpt>
      <trkpt lat="43.06951" lon="-1.41623">
        <ele>422.147427</ele>
        <time>2022-02-21T18:45:05.344Z</time>
      </trkpt>
      <trkpt lat="43.06922" lon="-1.41598">
        <ele>422.066773</ele>
        <time>2022-02-21T18:45:12.821Z</time>
      </trkpt>
      <trkpt lat="43.06879" lon="-1.41541">
        <ele>421.925955</ele>
        <time>2022-02-21T18:45:27.239Z</time>
      </trkpt>
      <trkpt lat="43.06864" lon="-1.41523">
        <ele>421.883551</ele>
        <time>2022-02-21T18:45:32.300Z</time>
      </trkpt>
      <trkpt lat="43.06828" lon="-1.41494">
        <ele>422.296532</ele>
        <time>2022-02-21T18:45:43.131Z</time>
      </trkpt>
      <trkpt lat="43.06786" lon="-1.41396">
        <ele>423.113154</ele>
        <time>2022-02-21T18:46:06.395Z</time>
      </trkpt>
      <trkpt lat="43.06754" lon="-1.41356">
        <ele>423.543738</ele>
        <time>2022-02-21T18:46:19.158Z</time>
      </trkpt>
      <trkpt lat="43.06717" lon="-1.41304">
        <ele>424.206942</ele>
        <time>2022-02-21T18:46:35.845Z</time>
      </trkpt>
      <trkpt lat="43.06654" lon="-1.41239">
        <ele>425.26878</ele>
        <time>2022-02-21T18:46:58.744Z</time>
      </trkpt>
      <trkpt lat="43.06621" lon="-1.41197">
        <ele>425.8658</ele>
        <time>2022-02-21T18:47:12.510Z</time>
      </trkpt>
      <trkpt lat="43.06602" lon="-1.41163">
        <ele>426.337668</ele>
        <time>2022-02-21T18:47:21.682Z</time>
      </trkpt>
      <trkpt lat="43.06557" lon="-1.4114">
        <ele>427.123357</ele>
        <time>2022-02-21T18:47:36.673Z</time>
      </trkpt>
      <trkpt lat="43.06544" lon="-1.41127">
        <ele>427.386695</ele>
        <time>2022-02-21T18:47:40.463Z</time>
      </trkpt>
      <trkpt lat="43.0654" lon="-1.4112">
        <ele>427.489063</ele>
        <time>2022-02-21T18:47:42.134Z</time>
      </trkpt>
      <trkpt lat="43.06534" lon="-1.41095">
        <ele>427.808471</ele>
        <time>2022-02-21T18:47:48.557Z</time>
      </trkpt>
      <trkpt lat="43.0651" lon="-1.41065">
        <ele>428.350571</ele>
        <time>2022-02-21T18:47:58.130Z</time>
      </trkpt>
      <trkpt lat="43.06491" lon="-1.41013">
        <ele>429.110442</ele>
        <time>2022-02-21T18:48:10.672Z</time>
      </trkpt>
      <trkpt lat="43.06412" lon="-1.40932">
        <ele>434.313826</ele>
        <time>2022-02-21T18:48:54.059Z</time>
      </trkpt>
      <trkpt lat="43.06384" lon="-1.40844">
        <ele>437.996166</ele>
        <time>2022-02-21T18:49:33.282Z</time>
      </trkpt>
      <trkpt lat="43.0636" lon="-1.40789">
        <ele>442.899186</ele>
        <time>2022-02-21T18:50:04.135Z</time>
      </trkpt>
      <trkpt lat="43.06332" lon="-1.40773">
        <ele>446.477966</ele>
        <time>2022-02-21T18:50:28.103Z</time>
      </trkpt>
      <trkpt lat="43.06368" lon="-1.40722">
        <ele>452.572633</ele>
        <time>2022-02-21T18:51:13.192Z</time>
      </trkpt>
      <trkpt lat="43.06375" lon="-1.40667">
        <ele>457.348357</ele>
        <time>2022-02-21T18:51:52.218Z</time>
      </trkpt>
      <trkpt lat="43.06392" lon="-1.40633">
        <ele>461.056224</ele>
        <time>2022-02-21T18:52:21.990Z</time>
      </trkpt>
      <trkpt lat="43.06439" lon="-1.40564">
        <ele>469.851279</ele>
        <time>2022-02-21T18:53:21.853Z</time>
      </trkpt>
      <trkpt lat="43.06457" lon="-1.40494">
        <ele>476.821239</ele>
        <time>2022-02-21T18:54:13.085Z</time>
      </trkpt>
      <trkpt lat="43.06469" lon="-1.40426">
        <ele>483.283801</ele>
        <time>2022-02-21T18:54:58.601Z</time>
      </trkpt>
      <trkpt lat="43.06451" lon="-1.40363">
        <ele>488.792885</ele>
        <time>2022-02-21T18:55:41.665Z</time>
      </trkpt>
      <trkpt lat="43.06429" lon="-1.40244">
        <ele>498.847968</ele>
        <time>2022-02-21T18:56:53.542Z</time>
      </trkpt>
      <trkpt lat="43.06426" lon="-1.40178">
        <ele>504.689044</ele>
        <time>2022-02-21T18:57:36.705Z</time>
      </trkpt>
      <trkpt lat="43.06438" lon="-1.40116">
        <ele>511.767878</ele>
        <time>2022-02-21T18:58:19.801Z</time>
      </trkpt>
      <trkpt lat="43.06436" lon="-1.40094">
        <ele>514.183764</ele>
        <time>2022-02-21T18:58:35.498Z</time>
      </trkpt>
      <trkpt lat="43.06405" lon="-1.40007">
        <ele>524.777078</ele>
        <time>2022-02-21T19:00:00.466Z</time>
      </trkpt>
      <trkpt lat="43.06396" lon="-1.39959">
        <ele>530.083187</ele>
        <time>2022-02-21T19:00:40.158Z</time>
      </trkpt>
      <trkpt lat="43.06379" lon="-1.39922">
        <ele>533.714149</ele>
        <time>2022-02-21T19:01:12.674Z</time>
      </trkpt>
      <trkpt lat="43.06362" lon="-1.39905">
        <ele>536.081949</ele>
        <time>2022-02-21T19:01:35.108Z</time>
      </trkpt>
      <trkpt lat="43.0635" lon="-1.39869">
        <ele>539.296753</ele>
        <time>2022-02-21T19:02:01.015Z</time>
      </trkpt>
      <trkpt lat="43.06338" lon="-1.39781">
        <ele>546.720804</ele>
        <time>2022-02-21T19:02:49.679Z</time>
      </trkpt>
      <trkpt lat="43.06341" lon="-1.39759">
        <ele>548.577351</ele>
        <time>2022-02-21T19:03:00.388Z</time>
      </trkpt>
      <trkpt lat="43.06364" lon="-1.39699">
        <ele>549.726739</ele>
        <time>2022-02-21T19:03:25.875Z</time>
      </trkpt>
      <trkpt lat="43.06372" lon="-1.39663">
        <ele>549.364901</ele>
        <time>2022-02-21T19:03:32.403Z</time>
      </trkpt>
      <trkpt lat="43.06374" lon="-1.39606">
        <ele>548.833851</ele>
        <time>2022-02-21T19:03:40.352Z</time>
      </trkpt>
      <trkpt lat="43.06366" lon="-1.39566">
        <ele>548.436386</ele>
        <time>2022-02-21T19:03:45.856Z</time>
      </trkpt>
      <trkpt lat="43.06368" lon="-1.39507">
        <ele>547.882785</ele>
        <time>2022-02-21T19:03:52.553Z</time>
      </trkpt>
      <trkpt lat="43.06358" lon="-1.3946">
        <ele>545.440722</ele>
        <time>2022-02-21T19:03:58.086Z</time>
      </trkpt>
      <trkpt lat="43.06331" lon="-1.39396">
        <ele>541.611305</ele>
        <time>2022-02-21T19:04:06.456Z</time>
      </trkpt>
      <trkpt lat="43.06302" lon="-1.39352">
        <ele>538.513376</ele>
        <time>2022-02-21T19:04:13.122Z</time>
      </trkpt>
      <trkpt lat="43.06272" lon="-1.39333">
        <ele>536.175442</ele>
        <time>2022-02-21T19:04:18.407Z</time>
      </trkpt>
      <trkpt lat="43.06211" lon="-1.39275">
        <ele>534.646928</ele>
        <time>2022-02-21T19:04:30.179Z</time>
      </trkpt>
      <trkpt lat="43.06217" lon="-1.39263">
        <ele>534.577978</ele>
        <time>2022-02-21T19:04:31.808Z</time>
      </trkpt>
      <trkpt lat="43.06272" lon="-1.39218">
        <ele>534.152598</ele>
        <time>2022-02-21T19:04:46.134Z</time>
      </trkpt>
      <trkpt lat="43.06301" lon="-1.39168">
        <ele>533.843062</ele>
        <time>2022-02-21T19:05:06.315Z</time>
      </trkpt>
      <trkpt lat="43.06328" lon="-1.39132">
        <ele>538.327216</ele>
        <time>2022-02-21T19:05:34.268Z</time>
      </trkpt>
      <trkpt lat="43.06346" lon="-1.39088">
        <ele>542.82126</ele>
        <time>2022-02-21T19:06:03.597Z</time>
      </trkpt>
      <trkpt lat="43.06387" lon="-1.39029">
        <ele>550.034369</ele>
        <time>2022-02-21T19:06:55.264Z</time>
      </trkpt>
      <trkpt lat="43.06384" lon="-1.38989">
        <ele>553.655474</ele>
        <time>2022-02-21T19:07:23.666Z</time>
      </trkpt>
      <trkpt lat="43.06377" lon="-1.38982">
        <ele>554.679197</ele>
        <time>2022-02-21T19:07:35.321Z</time>
      </trkpt>
      <trkpt lat="43.06368" lon="-1.38982">
        <ele>555.876084</ele>
        <time>2022-02-21T19:07:45.115Z</time>
      </trkpt>
      <trkpt lat="43.06346" lon="-1.38996">
        <ele>559.176412</ele>
        <time>2022-02-21T19:08:12.783Z</time>
      </trkpt>
      <trkpt lat="43.06274" lon="-1.39003">
        <ele>569.10668</ele>
        <time>2022-02-21T19:09:27.733Z</time>
      </trkpt>
      <trkpt lat="43.06223" lon="-1.39017">
        <ele>576.23049</ele>
        <time>2022-02-21T19:10:16.726Z</time>
      </trkpt>
      <trkpt lat="43.06208" lon="-1.39016">
        <ele>578.265433</ele>
        <time>2022-02-21T19:10:25.246Z</time>
      </trkpt>
      <trkpt lat="43.06173" lon="-1.38997">
        <ele>581.735503</ele>
        <time>2022-02-21T19:10:47.841Z</time>
      </trkpt>
      <trkpt lat="43.06121" lon="-1.39014">
        <ele>585.008595</ele>
        <time>2022-02-21T19:11:17.276Z</time>
      </trkpt>
      <trkpt lat="43.06117" lon="-1.39006">
        <ele>585.446913</ele>
        <time>2022-02-21T19:11:20.452Z</time>
      </trkpt>
      <trkpt lat="43.06127" lon="-1.3899">
        <ele>586.381419</ele>
        <time>2022-02-21T19:11:27.640Z</time>
      </trkpt>
      <trkpt lat="43.06165" lon="-1.38959">
        <ele>589.032966</ele>
        <time>2022-02-21T19:11:45.700Z</time>
      </trkpt>
      <trkpt lat="43.06216" lon="-1.38962">
        <ele>592.943174</ele>
        <time>2022-02-21T19:12:08.774Z</time>
      </trkpt>
      <trkpt lat="43.06219" lon="-1.38951">
        <ele>594.017437</ele>
        <time>2022-02-21T19:12:13.697Z</time>
      </trkpt>
      <trkpt lat="43.06216" lon="-1.38947">
        <ele>594.532882</ele>
        <time>2022-02-21T19:12:16.940Z</time>
      </trkpt>
      <trkpt lat="43.06188" lon="-1.38939">
        <ele>597.896037</ele>
        <time>2022-02-21T19:12:35.822Z</time>
      </trkpt>
      <trkpt lat="43.06149" lon="-1.38914">
        <ele>603.150698</ele>
        <time>2022-02-21T19:13:14.424Z</time>
      </trkpt>
      <trkpt lat="43.06105" lon="-1.38941">
        <ele>608.896557</ele>
        <time>2022-02-21T19:14:02.180Z</time>
      </trkpt>
      <trkpt lat="43.05998" lon="-1.38939">
        <ele>623.071411</ele>
        <time>2022-02-21T19:15:52.282Z</time>
      </trkpt>
      <trkpt lat="43.05969" lon="-1.38924">
        <ele>627.329434</ele>
        <time>2022-02-21T19:16:21.218Z</time>
      </trkpt>
      <trkpt lat="43.05933" lon="-1.38877">
        <ele>634.182435</ele>
        <time>2022-02-21T19:17:05.614Z</time>
      </trkpt>
      <trkpt lat="43.0591" lon="-1.38832">
        <ele>639.696027</ele>
        <time>2022-02-21T19:17:36.048Z</time>
      </trkpt>
      <trkpt lat="43.05917" lon="-1.38823">
        <ele>640.915009</ele>
        <time>2022-02-21T19:17:43.140Z</time>
      </trkpt>
      <trkpt lat="43.05946" lon="-1.38849">
        <ele>645.575031</ele>
        <time>2022-02-21T19:18:07.792Z</time>
      </trkpt>
      <trkpt lat="43.05964" lon="-1.38851">
        <ele>647.945377</ele>
        <time>2022-02-21T19:18:21.204Z</time>
      </trkpt>
      <trkpt lat="43.05971" lon="-1.38843">
        <ele>649.134214</ele>
        <time>2022-02-21T19:18:27.793Z</time>
      </trkpt>
      <trkpt lat="43.05953" lon="-1.38824">
        <ele>652.179437</ele>
        <time>2022-02-21T19:18:48.208Z</time>
      </trkpt>
      <trkpt lat="43.05921" lon="-1.38768">
        <ele>659.047142</ele>
        <time>2022-02-21T19:19:38.275Z</time>
      </trkpt>
      <trkpt lat="43.05886" lon="-1.3863">
        <ele>678.410996</ele>
        <time>2022-02-21T19:21:44.678Z</time>
      </trkpt>
      <trkpt lat="43.05878" lon="-1.38609">
        <ele>681.680176</ele>
        <time>2022-02-21T19:22:06.481Z</time>
      </trkpt>
      <trkpt lat="43.05842" lon="-1.38547">
        <ele>692.829177</ele>
        <time>2022-02-21T19:23:22.996Z</time>
      </trkpt>
      <trkpt lat="43.05647" lon="-1.38399">
        <ele>732.708536</ele>
        <time>2022-02-21T19:27:31.674Z</time>
      </trkpt>
      <trkpt lat="43.05579" lon="-1.3834">
        <ele>746.392958</ele>
        <time>2022-02-21T19:28:55.598Z</time>
      </trkpt>
      <trkpt lat="43.05546" lon="-1.38282">
        <ele>755.620822</ele>
        <time>2022-02-21T19:29:54.699Z</time>
      </trkpt>
      <trkpt lat="43.05544" lon="-1.3826">
        <ele>758.392992</ele>
        <time>2022-02-21T19:30:13.376Z</time>
      </trkpt>
      <trkpt lat="43.0556" lon="-1.3824">
        <ele>762.160461</ele>
        <time>2022-02-21T19:30:39.043Z</time>
      </trkpt>
      <trkpt lat="43.05687" lon="-1.38242">
        <ele>784.333419</ele>
        <time>2022-02-21T19:32:57.723Z</time>
      </trkpt>
      <trkpt lat="43.05694" lon="-1.38226">
        <ele>786.763587</ele>
        <time>2022-02-21T19:33:12.554Z</time>
      </trkpt>
      <trkpt lat="43.05694" lon="-1.38212">
        <ele>788.440605</ele>
        <time>2022-02-21T19:33:23.862Z</time>
      </trkpt>
      <trkpt lat="43.05661" lon="-1.38093">
        <ele>804.934091</ele>
        <time>2022-02-21T19:35:08.978Z</time>
      </trkpt>
      <trkpt lat="43.05664" lon="-1.38082">
        <ele>806.460575</ele>
        <time>2022-02-21T19:35:20.887Z</time>
      </trkpt>
      <trkpt lat="43.05682" lon="-1.38063">
        <ele>810.406072</ele>
        <time>2022-02-21T19:35:42.851Z</time>
      </trkpt>
      <trkpt lat="43.05721" lon="-1.38048">
        <ele>817.523419</ele>
        <time>2022-02-21T19:36:23.972Z</time>
      </trkpt>
      <trkpt lat="43.05727" lon="-1.38031">
        <ele>819.961514</ele>
        <time>2022-02-21T19:36:42.975Z</time>
      </trkpt>
      <trkpt lat="43.05688" lon="-1.37998">
        <ele>827.806416</ele>
        <time>2022-02-21T19:37:29.315Z</time>
      </trkpt>
      <trkpt lat="43.0567" lon="-1.37967">
        <ele>832.835772</ele>
        <time>2022-02-21T19:38:04.857Z</time>
      </trkpt>
      <trkpt lat="43.05638" lon="-1.37891">
        <ele>843.623221</ele>
        <time>2022-02-21T19:39:20.781Z</time>
      </trkpt>
      <trkpt lat="43.05564" lon="-1.37774">
        <ele>859.916643</ele>
        <time>2022-02-21T19:41:08.105Z</time>
      </trkpt>
      <trkpt lat="43.05525" lon="-1.37732">
        <ele>865.764502</ele>
        <time>2022-02-21T19:41:48.532Z</time>
      </trkpt>
      <trkpt lat="43.05429" lon="-1.37693">
        <ele>876.664467</ele>
        <time>2022-02-21T19:43:02.350Z</time>
      </trkpt>
      <trkpt lat="43.05384" lon="-1.37666">
        <ele>880.800238</ele>
        <time>2022-02-21T19:43:33.937Z</time>
      </trkpt>
      <trkpt lat="43.05341" lon="-1.37632">
        <ele>884.930796</ele>
        <time>2022-02-21T19:44:05.108Z</time>
      </trkpt>
      <trkpt lat="43.05286" lon="-1.37615">
        <ele>889.580654</ele>
        <time>2022-02-21T19:44:38.767Z</time>
      </trkpt>
      <trkpt lat="43.05232" lon="-1.37612">
        <ele>893.839092</ele>
        <time>2022-02-21T19:45:12.296Z</time>
      </trkpt>
      <trkpt lat="43.05204" lon="-1.37593">
        <ele>896.360261</ele>
        <time>2022-02-21T19:45:31.160Z</time>
      </trkpt>
      <trkpt lat="43.0517" lon="-1.37587">
        <ele>899.027704</ele>
        <time>2022-02-21T19:45:51.163Z</time>
      </trkpt>
      <trkpt lat="43.05152" lon="-1.37585">
        <ele>900.489342</ele>
        <time>2022-02-21T19:46:04.096Z</time>
      </trkpt>
      <trkpt lat="43.0514" lon="-1.37577">
        <ele>901.542942</ele>
        <time>2022-02-21T19:46:12.111Z</time>
      </trkpt>
      <trkpt lat="43.051" lon="-1.37532">
        <ele>906.761726</ele>
        <time>2022-02-21T19:46:46.822Z</time>
      </trkpt>
      <trkpt lat="43.05072" lon="-1.37476">
        <ele>912.818119</ele>
        <time>2022-02-21T19:47:21.901Z</time>
      </trkpt>
      <trkpt lat="43.05031" lon="-1.37425">
        <ele>919.471502</ele>
        <time>2022-02-21T19:48:12.172Z</time>
      </trkpt>
      <trkpt lat="43.04986" lon="-1.37383">
        <ele>926.209606</ele>
        <time>2022-02-21T19:49:06.511Z</time>
      </trkpt>
      <trkpt lat="43.04933" lon="-1.37302">
        <ele>936.225897</ele>
        <time>2022-02-21T19:50:27.033Z</time>
      </trkpt>
      <trkpt lat="43.04872" lon="-1.3725">
        <ele>945.217043</ele>
        <time>2022-02-21T19:51:30.093Z</time>
      </trkpt>
      <trkpt lat="43.04703" lon="-1.37143">
        <ele>956.87188</ele>
        <time>2022-02-21T19:53:01.537Z</time>
      </trkpt>
      <trkpt lat="43.04706" lon="-1.37123">
        <ele>957.664852</ele>
        <time>2022-02-21T19:53:05.930Z</time>
      </trkpt>
      <trkpt lat="43.04668" lon="-1.37103">
        <ele>960.38474</ele>
        <time>2022-02-21T19:53:21.887Z</time>
      </trkpt>
      <trkpt lat="43.04648" lon="-1.37099">
        <ele>961.710179</ele>
        <time>2022-02-21T19:53:31.734Z</time>
      </trkpt>
      <trkpt lat="43.04588" lon="-1.37109">
        <ele>965.710596</ele>
        <time>2022-02-21T19:54:05.137Z</time>
      </trkpt>
      <trkpt lat="43.04557" lon="-1.37132">
        <ele>968.072711</ele>
        <time>2022-02-21T19:54:27.509Z</time>
      </trkpt>
      <trkpt lat="43.04494" lon="-1.37207">
        <ele>975.706897</ele>
        <time>2022-02-21T19:55:31.787Z</time>
      </trkpt>
      <trkpt lat="43.04476" lon="-1.37216">
        <ele>977.650087</ele>
        <time>2022-02-21T19:55:46.744Z</time>
      </trkpt>
      <trkpt lat="43.04428" lon="-1.37213">
        <ele>982.481332</ele>
        <time>2022-02-21T19:56:25.295Z</time>
      </trkpt>
      <trkpt lat="43.04405" lon="-1.37196">
        <ele>985.164978</ele>
        <time>2022-02-21T19:56:45.140Z</time>
      </trkpt>
      <trkpt lat="43.04362" lon="-1.37095">
        <ele>992.994677</ele>
        <time>2022-02-21T19:57:39.725Z</time>
      </trkpt>
      <trkpt lat="43.04329" lon="-1.37043">
        <ele>997.403722</ele>
        <time>2022-02-21T19:58:10.026Z</time>
      </trkpt>
      <trkpt lat="43.04296" lon="-1.37009">
        <ele>1000.994449</ele>
        <time>2022-02-21T19:58:39.000Z</time>
      </trkpt>
      <trkpt lat="43.04277" lon="-1.36998">
        <ele>1002.803734</ele>
        <time>2022-02-21T19:58:53.588Z</time>
      </trkpt>
      <trkpt lat="43.04248" lon="-1.37005">
        <ele>1005.521644</ele>
        <time>2022-02-21T19:59:15.324Z</time>
      </trkpt>
      <trkpt lat="43.04223" lon="-1.36998">
        <ele>1007.900663</ele>
        <time>2022-02-21T19:59:34.787Z</time>
      </trkpt>
      <trkpt lat="43.04203" lon="-1.36982">
        <ele>1010.055653</ele>
        <time>2022-02-21T19:59:51.613Z</time>
      </trkpt>
      <trkpt lat="43.0416" lon="-1.36973">
        <ele>1014.140876</ele>
        <time>2022-02-21T20:00:22.210Z</time>
      </trkpt>
      <trkpt lat="43.04123" lon="-1.36956">
        <ele>1017.743478</ele>
        <time>2022-02-21T20:00:48.726Z</time>
      </trkpt>
      <trkpt lat="43.04087" lon="-1.3692">
        <ele>1021.439949</ele>
        <time>2022-02-21T20:01:18.017Z</time>
      </trkpt>
      <trkpt lat="43.0406" lon="-1.36902">
        <ele>1023.34042</ele>
        <time>2022-02-21T20:01:38.030Z</time>
      </trkpt>
      <trkpt lat="43.04057" lon="-1.3689">
        <ele>1023.929674</ele>
        <time>2022-02-21T20:01:43.754Z</time>
      </trkpt>
      <trkpt lat="43.04073" lon="-1.36857">
        <ele>1025.756882</ele>
        <time>2022-02-21T20:02:01.856Z</time>
      </trkpt>
      <trkpt lat="43.0407" lon="-1.36848">
        <ele>1026.216641</ele>
        <time>2022-02-21T20:02:05.671Z</time>
      </trkpt>
      <trkpt lat="43.04019" lon="-1.3678">
        <ele>1030.705956</ele>
        <time>2022-02-21T20:02:40.572Z</time>
      </trkpt>
      <trkpt lat="43.03959" lon="-1.36723">
        <ele>1032.782857</ele>
        <time>2022-02-21T20:03:08.996Z</time>
      </trkpt>
      <trkpt lat="43.03931" lon="-1.36685">
        <ele>1033.523369</ele>
        <time>2022-02-21T20:03:23.851Z</time>
      </trkpt>
      <trkpt lat="43.0387" lon="-1.36579">
        <ele>1035.044207</ele>
        <time>2022-02-21T20:03:49.186Z</time>
      </trkpt>
      <trkpt lat="43.03851" lon="-1.3656">
        <ele>1034.959065</ele>
        <time>2022-02-21T20:03:53.908Z</time>
      </trkpt>
      <trkpt lat="43.03777" lon="-1.36533">
        <ele>1034.687407</ele>
        <time>2022-02-21T20:04:09.189Z</time>
      </trkpt>
      <trkpt lat="43.03721" lon="-1.36506">
        <ele>1034.473596</ele>
        <time>2022-02-21T20:04:22.250Z</time>
      </trkpt>
      <trkpt lat="43.03687" lon="-1.36508">
        <ele>1035.90902</ele>
        <time>2022-02-21T20:04:30.424Z</time>
      </trkpt>
      <trkpt lat="43.03522" lon="-1.36563">
        <ele>1045.543809</ele>
        <time>2022-02-21T20:06:00.899Z</time>
      </trkpt>
      <trkpt lat="43.03454" lon="-1.36614">
        <ele>1053.689723</ele>
        <time>2022-02-21T20:07:02.992Z</time>
      </trkpt>
      <trkpt lat="43.03403" lon="-1.3667">
        <ele>1060.56784</ele>
        <time>2022-02-21T20:07:56.808Z</time>
      </trkpt>
      <trkpt lat="43.03393" lon="-1.36699">
        <ele>1062.974147</ele>
        <time>2022-02-21T20:08:16.525Z</time>
      </trkpt>
      <trkpt lat="43.03383" lon="-1.36707">
        <ele>1064.064731</ele>
        <time>2022-02-21T20:08:25.482Z</time>
      </trkpt>
      <trkpt lat="43.03358" lon="-1.36712">
        <ele>1066.496792</ele>
        <time>2022-02-21T20:08:45.493Z</time>
      </trkpt>
      <trkpt lat="43.03328" lon="-1.36742">
        <ele>1070.021976</ele>
        <time>2022-02-21T20:09:13.003Z</time>
      </trkpt>
      <trkpt lat="43.03319" lon="-1.36744">
        <ele>1070.889144</ele>
        <time>2022-02-21T20:09:19.378Z</time>
      </trkpt>
      <trkpt lat="43.03283" lon="-1.36728">
        <ele>1074.492478</ele>
        <time>2022-02-21T20:09:44.837Z</time>
      </trkpt>
      <trkpt lat="43.0325" lon="-1.36677">
        <ele>1079.190024</ele>
        <time>2022-02-21T20:10:14.802Z</time>
      </trkpt>
      <trkpt lat="43.03199" lon="-1.36622">
        <ele>1086.649607</ele>
        <time>2022-02-21T20:10:56.424Z</time>
      </trkpt>
      <trkpt lat="43.03127" lon="-1.36559">
        <ele>1096.582622</ele>
        <time>2022-02-21T20:12:10.750Z</time>
      </trkpt>
      <trkpt lat="43.0309" lon="-1.36543">
        <ele>1101.358112</ele>
        <time>2022-02-21T20:12:46.621Z</time>
      </trkpt>
      <trkpt lat="43.03073" lon="-1.36522">
        <ele>1105.242309</ele>
        <time>2022-02-21T20:13:08.862Z</time>
      </trkpt>
      <trkpt lat="43.03068" lon="-1.36491">
        <ele>1109.171511</ele>
        <time>2022-02-21T20:13:36.539Z</time>
      </trkpt>
      <trkpt lat="43.03088" lon="-1.36429">
        <ele>1117.366231</ele>
        <time>2022-02-21T20:14:31.160Z</time>
      </trkpt>
      <trkpt lat="43.03104" lon="-1.36336">
        <ele>1128.993332</ele>
        <time>2022-02-21T20:15:52.528Z</time>
      </trkpt>
      <trkpt lat="43.03092" lon="-1.36292">
        <ele>1133.237842</ele>
        <time>2022-02-21T20:16:28.682Z</time>
      </trkpt>
      <trkpt lat="43.03125" lon="-1.36151">
        <ele>1145.160504</ele>
        <time>2022-02-21T20:17:54.577Z</time>
      </trkpt>
      <trkpt lat="43.03161" lon="-1.36027">
        <ele>1152.843808</ele>
        <time>2022-02-21T20:18:46.962Z</time>
      </trkpt>
      <trkpt lat="43.03156" lon="-1.35971">
        <ele>1154.94135</ele>
        <time>2022-02-21T20:19:05.969Z</time>
      </trkpt>
      <trkpt lat="43.03163" lon="-1.35914">
        <ele>1157.088758</ele>
        <time>2022-02-21T20:19:24.291Z</time>
      </trkpt>
      <trkpt lat="43.03154" lon="-1.35878">
        <ele>1158.485801</ele>
        <time>2022-02-21T20:19:36.743Z</time>
      </trkpt>
      <trkpt lat="43.03145" lon="-1.35861">
        <ele>1159.245434</ele>
        <time>2022-02-21T20:19:44.091Z</time>
      </trkpt>
      <trkpt lat="43.03113" lon="-1.35834">
        <ele>1160.938297</ele>
        <time>2022-02-21T20:20:00.914Z</time>
      </trkpt>
      <trkpt lat="43.03072" lon="-1.35822">
        <ele>1162.802109</ele>
        <time>2022-02-21T20:20:20.391Z</time>
      </trkpt>
      <trkpt lat="43.03017" lon="-1.3579">
        <ele>1165.48332</ele>
        <time>2022-02-21T20:20:50.000Z</time>
      </trkpt>
      <trkpt lat="43.0301" lon="-1.35748">
        <ele>1166.87204</ele>
        <time>2022-02-21T20:21:03.705Z</time>
      </trkpt>
      <trkpt lat="43.02998" lon="-1.35719">
        <ele>1167.851281</ele>
        <time>2022-02-21T20:21:13.075Z</time>
      </trkpt>
      <trkpt lat="43.02931" lon="-1.35612">
        <ele>1171.754321</ele>
        <time>2022-02-21T20:21:53.038Z</time>
      </trkpt>
      <trkpt lat="43.02896" lon="-1.3554">
        <ele>1174.145134</ele>
        <time>2022-02-21T20:22:19.019Z</time>
      </trkpt>
      <trkpt lat="43.02889" lon="-1.35514">
        <ele>1175.08987</ele>
        <time>2022-02-21T20:22:29.781Z</time>
      </trkpt>
      <trkpt lat="43.02857" lon="-1.35487">
        <ele>1176.797643</ele>
        <time>2022-02-21T20:22:51.259Z</time>
      </trkpt>
      <trkpt lat="43.02848" lon="-1.3547">
        <ele>1177.490095</ele>
        <time>2022-02-21T20:23:00.032Z</time>
      </trkpt>
      <trkpt lat="43.02847" lon="-1.35458">
        <ele>1177.879735</ele>
        <time>2022-02-21T20:23:05.290Z</time>
      </trkpt>
      <trkpt lat="43.02873" lon="-1.35407">
        <ele>1179.952625</ele>
        <time>2022-02-21T20:23:28.034Z</time>
      </trkpt>
      <trkpt lat="43.02851" lon="-1.35397">
        <ele>1181.021178</ele>
        <time>2022-02-21T20:23:38.743Z</time>
      </trkpt>
      <trkpt lat="43.02836" lon="-1.35382">
        <ele>1181.840319</ele>
        <time>2022-02-21T20:23:45.681Z</time>
      </trkpt>
      <trkpt lat="43.02818" lon="-1.35371">
        <ele>1181.873797</ele>
        <time>2022-02-21T20:23:52.569Z</time>
      </trkpt>
      <trkpt lat="43.02801" lon="-1.3535">
        <ele>1180.677241</ele>
        <time>2022-02-21T20:23:58.302Z</time>
      </trkpt>
      <trkpt lat="43.02787" lon="-1.35316">
        <ele>1179.206702</ele>
        <time>2022-02-21T20:24:03.545Z</time>
      </trkpt>
      <trkpt lat="43.02777" lon="-1.35251">
        <ele>1176.704975</ele>
        <time>2022-02-21T20:24:11.265Z</time>
      </trkpt>
      <trkpt lat="43.02771" lon="-1.35164">
        <ele>1173.397467</ele>
        <time>2022-02-21T20:24:20.470Z</time>
      </trkpt>
      <trkpt lat="43.02739" lon="-1.35017">
        <ele>1158.147721</ele>
        <time>2022-02-21T20:24:35.721Z</time>
      </trkpt>
      <trkpt lat="43.02698" lon="-1.34893">
        <ele>1143.469527</ele>
        <time>2022-02-21T20:24:49.029Z</time>
      </trkpt>
      <trkpt lat="43.02684" lon="-1.34791">
        <ele>1130.637428</ele>
        <time>2022-02-21T20:24:59.122Z</time>
      </trkpt>
      <trkpt lat="43.02669" lon="-1.347">
        <ele>1119.05531</ele>
        <time>2022-02-21T20:25:08.188Z</time>
      </trkpt>
      <trkpt lat="43.0264" lon="-1.34621">
        <ele>1109.350342</ele>
        <time>2022-02-21T20:25:16.705Z</time>
      </trkpt>
      <trkpt lat="43.02607" lon="-1.34547">
        <ele>1099.978622</ele>
        <time>2022-02-21T20:25:25.204Z</time>
      </trkpt>
      <trkpt lat="43.0259" lon="-1.34409">
        <ele>1088.57838</ele>
        <time>2022-02-21T20:25:39.373Z</time>
      </trkpt>
      <trkpt lat="43.0259" lon="-1.3436">
        <ele>1086.659485</ele>
        <time>2022-02-21T20:25:44.741Z</time>
      </trkpt>
      <trkpt lat="43.02599" lon="-1.34284">
        <ele>1083.639731</ele>
        <time>2022-02-21T20:25:54.026Z</time>
      </trkpt>
      <trkpt lat="43.02601" lon="-1.34228">
        <ele>1081.456568</ele>
        <time>2022-02-21T20:26:01.424Z</time>
      </trkpt>
      <trkpt lat="43.02584" lon="-1.33991">
        <ele>1086.036455</ele>
        <time>2022-02-21T20:27:02.880Z</time>
      </trkpt>
      <trkpt lat="43.0259" lon="-1.33891">
        <ele>1091.013908</ele>
        <time>2022-02-21T20:27:49.211Z</time>
      </trkpt>
      <trkpt lat="43.0258" lon="-1.33824">
        <ele>1094.820774</ele>
        <time>2022-02-21T20:28:24.206Z</time>
      </trkpt>
      <trkpt lat="43.02567" lon="-1.33748">
        <ele>1099.164954</ele>
        <time>2022-02-21T20:28:58.803Z</time>
      </trkpt>
      <trkpt lat="43.02564" lon="-1.33727">
        <ele>1100.189081</ele>
        <time>2022-02-21T20:29:10.103Z</time>
      </trkpt>
      <trkpt lat="43.02525" lon="-1.33626">
        <ele>1101.745416</ele>
        <time>2022-02-21T20:29:49.704Z</time>
      </trkpt>
      <trkpt lat="43.02521" lon="-1.33602">
        <ele>1102.0888</ele>
        <time>2022-02-21T20:29:55.125Z</time>
      </trkpt>
      <trkpt lat="43.02514" lon="-1.33535">
        <ele>1103.019756</ele>
        <time>2022-02-21T20:30:06.769Z</time>
      </trkpt>
      <trkpt lat="43.02517" lon="-1.33508">
        <ele>1103.385389</ele>
        <time>2022-02-21T20:30:09.962Z</time>
      </trkpt>
      <trkpt lat="43.02531" lon="-1.3346">
        <ele>1101.372432</ele>
        <time>2022-02-21T20:30:15.844Z</time>
      </trkpt>
      <trkpt lat="43.02532" lon="-1.33402">
        <ele>1098.524282</ele>
        <time>2022-02-21T20:30:22.077Z</time>
      </trkpt>
      <trkpt lat="43.02526" lon="-1.33358">
        <ele>1096.297484</ele>
        <time>2022-02-21T20:30:26.879Z</time>
      </trkpt>
      <trkpt lat="43.02475" lon="-1.3328">
        <ele>1091.304721</ele>
        <time>2022-02-21T20:30:37.937Z</time>
      </trkpt>
      <trkpt lat="43.02374" lon="-1.3316">
        <ele>1088.820609</ele>
        <time>2022-02-21T20:31:00.941Z</time>
      </trkpt>
      <trkpt lat="43.02277" lon="-1.33132">
        <ele>1089.363124</ele>
        <time>2022-02-21T20:31:44.765Z</time>
      </trkpt>
      <trkpt lat="43.02213" lon="-1.33071">
        <ele>1091.173572</ele>
        <time>2022-02-21T20:32:17.629Z</time>
      </trkpt>
      <trkpt lat="43.0221" lon="-1.33055">
        <ele>1091.449358</ele>
        <time>2022-02-21T20:32:20.859Z</time>
      </trkpt>
      <trkpt lat="43.02214" lon="-1.3291">
        <ele>1088.512834</ele>
        <time>2022-02-21T20:32:40.546Z</time>
      </trkpt>
      <trkpt lat="43.0223" lon="-1.32816">
        <ele>1084.954589</ele>
        <time>2022-02-21T20:32:51.080Z</time>
      </trkpt>
      <trkpt lat="43.02226" lon="-1.32799">
        <ele>1084.302724</ele>
        <time>2022-02-21T20:32:52.988Z</time>
      </trkpt>
      <trkpt lat="43.02208" lon="-1.32755">
        <ele>1082.102307</ele>
        <time>2022-02-21T20:32:58.289Z</time>
      </trkpt>
      <trkpt lat="43.02168" lon="-1.32683">
        <ele>1076.97272</ele>
        <time>2022-02-21T20:33:07.937Z</time>
      </trkpt>
      <trkpt lat="43.0209" lon="-1.32583">
        <ele>1068.733841</ele>
        <time>2022-02-21T20:33:23.938Z</time>
      </trkpt>
      <trkpt lat="43.02034" lon="-1.32491">
        <ele>1062.75071</ele>
        <time>2022-02-21T20:33:36.811Z</time>
      </trkpt>
      <trkpt lat="43.01986" lon="-1.32413">
        <ele>1057.665922</ele>
        <time>2022-02-21T20:33:48.130Z</time>
      </trkpt>
      <trkpt lat="43.01972" lon="-1.324">
        <ele>1056.699261</ele>
        <time>2022-02-21T20:33:50.740Z</time>
      </trkpt>
      <trkpt lat="43.01939" lon="-1.32373">
        <ele>1055.315783</ele>
        <time>2022-02-21T20:33:56.947Z</time>
      </trkpt>
      <trkpt lat="43.01913" lon="-1.32361">
        <ele>1054.35048</ele>
        <time>2022-02-21T20:34:01.343Z</time>
      </trkpt>
      <trkpt lat="43.01759" lon="-1.32328">
        <ele>1048.653054</ele>
        <time>2022-02-21T20:34:29.214Z</time>
      </trkpt>
      <trkpt lat="43.01693" lon="-1.32296">
        <ele>1045.908259</ele>
        <time>2022-02-21T20:34:41.716Z</time>
      </trkpt>
      <trkpt lat="43.0166" lon="-1.32256">
        <ele>1044.186527</ele>
        <time>2022-02-21T20:34:48.718Z</time>
      </trkpt>
      <trkpt lat="43.01631" lon="-1.32165">
        <ele>1037.270699</ele>
        <time>2022-02-21T20:34:59.376Z</time>
      </trkpt>
      <trkpt lat="43.01604" lon="-1.3211">
        <ele>1031.747074</ele>
        <time>2022-02-21T20:35:06.097Z</time>
      </trkpt>
      <trkpt lat="43.01509" lon="-1.31988">
        <ele>1015.153042</ele>
        <time>2022-02-21T20:35:23.693Z</time>
      </trkpt>
      <trkpt lat="43.01476" lon="-1.31951">
        <ele>1008.822137</ele>
        <time>2022-02-21T20:35:29.463Z</time>
      </trkpt>
      <trkpt lat="43.01452" lon="-1.31933">
        <ele>1004.808537</ele>
        <time>2022-02-21T20:35:33.121Z</time>
      </trkpt>
      <trkpt lat="43.0142" lon="-1.31923">
        <ele>999.913384</ele>
        <time>2022-02-21T20:35:37.584Z</time>
      </trkpt>
      <trkpt lat="43.01359" lon="-1.31926">
        <ele>991.893088</ele>
        <time>2022-02-21T20:35:45.847Z</time>
      </trkpt>
      <trkpt lat="43.01269" lon="-1.31945">
        <ele>980.837735</ele>
        <time>2022-02-21T20:35:58.339Z</time>
      </trkpt>
      <trkpt lat="43.01188" lon="-1.31973">
        <ele>972.586168</ele>
        <time>2022-02-21T20:36:10.135Z</time>
      </trkpt>
      <trkpt lat="43.01134" lon="-1.31964">
        <ele>969.295113</ele>
        <time>2022-02-21T20:36:18.203Z</time>
      </trkpt>
      <trkpt lat="43.01099" lon="-1.31965">
        <ele>967.167873</ele>
        <time>2022-02-21T20:36:23.846Z</time>
      </trkpt>
      <trkpt lat="43.01048" lon="-1.31997">
        <ele>963.762349</ele>
        <time>2022-02-21T20:36:33.309Z</time>
      </trkpt>
      <trkpt lat="43.01035" lon="-1.32011">
        <ele>963.203</ele>
        <time>2022-02-21T20:36:36.305Z</time>
      </trkpt>
      <trkpt lat="43.01006" lon="-1.32086">
        <ele>961.505559</ele>
        <time>2022-02-21T20:36:47.435Z</time>
      </trkpt>
      <trkpt lat="43.00974" lon="-1.32108">
        <ele>960.507988</ele>
        <time>2022-02-21T20:36:53.952Z</time>
      </trkpt>
      <trkpt lat="43.00956" lon="-1.3213">
        <ele>959.853084</ele>
        <time>2022-02-21T20:36:58.970Z</time>
      </trkpt>
      <trkpt lat="43.00952" lon="-1.3214">
        <ele>959.624523</ele>
        <time>2022-02-21T20:37:00.246Z</time>
      </trkpt>
      <trkpt lat="43.00954" lon="-1.32167">
        <ele>959.080932</ele>
        <time>2022-02-21T20:37:03.793Z</time>
      </trkpt>
      <trkpt lat="43.00964" lon="-1.3221">
        <ele>957.735863</ele>
        <time>2022-02-21T20:37:09.278Z</time>
      </trkpt>
      <trkpt lat="43.00962" lon="-1.32219">
        <ele>957.368988</ele>
        <time>2022-02-21T20:37:10.523Z</time>
      </trkpt>
      <trkpt lat="43.00955" lon="-1.3222">
        <ele>956.974898</ele>
        <time>2022-02-21T20:37:11.881Z</time>
      </trkpt>
      <trkpt lat="43.00948" lon="-1.32213">
        <ele>956.541279</ele>
        <time>2022-02-21T20:37:12.988Z</time>
      </trkpt>
      <trkpt lat="43.00927" lon="-1.32141">
        <ele>953.443086</ele>
        <time>2022-02-21T20:37:21.855Z</time>
      </trkpt>
      <trkpt lat="43.00924" lon="-1.32055">
        <ele>950.002536</ele>
        <time>2022-02-21T20:37:31.472Z</time>
      </trkpt>
      <trkpt lat="43.00907" lon="-1.32027">
        <ele>948.621399</ele>
        <time>2022-02-21T20:37:35.452Z</time>
      </trkpt>
      <trkpt lat="43.00884" lon="-1.32002">
        <ele>947.322113</ele>
        <time>2022-02-21T20:37:40.075Z</time>
      </trkpt>
      <trkpt lat="43.0088" lon="-1.31998">
        <ele>947.109204</ele>
        <time>2022-02-21T20:37:40.823Z</time>
      </trkpt>
      <trkpt lat="43.00873" lon="-1.31991">
        <ele>946.716431</ele>
        <time>2022-02-21T20:37:42.224Z</time>
      </trkpt>
      <trkpt lat="43.00871" lon="-1.31989">
        <ele>946.614576</ele>
        <time>2022-02-21T20:37:42.592Z</time>
      </trkpt>
      <trkpt lat="43.00867" lon="-1.31987">
        <ele>946.42266</ele>
        <time>2022-02-21T20:37:43.278Z</time>
      </trkpt>
      <trkpt lat="43.00863" lon="-1.31983">
        <ele>946.187749</ele>
        <time>2022-02-21T20:37:44.127Z</time>
      </trkpt>
      <trkpt lat="43.0086" lon="-1.31981">
        <ele>946.054199</ele>
        <time>2022-02-21T20:37:44.587Z</time>
      </trkpt>
      <trkpt lat="43.00852" lon="-1.31973">
        <ele>945.606387</ele>
        <time>2022-02-21T20:37:46.169Z</time>
      </trkpt>
      <trkpt lat="43.00824" lon="-1.31959">
        <ele>944.282358</ele>
        <time>2022-02-21T20:37:50.899Z</time>
      </trkpt>
      <trkpt lat="43.00747" lon="-1.3194">
        <ele>940.852987</ele>
        <time>2022-02-21T20:38:03.854Z</time>
      </trkpt>
      <trkpt lat="43.00591" lon="-1.31921">
        <ele>938.313309</ele>
        <time>2022-02-21T20:38:34.112Z</time>
      </trkpt>
      <trkpt lat="43.00552" lon="-1.31922">
        <ele>937.763532</ele>
        <time>2022-02-21T20:38:41.712Z</time>
      </trkpt>
      <trkpt lat="43.00441" lon="-1.31953">
        <ele>936.448868</ele>
        <time>2022-02-21T20:39:04.188Z</time>
      </trkpt>
      <trkpt lat="43.00397" lon="-1.31982">
        <ele>935.890124</ele>
        <time>2022-02-21T20:39:13.752Z</time>
      </trkpt>
      <trkpt lat="43.00265" lon="-1.32099">
        <ele>933.242379</ele>
        <time>2022-02-21T20:39:43.616Z</time>
      </trkpt>
      <trkpt lat="42.99436" lon="-1.32914">
        <ele>906.608081</ele>
        <time>2022-02-21T20:42:43.674Z</time>
      </trkpt>
      <trkpt lat="42.99402" lon="-1.32948">
        <ele>905.474026</ele>
        <time>2022-02-21T20:42:50.841Z</time>
      </trkpt>
      <trkpt lat="42.99393" lon="-1.32957">
        <ele>905.155422</ele>
        <time>2022-02-21T20:42:52.875Z</time>
      </trkpt>
      <trkpt lat="42.9938" lon="-1.32969">
        <ele>904.724238</ele>
        <time>2022-02-21T20:42:55.627Z</time>
      </trkpt>
      <trkpt lat="42.99297" lon="-1.33051">
        <ele>902.002951</ele>
        <time>2022-02-21T20:43:13.477Z</time>
      </trkpt>
      <trkpt lat="42.99237" lon="-1.33114">
        <ele>899.981342</ele>
        <time>2022-02-21T20:43:26.743Z</time>
      </trkpt>
      <trkpt lat="42.99228" lon="-1.33101">
        <ele>899.632342</ele>
        <time>2022-02-21T20:43:29.162Z</time>
      </trkpt>
      <trkpt lat="42.99224" lon="-1.33095">
        <ele>899.507139</ele>
        <time>2022-02-21T20:43:30.300Z</time>
      </trkpt>
      <trkpt lat="42.9921" lon="-1.33072">
        <ele>899.086616</ele>
        <time>2022-02-21T20:43:34.492Z</time>
      </trkpt>
      <trkpt lat="42.99195" lon="-1.33079">
        <ele>898.794295</ele>
        <time>2022-02-21T20:43:37.430Z</time>
      </trkpt>
      <trkpt lat="42.99123" lon="-1.33166">
        <ele>896.993858</ele>
        <time>2022-02-21T20:43:56.025Z</time>
      </trkpt>
      <trkpt lat="42.99013" lon="-1.3332">
        <ele>894.714411</ele>
        <time>2022-02-21T20:44:27.938Z</time>
      </trkpt>
      <trkpt lat="42.9899" lon="-1.33353">
        <ele>894.288675</ele>
        <time>2022-02-21T20:44:34.666Z</time>
      </trkpt>
      <trkpt lat="42.98944" lon="-1.33417">
        <ele>893.513566</ele>
        <time>2022-02-21T20:44:48.034Z</time>
      </trkpt>
      <trkpt lat="42.98929" lon="-1.33437">
        <ele>893.287525</ele>
        <time>2022-02-21T20:44:52.273Z</time>
      </trkpt>
      <trkpt lat="42.98916" lon="-1.33455">
        <ele>893.087076</ele>
        <time>2022-02-21T20:44:56.059Z</time>
      </trkpt>
      <trkpt lat="42.98906" lon="-1.33468">
        <ele>892.93362</ele>
        <time>2022-02-21T20:44:58.951Z</time>
      </trkpt>
      <trkpt lat="42.98898" lon="-1.33481">
        <ele>892.799224</ele>
        <time>2022-02-21T20:45:01.533Z</time>
      </trkpt>
      <trkpt lat="42.98886" lon="-1.33499">
        <ele>892.608181</ele>
        <time>2022-02-21T20:45:05.109Z</time>
      </trkpt>
      <trkpt lat="42.98875" lon="-1.33533">
        <ele>892.308957</ele>
        <time>2022-02-21T20:45:10.836Z</time>
      </trkpt>
      <trkpt lat="42.9877" lon="-1.33613">
        <ele>890.987162</ele>
        <time>2022-02-21T20:45:36.234Z</time>
      </trkpt>
      <trkpt lat="42.98784" lon="-1.33637">
        <ele>890.742062</ele>
        <time>2022-02-21T20:45:40.928Z</time>
      </trkpt>
      <trkpt lat="42.98773" lon="-1.33648">
        <ele>890.591669</ele>
        <time>2022-02-21T20:45:43.750Z</time>
      </trkpt>
      <trkpt lat="42.98762" lon="-1.3364">
        <ele>890.455905</ele>
        <time>2022-02-21T20:45:46.256Z</time>
      </trkpt>
      <trkpt lat="42.98744" lon="-1.3365">
        <ele>890.245892</ele>
        <time>2022-02-21T20:45:50.098Z</time>
      </trkpt>
      <trkpt lat="42.98753" lon="-1.33691">
        <ele>889.855109</ele>
        <time>2022-02-21T20:45:56.293Z</time>
      </trkpt>
      <trkpt lat="42.98741" lon="-1.33697">
        <ele>889.585795</ele>
        <time>2022-02-21T20:45:58.741Z</time>
      </trkpt>
      <trkpt lat="42.98692" lon="-1.33724">
        <ele>888.507502</ele>
        <time>2022-02-21T20:46:08.354Z</time>
      </trkpt>
      <trkpt lat="42.98659" lon="-1.33751">
        <ele>887.721282</ele>
        <time>2022-02-21T20:46:15.300Z</time>
      </trkpt>
      <trkpt lat="42.98588" lon="-1.33838">
        <ele>885.968221</ele>
        <time>2022-02-21T20:46:32.331Z</time>
      </trkpt>
      <trkpt lat="42.98288" lon="-1.34205">
        <ele>882.078219</ele>
        <time>2022-02-21T20:47:52.728Z</time>
      </trkpt>
      <trkpt lat="42.98008" lon="-1.34529">
        <ele>879.955614</ele>
        <time>2022-02-21T20:49:11.546Z</time>
      </trkpt>
      <trkpt lat="42.97866" lon="-1.34687">
        <ele>876.399913</ele>
        <time>2022-02-21T20:49:44.705Z</time>
      </trkpt>
      <trkpt lat="42.97737" lon="-1.34819">
        <ele>872.117403</ele>
        <time>2022-02-21T20:50:12.496Z</time>
      </trkpt>
      <trkpt lat="42.97716" lon="-1.34845">
        <ele>871.38078</ele>
        <time>2022-02-21T20:50:17.440Z</time>
      </trkpt>
      <trkpt lat="42.97689" lon="-1.34877">
        <ele>870.467895</ele>
        <time>2022-02-21T20:50:23.672Z</time>
      </trkpt>
      <trkpt lat="42.97639" lon="-1.3493">
        <ele>868.941661</ele>
        <time>2022-02-21T20:50:35.143Z</time>
      </trkpt>
      <trkpt lat="42.97585" lon="-1.34992">
        <ele>868.181492</ele>
        <time>2022-02-21T20:50:48.892Z</time>
      </trkpt>
      <trkpt lat="42.9752" lon="-1.35063">
        <ele>867.291944</ele>
        <time>2022-02-21T20:51:05.861Z</time>
      </trkpt>
      <trkpt lat="42.97481" lon="-1.35107">
        <ele>866.790944</ele>
        <time>2022-02-21T20:51:16.487Z</time>
      </trkpt>
      <trkpt lat="42.97451" lon="-1.3514">
        <ele>866.443709</ele>
        <time>2022-02-21T20:51:24.146Z</time>
      </trkpt>
      <trkpt lat="42.9735" lon="-1.35251">
        <ele>865.571403</ele>
        <time>2022-02-21T20:51:49.478Z</time>
      </trkpt>
      <trkpt lat="42.97329" lon="-1.35245">
        <ele>865.732851</ele>
        <time>2022-02-21T20:51:54.003Z</time>
      </trkpt>
      <trkpt lat="42.97317" lon="-1.35252">
        <ele>865.826475</ele>
        <time>2022-02-21T20:51:56.624Z</time>
      </trkpt>
      <trkpt lat="42.97304" lon="-1.35259">
        <ele>865.939265</ele>
        <time>2022-02-21T20:52:00.096Z</time>
      </trkpt>
      <trkpt lat="42.97281" lon="-1.35275">
        <ele>866.129565</ele>
        <time>2022-02-21T20:52:06.142Z</time>
      </trkpt>
      <trkpt lat="42.97219" lon="-1.35344">
        <ele>866.733105</ele>
        <time>2022-02-21T20:52:30.314Z</time>
      </trkpt>
      <trkpt lat="42.97198" lon="-1.35358">
        <ele>867.294146</ele>
        <time>2022-02-21T20:52:38.193Z</time>
      </trkpt>
      <trkpt lat="42.97081" lon="-1.35375">
        <ele>871.024945</ele>
        <time>2022-02-21T20:53:24.838Z</time>
      </trkpt>
      <trkpt lat="42.97059" lon="-1.35383">
        <ele>871.749304</ele>
        <time>2022-02-21T20:53:33.809Z</time>
      </trkpt>
      <trkpt lat="42.97012" lon="-1.35417">
        <ele>873.425132</ele>
        <time>2022-02-21T20:53:54.665Z</time>
      </trkpt>
      <trkpt lat="42.96968" lon="-1.35434">
        <ele>874.864415</ele>
        <time>2022-02-21T20:54:12.814Z</time>
      </trkpt>
      <trkpt lat="42.96893" lon="-1.35437">
        <ele>877.19553</ele>
        <time>2022-02-21T20:54:41.054Z</time>
      </trkpt>
      <trkpt lat="42.96803" lon="-1.35425">
        <ele>879.202731</ele>
        <time>2022-02-21T20:55:13.240Z</time>
      </trkpt>
      <trkpt lat="42.96752" lon="-1.35436">
        <ele>880.123333</ele>
        <time>2022-02-21T20:55:29.728Z</time>
      </trkpt>
      <trkpt lat="42.9673" lon="-1.35463">
        <ele>880.641873</ele>
        <time>2022-02-21T20:55:38.430Z</time>
      </trkpt>
      <trkpt lat="42.96723" lon="-1.35491">
        <ele>881.02187</ele>
        <time>2022-02-21T20:55:44.284Z</time>
      </trkpt>
      <trkpt lat="42.96742" lon="-1.35556">
        <ele>881.15286</ele>
        <time>2022-02-21T20:55:56.023Z</time>
      </trkpt>
      <trkpt lat="42.96743" lon="-1.3559">
        <ele>881.043778</ele>
        <time>2022-02-21T20:56:01.321Z</time>
      </trkpt>
      <trkpt lat="42.96731" lon="-1.35619">
        <ele>880.937946</ele>
        <time>2022-02-21T20:56:06.449Z</time>
      </trkpt>
      <trkpt lat="42.96714" lon="-1.35634">
        <ele>880.850845</ele>
        <time>2022-02-21T20:56:10.585Z</time>
      </trkpt>
      <trkpt lat="42.9667" lon="-1.35668">
        <ele>880.629983</ele>
        <time>2022-02-21T20:56:20.879Z</time>
      </trkpt>
      <trkpt lat="42.96632" lon="-1.35688">
        <ele>880.286606</ele>
        <time>2022-02-21T20:56:28.989Z</time>
      </trkpt>
      <trkpt lat="42.96582" lon="-1.35693">
        <ele>879.558467</ele>
        <time>2022-02-21T20:56:38.743Z</time>
      </trkpt>
      <trkpt lat="42.96547" lon="-1.35705">
        <ele>879.021723</ele>
        <time>2022-02-21T20:56:45.699Z</time>
      </trkpt>
      <trkpt lat="42.96485" lon="-1.35736">
        <ele>878.055165</ele>
        <time>2022-02-21T20:56:58.134Z</time>
      </trkpt>
      <trkpt lat="42.9644" lon="-1.35773">
        <ele>876.893699</ele>
        <time>2022-02-21T20:57:07.654Z</time>
      </trkpt>
      <trkpt lat="42.96416" lon="-1.35786">
        <ele>876.240056</ele>
        <time>2022-02-21T20:57:12.416Z</time>
      </trkpt>
      <trkpt lat="42.96239" lon="-1.35847">
        <ele>871.576233</ele>
        <time>2022-02-21T20:57:44.460Z</time>
      </trkpt>
      <trkpt lat="42.96191" lon="-1.35873">
        <ele>870.18435</ele>
        <time>2022-02-21T20:57:53.612Z</time>
      </trkpt>
      <trkpt lat="42.96171" lon="-1.35906">
        <ele>869.331254</ele>
        <time>2022-02-21T20:57:59.064Z</time>
      </trkpt>
      <trkpt lat="42.96143" lon="-1.35977">
        <ele>867.576899</ele>
        <time>2022-02-21T20:58:09.234Z</time>
      </trkpt>
      <trkpt lat="42.96133" lon="-1.36043">
        <ele>866.034242</ele>
        <time>2022-02-21T20:58:17.609Z</time>
      </trkpt>
      <trkpt lat="42.96135" lon="-1.36121">
        <ele>864.217354</ele>
        <time>2022-02-21T20:58:27.399Z</time>
      </trkpt>
      <trkpt lat="42.96158" lon="-1.36219">
        <ele>862.233319</ele>
        <time>2022-02-21T20:58:40.143Z</time>
      </trkpt>
      <trkpt lat="42.96161" lon="-1.36252">
        <ele>861.733245</ele>
        <time>2022-02-21T20:58:44.538Z</time>
      </trkpt>
      <trkpt lat="42.96128" lon="-1.36308">
        <ele>860.665074</ele>
        <time>2022-02-21T20:58:54.328Z</time>
      </trkpt>
      <trkpt lat="42.961" lon="-1.36322">
        <ele>860.077403</ele>
        <time>2022-02-21T20:58:59.930Z</time>
      </trkpt>
      <trkpt lat="42.96071" lon="-1.36341">
        <ele>859.415313</ele>
        <time>2022-02-21T20:59:06.339Z</time>
      </trkpt>
      <trkpt lat="42.96053" lon="-1.36357">
        <ele>859.085158</ele>
        <time>2022-02-21T20:59:10.465Z</time>
      </trkpt>
      <trkpt lat="42.96045" lon="-1.36366">
        <ele>858.9377</ele>
        <time>2022-02-21T20:59:12.526Z</time>
      </trkpt>
      <trkpt lat="42.96039" lon="-1.3637">
        <ele>858.851971</ele>
        <time>2022-02-21T20:59:13.788Z</time>
      </trkpt>
      <trkpt lat="42.96036" lon="-1.36373">
        <ele>858.793553</ele>
        <time>2022-02-21T20:59:14.673Z</time>
      </trkpt>
      <trkpt lat="42.96004" lon="-1.36391">
        <ele>858.325827</ele>
        <time>2022-02-21T20:59:21.294Z</time>
      </trkpt>
      <trkpt lat="42.95882" lon="-1.36429">
        <ele>857.052642</ele>
        <time>2022-02-21T20:59:44.939Z</time>
      </trkpt>
      <trkpt lat="42.95851" lon="-1.36456">
        <ele>857.667204</ele>
        <time>2022-02-21T20:59:52.092Z</time>
      </trkpt>
      <trkpt lat="42.95806" lon="-1.36472">
        <ele>858.440969</ele>
        <time>2022-02-21T21:00:03.374Z</time>
      </trkpt>
      <trkpt lat="42.95792" lon="-1.36471">
        <ele>858.663485</ele>
        <time>2022-02-21T21:00:07.683Z</time>
      </trkpt>
      <trkpt lat="42.95779" lon="-1.36461">
        <ele>858.918213</ele>
        <time>2022-02-21T21:00:12.281Z</time>
      </trkpt>
      <trkpt lat="42.9577" lon="-1.36446">
        <ele>859.158326</ele>
        <time>2022-02-21T21:00:19.324Z</time>
      </trkpt>
      <trkpt lat="42.95752" lon="-1.36369">
        <ele>860.922568</ele>
        <time>2022-02-21T21:00:46.249Z</time>
      </trkpt>
      <trkpt lat="42.95727" lon="-1.36334">
        <ele>862.899311</ele>
        <time>2022-02-21T21:01:07.875Z</time>
      </trkpt>
      <trkpt lat="42.95711" lon="-1.36322">
        <ele>863.940184</ele>
        <time>2022-02-21T21:01:20.989Z</time>
      </trkpt>
      <trkpt lat="42.95696" lon="-1.36323">
        <ele>864.798001</ele>
        <time>2022-02-21T21:01:30.129Z</time>
      </trkpt>
      <trkpt lat="42.9568" lon="-1.36329">
        <ele>865.690138</ele>
        <time>2022-02-21T21:01:42.258Z</time>
      </trkpt>
      <trkpt lat="42.95657" lon="-1.36352">
        <ele>867.267712</ele>
        <time>2022-02-21T21:01:57.026Z</time>
      </trkpt>
      <trkpt lat="42.95641" lon="-1.36379">
        <ele>868.731076</ele>
        <time>2022-02-21T21:02:07.510Z</time>
      </trkpt>
      <trkpt lat="42.95629" lon="-1.36411">
        <ele>869.548913</ele>
        <time>2022-02-21T21:02:16.702Z</time>
      </trkpt>
      <trkpt lat="42.95626" lon="-1.36443">
        <ele>868.64</ele>
        <time>2022-02-21T21:02:23.173Z</time>
      </trkpt>
      <trkpt lat="42.9563" lon="-1.36505">
        <ele>866.922896</ele>
        <time>2022-02-21T21:02:31.440Z</time>
      </trkpt>
      <trkpt lat="42.95638" lon="-1.3653">
        <ele>866.14304</ele>
        <time>2022-02-21T21:02:34.756Z</time>
      </trkpt>
      <trkpt lat="42.95662" lon="-1.36569">
        <ele>864.755826</ele>
        <time>2022-02-21T21:02:40.395Z</time>
      </trkpt>
      <trkpt lat="42.95676" lon="-1.36617">
        <ele>863.301877</ele>
        <time>2022-02-21T21:02:46.064Z</time>
      </trkpt>
      <trkpt lat="42.95684" lon="-1.36715">
        <ele>858.936942</ele>
        <time>2022-02-21T21:02:56.403Z</time>
      </trkpt>
      <trkpt lat="42.9568" lon="-1.36747">
        <ele>857.469203</ele>
        <time>2022-02-21T21:02:59.801Z</time>
      </trkpt>
      <trkpt lat="42.9567" lon="-1.36771">
        <ele>856.157718</ele>
        <time>2022-02-21T21:03:02.873Z</time>
      </trkpt>
      <trkpt lat="42.95622" lon="-1.36823">
        <ele>852.291665</ele>
        <time>2022-02-21T21:03:12.894Z</time>
      </trkpt>
      <trkpt lat="42.9556" lon="-1.36877">
        <ele>850.194027</ele>
        <time>2022-02-21T21:03:26.309Z</time>
      </trkpt>
      <trkpt lat="42.95491" lon="-1.36918">
        <ele>848.541118</ele>
        <time>2022-02-21T21:03:40.369Z</time>
      </trkpt>
      <trkpt lat="42.9545" lon="-1.36965">
        <ele>847.359172</ele>
        <time>2022-02-21T21:03:50.010Z</time>
      </trkpt>
      <trkpt lat="42.95382" lon="-1.3707">
        <ele>844.931431</ele>
        <time>2022-02-21T21:04:08.631Z</time>
      </trkpt>
      <trkpt lat="42.9534" lon="-1.37115">
        <ele>843.666987</ele>
        <time>2022-02-21T21:04:18.189Z</time>
      </trkpt>
      <trkpt lat="42.95301" lon="-1.37172">
        <ele>841.447963</ele>
        <time>2022-02-21T21:04:28.187Z</time>
      </trkpt>
      <trkpt lat="42.95294" lon="-1.37223">
        <ele>839.805488</ele>
        <time>2022-02-21T21:04:34.550Z</time>
      </trkpt>
      <trkpt lat="42.95256" lon="-1.3729">
        <ele>837.137392</ele>
        <time>2022-02-21T21:04:44.480Z</time>
      </trkpt>
      <trkpt lat="42.95215" lon="-1.37325">
        <ele>834.780942</ele>
        <time>2022-02-21T21:04:51.885Z</time>
      </trkpt>
      <trkpt lat="42.95132" lon="-1.3744">
        <ele>827.135988</ele>
        <time>2022-02-21T21:05:09.554Z</time>
      </trkpt>
      <trkpt lat="42.95102" lon="-1.37474">
        <ele>824.609149</ele>
        <time>2022-02-21T21:05:15.477Z</time>
      </trkpt>
      <trkpt lat="42.95074" lon="-1.37482">
        <ele>823.351287</ele>
        <time>2022-02-21T21:05:19.941Z</time>
      </trkpt>
      <trkpt lat="42.94998" lon="-1.37453">
        <ele>820.857989</ele>
        <time>2022-02-21T21:05:32.958Z</time>
      </trkpt>
      <trkpt lat="42.94917" lon="-1.37435">
        <ele>818.25752</ele>
        <time>2022-02-21T21:05:48.673Z</time>
      </trkpt>
      <trkpt lat="42.94823" lon="-1.37474">
        <ele>815.87004</ele>
        <time>2022-02-21T21:06:07.348Z</time>
      </trkpt>
      <trkpt lat="42.94719" lon="-1.37569">
        <ele>812.6019</ele>
        <time>2022-02-21T21:06:28.545Z</time>
      </trkpt>
      <trkpt lat="42.94663" lon="-1.37605">
        <ele>810.751657</ele>
        <time>2022-02-21T21:06:38.690Z</time>
      </trkpt>
      <trkpt lat="42.94618" lon="-1.37605">
        <ele>809.406933</ele>
        <time>2022-02-21T21:06:46.462Z</time>
      </trkpt>
      <trkpt lat="42.94537" lon="-1.37581">
        <ele>807.811364</ele>
        <time>2022-02-21T21:07:02.862Z</time>
      </trkpt>
      <trkpt lat="42.94476" lon="-1.37546">
        <ele>806.956943</ele>
        <time>2022-02-21T21:07:17.804Z</time>
      </trkpt>
      <trkpt lat="42.94441" lon="-1.37548">
        <ele>806.503652</ele>
        <time>2022-02-21T21:07:24.865Z</time>
      </trkpt>
      <trkpt lat="42.94399" lon="-1.37579">
        <ele>804.881348</ele>
        <time>2022-02-21T21:07:33.876Z</time>
      </trkpt>
      <trkpt lat="42.94263" lon="-1.37804">
        <ele>791.764855</ele>
        <time>2022-02-21T21:08:05.903Z</time>
      </trkpt>
      <trkpt lat="42.94183" lon="-1.37867">
        <ele>785.489262</ele>
        <time>2022-02-21T21:08:19.490Z</time>
      </trkpt>
      <trkpt lat="42.94153" lon="-1.37877">
        <ele>783.435702</ele>
        <time>2022-02-21T21:08:24.192Z</time>
      </trkpt>
      <trkpt lat="42.94125" lon="-1.37863">
        <ele>782.787262</ele>
        <time>2022-02-21T21:08:29.085Z</time>
      </trkpt>
      <trkpt lat="42.9409" lon="-1.37833">
        <ele>782.066053</ele>
        <time>2022-02-21T21:08:36.042Z</time>
      </trkpt>
      <trkpt lat="42.94067" lon="-1.37797">
        <ele>781.452488</ele>
        <time>2022-02-21T21:08:42.557Z</time>
      </trkpt>
      <trkpt lat="42.94054" lon="-1.37739">
        <ele>780.671823</ele>
        <time>2022-02-21T21:08:53.648Z</time>
      </trkpt>
      <trkpt lat="42.94032" lon="-1.37681">
        <ele>780.110466</ele>
        <time>2022-02-21T21:09:07.723Z</time>
      </trkpt>
      <trkpt lat="42.93982" lon="-1.37642">
        <ele>780.06066</ele>
        <time>2022-02-21T21:09:22.613Z</time>
      </trkpt>
      <trkpt lat="42.93956" lon="-1.37632">
        <ele>780.037711</ele>
        <time>2022-02-21T21:09:28.270Z</time>
      </trkpt>
      <trkpt lat="42.93939" lon="-1.37638">
        <ele>780.022589</ele>
        <time>2022-02-21T21:09:32.168Z</time>
      </trkpt>
      <trkpt lat="42.93888" lon="-1.37686">
        <ele>779.932999</ele>
        <time>2022-02-21T21:09:44.808Z</time>
      </trkpt>
      <trkpt lat="42.93845" lon="-1.37693">
        <ele>778.80849</ele>
        <time>2022-02-21T21:09:53.353Z</time>
      </trkpt>
      <trkpt lat="42.93713" lon="-1.37673">
        <ele>775.365342</ele>
        <time>2022-02-21T21:10:16.462Z</time>
      </trkpt>
      <trkpt lat="42.93662" lon="-1.377">
        <ele>772.08868</ele>
        <time>2022-02-21T21:10:25.133Z</time>
      </trkpt>
      <trkpt lat="42.9357" lon="-1.37784">
        <ele>765.224978</ele>
        <time>2022-02-21T21:10:41.795Z</time>
      </trkpt>
      <trkpt lat="42.93518" lon="-1.37799">
        <ele>761.745873</ele>
        <time>2022-02-21T21:10:49.600Z</time>
      </trkpt>
      <trkpt lat="42.9332" lon="-1.37799">
        <ele>748.644178</ele>
        <time>2022-02-21T21:11:19.691Z</time>
      </trkpt>
      <trkpt lat="42.93258" lon="-1.37834">
        <ele>744.361005</ele>
        <time>2022-02-21T21:11:30.056Z</time>
      </trkpt>
      <trkpt lat="42.93079" lon="-1.37889">
        <ele>732.405412</ele>
        <time>2022-02-21T21:11:57.844Z</time>
      </trkpt>
      <trkpt lat="42.93051" lon="-1.37887">
        <ele>730.56404</ele>
        <time>2022-02-21T21:12:02.162Z</time>
      </trkpt>
      <trkpt lat="42.92886" lon="-1.37822">
        <ele>720.103747</ele>
        <time>2022-02-21T21:12:28.328Z</time>
      </trkpt>
      <trkpt lat="42.92868" lon="-1.37825">
        <ele>719.002671</ele>
        <time>2022-02-21T21:12:31.114Z</time>
      </trkpt>
      <trkpt lat="42.92848" lon="-1.37842">
        <ele>717.738699</ele>
        <time>2022-02-21T21:12:34.754Z</time>
      </trkpt>
      <trkpt lat="42.92825" lon="-1.37844">
        <ele>716.841789</ele>
        <time>2022-02-21T21:12:38.322Z</time>
      </trkpt>
      <trkpt lat="42.92654" lon="-1.37819">
        <ele>710.649746</ele>
        <time>2022-02-21T21:13:07.190Z</time>
      </trkpt>
      <trkpt lat="42.92422" lon="-1.37819">
        <ele>707.486678</ele>
        <time>2022-02-21T21:13:54.090Z</time>
      </trkpt>
      <trkpt lat="42.92366" lon="-1.37817">
        <ele>706.772953</ele>
        <time>2022-02-21T21:14:04.867Z</time>
      </trkpt>
      <trkpt lat="42.92351" lon="-1.37814">
        <ele>706.587108</ele>
        <time>2022-02-21T21:14:07.577Z</time>
      </trkpt>
      <trkpt lat="42.92312" lon="-1.37782">
        <ele>705.933438</ele>
        <time>2022-02-21T21:14:16.008Z</time>
      </trkpt>
      <trkpt lat="42.92292" lon="-1.37778">
        <ele>705.529163</ele>
        <time>2022-02-21T21:14:19.873Z</time>
      </trkpt>
      <trkpt lat="42.92232" lon="-1.37777">
        <ele>704.34977</ele>
        <time>2022-02-21T21:14:30.695Z</time>
      </trkpt>
      <trkpt lat="42.91983" lon="-1.37814">
        <ele>699.434893</ele>
        <time>2022-02-21T21:15:16.916Z</time>
      </trkpt>
      <trkpt lat="42.91965" lon="-1.37808">
        <ele>699.060114</ele>
        <time>2022-02-21T21:15:20.442Z</time>
      </trkpt>
      <trkpt lat="42.91849" lon="-1.37745">
        <ele>696.064472</ele>
        <time>2022-02-21T21:15:42.830Z</time>
      </trkpt>
      <trkpt lat="42.91782" lon="-1.37729">
        <ele>694.413686</ele>
        <time>2022-02-21T21:15:54.756Z</time>
      </trkpt>
      <trkpt lat="42.91732" lon="-1.37735">
        <ele>693.095226</ele>
        <time>2022-02-21T21:16:03.549Z</time>
      </trkpt>
      <trkpt lat="42.91654" lon="-1.37754">
        <ele>691.032062</ele>
        <time>2022-02-21T21:16:17.340Z</time>
      </trkpt>
      <trkpt lat="42.91587" lon="-1.37738">
        <ele>689.518599</ele>
        <time>2022-02-21T21:16:29.468Z</time>
      </trkpt>
      <trkpt lat="42.9147" lon="-1.37742">
        <ele>687.466497</ele>
        <time>2022-02-21T21:16:51.358Z</time>
      </trkpt>
      <trkpt lat="42.9144" lon="-1.37764">
        <ele>686.877496</ele>
        <time>2022-02-21T21:16:58.075Z</time>
      </trkpt>
      <trkpt lat="42.91379" lon="-1.37847">
        <ele>685.9373</ele>
        <time>2022-02-21T21:17:15.330Z</time>
      </trkpt>
      <trkpt lat="42.91348" lon="-1.37983">
        <ele>684.775154</ele>
        <time>2022-02-21T21:17:35.983Z</time>
      </trkpt>
      <trkpt lat="42.91328" lon="-1.38032">
        <ele>684.24694</ele>
        <time>2022-02-21T21:17:43.773Z</time>
      </trkpt>
      <trkpt lat="42.91254" lon="-1.38163">
        <ele>682.65576</ele>
        <time>2022-02-21T21:18:07.187Z</time>
      </trkpt>
      <trkpt lat="42.91243" lon="-1.38174">
        <ele>682.470158</ele>
        <time>2022-02-21T21:18:09.853Z</time>
      </trkpt>
      <trkpt lat="42.91231" lon="-1.38176">
        <ele>682.314543</ele>
        <time>2022-02-21T21:18:12.077Z</time>
      </trkpt>
      <trkpt lat="42.91198" lon="-1.38172">
        <ele>681.871882</ele>
        <time>2022-02-21T21:18:18.449Z</time>
      </trkpt>
      <trkpt lat="42.91052" lon="-1.38143">
        <ele>680.01794</ele>
        <time>2022-02-21T21:18:47.072Z</time>
      </trkpt>
      <trkpt lat="42.91027" lon="-1.38133">
        <ele>679.806221</ele>
        <time>2022-02-21T21:18:52.030Z</time>
      </trkpt>
      <trkpt lat="42.90714" lon="-1.37934">
        <ele>678.111777</ele>
        <time>2022-02-21T21:20:03.599Z</time>
      </trkpt>
      <trkpt lat="42.90663" lon="-1.37914">
        <ele>678.462937</ele>
        <time>2022-02-21T21:20:19.844Z</time>
      </trkpt>
      <trkpt lat="42.90578" lon="-1.37906">
        <ele>679.019811</ele>
        <time>2022-02-21T21:20:44.016Z</time>
      </trkpt>
      <trkpt lat="42.90547" lon="-1.37913">
        <ele>678.763612</ele>
        <time>2022-02-21T21:20:51.294Z</time>
      </trkpt>
      <trkpt lat="42.90434" lon="-1.37971">
        <ele>677.152282</ele>
        <time>2022-02-21T21:21:14.204Z</time>
      </trkpt>
      <trkpt lat="42.90408" lon="-1.37976">
        <ele>676.790791</ele>
        <time>2022-02-21T21:21:18.948Z</time>
      </trkpt>
      <trkpt lat="42.90374" lon="-1.37962">
        <ele>675.910133</ele>
        <time>2022-02-21T21:21:25.180Z</time>
      </trkpt>
      <trkpt lat="42.90277" lon="-1.37896">
        <ele>672.674118</ele>
        <time>2022-02-21T21:21:43.946Z</time>
      </trkpt>
      <trkpt lat="42.90249" lon="-1.37885">
        <ele>671.820749</ele>
        <time>2022-02-21T21:21:49.001Z</time>
      </trkpt>
      <trkpt lat="42.90134" lon="-1.37866">
        <ele>667.182003</ele>
        <time>2022-02-21T21:22:08.174Z</time>
      </trkpt>
      <trkpt lat="42.89982" lon="-1.37871">
        <ele>661.326322</ele>
        <time>2022-02-21T21:22:32.548Z</time>
      </trkpt>
      <trkpt lat="42.89645" lon="-1.37772">
        <ele>652.082163</ele>
        <time>2022-02-21T21:23:33.711Z</time>
      </trkpt>
      <trkpt lat="42.89568" lon="-1.3775">
        <ele>650.602764</ele>
        <time>2022-02-21T21:23:48.797Z</time>
      </trkpt>
      <trkpt lat="42.89524" lon="-1.37747">
        <ele>649.781437</ele>
        <time>2022-02-21T21:23:57.033Z</time>
      </trkpt>
      <trkpt lat="42.89457" lon="-1.37765">
        <ele>648.121378</ele>
        <time>2022-02-21T21:24:09.683Z</time>
      </trkpt>
      <trkpt lat="42.89327" lon="-1.37831">
        <ele>645.261257</ele>
        <time>2022-02-21T21:24:33.849Z</time>
      </trkpt>
      <trkpt lat="42.89305" lon="-1.37835">
        <ele>645.146402</ele>
        <time>2022-02-21T21:24:37.696Z</time>
      </trkpt>
      <trkpt lat="42.89274" lon="-1.37821">
        <ele>644.980213</ele>
        <time>2022-02-21T21:24:43.704Z</time>
      </trkpt>
      <trkpt lat="42.89178" lon="-1.37721">
        <ele>645.125137</ele>
        <time>2022-02-21T21:25:16.743Z</time>
      </trkpt>
      <trkpt lat="42.8915" lon="-1.37692">
        <ele>646.138226</ele>
        <time>2022-02-21T21:25:29.406Z</time>
      </trkpt>
      <trkpt lat="42.89113" lon="-1.37663">
        <ele>647.368111</ele>
        <time>2022-02-21T21:25:46.097Z</time>
      </trkpt>
      <trkpt lat="42.89071" lon="-1.37654">
        <ele>648.603001</ele>
        <time>2022-02-21T21:26:03.776Z</time>
      </trkpt>
      <trkpt lat="42.88993" lon="-1.37679">
        <ele>650.015893</ele>
        <time>2022-02-21T21:26:36.323Z</time>
      </trkpt>
      <trkpt lat="42.88959" lon="-1.37696">
        <ele>650.274833</ele>
        <time>2022-02-21T21:26:46.888Z</time>
      </trkpt>
      <trkpt lat="42.88911" lon="-1.37743">
        <ele>650.691276</ele>
        <time>2022-02-21T21:26:59.327Z</time>
      </trkpt>
      <trkpt lat="42.88884" lon="-1.37761">
        <ele>650.91008</ele>
        <time>2022-02-21T21:27:05.337Z</time>
      </trkpt>
      <trkpt lat="42.88809" lon="-1.37788">
        <ele>649.103683</ele>
        <time>2022-02-21T21:27:19.679Z</time>
      </trkpt>
      <trkpt lat="42.88777" lon="-1.37794">
        <ele>648.153921</ele>
        <time>2022-02-21T21:27:25.506Z</time>
      </trkpt>
      <trkpt lat="42.88609" lon="-1.37793">
        <ele>641.026383</ele>
        <time>2022-02-21T21:27:52.986Z</time>
      </trkpt>
      <trkpt lat="42.88398" lon="-1.37718">
        <ele>627.9886</ele>
        <time>2022-02-21T21:28:25.922Z</time>
      </trkpt>
      <trkpt lat="42.88372" lon="-1.37718">
        <ele>626.380396</ele>
        <time>2022-02-21T21:28:29.865Z</time>
      </trkpt>
      <trkpt lat="42.88359" lon="-1.3773">
        <ele>625.382488</ele>
        <time>2022-02-21T21:28:32.275Z</time>
      </trkpt>
      <trkpt lat="42.88357" lon="-1.37732">
        <ele>625.236108</ele>
        <time>2022-02-21T21:28:32.653Z</time>
      </trkpt>
      <trkpt lat="42.88327" lon="-1.37792">
        <ele>623.000595</ele>
        <time>2022-02-21T21:28:41.148Z</time>
      </trkpt>
      <trkpt lat="42.88326" lon="-1.37796">
        <ele>622.885495</ele>
        <time>2022-02-21T21:28:41.654Z</time>
      </trkpt>
      <trkpt lat="42.88304" lon="-1.37828">
        <ele>621.738317</ele>
        <time>2022-02-21T21:28:46.887Z</time>
      </trkpt>
      <trkpt lat="42.8829" lon="-1.37838">
        <ele>621.150364</ele>
        <time>2022-02-21T21:28:49.586Z</time>
      </trkpt>
      <trkpt lat="42.88191" lon="-1.37885">
        <ele>617.765465</ele>
        <time>2022-02-21T21:29:07.959Z</time>
      </trkpt>
      <trkpt lat="42.8808" lon="-1.37938">
        <ele>616.042382</ele>
        <time>2022-02-21T21:29:30.670Z</time>
      </trkpt>
      <trkpt lat="42.88061" lon="-1.37948">
        <ele>615.751039</ele>
        <time>2022-02-21T21:29:34.655Z</time>
      </trkpt>
      <trkpt lat="42.88021" lon="-1.37966">
        <ele>615.247037</ele>
        <time>2022-02-21T21:29:43.129Z</time>
      </trkpt>
      <trkpt lat="42.87947" lon="-1.37999">
        <ele>614.601905</ele>
        <time>2022-02-21T21:29:58.920Z</time>
      </trkpt>
      <trkpt lat="42.87732" lon="-1.37954">
        <ele>612.766031</ele>
        <time>2022-02-21T21:30:42.924Z</time>
      </trkpt>
      <trkpt lat="42.87612" lon="-1.37957">
        <ele>611.716084</ele>
        <time>2022-02-21T21:31:06.954Z</time>
      </trkpt>
      <trkpt lat="42.87549" lon="-1.37982">
        <ele>611.133252</ele>
        <time>2022-02-21T21:31:20.154Z</time>
      </trkpt>
      <trkpt lat="42.87545" lon="-1.37983">
        <ele>611.10049</ele>
        <time>2022-02-21T21:31:20.862Z</time>
      </trkpt>
      <trkpt lat="42.87541" lon="-1.37985">
        <ele>611.06623</ele>
        <time>2022-02-21T21:31:21.620Z</time>
      </trkpt>
      <trkpt lat="42.87514" lon="-1.37997">
        <ele>610.810413</ele>
        <time>2022-02-21T21:31:27.495Z</time>
      </trkpt>
      <trkpt lat="42.87485" lon="-1.38016">
        <ele>610.615438</ele>
        <time>2022-02-21T21:31:33.951Z</time>
      </trkpt>
      <trkpt lat="42.87475" lon="-1.38022">
        <ele>610.552468</ele>
        <time>2022-02-21T21:31:36.113Z</time>
      </trkpt>
      <trkpt lat="42.87339" lon="-1.38105">
        <ele>609.695372</ele>
        <time>2022-02-21T21:32:07.466Z</time>
      </trkpt>
      <trkpt lat="42.87228" lon="-1.38125">
        <ele>609.0732</ele>
        <time>2022-02-21T21:32:31.098Z</time>
      </trkpt>
      <trkpt lat="42.86664" lon="-1.38209">
        <ele>604.930312</ele>
        <time>2022-02-21T21:34:26.365Z</time>
      </trkpt>
      <trkpt lat="42.86601" lon="-1.38193">
        <ele>604.495266</ele>
        <time>2022-02-21T21:34:39.769Z</time>
      </trkpt>
      <trkpt lat="42.86534" lon="-1.38157">
        <ele>604.05765</ele>
        <time>2022-02-21T21:34:54.288Z</time>
      </trkpt>
      <trkpt lat="42.86454" lon="-1.38096">
        <ele>603.570674</ele>
        <time>2022-02-21T21:35:13.446Z</time>
      </trkpt>
      <trkpt lat="42.86366" lon="-1.38022">
        <ele>603.423564</ele>
        <time>2022-02-21T21:35:35.744Z</time>
      </trkpt>
      <trkpt lat="42.86321" lon="-1.37987">
        <ele>603.349794</ele>
        <time>2022-02-21T21:35:47.809Z</time>
      </trkpt>
      <trkpt lat="42.8626" lon="-1.37942">
        <ele>603.227639</ele>
        <time>2022-02-21T21:36:04.261Z</time>
      </trkpt>
      <trkpt lat="42.86099" lon="-1.37842">
        <ele>602.514203</ele>
        <time>2022-02-21T21:36:41.722Z</time>
      </trkpt>
      <trkpt lat="42.85876" lon="-1.37665">
        <ele>600.694427</ele>
        <time>2022-02-21T21:37:32.690Z</time>
      </trkpt>
      <trkpt lat="42.85841" lon="-1.37643">
        <ele>600.471856</ele>
        <time>2022-02-21T21:37:41.997Z</time>
      </trkpt>
      <trkpt lat="42.85778" lon="-1.37616">
        <ele>601.374625</ele>
        <time>2022-02-21T21:37:59.847Z</time>
      </trkpt>
      <trkpt lat="42.85706" lon="-1.37605">
        <ele>602.486788</ele>
        <time>2022-02-21T21:38:22.475Z</time>
      </trkpt>
      <trkpt lat="42.85546" lon="-1.37602">
        <ele>605.417573</ele>
        <time>2022-02-21T21:39:16.512Z</time>
      </trkpt>
      <trkpt lat="42.85506" lon="-1.37601">
        <ele>606.186464</ele>
        <time>2022-02-21T21:39:28.496Z</time>
      </trkpt>
      <trkpt lat="42.85438" lon="-1.37602">
        <ele>606.468553</ele>
        <time>2022-02-21T21:39:48.217Z</time>
      </trkpt>
      <trkpt lat="42.85384" lon="-1.37618">
        <ele>606.146077</ele>
        <time>2022-02-21T21:40:02.044Z</time>
      </trkpt>
      <trkpt lat="42.85362" lon="-1.37633">
        <ele>606.006865</ele>
        <time>2022-02-21T21:40:06.848Z</time>
      </trkpt>
      <trkpt lat="42.85326" lon="-1.37675">
        <ele>605.728057</ele>
        <time>2022-02-21T21:40:15.380Z</time>
      </trkpt>
      <trkpt lat="42.85286" lon="-1.37743">
        <ele>603.835391</ele>
        <time>2022-02-21T21:40:26.161Z</time>
      </trkpt>
      <trkpt lat="42.85263" lon="-1.37842">
        <ele>601.182465</ele>
        <time>2022-02-21T21:40:38.779Z</time>
      </trkpt>
      <trkpt lat="42.85253" lon="-1.37931">
        <ele>599.185962</ele>
        <time>2022-02-21T21:40:49.731Z</time>
      </trkpt>
      <trkpt lat="42.85236" lon="-1.38077">
        <ele>597.642438</ele>
        <time>2022-02-21T21:41:09.217Z</time>
      </trkpt>
      <trkpt lat="42.852" lon="-1.38383">
        <ele>598.807661</ele>
        <time>2022-02-21T21:42:12.089Z</time>
      </trkpt>
      <trkpt lat="42.85181" lon="-1.38461">
        <ele>599.90556</ele>
        <time>2022-02-21T21:42:31.160Z</time>
      </trkpt>
      <trkpt lat="42.85128" lon="-1.38603">
        <ele>602.190491</ele>
        <time>2022-02-21T21:43:09.298Z</time>
      </trkpt>
      <trkpt lat="42.85105" lon="-1.38682">
        <ele>603.674989</ele>
        <time>2022-02-21T21:43:29.480Z</time>
      </trkpt>
      <trkpt lat="42.85098" lon="-1.38774">
        <ele>605.37985</ele>
        <time>2022-02-21T21:43:52.929Z</time>
      </trkpt>
      <trkpt lat="42.85107" lon="-1.38934">
        <ele>608.951395</ele>
        <time>2022-02-21T21:44:36.109Z</time>
      </trkpt>
      <trkpt lat="42.85102" lon="-1.38993">
        <ele>610.539003</ele>
        <time>2022-02-21T21:44:53.802Z</time>
      </trkpt>
      <trkpt lat="42.8509" lon="-1.39049">
        <ele>612.122559</ele>
        <time>2022-02-21T21:45:12.055Z</time>
      </trkpt>
      <trkpt lat="42.85072" lon="-1.39095">
        <ele>613.496662</ele>
        <time>2022-02-21T21:45:28.321Z</time>
      </trkpt>
      <trkpt lat="42.85047" lon="-1.3914">
        <ele>615.57657</ele>
        <time>2022-02-21T21:45:46.597Z</time>
      </trkpt>
      <trkpt lat="42.84974" lon="-1.39229">
        <ele>620.511043</ele>
        <time>2022-02-21T21:46:31.542Z</time>
      </trkpt>
      <trkpt lat="42.84938" lon="-1.39279">
        <ele>623.276263</ele>
        <time>2022-02-21T21:46:58.450Z</time>
      </trkpt>
      <trkpt lat="42.8491" lon="-1.39337">
        <ele>626.815926</ele>
        <time>2022-02-21T21:47:27.187Z</time>
      </trkpt>
      <trkpt lat="42.84885" lon="-1.39412">
        <ele>630.951488</ele>
        <time>2022-02-21T21:48:00.894Z</time>
      </trkpt>
      <trkpt lat="42.84855" lon="-1.39527">
        <ele>637.417564</ele>
        <time>2022-02-21T21:48:54.278Z</time>
      </trkpt>
      <trkpt lat="42.84829" lon="-1.39595">
        <ele>641.892316</ele>
        <time>2022-02-21T21:49:30.356Z</time>
      </trkpt>
      <trkpt lat="42.84792" lon="-1.39659">
        <ele>646.576722</ele>
        <time>2022-02-21T21:50:08.655Z</time>
      </trkpt>
      <trkpt lat="42.84715" lon="-1.39777">
        <ele>655.110829</ele>
        <time>2022-02-21T21:51:16.590Z</time>
      </trkpt>
      <trkpt lat="42.84697" lon="-1.39812">
        <ele>657.316681</ele>
        <time>2022-02-21T21:51:34.572Z</time>
      </trkpt>
      <trkpt lat="42.84669" lon="-1.39889">
        <ele>661.848587</ele>
        <time>2022-02-21T21:52:10.640Z</time>
      </trkpt>
      <trkpt lat="42.84651" lon="-1.39966">
        <ele>666.095427</ele>
        <time>2022-02-21T21:52:43.697Z</time>
      </trkpt>
      <trkpt lat="42.84647" lon="-1.40007">
        <ele>668.291251</ele>
        <time>2022-02-21T21:53:00.639Z</time>
      </trkpt>
      <trkpt lat="42.84636" lon="-1.40203">
        <ele>679.435677</ele>
        <time>2022-02-21T21:54:26.786Z</time>
      </trkpt>
      <trkpt lat="42.84603" lon="-1.40357">
        <ele>689.728982</ele>
        <time>2022-02-21T21:55:50.421Z</time>
      </trkpt>
      <trkpt lat="42.84596" lon="-1.40436">
        <ele>692.701018</ele>
        <time>2022-02-21T21:56:29.741Z</time>
      </trkpt>
      <trkpt lat="42.84585" lon="-1.40792">
        <ele>696.886284</ele>
        <time>2022-02-21T21:57:58.817Z</time>
      </trkpt>
      <trkpt lat="42.8456" lon="-1.40893">
        <ele>693.405984</ele>
        <time>2022-02-21T21:58:10.234Z</time>
      </trkpt>
      <trkpt lat="42.84517" lon="-1.41007">
        <ele>683.497098</ele>
        <time>2022-02-21T21:58:23.349Z</time>
      </trkpt>
      <trkpt lat="42.84473" lon="-1.4107">
        <ele>676.84276</ele>
        <time>2022-02-21T21:58:32.198Z</time>
      </trkpt>
      <trkpt lat="42.84444" lon="-1.41094">
        <ele>673.682586</ele>
        <time>2022-02-21T21:58:36.944Z</time>
      </trkpt>
      <trkpt lat="42.84414" lon="-1.41111">
        <ele>670.645964</ele>
        <time>2022-02-21T21:58:41.527Z</time>
      </trkpt>
      <trkpt lat="42.84352" lon="-1.41122">
        <ele>664.745682</ele>
        <time>2022-02-21T21:58:50.582Z</time>
      </trkpt>
      <trkpt lat="42.84265" lon="-1.41122">
        <ele>658.037321</ele>
        <time>2022-02-21T21:59:03.498Z</time>
      </trkpt>
      <trkpt lat="42.84133" lon="-1.41163">
        <ele>649.860567</ele>
        <time>2022-02-21T21:59:24.646Z</time>
      </trkpt>
      <trkpt lat="42.84024" lon="-1.41156">
        <ele>643.035074</ele>
        <time>2022-02-21T21:59:41.713Z</time>
      </trkpt>
      <trkpt lat="42.83996" lon="-1.41158">
        <ele>641.227387</ele>
        <time>2022-02-21T21:59:46.017Z</time>
      </trkpt>
      <trkpt lat="42.83951" lon="-1.41171">
        <ele>638.318513</ele>
        <time>2022-02-21T21:59:52.843Z</time>
      </trkpt>
      <trkpt lat="42.83835" lon="-1.41217">
        <ele>629.25278</ele>
        <time>2022-02-21T22:00:10.456Z</time>
      </trkpt>
      <trkpt lat="42.83771" lon="-1.41231">
        <ele>624.609683</ele>
        <time>2022-02-21T22:00:20.150Z</time>
      </trkpt>
      <trkpt lat="42.83699" lon="-1.41229">
        <ele>621.567917</ele>
        <time>2022-02-21T22:00:31.456Z</time>
      </trkpt>
      <trkpt lat="42.83638" lon="-1.41215">
        <ele>618.942952</ele>
        <time>2022-02-21T22:00:41.904Z</time>
      </trkpt>
      <trkpt lat="42.83582" lon="-1.41193">
        <ele>616.806384</ele>
        <time>2022-02-21T22:00:52.364Z</time>
      </trkpt>
      <trkpt lat="42.83476" lon="-1.41133">
        <ele>613.94651</ele>
        <time>2022-02-21T22:01:13.257Z</time>
      </trkpt>
      <trkpt lat="42.83231" lon="-1.41055">
        <ele>605.901334</ele>
        <time>2022-02-21T22:01:56.424Z</time>
      </trkpt>
      <trkpt lat="42.83006" lon="-1.41042">
        <ele>596.773356</ele>
        <time>2022-02-21T22:02:32.500Z</time>
      </trkpt>
      <trkpt lat="42.8292" lon="-1.41021">
        <ele>593.843071</ele>
        <time>2022-02-21T22:02:47.659Z</time>
      </trkpt>
      <trkpt lat="42.82852" lon="-1.40997">
        <ele>592.432957</ele>
        <time>2022-02-21T22:03:00.929Z</time>
      </trkpt>
      <trkpt lat="42.82764" lon="-1.40956">
        <ele>591.13412</ele>
        <time>2022-02-21T22:03:19.277Z</time>
      </trkpt>
      <trkpt lat="42.82696" lon="-1.40908">
        <ele>590.613421</ele>
        <time>2022-02-21T22:03:33.815Z</time>
      </trkpt>
      <trkpt lat="42.82548" lon="-1.40785">
        <ele>591.32912</ele>
        <time>2022-02-21T22:04:15.064Z</time>
      </trkpt>
      <trkpt lat="42.82482" lon="-1.40737">
        <ele>592.949251</ele>
        <time>2022-02-21T22:04:42.520Z</time>
      </trkpt>
      <trkpt lat="42.82436" lon="-1.40713">
        <ele>594.024293</ele>
        <time>2022-02-21T22:05:01.774Z</time>
      </trkpt>
      <trkpt lat="42.82404" lon="-1.40703">
        <ele>594.454951</ele>
        <time>2022-02-21T22:05:13.565Z</time>
      </trkpt>
      <trkpt lat="42.8233" lon="-1.40696">
        <ele>593.738353</ele>
        <time>2022-02-21T22:05:32.908Z</time>
      </trkpt>
      <trkpt lat="42.82296" lon="-1.40699">
        <ele>593.412535</ele>
        <time>2022-02-21T22:05:39.260Z</time>
      </trkpt>
      <trkpt lat="42.82225" lon="-1.4072">
        <ele>592.393882</ele>
        <time>2022-02-21T22:05:51.565Z</time>
      </trkpt>
      <trkpt lat="42.82086" lon="-1.40782">
        <ele>586.295856</ele>
        <time>2022-02-21T22:06:15.159Z</time>
      </trkpt>
      <trkpt lat="42.82022" lon="-1.4079">
        <ele>584.146087</ele>
        <time>2022-02-21T22:06:25.839Z</time>
      </trkpt>
      <trkpt lat="42.8196" lon="-1.40779">
        <ele>582.318537</ele>
        <time>2022-02-21T22:06:36.696Z</time>
      </trkpt>
      <trkpt lat="42.81912" lon="-1.40758">
        <ele>580.847937</ele>
        <time>2022-02-21T22:06:45.723Z</time>
      </trkpt>
      <trkpt lat="42.81767" lon="-1.40668">
        <ele>576.768291</ele>
        <time>2022-02-21T22:07:14.292Z</time>
      </trkpt>
      <trkpt lat="42.81694" lon="-1.4064">
        <ele>574.73579</ele>
        <time>2022-02-21T22:07:27.628Z</time>
      </trkpt>
      <trkpt lat="42.8154" lon="-1.40596">
        <ele>569.946731</ele>
        <time>2022-02-21T22:07:54.826Z</time>
      </trkpt>
      <trkpt lat="42.81462" lon="-1.40562">
        <ele>567.060842</ele>
        <time>2022-02-21T22:08:08.487Z</time>
      </trkpt>
      <trkpt lat="42.81219" lon="-1.40417">
        <ele>558.285133</ele>
        <time>2022-02-21T22:08:53.044Z</time>
      </trkpt>
      <trkpt lat="42.81091" lon="-1.40341">
        <ele>557.6573</ele>
        <time>2022-02-21T22:09:21.241Z</time>
      </trkpt>
      <trkpt lat="42.81011" lon="-1.40281">
        <ele>558.802888</ele>
        <time>2022-02-21T22:09:48.874Z</time>
      </trkpt>
      <trkpt lat="42.8085" lon="-1.40098">
        <ele>565.848171</ele>
        <time>2022-02-21T22:11:12.628Z</time>
      </trkpt>
      <trkpt lat="42.80743" lon="-1.40008">
        <ele>571.344888</ele>
        <time>2022-02-21T22:12:08.317Z</time>
      </trkpt>
      <trkpt lat="42.80652" lon="-1.3988">
        <ele>579.179976</ele>
        <time>2022-02-21T22:13:12.065Z</time>
      </trkpt>
      <trkpt lat="42.8063" lon="-1.39857">
        <ele>580.84557</ele>
        <time>2022-02-21T22:13:30.565Z</time>
      </trkpt>
      <trkpt lat="42.80583" lon="-1.39828">
        <ele>585.207502</ele>
        <time>2022-02-21T22:14:06.528Z</time>
      </trkpt>
      <trkpt lat="42.80559" lon="-1.39821">
        <ele>587.313428</ele>
        <time>2022-02-21T22:14:23.078Z</time>
      </trkpt>
      <trkpt lat="42.80484" lon="-1.39824">
        <ele>593.697954</ele>
        <time>2022-02-21T22:15:12.913Z</time>
      </trkpt>
      <trkpt lat="42.80441" lon="-1.39831">
        <ele>596.885061</ele>
        <time>2022-02-21T22:15:40.167Z</time>
      </trkpt>
      <trkpt lat="42.8039" lon="-1.3983">
        <ele>599.326097</ele>
        <time>2022-02-21T22:16:10.142Z</time>
      </trkpt>
      <trkpt lat="42.80335" lon="-1.39811">
        <ele>602.044617</ele>
        <time>2022-02-21T22:16:36.342Z</time>
      </trkpt>
      <trkpt lat="42.80309" lon="-1.39794">
        <ele>603.389046</ele>
        <time>2022-02-21T22:16:45.395Z</time>
      </trkpt>
      <trkpt lat="42.80261" lon="-1.39746">
        <ele>605.211128</ele>
        <time>2022-02-21T22:17:02.755Z</time>
      </trkpt>
      <trkpt lat="42.8024" lon="-1.39712">
        <ele>605.664027</ele>
        <time>2022-02-21T22:17:12.341Z</time>
      </trkpt>
      <trkpt lat="42.802" lon="-1.39624">
        <ele>606.68495</ele>
        <time>2022-02-21T22:17:33.896Z</time>
      </trkpt>
      <trkpt lat="42.80149" lon="-1.39479">
        <ele>608.904632</ele>
        <time>2022-02-21T22:18:06.920Z</time>
      </trkpt>
      <trkpt lat="42.80142" lon="-1.39441">
        <ele>609.524646</ele>
        <time>2022-02-21T22:18:15.919Z</time>
      </trkpt>
      <trkpt lat="42.80137" lon="-1.39368">
        <ele>610.685169</ele>
        <time>2022-02-21T22:18:33.781Z</time>
      </trkpt>
      <trkpt lat="42.80144" lon="-1.39301">
        <ele>613.00322</ele>
        <time>2022-02-21T22:18:54.772Z</time>
      </trkpt>
      <trkpt lat="42.80178" lon="-1.39176">
        <ele>619.354022</ele>
        <time>2022-02-21T22:19:48.034Z</time>
      </trkpt>
      <trkpt lat="42.80194" lon="-1.39094">
        <ele>623.703781</ele>
        <time>2022-02-21T22:20:27.867Z</time>
      </trkpt>
      <trkpt lat="42.80193" lon="-1.3899">
        <ele>631.293291</ele>
        <time>2022-02-21T22:21:20.645Z</time>
      </trkpt>
      <trkpt lat="42.80181" lon="-1.38922">
        <ele>636.408567</ele>
        <time>2022-02-21T22:22:05.226Z</time>
      </trkpt>
      <trkpt lat="42.8016" lon="-1.38857">
        <ele>640.883725</ele>
        <time>2022-02-21T22:22:43.834Z</time>
      </trkpt>
      <trkpt lat="42.80143" lon="-1.38822">
        <ele>641.464532</ele>
        <time>2022-02-21T22:23:02.109Z</time>
      </trkpt>
      <trkpt lat="42.80104" lon="-1.38761">
        <ele>642.597191</ele>
        <time>2022-02-21T22:23:31.617Z</time>
      </trkpt>
      <trkpt lat="42.79918" lon="-1.38491">
        <ele>633.888032</ele>
        <time>2022-02-21T22:24:17.194Z</time>
      </trkpt>
      <trkpt lat="42.79786" lon="-1.38372">
        <ele>620.094492</ele>
        <time>2022-02-21T22:24:41.017Z</time>
      </trkpt>
      <trkpt lat="42.79721" lon="-1.38325">
        <ele>612.37288</ele>
        <time>2022-02-21T22:24:51.959Z</time>
      </trkpt>
      <trkpt lat="42.79401" lon="-1.38159">
        <ele>575.073362</ele>
        <time>2022-02-21T22:25:39.699Z</time>
      </trkpt>
      <trkpt lat="42.7914" lon="-1.38027">
        <ele>549.503933</ele>
        <time>2022-02-21T22:26:19.879Z</time>
      </trkpt>
      <trkpt lat="42.79079" lon="-1.38013">
        <ele>544.838047</ele>
        <time>2022-02-21T22:26:28.860Z</time>
      </trkpt>
      <trkpt lat="42.78931" lon="-1.37995">
        <ele>535.684537</ele>
        <time>2022-02-21T22:26:51.712Z</time>
      </trkpt>
      <trkpt lat="42.78932" lon="-1.37948">
        <ele>534.712002</ele>
        <time>2022-02-21T22:26:57.646Z</time>
      </trkpt>
      <trkpt lat="42.78955" lon="-1.37874">
        <ele>533.452228</ele>
        <time>2022-02-21T22:27:08.379Z</time>
      </trkpt>
      <trkpt lat="42.79056" lon="-1.37751">
        <ele>531.182746</ele>
        <time>2022-02-21T22:27:38.165Z</time>
      </trkpt>
      <trkpt lat="42.79102" lon="-1.37654">
        <ele>530.575718</ele>
        <time>2022-02-21T22:27:56.788Z</time>
      </trkpt>
      <trkpt lat="42.79129" lon="-1.37628">
        <ele>530.338515</ele>
        <time>2022-02-21T22:28:03.707Z</time>
      </trkpt>
      <trkpt lat="42.79133" lon="-1.3762">
        <ele>530.291921</ele>
        <time>2022-02-21T22:28:05.054Z</time>
      </trkpt>
      <trkpt lat="42.79129" lon="-1.37603">
        <ele>530.182504</ele>
        <time>2022-02-21T22:28:07.663Z</time>
      </trkpt>
      <trkpt lat="42.79129" lon="-1.37573">
        <ele>529.771179</ele>
        <time>2022-02-21T22:28:12.055Z</time>
      </trkpt>
      <trkpt lat="42.79124" lon="-1.37556">
        <ele>529.518519</ele>
        <time>2022-02-21T22:28:14.704Z</time>
      </trkpt>
      <trkpt lat="42.79126" lon="-1.37534">
        <ele>529.202251</ele>
        <time>2022-02-21T22:28:17.986Z</time>
      </trkpt>
      <trkpt lat="42.79122" lon="-1.37462">
        <ele>528.21335</ele>
        <time>2022-02-21T22:28:28.046Z</time>
      </trkpt>
      <trkpt lat="42.79082" lon="-1.37322">
        <ele>526.155111</ele>
        <time>2022-02-21T22:28:49.021Z</time>
      </trkpt>
      <trkpt lat="42.79072" lon="-1.37288">
        <ele>525.661855</ele>
        <time>2022-02-21T22:28:54.276Z</time>
      </trkpt>
      <trkpt lat="42.79009" lon="-1.37073">
        <ele>521.191029</ele>
        <time>2022-02-21T22:29:27.780Z</time>
      </trkpt>
      <trkpt lat="42.79003" lon="-1.37015">
        <ele>519.342982</ele>
        <time>2022-02-21T22:29:35.452Z</time>
      </trkpt>
      <trkpt lat="42.79011" lon="-1.36961">
        <ele>517.589179</ele>
        <time>2022-02-21T22:29:42.170Z</time>
      </trkpt>
      <trkpt lat="42.78999" lon="-1.3695">
        <ele>516.942903</ele>
        <time>2022-02-21T22:29:44.483Z</time>
      </trkpt>
      <trkpt lat="42.78998" lon="-1.36936">
        <ele>516.49824</ele>
        <time>2022-02-21T22:29:46.002Z</time>
      </trkpt>
      <trkpt lat="42.79005" lon="-1.36921">
        <ele>515.909527</ele>
        <time>2022-02-21T22:29:48.006Z</time>
      </trkpt>
      <trkpt lat="42.79018" lon="-1.36918">
        <ele>514.860365</ele>
        <time>2022-02-21T22:29:49.874Z</time>
      </trkpt>
      <trkpt lat="42.79008" lon="-1.36871">
        <ele>511.12902</ele>
        <time>2022-02-21T22:29:55.259Z</time>
      </trkpt>
      <trkpt lat="42.78997" lon="-1.36853">
        <ele>509.296551</ele>
        <time>2022-02-21T22:29:57.823Z</time>
      </trkpt>
      <trkpt lat="42.78876" lon="-1.36723">
        <ele>494.046784</ele>
        <time>2022-02-21T22:30:20.368Z</time>
      </trkpt>
      <trkpt lat="42.78858" lon="-1.36694">
        <ele>491.851341</ele>
        <time>2022-02-21T22:30:24.389Z</time>
      </trkpt>
      <trkpt lat="42.78853" lon="-1.36654">
        <ele>489.440248</ele>
        <time>2022-02-21T22:30:28.915Z</time>
      </trkpt>
      <trkpt lat="42.7886" lon="-1.36624">
        <ele>487.621508</ele>
        <time>2022-02-21T22:30:32.421Z</time>
      </trkpt>
      <trkpt lat="42.78918" lon="-1.36553">
        <ele>482.506091</ele>
        <time>2022-02-21T22:30:45.115Z</time>
      </trkpt>
      <trkpt lat="42.78802" lon="-1.36612">
        <ele>482.413953</ele>
        <time>2022-02-21T22:31:11.495Z</time>
      </trkpt>
      <trkpt lat="42.78766" lon="-1.3662">
        <ele>482.386891</ele>
        <time>2022-02-21T22:31:27.460Z</time>
      </trkpt>
      <trkpt lat="42.78753" lon="-1.36637">
        <ele>483.245388</ele>
        <time>2022-02-21T22:31:37.340Z</time>
      </trkpt>
      <trkpt lat="42.78759" lon="-1.36614">
        <ele>484.479685</ele>
        <time>2022-02-21T22:31:45.231Z</time>
      </trkpt>
      <trkpt lat="42.78756" lon="-1.36596">
        <ele>485.359849</ele>
        <time>2022-02-21T22:31:53.105Z</time>
      </trkpt>
      <trkpt lat="42.7873" lon="-1.36526">
        <ele>489.270276</ele>
        <time>2022-02-21T22:32:24.259Z</time>
      </trkpt>
      <trkpt lat="42.78727" lon="-1.36505">
        <ele>490.317905</ele>
        <time>2022-02-21T22:32:37.096Z</time>
      </trkpt>
      <trkpt lat="42.78599" lon="-1.36558">
        <ele>499.087194</ele>
        <time>2022-02-21T22:34:05.672Z</time>
      </trkpt>
      <trkpt lat="42.78541" lon="-1.36589">
        <ele>503.021113</ele>
        <time>2022-02-21T22:34:36.210Z</time>
      </trkpt>
      <trkpt lat="42.78524" lon="-1.36588">
        <ele>504.157233</ele>
        <time>2022-02-21T22:34:45.399Z</time>
      </trkpt>
      <trkpt lat="42.78512" lon="-1.36585">
        <ele>504.888573</ele>
        <time>2022-02-21T22:34:50.355Z</time>
      </trkpt>
      <trkpt lat="42.78479" lon="-1.36592">
        <ele>506.263568</ele>
        <time>2022-02-21T22:35:06.045Z</time>
      </trkpt>
      <trkpt lat="42.78466" lon="-1.36603">
        <ele>506.501211</ele>
        <time>2022-02-21T22:35:11.814Z</time>
      </trkpt>
      <trkpt lat="42.78456" lon="-1.36612">
        <ele>506.684669</ele>
        <time>2022-02-21T22:35:17.914Z</time>
      </trkpt>
      <trkpt lat="42.78436" lon="-1.36612">
        <ele>506.982167</ele>
        <time>2022-02-21T22:35:24.409Z</time>
      </trkpt>
      <trkpt lat="42.7843" lon="-1.36623">
        <ele>507.139525</ele>
        <time>2022-02-21T22:35:28.816Z</time>
      </trkpt>
      <trkpt lat="42.78425" lon="-1.36647">
        <ele>507.41688</ele>
        <time>2022-02-21T22:35:34.933Z</time>
      </trkpt>
      <trkpt lat="42.7841" lon="-1.36644">
        <ele>507.645652</ele>
        <time>2022-02-21T22:35:39.286Z</time>
      </trkpt>
      <trkpt lat="42.78365" lon="-1.36668">
        <ele>508.384933</ele>
        <time>2022-02-21T22:35:50.488Z</time>
      </trkpt>
      <trkpt lat="42.78324" lon="-1.36674">
        <ele>508.430801</ele>
        <time>2022-02-21T22:35:58.516Z</time>
      </trkpt>
      <trkpt lat="42.78308" lon="-1.367">
        <ele>507.9043</ele>
        <time>2022-02-21T22:36:03.281Z</time>
      </trkpt>
      <trkpt lat="42.78243" lon="-1.36742">
        <ele>506.389336</ele>
        <time>2022-02-21T22:36:17.130Z</time>
      </trkpt>
      <trkpt lat="42.78223" lon="-1.3677">
        <ele>505.797598</ele>
        <time>2022-02-21T22:36:22.219Z</time>
      </trkpt>
      <trkpt lat="42.78198" lon="-1.36789">
        <ele>505.18405</ele>
        <time>2022-02-21T22:36:27.547Z</time>
      </trkpt>
      <trkpt lat="42.78189" lon="-1.36792">
        <ele>504.995036</ele>
        <time>2022-02-21T22:36:29.227Z</time>
      </trkpt>
      <trkpt lat="42.78164" lon="-1.36779">
        <ele>504.469895</ele>
        <time>2022-02-21T22:36:34.351Z</time>
      </trkpt>
      <trkpt lat="42.78157" lon="-1.3678">
        <ele>504.344942</ele>
        <time>2022-02-21T22:36:35.590Z</time>
      </trkpt>
      <trkpt lat="42.78154" lon="-1.36786">
        <ele>504.241134</ele>
        <time>2022-02-21T22:36:36.613Z</time>
      </trkpt>
      <trkpt lat="42.78161" lon="-1.36816">
        <ele>503.789826</ele>
        <time>2022-02-21T22:36:41.066Z</time>
      </trkpt>
      <trkpt lat="42.78159" lon="-1.36827">
        <ele>503.633717</ele>
        <time>2022-02-21T22:36:42.619Z</time>
      </trkpt>
      <trkpt lat="42.78141" lon="-1.36853">
        <ele>503.128707</ele>
        <time>2022-02-21T22:36:47.673Z</time>
      </trkpt>
      <trkpt lat="42.78083" lon="-1.3692">
        <ele>501.6628</ele>
        <time>2022-02-21T22:37:02.890Z</time>
      </trkpt>
      <trkpt lat="42.78049" lon="-1.36942">
        <ele>501.391554</ele>
        <time>2022-02-21T22:37:10.632Z</time>
      </trkpt>
      <trkpt lat="42.78025" lon="-1.3698">
        <ele>501.227009</ele>
        <time>2022-02-21T22:37:17.787Z</time>
      </trkpt>
      <trkpt lat="42.77979" lon="-1.37007">
        <ele>501.00654</ele>
        <time>2022-02-21T22:37:27.738Z</time>
      </trkpt>
      <trkpt lat="42.77928" lon="-1.37051">
        <ele>500.736953</ele>
        <time>2022-02-21T22:37:43.348Z</time>
      </trkpt>
      <trkpt lat="42.77919" lon="-1.37054">
        <ele>501.136921</ele>
        <time>2022-02-21T22:37:46.412Z</time>
      </trkpt>
      <trkpt lat="42.77886" lon="-1.37044">
        <ele>503.020222</ele>
        <time>2022-02-21T22:37:59.536Z</time>
      </trkpt>
      <trkpt lat="42.77836" lon="-1.36975">
        <ele>506.910248</ele>
        <time>2022-02-21T22:38:32.784Z</time>
      </trkpt>
      <trkpt lat="42.778" lon="-1.36935">
        <ele>509.446946</ele>
        <time>2022-02-21T22:39:01.868Z</time>
      </trkpt>
      <trkpt lat="42.77779" lon="-1.36925">
        <ele>510.709141</ele>
        <time>2022-02-21T22:39:16.704Z</time>
      </trkpt>
      <trkpt lat="42.77769" lon="-1.36897">
        <ele>512.72759</ele>
        <time>2022-02-21T22:39:33.725Z</time>
      </trkpt>
      <trkpt lat="42.77734" lon="-1.36848">
        <ele>517.099317</ele>
        <time>2022-02-21T22:40:10.928Z</time>
      </trkpt>
      <trkpt lat="42.77676" lon="-1.36818">
        <ele>522.588373</ele>
        <time>2022-02-21T22:40:55.386Z</time>
      </trkpt>
      <trkpt lat="42.77607" lon="-1.3676">
        <ele>527.759404</ele>
        <time>2022-02-21T22:41:42.325Z</time>
      </trkpt>
      <trkpt lat="42.77565" lon="-1.36763">
        <ele>529.31006</ele>
        <time>2022-02-21T22:42:02.300Z</time>
      </trkpt>
      <trkpt lat="42.7755" lon="-1.36753">
        <ele>529.92821</ele>
        <time>2022-02-21T22:42:09.988Z</time>
      </trkpt>
      <trkpt lat="42.77524" lon="-1.36727">
        <ele>531.09412</ele>
        <time>2022-02-21T22:42:20.927Z</time>
      </trkpt>
      <trkpt lat="42.77458" lon="-1.36695">
        <ele>532.770297</ele>
        <time>2022-02-21T22:42:40.090Z</time>
      </trkpt>
      <trkpt lat="42.77416" lon="-1.36667">
        <ele>532.262873</ele>
        <time>2022-02-21T22:42:50.251Z</time>
      </trkpt>
      <trkpt lat="42.77334" lon="-1.36521">
        <ele>530.431849</ele>
        <time>2022-02-21T22:43:16.556Z</time>
      </trkpt>
      <trkpt lat="42.77306" lon="-1.36485">
        <ele>529.342161</ele>
        <time>2022-02-21T22:43:23.880Z</time>
      </trkpt>
      <trkpt lat="42.77273" lon="-1.36447">
        <ele>528.123012</ele>
        <time>2022-02-21T22:43:31.878Z</time>
      </trkpt>
      <trkpt lat="42.77203" lon="-1.36412">
        <ele>526.027785</ele>
        <time>2022-02-21T22:43:45.264Z</time>
      </trkpt>
      <trkpt lat="42.77141" lon="-1.36361">
        <ele>522.406345</ele>
        <time>2022-02-21T22:43:57.499Z</time>
      </trkpt>
      <trkpt lat="42.77094" lon="-1.3628">
        <ele>518.563971</ele>
        <time>2022-02-21T22:44:09.860Z</time>
      </trkpt>
      <trkpt lat="42.77082" lon="-1.36268">
        <ele>517.793971</ele>
        <time>2022-02-21T22:44:12.272Z</time>
      </trkpt>
      <trkpt lat="42.77006" lon="-1.36235">
        <ele>513.704907</ele>
        <time>2022-02-21T22:44:25.263Z</time>
      </trkpt>
      <trkpt lat="42.76961" lon="-1.36201">
        <ele>511.057548</ele>
        <time>2022-02-21T22:44:33.626Z</time>
      </trkpt>
      <trkpt lat="42.76974" lon="-1.36159">
        <ele>509.34169</ele>
        <time>2022-02-21T22:44:39.080Z</time>
      </trkpt>
      <trkpt lat="42.76985" lon="-1.36085">
        <ele>507.628946</ele>
        <time>2022-02-21T22:44:48.827Z</time>
      </trkpt>
      <trkpt lat="42.76983" lon="-1.36061">
        <ele>507.663888</ele>
        <time>2022-02-21T22:44:52.326Z</time>
      </trkpt>
      <trkpt lat="42.7697" lon="-1.36026">
        <ele>507.719895</ele>
        <time>2022-02-21T22:44:58.440Z</time>
      </trkpt>
      <trkpt lat="42.76955" lon="-1.36006">
        <ele>507.761515</ele>
        <time>2022-02-21T22:45:03.950Z</time>
      </trkpt>
      <trkpt lat="42.76915" lon="-1.35973">
        <ele>507.851595</ele>
        <time>2022-02-21T22:45:17.444Z</time>
      </trkpt>
      <trkpt lat="42.76896" lon="-1.35941">
        <ele>507.910881</ele>
        <time>2022-02-21T22:45:27.841Z</time>
      </trkpt>
      <trkpt lat="42.7683" lon="-1.35881">
        <ele>510.154916</ele>
        <time>2022-02-21T22:46:00.655Z</time>
      </trkpt>
      <trkpt lat="42.76795" lon="-1.35863">
        <ele>511.425222</ele>
        <time>2022-02-21T22:46:17.601Z</time>
      </trkpt>
      <trkpt lat="42.76759" lon="-1.35857">
        <ele>512.682051</ele>
        <time>2022-02-21T22:46:34.066Z</time>
      </trkpt>
      <trkpt lat="42.76716" lon="-1.35825">
        <ele>514.123296</ele>
        <time>2022-02-21T22:46:52.246Z</time>
      </trkpt>
      <trkpt lat="42.76693" lon="-1.35783">
        <ele>514.443502</ele>
        <time>2022-02-21T22:47:04.242Z</time>
      </trkpt>
      <trkpt lat="42.76684" lon="-1.35753">
        <ele>514.642423</ele>
        <time>2022-02-21T22:47:10.870Z</time>
      </trkpt>
      <trkpt lat="42.76674" lon="-1.3568">
        <ele>515.093207</ele>
        <time>2022-02-21T22:47:25.492Z</time>
      </trkpt>
      <trkpt lat="42.76646" lon="-1.35592">
        <ele>515.261626</ele>
        <time>2022-02-21T22:47:41.626Z</time>
      </trkpt>
      <trkpt lat="42.76544" lon="-1.35499">
        <ele>512.975789</ele>
        <time>2022-02-21T22:48:05.721Z</time>
      </trkpt>
      <trkpt lat="42.76512" lon="-1.35454">
        <ele>512.016906</ele>
        <time>2022-02-21T22:48:14.111Z</time>
      </trkpt>
      <trkpt lat="42.76502" lon="-1.35447">
        <ele>511.588101</ele>
        <time>2022-02-21T22:48:16.013Z</time>
      </trkpt>
      <trkpt lat="42.76488" lon="-1.35491">
        <ele>510.21776</ele>
        <time>2022-02-21T22:48:21.827Z</time>
      </trkpt>
      <trkpt lat="42.76429" lon="-1.35622">
        <ele>505.80674</ele>
        <time>2022-02-21T22:48:40.310Z</time>
      </trkpt>
      <trkpt lat="42.76411" lon="-1.35646">
        <ele>504.787138</ele>
        <time>2022-02-21T22:48:44.290Z</time>
      </trkpt>
      <trkpt lat="42.76392" lon="-1.35658">
        <ele>503.845361</ele>
        <time>2022-02-21T22:48:47.750Z</time>
      </trkpt>
      <trkpt lat="42.76367" lon="-1.3566">
        <ele>502.710665</ele>
        <time>2022-02-21T22:48:51.896Z</time>
      </trkpt>
      <trkpt lat="42.76294" lon="-1.35615">
        <ele>499.117564</ele>
        <time>2022-02-21T22:49:04.898Z</time>
      </trkpt>
      <trkpt lat="42.76258" lon="-1.3561">
        <ele>497.508424</ele>
        <time>2022-02-21T22:49:10.664Z</time>
      </trkpt>
      <trkpt lat="42.76138" lon="-1.35669">
        <ele>491.380212</ele>
        <time>2022-02-21T22:49:30.980Z</time>
      </trkpt>
      <trkpt lat="42.76016" lon="-1.35703">
        <ele>485.854011</ele>
        <time>2022-02-21T22:49:50.954Z</time>
      </trkpt>
      <trkpt lat="42.75849" lon="-1.35801">
        <ele>479.436985</ele>
        <time>2022-02-21T22:50:21.231Z</time>
      </trkpt>
      <trkpt lat="42.75656" lon="-1.3581">
        <ele>474.852218</ele>
        <time>2022-02-21T22:50:56.730Z</time>
      </trkpt>
      <trkpt lat="42.7559" lon="-1.35849">
        <ele>473.398731</ele>
        <time>2022-02-21T22:51:09.902Z</time>
      </trkpt>
      <trkpt lat="42.75464" lon="-1.35939">
        <ele>470.274086</ele>
        <time>2022-02-21T22:51:35.797Z</time>
      </trkpt>
      <trkpt lat="42.75419" lon="-1.36">
        <ele>468.833136</ele>
        <time>2022-02-21T22:51:47.079Z</time>
      </trkpt>
      <trkpt lat="42.75359" lon="-1.36015">
        <ele>467.534353</ele>
        <time>2022-02-21T22:51:57.907Z</time>
      </trkpt>
      <trkpt lat="42.75315" lon="-1.36023">
        <ele>466.587742</ele>
        <time>2022-02-21T22:52:05.935Z</time>
      </trkpt>
      <trkpt lat="42.7528" lon="-1.36029">
        <ele>465.815672</ele>
        <time>2022-02-21T22:52:12.537Z</time>
      </trkpt>
      <trkpt lat="42.7517" lon="-1.36049">
        <ele>463.887514</ele>
        <time>2022-02-21T22:52:33.070Z</time>
      </trkpt>
      <trkpt lat="42.75142" lon="-1.36068">
        <ele>463.431687</ele>
        <time>2022-02-21T22:52:38.921Z</time>
      </trkpt>
      <trkpt lat="42.75082" lon="-1.36142">
        <ele>462.222688</ele>
        <time>2022-02-21T22:52:54.821Z</time>
      </trkpt>
      <trkpt lat="42.75006" lon="-1.36175">
        <ele>461.440804</ele>
        <time>2022-02-21T22:53:10.389Z</time>
      </trkpt>
      <trkpt lat="42.74982" lon="-1.36194">
        <ele>461.165899</ele>
        <time>2022-02-21T22:53:15.836Z</time>
      </trkpt>
      <trkpt lat="42.74986" lon="-1.3618">
        <ele>461.058621</ele>
        <time>2022-02-21T22:53:17.930Z</time>
      </trkpt>
      <trkpt lat="42.74984" lon="-1.36156">
        <ele>460.889479</ele>
        <time>2022-02-21T22:53:21.240Z</time>
      </trkpt>
      <trkpt lat="42.7491" lon="-1.35972">
        <ele>461.029893</ele>
        <time>2022-02-21T22:53:54.330Z</time>
      </trkpt>
      <trkpt lat="42.74851" lon="-1.35731">
        <ele>463.612179</ele>
        <time>2022-02-21T22:54:52.662Z</time>
      </trkpt>
      <trkpt lat="42.74826" lon="-1.35681">
        <ele>464.44785</ele>
        <time>2022-02-21T22:55:07.406Z</time>
      </trkpt>
      <trkpt lat="42.74802" lon="-1.35656">
        <ele>465.024928</ele>
        <time>2022-02-21T22:55:17.419Z</time>
      </trkpt>
      <trkpt lat="42.74587" lon="-1.35529">
        <ele>469.037865</ele>
        <time>2022-02-21T22:56:30.278Z</time>
      </trkpt>
      <trkpt lat="42.74456" lon="-1.35477">
        <ele>470.680294</ele>
        <time>2022-02-21T22:57:09.551Z</time>
      </trkpt>
      <trkpt lat="42.74281" lon="-1.35499">
        <ele>470.601439</ele>
        <time>2022-02-21T22:57:49.360Z</time>
      </trkpt>
      <trkpt lat="42.74194" lon="-1.3552">
        <ele>468.934313</ele>
        <time>2022-02-21T22:58:06.090Z</time>
      </trkpt>
      <trkpt lat="42.74007" lon="-1.35601">
        <ele>464.124988</ele>
        <time>2022-02-21T22:58:40.086Z</time>
      </trkpt>
      <trkpt lat="42.73966" lon="-1.35605">
        <ele>462.961919</ele>
        <time>2022-02-21T22:58:47.423Z</time>
      </trkpt>
      <trkpt lat="42.73913" lon="-1.35596">
        <ele>461.753713</ele>
        <time>2022-02-21T22:58:56.785Z</time>
      </trkpt>
      <trkpt lat="42.73902" lon="-1.35592">
        <ele>461.521676</ele>
        <time>2022-02-21T22:58:58.755Z</time>
      </trkpt>
      <trkpt lat="42.73853" lon="-1.35563">
        <ele>460.42451</ele>
        <time>2022-02-21T22:59:08.518Z</time>
      </trkpt>
      <trkpt lat="42.73779" lon="-1.35506">
        <ele>458.715036</ele>
        <time>2022-02-21T22:59:24.547Z</time>
      </trkpt>
      <trkpt lat="42.73744" lon="-1.35467">
        <ele>458.042459</ele>
        <time>2022-02-21T22:59:33.050Z</time>
      </trkpt>
      <trkpt lat="42.73717" lon="-1.35423">
        <ele>457.407491</ele>
        <time>2022-02-21T22:59:40.869Z</time>
      </trkpt>
      <trkpt lat="42.73562" lon="-1.35122">
        <ele>453.889387</ele>
        <time>2022-02-21T23:00:33.159Z</time>
      </trkpt>
      <trkpt lat="42.73448" lon="-1.34898">
        <ele>452.142555</ele>
        <time>2022-02-21T23:01:13.379Z</time>
      </trkpt>
      <trkpt lat="42.73429" lon="-1.34839">
        <ele>451.920935</ele>
        <time>2022-02-21T23:01:23.155Z</time>
      </trkpt>
      <trkpt lat="42.73407" lon="-1.34643">
        <ele>451.341349</ele>
        <time>2022-02-21T23:01:54.489Z</time>
      </trkpt>
      <trkpt lat="42.73397" lon="-1.34301">
        <ele>451.036246</ele>
        <time>2022-02-21T23:02:49.115Z</time>
      </trkpt>
      <trkpt lat="42.7339" lon="-1.34216">
        <ele>451.013657</ele>
        <time>2022-02-21T23:03:02.512Z</time>
      </trkpt>
      <trkpt lat="42.73376" lon="-1.34161">
        <ele>451.88029</ele>
        <time>2022-02-21T23:03:13.389Z</time>
      </trkpt>
      <trkpt lat="42.73356" lon="-1.34111">
        <ele>452.906338</ele>
        <time>2022-02-21T23:03:27.667Z</time>
      </trkpt>
      <trkpt lat="42.73319" lon="-1.34053">
        <ele>454.280531</ele>
        <time>2022-02-21T23:03:49.518Z</time>
      </trkpt>
      <trkpt lat="42.73302" lon="-1.34031">
        <ele>454.857706</ele>
        <time>2022-02-21T23:03:58.878Z</time>
      </trkpt>
      <trkpt lat="42.73258" lon="-1.33979">
        <ele>456.114098</ele>
        <time>2022-02-21T23:04:22.353Z</time>
      </trkpt>
      <trkpt lat="42.73208" lon="-1.33944">
        <ele>457.236043</ele>
        <time>2022-02-21T23:04:43.726Z</time>
      </trkpt>
      <trkpt lat="42.73119" lon="-1.33908">
        <ele>458.848903</ele>
        <time>2022-02-21T23:05:10.849Z</time>
      </trkpt>
      <trkpt lat="42.73061" lon="-1.33863">
        <ele>457.194629</ele>
        <time>2022-02-21T23:05:22.947Z</time>
      </trkpt>
      <trkpt lat="42.72997" lon="-1.33806">
        <ele>455.298211</ele>
        <time>2022-02-21T23:05:35.821Z</time>
      </trkpt>
      <trkpt lat="42.7295" lon="-1.33756">
        <ele>453.782759</ele>
        <time>2022-02-21T23:05:45.725Z</time>
      </trkpt>
      <trkpt lat="42.72904" lon="-1.33675">
        <ele>451.828409</ele>
        <time>2022-02-21T23:05:58.546Z</time>
      </trkpt>
      <trkpt lat="42.72889" lon="-1.33621">
        <ele>450.712836</ele>
        <time>2022-02-21T23:06:06.421Z</time>
      </trkpt>
      <trkpt lat="42.72884" lon="-1.33582">
        <ele>449.963663</ele>
        <time>2022-02-21T23:06:11.869Z</time>
      </trkpt>
      <trkpt lat="42.72839" lon="-1.33048">
        <ele>446.625447</ele>
        <time>2022-02-21T23:07:31.646Z</time>
      </trkpt>
      <trkpt lat="42.72838" lon="-1.32987">
        <ele>446.525178</ele>
        <time>2022-02-21T23:07:40.991Z</time>
      </trkpt>
      <trkpt lat="42.72849" lon="-1.32872">
        <ele>446.337044</ele>
        <time>2022-02-21T23:07:59.353Z</time>
      </trkpt>
      <trkpt lat="42.72858" lon="-1.32822">
        <ele>446.983528</ele>
        <time>2022-02-21T23:08:08.637Z</time>
      </trkpt>
      <trkpt lat="42.72882" lon="-1.3275">
        <ele>449.162498</ele>
        <time>2022-02-21T23:08:25.467Z</time>
      </trkpt>
      <trkpt lat="42.72919" lon="-1.32691">
        <ele>451.280999</ele>
        <time>2022-02-21T23:08:51.777Z</time>
      </trkpt>
      <trkpt lat="42.7297" lon="-1.32614">
        <ele>455.823604</ele>
        <time>2022-02-21T23:09:33.934Z</time>
      </trkpt>
      <trkpt lat="42.72993" lon="-1.3254">
        <ele>461.325135</ele>
        <time>2022-02-21T23:10:13.165Z</time>
      </trkpt>
      <trkpt lat="42.72996" lon="-1.32479">
        <ele>465.566075</ele>
        <time>2022-02-21T23:10:47.119Z</time>
      </trkpt>
      <trkpt lat="42.72979" lon="-1.324">
        <ele>470.924508</ele>
        <time>2022-02-21T23:11:35.682Z</time>
      </trkpt>
      <trkpt lat="42.72953" lon="-1.32349">
        <ele>474.480667</ele>
        <time>2022-02-21T23:12:09.802Z</time>
      </trkpt>
      <trkpt lat="42.72909" lon="-1.32305">
        <ele>478.674414</ele>
        <time>2022-02-21T23:12:42.871Z</time>
      </trkpt>
      <trkpt lat="42.72877" lon="-1.32289">
        <ele>481.323687</ele>
        <time>2022-02-21T23:13:02.705Z</time>
      </trkpt>
      <trkpt lat="42.72668" lon="-1.32242">
        <ele>488.766003</ele>
        <time>2022-02-21T23:14:23.565Z</time>
      </trkpt>
      <trkpt lat="42.72463" lon="-1.32225">
        <ele>484.992676</ele>
        <time>2022-02-21T23:15:01.879Z</time>
      </trkpt>
      <trkpt lat="42.72283" lon="-1.32212">
        <ele>476.409198</ele>
        <time>2022-02-21T23:15:29.978Z</time>
      </trkpt>
      <trkpt lat="42.72222" lon="-1.32215">
        <ele>473.472706</ele>
        <time>2022-02-21T23:15:39.559Z</time>
      </trkpt>
      <trkpt lat="42.72032" lon="-1.32277">
        <ele>465.519541</ele>
        <time>2022-02-21T23:16:11.675Z</time>
      </trkpt>
      <trkpt lat="42.71874" lon="-1.32287">
        <ele>461.306485</ele>
        <time>2022-02-21T23:16:39.503Z</time>
      </trkpt>
      <trkpt lat="42.71736" lon="-1.32326">
        <ele>459.177168</ele>
        <time>2022-02-21T23:17:06.603Z</time>
      </trkpt>
      <trkpt lat="42.71701" lon="-1.32337">
        <ele>458.964447</ele>
        <time>2022-02-21T23:17:14.091Z</time>
      </trkpt>
      <trkpt lat="42.71557" lon="-1.32378">
        <ele>458.057664</ele>
        <time>2022-02-21T23:17:45.890Z</time>
      </trkpt>
      <trkpt lat="42.71525" lon="-1.32383">
        <ele>457.838424</ele>
        <time>2022-02-21T23:17:52.599Z</time>
      </trkpt>
      <trkpt lat="42.71491" lon="-1.32381">
        <ele>457.605174</ele>
        <time>2022-02-21T23:17:59.587Z</time>
      </trkpt>
      <trkpt lat="42.71473" lon="-1.32375">
        <ele>457.480978</ele>
        <time>2022-02-21T23:18:03.295Z</time>
      </trkpt>
      <trkpt lat="42.71411" lon="-1.32347">
        <ele>456.909086</ele>
        <time>2022-02-21T23:18:16.202Z</time>
      </trkpt>
      <trkpt lat="42.71323" lon="-1.32303">
        <ele>455.503253</ele>
        <time>2022-02-21T23:18:34.118Z</time>
      </trkpt>
      <trkpt lat="42.71273" lon="-1.32281">
        <ele>454.724044</ele>
        <time>2022-02-21T23:18:43.873Z</time>
      </trkpt>
      <trkpt lat="42.71219" lon="-1.32256">
        <ele>453.930173</ele>
        <time>2022-02-21T23:18:54.561Z</time>
      </trkpt>
      <trkpt lat="42.70973" lon="-1.32139">
        <ele>450.405608</ele>
        <time>2022-02-21T23:19:45.217Z</time>
      </trkpt>
      <trkpt lat="42.70125" lon="-1.3174">
        <ele>438.016112</ele>
        <time>2022-02-21T23:22:36.062Z</time>
      </trkpt>
      <trkpt lat="42.69643" lon="-1.31514">
        <ele>440.123669</ele>
        <time>2022-02-21T23:24:47.085Z</time>
      </trkpt>
      <trkpt lat="42.69304" lon="-1.31285">
        <ele>440.240961</ele>
        <time>2022-02-21T23:26:11.104Z</time>
      </trkpt>
      <trkpt lat="42.68865" lon="-1.30833">
        <ele>436.886695</ele>
        <time>2022-02-21T23:28:04.751Z</time>
      </trkpt>
      <trkpt lat="42.68833" lon="-1.30796">
        <ele>436.553271</ele>
        <time>2022-02-21T23:28:12.907Z</time>
      </trkpt>
      <trkpt lat="42.6879" lon="-1.30725">
        <ele>436.152132</ele>
        <time>2022-02-21T23:28:26.253Z</time>
      </trkpt>
      <trkpt lat="42.68694" lon="-1.30558">
        <ele>435.803965</ele>
        <time>2022-02-21T23:28:59.220Z</time>
      </trkpt>
      <trkpt lat="42.68668" lon="-1.30523">
        <ele>436.273495</ele>
        <time>2022-02-21T23:29:09.090Z</time>
      </trkpt>
      <trkpt lat="42.68529" lon="-1.3038">
        <ele>439.227968</ele>
        <time>2022-02-21T23:30:03.889Z</time>
      </trkpt>
      <trkpt lat="42.68497" lon="-1.30347">
        <ele>440.255595</ele>
        <time>2022-02-21T23:30:18.271Z</time>
      </trkpt>
      <trkpt lat="42.68492" lon="-1.30341">
        <ele>440.442437</ele>
        <time>2022-02-21T23:30:20.914Z</time>
      </trkpt>
      <trkpt lat="42.68456" lon="-1.30303">
        <ele>441.605366</ele>
        <time>2022-02-21T23:30:37.787Z</time>
      </trkpt>
      <trkpt lat="42.68296" lon="-1.30136">
        <ele>447.679401</ele>
        <time>2022-02-21T23:31:54.199Z</time>
      </trkpt>
      <trkpt lat="42.68207" lon="-1.30059">
        <ele>450.762612</ele>
        <time>2022-02-21T23:32:33.628Z</time>
      </trkpt>
      <trkpt lat="42.68107" lon="-1.29982">
        <ele>453.949659</ele>
        <time>2022-02-21T23:33:14.752Z</time>
      </trkpt>
      <trkpt lat="42.67724" lon="-1.29687">
        <ele>463.590431</ele>
        <time>2022-02-21T23:35:45.494Z</time>
      </trkpt>
      <trkpt lat="42.67665" lon="-1.29654">
        <ele>464.526739</ele>
        <time>2022-02-21T23:36:01.033Z</time>
      </trkpt>
      <trkpt lat="42.67638" lon="-1.29645">
        <ele>464.13944</ele>
        <time>2022-02-21T23:36:06.931Z</time>
      </trkpt>
      <trkpt lat="42.67577" lon="-1.2964">
        <ele>462.814449</ele>
        <time>2022-02-21T23:36:19.083Z</time>
      </trkpt>
      <trkpt lat="42.66986" lon="-1.2967">
        <ele>450.385231</ele>
        <time>2022-02-21T23:38:04.402Z</time>
      </trkpt>
      <trkpt lat="42.66534" lon="-1.29693">
        <ele>448.136122</ele>
        <time>2022-02-21T23:39:40.096Z</time>
      </trkpt>
      <trkpt lat="42.66442" lon="-1.297">
        <ele>448.351464</ele>
        <time>2022-02-21T23:40:02.245Z</time>
      </trkpt>
      <trkpt lat="42.6639" lon="-1.29715">
        <ele>448.543649</ele>
        <time>2022-02-21T23:40:16.128Z</time>
      </trkpt>
      <trkpt lat="42.66211" lon="-1.29808">
        <ele>449.691327</ele>
        <time>2022-02-21T23:41:06.470Z</time>
      </trkpt>
      <trkpt lat="42.66159" lon="-1.29842">
        <ele>449.441719</ele>
        <time>2022-02-21T23:41:19.305Z</time>
      </trkpt>
      <trkpt lat="42.65865" lon="-1.30084">
        <ele>446.300609</ele>
        <time>2022-02-21T23:42:27.036Z</time>
      </trkpt>
      <trkpt lat="42.65846" lon="-1.30102">
        <ele>446.047668</ele>
        <time>2022-02-21T23:42:31.639Z</time>
      </trkpt>
      <trkpt lat="42.65754" lon="-1.30179">
        <ele>444.848035</ele>
        <time>2022-02-21T23:42:52.883Z</time>
      </trkpt>
      <trkpt lat="42.65654" lon="-1.30297">
        <ele>443.31845</ele>
        <time>2022-02-21T23:43:18.366Z</time>
      </trkpt>
      <trkpt lat="42.65585" lon="-1.30382">
        <ele>444.664255</ele>
        <time>2022-02-21T23:43:37.588Z</time>
      </trkpt>
      <trkpt lat="42.65575" lon="-1.30399">
        <ele>445.098324</ele>
        <time>2022-02-21T23:43:42.619Z</time>
      </trkpt>
      <trkpt lat="42.65562" lon="-1.30419">
        <ele>445.624091</ele>
        <time>2022-02-21T23:43:49.493Z</time>
      </trkpt>
      <trkpt lat="42.65558" lon="-1.30422">
        <ele>445.733285</ele>
        <time>2022-02-21T23:43:51.286Z</time>
      </trkpt>
      <trkpt lat="42.65544" lon="-1.30418">
        <ele>446.115495</ele>
        <time>2022-02-21T23:43:57.432Z</time>
      </trkpt>
      <trkpt lat="42.65536" lon="-1.30431">
        <ele>446.44462</ele>
        <time>2022-02-21T23:44:03.157Z</time>
      </trkpt>
      <trkpt lat="42.65524" lon="-1.30422">
        <ele>446.814257</ele>
        <time>2022-02-21T23:44:09.484Z</time>
      </trkpt>
      <trkpt lat="42.65482" lon="-1.30422">
        <ele>448.207047</ele>
        <time>2022-02-21T23:44:31.724Z</time>
      </trkpt>
      <trkpt lat="42.65462" lon="-1.3042">
        <ele>449.543301</ele>
        <time>2022-02-21T23:44:42.480Z</time>
      </trkpt>
      <trkpt lat="42.65453" lon="-1.30475">
        <ele>452.336134</ele>
        <time>2022-02-21T23:45:07.297Z</time>
      </trkpt>
      <trkpt lat="42.65441" lon="-1.30501">
        <ele>453.889738</ele>
        <time>2022-02-21T23:45:22.588Z</time>
      </trkpt>
      <trkpt lat="42.65413" lon="-1.30575">
        <ele>458.050323</ele>
        <time>2022-02-21T23:46:00.923Z</time>
      </trkpt>
      <trkpt lat="42.65406" lon="-1.30633">
        <ele>459.726692</ele>
        <time>2022-02-21T23:46:25.810Z</time>
      </trkpt>
      <trkpt lat="42.65407" lon="-1.30647">
        <ele>459.537899</ele>
        <time>2022-02-21T23:46:30.338Z</time>
      </trkpt>
      <trkpt lat="42.65384" lon="-1.30648">
        <ele>459.102836</ele>
        <time>2022-02-21T23:46:38.413Z</time>
      </trkpt>
      <trkpt lat="42.65376" lon="-1.30651">
        <ele>458.946813</ele>
        <time>2022-02-21T23:46:40.627Z</time>
      </trkpt>
      <trkpt lat="42.65339" lon="-1.30669">
        <ele>458.209055</ele>
        <time>2022-02-21T23:46:47.798Z</time>
      </trkpt>
      <trkpt lat="42.65307" lon="-1.3068">
        <ele>457.608197</ele>
        <time>2022-02-21T23:46:53.245Z</time>
      </trkpt>
      <trkpt lat="42.65304" lon="-1.30696">
        <ele>457.384674</ele>
        <time>2022-02-21T23:46:55.220Z</time>
      </trkpt>
      <trkpt lat="42.65275" lon="-1.307">
        <ele>456.835911</ele>
        <time>2022-02-21T23:46:59.915Z</time>
      </trkpt>
      <trkpt lat="42.65264" lon="-1.30689">
        <ele>456.353102</ele>
        <time>2022-02-21T23:47:02.134Z</time>
      </trkpt>
      <trkpt lat="42.65227" lon="-1.3067">
        <ele>453.265435</ele>
        <time>2022-02-21T23:47:08.294Z</time>
      </trkpt>
      <trkpt lat="42.65215" lon="-1.30666">
        <ele>452.347368</ele>
        <time>2022-02-21T23:47:10.113Z</time>
      </trkpt>
      <trkpt lat="42.65196" lon="-1.30712">
        <ele>449.380332</ele>
        <time>2022-02-21T23:47:15.940Z</time>
      </trkpt>
      <trkpt lat="42.65183" lon="-1.30735">
        <ele>447.688715</ele>
        <time>2022-02-21T23:47:19.230Z</time>
      </trkpt>
      <trkpt lat="42.65173" lon="-1.3074">
        <ele>446.886368</ele>
        <time>2022-02-21T23:47:20.791Z</time>
      </trkpt>
      <trkpt lat="42.65135" lon="-1.30827">
        <ele>441.635041</ele>
        <time>2022-02-21T23:47:32.409Z</time>
      </trkpt>
      <trkpt lat="42.65098" lon="-1.30892">
        <ele>438.482653</ele>
        <time>2022-02-21T23:47:42.633Z</time>
      </trkpt>
      <trkpt lat="42.65078" lon="-1.30951">
        <ele>436.030777</ele>
        <time>2022-02-21T23:47:50.689Z</time>
      </trkpt>
      <trkpt lat="42.6505" lon="-1.30971">
        <ele>434.379749</ele>
        <time>2022-02-21T23:47:55.995Z</time>
      </trkpt>
      <trkpt lat="42.65037" lon="-1.31001">
        <ele>433.277481</ele>
        <time>2022-02-21T23:48:00.355Z</time>
      </trkpt>
      <trkpt lat="42.65018" lon="-1.31024">
        <ele>432.857049</ele>
        <time>2022-02-21T23:48:04.559Z</time>
      </trkpt>
      <trkpt lat="42.65012" lon="-1.31032">
        <ele>432.711597</ele>
        <time>2022-02-21T23:48:06.002Z</time>
      </trkpt>
      <trkpt lat="42.64999" lon="-1.31036">
        <ele>432.478985</ele>
        <time>2022-02-21T23:48:08.385Z</time>
      </trkpt>
      <trkpt lat="42.64963" lon="-1.31064">
        <ele>431.783109</ele>
        <time>2022-02-21T23:48:15.821Z</time>
      </trkpt>
      <trkpt lat="42.64945" lon="-1.31082">
        <ele>431.414607</ele>
        <time>2022-02-21T23:48:19.868Z</time>
      </trkpt>
      <trkpt lat="42.64919" lon="-1.31067">
        <ele>430.928297</ele>
        <time>2022-02-21T23:48:26.772Z</time>
      </trkpt>
      <trkpt lat="42.64886" lon="-1.31032">
        <ele>430.674876</ele>
        <time>2022-02-21T23:48:42.084Z</time>
      </trkpt>
      <trkpt lat="42.64839" lon="-1.30974">
        <ele>432.979071</ele>
        <time>2022-02-21T23:49:06.882Z</time>
      </trkpt>
      <trkpt lat="42.64816" lon="-1.30955">
        <ele>433.97958</ele>
        <time>2022-02-21T23:49:18.068Z</time>
      </trkpt>
      <trkpt lat="42.64774" lon="-1.3094">
        <ele>435.558778</ele>
        <time>2022-02-21T23:49:38.641Z</time>
      </trkpt>
      <trkpt lat="42.64736" lon="-1.3094">
        <ele>436.9779</ele>
        <time>2022-02-21T23:49:57.127Z</time>
      </trkpt>
      <trkpt lat="42.64694" lon="-1.30958">
        <ele>437.432384</ele>
        <time>2022-02-21T23:50:15.809Z</time>
      </trkpt>
      <trkpt lat="42.6463" lon="-1.31002">
        <ele>438.163864</ele>
        <time>2022-02-21T23:50:37.977Z</time>
      </trkpt>
      <trkpt lat="42.646" lon="-1.31006">
        <ele>438.480017</ele>
        <time>2022-02-21T23:50:44.025Z</time>
      </trkpt>
      <trkpt lat="42.64429" lon="-1.31033">
        <ele>435.73783</ele>
        <time>2022-02-21T23:51:15.095Z</time>
      </trkpt>
      <trkpt lat="42.64272" lon="-1.31034">
        <ele>432.210946</ele>
        <time>2022-02-21T23:51:43.158Z</time>
      </trkpt>
      <trkpt lat="42.64177" lon="-1.31015">
        <ele>430.276033</ele>
        <time>2022-02-21T23:52:00.552Z</time>
      </trkpt>
      <trkpt lat="42.64074" lon="-1.30995">
        <ele>428.68845</ele>
        <time>2022-02-21T23:52:20.354Z</time>
      </trkpt>
      <trkpt lat="42.64005" lon="-1.30968">
        <ele>427.779427</ele>
        <time>2022-02-21T23:52:34.492Z</time>
      </trkpt>
      <trkpt lat="42.63972" lon="-1.30944">
        <ele>427.440046</ele>
        <time>2022-02-21T23:52:42.182Z</time>
      </trkpt>
      <trkpt lat="42.63887" lon="-1.30852">
        <ele>426.480027</ele>
        <time>2022-02-21T23:53:03.961Z</time>
      </trkpt>
      <trkpt lat="42.63796" lon="-1.30749">
        <ele>426.423585</ele>
        <time>2022-02-21T23:53:28.919Z</time>
      </trkpt>
      <trkpt lat="42.63791" lon="-1.30744">
        <ele>426.423712</ele>
        <time>2022-02-21T23:53:30.342Z</time>
      </trkpt>
      <trkpt lat="42.6379" lon="-1.30742">
        <ele>426.423742</ele>
        <time>2022-02-21T23:53:30.671Z</time>
      </trkpt>
      <trkpt lat="42.63729" lon="-1.30675">
        <ele>427.297385</ele>
        <time>2022-02-21T23:54:03.564Z</time>
      </trkpt>
      <trkpt lat="42.63657" lon="-1.30596">
        <ele>431.616982</ele>
        <time>2022-02-21T23:54:56.382Z</time>
      </trkpt>
      <trkpt lat="42.63616" lon="-1.30569">
        <ele>433.761682</ele>
        <time>2022-02-21T23:55:29.044Z</time>
      </trkpt>
      <trkpt lat="42.63554" lon="-1.30543">
        <ele>437.600969</ele>
        <time>2022-02-21T23:56:17.775Z</time>
      </trkpt>
      <trkpt lat="42.63539" lon="-1.30532">
        <ele>438.747427</ele>
        <time>2022-02-21T23:56:28.778Z</time>
      </trkpt>
      <trkpt lat="42.63525" lon="-1.30512">
        <ele>440.093019</ele>
        <time>2022-02-21T23:56:45.911Z</time>
      </trkpt>
      <trkpt lat="42.63422" lon="-1.30385">
        <ele>449.875136</ele>
        <time>2022-02-21T23:58:18.808Z</time>
      </trkpt>
      <trkpt lat="42.63355" lon="-1.30317">
        <ele>456.66204</ele>
        <time>2022-02-21T23:59:15.980Z</time>
      </trkpt>
      <trkpt lat="42.63294" lon="-1.30228">
        <ele>466.062729</ele>
        <time>2022-02-22T00:00:39.674Z</time>
      </trkpt>
      <trkpt lat="42.63183" lon="-1.30106">
        <ele>487.169491</ele>
        <time>2022-02-22T00:03:26.803Z</time>
      </trkpt>
      <trkpt lat="42.63102" lon="-1.30058">
        <ele>497.630854</ele>
        <time>2022-02-22T00:05:11.053Z</time>
      </trkpt>
      <trkpt lat="42.63028" lon="-1.30033">
        <ele>506.537073</ele>
        <time>2022-02-22T00:06:17.465Z</time>
      </trkpt>
      <trkpt lat="42.6301" lon="-1.3003">
        <ele>508.595488</ele>
        <time>2022-02-22T00:06:29.529Z</time>
      </trkpt>
      <trkpt lat="42.62991" lon="-1.30038">
        <ele>508.961914</ele>
        <time>2022-02-22T00:06:41.597Z</time>
      </trkpt>
      <trkpt lat="42.62915" lon="-1.30085">
        <ele>508.981475</ele>
        <time>2022-02-22T00:07:21.978Z</time>
      </trkpt>
      <trkpt lat="42.62902" lon="-1.30102">
        <ele>508.985557</ele>
        <time>2022-02-22T00:07:27.859Z</time>
      </trkpt>
      <trkpt lat="42.62877" lon="-1.30099">
        <ele>508.991483</ele>
        <time>2022-02-22T00:07:35.981Z</time>
      </trkpt>
      <trkpt lat="42.62759" lon="-1.30158">
        <ele>496.940312</ele>
        <time>2022-02-22T00:08:10.130Z</time>
      </trkpt>
      <trkpt lat="42.62651" lon="-1.30195">
        <ele>479.892384</ele>
        <time>2022-02-22T00:08:36.248Z</time>
      </trkpt>
      <trkpt lat="42.62596" lon="-1.30201">
        <ele>467.127235</ele>
        <time>2022-02-22T00:08:49.127Z</time>
      </trkpt>
      <trkpt lat="42.62545" lon="-1.30186">
        <ele>455.203505</ele>
        <time>2022-02-22T00:09:01.102Z</time>
      </trkpt>
      <trkpt lat="42.6252" lon="-1.30171">
        <ele>448.794909</ele>
        <time>2022-02-22T00:09:07.558Z</time>
      </trkpt>
      <trkpt lat="42.62513" lon="-1.30164">
        <ele>446.840787</ele>
        <time>2022-02-22T00:09:09.550Z</time>
      </trkpt>
      <trkpt lat="42.62501" lon="-1.30146">
        <ele>443.054689</ele>
        <time>2022-02-22T00:09:13.656Z</time>
      </trkpt>
      <trkpt lat="42.62485" lon="-1.30102">
        <ele>438.54571</ele>
        <time>2022-02-22T00:09:22.038Z</time>
      </trkpt>
      <trkpt lat="42.62447" lon="-1.29879">
        <ele>420.062202</ele>
        <time>2022-02-22T00:10:05.842Z</time>
      </trkpt>
      <trkpt lat="42.62432" lon="-1.29752">
        <ele>416.738127</ele>
        <time>2022-02-22T00:10:35.605Z</time>
      </trkpt>
      <trkpt lat="42.62427" lon="-1.29631">
        <ele>414.534905</ele>
        <time>2022-02-22T00:11:06.336Z</time>
      </trkpt>
      <trkpt lat="42.6241" lon="-1.29446">
        <ele>413.753575</ele>
        <time>2022-02-22T00:11:55.055Z</time>
      </trkpt>
      <trkpt lat="42.62384" lon="-1.29221">
        <ele>414.313916</ele>
        <time>2022-02-22T00:12:57.606Z</time>
      </trkpt>
      <trkpt lat="42.62372" lon="-1.29162">
        <ele>415.099035</ele>
        <time>2022-02-22T00:13:18.063Z</time>
      </trkpt>
      <trkpt lat="42.62334" lon="-1.29046">
        <ele>418.119522</ele>
        <time>2022-02-22T00:14:07.218Z</time>
      </trkpt>
      <trkpt lat="42.62293" lon="-1.2897">
        <ele>420.306878</ele>
        <time>2022-02-22T00:14:49.076Z</time>
      </trkpt>
      <trkpt lat="42.62245" lon="-1.28909">
        <ele>421.74248</ele>
        <time>2022-02-22T00:15:26.848Z</time>
      </trkpt>
      <trkpt lat="42.62208" lon="-1.28878">
        <ele>422.702633</ele>
        <time>2022-02-22T00:15:49.541Z</time>
      </trkpt>
      <trkpt lat="42.62181" lon="-1.28868">
        <ele>423.323629</ele>
        <time>2022-02-22T00:16:01.931Z</time>
      </trkpt>
      <trkpt lat="42.62156" lon="-1.2887">
        <ele>423.874507</ele>
        <time>2022-02-22T00:16:11.385Z</time>
      </trkpt>
      <trkpt lat="42.62086" lon="-1.28899">
        <ele>422.460176</ele>
        <time>2022-02-22T00:16:35.257Z</time>
      </trkpt>
      <trkpt lat="42.62039" lon="-1.28886">
        <ele>421.103727</ele>
        <time>2022-02-22T00:16:49.688Z</time>
      </trkpt>
      <trkpt lat="42.62005" lon="-1.28857">
        <ele>419.959959</ele>
        <time>2022-02-22T00:17:01.585Z</time>
      </trkpt>
      <trkpt lat="42.6198" lon="-1.28814">
        <ele>418.824417</ele>
        <time>2022-02-22T00:17:13.543Z</time>
      </trkpt>
      <trkpt lat="42.61865" lon="-1.28556">
        <ele>413.334769</ele>
        <time>2022-02-22T00:18:24.657Z</time>
      </trkpt>
      <trkpt lat="42.6184" lon="-1.28492">
        <ele>412.224503</ele>
        <time>2022-02-22T00:18:42.158Z</time>
      </trkpt>
      <trkpt lat="42.61828" lon="-1.28443">
        <ele>411.439051</ele>
        <time>2022-02-22T00:18:54.510Z</time>
      </trkpt>
      <trkpt lat="42.61806" lon="-1.28506">
        <ele>410.434454</ele>
        <time>2022-02-22T00:19:11.095Z</time>
      </trkpt>
      <trkpt lat="42.61791" lon="-1.28554">
        <ele>409.792768</ele>
        <time>2022-02-22T00:19:23.539Z</time>
      </trkpt>
      <trkpt lat="42.61758" lon="-1.28707">
        <ele>407.812183</ele>
        <time>2022-02-22T00:20:02.118Z</time>
      </trkpt>
      <trkpt lat="42.61744" lon="-1.28832">
        <ele>407.392087</ele>
        <time>2022-02-22T00:20:35.865Z</time>
      </trkpt>
      <trkpt lat="42.6174" lon="-1.28844">
        <ele>407.363978</ele>
        <time>2022-02-22T00:20:39.325Z</time>
      </trkpt>
      <trkpt lat="42.61724" lon="-1.28852">
        <ele>407.313762</ele>
        <time>2022-02-22T00:20:45.263Z</time>
      </trkpt>
      <trkpt lat="42.6169" lon="-1.28846">
        <ele>407.210295</ele>
        <time>2022-02-22T00:20:58.090Z</time>
      </trkpt>
      <trkpt lat="42.61681" lon="-1.28844">
        <ele>407.181695</ele>
        <time>2022-02-22T00:21:02.112Z</time>
      </trkpt>
      <trkpt lat="42.61671" lon="-1.28826">
        <ele>407.134196</ele>
        <time>2022-02-22T00:21:07.954Z</time>
      </trkpt>
      <trkpt lat="42.61669" lon="-1.28805">
        <ele>407.116536</ele>
        <time>2022-02-22T00:21:13.649Z</time>
      </trkpt>
      <trkpt lat="42.61673" lon="-1.2878">
        <ele>407.172057</ele>
        <time>2022-02-22T00:21:20.972Z</time>
      </trkpt>
      <trkpt lat="42.61736" lon="-1.28538">
        <ele>407.822482</ele>
        <time>2022-02-22T00:22:33.923Z</time>
      </trkpt>
      <trkpt lat="42.61801" lon="-1.28332">
        <ele>408.783749</ele>
        <time>2022-02-22T00:23:40.770Z</time>
      </trkpt>
      <trkpt lat="42.61784" lon="-1.28228">
        <ele>409.177846</ele>
        <time>2022-02-22T00:24:12.899Z</time>
      </trkpt>
      <trkpt lat="42.61728" lon="-1.27948">
        <ele>409.824184</ele>
        <time>2022-02-22T00:25:34.303Z</time>
      </trkpt>
      <trkpt lat="42.61716" lon="-1.27869">
        <ele>409.896623</ele>
        <time>2022-02-22T00:25:56.515Z</time>
      </trkpt>
      <trkpt lat="42.61695" lon="-1.27765">
        <ele>409.770547</ele>
        <time>2022-02-22T00:26:26.492Z</time>
      </trkpt>
      <trkpt lat="42.6168" lon="-1.27689">
        <ele>409.677591</ele>
        <time>2022-02-22T00:26:47.625Z</time>
      </trkpt>
      <trkpt lat="42.61692" lon="-1.27687">
        <ele>409.657718</ele>
        <time>2022-02-22T00:26:50.378Z</time>
      </trkpt>
      <trkpt lat="42.61704" lon="-1.27672">
        <ele>409.632399</ele>
        <time>2022-02-22T00:26:53.928Z</time>
      </trkpt>
      <trkpt lat="42.61653" lon="-1.27575">
        <ele>409.147368</ele>
        <time>2022-02-22T00:27:12.275Z</time>
      </trkpt>
      <trkpt lat="42.61646" lon="-1.27582">
        <ele>409.099419</ele>
        <time>2022-02-22T00:27:14.031Z</time>
      </trkpt>
      <trkpt lat="42.61577" lon="-1.27646">
        <ele>408.619931</ele>
        <time>2022-02-22T00:27:31.303Z</time>
      </trkpt>
      <trkpt lat="42.61553" lon="-1.27665">
        <ele>408.795053</ele>
        <time>2022-02-22T00:27:37.563Z</time>
      </trkpt>
      <trkpt lat="42.61536" lon="-1.2767">
        <ele>408.942963</ele>
        <time>2022-02-22T00:27:41.476Z</time>
      </trkpt>
      <trkpt lat="42.61491" lon="-1.27684">
        <ele>409.344994</ele>
        <time>2022-02-22T00:27:53.978Z</time>
      </trkpt>
      <trkpt lat="42.6147" lon="-1.2769">
        <ele>409.527182</ele>
        <time>2022-02-22T00:27:59.576Z</time>
      </trkpt>
      <trkpt lat="42.61461" lon="-1.27699">
        <ele>409.62727</ele>
        <time>2022-02-22T00:28:03.126Z</time>
      </trkpt>
      <trkpt lat="42.6142" lon="-1.27764">
        <ele>410.144185</ele>
        <time>2022-02-22T00:28:21.863Z</time>
      </trkpt>
      <trkpt lat="42.61411" lon="-1.27778">
        <ele>410.155212</ele>
        <time>2022-02-22T00:28:26.856Z</time>
      </trkpt>
      <trkpt lat="42.61406" lon="-1.27769">
        <ele>410.161888</ele>
        <time>2022-02-22T00:28:29.633Z</time>
      </trkpt>
      <trkpt lat="42.61383" lon="-1.27783">
        <ele>410.181251</ele>
        <time>2022-02-22T00:28:38.799Z</time>
      </trkpt>
      <trkpt lat="42.61323" lon="-1.27793">
        <ele>410.22971</ele>
        <time>2022-02-22T00:28:57.863Z</time>
      </trkpt>
      <trkpt lat="42.61318" lon="-1.27811">
        <ele>410.240502</ele>
        <time>2022-02-22T00:29:01.954Z</time>
      </trkpt>
      <trkpt lat="42.61192" lon="-1.27751">
        <ele>409.060111</ele>
        <time>2022-02-22T00:29:26.978Z</time>
      </trkpt>
      <trkpt lat="42.61158" lon="-1.27741">
        <ele>408.516938</ele>
        <time>2022-02-22T00:29:33.320Z</time>
      </trkpt>
      <trkpt lat="42.60962" lon="-1.27782">
        <ele>406.683341</ele>
        <time>2022-02-22T00:30:12.325Z</time>
      </trkpt>
      <trkpt lat="42.60792" lon="-1.27818">
        <ele>407.682784</ele>
        <time>2022-02-22T00:30:55.577Z</time>
      </trkpt>
      <trkpt lat="42.60792" lon="-1.27818">
        <ele>407.682784</ele>
        <time>2022-02-22T00:30:55.696Z</time>
      </trkpt>
      <trkpt lat="42.6072" lon="-1.27833">
        <ele>408.61076</ele>
        <time>2022-02-22T00:31:18.756Z</time>
      </trkpt>
      <trkpt lat="42.6065" lon="-1.27835">
        <ele>409.986239</ele>
        <time>2022-02-22T00:31:42.293Z</time>
      </trkpt>
      <trkpt lat="42.60555" lon="-1.27819">
        <ele>411.830666</ele>
        <time>2022-02-22T00:32:13.735Z</time>
      </trkpt>
      <trkpt lat="42.60513" lon="-1.27804">
        <ele>411.814218</ele>
        <time>2022-02-22T00:32:26.097Z</time>
      </trkpt>
      <trkpt lat="42.60438" lon="-1.27763">
        <ele>411.783475</ele>
        <time>2022-02-22T00:32:44.647Z</time>
      </trkpt>
      <trkpt lat="42.60192" lon="-1.27613">
        <ele>408.386064</ele>
        <time>2022-02-22T00:33:34.883Z</time>
      </trkpt>
      <trkpt lat="42.60134" lon="-1.27593">
        <ele>407.988063</ele>
        <time>2022-02-22T00:33:46.665Z</time>
      </trkpt>
      <trkpt lat="42.60079" lon="-1.27586">
        <ele>407.611021</ele>
        <time>2022-02-22T00:33:58.960Z</time>
      </trkpt>
      <trkpt lat="42.60017" lon="-1.27595">
        <ele>407.558201</ele>
        <time>2022-02-22T00:34:13.948Z</time>
      </trkpt>
      <trkpt lat="42.59993" lon="-1.27606">
        <ele>407.653784</ele>
        <time>2022-02-22T00:34:20.501Z</time>
      </trkpt>
      <trkpt lat="42.5996" lon="-1.27623">
        <ele>407.789871</ele>
        <time>2022-02-22T00:34:29.585Z</time>
      </trkpt>
      <trkpt lat="42.59745" lon="-1.27765">
        <ele>408.203032</ele>
        <time>2022-02-22T00:35:25.634Z</time>
      </trkpt>
      <trkpt lat="42.59728" lon="-1.27788">
        <ele>408.217322</ele>
        <time>2022-02-22T00:35:30.659Z</time>
      </trkpt>
      <trkpt lat="42.5972" lon="-1.27809">
        <ele>408.120459</ele>
        <time>2022-02-22T00:35:34.215Z</time>
      </trkpt>
      <trkpt lat="42.59709" lon="-1.27815">
        <ele>408.045303</ele>
        <time>2022-02-22T00:35:36.737Z</time>
      </trkpt>
      <trkpt lat="42.59694" lon="-1.27808">
        <ele>407.951344</ele>
        <time>2022-02-22T00:35:39.940Z</time>
      </trkpt>
      <trkpt lat="42.59673" lon="-1.2781">
        <ele>407.82339</ele>
        <time>2022-02-22T00:35:44.222Z</time>
      </trkpt>
      <trkpt lat="42.59641" lon="-1.27829">
        <ele>407.609143</ele>
        <time>2022-02-22T00:35:51.399Z</time>
      </trkpt>
      <trkpt lat="42.59201" lon="-1.28106">
        <ele>404.635596</ele>
        <time>2022-02-22T00:37:31.618Z</time>
      </trkpt>
      <trkpt lat="42.59169" lon="-1.2814">
        <ele>404.341708</ele>
        <time>2022-02-22T00:37:39.911Z</time>
      </trkpt>
      <trkpt lat="42.59162" lon="-1.28162">
        <ele>404.213828</ele>
        <time>2022-02-22T00:37:43.494Z</time>
      </trkpt>
      <trkpt lat="42.59151" lon="-1.28168">
        <ele>404.127028</ele>
        <time>2022-02-22T00:37:45.910Z</time>
      </trkpt>
      <trkpt lat="42.59135" lon="-1.28162">
        <ele>404.011391</ele>
        <time>2022-02-22T00:37:49.156Z</time>
      </trkpt>
      <trkpt lat="42.59104" lon="-1.28167">
        <ele>403.78652</ele>
        <time>2022-02-22T00:37:55.422Z</time>
      </trkpt>
      <trkpt lat="42.59094" lon="-1.28173">
        <ele>403.706757</ele>
        <time>2022-02-22T00:37:57.683Z</time>
      </trkpt>
      <trkpt lat="42.58976" lon="-1.28248">
        <ele>402.874842</ele>
        <time>2022-02-22T00:38:24.403Z</time>
      </trkpt>
      <trkpt lat="42.58945" lon="-1.28267">
        <ele>402.6639</ele>
        <time>2022-02-22T00:38:31.351Z</time>
      </trkpt>
      <trkpt lat="42.58846" lon="-1.28326">
        <ele>402.079715</ele>
        <time>2022-02-22T00:38:54.382Z</time>
      </trkpt>
      <trkpt lat="42.5824" lon="-1.2854">
        <ele>398.839259</ele>
        <time>2022-02-22T00:41:04.930Z</time>
      </trkpt>
      <trkpt lat="42.58168" lon="-1.28564">
        <ele>398.585865</ele>
        <time>2022-02-22T00:41:20.507Z</time>
      </trkpt>
      <trkpt lat="42.58148" lon="-1.28559">
        <ele>398.517956</ele>
        <time>2022-02-22T00:41:24.994Z</time>
      </trkpt>
      <trkpt lat="42.58129" lon="-1.28563">
        <ele>398.456665</ele>
        <time>2022-02-22T00:41:28.946Z</time>
      </trkpt>
      <trkpt lat="42.58092" lon="-1.28578">
        <ele>398.328121</ele>
        <time>2022-02-22T00:41:37.401Z</time>
      </trkpt>
      <trkpt lat="42.58087" lon="-1.28594">
        <ele>398.286443</ele>
        <time>2022-02-22T00:41:40.197Z</time>
      </trkpt>
      <trkpt lat="42.58065" lon="-1.28601">
        <ele>398.215681</ele>
        <time>2022-02-22T00:41:44.893Z</time>
      </trkpt>
      <trkpt lat="42.57983" lon="-1.2863">
        <ele>398.112406</ele>
        <time>2022-02-22T00:42:03.278Z</time>
      </trkpt>
      <trkpt lat="42.57969" lon="-1.28635">
        <ele>398.094593</ele>
        <time>2022-02-22T00:42:06.452Z</time>
      </trkpt>
      <trkpt lat="42.57926" lon="-1.28649">
        <ele>398.04108</ele>
        <time>2022-02-22T00:42:15.987Z</time>
      </trkpt>
      <trkpt lat="42.57885" lon="-1.28664">
        <ele>398.045885</ele>
        <time>2022-02-22T00:42:25.519Z</time>
      </trkpt>
      <trkpt lat="42.57792" lon="-1.28696">
        <ele>398.694092</ele>
        <time>2022-02-22T00:42:48.805Z</time>
      </trkpt>
      <trkpt lat="42.57782" lon="-1.28699">
        <ele>398.765283</ele>
        <time>2022-02-22T00:42:51.746Z</time>
      </trkpt>
      <trkpt lat="42.57759" lon="-1.28705">
        <ele>398.923629</ele>
        <time>2022-02-22T00:42:58.343Z</time>
      </trkpt>
      <trkpt lat="42.57737" lon="-1.28699">
        <ele>399.07512</ele>
        <time>2022-02-22T00:43:04.891Z</time>
      </trkpt>
      <trkpt lat="42.57729" lon="-1.28684">
        <ele>399.172545</ele>
        <time>2022-02-22T00:43:08.876Z</time>
      </trkpt>
      <trkpt lat="42.57727" lon="-1.28679">
        <ele>399.200388</ele>
        <time>2022-02-22T00:43:10.060Z</time>
      </trkpt>
      <trkpt lat="42.57698" lon="-1.28553">
        <ele>399.925413</ele>
        <time>2022-02-22T00:43:35.927Z</time>
      </trkpt>
      <trkpt lat="42.57694" lon="-1.28531">
        <ele>400.047409</ele>
        <time>2022-02-22T00:43:40.264Z</time>
      </trkpt>
      <trkpt lat="42.57615" lon="-1.28535">
        <ele>400.543832</ele>
        <time>2022-02-22T00:44:05.703Z</time>
      </trkpt>
      <trkpt lat="42.57576" lon="-1.28528">
        <ele>400.450803</ele>
        <time>2022-02-22T00:44:17.502Z</time>
      </trkpt>
      <trkpt lat="42.57527" lon="-1.28517">
        <ele>400.335285</ele>
        <time>2022-02-22T00:44:31.381Z</time>
      </trkpt>
      <trkpt lat="42.57502" lon="-1.28489">
        <ele>400.258445</ele>
        <time>2022-02-22T00:44:40.454Z</time>
      </trkpt>
      <trkpt lat="42.57498" lon="-1.28458">
        <ele>400.203604</ele>
        <time>2022-02-22T00:44:47.035Z</time>
      </trkpt>
      <trkpt lat="42.57485" lon="-1.28455">
        <ele>400.172358</ele>
        <time>2022-02-22T00:44:50.621Z</time>
      </trkpt>
      <trkpt lat="42.57479" lon="-1.2845">
        <ele>400.156457</ele>
        <time>2022-02-22T00:44:52.503Z</time>
      </trkpt>
      <trkpt lat="42.57437" lon="-1.28418">
        <ele>399.896219</ele>
        <time>2022-02-22T00:45:05.936Z</time>
      </trkpt>
      <trkpt lat="42.57407" lon="-1.28396">
        <ele>399.698479</ele>
        <time>2022-02-22T00:45:15.411Z</time>
      </trkpt>
      <trkpt lat="42.5738" lon="-1.28377">
        <ele>399.524337</ele>
        <time>2022-02-22T00:45:23.773Z</time>
      </trkpt>
      <trkpt lat="42.5737" lon="-1.2837">
        <ele>399.45812</ele>
        <time>2022-02-22T00:45:27.010Z</time>
      </trkpt>
      <trkpt lat="42.57341" lon="-1.2835">
        <ele>399.270912</ele>
        <time>2022-02-22T00:45:35.826Z</time>
      </trkpt>
      <trkpt lat="42.57291" lon="-1.28313">
        <ele>398.981186</ele>
        <time>2022-02-22T00:45:51.684Z</time>
      </trkpt>
      <trkpt lat="42.57288" lon="-1.28311">
        <ele>398.968995</ele>
        <time>2022-02-22T00:45:52.495Z</time>
      </trkpt>
      <trkpt lat="42.57277" lon="-1.2831">
        <ele>398.921593</ele>
        <time>2022-02-22T00:45:54.749Z</time>
      </trkpt>
      <trkpt lat="42.57274" lon="-1.28304">
        <ele>398.895722</ele>
        <time>2022-02-22T00:45:56.043Z</time>
      </trkpt>
      <trkpt lat="42.57262" lon="-1.28302">
        <ele>398.845442</ele>
        <time>2022-02-22T00:45:58.409Z</time>
      </trkpt>
      <trkpt lat="42.57207" lon="-1.28275">
        <ele>398.595499</ele>
        <time>2022-02-22T00:46:10.616Z</time>
      </trkpt>
      <trkpt lat="42.57145" lon="-1.28243">
        <ele>398.401471</ele>
        <time>2022-02-22T00:46:24.939Z</time>
      </trkpt>
      <trkpt lat="42.57138" lon="-1.28239">
        <ele>398.492994</ele>
        <time>2022-02-22T00:46:26.649Z</time>
      </trkpt>
      <trkpt lat="42.5713" lon="-1.28237">
        <ele>398.588533</ele>
        <time>2022-02-22T00:46:28.345Z</time>
      </trkpt>
      <trkpt lat="42.57124" lon="-1.28235">
        <ele>398.663159</ele>
        <time>2022-02-22T00:46:29.656Z</time>
      </trkpt>
      <trkpt lat="42.5711" lon="-1.28232">
        <ele>398.831896</ele>
        <time>2022-02-22T00:46:32.683Z</time>
      </trkpt>
      <trkpt lat="42.57017" lon="-1.28219">
        <ele>399.934738</ele>
        <time>2022-02-22T00:46:59.977Z</time>
      </trkpt>
      <trkpt lat="42.5701" lon="-1.28218">
        <ele>400.028973</ele>
        <time>2022-02-22T00:47:02.408Z</time>
      </trkpt>
      <trkpt lat="42.56966" lon="-1.28213">
        <ele>400.65327</ele>
        <time>2022-02-22T00:47:16.576Z</time>
      </trkpt>
      <trkpt lat="42.56958" lon="-1.28211">
        <ele>400.882828</ele>
        <time>2022-02-22T00:47:19.077Z</time>
      </trkpt>
      <trkpt lat="42.56963" lon="-1.28159">
        <ele>402.003415</ele>
        <time>2022-02-22T00:47:32.601Z</time>
      </trkpt>
      <trkpt lat="42.56963" lon="-1.28154">
        <ele>402.110356</ele>
        <time>2022-02-22T00:47:34.229Z</time>
      </trkpt>
      <trkpt lat="42.56824" lon="-1.28155">
        <ele>405.984033</ele>
        <time>2022-02-22T00:48:28.070Z</time>
      </trkpt>
      <trkpt lat="42.56773" lon="-1.28152">
        <ele>407.082852</ele>
        <time>2022-02-22T00:48:47.101Z</time>
      </trkpt>
      <trkpt lat="42.56751" lon="-1.28157">
        <ele>407.564305</ele>
        <time>2022-02-22T00:48:54.712Z</time>
      </trkpt>
      <trkpt lat="42.56659" lon="-1.28209">
        <ele>409.537542</ele>
        <time>2022-02-22T00:49:28.139Z</time>
      </trkpt>
      <trkpt lat="42.56573" lon="-1.28265">
        <ele>409.953035</ele>
        <time>2022-02-22T00:49:56.598Z</time>
      </trkpt>
      <trkpt lat="42.56553" lon="-1.28271">
        <ele>410.041313</ele>
        <time>2022-02-22T00:50:02.321Z</time>
      </trkpt>
      <trkpt lat="42.56525" lon="-1.28256">
        <ele>410.173361</ele>
        <time>2022-02-22T00:50:10.190Z</time>
      </trkpt>
      <trkpt lat="42.56394" lon="-1.28309">
        <ele>407.410099</ele>
        <time>2022-02-22T00:50:35.734Z</time>
      </trkpt>
      <trkpt lat="42.56337" lon="-1.28327">
        <ele>405.915498</ele>
        <time>2022-02-22T00:50:45.344Z</time>
      </trkpt>
      <trkpt lat="42.56306" lon="-1.28332">
        <ele>404.939059</ele>
        <time>2022-02-22T00:50:50.410Z</time>
      </trkpt>
      <trkpt lat="42.5627" lon="-1.28335">
        <ele>403.719093</ele>
        <time>2022-02-22T00:50:56.279Z</time>
      </trkpt>
      <trkpt lat="42.56182" lon="-1.28324">
        <ele>400.73578</ele>
        <time>2022-02-22T00:51:10.951Z</time>
      </trkpt>
      <trkpt lat="42.56134" lon="-1.28307">
        <ele>399.765827</ele>
        <time>2022-02-22T00:51:19.978Z</time>
      </trkpt>
      <trkpt lat="42.56065" lon="-1.28265">
        <ele>400.45151</ele>
        <time>2022-02-22T00:51:38.625Z</time>
      </trkpt>
      <trkpt lat="42.56025" lon="-1.2823">
        <ele>400.881625</ele>
        <time>2022-02-22T00:51:55.207Z</time>
      </trkpt>
      <trkpt lat="42.55982" lon="-1.28187">
        <ele>401.447533</ele>
        <time>2022-02-22T00:52:14.090Z</time>
      </trkpt>
      <trkpt lat="42.55977" lon="-1.2818">
        <ele>401.55707</ele>
        <time>2022-02-22T00:52:16.174Z</time>
      </trkpt>
      <trkpt lat="42.55954" lon="-1.28152">
        <ele>402.02206</ele>
        <time>2022-02-22T00:52:25.902Z</time>
      </trkpt>
      <trkpt lat="42.55933" lon="-1.2813">
        <ele>402.430397</ele>
        <time>2022-02-22T00:52:34.673Z</time>
      </trkpt>
      <trkpt lat="42.55919" lon="-1.28127">
        <ele>402.635457</ele>
        <time>2022-02-22T00:52:38.694Z</time>
      </trkpt>
      <trkpt lat="42.55893" lon="-1.28136">
        <ele>403.041899</ele>
        <time>2022-02-22T00:52:47.428Z</time>
      </trkpt>
      <trkpt lat="42.55879" lon="-1.28155">
        <ele>403.345404</ele>
        <time>2022-02-22T00:52:52.527Z</time>
      </trkpt>
      <trkpt lat="42.55874" lon="-1.28172">
        <ele>403.552294</ele>
        <time>2022-02-22T00:52:56.806Z</time>
      </trkpt>
      <trkpt lat="42.55876" lon="-1.28235">
        <ele>403.827542</ele>
        <time>2022-02-22T00:53:07.824Z</time>
      </trkpt>
      <trkpt lat="42.55873" lon="-1.28274">
        <ele>403.594873</ele>
        <time>2022-02-22T00:53:14.507Z</time>
      </trkpt>
      <trkpt lat="42.55857" lon="-1.28322">
        <ele>403.278314</ele>
        <time>2022-02-22T00:53:22.326Z</time>
      </trkpt>
      <trkpt lat="42.55565" lon="-1.28904">
        <ele>398.744183</ele>
        <time>2022-02-22T00:55:05.044Z</time>
      </trkpt>
      <trkpt lat="42.55546" lon="-1.28933">
        <ele>398.548596</ele>
        <time>2022-02-22T00:55:10.981Z</time>
      </trkpt>
      <trkpt lat="42.55476" lon="-1.29005">
        <ele>397.967566</ele>
        <time>2022-02-22T00:55:29.174Z</time>
      </trkpt>
      <trkpt lat="42.55174" lon="-1.29267">
        <ele>397.448238</ele>
        <time>2022-02-22T00:56:47.414Z</time>
      </trkpt>
      <trkpt lat="42.55096" lon="-1.29316">
        <ele>398.320723</ele>
        <time>2022-02-22T00:57:08.604Z</time>
      </trkpt>
      <trkpt lat="42.54971" lon="-1.29409">
        <ele>400.815975</ele>
        <time>2022-02-22T00:57:51.428Z</time>
      </trkpt>
      <trkpt lat="42.54939" lon="-1.29424">
        <ele>401.852905</ele>
        <time>2022-02-22T00:58:03.893Z</time>
      </trkpt>
      <trkpt lat="42.54852" lon="-1.29451">
        <ele>404.651545</ele>
        <time>2022-02-22T00:58:40.697Z</time>
      </trkpt>
      <trkpt lat="42.54775" lon="-1.29501">
        <ele>408.153397</ele>
        <time>2022-02-22T00:59:19.300Z</time>
      </trkpt>
      <trkpt lat="42.54643" lon="-1.296">
        <ele>414.376393</ele>
        <time>2022-02-22T01:00:23.509Z</time>
      </trkpt>
      <trkpt lat="42.54579" lon="-1.29626">
        <ele>417.073864</ele>
        <time>2022-02-22T01:00:52.131Z</time>
      </trkpt>
      <trkpt lat="42.54524" lon="-1.29636">
        <ele>419.260444</ele>
        <time>2022-02-22T01:01:15.139Z</time>
      </trkpt>
      <trkpt lat="42.54448" lon="-1.29651">
        <ele>421.981354</ele>
        <time>2022-02-22T01:01:47.218Z</time>
      </trkpt>
      <trkpt lat="42.54289" lon="-1.29713">
        <ele>426.745001</ele>
        <time>2022-02-22T01:02:51.288Z</time>
      </trkpt>
      <trkpt lat="42.54272" lon="-1.29718">
        <ele>427.020969</ele>
        <time>2022-02-22T01:02:56.216Z</time>
      </trkpt>
      <trkpt lat="42.54227" lon="-1.29732">
        <ele>427.762485</ele>
        <time>2022-02-22T01:03:09.026Z</time>
      </trkpt>
      <trkpt lat="42.54181" lon="-1.29746">
        <ele>428.510468</ele>
        <time>2022-02-22T01:03:21.132Z</time>
      </trkpt>
      <trkpt lat="42.54152" lon="-1.29759">
        <ele>428.830947</ele>
        <time>2022-02-22T01:03:28.578Z</time>
      </trkpt>
      <trkpt lat="42.54109" lon="-1.29772">
        <ele>429.050498</ele>
        <time>2022-02-22T01:03:38.784Z</time>
      </trkpt>
      <trkpt lat="42.54076" lon="-1.29782">
        <ele>429.220328</ele>
        <time>2022-02-22T01:03:46.825Z</time>
      </trkpt>
      <trkpt lat="42.53893" lon="-1.29838">
        <ele>430.455624</ele>
        <time>2022-02-22T01:04:34.749Z</time>
      </trkpt>
      <trkpt lat="42.53726" lon="-1.29894">
        <ele>432.718083</ele>
        <time>2022-02-22T01:05:21.381Z</time>
      </trkpt>
      <trkpt lat="42.53162" lon="-1.30187">
        <ele>447.896432</ele>
        <time>2022-02-22T01:08:53.707Z</time>
      </trkpt>
      <trkpt lat="42.53135" lon="-1.30205">
        <ele>448.751045</ele>
        <time>2022-02-22T01:09:06.181Z</time>
      </trkpt>
      <trkpt lat="42.53073" lon="-1.3026">
        <ele>450.806523</ele>
        <time>2022-02-22T01:09:35.534Z</time>
      </trkpt>
      <trkpt lat="42.53027" lon="-1.30305">
        <ele>452.376447</ele>
        <time>2022-02-22T01:09:56.123Z</time>
      </trkpt>
      <trkpt lat="42.53011" lon="-1.30342">
        <ele>453.254783</ele>
        <time>2022-02-22T01:10:06.962Z</time>
      </trkpt>
      <trkpt lat="42.53004" lon="-1.30377">
        <ele>453.647572</ele>
        <time>2022-02-22T01:10:15.483Z</time>
      </trkpt>
      <trkpt lat="42.53006" lon="-1.30587">
        <ele>454.620102</ele>
        <time>2022-02-22T01:10:53.245Z</time>
      </trkpt>
      <trkpt lat="42.52999" lon="-1.3066">
        <ele>454.507343</ele>
        <time>2022-02-22T01:11:04.667Z</time>
      </trkpt>
      <trkpt lat="42.52855" lon="-1.31204">
        <ele>453.037963</ele>
        <time>2022-02-22T01:12:34.608Z</time>
      </trkpt>
      <trkpt lat="42.52855" lon="-1.31242">
        <ele>452.960519</ele>
        <time>2022-02-22T01:12:40.593Z</time>
      </trkpt>
      <trkpt lat="42.52899" lon="-1.31349">
        <ele>452.910554</ele>
        <time>2022-02-22T01:13:00.849Z</time>
      </trkpt>
      <trkpt lat="42.52902" lon="-1.31368">
        <ele>452.927447</ele>
        <time>2022-02-22T01:13:04.299Z</time>
      </trkpt>
      <trkpt lat="42.52897" lon="-1.31405">
        <ele>452.96145</ele>
        <time>2022-02-22T01:13:11.312Z</time>
      </trkpt>
      <trkpt lat="42.52879" lon="-1.31437">
        <ele>452.996458</ele>
        <time>2022-02-22T01:13:18.844Z</time>
      </trkpt>
      <trkpt lat="42.52845" lon="-1.31468">
        <ele>453.046751</ele>
        <time>2022-02-22T01:13:29.058Z</time>
      </trkpt>
      <trkpt lat="42.52746" lon="-1.31487">
        <ele>451.770507</ele>
        <time>2022-02-22T01:13:49.281Z</time>
      </trkpt>
      <trkpt lat="42.52723" lon="-1.31498">
        <ele>451.384413</ele>
        <time>2022-02-22T01:13:53.875Z</time>
      </trkpt>
      <trkpt lat="42.52688" lon="-1.31543">
        <ele>450.630662</ele>
        <time>2022-02-22T01:14:02.455Z</time>
      </trkpt>
      <trkpt lat="42.52633" lon="-1.31598">
        <ele>449.228956</ele>
        <time>2022-02-22T01:14:14.242Z</time>
      </trkpt>
      <trkpt lat="42.52623" lon="-1.3163">
        <ele>448.633117</ele>
        <time>2022-02-22T01:14:18.595Z</time>
      </trkpt>
      <trkpt lat="42.52623" lon="-1.31657">
        <ele>448.155683</ele>
        <time>2022-02-22T01:14:22.057Z</time>
      </trkpt>
      <trkpt lat="42.52636" lon="-1.31684">
        <ele>447.594732</ele>
        <time>2022-02-22T01:14:26.161Z</time>
      </trkpt>
      <trkpt lat="42.52671" lon="-1.31719">
        <ele>446.587226</ele>
        <time>2022-02-22T01:14:33.994Z</time>
      </trkpt>
      <trkpt lat="42.52695" lon="-1.31731">
        <ele>446.051508</ele>
        <time>2022-02-22T01:14:38.963Z</time>
      </trkpt>
      <trkpt lat="42.52719" lon="-1.3173">
        <ele>446.309768</ele>
        <time>2022-02-22T01:14:43.792Z</time>
      </trkpt>
      <trkpt lat="42.52735" lon="-1.3172">
        <ele>446.506513</ele>
        <time>2022-02-22T01:14:47.645Z</time>
      </trkpt>
      <trkpt lat="42.52783" lon="-1.31667">
        <ele>447.18578</ele>
        <time>2022-02-22T01:15:04.367Z</time>
      </trkpt>
      <trkpt lat="42.52793" lon="-1.31663">
        <ele>447.302687</ele>
        <time>2022-02-22T01:15:07.915Z</time>
      </trkpt>
      <trkpt lat="42.52807" lon="-1.31668">
        <ele>447.45977</ele>
        <time>2022-02-22T01:15:12.611Z</time>
      </trkpt>
      <trkpt lat="42.52818" lon="-1.31679">
        <ele>447.612043</ele>
        <time>2022-02-22T01:15:17.030Z</time>
      </trkpt>
      <trkpt lat="42.52834" lon="-1.31727">
        <ele>448.085123</ele>
        <time>2022-02-22T01:15:30.860Z</time>
      </trkpt>
      <trkpt lat="42.52862" lon="-1.32026">
        <ele>454.43218</ele>
        <time>2022-02-22T01:16:57.958Z</time>
      </trkpt>
      <trkpt lat="42.5286" lon="-1.32048">
        <ele>454.661304</ele>
        <time>2022-02-22T01:17:03.206Z</time>
      </trkpt>
      <trkpt lat="42.52846" lon="-1.32088">
        <ele>455.121243</ele>
        <time>2022-02-22T01:17:13.357Z</time>
      </trkpt>
      <trkpt lat="42.52732" lon="-1.32346">
        <ele>455.955421</ele>
        <time>2022-02-22T01:18:03.026Z</time>
      </trkpt>
      <trkpt lat="42.5264" lon="-1.3246">
        <ele>454.396957</ele>
        <time>2022-02-22T01:18:27.400Z</time>
      </trkpt>
      <trkpt lat="42.52611" lon="-1.32467">
        <ele>453.867565</ele>
        <time>2022-02-22T01:18:32.724Z</time>
      </trkpt>
      <trkpt lat="42.52533" lon="-1.32448">
        <ele>452.441408</ele>
        <time>2022-02-22T01:18:46.862Z</time>
      </trkpt>
      <trkpt lat="42.52505" lon="-1.32433">
        <ele>451.887175</ele>
        <time>2022-02-22T01:18:52.207Z</time>
      </trkpt>
      <trkpt lat="42.52464" lon="-1.32423">
        <ele>451.107532</ele>
        <time>2022-02-22T01:18:59.900Z</time>
      </trkpt>
      <trkpt lat="42.52453" lon="-1.32425">
        <ele>450.907311</ele>
        <time>2022-02-22T01:19:01.870Z</time>
      </trkpt>
      <trkpt lat="42.52437" lon="-1.3244">
        <ele>450.554613</ele>
        <time>2022-02-22T01:19:05.400Z</time>
      </trkpt>
      <trkpt lat="42.52402" lon="-1.32527">
        <ele>449.329051</ele>
        <time>2022-02-22T01:19:19.183Z</time>
      </trkpt>
      <trkpt lat="42.52401" lon="-1.32569">
        <ele>449.527132</ele>
        <time>2022-02-22T01:19:25.743Z</time>
      </trkpt>
      <trkpt lat="42.52409" lon="-1.32605">
        <ele>449.700865</ele>
        <time>2022-02-22T01:19:32.123Z</time>
      </trkpt>
      <trkpt lat="42.52479" lon="-1.32665">
        <ele>450.221089</ele>
        <time>2022-02-22T01:19:55.358Z</time>
      </trkpt>
      <trkpt lat="42.52553" lon="-1.32701">
        <ele>451.610662</ele>
        <time>2022-02-22T01:20:19.318Z</time>
      </trkpt>
      <trkpt lat="42.52564" lon="-1.32722">
        <ele>452.086297</ele>
        <time>2022-02-22T01:20:25.513Z</time>
      </trkpt>
      <trkpt lat="42.52563" lon="-1.32741">
        <ele>452.454469</ele>
        <time>2022-02-22T01:20:30.437Z</time>
      </trkpt>
      <trkpt lat="42.52543" lon="-1.32785">
        <ele>453.435461</ele>
        <time>2022-02-22T01:20:44.094Z</time>
      </trkpt>
      <trkpt lat="42.52528" lon="-1.32836">
        <ele>454.498801</ele>
        <time>2022-02-22T01:20:59.759Z</time>
      </trkpt>
      <trkpt lat="42.5248" lon="-1.3308">
        <ele>460.316838</ele>
        <time>2022-02-22T01:22:14.329Z</time>
      </trkpt>
      <trkpt lat="42.52473" lon="-1.33094">
        <ele>460.713261</ele>
        <time>2022-02-22T01:22:18.995Z</time>
      </trkpt>
      <trkpt lat="42.52447" lon="-1.33108">
        <ele>460.738924</ele>
        <time>2022-02-22T01:22:28.329Z</time>
      </trkpt>
      <trkpt lat="42.52378" lon="-1.33117">
        <ele>460.33382</ele>
        <time>2022-02-22T01:22:44.141Z</time>
      </trkpt>
      <trkpt lat="42.52352" lon="-1.33133">
        <ele>460.163785</ele>
        <time>2022-02-22T01:22:49.551Z</time>
      </trkpt>
      <trkpt lat="42.52339" lon="-1.33162">
        <ele>460.015916</ele>
        <time>2022-02-22T01:22:54.148Z</time>
      </trkpt>
      <trkpt lat="42.5234" lon="-1.33299">
        <ele>458.117228</ele>
        <time>2022-02-22T01:23:11.538Z</time>
      </trkpt>
      <trkpt lat="42.52333" lon="-1.33315">
        <ele>457.780158</ele>
        <time>2022-02-22T01:23:13.844Z</time>
      </trkpt>
      <trkpt lat="42.52271" lon="-1.33382">
        <ele>455.773726</ele>
        <time>2022-02-22T01:23:27.702Z</time>
      </trkpt>
      <trkpt lat="42.52255" lon="-1.3341">
        <ele>455.24044</ele>
        <time>2022-02-22T01:23:32.702Z</time>
      </trkpt>
      <trkpt lat="42.52237" lon="-1.33476">
        <ele>455.040783</ele>
        <time>2022-02-22T01:23:43.256Z</time>
      </trkpt>
      <trkpt lat="42.52221" lon="-1.33592">
        <ele>454.704583</ele>
        <time>2022-02-22T01:24:03.167Z</time>
      </trkpt>
      <trkpt lat="42.52166" lon="-1.3371">
        <ele>454.661905</ele>
        <time>2022-02-22T01:24:26.905Z</time>
      </trkpt>
      <trkpt lat="42.52142" lon="-1.33778">
        <ele>454.735465</ele>
        <time>2022-02-22T01:24:39.211Z</time>
      </trkpt>
      <trkpt lat="42.52096" lon="-1.33859">
        <ele>454.854861</ele>
        <time>2022-02-22T01:24:56.328Z</time>
      </trkpt>
      <trkpt lat="42.52084" lon="-1.33897">
        <ele>454.926725</ele>
        <time>2022-02-22T01:25:03.626Z</time>
      </trkpt>
      <trkpt lat="42.52088" lon="-1.33962">
        <ele>455.038547</ele>
        <time>2022-02-22T01:25:15.213Z</time>
      </trkpt>
      <trkpt lat="42.52129" lon="-1.34209">
        <ele>454.905751</ele>
        <time>2022-02-22T01:25:58.253Z</time>
      </trkpt>
      <trkpt lat="42.52174" lon="-1.34311">
        <ele>454.496999</ele>
        <time>2022-02-22T01:26:16.012Z</time>
      </trkpt>
      <trkpt lat="42.52201" lon="-1.34567">
        <ele>451.775186</ele>
        <time>2022-02-22T01:26:52.182Z</time>
      </trkpt>
      <trkpt lat="42.52197" lon="-1.34602">
        <ele>451.381313</ele>
        <time>2022-02-22T01:26:57.097Z</time>
      </trkpt>
      <trkpt lat="42.52191" lon="-1.34619">
        <ele>451.161738</ele>
        <time>2022-02-22T01:26:59.859Z</time>
      </trkpt>
      <trkpt lat="42.52153" lon="-1.34682">
        <ele>450.250415</ele>
        <time>2022-02-22T01:27:11.308Z</time>
      </trkpt>
      <trkpt lat="42.52149" lon="-1.34774">
        <ele>449.26861</ele>
        <time>2022-02-22T01:27:24.192Z</time>
      </trkpt>
      <trkpt lat="42.52134" lon="-1.34805">
        <ele>448.937917</ele>
        <time>2022-02-22T01:27:29.551Z</time>
      </trkpt>
      <trkpt lat="42.52042" lon="-1.34863">
        <ele>447.748652</ele>
        <time>2022-02-22T01:27:48.862Z</time>
      </trkpt>
      <trkpt lat="42.5198" lon="-1.3487">
        <ele>447.782531</ele>
        <time>2022-02-22T01:28:00.962Z</time>
      </trkpt>
      <trkpt lat="42.51965" lon="-1.34865">
        <ele>448.124323</ele>
        <time>2022-02-22T01:28:05.996Z</time>
      </trkpt>
      <trkpt lat="42.51926" lon="-1.34833">
        <ele>449.132662</ele>
        <time>2022-02-22T01:28:20.959Z</time>
      </trkpt>
      <trkpt lat="42.51899" lon="-1.34793">
        <ele>450.026634</ele>
        <time>2022-02-22T01:28:34.663Z</time>
      </trkpt>
      <trkpt lat="42.51885" lon="-1.34745">
        <ele>450.858383</ele>
        <time>2022-02-22T01:28:49.138Z</time>
      </trkpt>
      <trkpt lat="42.51876" lon="-1.34707">
        <ele>451.862615</ele>
        <time>2022-02-22T01:29:02.993Z</time>
      </trkpt>
      <trkpt lat="42.51856" lon="-1.34688">
        <ele>453.186677</ele>
        <time>2022-02-22T01:29:14.174Z</time>
      </trkpt>
      <trkpt lat="42.51845" lon="-1.34685">
        <ele>453.803216</ele>
        <time>2022-02-22T01:29:19.734Z</time>
      </trkpt>
      <trkpt lat="42.51804" lon="-1.34707">
        <ele>456.183087</ele>
        <time>2022-02-22T01:29:41.152Z</time>
      </trkpt>
      <trkpt lat="42.51794" lon="-1.34717">
        <ele>456.910261</ele>
        <time>2022-02-22T01:29:49.349Z</time>
      </trkpt>
      <trkpt lat="42.51785" lon="-1.34746">
        <ele>458.133894</ele>
        <time>2022-02-22T01:30:01.407Z</time>
      </trkpt>
      <trkpt lat="42.51803" lon="-1.34895">
        <ele>463.719441</ele>
        <time>2022-02-22T01:30:57.937Z</time>
      </trkpt>
      <trkpt lat="42.51801" lon="-1.34969">
        <ele>466.20474</ele>
        <time>2022-02-22T01:31:22.860Z</time>
      </trkpt>
      <trkpt lat="42.51803" lon="-1.34982">
        <ele>466.630441</ele>
        <time>2022-02-22T01:31:26.818Z</time>
      </trkpt>
      <trkpt lat="42.51835" lon="-1.35047">
        <ele>469.279781</ele>
        <time>2022-02-22T01:31:50.878Z</time>
      </trkpt>
      <trkpt lat="42.51837" lon="-1.35076">
        <ele>469.703318</ele>
        <time>2022-02-22T01:31:58.949Z</time>
      </trkpt>
      <trkpt lat="42.51831" lon="-1.35096">
        <ele>470.008607</ele>
        <time>2022-02-22T01:32:04.538Z</time>
      </trkpt>
      <trkpt lat="42.51753" lon="-1.35218">
        <ele>472.346812</ele>
        <time>2022-02-22T01:32:40.366Z</time>
      </trkpt>
      <trkpt lat="42.5169" lon="-1.35308">
        <ele>473.608113</ele>
        <time>2022-02-22T01:33:07.092Z</time>
      </trkpt>
      <trkpt lat="42.51659" lon="-1.35343">
        <ele>474.070218</ele>
        <time>2022-02-22T01:33:18.122Z</time>
      </trkpt>
      <trkpt lat="42.51641" lon="-1.35347">
        <ele>474.288168</ele>
        <time>2022-02-22T01:33:23.560Z</time>
      </trkpt>
      <trkpt lat="42.51594" lon="-1.35325">
        <ele>474.856735</ele>
        <time>2022-02-22T01:33:35.916Z</time>
      </trkpt>
      <trkpt lat="42.51539" lon="-1.3534">
        <ele>476.245494</ele>
        <time>2022-02-22T01:33:51.040Z</time>
      </trkpt>
      <trkpt lat="42.51515" lon="-1.35356">
        <ele>476.932393</ele>
        <time>2022-02-22T01:33:59.529Z</time>
      </trkpt>
      <trkpt lat="42.51509" lon="-1.3537">
        <ele>477.240216</ele>
        <time>2022-02-22T01:34:04.462Z</time>
      </trkpt>
      <trkpt lat="42.51512" lon="-1.35401">
        <ele>477.830733</ele>
        <time>2022-02-22T01:34:12.891Z</time>
      </trkpt>
      <trkpt lat="42.51551" lon="-1.35426">
        <ele>478.932833</ele>
        <time>2022-02-22T01:34:29.868Z</time>
      </trkpt>
      <trkpt lat="42.5156" lon="-1.35448">
        <ele>479.398</ele>
        <time>2022-02-22T01:34:37.552Z</time>
      </trkpt>
      <trkpt lat="42.51558" lon="-1.35468">
        <ele>480.043385</ele>
        <time>2022-02-22T01:34:43.748Z</time>
      </trkpt>
      <trkpt lat="42.51539" lon="-1.35488">
        <ele>481.354247</ele>
        <time>2022-02-22T01:34:54.652Z</time>
      </trkpt>
      <trkpt lat="42.51511" lon="-1.35472">
        <ele>482.97428</ele>
        <time>2022-02-22T01:35:08.758Z</time>
      </trkpt>
      <trkpt lat="42.51454" lon="-1.35353">
        <ele>488.551584</ele>
        <time>2022-02-22T01:36:03.396Z</time>
      </trkpt>
      <trkpt lat="42.51445" lon="-1.35296">
        <ele>490.471562</ele>
        <time>2022-02-22T01:36:27.146Z</time>
      </trkpt>
      <trkpt lat="42.51434" lon="-1.35111">
        <ele>496.277511</ele>
        <time>2022-02-22T01:37:25.471Z</time>
      </trkpt>
      <trkpt lat="42.51398" lon="-1.34952">
        <ele>498.131139</ele>
        <time>2022-02-22T01:38:04.182Z</time>
      </trkpt>
      <trkpt lat="42.51378" lon="-1.34885">
        <ele>498.803609</ele>
        <time>2022-02-22T01:38:15.920Z</time>
      </trkpt>
      <trkpt lat="42.51351" lon="-1.34851">
        <ele>499.10088</ele>
        <time>2022-02-22T01:38:23.428Z</time>
      </trkpt>
      <trkpt lat="42.5131" lon="-1.34826">
        <ele>499.333214</ele>
        <time>2022-02-22T01:38:32.836Z</time>
      </trkpt>
      <trkpt lat="42.51209" lon="-1.34816">
        <ele>499.854169</ele>
        <time>2022-02-22T01:38:58.173Z</time>
      </trkpt>
      <trkpt lat="42.51197" lon="-1.34816">
        <ele>499.925913</ele>
        <time>2022-02-22T01:39:02.173Z</time>
      </trkpt>
      <trkpt lat="42.51171" lon="-1.34825">
        <ele>500.983091</ele>
        <time>2022-02-22T01:39:11.777Z</time>
      </trkpt>
      <trkpt lat="42.51145" lon="-1.34847">
        <ele>502.183918</ele>
        <time>2022-02-22T01:39:23.189Z</time>
      </trkpt>
      <trkpt lat="42.51109" lon="-1.34913">
        <ele>504.516699</ele>
        <time>2022-02-22T01:39:48.609Z</time>
      </trkpt>
      <trkpt lat="42.51084" lon="-1.34937">
        <ele>505.698992</ele>
        <time>2022-02-22T01:40:03.501Z</time>
      </trkpt>
      <trkpt lat="42.51069" lon="-1.34945">
        <ele>506.308944</ele>
        <time>2022-02-22T01:40:11.049Z</time>
      </trkpt>
      <trkpt lat="42.51006" lon="-1.34958">
        <ele>509.316615</ele>
        <time>2022-02-22T01:40:43.460Z</time>
      </trkpt>
      <trkpt lat="42.50937" lon="-1.34991">
        <ele>512.87871</ele>
        <time>2022-02-22T01:41:18.881Z</time>
      </trkpt>
      <trkpt lat="42.50895" lon="-1.35019">
        <ele>515.189477</ele>
        <time>2022-02-22T01:41:38.821Z</time>
      </trkpt>
      <trkpt lat="42.50835" lon="-1.35071">
        <ele>518.51324</ele>
        <time>2022-02-22T01:42:09.110Z</time>
      </trkpt>
      <trkpt lat="42.50727" lon="-1.351">
        <ele>523.598342</ele>
        <time>2022-02-22T01:42:58.631Z</time>
      </trkpt>
      <trkpt lat="42.50623" lon="-1.35136">
        <ele>530.353172</ele>
        <time>2022-02-22T01:43:55.079Z</time>
      </trkpt>
      <trkpt lat="42.5053" lon="-1.35188">
        <ele>536.777003</ele>
        <time>2022-02-22T01:44:53.580Z</time>
      </trkpt>
      <trkpt lat="42.50502" lon="-1.35183">
        <ele>538.613438</ele>
        <time>2022-02-22T01:45:10.948Z</time>
      </trkpt>
      <trkpt lat="42.50437" lon="-1.35116">
        <ele>543.896998</ele>
        <time>2022-02-22T01:45:55.988Z</time>
      </trkpt>
      <trkpt lat="42.50387" lon="-1.35086">
        <ele>547.319229</ele>
        <time>2022-02-22T01:46:24.541Z</time>
      </trkpt>
      <trkpt lat="42.50342" lon="-1.35095">
        <ele>549.385169</ele>
        <time>2022-02-22T01:46:44.191Z</time>
      </trkpt>
      <trkpt lat="42.50278" lon="-1.35088">
        <ele>552.280714</ele>
        <time>2022-02-22T01:47:11.355Z</time>
      </trkpt>
      <trkpt lat="42.50219" lon="-1.35056">
        <ele>555.14315</ele>
        <time>2022-02-22T01:47:38.824Z</time>
      </trkpt>
      <trkpt lat="42.50157" lon="-1.35041">
        <ele>558.808477</ele>
        <time>2022-02-22T01:48:08.259Z</time>
      </trkpt>
      <trkpt lat="42.50131" lon="-1.35043">
        <ele>560.293339</ele>
        <time>2022-02-22T01:48:21.683Z</time>
      </trkpt>
      <trkpt lat="42.50051" lon="-1.3509">
        <ele>565.424445</ele>
        <time>2022-02-22T01:49:09.870Z</time>
      </trkpt>
      <trkpt lat="42.5" lon="-1.35105">
        <ele>568.695457</ele>
        <time>2022-02-22T01:49:39.523Z</time>
      </trkpt>
      <trkpt lat="42.49913" lon="-1.35078">
        <ele>574.416666</ele>
        <time>2022-02-22T01:50:27.141Z</time>
      </trkpt>
      <trkpt lat="42.49861" lon="-1.35088">
        <ele>577.798169</ele>
        <time>2022-02-22T01:50:55.649Z</time>
      </trkpt>
      <trkpt lat="42.4982" lon="-1.35056">
        <ele>580.928207</ele>
        <time>2022-02-22T01:51:20.663Z</time>
      </trkpt>
      <trkpt lat="42.49781" lon="-1.35047">
        <ele>583.490044</ele>
        <time>2022-02-22T01:51:41.939Z</time>
      </trkpt>
      <trkpt lat="42.49738" lon="-1.35054">
        <ele>586.307945</ele>
        <time>2022-02-22T01:52:05.620Z</time>
      </trkpt>
      <trkpt lat="42.49639" lon="-1.35106">
        <ele>593.529181</ele>
        <time>2022-02-22T01:53:07.132Z</time>
      </trkpt>
      <trkpt lat="42.49562" lon="-1.35113">
        <ele>598.984841</ele>
        <time>2022-02-22T01:53:53.402Z</time>
      </trkpt>
      <trkpt lat="42.49496" lon="-1.35064">
        <ele>603.910161</ele>
        <time>2022-02-22T01:54:33.854Z</time>
      </trkpt>
      <trkpt lat="42.49446" lon="-1.35059">
        <ele>606.959597</ele>
        <time>2022-02-22T01:54:58.690Z</time>
      </trkpt>
      <trkpt lat="42.49414" lon="-1.35072">
        <ele>608.996044</ele>
        <time>2022-02-22T01:55:13.943Z</time>
      </trkpt>
      <trkpt lat="42.49375" lon="-1.35098">
        <ele>611.650754</ele>
        <time>2022-02-22T01:55:35.410Z</time>
      </trkpt>
      <trkpt lat="42.49358" lon="-1.35131">
        <ele>613.644066</ele>
        <time>2022-02-22T01:55:55.835Z</time>
      </trkpt>
      <trkpt lat="42.49353" lon="-1.35171">
        <ele>615.820105</ele>
        <time>2022-02-22T01:56:15.495Z</time>
      </trkpt>
      <trkpt lat="42.49376" lon="-1.35242">
        <ele>619.960367</ele>
        <time>2022-02-22T01:56:47.019Z</time>
      </trkpt>
      <trkpt lat="42.49383" lon="-1.35286">
        <ele>622.404711</ele>
        <time>2022-02-22T01:57:06.080Z</time>
      </trkpt>
      <trkpt lat="42.49383" lon="-1.35301">
        <ele>623.183979</ele>
        <time>2022-02-22T01:57:15.417Z</time>
      </trkpt>
      <trkpt lat="42.49373" lon="-1.35325">
        <ele>624.679973</ele>
        <time>2022-02-22T01:57:25.067Z</time>
      </trkpt>
      <trkpt lat="42.4935" lon="-1.35334">
        <ele>626.28971</ele>
        <time>2022-02-22T01:57:40.227Z</time>
      </trkpt>
      <trkpt lat="42.49339" lon="-1.35331">
        <ele>626.927158</ele>
        <time>2022-02-22T01:57:45.214Z</time>
      </trkpt>
      <trkpt lat="42.49309" lon="-1.3531">
        <ele>628.974036</ele>
        <time>2022-02-22T01:58:06.163Z</time>
      </trkpt>
      <trkpt lat="42.49242" lon="-1.35211">
        <ele>634.834627</ele>
        <time>2022-02-22T01:58:59.635Z</time>
      </trkpt>
      <trkpt lat="42.49157" lon="-1.35204">
        <ele>635.959809</ele>
        <time>2022-02-22T01:59:32.300Z</time>
      </trkpt>
      <trkpt lat="42.49096" lon="-1.35171">
        <ele>635.402173</ele>
        <time>2022-02-22T01:59:44.178Z</time>
      </trkpt>
      <trkpt lat="42.49079" lon="-1.35171">
        <ele>635.263552</ele>
        <time>2022-02-22T01:59:47.002Z</time>
      </trkpt>
      <trkpt lat="42.49052" lon="-1.35173">
        <ele>635.033849</ele>
        <time>2022-02-22T01:59:51.426Z</time>
      </trkpt>
      <trkpt lat="42.49027" lon="-1.35158">
        <ele>634.098213</ele>
        <time>2022-02-22T01:59:55.880Z</time>
      </trkpt>
      <trkpt lat="42.48988" lon="-1.35121">
        <ele>631.464847</ele>
        <time>2022-02-22T02:00:03.368Z</time>
      </trkpt>
      <trkpt lat="42.48932" lon="-1.35041">
        <ele>627.005002</ele>
        <time>2022-02-22T02:00:15.797Z</time>
      </trkpt>
      <trkpt lat="42.4893" lon="-1.35015">
        <ele>625.948749</ele>
        <time>2022-02-22T02:00:18.674Z</time>
      </trkpt>
      <trkpt lat="42.48953" lon="-1.34977">
        <ele>624.074338</ele>
        <time>2022-02-22T02:00:24.221Z</time>
      </trkpt>
      <trkpt lat="42.4896" lon="-1.34951">
        <ele>623.111928</ele>
        <time>2022-02-22T02:00:27.541Z</time>
      </trkpt>
      <trkpt lat="42.48949" lon="-1.34892">
        <ele>620.950871</ele>
        <time>2022-02-22T02:00:35.295Z</time>
      </trkpt>
      <trkpt lat="42.48932" lon="-1.34855">
        <ele>619.401055</ele>
        <time>2022-02-22T02:00:40.496Z</time>
      </trkpt>
      <trkpt lat="42.48907" lon="-1.34826">
        <ele>617.806016</ele>
        <time>2022-02-22T02:00:45.738Z</time>
      </trkpt>
      <trkpt lat="42.48887" lon="-1.34814">
        <ele>616.736466</ele>
        <time>2022-02-22T02:00:49.126Z</time>
      </trkpt>
      <trkpt lat="42.48869" lon="-1.34809">
        <ele>615.794691</ele>
        <time>2022-02-22T02:00:52.060Z</time>
      </trkpt>
      <trkpt lat="42.48817" lon="-1.34816">
        <ele>612.913867</ele>
        <time>2022-02-22T02:01:00.275Z</time>
      </trkpt>
      <trkpt lat="42.48781" lon="-1.34794">
        <ele>610.751041</ele>
        <time>2022-02-22T02:01:06.394Z</time>
      </trkpt>
      <trkpt lat="42.48776" lon="-1.34797">
        <ele>610.435602</ele>
        <time>2022-02-22T02:01:07.542Z</time>
      </trkpt>
      <trkpt lat="42.48775" lon="-1.34807">
        <ele>610.051556</ele>
        <time>2022-02-22T02:01:08.654Z</time>
      </trkpt>
      <trkpt lat="42.48784" lon="-1.34821">
        <ele>609.295434</ele>
        <time>2022-02-22T02:01:10.764Z</time>
      </trkpt>
      <trkpt lat="42.48853" lon="-1.34858">
        <ele>605.022089</ele>
        <time>2022-02-22T02:01:22.258Z</time>
      </trkpt>
      <trkpt lat="42.48865" lon="-1.34877">
        <ele>603.834422</ele>
        <time>2022-02-22T02:01:25.140Z</time>
      </trkpt>
      <trkpt lat="42.48865" lon="-1.34901">
        <ele>602.73221</ele>
        <time>2022-02-22T02:01:27.660Z</time>
      </trkpt>
      <trkpt lat="42.4885" lon="-1.34933">
        <ele>600.971039</ele>
        <time>2022-02-22T02:01:32.019Z</time>
      </trkpt>
      <trkpt lat="42.48832" lon="-1.34958">
        <ele>599.306068</ele>
        <time>2022-02-22T02:01:36.052Z</time>
      </trkpt>
      <trkpt lat="42.48758" lon="-1.35">
        <ele>594.452084</ele>
        <time>2022-02-22T02:01:48.137Z</time>
      </trkpt>
      <trkpt lat="42.48705" lon="-1.35051">
        <ele>591.378951</ele>
        <time>2022-02-22T02:01:58.015Z</time>
      </trkpt>
      <trkpt lat="42.48698" lon="-1.35073">
        <ele>590.52847</ele>
        <time>2022-02-22T02:02:00.766Z</time>
      </trkpt>
      <trkpt lat="42.48706" lon="-1.35127">
        <ele>588.610778</ele>
        <time>2022-02-22T02:02:07.269Z</time>
      </trkpt>
      <trkpt lat="42.48702" lon="-1.35137">
        <ele>588.185724</ele>
        <time>2022-02-22T02:02:08.781Z</time>
      </trkpt>
      <trkpt lat="42.48694" lon="-1.35139">
        <ele>587.805573</ele>
        <time>2022-02-22T02:02:10.148Z</time>
      </trkpt>
      <trkpt lat="42.48679" lon="-1.35132">
        <ele>587.04929</ele>
        <time>2022-02-22T02:02:12.910Z</time>
      </trkpt>
      <trkpt lat="42.48642" lon="-1.35101">
        <ele>586.397045</ele>
        <time>2022-02-22T02:02:21.723Z</time>
      </trkpt>
      <trkpt lat="42.48629" lon="-1.3508">
        <ele>586.305996</ele>
        <time>2022-02-22T02:02:26.022Z</time>
      </trkpt>
      <trkpt lat="42.48626" lon="-1.35044">
        <ele>586.182308</ele>
        <time>2022-02-22T02:02:31.805Z</time>
      </trkpt>
      <trkpt lat="42.48614" lon="-1.3502">
        <ele>586.08484</ele>
        <time>2022-02-22T02:02:37.474Z</time>
      </trkpt>
      <trkpt lat="42.4857" lon="-1.35004">
        <ele>585.87334</ele>
        <time>2022-02-22T02:02:48.011Z</time>
      </trkpt>
      <trkpt lat="42.48549" lon="-1.35007">
        <ele>585.773176</ele>
        <time>2022-02-22T02:02:54.495Z</time>
      </trkpt>
      <trkpt lat="42.48532" lon="-1.35022">
        <ele>585.467315</ele>
        <time>2022-02-22T02:02:58.186Z</time>
      </trkpt>
      <trkpt lat="42.48498" lon="-1.35087">
        <ele>583.673914</ele>
        <time>2022-02-22T02:03:10.122Z</time>
      </trkpt>
      <trkpt lat="42.48474" lon="-1.35109">
        <ele>582.803407</ele>
        <time>2022-02-22T02:03:15.606Z</time>
      </trkpt>
      <trkpt lat="42.47724" lon="-1.35711">
        <ele>537.336965</ele>
        <time>2022-02-22T02:05:31.602Z</time>
      </trkpt>
      <trkpt lat="42.47646" lon="-1.35777">
        <ele>533.09954</ele>
        <time>2022-02-22T02:05:46.435Z</time>
      </trkpt>
      <trkpt lat="42.47611" lon="-1.35816">
        <ele>531.460556</ele>
        <time>2022-02-22T02:05:54.066Z</time>
      </trkpt>
      <trkpt lat="42.47422" lon="-1.36128">
        <ele>523.370265</ele>
        <time>2022-02-22T02:06:46.743Z</time>
      </trkpt>
      <trkpt lat="42.47302" lon="-1.36379">
        <ele>516.549197</ele>
        <time>2022-02-22T02:07:25.134Z</time>
      </trkpt>
      <trkpt lat="42.47282" lon="-1.36409">
        <ele>515.037633</ele>
        <time>2022-02-22T02:07:29.903Z</time>
      </trkpt>
      <trkpt lat="42.4709" lon="-1.36634">
        <ele>503.172198</ele>
        <time>2022-02-22T02:08:09.425Z</time>
      </trkpt>
      <trkpt lat="42.46959" lon="-1.36788">
        <ele>497.860808</ele>
        <time>2022-02-22T02:08:41.360Z</time>
      </trkpt>
      <trkpt lat="42.46843" lon="-1.36901">
        <ele>493.877342</ele>
        <time>2022-02-22T02:09:06.354Z</time>
      </trkpt>
      <trkpt lat="42.46811" lon="-1.36924">
        <ele>492.67501</ele>
        <time>2022-02-22T02:09:12.311Z</time>
      </trkpt>
      <trkpt lat="42.46737" lon="-1.36966">
        <ele>489.969869</ele>
        <time>2022-02-22T02:09:25.861Z</time>
      </trkpt>
      <trkpt lat="42.46641" lon="-1.37003">
        <ele>486.1914</ele>
        <time>2022-02-22T02:09:42.415Z</time>
      </trkpt>
      <trkpt lat="42.46352" lon="-1.37143">
        <ele>475.883338</ele>
        <time>2022-02-22T02:10:33.133Z</time>
      </trkpt>
      <trkpt lat="42.46174" lon="-1.37206">
        <ele>474.662538</ele>
        <time>2022-02-22T02:11:17.549Z</time>
      </trkpt>
      <trkpt lat="42.46125" lon="-1.37235">
        <ele>474.610895</ele>
        <time>2022-02-22T02:11:31.680Z</time>
      </trkpt>
      <trkpt lat="42.46093" lon="-1.37246">
        <ele>474.579804</ele>
        <time>2022-02-22T02:11:39.339Z</time>
      </trkpt>
      <trkpt lat="42.45854" lon="-1.37252">
        <ele>470.27642</ele>
        <time>2022-02-22T02:12:24.053Z</time>
      </trkpt>
      <trkpt lat="42.45528" lon="-1.37202">
        <ele>455.404523</ele>
        <time>2022-02-22T02:13:16.326Z</time>
      </trkpt>
      <trkpt lat="42.45403" lon="-1.3717">
        <ele>451.048701</ele>
        <time>2022-02-22T02:13:37.386Z</time>
      </trkpt>
      <trkpt lat="42.4535" lon="-1.37151">
        <ele>449.242446</ele>
        <time>2022-02-22T02:13:47.113Z</time>
      </trkpt>
      <trkpt lat="42.45323" lon="-1.37156">
        <ele>448.97474</ele>
        <time>2022-02-22T02:13:52.164Z</time>
      </trkpt>
      <trkpt lat="42.45273" lon="-1.37163">
        <ele>449.270369</ele>
        <time>2022-02-22T02:14:01.703Z</time>
      </trkpt>
      <trkpt lat="42.45144" lon="-1.37153">
        <ele>450.903501</ele>
        <time>2022-02-22T02:14:40.163Z</time>
      </trkpt>
      <trkpt lat="42.45129" lon="-1.37163">
        <ele>451.910917</ele>
        <time>2022-02-22T02:14:49.062Z</time>
      </trkpt>
      <trkpt lat="42.45109" lon="-1.37196">
        <ele>453.74721</ele>
        <time>2022-02-22T02:15:05.672Z</time>
      </trkpt>
      <trkpt lat="42.45092" lon="-1.37284">
        <ele>457.765751</ele>
        <time>2022-02-22T02:15:42.310Z</time>
      </trkpt>
      <trkpt lat="42.4508" lon="-1.37335">
        <ele>460.121719</ele>
        <time>2022-02-22T02:16:06.992Z</time>
      </trkpt>
      <trkpt lat="42.45049" lon="-1.37422">
        <ele>464.382912</ele>
        <time>2022-02-22T02:16:50.462Z</time>
      </trkpt>
      <trkpt lat="42.4502" lon="-1.37459">
        <ele>466.809349</ele>
        <time>2022-02-22T02:17:13.178Z</time>
      </trkpt>
      <trkpt lat="42.45003" lon="-1.37464">
        <ele>467.843925</ele>
        <time>2022-02-22T02:17:20.934Z</time>
      </trkpt>
      <trkpt lat="42.44999" lon="-1.37455">
        <ele>468.298328</ele>
        <time>2022-02-22T02:17:26.480Z</time>
      </trkpt>
      <trkpt lat="42.45004" lon="-1.37442">
        <ele>468.969936</ele>
        <time>2022-02-22T02:17:31.175Z</time>
      </trkpt>
      <trkpt lat="42.45028" lon="-1.37418">
        <ele>470.759296</ele>
        <time>2022-02-22T02:17:42.629Z</time>
      </trkpt>
      <trkpt lat="42.45034" lon="-1.374">
        <ele>471.603295</ele>
        <time>2022-02-22T02:17:47.634Z</time>
      </trkpt>
      <trkpt lat="42.45033" lon="-1.37325">
        <ele>473.679665</ele>
        <time>2022-02-22T02:18:11.475Z</time>
      </trkpt>
      <trkpt lat="42.45022" lon="-1.37301">
        <ele>474.44285</ele>
        <time>2022-02-22T02:18:18.813Z</time>
      </trkpt>
      <trkpt lat="42.44993" lon="-1.37276">
        <ele>475.728387</ele>
        <time>2022-02-22T02:18:33.910Z</time>
      </trkpt>
      <trkpt lat="42.44949" lon="-1.37194">
        <ele>478.453668</ele>
        <time>2022-02-22T02:19:03.872Z</time>
      </trkpt>
      <trkpt lat="42.44862" lon="-1.37138">
        <ele>481.048059</ele>
        <time>2022-02-22T02:19:42.481Z</time>
      </trkpt>
      <trkpt lat="42.44844" lon="-1.37119">
        <ele>481.671108</ele>
        <time>2022-02-22T02:19:50.605Z</time>
      </trkpt>
      <trkpt lat="42.44837" lon="-1.37099">
        <ele>482.108647</ele>
        <time>2022-02-22T02:19:56.255Z</time>
      </trkpt>
      <trkpt lat="42.44817" lon="-1.37066">
        <ele>482.962247</ele>
        <time>2022-02-22T02:20:06.110Z</time>
      </trkpt>
      <trkpt lat="42.44774" lon="-1.37026">
        <ele>482.33765</ele>
        <time>2022-02-22T02:20:17.977Z</time>
      </trkpt>
      <trkpt lat="42.44756" lon="-1.37019">
        <ele>482.037829</ele>
        <time>2022-02-22T02:20:21.908Z</time>
      </trkpt>
      <trkpt lat="42.44685" lon="-1.37021">
        <ele>480.929304</ele>
        <time>2022-02-22T02:20:34.704Z</time>
      </trkpt>
      <trkpt lat="42.44585" lon="-1.36979">
        <ele>477.828866</ele>
        <time>2022-02-22T02:20:52.332Z</time>
      </trkpt>
      <trkpt lat="42.44505" lon="-1.36962">
        <ele>474.683954</ele>
        <time>2022-02-22T02:21:05.561Z</time>
      </trkpt>
      <trkpt lat="42.44485" lon="-1.36969">
        <ele>473.865521</ele>
        <time>2022-02-22T02:21:08.999Z</time>
      </trkpt>
      <trkpt lat="42.4446" lon="-1.37017">
        <ele>472.053402</ele>
        <time>2022-02-22T02:21:16.057Z</time>
      </trkpt>
      <trkpt lat="42.44443" lon="-1.37036">
        <ele>471.096061</ele>
        <time>2022-02-22T02:21:19.648Z</time>
      </trkpt>
      <trkpt lat="42.443" lon="-1.37001">
        <ele>464.802902</ele>
        <time>2022-02-22T02:21:43.388Z</time>
      </trkpt>
      <trkpt lat="42.44273" lon="-1.37004">
        <ele>463.685908</ele>
        <time>2022-02-22T02:21:47.655Z</time>
      </trkpt>
      <trkpt lat="42.4416" lon="-1.37037">
        <ele>458.788706</ele>
        <time>2022-02-22T02:22:06.633Z</time>
      </trkpt>
      <trkpt lat="42.44113" lon="-1.37081">
        <ele>456.4143</ele>
        <time>2022-02-22T02:22:15.998Z</time>
      </trkpt>
      <trkpt lat="42.44024" lon="-1.37172">
        <ele>451.723218</ele>
        <time>2022-02-22T02:22:34.338Z</time>
      </trkpt>
      <trkpt lat="42.43923" lon="-1.37202">
        <ele>447.489421</ele>
        <time>2022-02-22T02:22:51.038Z</time>
      </trkpt>
      <trkpt lat="42.43822" lon="-1.37226">
        <ele>443.287244</ele>
        <time>2022-02-22T02:23:07.983Z</time>
      </trkpt>
      <trkpt lat="42.43753" lon="-1.37259">
        <ele>440.719935</ele>
        <time>2022-02-22T02:23:20.149Z</time>
      </trkpt>
      <trkpt lat="42.4369" lon="-1.37219">
        <ele>438.307846</ele>
        <time>2022-02-22T02:23:32.497Z</time>
      </trkpt>
      <trkpt lat="42.43579" lon="-1.37252">
        <ele>434.737702</ele>
        <time>2022-02-22T02:23:52.985Z</time>
      </trkpt>
      <trkpt lat="42.43471" lon="-1.37282">
        <ele>431.522692</ele>
        <time>2022-02-22T02:24:13.279Z</time>
      </trkpt>
      <trkpt lat="42.43445" lon="-1.37278">
        <ele>430.85406</ele>
        <time>2022-02-22T02:24:17.845Z</time>
      </trkpt>
      <trkpt lat="42.43249" lon="-1.37223">
        <ele>425.907303</ele>
        <time>2022-02-22T02:24:53.208Z</time>
      </trkpt>
      <trkpt lat="42.43122" lon="-1.37221">
        <ele>423.147683</ele>
        <time>2022-02-22T02:25:16.557Z</time>
      </trkpt>
      <trkpt lat="42.43081" lon="-1.3724">
        <ele>422.317961</ele>
        <time>2022-02-22T02:25:24.499Z</time>
      </trkpt>
      <trkpt lat="42.43027" lon="-1.3728">
        <ele>421.140758</ele>
        <time>2022-02-22T02:25:35.964Z</time>
      </trkpt>
      <trkpt lat="42.42997" lon="-1.37287">
        <ele>420.577132</ele>
        <time>2022-02-22T02:25:41.419Z</time>
      </trkpt>
      <trkpt lat="42.42875" lon="-1.37227">
        <ele>419.07085</ele>
        <time>2022-02-22T02:26:05.636Z</time>
      </trkpt>
      <trkpt lat="42.42829" lon="-1.37222">
        <ele>418.755301</ele>
        <time>2022-02-22T02:26:15.202Z</time>
      </trkpt>
      <trkpt lat="42.42811" lon="-1.37226">
        <ele>418.623926</ele>
        <time>2022-02-22T02:26:19.203Z</time>
      </trkpt>
      <trkpt lat="42.42669" lon="-1.37091">
        <ele>419.484217</ele>
        <time>2022-02-22T02:27:08.337Z</time>
      </trkpt>
      <trkpt lat="42.4247" lon="-1.36822">
        <ele>421.128594</ele>
        <time>2022-02-22T02:28:19.227Z</time>
      </trkpt>
      <trkpt lat="42.42456" lon="-1.36801">
        <ele>421.326994</ele>
        <time>2022-02-22T02:28:24.508Z</time>
      </trkpt>
      <trkpt lat="42.42429" lon="-1.36779">
        <ele>421.625122</ele>
        <time>2022-02-22T02:28:32.921Z</time>
      </trkpt>
      <trkpt lat="42.42052" lon="-1.36617">
        <ele>427.652724</ele>
        <time>2022-02-22T02:30:38.191Z</time>
      </trkpt>
      <trkpt lat="42.42029" lon="-1.36598">
        <ele>428.068754</ele>
        <time>2022-02-22T02:30:46.151Z</time>
      </trkpt>
      <trkpt lat="42.41956" lon="-1.36505">
        <ele>428.970202</ele>
        <time>2022-02-22T02:31:15.004Z</time>
      </trkpt>
      <trkpt lat="42.41939" lon="-1.36486">
        <ele>429.158796</ele>
        <time>2022-02-22T02:31:21.134Z</time>
      </trkpt>
      <trkpt lat="42.41921" lon="-1.36476">
        <ele>429.318561</ele>
        <time>2022-02-22T02:31:26.046Z</time>
      </trkpt>
      <trkpt lat="42.41775" lon="-1.36432">
        <ele>429.805042</ele>
        <time>2022-02-22T02:32:02.762Z</time>
      </trkpt>
      <trkpt lat="42.41472" lon="-1.36284">
        <ele>428.813785</ele>
        <time>2022-02-22T02:33:15.809Z</time>
      </trkpt>
      <trkpt lat="42.41165" lon="-1.36834">
        <ele>422.513716</ele>
        <time>2022-02-22T02:34:58.179Z</time>
      </trkpt>
      <trkpt lat="42.41151" lon="-1.36854">
        <ele>422.243181</ele>
        <time>2022-02-22T02:35:02.282Z</time>
      </trkpt>
      <trkpt lat="42.40963" lon="-1.37019">
        <ele>419.27812</ele>
        <time>2022-02-22T02:35:47.602Z</time>
      </trkpt>
      <trkpt lat="42.40938" lon="-1.37049">
        <ele>418.838092</ele>
        <time>2022-02-22T02:35:54.344Z</time>
      </trkpt>
      <trkpt lat="42.4093" lon="-1.37068">
        <ele>418.6217</ele>
        <time>2022-02-22T02:35:57.656Z</time>
      </trkpt>
      <trkpt lat="42.40751" lon="-1.37744">
        <ele>411.023102</ele>
        <time>2022-02-22T02:37:43.482Z</time>
      </trkpt>
      <trkpt lat="42.40731" lon="-1.37781">
        <ele>410.570355</ele>
        <time>2022-02-22T02:37:50.604Z</time>
      </trkpt>
      <trkpt lat="42.40717" lon="-1.37792">
        <ele>410.404517</ele>
        <time>2022-02-22T02:37:54.146Z</time>
      </trkpt>
      <trkpt lat="42.40712" lon="-1.37796">
        <ele>410.357459</ele>
        <time>2022-02-22T02:37:55.305Z</time>
      </trkpt>
      <trkpt lat="42.40503" lon="-1.37838">
        <ele>408.164252</ele>
        <time>2022-02-22T02:38:39.946Z</time>
      </trkpt>
      <trkpt lat="42.40214" lon="-1.37894">
        <ele>403.173126</ele>
        <time>2022-02-22T02:39:36.447Z</time>
      </trkpt>
      <trkpt lat="42.39863" lon="-1.3802">
        <ele>398.160209</ele>
        <time>2022-02-22T02:40:49.751Z</time>
      </trkpt>
      <trkpt lat="42.3985" lon="-1.38034">
        <ele>397.931966</ele>
        <time>2022-02-22T02:40:53.122Z</time>
      </trkpt>
      <trkpt lat="42.3969" lon="-1.38279">
        <ele>394.314611</ele>
        <time>2022-02-22T02:41:40.991Z</time>
      </trkpt>
      <trkpt lat="42.39651" lon="-1.38302">
        <ele>393.708448</ele>
        <time>2022-02-22T02:41:49.663Z</time>
      </trkpt>
      <trkpt lat="42.39628" lon="-1.38309">
        <ele>393.385245</ele>
        <time>2022-02-22T02:41:54.306Z</time>
      </trkpt>
      <trkpt lat="42.39257" lon="-1.38318">
        <ele>388.728016</ele>
        <time>2022-02-22T02:43:09.955Z</time>
      </trkpt>
      <trkpt lat="42.39168" lon="-1.38362">
        <ele>387.630687</ele>
        <time>2022-02-22T02:43:29.349Z</time>
      </trkpt>
      <trkpt lat="42.39045" lon="-1.38333">
        <ele>386.241604</ele>
        <time>2022-02-22T02:43:54.867Z</time>
      </trkpt>
      <trkpt lat="42.38961" lon="-1.38275">
        <ele>385.456017</ele>
        <time>2022-02-22T02:44:14.673Z</time>
      </trkpt>
      <trkpt lat="42.38945" lon="-1.38275">
        <ele>385.32722</ele>
        <time>2022-02-22T02:44:18.012Z</time>
      </trkpt>
      <trkpt lat="42.38888" lon="-1.38306">
        <ele>384.81441</ele>
        <time>2022-02-22T02:44:31.452Z</time>
      </trkpt>
      <trkpt lat="42.38873" lon="-1.38304">
        <ele>384.726147</ele>
        <time>2022-02-22T02:44:34.550Z</time>
      </trkpt>
      <trkpt lat="42.38817" lon="-1.38276">
        <ele>384.45899</ele>
        <time>2022-02-22T02:44:47.660Z</time>
      </trkpt>
      <trkpt lat="42.38774" lon="-1.38268">
        <ele>384.267034</ele>
        <time>2022-02-22T02:44:57.146Z</time>
      </trkpt>
      <trkpt lat="42.38744" lon="-1.38278">
        <ele>384.128805</ele>
        <time>2022-02-22T02:45:04.066Z</time>
      </trkpt>
      <trkpt lat="42.38664" lon="-1.3832">
        <ele>383.788758</ele>
        <time>2022-02-22T02:45:23.103Z</time>
      </trkpt>
      <trkpt lat="42.38623" lon="-1.38335">
        <ele>383.637081</ele>
        <time>2022-02-22T02:45:32.473Z</time>
      </trkpt>
      <trkpt lat="42.38435" lon="-1.38318">
        <ele>382.963147</ele>
        <time>2022-02-22T02:46:14.374Z</time>
      </trkpt>
      <trkpt lat="42.38412" lon="-1.38324">
        <ele>382.88031</ele>
        <time>2022-02-22T02:46:19.527Z</time>
      </trkpt>
      <trkpt lat="42.3832" lon="-1.38383">
        <ele>382.508352</ele>
        <time>2022-02-22T02:46:42.001Z</time>
      </trkpt>
      <trkpt lat="42.38078" lon="-1.3854">
        <ele>381.223164</ele>
        <time>2022-02-22T02:47:41.489Z</time>
      </trkpt>
      <trkpt lat="42.38018" lon="-1.38571">
        <ele>380.719249</ele>
        <time>2022-02-22T02:47:54.894Z</time>
      </trkpt>
      <trkpt lat="42.37798" lon="-1.38627">
        <ele>377.628466</ele>
        <time>2022-02-22T02:48:39.472Z</time>
      </trkpt>
      <trkpt lat="42.37764" lon="-1.38655">
        <ele>377.054748</ele>
        <time>2022-02-22T02:48:47.438Z</time>
      </trkpt>
      <trkpt lat="42.37701" lon="-1.3873">
        <ele>375.882553</ele>
        <time>2022-02-22T02:49:04.278Z</time>
      </trkpt>
      <trkpt lat="42.37665" lon="-1.38753">
        <ele>375.502779</ele>
        <time>2022-02-22T02:49:12.480Z</time>
      </trkpt>
      <trkpt lat="42.37528" lon="-1.38786">
        <ele>374.200111</ele>
        <time>2022-02-22T02:49:41.854Z</time>
      </trkpt>
      <trkpt lat="42.3726" lon="-1.38838">
        <ele>372.90928</ele>
        <time>2022-02-22T02:50:40.978Z</time>
      </trkpt>
      <trkpt lat="42.37223" lon="-1.3884">
        <ele>372.748732</ele>
        <time>2022-02-22T02:50:49.170Z</time>
      </trkpt>
      <trkpt lat="42.37199" lon="-1.38854">
        <ele>372.633762</ele>
        <time>2022-02-22T02:50:55.043Z</time>
      </trkpt>
      <trkpt lat="42.36824" lon="-1.3896">
        <ele>371.210411</ele>
        <time>2022-02-22T02:52:20.196Z</time>
      </trkpt>
      <trkpt lat="42.3674" lon="-1.38965">
        <ele>370.516</ele>
        <time>2022-02-22T02:52:37.905Z</time>
      </trkpt>
      <trkpt lat="42.36678" lon="-1.38987">
        <ele>369.976371</ele>
        <time>2022-02-22T02:52:51.366Z</time>
      </trkpt>
      <trkpt lat="42.3659" lon="-1.3903">
        <ele>369.27955</ele>
        <time>2022-02-22T02:53:10.893Z</time>
      </trkpt>
      <trkpt lat="42.3655" lon="-1.39054">
        <ele>368.968523</ele>
        <time>2022-02-22T02:53:20.253Z</time>
      </trkpt>
      <trkpt lat="42.36429" lon="-1.39076">
        <ele>368.239596</ele>
        <time>2022-02-22T02:53:46.916Z</time>
      </trkpt>
      <trkpt lat="42.36394" lon="-1.3909">
        <ele>368.079641</ele>
        <time>2022-02-22T02:53:55.095Z</time>
      </trkpt>
      <trkpt lat="42.36188" lon="-1.39309">
        <ele>367.071369</ele>
        <time>2022-02-22T02:54:52.517Z</time>
      </trkpt>
      <trkpt lat="42.36175" lon="-1.39294">
        <ele>367.044474</ele>
        <time>2022-02-22T02:54:56.462Z</time>
      </trkpt>
      <trkpt lat="42.36152" lon="-1.39278">
        <ele>367.125143</ele>
        <time>2022-02-22T02:55:02.795Z</time>
      </trkpt>
      <trkpt lat="42.36137" lon="-1.39279">
        <ele>367.172165</ele>
        <time>2022-02-22T02:55:06.447Z</time>
      </trkpt>
      <trkpt lat="42.35962" lon="-1.39352">
        <ele>367.678753</ele>
        <time>2022-02-22T02:55:52.972Z</time>
      </trkpt>
      <trkpt lat="42.35945" lon="-1.39356">
        <ele>367.712607</ele>
        <time>2022-02-22T02:55:57.230Z</time>
      </trkpt>
      <trkpt lat="42.35609" lon="-1.39327">
        <ele>368.196538</ele>
        <time>2022-02-22T02:57:16.038Z</time>
      </trkpt>
      <trkpt lat="42.35578" lon="-1.39331">
        <ele>368.332187</ele>
        <time>2022-02-22T02:57:23.667Z</time>
      </trkpt>
      <trkpt lat="42.35544" lon="-1.39353">
        <ele>368.498736</ele>
        <time>2022-02-22T02:57:33.301Z</time>
      </trkpt>
      <trkpt lat="42.35325" lon="-1.39577">
        <ele>369.919524</ele>
        <time>2022-02-22T02:58:46.860Z</time>
      </trkpt>
      <trkpt lat="42.35184" lon="-1.39778">
        <ele>369.048833</ele>
        <time>2022-02-22T02:59:31.836Z</time>
      </trkpt>
      <trkpt lat="42.35168" lon="-1.39792">
        <ele>368.83845</ele>
        <time>2022-02-22T02:59:35.809Z</time>
      </trkpt>
      <trkpt lat="42.35135" lon="-1.398">
        <ele>368.47932</ele>
        <time>2022-02-22T02:59:42.615Z</time>
      </trkpt>
      <trkpt lat="42.35033" lon="-1.39785">
        <ele>367.387772</ele>
        <time>2022-02-22T03:00:03.009Z</time>
      </trkpt>
      <trkpt lat="42.3495" lon="-1.39837">
        <ele>366.422745</ele>
        <time>2022-02-22T03:00:21.807Z</time>
      </trkpt>
      <trkpt lat="42.34895" lon="-1.39881">
        <ele>365.76053</ele>
        <time>2022-02-22T03:00:35.442Z</time>
      </trkpt>
      <trkpt lat="42.34873" lon="-1.39907">
        <ele>365.574494</ele>
        <time>2022-02-22T03:00:41.672Z</time>
      </trkpt>
      <trkpt lat="42.34843" lon="-1.39917">
        <ele>365.370727</ele>
        <time>2022-02-22T03:00:52.934Z</time>
      </trkpt>
      <trkpt lat="42.34783" lon="-1.39968">
        <ele>364.917915</ele>
        <time>2022-02-22T03:01:18.081Z</time>
      </trkpt>
      <trkpt lat="42.34746" lon="-1.39986">
        <ele>364.664356</ele>
        <time>2022-02-22T03:01:32.029Z</time>
      </trkpt>
      <trkpt lat="42.34465" lon="-1.40075">
        <ele>362.067817</ele>
        <time>2022-02-22T03:03:10.965Z</time>
      </trkpt>
      <trkpt lat="42.34427" lon="-1.40101">
        <ele>361.763968</ele>
        <time>2022-02-22T03:03:26.234Z</time>
      </trkpt>
      <trkpt lat="42.34419" lon="-1.40099">
        <ele>361.706459</ele>
        <time>2022-02-22T03:03:29.218Z</time>
      </trkpt>
      <trkpt lat="42.3441" lon="-1.40084">
        <ele>361.602766</ele>
        <time>2022-02-22T03:03:34.578Z</time>
      </trkpt>
      <trkpt lat="42.34375" lon="-1.40035">
        <ele>361.731175</ele>
        <time>2022-02-22T03:03:52.969Z</time>
      </trkpt>
      <trkpt lat="42.3436" lon="-1.40063">
        <ele>361.882921</ele>
        <time>2022-02-22T03:03:59.285Z</time>
      </trkpt>
      <trkpt lat="42.34337" lon="-1.40078">
        <ele>362.035379</ele>
        <time>2022-02-22T03:04:05.737Z</time>
      </trkpt>
      <trkpt lat="42.34221" lon="-1.40064">
        <ele>363.067407</ele>
        <time>2022-02-22T03:04:38.498Z</time>
      </trkpt>
      <trkpt lat="42.34169" lon="-1.40076">
        <ele>364.134715</ele>
        <time>2022-02-22T03:04:55.514Z</time>
      </trkpt>
      <trkpt lat="42.3387" lon="-1.40205">
        <ele>370.998747</ele>
        <time>2022-02-22T03:06:46.245Z</time>
      </trkpt>
      <trkpt lat="42.33821" lon="-1.40246">
        <ele>371.963368</ele>
        <time>2022-02-22T03:07:04.603Z</time>
      </trkpt>
      <trkpt lat="42.33575" lon="-1.40494">
        <ele>376.511726</ele>
        <time>2022-02-22T03:08:35.499Z</time>
      </trkpt>
      <trkpt lat="42.33543" lon="-1.40534">
        <ele>377.320116</ele>
        <time>2022-02-22T03:08:48.826Z</time>
      </trkpt>
      <trkpt lat="42.33481" lon="-1.40572">
        <ele>378.604064</ele>
        <time>2022-02-22T03:09:11.634Z</time>
      </trkpt>
      <trkpt lat="42.33437" lon="-1.4057">
        <ele>379.506016</ele>
        <time>2022-02-22T03:09:27.431Z</time>
      </trkpt>
      <trkpt lat="42.33356" lon="-1.40578">
        <ele>381.645816</ele>
        <time>2022-02-22T03:09:57.734Z</time>
      </trkpt>
      <trkpt lat="42.33265" lon="-1.40595">
        <ele>384.003223</ele>
        <time>2022-02-22T03:10:31.008Z</time>
      </trkpt>
      <trkpt lat="42.33169" lon="-1.40646">
        <ele>386.055204</ele>
        <time>2022-02-22T03:11:06.678Z</time>
      </trkpt>
      <trkpt lat="42.33086" lon="-1.40655">
        <ele>387.67298</ele>
        <time>2022-02-22T03:11:31.614Z</time>
      </trkpt>
      <trkpt lat="42.33042" lon="-1.40714">
        <ele>388.753338</ele>
        <time>2022-02-22T03:11:58.631Z</time>
      </trkpt>
      <trkpt lat="42.32964" lon="-1.40804">
        <ele>390.581658</ele>
        <time>2022-02-22T03:12:47.121Z</time>
      </trkpt>
      <trkpt lat="42.32849" lon="-1.40919">
        <ele>393.857815</ele>
        <time>2022-02-22T03:13:55.640Z</time>
      </trkpt>
      <trkpt lat="42.32814" lon="-1.40961">
        <ele>394.969175</ele>
        <time>2022-02-22T03:14:19.548Z</time>
      </trkpt>
      <trkpt lat="42.3275" lon="-1.41006">
        <ele>396.862316</ele>
        <time>2022-02-22T03:14:56.238Z</time>
      </trkpt>
      <trkpt lat="42.32706" lon="-1.41052">
        <ele>398.328607</ele>
        <time>2022-02-22T03:15:24.311Z</time>
      </trkpt>
      <trkpt lat="42.32633" lon="-1.41115">
        <ele>400.345286</ele>
        <time>2022-02-22T03:16:07.511Z</time>
      </trkpt>
      <trkpt lat="42.32629" lon="-1.41124">
        <ele>400.494505</ele>
        <time>2022-02-22T03:16:11.071Z</time>
      </trkpt>
      <trkpt lat="42.32572" lon="-1.41113">
        <ele>401.635747</ele>
        <time>2022-02-22T03:16:30.280Z</time>
      </trkpt>
      <trkpt lat="42.32405" lon="-1.41127">
        <ele>404.245464</ele>
        <time>2022-02-22T03:17:20.125Z</time>
      </trkpt>
      <trkpt lat="42.32157" lon="-1.41149">
        <ele>406.697874</ele>
        <time>2022-02-22T03:18:26.583Z</time>
      </trkpt>
      <trkpt lat="42.32136" lon="-1.41162">
        <ele>406.90023</ele>
        <time>2022-02-22T03:18:32.370Z</time>
      </trkpt>
      <trkpt lat="42.32132" lon="-1.41167">
        <ele>406.955019</ele>
        <time>2022-02-22T03:18:33.776Z</time>
      </trkpt>
      <trkpt lat="42.3212" lon="-1.4118">
        <ele>407.104075</ele>
        <time>2022-02-22T03:18:37.656Z</time>
      </trkpt>
      <trkpt lat="42.32107" lon="-1.41185">
        <ele>407.234444</ele>
        <time>2022-02-22T03:18:43.224Z</time>
      </trkpt>
      <trkpt lat="42.32057" lon="-1.41166">
        <ele>407.736325</ele>
        <time>2022-02-22T03:19:04.494Z</time>
      </trkpt>
      <trkpt lat="42.31963" lon="-1.41145">
        <ele>408.653228</ele>
        <time>2022-02-22T03:19:45.571Z</time>
      </trkpt>
      <trkpt lat="42.31822" lon="-1.41169">
        <ele>410.070956</ele>
        <time>2022-02-22T03:20:46.413Z</time>
      </trkpt>
      <trkpt lat="42.31746" lon="-1.41183">
        <ele>410.258065</ele>
        <time>2022-02-22T03:21:16.788Z</time>
      </trkpt>
      <trkpt lat="42.31703" lon="-1.41205">
        <ele>410.146476</ele>
        <time>2022-02-22T03:21:33.463Z</time>
      </trkpt>
      <trkpt lat="42.31425" lon="-1.41451">
        <ele>407.858029</ele>
        <time>2022-02-22T03:23:29.016Z</time>
      </trkpt>
      <trkpt lat="42.31101" lon="-1.41502">
        <ele>405.741252</ele>
        <time>2022-02-22T03:25:23.444Z</time>
      </trkpt>
      <trkpt lat="42.30994" lon="-1.41554">
        <ele>405.840442</ele>
        <time>2022-02-22T03:26:07.017Z</time>
      </trkpt>
      <trkpt lat="42.30947" lon="-1.41577">
        <ele>405.965629</ele>
        <time>2022-02-22T03:26:26.878Z</time>
      </trkpt>
      <trkpt lat="42.3087" lon="-1.41605">
        <ele>406.479654</ele>
        <time>2022-02-22T03:26:59.346Z</time>
      </trkpt>
      <trkpt lat="42.30537" lon="-1.41678">
        <ele>407.989307</ele>
        <time>2022-02-22T03:29:15.086Z</time>
      </trkpt>
      <trkpt lat="42.30522" lon="-1.41679">
        <ele>407.955945</ele>
        <time>2022-02-22T03:29:20.632Z</time>
      </trkpt>
      <trkpt lat="42.30455" lon="-1.41685">
        <ele>407.808209</ele>
        <time>2022-02-22T03:29:44.735Z</time>
      </trkpt>
      <trkpt lat="42.30351" lon="-1.41706">
        <ele>406.471955</ele>
        <time>2022-02-22T03:30:19.695Z</time>
      </trkpt>
      <trkpt lat="42.3021" lon="-1.41738">
        <ele>404.069654</ele>
        <time>2022-02-22T03:31:06.997Z</time>
      </trkpt>
      <trkpt lat="42.30174" lon="-1.41756">
        <ele>403.383183</ele>
        <time>2022-02-22T03:31:19.307Z</time>
      </trkpt>
      <trkpt lat="42.30156" lon="-1.41782">
        <ele>402.892691</ele>
        <time>2022-02-22T03:31:28.079Z</time>
      </trkpt>
      <trkpt lat="42.30139" lon="-1.41903">
        <ele>401.023041</ele>
        <time>2022-02-22T03:31:58.115Z</time>
      </trkpt>
      <trkpt lat="42.30108" lon="-1.41986">
        <ele>399.032833</ele>
        <time>2022-02-22T03:32:20.016Z</time>
      </trkpt>
      <trkpt lat="42.30083" lon="-1.42086">
        <ele>396.781016</ele>
        <time>2022-02-22T03:32:43.740Z</time>
      </trkpt>
      <trkpt lat="42.30055" lon="-1.42144">
        <ele>395.172569</ele>
        <time>2022-02-22T03:32:59.101Z</time>
      </trkpt>
      <trkpt lat="42.30038" lon="-1.42161">
        <ele>394.476417</ele>
        <time>2022-02-22T03:33:05.416Z</time>
      </trkpt>
      <trkpt lat="42.29981" lon="-1.42194">
        <ele>392.424772</ele>
        <time>2022-02-22T03:33:24.454Z</time>
      </trkpt>
      <trkpt lat="42.29942" lon="-1.42225">
        <ele>390.946586</ele>
        <time>2022-02-22T03:33:38.217Z</time>
      </trkpt>
      <trkpt lat="42.29857" lon="-1.42241">
        <ele>389.330885</ele>
        <time>2022-02-22T03:34:05.827Z</time>
      </trkpt>
      <trkpt lat="42.2982" lon="-1.42236">
        <ele>388.744877</ele>
        <time>2022-02-22T03:34:18.205Z</time>
      </trkpt>
      <trkpt lat="42.29745" lon="-1.42205">
        <ele>387.552833</ele>
        <time>2022-02-22T03:34:45.517Z</time>
      </trkpt>
      <trkpt lat="42.29725" lon="-1.42194">
        <ele>387.417459</ele>
        <time>2022-02-22T03:34:52.933Z</time>
      </trkpt>
      <trkpt lat="42.29709" lon="-1.42175">
        <ele>387.282022</ele>
        <time>2022-02-22T03:35:00.508Z</time>
      </trkpt>
      <trkpt lat="42.29663" lon="-1.42166">
        <ele>386.983206</ele>
        <time>2022-02-22T03:35:17.084Z</time>
      </trkpt>
      <trkpt lat="42.29644" lon="-1.42149">
        <ele>386.837809</ele>
        <time>2022-02-22T03:35:25.279Z</time>
      </trkpt>
      <trkpt lat="42.29614" lon="-1.4213">
        <ele>386.629151</ele>
        <time>2022-02-22T03:35:36.867Z</time>
      </trkpt>
      <trkpt lat="42.29532" lon="-1.42105">
        <ele>386.461676</ele>
        <time>2022-02-22T03:36:06.511Z</time>
      </trkpt>
      <trkpt lat="42.29444" lon="-1.42047">
        <ele>386.484156</ele>
        <time>2022-02-22T03:36:42.860Z</time>
      </trkpt>
      <trkpt lat="42.29372" lon="-1.41961">
        <ele>387.150534</ele>
        <time>2022-02-22T03:37:23.666Z</time>
      </trkpt>
      <trkpt lat="42.29299" lon="-1.41829">
        <ele>388.164174</ele>
        <time>2022-02-22T03:38:15.837Z</time>
      </trkpt>
      <trkpt lat="42.29293" lon="-1.41822">
        <ele>388.151953</ele>
        <time>2022-02-22T03:38:18.547Z</time>
      </trkpt>
      <trkpt lat="42.29276" lon="-1.41817">
        <ele>388.124042</ele>
        <time>2022-02-22T03:38:25.760Z</time>
      </trkpt>
      <trkpt lat="42.292" lon="-1.41832">
        <ele>388.003407</ele>
        <time>2022-02-22T03:38:54.069Z</time>
      </trkpt>
      <trkpt lat="42.29159" lon="-1.41827">
        <ele>387.938426</ele>
        <time>2022-02-22T03:39:08.399Z</time>
      </trkpt>
      <trkpt lat="42.28985" lon="-1.41752">
        <ele>386.454701</ele>
        <time>2022-02-22T03:40:11.127Z</time>
      </trkpt>
      <trkpt lat="42.28944" lon="-1.41744">
        <ele>386.137387</ele>
        <time>2022-02-22T03:40:26.078Z</time>
      </trkpt>
      <trkpt lat="42.28647" lon="-1.41783">
        <ele>383.813714</ele>
        <time>2022-02-22T03:42:12.167Z</time>
      </trkpt>
      <trkpt lat="42.28575" lon="-1.41791">
        <ele>382.846139</ele>
        <time>2022-02-22T03:42:35.371Z</time>
      </trkpt>
      <trkpt lat="42.28527" lon="-1.41782">
        <ele>381.954013</ele>
        <time>2022-02-22T03:42:50.933Z</time>
      </trkpt>
      <trkpt lat="42.28425" lon="-1.41707">
        <ele>380.0101</ele>
        <time>2022-02-22T03:43:29.092Z</time>
      </trkpt>
      <trkpt lat="42.28354" lon="-1.41696">
        <ele>379.518904</ele>
        <time>2022-02-22T03:43:54.920Z</time>
      </trkpt>
      <trkpt lat="42.28334" lon="-1.41686">
        <ele>379.373394</ele>
        <time>2022-02-22T03:44:02.587Z</time>
      </trkpt>
      <trkpt lat="42.28276" lon="-1.41648">
        <ele>378.929211</ele>
        <time>2022-02-22T03:44:25.844Z</time>
      </trkpt>
      <trkpt lat="42.2823" lon="-1.4163">
        <ele>378.286299</ele>
        <time>2022-02-22T03:44:42.684Z</time>
      </trkpt>
      <trkpt lat="42.28021" lon="-1.41591">
        <ele>375.08969</ele>
        <time>2022-02-22T03:45:52.209Z</time>
      </trkpt>
      <trkpt lat="42.27821" lon="-1.41577">
        <ele>372.652539</ele>
        <time>2022-02-22T03:46:59.093Z</time>
      </trkpt>
      <trkpt lat="42.27698" lon="-1.41532">
        <ele>372.221272</ele>
        <time>2022-02-22T03:47:46.437Z</time>
      </trkpt>
      <trkpt lat="42.27451" lon="-1.41574">
        <ele>372.860003</ele>
        <time>2022-02-22T03:49:27.105Z</time>
      </trkpt>
      <trkpt lat="42.27388" lon="-1.41582">
        <ele>372.802023</ele>
        <time>2022-02-22T03:49:49.282Z</time>
      </trkpt>
      <trkpt lat="42.2733" lon="-1.41638">
        <ele>371.354596</ele>
        <time>2022-02-22T03:50:12.628Z</time>
      </trkpt>
      <trkpt lat="42.27252" lon="-1.41637">
        <ele>369.552759</ele>
        <time>2022-02-22T03:50:37.547Z</time>
      </trkpt>
      <trkpt lat="42.27218" lon="-1.41654">
        <ele>368.725412</ele>
        <time>2022-02-22T03:50:48.779Z</time>
      </trkpt>
      <trkpt lat="42.2718" lon="-1.41689">
        <ele>367.304641</ele>
        <time>2022-02-22T03:51:02.965Z</time>
      </trkpt>
      <trkpt lat="42.27163" lon="-1.41693">
        <ele>366.749392</ele>
        <time>2022-02-22T03:51:08.348Z</time>
      </trkpt>
      <trkpt lat="42.27031" lon="-1.41669">
        <ele>362.828985</ele>
        <time>2022-02-22T03:51:48.948Z</time>
      </trkpt>
      <trkpt lat="42.26972" lon="-1.4167">
        <ele>361.979465</ele>
        <time>2022-02-22T03:52:07.833Z</time>
      </trkpt>
      <trkpt lat="42.26909" lon="-1.41683">
        <ele>361.078434</ele>
        <time>2022-02-22T03:52:29.010Z</time>
      </trkpt>
      <trkpt lat="42.26777" lon="-1.41759">
        <ele>361.3957</ele>
        <time>2022-02-22T03:53:26.556Z</time>
      </trkpt>
      <trkpt lat="42.26747" lon="-1.41793">
        <ele>361.757532</ele>
        <time>2022-02-22T03:53:44.959Z</time>
      </trkpt>
      <trkpt lat="42.26712" lon="-1.41852">
        <ele>362.18344</ele>
        <time>2022-02-22T03:54:09.469Z</time>
      </trkpt>
      <trkpt lat="42.26688" lon="-1.4187">
        <ele>362.277594</ele>
        <time>2022-02-22T03:54:20.630Z</time>
      </trkpt>
      <trkpt lat="42.26648" lon="-1.4188">
        <ele>362.420986</ele>
        <time>2022-02-22T03:54:37.383Z</time>
      </trkpt>
      <trkpt lat="42.26618" lon="-1.41923">
        <ele>362.575299</ele>
        <time>2022-02-22T03:54:53.971Z</time>
      </trkpt>
      <trkpt lat="42.26597" lon="-1.41941">
        <ele>362.662126</ele>
        <time>2022-02-22T03:55:02.988Z</time>
      </trkpt>
      <trkpt lat="42.26547" lon="-1.41956">
        <ele>362.507107</ele>
        <time>2022-02-22T03:55:21.037Z</time>
      </trkpt>
      <trkpt lat="42.26415" lon="-1.42021">
        <ele>360.981672</ele>
        <time>2022-02-22T03:56:08.712Z</time>
      </trkpt>
      <trkpt lat="42.26379" lon="-1.42073">
        <ele>360.408409</ele>
        <time>2022-02-22T03:56:26.848Z</time>
      </trkpt>
      <trkpt lat="42.26362" lon="-1.42122">
        <ele>359.982377</ele>
        <time>2022-02-22T03:56:40.481Z</time>
      </trkpt>
      <trkpt lat="42.26333" lon="-1.42137">
        <ele>359.652817</ele>
        <time>2022-02-22T03:56:51.020Z</time>
      </trkpt>
      <trkpt lat="42.26313" lon="-1.42161">
        <ele>359.367749</ele>
        <time>2022-02-22T03:57:00.105Z</time>
      </trkpt>
      <trkpt lat="42.26306" lon="-1.42183">
        <ele>359.183738</ele>
        <time>2022-02-22T03:57:06.009Z</time>
      </trkpt>
      <trkpt lat="42.26304" lon="-1.42212">
        <ele>358.947887</ele>
        <time>2022-02-22T03:57:13.666Z</time>
      </trkpt>
      <trkpt lat="42.26295" lon="-1.42233">
        <ele>358.764134</ele>
        <time>2022-02-22T03:57:19.887Z</time>
      </trkpt>
      <trkpt lat="42.26259" lon="-1.42273">
        <ele>358.290953</ele>
        <time>2022-02-22T03:57:36.375Z</time>
      </trkpt>
      <trkpt lat="42.26236" lon="-1.4229">
        <ele>358.036499</ele>
        <time>2022-02-22T03:57:45.079Z</time>
      </trkpt>
      <trkpt lat="42.26213" lon="-1.42306">
        <ele>357.771365</ele>
        <time>2022-02-22T03:57:54.171Z</time>
      </trkpt>
      <trkpt lat="42.26161" lon="-1.4231">
        <ele>357.248025</ele>
        <time>2022-02-22T03:58:12.047Z</time>
      </trkpt>
      <trkpt lat="42.26024" lon="-1.42358">
        <ele>356.083446</ele>
        <time>2022-02-22T03:59:01.046Z</time>
      </trkpt>
      <trkpt lat="42.26016" lon="-1.4237">
        <ele>355.98643</ele>
        <time>2022-02-22T03:59:05.322Z</time>
      </trkpt>
      <trkpt lat="42.26011" lon="-1.42381">
        <ele>355.911819</ele>
        <time>2022-02-22T03:59:08.592Z</time>
      </trkpt>
      <trkpt lat="42.26024" lon="-1.42417">
        <ele>355.67672</ele>
        <time>2022-02-22T03:59:18.960Z</time>
      </trkpt>
      <trkpt lat="42.26027" lon="-1.42448">
        <ele>355.622701</ele>
        <time>2022-02-22T03:59:27.170Z</time>
      </trkpt>
      <trkpt lat="42.2601" lon="-1.42474">
        <ele>355.600305</ele>
        <time>2022-02-22T03:59:36.402Z</time>
      </trkpt>
      <trkpt lat="42.26002" lon="-1.42504">
        <ele>355.579612</ele>
        <time>2022-02-22T03:59:45.046Z</time>
      </trkpt>
      <trkpt lat="42.26006" lon="-1.42552">
        <ele>355.547947</ele>
        <time>2022-02-22T03:59:58.409Z</time>
      </trkpt>
      <trkpt lat="42.2602" lon="-1.42617">
        <ele>355.504402</ele>
        <time>2022-02-22T04:00:17.026Z</time>
      </trkpt>
      <trkpt lat="42.26016" lon="-1.42637">
        <ele>355.49048</ele>
        <time>2022-02-22T04:00:23.043Z</time>
      </trkpt>
      <trkpt lat="42.25973" lon="-1.42637">
        <ele>355.595766</ele>
        <time>2022-02-22T04:00:39.639Z</time>
      </trkpt>
      <trkpt lat="42.25956" lon="-1.42608">
        <ele>355.695329</ele>
        <time>2022-02-22T04:00:50.222Z</time>
      </trkpt>
      <trkpt lat="42.2594" lon="-1.4256">
        <ele>355.835057</ele>
        <time>2022-02-22T04:01:05.247Z</time>
      </trkpt>
      <trkpt lat="42.25932" lon="-1.42551">
        <ele>355.874582</ele>
        <time>2022-02-22T04:01:09.511Z</time>
      </trkpt>
      <trkpt lat="42.2592" lon="-1.42548">
        <ele>355.917077</ele>
        <time>2022-02-22T04:01:14.060Z</time>
      </trkpt>
      <trkpt lat="42.25869" lon="-1.4256">
        <ele>356.104218</ele>
        <time>2022-02-22T04:01:34.254Z</time>
      </trkpt>
      <trkpt lat="42.25844" lon="-1.42585">
        <ele>356.29732</ele>
        <time>2022-02-22T04:01:46.602Z</time>
      </trkpt>
      <trkpt lat="42.25787" lon="-1.42599">
        <ele>356.69294</ele>
        <time>2022-02-22T04:02:09.493Z</time>
      </trkpt>
      <trkpt lat="42.25754" lon="-1.42628">
        <ele>356.965476</ele>
        <time>2022-02-22T04:02:25.566Z</time>
      </trkpt>
      <trkpt lat="42.25732" lon="-1.42623">
        <ele>357.117544</ele>
        <time>2022-02-22T04:02:34.638Z</time>
      </trkpt>
      <trkpt lat="42.2571" lon="-1.4264">
        <ele>357.290787</ele>
        <time>2022-02-22T04:02:44.971Z</time>
      </trkpt>
      <trkpt lat="42.25667" lon="-1.42644">
        <ele>357.791614</ele>
        <time>2022-02-22T04:03:03.101Z</time>
      </trkpt>
      <trkpt lat="42.25628" lon="-1.42686">
        <ele>358.467949</ele>
        <time>2022-02-22T04:03:25.088Z</time>
      </trkpt>
      <trkpt lat="42.25551" lon="-1.42736">
        <ele>359.610597</ele>
        <time>2022-02-22T04:04:03.053Z</time>
      </trkpt>
      <trkpt lat="42.25529" lon="-1.42758">
        <ele>359.930835</ele>
        <time>2022-02-22T04:04:15.273Z</time>
      </trkpt>
      <trkpt lat="42.25507" lon="-1.42786">
        <ele>360.242216</ele>
        <time>2022-02-22T04:04:29.123Z</time>
      </trkpt>
      <trkpt lat="42.25444" lon="-1.42891">
        <ele>361.268665</ele>
        <time>2022-02-22T04:05:12.114Z</time>
      </trkpt>
      <trkpt lat="42.25427" lon="-1.42909">
        <ele>361.495517</ele>
        <time>2022-02-22T04:05:21.061Z</time>
      </trkpt>
      <trkpt lat="42.25395" lon="-1.42922">
        <ele>361.43513</ele>
        <time>2022-02-22T04:05:33.448Z</time>
      </trkpt>
      <trkpt lat="42.2537" lon="-1.42949">
        <ele>361.105014</ele>
        <time>2022-02-22T04:05:44.787Z</time>
      </trkpt>
      <trkpt lat="42.25333" lon="-1.42952">
        <ele>360.721003</ele>
        <time>2022-02-22T04:05:57.648Z</time>
      </trkpt>
      <trkpt lat="42.253" lon="-1.42949">
        <ele>360.375976</ele>
        <time>2022-02-22T04:06:08.977Z</time>
      </trkpt>
      <trkpt lat="42.25237" lon="-1.43002">
        <ele>359.460809</ele>
        <time>2022-02-22T04:06:33.121Z</time>
      </trkpt>
      <trkpt lat="42.25197" lon="-1.43093">
        <ele>357.916907</ele>
        <time>2022-02-22T04:06:58.215Z</time>
      </trkpt>
      <trkpt lat="42.2516" lon="-1.43111">
        <ele>357.138017</ele>
        <time>2022-02-22T04:07:10.859Z</time>
      </trkpt>
      <trkpt lat="42.25127" lon="-1.43116">
        <ele>356.46335</ele>
        <time>2022-02-22T04:07:22.022Z</time>
      </trkpt>
      <trkpt lat="42.25071" lon="-1.43095">
        <ele>355.501742</ele>
        <time>2022-02-22T04:07:41.282Z</time>
      </trkpt>
      <trkpt lat="42.25035" lon="-1.43089">
        <ele>354.911644</ele>
        <time>2022-02-22T04:07:53.737Z</time>
      </trkpt>
      <trkpt lat="42.24927" lon="-1.43107">
        <ele>353.119805</ele>
        <time>2022-02-22T04:08:29.820Z</time>
      </trkpt>
      <trkpt lat="42.24753" lon="-1.43125">
        <ele>349.26487</ele>
        <time>2022-02-22T04:09:26.109Z</time>
      </trkpt>
      <trkpt lat="42.24718" lon="-1.43135">
        <ele>348.417343</ele>
        <time>2022-02-22T04:09:37.039Z</time>
      </trkpt>
      <trkpt lat="42.24672" lon="-1.43186">
        <ele>346.955704</ele>
        <time>2022-02-22T04:09:55.925Z</time>
      </trkpt>
      <trkpt lat="42.24592" lon="-1.43316">
        <ele>344.454452</ele>
        <time>2022-02-22T04:10:36.234Z</time>
      </trkpt>
      <trkpt lat="42.24558" lon="-1.43348">
        <ele>343.93237</ele>
        <time>2022-02-22T04:10:50.148Z</time>
      </trkpt>
      <trkpt lat="42.24453" lon="-1.43401">
        <ele>342.749878</ele>
        <time>2022-02-22T04:11:28.944Z</time>
      </trkpt>
      <trkpt lat="42.24236" lon="-1.43526">
        <ele>342.688326</ele>
        <time>2022-02-22T04:12:57.177Z</time>
      </trkpt>
      <trkpt lat="42.24214" lon="-1.4353">
        <ele>342.723311</ele>
        <time>2022-02-22T04:13:05.554Z</time>
      </trkpt>
      <trkpt lat="42.24172" lon="-1.43525">
        <ele>342.790643</ele>
        <time>2022-02-22T04:13:21.714Z</time>
      </trkpt>
      <trkpt lat="42.24141" lon="-1.43528">
        <ele>342.84028</ele>
        <time>2022-02-22T04:13:33.738Z</time>
      </trkpt>
      <trkpt lat="42.24089" lon="-1.43555">
        <ele>343.077275</ele>
        <time>2022-02-22T04:13:55.451Z</time>
      </trkpt>
      <trkpt lat="42.23858" lon="-1.43812">
        <ele>344.725304</ele>
        <time>2022-02-22T04:15:54.136Z</time>
      </trkpt>
      <trkpt lat="42.23784" lon="-1.43885">
        <ele>345.723663</ele>
        <time>2022-02-22T04:16:32.560Z</time>
      </trkpt>
      <trkpt lat="42.23676" lon="-1.44033">
        <ele>347.702773</ele>
        <time>2022-02-22T04:17:40.372Z</time>
      </trkpt>
      <trkpt lat="42.23657" lon="-1.44069">
        <ele>348.19088</ele>
        <time>2022-02-22T04:17:55.716Z</time>
      </trkpt>
      <trkpt lat="42.23568" lon="-1.44302">
        <ele>350.036098</ele>
        <time>2022-02-22T04:19:21.649Z</time>
      </trkpt>
      <trkpt lat="42.23565" lon="-1.44344">
        <ele>350.16443</ele>
        <time>2022-02-22T04:19:33.101Z</time>
      </trkpt>
      <trkpt lat="42.23584" lon="-1.44402">
        <ele>350.358649</ele>
        <time>2022-02-22T04:19:49.484Z</time>
      </trkpt>
      <trkpt lat="42.23589" lon="-1.44445">
        <ele>349.904307</ele>
        <time>2022-02-22T04:20:00.527Z</time>
      </trkpt>
      <trkpt lat="42.23586" lon="-1.44583">
        <ele>348.29841</ele>
        <time>2022-02-22T04:20:33.878Z</time>
      </trkpt>
      <trkpt lat="42.23575" lon="-1.44645">
        <ele>347.561472</ele>
        <time>2022-02-22T04:20:49.369Z</time>
      </trkpt>
      <trkpt lat="42.23562" lon="-1.44669">
        <ele>347.476437</ele>
        <time>2022-02-22T04:20:56.741Z</time>
      </trkpt>
      <trkpt lat="42.23529" lon="-1.44703">
        <ele>347.335734</ele>
        <time>2022-02-22T04:21:11.093Z</time>
      </trkpt>
      <trkpt lat="42.23446" lon="-1.44773">
        <ele>347.004108</ele>
        <time>2022-02-22T04:21:47.370Z</time>
      </trkpt>
      <trkpt lat="42.23355" lon="-1.4486">
        <ele>347.687734</ele>
        <time>2022-02-22T04:22:32.983Z</time>
      </trkpt>
      <trkpt lat="42.23316" lon="-1.44934">
        <ele>348.232895</ele>
        <time>2022-02-22T04:23:01.400Z</time>
      </trkpt>
      <trkpt lat="42.23296" lon="-1.45007">
        <ele>348.46585</ele>
        <time>2022-02-22T04:23:25.658Z</time>
      </trkpt>
      <trkpt lat="42.23273" lon="-1.45059">
        <ele>348.544342</ele>
        <time>2022-02-22T04:23:43.997Z</time>
      </trkpt>
      <trkpt lat="42.23246" lon="-1.45095">
        <ele>348.610876</ele>
        <time>2022-02-22T04:23:58.348Z</time>
      </trkpt>
      <trkpt lat="42.23163" lon="-1.45182">
        <ele>347.878851</ele>
        <time>2022-02-22T04:24:35.470Z</time>
      </trkpt>
      <trkpt lat="42.23098" lon="-1.45245">
        <ele>346.417276</ele>
        <time>2022-02-22T04:25:01.429Z</time>
      </trkpt>
      <trkpt lat="42.23053" lon="-1.45302">
        <ele>345.172464</ele>
        <time>2022-02-22T04:25:21.077Z</time>
      </trkpt>
      <trkpt lat="42.23037" lon="-1.45323">
        <ele>344.448665</ele>
        <time>2022-02-22T04:25:27.755Z</time>
      </trkpt>
      <trkpt lat="42.2301" lon="-1.45375">
        <ele>342.886007</ele>
        <time>2022-02-22T04:25:42.329Z</time>
      </trkpt>
      <trkpt lat="42.22997" lon="-1.45417">
        <ele>341.77148</ele>
        <time>2022-02-22T04:25:52.691Z</time>
      </trkpt>
      <trkpt lat="42.22978" lon="-1.45439">
        <ele>340.942277</ele>
        <time>2022-02-22T04:26:00.311Z</time>
      </trkpt>
      <trkpt lat="42.2288" lon="-1.45472">
        <ele>337.215963</ele>
        <time>2022-02-22T04:26:30.760Z</time>
      </trkpt>
      <trkpt lat="42.22853" lon="-1.45489">
        <ele>335.980099</ele>
        <time>2022-02-22T04:26:39.849Z</time>
      </trkpt>
      <trkpt lat="42.22814" lon="-1.45525">
        <ele>334.058739</ele>
        <time>2022-02-22T04:26:53.717Z</time>
      </trkpt>
      <trkpt lat="42.2279" lon="-1.45536">
        <ele>333.017452</ele>
        <time>2022-02-22T04:27:01.271Z</time>
      </trkpt>
      <trkpt lat="42.22564" lon="-1.45559">
        <ele>322.891345</ele>
        <time>2022-02-22T04:28:06.788Z</time>
      </trkpt>
      <trkpt lat="42.22524" lon="-1.45575">
        <ele>321.530042</ele>
        <time>2022-02-22T04:28:19.363Z</time>
      </trkpt>
      <trkpt lat="42.22343" lon="-1.45636">
        <ele>316.229382</ele>
        <time>2022-02-22T04:29:18.619Z</time>
      </trkpt>
      <trkpt lat="42.22169" lon="-1.45726">
        <ele>312.431097</ele>
        <time>2022-02-22T04:30:19.040Z</time>
      </trkpt>
      <trkpt lat="42.22121" lon="-1.45766">
        <ele>311.389495</ele>
        <time>2022-02-22T04:30:37.895Z</time>
      </trkpt>
      <trkpt lat="42.22063" lon="-1.45828">
        <ele>310.057798</ele>
        <time>2022-02-22T04:31:02.320Z</time>
      </trkpt>
      <trkpt lat="42.22047" lon="-1.45852">
        <ele>309.642368</ele>
        <time>2022-02-22T04:31:10.134Z</time>
      </trkpt>
      <trkpt lat="42.22034" lon="-1.45889">
        <ele>309.100868</ele>
        <time>2022-02-22T04:31:20.171Z</time>
      </trkpt>
      <trkpt lat="42.22018" lon="-1.46034">
        <ele>307.155385</ele>
        <time>2022-02-22T04:31:55.924Z</time>
      </trkpt>
      <trkpt lat="42.2199" lon="-1.46131">
        <ele>305.698782</ele>
        <time>2022-02-22T04:32:20.980Z</time>
      </trkpt>
      <trkpt lat="42.21965" lon="-1.46157">
        <ele>305.113499</ele>
        <time>2022-02-22T04:32:31.097Z</time>
      </trkpt>
      <trkpt lat="42.21912" lon="-1.46188">
        <ele>304.022686</ele>
        <time>2022-02-22T04:32:50.129Z</time>
      </trkpt>
      <trkpt lat="42.21792" lon="-1.46361">
        <ele>301.729119</ele>
        <time>2022-02-22T04:33:49.401Z</time>
      </trkpt>
      <trkpt lat="42.21827" lon="-1.46424">
        <ele>301.87469</ele>
        <time>2022-02-22T04:34:10.322Z</time>
      </trkpt>
      <trkpt lat="42.21858" lon="-1.46454">
        <ele>302.007293</ele>
        <time>2022-02-22T04:34:24.950Z</time>
      </trkpt>
      <trkpt lat="42.22026" lon="-1.46572">
        <ele>303.515477</ele>
        <time>2022-02-22T04:35:46.241Z</time>
      </trkpt>
      <trkpt lat="42.22087" lon="-1.46676">
        <ele>304.526564</ele>
        <time>2022-02-22T04:36:28.820Z</time>
      </trkpt>
      <trkpt lat="42.22122" lon="-1.46786">
        <ele>304.973465</ele>
        <time>2022-02-22T04:37:04.657Z</time>
      </trkpt>
      <trkpt lat="42.22135" lon="-1.4681">
        <ele>305.085203</ele>
        <time>2022-02-22T04:37:13.336Z</time>
      </trkpt>
      <trkpt lat="42.22503" lon="-1.47307">
        <ele>304.697906</ele>
        <time>2022-02-22T04:40:24.642Z</time>
      </trkpt>
      <trkpt lat="42.22654" lon="-1.47509">
        <ele>303.813692</ele>
        <time>2022-02-22T04:41:39.898Z</time>
      </trkpt>
      <trkpt lat="42.22668" lon="-1.4754">
        <ele>303.681181</ele>
        <time>2022-02-22T04:41:49.766Z</time>
      </trkpt>
      <trkpt lat="42.22678" lon="-1.47602">
        <ele>303.615689</ele>
        <time>2022-02-22T04:42:06.888Z</time>
      </trkpt>
      <trkpt lat="42.22675" lon="-1.47648">
        <ele>303.59033</ele>
        <time>2022-02-22T04:42:19.565Z</time>
      </trkpt>
      <trkpt lat="42.22665" lon="-1.47696">
        <ele>303.563409</ele>
        <time>2022-02-22T04:42:33.100Z</time>
      </trkpt>
      <trkpt lat="42.22654" lon="-1.47753">
        <ele>303.531413</ele>
        <time>2022-02-22T04:42:49.325Z</time>
      </trkpt>
      <trkpt lat="42.22653" lon="-1.47819">
        <ele>303.532441</ele>
        <time>2022-02-22T04:43:07.572Z</time>
      </trkpt>
      <trkpt lat="42.22701" lon="-1.48088">
        <ele>303.966531</ele>
        <time>2022-02-22T04:44:24.759Z</time>
      </trkpt>
      <trkpt lat="42.22709" lon="-1.48114">
        <ele>304.092307</ele>
        <time>2022-02-22T04:44:32.815Z</time>
      </trkpt>
      <trkpt lat="42.22734" lon="-1.48157">
        <ele>304.338308</ele>
        <time>2022-02-22T04:44:48.788Z</time>
      </trkpt>
      <trkpt lat="42.22834" lon="-1.48304">
        <ele>305.750761</ele>
        <time>2022-02-22T04:45:51.517Z</time>
      </trkpt>
      <trkpt lat="42.22987" lon="-1.48531">
        <ele>308.238114</ele>
        <time>2022-02-22T04:47:31.593Z</time>
      </trkpt>
      <trkpt lat="42.2302" lon="-1.4862">
        <ele>308.619453</ele>
        <time>2022-02-22T04:47:59.772Z</time>
      </trkpt>
      <trkpt lat="42.23028" lon="-1.48679">
        <ele>308.266142</ele>
        <time>2022-02-22T04:48:15.863Z</time>
      </trkpt>
      <trkpt lat="42.23023" lon="-1.48778">
        <ele>307.687179</ele>
        <time>2022-02-22T04:48:41.278Z</time>
      </trkpt>
      <trkpt lat="42.23007" lon="-1.48846">
        <ele>307.165803</ele>
        <time>2022-02-22T04:48:58.971Z</time>
      </trkpt>
      <trkpt lat="42.22977" lon="-1.4893">
        <ele>305.888917</ele>
        <time>2022-02-22T04:49:21.533Z</time>
      </trkpt>
      <trkpt lat="42.22824" lon="-1.49196">
        <ele>301.374052</ele>
        <time>2022-02-22T04:50:42.995Z</time>
      </trkpt>
      <trkpt lat="42.22805" lon="-1.49215">
        <ele>300.958935</ele>
        <time>2022-02-22T04:50:50.839Z</time>
      </trkpt>
      <trkpt lat="42.22794" lon="-1.49222">
        <ele>300.779854</ele>
        <time>2022-02-22T04:50:54.777Z</time>
      </trkpt>
      <trkpt lat="42.22573" lon="-1.49263">
        <ele>298.647066</ele>
        <time>2022-02-22T04:52:12.333Z</time>
      </trkpt>
      <trkpt lat="42.22551" lon="-1.49276">
        <ele>298.449177</ele>
        <time>2022-02-22T04:52:20.921Z</time>
      </trkpt>
      <trkpt lat="42.22529" lon="-1.49304">
        <ele>298.204783</ele>
        <time>2022-02-22T04:52:31.501Z</time>
      </trkpt>
      <trkpt lat="42.22472" lon="-1.49416">
        <ele>297.390292</ele>
        <time>2022-02-22T04:53:06.616Z</time>
      </trkpt>
      <trkpt lat="42.2227" lon="-1.49975">
        <ele>293.629781</ele>
        <time>2022-02-22T04:55:47.477Z</time>
      </trkpt>
      <trkpt lat="42.22177" lon="-1.50234">
        <ele>292.135619</ele>
        <time>2022-02-22T04:57:02.152Z</time>
      </trkpt>
      <trkpt lat="42.21993" lon="-1.50639">
        <ele>290.957986</ele>
        <time>2022-02-22T04:59:09.205Z</time>
      </trkpt>
      <trkpt lat="42.21949" lon="-1.50716">
        <ele>290.755066</ele>
        <time>2022-02-22T04:59:35.608Z</time>
      </trkpt>
      <trkpt lat="42.21897" lon="-1.50777">
        <ele>290.553045</ele>
        <time>2022-02-22T05:00:01.040Z</time>
      </trkpt>
      <trkpt lat="42.21884" lon="-1.50792">
        <ele>290.503647</ele>
        <time>2022-02-22T05:00:07.218Z</time>
      </trkpt>
      <trkpt lat="42.21476" lon="-1.51252">
        <ele>287.94965</ele>
        <time>2022-02-22T05:03:15.464Z</time>
      </trkpt>
      <trkpt lat="42.21458" lon="-1.51267">
        <ele>287.915949</ele>
        <time>2022-02-22T05:03:23.398Z</time>
      </trkpt>
      <trkpt lat="42.21435" lon="-1.51278">
        <ele>287.87807</ele>
        <time>2022-02-22T05:03:32.846Z</time>
      </trkpt>
      <trkpt lat="42.2136" lon="-1.51285">
        <ele>288.768982</ele>
        <time>2022-02-22T05:04:04.488Z</time>
      </trkpt>
      <trkpt lat="42.21304" lon="-1.5131">
        <ele>289.683571</ele>
        <time>2022-02-22T05:04:31.354Z</time>
      </trkpt>
      <trkpt lat="42.2128" lon="-1.5131">
        <ele>290.050756</ele>
        <time>2022-02-22T05:04:42.800Z</time>
      </trkpt>
      <trkpt lat="42.21153" lon="-1.51275">
        <ele>291.865042</ele>
        <time>2022-02-22T05:05:44.387Z</time>
      </trkpt>
      <trkpt lat="42.21127" lon="-1.5128">
        <ele>292.222687</ele>
        <time>2022-02-22T05:05:56.248Z</time>
      </trkpt>
      <trkpt lat="42.21102" lon="-1.51293">
        <ele>292.587756</ele>
        <time>2022-02-22T05:06:08.024Z</time>
      </trkpt>
      <trkpt lat="42.20986" lon="-1.5149">
        <ele>292.187395</ele>
        <time>2022-02-22T05:07:15.366Z</time>
      </trkpt>
      <trkpt lat="42.20966" lon="-1.51525">
        <ele>291.96578</ele>
        <time>2022-02-22T05:07:25.994Z</time>
      </trkpt>
      <trkpt lat="42.20946" lon="-1.51561">
        <ele>291.489461</ele>
        <time>2022-02-22T05:07:37.027Z</time>
      </trkpt>
      <trkpt lat="42.20932" lon="-1.51573">
        <ele>291.257352</ele>
        <time>2022-02-22T05:07:42.337Z</time>
      </trkpt>
      <trkpt lat="42.20902" lon="-1.51591">
        <ele>290.789878</ele>
        <time>2022-02-22T05:07:53.119Z</time>
      </trkpt>
      <trkpt lat="42.20874" lon="-1.51597">
        <ele>290.375857</ele>
        <time>2022-02-22T05:08:02.714Z</time>
      </trkpt>
      <trkpt lat="42.20606" lon="-1.51617">
        <ele>287.653333</ele>
        <time>2022-02-22T05:09:35.119Z</time>
      </trkpt>
      <trkpt lat="42.20519" lon="-1.51575">
        <ele>287.324705</ele>
        <time>2022-02-22T05:10:08.759Z</time>
      </trkpt>
      <trkpt lat="42.20491" lon="-1.51549">
        <ele>287.203548</ele>
        <time>2022-02-22T05:10:21.247Z</time>
      </trkpt>
      <trkpt lat="42.20457" lon="-1.51498">
        <ele>287.030698</ele>
        <time>2022-02-22T05:10:39.904Z</time>
      </trkpt>
      <trkpt lat="42.20442" lon="-1.51495">
        <ele>286.980114</ele>
        <time>2022-02-22T05:10:45.678Z</time>
      </trkpt>
      <trkpt lat="42.20306" lon="-1.51529">
        <ele>286.534801</ele>
        <time>2022-02-22T05:11:35.467Z</time>
      </trkpt>
      <trkpt lat="42.20271" lon="-1.51547">
        <ele>286.263626</ele>
        <time>2022-02-22T05:11:48.837Z</time>
      </trkpt>
      <trkpt lat="42.20232" lon="-1.51592">
        <ele>285.867734</ele>
        <time>2022-02-22T05:12:06.791Z</time>
      </trkpt>
      <trkpt lat="42.2012" lon="-1.51636">
        <ele>285.015834</ele>
        <time>2022-02-22T05:12:47.154Z</time>
      </trkpt>
      <trkpt lat="42.20069" lon="-1.51674">
        <ele>284.683064</ele>
        <time>2022-02-22T05:13:07.811Z</time>
      </trkpt>
      <trkpt lat="42.19985" lon="-1.51688">
        <ele>284.208074</ele>
        <time>2022-02-22T05:13:37.829Z</time>
      </trkpt>
      <trkpt lat="42.19711" lon="-1.51787">
        <ele>283.482394</ele>
        <time>2022-02-22T05:15:21.484Z</time>
      </trkpt>
      <trkpt lat="42.19628" lon="-1.51835">
        <ele>283.201588</ele>
        <time>2022-02-22T05:15:53.964Z</time>
      </trkpt>
      <trkpt lat="42.19561" lon="-1.51861">
        <ele>282.957067</ele>
        <time>2022-02-22T05:16:18.848Z</time>
      </trkpt>
      <trkpt lat="42.19448" lon="-1.51929">
        <ele>282.524175</ele>
        <time>2022-02-22T05:17:03.555Z</time>
      </trkpt>
      <trkpt lat="42.19346" lon="-1.5197">
        <ele>282.189769</ele>
        <time>2022-02-22T05:17:42.439Z</time>
      </trkpt>
      <trkpt lat="42.19296" lon="-1.51996">
        <ele>282.020647</ele>
        <time>2022-02-22T05:18:01.865Z</time>
      </trkpt>
      <trkpt lat="42.1922" lon="-1.52027">
        <ele>281.48296</ele>
        <time>2022-02-22T05:18:29.951Z</time>
      </trkpt>
      <trkpt lat="42.18942" lon="-1.52029">
        <ele>279.528884</ele>
        <time>2022-02-22T05:20:06.917Z</time>
      </trkpt>
      <trkpt lat="42.18928" lon="-1.52033">
        <ele>279.478609</ele>
        <time>2022-02-22T05:20:12.121Z</time>
      </trkpt>
      <trkpt lat="42.18876" lon="-1.52069">
        <ele>279.727315</ele>
        <time>2022-02-22T05:20:34.028Z</time>
      </trkpt>
      <trkpt lat="42.18806" lon="-1.52117">
        <ele>280.065185</ele>
        <time>2022-02-22T05:21:05.789Z</time>
      </trkpt>
      <trkpt lat="42.18776" lon="-1.52132">
        <ele>280.200179</ele>
        <time>2022-02-22T05:21:18.977Z</time>
      </trkpt>
      <trkpt lat="42.18659" lon="-1.52139">
        <ele>281.510134</ele>
        <time>2022-02-22T05:22:08.880Z</time>
      </trkpt>
      <trkpt lat="42.18636" lon="-1.52152">
        <ele>281.791569</ele>
        <time>2022-02-22T05:22:19.300Z</time>
      </trkpt>
      <trkpt lat="42.18608" lon="-1.52183">
        <ele>282.217281</ele>
        <time>2022-02-22T05:22:35.221Z</time>
      </trkpt>
      <trkpt lat="42.18567" lon="-1.52201">
        <ele>282.861478</ele>
        <time>2022-02-22T05:22:54.376Z</time>
      </trkpt>
      <trkpt lat="42.18545" lon="-1.522">
        <ele>283.19605</ele>
        <time>2022-02-22T05:23:03.866Z</time>
      </trkpt>
      <trkpt lat="42.18442" lon="-1.52171">
        <ele>284.844345</ele>
        <time>2022-02-22T05:23:51.479Z</time>
      </trkpt>
      <trkpt lat="42.18389" lon="-1.52169">
        <ele>285.78708</ele>
        <time>2022-02-22T05:24:15.470Z</time>
      </trkpt>
      <trkpt lat="42.18341" lon="-1.5219">
        <ele>286.743292</ele>
        <time>2022-02-22T05:24:38.911Z</time>
      </trkpt>
      <trkpt lat="42.1829" lon="-1.52205">
        <ele>287.731181</ele>
        <time>2022-02-22T05:25:03.201Z</time>
      </trkpt>
      <trkpt lat="42.18252" lon="-1.52204">
        <ele>288.444715</ele>
        <time>2022-02-22T05:25:20.818Z</time>
      </trkpt>
      <trkpt lat="42.18127" lon="-1.52127">
        <ele>292.114472</ele>
        <time>2022-02-22T05:26:29.055Z</time>
      </trkpt>
      <trkpt lat="42.18064" lon="-1.52109">
        <ele>293.97303</ele>
        <time>2022-02-22T05:27:03.463Z</time>
      </trkpt>
      <trkpt lat="42.18051" lon="-1.52111">
        <ele>294.41373</ele>
        <time>2022-02-22T05:27:10.368Z</time>
      </trkpt>
      <trkpt lat="42.18035" lon="-1.52116">
        <ele>294.997738</ele>
        <time>2022-02-22T05:27:20.043Z</time>
      </trkpt>
      <trkpt lat="42.17952" lon="-1.52175">
        <ele>298.226222</ele>
        <time>2022-02-22T05:28:11.189Z</time>
      </trkpt>
      <trkpt lat="42.17919" lon="-1.52221">
        <ele>299.856146</ele>
        <time>2022-02-22T05:28:38.051Z</time>
      </trkpt>
      <trkpt lat="42.17896" lon="-1.52278">
        <ele>301.427886</ele>
        <time>2022-02-22T05:29:02.562Z</time>
      </trkpt>
      <trkpt lat="42.17917" lon="-1.52328">
        <ele>302.817092</ele>
        <time>2022-02-22T05:29:18.696Z</time>
      </trkpt>
      <trkpt lat="42.17941" lon="-1.52429">
        <ele>305.380969</ele>
        <time>2022-02-22T05:29:49.676Z</time>
      </trkpt>
      <trkpt lat="42.18057" lon="-1.52753">
        <ele>315.266418</ele>
        <time>2022-02-22T05:31:44.552Z</time>
      </trkpt>
      <trkpt lat="42.18093" lon="-1.52955">
        <ele>318.587662</ele>
        <time>2022-02-22T05:32:42.193Z</time>
      </trkpt>
      <trkpt lat="42.18088" lon="-1.53033">
        <ele>318.743848</ele>
        <time>2022-02-22T05:32:55.885Z</time>
      </trkpt>
      <trkpt lat="42.18075" lon="-1.53068">
        <ele>318.824783</ele>
        <time>2022-02-22T05:33:02.074Z</time>
      </trkpt>
      <trkpt lat="42.18037" lon="-1.5314">
        <ele>317.822278</ele>
        <time>2022-02-22T05:33:14.295Z</time>
      </trkpt>
      <trkpt lat="42.17986" lon="-1.5324">
        <ele>314.791626</ele>
        <time>2022-02-22T05:33:29.913Z</time>
      </trkpt>
      <trkpt lat="42.17936" lon="-1.53311">
        <ele>312.361623</ele>
        <time>2022-02-22T05:33:42.600Z</time>
      </trkpt>
      <trkpt lat="42.17904" lon="-1.53344">
        <ele>311.090162</ele>
        <time>2022-02-22T05:33:49.713Z</time>
      </trkpt>
      <trkpt lat="42.17883" lon="-1.53359">
        <ele>310.344305</ele>
        <time>2022-02-22T05:33:53.908Z</time>
      </trkpt>
      <trkpt lat="42.17859" lon="-1.53362">
        <ele>309.597948</ele>
        <time>2022-02-22T05:33:58.133Z</time>
      </trkpt>
      <trkpt lat="42.17806" lon="-1.53352">
        <ele>307.903218</ele>
        <time>2022-02-22T05:34:07.853Z</time>
      </trkpt>
      <trkpt lat="42.17781" lon="-1.53353">
        <ele>307.13383</ele>
        <time>2022-02-22T05:34:12.479Z</time>
      </trkpt>
      <trkpt lat="42.17656" lon="-1.53401">
        <ele>304.09382</ele>
        <time>2022-02-22T05:34:37.430Z</time>
      </trkpt>
      <trkpt lat="42.17615" lon="-1.53425">
        <ele>303.077223</ele>
        <time>2022-02-22T05:34:45.772Z</time>
      </trkpt>
      <trkpt lat="42.176" lon="-1.53441">
        <ele>302.393606</ele>
        <time>2022-02-22T05:34:49.383Z</time>
      </trkpt>
      <trkpt lat="42.17569" lon="-1.5353">
        <ele>299.570027</ele>
        <time>2022-02-22T05:35:02.428Z</time>
      </trkpt>
      <trkpt lat="42.17552" lon="-1.53583">
        <ele>297.903554</ele>
        <time>2022-02-22T05:35:09.826Z</time>
      </trkpt>
      <trkpt lat="42.17548" lon="-1.53653">
        <ele>295.862908</ele>
        <time>2022-02-22T05:35:18.417Z</time>
      </trkpt>
      <trkpt lat="42.17548" lon="-1.53659">
        <ele>295.601824</ele>
        <time>2022-02-22T05:35:19.165Z</time>
      </trkpt>
      <trkpt lat="42.17545" lon="-1.53737">
        <ele>292.236524</ele>
        <time>2022-02-22T05:35:28.641Z</time>
      </trkpt>
      <trkpt lat="42.17524" lon="-1.5393">
        <ele>284.184477</ele>
        <time>2022-02-22T05:35:51.936Z</time>
      </trkpt>
      <trkpt lat="42.17526" lon="-1.53957">
        <ele>283.215504</ele>
        <time>2022-02-22T05:35:55.259Z</time>
      </trkpt>
      <trkpt lat="42.17548" lon="-1.53997">
        <ele>281.436794</ele>
        <time>2022-02-22T05:36:01.332Z</time>
      </trkpt>
      <trkpt lat="42.17638" lon="-1.54127">
        <ele>276.148174</ele>
        <time>2022-02-22T05:36:23.880Z</time>
      </trkpt>
      <trkpt lat="42.1767" lon="-1.54176">
        <ele>275.143874</ele>
        <time>2022-02-22T05:36:32.742Z</time>
      </trkpt>
      <trkpt lat="42.17673" lon="-1.54181">
        <ele>275.040968</ele>
        <time>2022-02-22T05:36:33.673Z</time>
      </trkpt>
      <trkpt lat="42.17713" lon="-1.54244">
        <ele>273.763933</ele>
        <time>2022-02-22T05:36:45.957Z</time>
      </trkpt>
      <trkpt lat="42.17721" lon="-1.54281">
        <ele>273.255447</ele>
        <time>2022-02-22T05:36:52.614Z</time>
      </trkpt>
      <trkpt lat="42.17719" lon="-1.54316">
        <ele>273.593408</ele>
        <time>2022-02-22T05:36:59.272Z</time>
      </trkpt>
      <trkpt lat="42.17697" lon="-1.54397">
        <ele>274.427829</ele>
        <time>2022-02-22T05:37:18.072Z</time>
      </trkpt>
      <trkpt lat="42.17676" lon="-1.54461">
        <ele>275.101295</ele>
        <time>2022-02-22T05:37:34.838Z</time>
      </trkpt>
      <trkpt lat="42.17622" lon="-1.54575">
        <ele>277.190083</ele>
        <time>2022-02-22T05:38:08.942Z</time>
      </trkpt>
      <trkpt lat="42.17592" lon="-1.54707">
        <ele>279.731497</ele>
        <time>2022-02-22T05:38:46.392Z</time>
      </trkpt>
      <trkpt lat="42.17579" lon="-1.54728">
        <ele>280.261808</ele>
        <time>2022-02-22T05:38:53.878Z</time>
      </trkpt>
      <trkpt lat="42.1755" lon="-1.54756">
        <ele>281.245468</ele>
        <time>2022-02-22T05:39:07.091Z</time>
      </trkpt>
      <trkpt lat="42.17529" lon="-1.54806">
        <ele>282.427007</ele>
        <time>2022-02-22T05:39:23.302Z</time>
      </trkpt>
      <trkpt lat="42.17426" lon="-1.5493">
        <ele>286.056824</ele>
        <time>2022-02-22T05:40:14.318Z</time>
      </trkpt>
      <trkpt lat="42.17402" lon="-1.54966">
        <ele>286.889081</ele>
        <time>2022-02-22T05:40:26.310Z</time>
      </trkpt>
      <trkpt lat="42.17377" lon="-1.55061">
        <ele>288.608875</ele>
        <time>2022-02-22T05:40:52.409Z</time>
      </trkpt>
      <trkpt lat="42.17342" lon="-1.5514">
        <ele>290.051536</ele>
        <time>2022-02-22T05:41:14.402Z</time>
      </trkpt>
      <trkpt lat="42.17335" lon="-1.5521">
        <ele>291.110414</ele>
        <time>2022-02-22T05:41:31.651Z</time>
      </trkpt>
      <trkpt lat="42.17316" lon="-1.55263">
        <ele>291.994884</ele>
        <time>2022-02-22T05:41:46.100Z</time>
      </trkpt>
      <trkpt lat="42.17305" lon="-1.55311">
        <ele>292.74439</ele>
        <time>2022-02-22T05:41:58.844Z</time>
      </trkpt>
      <trkpt lat="42.17283" lon="-1.5536">
        <ele>293.49335</ele>
        <time>2022-02-22T05:42:13.693Z</time>
      </trkpt>
      <trkpt lat="42.17256" lon="-1.55412">
        <ele>294.308374</ele>
        <time>2022-02-22T05:42:28.658Z</time>
      </trkpt>
      <trkpt lat="42.17245" lon="-1.55444">
        <ele>294.767782</ele>
        <time>2022-02-22T05:42:36.870Z</time>
      </trkpt>
      <trkpt lat="42.17228" lon="-1.55528">
        <ele>295.887264</ele>
        <time>2022-02-22T05:42:57.097Z</time>
      </trkpt>
      <trkpt lat="42.17167" lon="-1.55662">
        <ele>297.027806</ele>
        <time>2022-02-22T05:43:30.181Z</time>
      </trkpt>
      <trkpt lat="42.17099" lon="-1.55751">
        <ele>298.047901</ele>
        <time>2022-02-22T05:43:54.622Z</time>
      </trkpt>
      <trkpt lat="42.17052" lon="-1.55789">
        <ele>298.793437</ele>
        <time>2022-02-22T05:44:09.414Z</time>
      </trkpt>
      <trkpt lat="42.17029" lon="-1.55822">
        <ele>299.25797</ele>
        <time>2022-02-22T05:44:19.113Z</time>
      </trkpt>
      <trkpt lat="42.17015" lon="-1.55875">
        <ele>299.821013</ele>
        <time>2022-02-22T05:44:32.587Z</time>
      </trkpt>
      <trkpt lat="42.17014" lon="-1.55995">
        <ele>301.813947</ele>
        <time>2022-02-22T05:45:05.632Z</time>
      </trkpt>
      <trkpt lat="42.16995" lon="-1.56035">
        <ele>302.718576</ele>
        <time>2022-02-22T05:45:19.717Z</time>
      </trkpt>
      <trkpt lat="42.16967" lon="-1.56059">
        <ele>303.546293</ele>
        <time>2022-02-22T05:45:32.124Z</time>
      </trkpt>
      <trkpt lat="42.16897" lon="-1.56101">
        <ele>304.610154</ele>
        <time>2022-02-22T05:45:57.528Z</time>
      </trkpt>
      <trkpt lat="42.16869" lon="-1.56125">
        <ele>304.518559</ele>
        <time>2022-02-22T05:46:06.795Z</time>
      </trkpt>
      <trkpt lat="42.16825" lon="-1.56181">
        <ele>304.35472</ele>
        <time>2022-02-22T05:46:19.870Z</time>
      </trkpt>
      <trkpt lat="42.16817" lon="-1.56193">
        <ele>304.319502</ele>
        <time>2022-02-22T05:46:22.433Z</time>
      </trkpt>
      <trkpt lat="42.16812" lon="-1.562">
        <ele>304.301029</ele>
        <time>2022-02-22T05:46:23.731Z</time>
      </trkpt>
      <trkpt lat="42.16787" lon="-1.56239">
        <ele>304.130238</ele>
        <time>2022-02-22T05:46:30.973Z</time>
      </trkpt>
      <trkpt lat="42.16767" lon="-1.56284">
        <ele>303.000031</ele>
        <time>2022-02-22T05:46:38.164Z</time>
      </trkpt>
      <trkpt lat="42.16689" lon="-1.56473">
        <ele>298.350713</ele>
        <time>2022-02-22T05:47:07.050Z</time>
      </trkpt>
      <trkpt lat="42.16646" lon="-1.56543">
        <ele>296.307044</ele>
        <time>2022-02-22T05:47:19.341Z</time>
      </trkpt>
      <trkpt lat="42.16596" lon="-1.56526">
        <ele>294.727639</ele>
        <time>2022-02-22T05:47:35.456Z</time>
      </trkpt>
      <trkpt lat="42.16557" lon="-1.56523">
        <ele>293.504284</ele>
        <time>2022-02-22T05:47:47.766Z</time>
      </trkpt>
      <trkpt lat="42.16348" lon="-1.56529">
        <ele>286.005413</ele>
        <time>2022-02-22T05:48:50.388Z</time>
      </trkpt>
      <trkpt lat="42.16288" lon="-1.56527">
        <ele>284.208171</ele>
        <time>2022-02-22T05:49:08.890Z</time>
      </trkpt>
      <trkpt lat="42.16155" lon="-1.56546">
        <ele>280.187634</ele>
        <time>2022-02-22T05:49:51.204Z</time>
      </trkpt>
      <trkpt lat="42.16147" lon="-1.5654">
        <ele>279.907615</ele>
        <time>2022-02-22T05:49:54.036Z</time>
      </trkpt>
      <trkpt lat="42.16104" lon="-1.56466">
        <ele>277.745779</ele>
        <time>2022-02-22T05:50:15.910Z</time>
      </trkpt>
      <trkpt lat="42.16098" lon="-1.56462">
        <ele>277.520856</ele>
        <time>2022-02-22T05:50:17.991Z</time>
      </trkpt>
      <trkpt lat="42.15988" lon="-1.56462">
        <ele>273.584937</ele>
        <time>2022-02-22T05:50:50.695Z</time>
      </trkpt>
      <trkpt lat="42.15904" lon="-1.56454">
        <ele>270.240617</ele>
        <time>2022-02-22T05:51:15.332Z</time>
      </trkpt>
      <trkpt lat="42.15868" lon="-1.56467">
        <ele>268.768082</ele>
        <time>2022-02-22T05:51:26.563Z</time>
      </trkpt>
      <trkpt lat="42.15831" lon="-1.56498">
        <ele>267.717345</ele>
        <time>2022-02-22T05:51:40.144Z</time>
      </trkpt>
      <trkpt lat="42.15735" lon="-1.56534">
        <ele>265.318516</ele>
        <time>2022-02-22T05:52:11.919Z</time>
      </trkpt>
      <trkpt lat="42.15726" lon="-1.5655">
        <ele>264.972597</ele>
        <time>2022-02-22T05:52:16.827Z</time>
      </trkpt>
      <trkpt lat="42.1572" lon="-1.56618">
        <ele>264.126152</ele>
        <time>2022-02-22T05:52:34.227Z</time>
      </trkpt>
      <trkpt lat="42.15603" lon="-1.56692">
        <ele>262.665561</ele>
        <time>2022-02-22T05:53:18.279Z</time>
      </trkpt>
      <trkpt lat="42.15166" lon="-1.57029">
        <ele>259.411952</ele>
        <time>2022-02-22T05:56:16.110Z</time>
      </trkpt>
      <trkpt lat="42.15159" lon="-1.57033">
        <ele>259.375368</ele>
        <time>2022-02-22T05:56:18.841Z</time>
      </trkpt>
      <trkpt lat="42.14318" lon="-1.57689">
        <ele>257.758281</ele>
        <time>2022-02-22T06:02:14.792Z</time>
      </trkpt>
      <trkpt lat="42.13905" lon="-1.58008">
        <ele>257.807453</ele>
        <time>2022-02-22T06:05:11.311Z</time>
      </trkpt>
      <trkpt lat="42.13486" lon="-1.58335">
        <ele>257.872464</ele>
        <time>2022-02-22T06:08:11.675Z</time>
      </trkpt>
      <trkpt lat="42.13424" lon="-1.58383">
        <ele>257.794165</ele>
        <time>2022-02-22T06:08:37.544Z</time>
      </trkpt>
      <trkpt lat="42.13386" lon="-1.58413">
        <ele>257.739309</ele>
        <time>2022-02-22T06:08:53.718Z</time>
      </trkpt>
      <trkpt lat="42.13378" lon="-1.5841">
        <ele>257.727418</ele>
        <time>2022-02-22T06:08:55.561Z</time>
      </trkpt>
      <trkpt lat="42.12028" lon="-1.58048">
        <ele>255.897745</ele>
        <time>2022-02-22T06:13:56.040Z</time>
      </trkpt>
      <trkpt lat="42.11469" lon="-1.57898">
        <ele>256.510884</ele>
        <time>2022-02-22T06:16:06.546Z</time>
      </trkpt>
      <trkpt lat="42.11451" lon="-1.57893">
        <ele>256.489102</ele>
        <time>2022-02-22T06:16:10.624Z</time>
      </trkpt>
      <trkpt lat="42.11447" lon="-1.57892">
        <ele>256.481816</ele>
        <time>2022-02-22T06:16:11.434Z</time>
      </trkpt>
      <trkpt lat="42.11419" lon="-1.57884">
        <ele>256.425051</ele>
        <time>2022-02-22T06:16:17.795Z</time>
      </trkpt>
      <trkpt lat="42.1141" lon="-1.57881">
        <ele>256.407842</ele>
        <time>2022-02-22T06:16:19.732Z</time>
      </trkpt>
      <trkpt lat="42.11407" lon="-1.58081">
        <ele>256.120496</ele>
        <time>2022-02-22T06:17:13.618Z</time>
      </trkpt>
      <trkpt lat="42.11399" lon="-1.58242">
        <ele>255.890836</ele>
        <time>2022-02-22T06:17:57.027Z</time>
      </trkpt>
      <trkpt lat="42.11381" lon="-1.58411">
        <ele>255.809487</ele>
        <time>2022-02-22T06:18:44.080Z</time>
      </trkpt>
      <trkpt lat="42.11377" lon="-1.58516">
        <ele>255.800693</ele>
        <time>2022-02-22T06:19:12.771Z</time>
      </trkpt>
      <trkpt lat="42.11363" lon="-1.58631">
        <ele>255.771435</ele>
        <time>2022-02-22T06:19:44.866Z</time>
      </trkpt>
      <trkpt lat="42.11354" lon="-1.58758">
        <ele>255.736235</ele>
        <time>2022-02-22T06:20:19.742Z</time>
      </trkpt>
      <trkpt lat="42.11333" lon="-1.5881">
        <ele>255.726667</ele>
        <time>2022-02-22T06:20:36.117Z</time>
      </trkpt>
      <trkpt lat="42.11282" lon="-1.58863">
        <ele>255.715732</ele>
        <time>2022-02-22T06:21:00.191Z</time>
      </trkpt>
      <trkpt lat="42.11233" lon="-1.58944">
        <ele>255.702584</ele>
        <time>2022-02-22T06:21:28.776Z</time>
      </trkpt>
      <trkpt lat="42.11206" lon="-1.58974">
        <ele>255.644224</ele>
        <time>2022-02-22T06:21:41.533Z</time>
      </trkpt>
      <trkpt lat="42.11183" lon="-1.59019">
        <ele>255.567102</ele>
        <time>2022-02-22T06:21:56.452Z</time>
      </trkpt>
      <trkpt lat="42.1115" lon="-1.59065">
        <ele>255.476444</ele>
        <time>2022-02-22T06:22:13.938Z</time>
      </trkpt>
      <trkpt lat="42.11118" lon="-1.59052">
        <ele>255.413403</ele>
        <time>2022-02-22T06:22:26.010Z</time>
      </trkpt>
      <trkpt lat="42.11096" lon="-1.59063">
        <ele>255.369081</ele>
        <time>2022-02-22T06:22:34.482Z</time>
      </trkpt>
      <trkpt lat="42.11075" lon="-1.59092">
        <ele>255.324535</ele>
        <time>2022-02-22T06:22:45.393Z</time>
      </trkpt>
      <trkpt lat="42.11031" lon="-1.59092">
        <ele>255.262782</ele>
        <time>2022-02-22T06:23:01.360Z</time>
      </trkpt>
      <trkpt lat="42.10971" lon="-1.59107">
        <ele>255.177397</ele>
        <time>2022-02-22T06:23:23.551Z</time>
      </trkpt>
      <trkpt lat="42.10851" lon="-1.59181">
        <ele>255.170403</ele>
        <time>2022-02-22T06:24:12.891Z</time>
      </trkpt>
      <trkpt lat="42.10738" lon="-1.59231">
        <ele>255.250838</ele>
        <time>2022-02-22T06:24:57.795Z</time>
      </trkpt>
      <trkpt lat="42.10175" lon="-1.59007">
        <ele>255.178293</ele>
        <time>2022-02-22T06:28:35.656Z</time>
      </trkpt>
      <trkpt lat="42.09874" lon="-1.5898">
        <ele>253.88512</ele>
        <time>2022-02-22T06:30:23.471Z</time>
      </trkpt>
      <trkpt lat="42.09708" lon="-1.58983">
        <ele>253.111604</ele>
        <time>2022-02-22T06:31:22.461Z</time>
      </trkpt>
      <trkpt lat="42.09679" lon="-1.59">
        <ele>253.227353</ele>
        <time>2022-02-22T06:31:33.792Z</time>
      </trkpt>
      <trkpt lat="42.09536" lon="-1.59042">
        <ele>253.883994</ele>
        <time>2022-02-22T06:32:32.871Z</time>
      </trkpt>
      <trkpt lat="42.09488" lon="-1.59072">
        <ele>254.11802</ele>
        <time>2022-02-22T06:32:54.258Z</time>
      </trkpt>
      <trkpt lat="42.09475" lon="-1.5908">
        <ele>254.181627</ele>
        <time>2022-02-22T06:33:00.194Z</time>
      </trkpt>
      <trkpt lat="42.09436" lon="-1.59066">
        <ele>254.357478</ele>
        <time>2022-02-22T06:33:16.015Z</time>
      </trkpt>
      <trkpt lat="42.09414" lon="-1.59047">
        <ele>254.473619</ele>
        <time>2022-02-22T06:33:26.510Z</time>
      </trkpt>
      <trkpt lat="42.09401" lon="-1.59043">
        <ele>254.52957</ele>
        <time>2022-02-22T06:33:31.430Z</time>
      </trkpt>
      <trkpt lat="42.09391" lon="-1.59082">
        <ele>254.66448</ele>
        <time>2022-02-22T06:33:43.522Z</time>
      </trkpt>
      <trkpt lat="42.09315" lon="-1.59348">
        <ele>254.637357</ele>
        <time>2022-02-22T06:35:01.330Z</time>
      </trkpt>
      <trkpt lat="42.09294" lon="-1.5947">
        <ele>254.647784</ele>
        <time>2022-02-22T06:35:36.183Z</time>
      </trkpt>
      <trkpt lat="42.09278" lon="-1.59534">
        <ele>254.653436</ele>
        <time>2022-02-22T06:35:55.072Z</time>
      </trkpt>
      <trkpt lat="42.09245" lon="-1.59775">
        <ele>254.591649</ele>
        <time>2022-02-22T06:37:02.362Z</time>
      </trkpt>
      <trkpt lat="42.09237" lon="-1.59793">
        <ele>254.580624</ele>
        <time>2022-02-22T06:37:07.815Z</time>
      </trkpt>
      <trkpt lat="42.09222" lon="-1.59809">
        <ele>254.553554</ele>
        <time>2022-02-22T06:37:14.850Z</time>
      </trkpt>
      <trkpt lat="42.09079" lon="-1.59918">
        <ele>254.327737</ele>
        <time>2022-02-22T06:38:14.693Z</time>
      </trkpt>
      <trkpt lat="42.08844" lon="-1.60088">
        <ele>253.998991</ele>
        <time>2022-02-22T06:39:53.169Z</time>
      </trkpt>
      <trkpt lat="42.08829" lon="-1.6009">
        <ele>253.970847</ele>
        <time>2022-02-22T06:39:58.777Z</time>
      </trkpt>
      <trkpt lat="42.08768" lon="-1.6007">
        <ele>253.856632</ele>
        <time>2022-02-22T06:40:21.329Z</time>
      </trkpt>
      <trkpt lat="42.08645" lon="-1.60064">
        <ele>253.803504</ele>
        <time>2022-02-22T06:41:06.133Z</time>
      </trkpt>
      <trkpt lat="42.0861" lon="-1.60052">
        <ele>253.79047</ele>
        <time>2022-02-22T06:41:19.716Z</time>
      </trkpt>
      <trkpt lat="42.08579" lon="-1.60027">
        <ele>253.846017</ele>
        <time>2022-02-22T06:41:33.870Z</time>
      </trkpt>
      <trkpt lat="42.08501" lon="-1.59936">
        <ele>254.555635</ele>
        <time>2022-02-22T06:42:15.627Z</time>
      </trkpt>
      <trkpt lat="42.08441" lon="-1.59898">
        <ele>255.010482</ele>
        <time>2022-02-22T06:42:43.097Z</time>
      </trkpt>
      <trkpt lat="42.08395" lon="-1.59891">
        <ele>255.232884</ele>
        <time>2022-02-22T06:43:01.703Z</time>
      </trkpt>
      <trkpt lat="42.08351" lon="-1.59853">
        <ele>255.483119</ele>
        <time>2022-02-22T06:43:23.013Z</time>
      </trkpt>
      <trkpt lat="42.08315" lon="-1.59841">
        <ele>255.658765</ele>
        <time>2022-02-22T06:43:38.026Z</time>
      </trkpt>
      <trkpt lat="42.08274" lon="-1.59764">
        <ele>255.76495</ele>
        <time>2022-02-22T06:44:04.382Z</time>
      </trkpt>
      <trkpt lat="42.08196" lon="-1.59702">
        <ele>255.365983</ele>
        <time>2022-02-22T06:44:36.571Z</time>
      </trkpt>
      <trkpt lat="42.08133" lon="-1.59665">
        <ele>255.048092</ele>
        <time>2022-02-22T06:45:00.940Z</time>
      </trkpt>
      <trkpt lat="42.08104" lon="-1.59656">
        <ele>254.842892</ele>
        <time>2022-02-22T06:45:11.370Z</time>
      </trkpt>
      <trkpt lat="42.08036" lon="-1.59649">
        <ele>254.377805</ele>
        <time>2022-02-22T06:45:34.775Z</time>
      </trkpt>
      <trkpt lat="42.07985" lon="-1.59673">
        <ele>254.004606</ele>
        <time>2022-02-22T06:45:53.807Z</time>
      </trkpt>
      <trkpt lat="42.07971" lon="-1.59688">
        <ele>253.881554</ele>
        <time>2022-02-22T06:46:00.248Z</time>
      </trkpt>
      <trkpt lat="42.07946" lon="-1.59732">
        <ele>253.707687</ele>
        <time>2022-02-22T06:46:15.266Z</time>
      </trkpt>
      <trkpt lat="42.07902" lon="-1.5978">
        <ele>253.499466</ele>
        <time>2022-02-22T06:46:35.557Z</time>
      </trkpt>
      <trkpt lat="42.07881" lon="-1.59793">
        <ele>253.413082</ele>
        <time>2022-02-22T06:46:43.927Z</time>
      </trkpt>
      <trkpt lat="42.07838" lon="-1.59804">
        <ele>253.248659</ele>
        <time>2022-02-22T06:46:59.746Z</time>
      </trkpt>
      <trkpt lat="42.07683" lon="-1.59816">
        <ele>252.993152</ele>
        <time>2022-02-22T06:47:56.221Z</time>
      </trkpt>
      <trkpt lat="42.07642" lon="-1.59821">
        <ele>252.938594</ele>
        <time>2022-02-22T06:48:11.779Z</time>
      </trkpt>
      <trkpt lat="42.075" lon="-1.59865">
        <ele>253.48159</ele>
        <time>2022-02-22T06:49:09.225Z</time>
      </trkpt>
      <trkpt lat="42.07443" lon="-1.59877">
        <ele>253.642832</ele>
        <time>2022-02-22T06:49:31.580Z</time>
      </trkpt>
      <trkpt lat="42.07299" lon="-1.59882">
        <ele>253.731757</ele>
        <time>2022-02-22T06:50:25.008Z</time>
      </trkpt>
      <trkpt lat="42.07189" lon="-1.599">
        <ele>253.651255</ele>
        <time>2022-02-22T06:51:05.466Z</time>
      </trkpt>
      <trkpt lat="42.07092" lon="-1.59947">
        <ele>253.60964</ele>
        <time>2022-02-22T06:51:43.628Z</time>
      </trkpt>
      <trkpt lat="42.06975" lon="-1.59992">
        <ele>253.910292</ele>
        <time>2022-02-22T06:52:30.013Z</time>
      </trkpt>
      <trkpt lat="42.06931" lon="-1.60007">
        <ele>254.031475</ele>
        <time>2022-02-22T06:52:47.992Z</time>
      </trkpt>
      <trkpt lat="42.06891" lon="-1.60032">
        <ele>254.214367</ele>
        <time>2022-02-22T06:53:05.368Z</time>
      </trkpt>
      <trkpt lat="42.06869" lon="-1.60036">
        <ele>254.309194</ele>
        <time>2022-02-22T06:53:14.358Z</time>
      </trkpt>
      <trkpt lat="42.06733" lon="-1.60046">
        <ele>254.792555</ele>
        <time>2022-02-22T06:54:07.395Z</time>
      </trkpt>
      <trkpt lat="42.06698" lon="-1.60024">
        <ele>254.829482</ele>
        <time>2022-02-22T06:54:21.772Z</time>
      </trkpt>
      <trkpt lat="42.0669" lon="-1.60024">
        <ele>254.837436</ele>
        <time>2022-02-22T06:54:24.986Z</time>
      </trkpt>
      <trkpt lat="42.06684" lon="-1.6004">
        <ele>254.850494</ele>
        <time>2022-02-22T06:54:27.871Z</time>
      </trkpt>
      <trkpt lat="42.06566" lon="-1.60303">
        <ele>255.510349</ele>
        <time>2022-02-22T06:55:18.999Z</time>
      </trkpt>
      <trkpt lat="42.06542" lon="-1.60345">
        <ele>255.675423</ele>
        <time>2022-02-22T06:55:29.768Z</time>
      </trkpt>
      <trkpt lat="42.06533" lon="-1.6035">
        <ele>255.808762</ele>
        <time>2022-02-22T06:55:32.724Z</time>
      </trkpt>
      <trkpt lat="42.06515" lon="-1.60331">
        <ele>256.43621</ele>
        <time>2022-02-22T06:55:39.154Z</time>
      </trkpt>
      <trkpt lat="42.06463" lon="-1.60277">
        <ele>258.250277</ele>
        <time>2022-02-22T06:56:00.557Z</time>
      </trkpt>
      <trkpt lat="42.06354" lon="-1.60161">
        <ele>262.731032</ele>
        <time>2022-02-22T06:56:58.769Z</time>
      </trkpt>
      <trkpt lat="42.06337" lon="-1.60152">
        <ele>263.475831</ele>
        <time>2022-02-22T06:57:06.577Z</time>
      </trkpt>
      <trkpt lat="42.0633" lon="-1.60155">
        <ele>263.77251</ele>
        <time>2022-02-22T06:57:09.816Z</time>
      </trkpt>
      <trkpt lat="42.0632" lon="-1.60175">
        <ele>264.514718</ele>
        <time>2022-02-22T06:57:17.295Z</time>
      </trkpt>
      <trkpt lat="42.06292" lon="-1.60235">
        <ele>266.641442</ele>
        <time>2022-02-22T06:57:40.715Z</time>
      </trkpt>
      <trkpt lat="42.06265" lon="-1.60304">
        <ele>268.678944</ele>
        <time>2022-02-22T06:58:04.645Z</time>
      </trkpt>
      <trkpt lat="42.06255" lon="-1.60315">
        <ele>269.043576</ele>
        <time>2022-02-22T06:58:10.063Z</time>
      </trkpt>
      <trkpt lat="42.06257" lon="-1.60324">
        <ele>269.259935</ele>
        <time>2022-02-22T06:58:12.766Z</time>
      </trkpt>
      <trkpt lat="42.06251" lon="-1.60333">
        <ele>269.517189</ele>
        <time>2022-02-22T06:58:16.218Z</time>
      </trkpt>
      <trkpt lat="42.06241" lon="-1.60325">
        <ele>269.861912</ele>
        <time>2022-02-22T06:58:21.560Z</time>
      </trkpt>
      <trkpt lat="42.06215" lon="-1.60319">
        <ele>270.634195</ele>
        <time>2022-02-22T06:58:31.306Z</time>
      </trkpt>
      <trkpt lat="42.06204" lon="-1.60309">
        <ele>271.031651</ele>
        <time>2022-02-22T06:58:36.811Z</time>
      </trkpt>
      <trkpt lat="42.06141" lon="-1.60252">
        <ele>273.194674</ele>
        <time>2022-02-22T06:59:01.080Z</time>
      </trkpt>
      <trkpt lat="42.0613" lon="-1.60243">
        <ele>273.397869</ele>
        <time>2022-02-22T06:59:04.630Z</time>
      </trkpt>
      <trkpt lat="42.06077" lon="-1.60198">
        <ele>274.367261</ele>
        <time>2022-02-22T06:59:24.240Z</time>
      </trkpt>
      <trkpt lat="42.06051" lon="-1.60173">
        <ele>274.861472</ele>
        <time>2022-02-22T06:59:33.759Z</time>
      </trkpt>
      <trkpt lat="42.06046" lon="-1.60169">
        <ele>274.955653</ele>
        <time>2022-02-22T06:59:35.729Z</time>
      </trkpt>
      <trkpt lat="42.05969" lon="-1.60104">
        <ele>275.952331</ele>
        <time>2022-02-22T07:00:02.099Z</time>
      </trkpt>
      <trkpt lat="42.05921" lon="-1.60064">
        <ele>275.950202</ele>
        <time>2022-02-22T07:00:16.167Z</time>
      </trkpt>
      <trkpt lat="42.05861" lon="-1.60009">
        <ele>275.947501</ele>
        <time>2022-02-22T07:00:31.268Z</time>
      </trkpt>
      <trkpt lat="42.05834" lon="-1.59985">
        <ele>275.803273</ele>
        <time>2022-02-22T07:00:37.558Z</time>
      </trkpt>
      <trkpt lat="42.05829" lon="-1.59992">
        <ele>275.673877</ele>
        <time>2022-02-22T07:00:39.089Z</time>
      </trkpt>
      <trkpt lat="42.05822" lon="-1.5999">
        <ele>275.542715</ele>
        <time>2022-02-22T07:00:40.468Z</time>
      </trkpt>
      <trkpt lat="42.0582" lon="-1.59987">
        <ele>275.478639</ele>
        <time>2022-02-22T07:00:41.138Z</time>
      </trkpt>
      <trkpt lat="42.05821" lon="-1.59972">
        <ele>275.268383</ele>
        <time>2022-02-22T07:00:43.265Z</time>
      </trkpt>
      <trkpt lat="42.05833" lon="-1.59973">
        <ele>275.044363</ele>
        <time>2022-02-22T07:00:45.675Z</time>
      </trkpt>
      <trkpt lat="42.05838" lon="-1.59967">
        <ele>274.933924</ele>
        <time>2022-02-22T07:00:46.816Z</time>
      </trkpt>
      <trkpt lat="42.05759" lon="-1.59858">
        <ele>272.86243</ele>
        <time>2022-02-22T07:01:07.037Z</time>
      </trkpt>
      <trkpt lat="42.05662" lon="-1.59751">
        <ele>271.258844</ele>
        <time>2022-02-22T07:01:30.854Z</time>
      </trkpt>
      <trkpt lat="42.05653" lon="-1.59751">
        <ele>271.157193</ele>
        <time>2022-02-22T07:01:32.592Z</time>
      </trkpt>
      <trkpt lat="42.05651" lon="-1.59741">
        <ele>271.061879</ele>
        <time>2022-02-22T07:01:34.210Z</time>
      </trkpt>
      <trkpt lat="42.05655" lon="-1.59735">
        <ele>270.995928</ele>
        <time>2022-02-22T07:01:35.298Z</time>
      </trkpt>
      <trkpt lat="42.05642" lon="-1.59684">
        <ele>270.50128</ele>
        <time>2022-02-22T07:01:43.779Z</time>
      </trkpt>
      <trkpt lat="42.05633" lon="-1.59653">
        <ele>270.342316</ele>
        <time>2022-02-22T07:01:49.076Z</time>
      </trkpt>
      <trkpt lat="42.05595" lon="-1.59592">
        <ele>270.029136</ele>
        <time>2022-02-22T07:02:01.406Z</time>
      </trkpt>
      <trkpt lat="42.0559" lon="-1.59585">
        <ele>269.993679</ele>
        <time>2022-02-22T07:02:02.857Z</time>
      </trkpt>
      <trkpt lat="42.05565" lon="-1.59531">
        <ele>269.739558</ele>
        <time>2022-02-22T07:02:13.109Z</time>
      </trkpt>
      <trkpt lat="42.05507" lon="-1.59416">
        <ele>268.832564</ele>
        <time>2022-02-22T07:02:34.093Z</time>
      </trkpt>
      <trkpt lat="42.05473" lon="-1.59354">
        <ele>268.173047</ele>
        <time>2022-02-22T07:02:45.029Z</time>
      </trkpt>
      <trkpt lat="42.05439" lon="-1.59306">
        <ele>267.607033</ele>
        <time>2022-02-22T07:02:54.354Z</time>
      </trkpt>
      <trkpt lat="42.05433" lon="-1.59289">
        <ele>267.444743</ele>
        <time>2022-02-22T07:02:57.080Z</time>
      </trkpt>
      <trkpt lat="42.05428" lon="-1.59273">
        <ele>267.323299</ele>
        <time>2022-02-22T07:02:59.534Z</time>
      </trkpt>
      <trkpt lat="42.0531" lon="-1.59169">
        <ele>266.055794</ele>
        <time>2022-02-22T07:03:48.350Z</time>
      </trkpt>
      <trkpt lat="42.05255" lon="-1.59152">
        <ele>265.913919</ele>
        <time>2022-02-22T07:04:08.377Z</time>
      </trkpt>
      <trkpt lat="42.052" lon="-1.59147">
        <ele>266.119738</ele>
        <time>2022-02-22T07:04:28.897Z</time>
      </trkpt>
      <trkpt lat="42.05146" lon="-1.59153">
        <ele>266.321656</ele>
        <time>2022-02-22T07:04:50.645Z</time>
      </trkpt>
      <trkpt lat="42.05085" lon="-1.59173">
        <ele>266.794012</ele>
        <time>2022-02-22T07:05:17.577Z</time>
      </trkpt>
      <trkpt lat="42.05024" lon="-1.59209">
        <ele>267.816343</ele>
        <time>2022-02-22T07:05:47.362Z</time>
      </trkpt>
      <trkpt lat="42.04965" lon="-1.59264">
        <ele>268.928732</ele>
        <time>2022-02-22T07:06:20.111Z</time>
      </trkpt>
      <trkpt lat="42.0492" lon="-1.59325">
        <ele>269.845947</ele>
        <time>2022-02-22T07:06:49.578Z</time>
      </trkpt>
      <trkpt lat="42.04849" lon="-1.59463">
        <ele>271.568142</ele>
        <time>2022-02-22T07:07:44.846Z</time>
      </trkpt>
      <trkpt lat="42.04832" lon="-1.59498">
        <ele>271.811246</ele>
        <time>2022-02-22T07:07:57.575Z</time>
      </trkpt>
      <trkpt lat="42.04637" lon="-1.59868">
        <ele>273.133554</ele>
        <time>2022-02-22T07:09:25.167Z</time>
      </trkpt>
      <trkpt lat="42.04138" lon="-1.60828">
        <ele>283.515703</ele>
        <time>2022-02-22T07:13:53.131Z</time>
      </trkpt>
      <trkpt lat="42.04061" lon="-1.60977">
        <ele>285.17598</ele>
        <time>2022-02-22T07:14:34.499Z</time>
      </trkpt>
      <trkpt lat="42.03537" lon="-1.61982">
        <ele>295.780483</ele>
        <time>2022-02-22T07:19:15.046Z</time>
      </trkpt>
      <trkpt lat="42.03483" lon="-1.62086">
        <ele>296.475983</ele>
        <time>2022-02-22T07:19:39.525Z</time>
      </trkpt>
      <trkpt lat="42.03463" lon="-1.62128">
        <ele>296.662283</ele>
        <time>2022-02-22T07:19:49.013Z</time>
      </trkpt>
      <trkpt lat="42.0344" lon="-1.62173">
        <ele>296.869535</ele>
        <time>2022-02-22T07:19:58.999Z</time>
      </trkpt>
      <trkpt lat="42.03419" lon="-1.6221">
        <ele>297.045727</ele>
        <time>2022-02-22T07:20:08.303Z</time>
      </trkpt>
      <trkpt lat="42.03243" lon="-1.62545">
        <ele>299.864699</ele>
        <time>2022-02-22T07:21:39.706Z</time>
      </trkpt>
      <trkpt lat="42.03194" lon="-1.62649">
        <ele>300.683717</ele>
        <time>2022-02-22T07:22:06.024Z</time>
      </trkpt>
      <trkpt lat="42.03185" lon="-1.62664">
        <ele>300.789699</ele>
        <time>2022-02-22T07:22:11.824Z</time>
      </trkpt>
      <trkpt lat="42.03125" lon="-1.62771">
        <ele>301.523084</ele>
        <time>2022-02-22T07:22:39.859Z</time>
      </trkpt>
      <trkpt lat="42.02707" lon="-1.63577">
        <ele>307.095307</ele>
        <time>2022-02-22T07:26:08.088Z</time>
      </trkpt>
      <trkpt lat="42.02688" lon="-1.63613">
        <ele>307.342949</ele>
        <time>2022-02-22T07:26:17.373Z</time>
      </trkpt>
      <trkpt lat="42.02633" lon="-1.63718">
        <ele>308.185252</ele>
        <time>2022-02-22T07:26:44.895Z</time>
      </trkpt>
      <trkpt lat="42.02525" lon="-1.63926">
        <ele>310.059343</ele>
        <time>2022-02-22T07:27:40.967Z</time>
      </trkpt>
      <trkpt lat="42.02311" lon="-1.64336">
        <ele>314.006552</ele>
        <time>2022-02-22T07:29:33.711Z</time>
      </trkpt>
      <trkpt lat="42.02093" lon="-1.64756">
        <ele>317.407859</ele>
        <time>2022-02-22T07:31:24.502Z</time>
      </trkpt>
      <trkpt lat="42.0194" lon="-1.65048">
        <ele>319.37208</ele>
        <time>2022-02-22T07:32:39.107Z</time>
      </trkpt>
      <trkpt lat="42.01903" lon="-1.65104">
        <ele>319.946018</ele>
        <time>2022-02-22T07:32:55.030Z</time>
      </trkpt>
      <trkpt lat="42.01102" lon="-1.65921">
        <ele>330.402175</ele>
        <time>2022-02-22T07:37:56.350Z</time>
      </trkpt>
      <trkpt lat="42.00827" lon="-1.66201">
        <ele>335.318549</ele>
        <time>2022-02-22T07:39:47.388Z</time>
      </trkpt>
      <trkpt lat="41.9991" lon="-1.67133">
        <ele>345.42332</ele>
        <time>2022-02-22T07:45:20.624Z</time>
      </trkpt>
      <trkpt lat="41.99873" lon="-1.67163">
        <ele>345.819449</ele>
        <time>2022-02-22T07:45:33.001Z</time>
      </trkpt>
      <trkpt lat="41.99802" lon="-1.67204">
        <ele>346.52546</ele>
        <time>2022-02-22T07:45:55.592Z</time>
      </trkpt>
      <trkpt lat="41.99477" lon="-1.67336">
        <ele>351.056884</ele>
        <time>2022-02-22T07:47:43.298Z</time>
      </trkpt>
      <trkpt lat="41.99208" lon="-1.67449">
        <ele>353.84598</ele>
        <time>2022-02-22T07:49:06.638Z</time>
      </trkpt>
      <trkpt lat="41.99159" lon="-1.67465">
        <ele>354.290701</ele>
        <time>2022-02-22T07:49:20.809Z</time>
      </trkpt>
      <trkpt lat="41.99108" lon="-1.67471">
        <ele>354.753221</ele>
        <time>2022-02-22T07:49:35.874Z</time>
      </trkpt>
      <trkpt lat="41.99037" lon="-1.67463">
        <ele>355.730242</ele>
        <time>2022-02-22T07:49:56.972Z</time>
      </trkpt>
      <trkpt lat="41.98605" lon="-1.67304">
        <ele>361.890199</ele>
        <time>2022-02-22T07:52:21.207Z</time>
      </trkpt>
      <trkpt lat="41.98532" lon="-1.67291">
        <ele>362.640144</ele>
        <time>2022-02-22T07:52:42.327Z</time>
      </trkpt>
      <trkpt lat="41.98444" lon="-1.67294">
        <ele>363.418057</ele>
        <time>2022-02-22T07:53:06.999Z</time>
      </trkpt>
      <trkpt lat="41.98167" lon="-1.67352">
        <ele>366.478461</ele>
        <time>2022-02-22T07:54:31.653Z</time>
      </trkpt>
      <trkpt lat="41.97548" lon="-1.67479">
        <ele>374.081589</ele>
        <time>2022-02-22T07:57:45.355Z</time>
      </trkpt>
      <trkpt lat="41.9747" lon="-1.67489">
        <ele>374.926066</ele>
        <time>2022-02-22T07:58:08.350Z</time>
      </trkpt>
      <trkpt lat="41.97396" lon="-1.67475">
        <ele>375.681316</ele>
        <time>2022-02-22T07:58:30.187Z</time>
      </trkpt>
      <trkpt lat="41.9708" lon="-1.67333">
        <ele>379.341963</ele>
        <time>2022-02-22T08:00:11.561Z</time>
      </trkpt>
      <trkpt lat="41.96983" lon="-1.6731">
        <ele>380.432947</ele>
        <time>2022-02-22T08:00:41.146Z</time>
      </trkpt>
      <trkpt lat="41.96924" lon="-1.67309">
        <ele>381.163509</ele>
        <time>2022-02-22T08:00:58.885Z</time>
      </trkpt>
      <trkpt lat="41.96858" lon="-1.67321">
        <ele>381.986086</ele>
        <time>2022-02-22T08:01:19.222Z</time>
      </trkpt>
      <trkpt lat="41.9504" lon="-1.67855">
        <ele>411.954038</ele>
        <time>2022-02-22T08:11:30.091Z</time>
      </trkpt>
      <trkpt lat="41.94893" lon="-1.67925">
        <ele>414.224693</ele>
        <time>2022-02-22T08:12:20.337Z</time>
      </trkpt>
      <trkpt lat="41.94768" lon="-1.68005">
        <ele>415.250711</ele>
        <time>2022-02-22T08:13:00.144Z</time>
      </trkpt>
      <trkpt lat="41.94689" lon="-1.68065">
        <ele>415.837967</ele>
        <time>2022-02-22T08:13:23.484Z</time>
      </trkpt>
      <trkpt lat="41.94584" lon="-1.68163">
        <ele>416.572859</ele>
        <time>2022-02-22T08:13:58.035Z</time>
      </trkpt>
      <trkpt lat="41.9399" lon="-1.68753">
        <ele>430.131969</ele>
        <time>2022-02-22T08:18:10.859Z</time>
      </trkpt>
      <trkpt lat="41.93877" lon="-1.68836">
        <ele>431.896144</ele>
        <time>2022-02-22T08:18:50.911Z</time>
      </trkpt>
      <trkpt lat="41.93745" lon="-1.689">
        <ele>433.644885</ele>
        <time>2022-02-22T08:19:33.685Z</time>
      </trkpt>
      <trkpt lat="41.92473" lon="-1.69443">
        <ele>450.186541</ele>
        <time>2022-02-22T08:26:27.091Z</time>
      </trkpt>
      <trkpt lat="41.92336" lon="-1.69507">
        <ele>451.327918</ele>
        <time>2022-02-22T08:27:08.377Z</time>
      </trkpt>
      <trkpt lat="41.92247" lon="-1.69568">
        <ele>452.163195</ele>
        <time>2022-02-22T08:27:36.322Z</time>
      </trkpt>
      <trkpt lat="41.9219" lon="-1.69616">
        <ele>452.74619</ele>
        <time>2022-02-22T08:27:55.743Z</time>
      </trkpt>
      <trkpt lat="41.921" lon="-1.69711">
        <ele>454.038029</ele>
        <time>2022-02-22T08:28:30.689Z</time>
      </trkpt>
      <trkpt lat="41.92031" lon="-1.69802">
        <ele>455.316427</ele>
        <time>2022-02-22T08:29:01.396Z</time>
      </trkpt>
      <trkpt lat="41.91995" lon="-1.69859">
        <ele>456.074856</ele>
        <time>2022-02-22T08:29:19.150Z</time>
      </trkpt>
      <trkpt lat="41.91907" lon="-1.70025">
        <ele>458.165765</ele>
        <time>2022-02-22T08:30:07.103Z</time>
      </trkpt>
      <trkpt lat="41.9185" lon="-1.70142">
        <ele>459.479367</ele>
        <time>2022-02-22T08:30:39.362Z</time>
      </trkpt>
      <trkpt lat="41.9146" lon="-1.70952">
        <ele>468.748195</ele>
        <time>2022-02-22T08:34:21.256Z</time>
      </trkpt>
      <trkpt lat="41.91449" lon="-1.70975">
        <ele>469.067783</ele>
        <time>2022-02-22T08:34:28.205Z</time>
      </trkpt>
      <trkpt lat="41.91388" lon="-1.71092">
        <ele>470.944298</ele>
        <time>2022-02-22T08:35:05.369Z</time>
      </trkpt>
      <trkpt lat="41.91336" lon="-1.71156">
        <ele>472.319326</ele>
        <time>2022-02-22T08:35:30.442Z</time>
      </trkpt>
      <trkpt lat="41.90974" lon="-1.71505">
        <ele>479.517864</ele>
        <time>2022-02-22T08:37:57.031Z</time>
      </trkpt>
      <trkpt lat="41.90884" lon="-1.71602">
        <ele>480.715094</ele>
        <time>2022-02-22T08:38:30.117Z</time>
      </trkpt>
      <trkpt lat="41.90766" lon="-1.71764">
        <ele>482.846859</ele>
        <time>2022-02-22T08:39:20.276Z</time>
      </trkpt>
      <trkpt lat="41.90638" lon="-1.71936">
        <ele>485.955756</ele>
        <time>2022-02-22T08:40:24.679Z</time>
      </trkpt>
      <trkpt lat="41.90628" lon="-1.71942">
        <ele>486.167989</ele>
        <time>2022-02-22T08:40:28.496Z</time>
      </trkpt>
      <trkpt lat="41.90559" lon="-1.72034">
        <ele>486.493738</ele>
        <time>2022-02-22T08:40:56.840Z</time>
      </trkpt>
      <trkpt lat="41.90587" lon="-1.72066">
        <ele>486.392485</ele>
        <time>2022-02-22T08:41:22.463Z</time>
      </trkpt>
      <trkpt lat="41.90581" lon="-1.72073">
        <ele>486.370484</ele>
        <time>2022-02-22T08:41:24.146Z</time>
      </trkpt>
      <trkpt lat="41.90549" lon="-1.72115">
        <ele>486.246812</ele>
        <time>2022-02-22T08:41:32.924Z</time>
      </trkpt>
      <trkpt lat="41.90582" lon="-1.7216">
        <ele>485.884019</ele>
        <time>2022-02-22T08:41:41.840Z</time>
      </trkpt>
      <trkpt lat="41.90588" lon="-1.72169">
        <ele>485.784089</ele>
        <time>2022-02-22T08:41:43.481Z</time>
      </trkpt>
      <trkpt lat="41.90598" lon="-1.72167">
        <ele>485.671456</ele>
        <time>2022-02-22T08:41:45.465Z</time>
      </trkpt>
      <trkpt lat="41.90606" lon="-1.72181">
        <ele>485.523665</ele>
        <time>2022-02-22T08:41:47.867Z</time>
      </trkpt>
      <trkpt lat="41.90601" lon="-1.72195">
        <ele>485.393858</ele>
        <time>2022-02-22T08:41:49.980Z</time>
      </trkpt>
      <trkpt lat="41.90589" lon="-1.72195">
        <ele>485.259973</ele>
        <time>2022-02-22T08:41:52.575Z</time>
      </trkpt>
      <trkpt lat="41.9058" lon="-1.72205">
        <ele>485.127519</ele>
        <time>2022-02-22T08:41:54.905Z</time>
      </trkpt>
      <trkpt lat="41.90542" lon="-1.72239">
        <ele>484.611523</ele>
        <time>2022-02-22T08:42:04.082Z</time>
      </trkpt>
      <trkpt lat="41.90532" lon="-1.72248">
        <ele>484.478445</ele>
        <time>2022-02-22T08:42:06.475Z</time>
      </trkpt>
      <trkpt lat="41.90491" lon="-1.72289">
        <ele>484.282473</ele>
        <time>2022-02-22T08:42:16.773Z</time>
      </trkpt>
      <trkpt lat="41.90471" lon="-1.72321">
        <ele>484.438286</ele>
        <time>2022-02-22T08:42:23.455Z</time>
      </trkpt>
      <trkpt lat="41.90465" lon="-1.72331">
        <ele>484.485626</ele>
        <time>2022-02-22T08:42:25.716Z</time>
      </trkpt>
      <trkpt lat="41.90448" lon="-1.72364">
        <ele>484.632531</ele>
        <time>2022-02-22T08:42:32.816Z</time>
      </trkpt>
      <trkpt lat="41.90443" lon="-1.72377">
        <ele>484.689813</ele>
        <time>2022-02-22T08:42:35.795Z</time>
      </trkpt>
      <trkpt lat="41.90437" lon="-1.72391">
        <ele>484.749451</ele>
        <time>2022-02-22T08:42:38.852Z</time>
      </trkpt>
      <trkpt lat="41.9044" lon="-1.72419">
        <ele>484.854353</ele>
        <time>2022-02-22T08:42:44.829Z</time>
      </trkpt>
      <trkpt lat="41.90445" lon="-1.72425">
        <ele>484.887238</ele>
        <time>2022-02-22T08:42:46.550Z</time>
      </trkpt>
      <trkpt lat="41.90444" lon="-1.72439">
        <ele>484.936804</ele>
        <time>2022-02-22T08:42:49.158Z</time>
      </trkpt>
      <trkpt lat="41.90442" lon="-1.72442">
        <ele>484.954466</ele>
        <time>2022-02-22T08:42:50.179Z</time>
      </trkpt>
      <trkpt lat="41.90431" lon="-1.72444">
        <ele>485.005273</ele>
        <time>2022-02-22T08:42:53.395Z</time>
      </trkpt>
      <trkpt lat="41.90428" lon="-1.72442">
        <ele>485.022877</ele>
        <time>2022-02-22T08:42:54.515Z</time>
      </trkpt>
      <trkpt lat="41.90415" lon="-1.7245">
        <ele>485.250515</ele>
        <time>2022-02-22T08:42:58.670Z</time>
      </trkpt>
      <trkpt lat="41.90407" lon="-1.72454">
        <ele>485.516323</ele>
        <time>2022-02-22T08:43:01.519Z</time>
      </trkpt>
      <trkpt lat="41.90383" lon="-1.72504">
        <ele>486.784286</ele>
        <time>2022-02-22T08:43:15.947Z</time>
      </trkpt>
      <trkpt lat="41.90345" lon="-1.72561">
        <ele>488.427251</ele>
        <time>2022-02-22T08:43:36.193Z</time>
      </trkpt>
      <trkpt lat="41.90289" lon="-1.72563">
        <ele>490.047693</ele>
        <time>2022-02-22T08:44:00.193Z</time>
      </trkpt>
      <trkpt lat="41.90279" lon="-1.72561">
        <ele>490.406233</ele>
        <time>2022-02-22T08:44:04.643Z</time>
      </trkpt>
      <trkpt lat="41.90223" lon="-1.72532">
        <ele>493.043086</ele>
        <time>2022-02-22T08:44:31.330Z</time>
      </trkpt>
      <trkpt lat="41.90114" lon="-1.72454">
        <ele>498.399641</ele>
        <time>2022-02-22T08:45:26.237Z</time>
      </trkpt>
      <trkpt lat="41.9009" lon="-1.72437">
        <ele>499.49849</ele>
        <time>2022-02-22T08:45:38.251Z</time>
      </trkpt>
      <trkpt lat="41.9007" lon="-1.72438">
        <ele>500.312336</ele>
        <time>2022-02-22T08:45:46.971Z</time>
      </trkpt>
      <trkpt lat="41.90061" lon="-1.72444">
        <ele>500.735228</ele>
        <time>2022-02-22T08:45:51.467Z</time>
      </trkpt>
      <trkpt lat="41.90036" lon="-1.72457">
        <ele>501.823945</ele>
        <time>2022-02-22T08:46:02.960Z</time>
      </trkpt>
      <trkpt lat="41.90027" lon="-1.72453">
        <ele>502.205721</ele>
        <time>2022-02-22T08:46:06.963Z</time>
      </trkpt>
      <trkpt lat="41.90014" lon="-1.72448">
        <ele>502.723269</ele>
        <time>2022-02-22T08:46:12.371Z</time>
      </trkpt>
      <trkpt lat="41.89961" lon="-1.72437">
        <ele>504.913734</ele>
        <time>2022-02-22T08:46:34.995Z</time>
      </trkpt>
      <trkpt lat="41.89856" lon="-1.72415">
        <ele>508.112116</ele>
        <time>2022-02-22T08:47:18.154Z</time>
      </trkpt>
      <trkpt lat="41.89827" lon="-1.72408">
        <ele>508.938365</ele>
        <time>2022-02-22T08:47:28.457Z</time>
      </trkpt>
      <trkpt lat="41.89751" lon="-1.72391">
        <ele>510.813794</ele>
        <time>2022-02-22T08:47:52.030Z</time>
      </trkpt>
      <trkpt lat="41.89744" lon="-1.72389">
        <ele>510.907823</ele>
        <time>2022-02-22T08:47:54.120Z</time>
      </trkpt>
      <trkpt lat="41.89716" lon="-1.72383">
        <ele>511.263287</ele>
        <time>2022-02-22T08:48:01.936Z</time>
      </trkpt>
      <trkpt lat="41.89704" lon="-1.7238">
        <ele>511.422566</ele>
        <time>2022-02-22T08:48:05.542Z</time>
      </trkpt>
      <trkpt lat="41.89641" lon="-1.72362">
        <ele>512.237331</ele>
        <time>2022-02-22T08:48:23.672Z</time>
      </trkpt>
      <trkpt lat="41.89616" lon="-1.72376">
        <ele>512.583064</ele>
        <time>2022-02-22T08:48:31.319Z</time>
      </trkpt>
      <trkpt lat="41.89607" lon="-1.72399">
        <ele>512.828208</ele>
        <time>2022-02-22T08:48:36.619Z</time>
      </trkpt>
      <trkpt lat="41.89601" lon="-1.72372">
        <ele>513.236441</ele>
        <time>2022-02-22T08:48:42.802Z</time>
      </trkpt>
      <trkpt lat="41.89568" lon="-1.72382">
        <ele>513.881644</ele>
        <time>2022-02-22T08:48:52.599Z</time>
      </trkpt>
      <trkpt lat="41.89478" lon="-1.72387">
        <ele>515.600078</ele>
        <time>2022-02-22T08:49:22.284Z</time>
      </trkpt>
      <trkpt lat="41.89317" lon="-1.72404">
        <ele>520.001994</ele>
        <time>2022-02-22T08:50:22.599Z</time>
      </trkpt>
      <trkpt lat="41.89247" lon="-1.72407">
        <ele>522.343662</ele>
        <time>2022-02-22T08:50:50.313Z</time>
      </trkpt>
      <trkpt lat="41.89221" lon="-1.72416">
        <ele>523.584917</ele>
        <time>2022-02-22T08:51:01.539Z</time>
      </trkpt>
      <trkpt lat="41.89199" lon="-1.72435">
        <ele>524.751139</ele>
        <time>2022-02-22T08:51:12.299Z</time>
      </trkpt>
      <trkpt lat="41.89182" lon="-1.72442">
        <ele>525.56412</ele>
        <time>2022-02-22T08:51:19.862Z</time>
      </trkpt>
      <trkpt lat="41.89015" lon="-1.72448">
        <ele>534.27626</ele>
        <time>2022-02-22T08:52:44.991Z</time>
      </trkpt>
      <trkpt lat="41.88967" lon="-1.72437">
        <ele>537.155874</ele>
        <time>2022-02-22T08:53:12.473Z</time>
      </trkpt>
      <trkpt lat="41.88922" lon="-1.72417">
        <ele>539.965018</ele>
        <time>2022-02-22T08:53:38.268Z</time>
      </trkpt>
      <trkpt lat="41.88878" lon="-1.72383">
        <ele>542.371796</ele>
        <time>2022-02-22T08:54:05.068Z</time>
      </trkpt>
      <trkpt lat="41.88808" lon="-1.72349">
        <ele>545.646198</ele>
        <time>2022-02-22T08:54:39.420Z</time>
      </trkpt>
      <trkpt lat="41.88757" lon="-1.72343">
        <ele>547.892583</ele>
        <time>2022-02-22T08:54:59.021Z</time>
      </trkpt>
      <trkpt lat="41.88727" lon="-1.72356">
        <ele>549.032115</ele>
        <time>2022-02-22T08:55:10.993Z</time>
      </trkpt>
      <trkpt lat="41.88674" lon="-1.72363">
        <ele>550.606999</ele>
        <time>2022-02-22T08:55:31.555Z</time>
      </trkpt>
      <trkpt lat="41.88628" lon="-1.72336">
        <ele>552.116324</ele>
        <time>2022-02-22T08:55:50.312Z</time>
      </trkpt>
      <trkpt lat="41.88595" lon="-1.72338">
        <ele>553.099735</ele>
        <time>2022-02-22T08:56:02.509Z</time>
      </trkpt>
      <trkpt lat="41.88554" lon="-1.72353">
        <ele>554.477738</ele>
        <time>2022-02-22T08:56:18.444Z</time>
      </trkpt>
      <trkpt lat="41.88486" lon="-1.72363">
        <ele>556.95105</ele>
        <time>2022-02-22T08:56:44.902Z</time>
      </trkpt>
      <trkpt lat="41.88293" lon="-1.72289">
        <ele>564.882345</ele>
        <time>2022-02-22T08:58:09.529Z</time>
      </trkpt>
      <trkpt lat="41.88262" lon="-1.72289">
        <ele>566.19048</ele>
        <time>2022-02-22T08:58:23.383Z</time>
      </trkpt>
      <trkpt lat="41.88229" lon="-1.72299">
        <ele>567.641784</ele>
        <time>2022-02-22T08:58:38.920Z</time>
      </trkpt>
      <trkpt lat="41.88221" lon="-1.7227">
        <ele>568.658067</ele>
        <time>2022-02-22T08:58:53.964Z</time>
      </trkpt>
      <trkpt lat="41.88207" lon="-1.72256">
        <ele>569.439857</ele>
        <time>2022-02-22T08:59:03.410Z</time>
      </trkpt>
      <trkpt lat="41.88119" lon="-1.72249">
        <ele>573.415445</ele>
        <time>2022-02-22T08:59:58.018Z</time>
      </trkpt>
      <trkpt lat="41.88004" lon="-1.72217">
        <ele>578.071488</ele>
        <time>2022-02-22T09:01:04.111Z</time>
      </trkpt>
      <trkpt lat="41.87948" lon="-1.72176">
        <ele>580.277134</ele>
        <time>2022-02-22T09:01:38.702Z</time>
      </trkpt>
      <trkpt lat="41.87899" lon="-1.72177">
        <ele>581.956806</ele>
        <time>2022-02-22T09:02:04.754Z</time>
      </trkpt>
      <trkpt lat="41.87802" lon="-1.72237">
        <ele>584.468194</ele>
        <time>2022-02-22T09:02:58.695Z</time>
      </trkpt>
      <trkpt lat="41.87733" lon="-1.72242">
        <ele>586.021531</ele>
        <time>2022-02-22T09:03:29.542Z</time>
      </trkpt>
      <trkpt lat="41.87664" lon="-1.72262">
        <ele>587.625183</ele>
        <time>2022-02-22T09:04:01.769Z</time>
      </trkpt>
      <trkpt lat="41.87639" lon="-1.72259">
        <ele>588.21395</ele>
        <time>2022-02-22T09:04:13.629Z</time>
      </trkpt>
      <trkpt lat="41.87591" lon="-1.72226">
        <ele>589.455761</ele>
        <time>2022-02-22T09:04:39.642Z</time>
      </trkpt>
      <trkpt lat="41.87565" lon="-1.7224">
        <ele>590.101447</ele>
        <time>2022-02-22T09:04:53.952Z</time>
      </trkpt>
      <trkpt lat="41.87544" lon="-1.72301">
        <ele>591.856096</ele>
        <time>2022-02-22T09:05:20.200Z</time>
      </trkpt>
      <trkpt lat="41.87517" lon="-1.72322">
        <ele>593.13598</ele>
        <time>2022-02-22T09:05:37.943Z</time>
      </trkpt>
      <trkpt lat="41.87444" lon="-1.72437">
        <ele>597.738917</ele>
        <time>2022-02-22T09:06:45.128Z</time>
      </trkpt>
      <trkpt lat="41.87425" lon="-1.72453">
        <ele>598.917529</ele>
        <time>2022-02-22T09:06:58.851Z</time>
      </trkpt>
      <trkpt lat="41.87381" lon="-1.72477">
        <ele>601.471952</ele>
        <time>2022-02-22T09:07:27.234Z</time>
      </trkpt>
      <trkpt lat="41.87323" lon="-1.7255">
        <ele>605.747524</ele>
        <time>2022-02-22T09:08:18.311Z</time>
      </trkpt>
      <trkpt lat="41.87298" lon="-1.72561">
        <ele>607.131889</ele>
        <time>2022-02-22T09:08:36.339Z</time>
      </trkpt>
      <trkpt lat="41.87279" lon="-1.72578">
        <ele>608.55763</ele>
        <time>2022-02-22T09:08:52.299Z</time>
      </trkpt>
      <trkpt lat="41.87261" lon="-1.72601">
        <ele>610.248436</ele>
        <time>2022-02-22T09:09:10.345Z</time>
      </trkpt>
      <trkpt lat="41.87227" lon="-1.72662">
        <ele>614.028129</ele>
        <time>2022-02-22T09:09:51.398Z</time>
      </trkpt>
      <trkpt lat="41.87185" lon="-1.72713">
        <ele>617.807739</ele>
        <time>2022-02-22T09:10:30.834Z</time>
      </trkpt>
      <trkpt lat="41.87168" lon="-1.72714">
        <ele>618.925895</ele>
        <time>2022-02-22T09:10:41.327Z</time>
      </trkpt>
      <trkpt lat="41.87142" lon="-1.72734">
        <ele>620.786203</ele>
        <time>2022-02-22T09:10:57.268Z</time>
      </trkpt>
      <trkpt lat="41.87107" lon="-1.72747">
        <ele>622.927378</ele>
        <time>2022-02-22T09:11:17.113Z</time>
      </trkpt>
      <trkpt lat="41.87102" lon="-1.72758">
        <ele>623.472092</ele>
        <time>2022-02-22T09:11:23.852Z</time>
      </trkpt>
      <trkpt lat="41.87088" lon="-1.72737">
        <ele>624.70039</ele>
        <time>2022-02-22T09:11:33.251Z</time>
      </trkpt>
      <trkpt lat="41.87044" lon="-1.72678">
        <ele>628.373478</ele>
        <time>2022-02-22T09:12:06.794Z</time>
      </trkpt>
      <trkpt lat="41.87007" lon="-1.72629">
        <ele>630.916275</ele>
        <time>2022-02-22T09:12:32.233Z</time>
      </trkpt>
      <trkpt lat="41.86957" lon="-1.72543">
        <ele>633.769322</ele>
        <time>2022-02-22T09:13:08.357Z</time>
      </trkpt>
      <trkpt lat="41.86935" lon="-1.72479">
        <ele>635.568324</ele>
        <time>2022-02-22T09:13:28.680Z</time>
      </trkpt>
      <trkpt lat="41.86935" lon="-1.72405">
        <ele>635.75098</ele>
        <time>2022-02-22T09:13:53.113Z</time>
      </trkpt>
      <trkpt lat="41.86927" lon="-1.72295">
        <ele>634.141351</ele>
        <time>2022-02-22T09:14:19.759Z</time>
      </trkpt>
      <trkpt lat="41.86896" lon="-1.72238">
        <ele>633.118765</ele>
        <time>2022-02-22T09:14:35.184Z</time>
      </trkpt>
      <trkpt lat="41.86883" lon="-1.72181">
        <ele>631.789329</ele>
        <time>2022-02-22T09:14:48.427Z</time>
      </trkpt>
      <trkpt lat="41.86888" lon="-1.72163">
        <ele>631.30955</ele>
        <time>2022-02-22T09:14:52.429Z</time>
      </trkpt>
      <trkpt lat="41.86913" lon="-1.72128">
        <ele>630.064151</ele>
        <time>2022-02-22T09:15:03.434Z</time>
      </trkpt>
      <trkpt lat="41.86932" lon="-1.72093">
        <ele>628.990845</ele>
        <time>2022-02-22T09:15:13.063Z</time>
      </trkpt>
      <trkpt lat="41.86941" lon="-1.72086">
        <ele>628.621558</ele>
        <time>2022-02-22T09:15:16.469Z</time>
      </trkpt>
      <trkpt lat="41.86979" lon="-1.72078">
        <ele>627.312049</ele>
        <time>2022-02-22T09:15:28.579Z</time>
      </trkpt>
      <trkpt lat="41.86987" lon="-1.72055">
        <ele>626.679268</ele>
        <time>2022-02-22T09:15:34.686Z</time>
      </trkpt>
      <trkpt lat="41.86979" lon="-1.72037">
        <ele>626.289316</ele>
        <time>2022-02-22T09:15:39.708Z</time>
      </trkpt>
      <trkpt lat="41.8695" lon="-1.72021">
        <ele>625.527685</ele>
        <time>2022-02-22T09:15:50.000Z</time>
      </trkpt>
      <trkpt lat="41.86923" lon="-1.72015">
        <ele>624.86448</ele>
        <time>2022-02-22T09:15:58.785Z</time>
      </trkpt>
      <trkpt lat="41.86858" lon="-1.72014">
        <ele>623.271156</ele>
        <time>2022-02-22T09:16:19.688Z</time>
      </trkpt>
      <trkpt lat="41.86842" lon="-1.72001">
        <ele>622.820767</ele>
        <time>2022-02-22T09:16:25.449Z</time>
      </trkpt>
      <trkpt lat="41.86834" lon="-1.71939">
        <ele>621.289938</ele>
        <time>2022-02-22T09:16:40.346Z</time>
      </trkpt>
      <trkpt lat="41.86835" lon="-1.71785">
        <ele>616.922243</ele>
        <time>2022-02-22T09:17:13.966Z</time>
      </trkpt>
      <trkpt lat="41.86828" lon="-1.71727">
        <ele>615.371401</ele>
        <time>2022-02-22T09:17:26.986Z</time>
      </trkpt>
      <trkpt lat="41.86817" lon="-1.7168">
        <ele>614.717961</ele>
        <time>2022-02-22T09:17:38.129Z</time>
      </trkpt>
      <trkpt lat="41.86764" lon="-1.71474">
        <ele>612.544399</ele>
        <time>2022-02-22T09:18:33.092Z</time>
      </trkpt>
      <trkpt lat="41.86608" lon="-1.7139">
        <ele>614.50022</ele>
        <time>2022-02-22T09:19:49.673Z</time>
      </trkpt>
      <trkpt lat="41.86584" lon="-1.71369">
        <ele>615.061024</ele>
        <time>2022-02-22T09:20:03.197Z</time>
      </trkpt>
      <trkpt lat="41.86552" lon="-1.71326">
        <ele>615.955925</ele>
        <time>2022-02-22T09:20:24.533Z</time>
      </trkpt>
      <trkpt lat="41.86442" lon="-1.71207">
        <ele>620.304884</ele>
        <time>2022-02-22T09:21:29.810Z</time>
      </trkpt>
      <trkpt lat="41.86405" lon="-1.71172">
        <ele>622.698458</ele>
        <time>2022-02-22T09:21:58.521Z</time>
      </trkpt>
      <trkpt lat="41.86357" lon="-1.71143">
        <ele>625.418944</ele>
        <time>2022-02-22T09:22:34.920Z</time>
      </trkpt>
      <trkpt lat="41.86306" lon="-1.71133">
        <ele>628.653234</ele>
        <time>2022-02-22T09:23:16.168Z</time>
      </trkpt>
      <trkpt lat="41.8629" lon="-1.71118">
        <ele>630.195518</ele>
        <time>2022-02-22T09:23:29.031Z</time>
      </trkpt>
      <trkpt lat="41.86279" lon="-1.71097">
        <ele>631.777492</ele>
        <time>2022-02-22T09:23:46.370Z</time>
      </trkpt>
      <trkpt lat="41.86276" lon="-1.71066">
        <ele>633.630914</ele>
        <time>2022-02-22T09:24:02.286Z</time>
      </trkpt>
      <trkpt lat="41.86269" lon="-1.71053">
        <ele>634.648402</ele>
        <time>2022-02-22T09:24:13.804Z</time>
      </trkpt>
      <trkpt lat="41.86252" lon="-1.71047">
        <ele>636.014377</ele>
        <time>2022-02-22T09:24:24.639Z</time>
      </trkpt>
      <trkpt lat="41.86198" lon="-1.71053">
        <ele>640.387769</ele>
        <time>2022-02-22T09:25:09.780Z</time>
      </trkpt>
      <trkpt lat="41.86178" lon="-1.71041">
        <ele>642.123578</ele>
        <time>2022-02-22T09:25:26.454Z</time>
      </trkpt>
      <trkpt lat="41.8615" lon="-1.70995">
        <ele>645.465268</ele>
        <time>2022-02-22T09:26:01.365Z</time>
      </trkpt>
      <trkpt lat="41.86152" lon="-1.70952">
        <ele>647.869729</ele>
        <time>2022-02-22T09:26:23.484Z</time>
      </trkpt>
      <trkpt lat="41.86148" lon="-1.70937">
        <ele>648.763574</ele>
        <time>2022-02-22T09:26:31.639Z</time>
      </trkpt>
      <trkpt lat="41.86099" lon="-1.70891">
        <ele>653.235244</ele>
        <time>2022-02-22T09:27:13.909Z</time>
      </trkpt>
      <trkpt lat="41.8607" lon="-1.70881">
        <ele>655.542423</ele>
        <time>2022-02-22T09:27:36.840Z</time>
      </trkpt>
      <trkpt lat="41.86023" lon="-1.70891">
        <ele>659.885114</ele>
        <time>2022-02-22T09:28:15.040Z</time>
      </trkpt>
      <trkpt lat="41.85983" lon="-1.70872">
        <ele>663.838191</ele>
        <time>2022-02-22T09:28:52.412Z</time>
      </trkpt>
      <trkpt lat="41.85918" lon="-1.70781">
        <ele>672.28798</ele>
        <time>2022-02-22T09:30:14.251Z</time>
      </trkpt>
      <trkpt lat="41.85851" lon="-1.70718">
        <ele>678.233093</ele>
        <time>2022-02-22T09:31:16.266Z</time>
      </trkpt>
      <trkpt lat="41.85814" lon="-1.70667">
        <ele>682.155701</ele>
        <time>2022-02-22T09:31:53.705Z</time>
      </trkpt>
      <trkpt lat="41.85808" lon="-1.70638">
        <ele>683.790634</ele>
        <time>2022-02-22T09:32:08.638Z</time>
      </trkpt>
      <trkpt lat="41.85818" lon="-1.70585">
        <ele>686.526341</ele>
        <time>2022-02-22T09:32:34.975Z</time>
      </trkpt>
      <trkpt lat="41.85812" lon="-1.70568">
        <ele>687.448156</ele>
        <time>2022-02-22T09:32:44.232Z</time>
      </trkpt>
      <trkpt lat="41.85705" lon="-1.70513">
        <ele>694.740871</ele>
        <time>2022-02-22T09:34:01.059Z</time>
      </trkpt>
      <trkpt lat="41.8562" lon="-1.70441">
        <ele>701.75763</ele>
        <time>2022-02-22T09:35:19.470Z</time>
      </trkpt>
      <trkpt lat="41.85564" lon="-1.70367">
        <ele>707.332295</ele>
        <time>2022-02-22T09:36:18.527Z</time>
      </trkpt>
      <trkpt lat="41.85514" lon="-1.70311">
        <ele>710.287983</ele>
        <time>2022-02-22T09:37:00.901Z</time>
      </trkpt>
      <trkpt lat="41.85492" lon="-1.7023">
        <ele>712.048241</ele>
        <time>2022-02-22T09:37:33.592Z</time>
      </trkpt>
      <trkpt lat="41.8548" lon="-1.70213">
        <ele>712.518499</ele>
        <time>2022-02-22T09:37:42.274Z</time>
      </trkpt>
      <trkpt lat="41.85435" lon="-1.7013">
        <ele>714.096183</ele>
        <time>2022-02-22T09:38:11.919Z</time>
      </trkpt>
      <trkpt lat="41.85405" lon="-1.70107">
        <ele>713.97317</ele>
        <time>2022-02-22T09:38:24.658Z</time>
      </trkpt>
      <trkpt lat="41.85365" lon="-1.70064">
        <ele>713.790355</ele>
        <time>2022-02-22T09:38:43.164Z</time>
      </trkpt>
      <trkpt lat="41.85309" lon="-1.70028">
        <ele>713.5724</ele>
        <time>2022-02-22T09:39:04.712Z</time>
      </trkpt>
      <trkpt lat="41.85081" lon="-1.69991">
        <ele>711.372269</ele>
        <time>2022-02-22T09:40:27.543Z</time>
      </trkpt>
      <trkpt lat="41.84952" lon="-1.69992">
        <ele>706.97842</ele>
        <time>2022-02-22T09:41:06.991Z</time>
      </trkpt>
      <trkpt lat="41.84901" lon="-1.70021">
        <ele>702.196245</ele>
        <time>2022-02-22T09:41:22.045Z</time>
      </trkpt>
      <trkpt lat="41.84809" lon="-1.70039">
        <ele>692.212971</ele>
        <time>2022-02-22T09:41:45.502Z</time>
      </trkpt>
      <trkpt lat="41.84704" lon="-1.70048">
        <ele>680.391786</ele>
        <time>2022-02-22T09:42:11.269Z</time>
      </trkpt>
      <trkpt lat="41.84691" lon="-1.7005">
        <ele>678.815678</ele>
        <time>2022-02-22T09:42:14.478Z</time>
      </trkpt>
      <trkpt lat="41.84581" lon="-1.70019">
        <ele>665.725029</ele>
        <time>2022-02-22T09:42:42.872Z</time>
      </trkpt>
      <trkpt lat="41.845" lon="-1.70006">
        <ele>660.084998</ele>
        <time>2022-02-22T09:43:04.985Z</time>
      </trkpt>
      <trkpt lat="41.84369" lon="-1.70001">
        <ele>651.843033</ele>
        <time>2022-02-22T09:43:41.995Z</time>
      </trkpt>
      <trkpt lat="41.8433" lon="-1.69969">
        <ele>649.703595</ele>
        <time>2022-02-22T09:43:55.388Z</time>
      </trkpt>
      <trkpt lat="41.84217" lon="-1.69854">
        <ele>642.990096</ele>
        <time>2022-02-22T09:44:37.239Z</time>
      </trkpt>
      <trkpt lat="41.84165" lon="-1.69833">
        <ele>640.354125</ele>
        <time>2022-02-22T09:44:52.976Z</time>
      </trkpt>
      <trkpt lat="41.84131" lon="-1.69812">
        <ele>638.50417</ele>
        <time>2022-02-22T09:45:03.837Z</time>
      </trkpt>
      <trkpt lat="41.841" lon="-1.69773">
        <ele>636.453381</ele>
        <time>2022-02-22T09:45:15.748Z</time>
      </trkpt>
      <trkpt lat="41.84074" lon="-1.69717">
        <ele>634.149893</ele>
        <time>2022-02-22T09:45:29.718Z</time>
      </trkpt>
      <trkpt lat="41.84047" lon="-1.69689">
        <ele>632.572964</ele>
        <time>2022-02-22T09:45:39.373Z</time>
      </trkpt>
      <trkpt lat="41.83972" lon="-1.69662">
        <ele>628.972114</ele>
        <time>2022-02-22T09:46:02.041Z</time>
      </trkpt>
      <trkpt lat="41.83915" lon="-1.69633">
        <ele>627.253918</ele>
        <time>2022-02-22T09:46:20.821Z</time>
      </trkpt>
      <trkpt lat="41.83859" lon="-1.69615">
        <ele>626.171197</ele>
        <time>2022-02-22T09:46:39.514Z</time>
      </trkpt>
      <trkpt lat="41.83845" lon="-1.69604">
        <ele>625.858795</ele>
        <time>2022-02-22T09:46:45.060Z</time>
      </trkpt>
      <trkpt lat="41.83805" lon="-1.69554">
        <ele>624.833398</ele>
        <time>2022-02-22T09:47:03.862Z</time>
      </trkpt>
      <trkpt lat="41.83733" lon="-1.6952">
        <ele>624.420989</ele>
        <time>2022-02-22T09:47:31.083Z</time>
      </trkpt>
      <trkpt lat="41.8368" lon="-1.6948">
        <ele>624.233344</ele>
        <time>2022-02-22T09:47:53.343Z</time>
      </trkpt>
      <trkpt lat="41.83615" lon="-1.69474">
        <ele>624.037668</ele>
        <time>2022-02-22T09:48:17.258Z</time>
      </trkpt>
      <trkpt lat="41.8353" lon="-1.69451">
        <ele>623.813254</ele>
        <time>2022-02-22T09:48:48.904Z</time>
      </trkpt>
      <trkpt lat="41.83501" lon="-1.69438">
        <ele>623.734162</ele>
        <time>2022-02-22T09:48:59.987Z</time>
      </trkpt>
      <trkpt lat="41.83484" lon="-1.6942">
        <ele>623.677743</ele>
        <time>2022-02-22T09:49:07.837Z</time>
      </trkpt>
      <trkpt lat="41.83389" lon="-1.69277">
        <ele>623.387681</ele>
        <time>2022-02-22T09:49:59.315Z</time>
      </trkpt>
      <trkpt lat="41.83361" lon="-1.69244">
        <ele>623.31785</ele>
        <time>2022-02-22T09:50:12.850Z</time>
      </trkpt>
      <trkpt lat="41.83277" lon="-1.69251">
        <ele>623.307777</ele>
        <time>2022-02-22T09:50:44.820Z</time>
      </trkpt>
      <trkpt lat="41.83221" lon="-1.69244">
        <ele>623.35629</ele>
        <time>2022-02-22T09:51:06.818Z</time>
      </trkpt>
      <trkpt lat="41.83142" lon="-1.6922">
        <ele>623.324084</ele>
        <time>2022-02-22T09:51:36.700Z</time>
      </trkpt>
      <trkpt lat="41.83113" lon="-1.69202">
        <ele>623.065294</ele>
        <time>2022-02-22T09:51:48.039Z</time>
      </trkpt>
      <trkpt lat="41.83068" lon="-1.69161">
        <ele>622.621235</ele>
        <time>2022-02-22T09:52:07.274Z</time>
      </trkpt>
      <trkpt lat="41.83044" lon="-1.69109">
        <ele>622.254012</ele>
        <time>2022-02-22T09:52:22.683Z</time>
      </trkpt>
      <trkpt lat="41.83029" lon="-1.69024">
        <ele>621.524205</ele>
        <time>2022-02-22T09:52:44.820Z</time>
      </trkpt>
      <trkpt lat="41.82938" lon="-1.68793">
        <ele>618.625177</ele>
        <time>2022-02-22T09:53:49.518Z</time>
      </trkpt>
      <trkpt lat="41.82853" lon="-1.6866">
        <ele>616.696754</ele>
        <time>2022-02-22T09:54:32.998Z</time>
      </trkpt>
      <trkpt lat="41.82834" lon="-1.6864">
        <ele>616.601971</ele>
        <time>2022-02-22T09:54:41.259Z</time>
      </trkpt>
      <trkpt lat="41.82801" lon="-1.68622">
        <ele>616.610757</ele>
        <time>2022-02-22T09:54:53.874Z</time>
      </trkpt>
      <trkpt lat="41.82773" lon="-1.68597">
        <ele>616.619005</ele>
        <time>2022-02-22T09:55:06.079Z</time>
      </trkpt>
      <trkpt lat="41.82738" lon="-1.68574">
        <ele>616.628646</ele>
        <time>2022-02-22T09:55:20.535Z</time>
      </trkpt>
      <trkpt lat="41.82646" lon="-1.68537">
        <ele>617.69234</ele>
        <time>2022-02-22T09:56:01.350Z</time>
      </trkpt>
      <trkpt lat="41.8264" lon="-1.68537">
        <ele>617.848444</ele>
        <time>2022-02-22T09:56:03.629Z</time>
      </trkpt>
      <trkpt lat="41.82627" lon="-1.68527">
        <ele>618.220884</ele>
        <time>2022-02-22T09:56:08.821Z</time>
      </trkpt>
      <trkpt lat="41.82602" lon="-1.68534">
        <ele>618.865358</ele>
        <time>2022-02-22T09:56:18.206Z</time>
      </trkpt>
      <trkpt lat="41.82554" lon="-1.6858">
        <ele>620.345538</ele>
        <time>2022-02-22T09:56:41.051Z</time>
      </trkpt>
      <trkpt lat="41.82502" lon="-1.68647">
        <ele>622.174326</ele>
        <time>2022-02-22T09:57:08.973Z</time>
      </trkpt>
      <trkpt lat="41.8249" lon="-1.68661">
        <ele>622.556003</ele>
        <time>2022-02-22T09:57:14.559Z</time>
      </trkpt>
      <trkpt lat="41.82467" lon="-1.68686">
        <ele>623.317113</ele>
        <time>2022-02-22T09:57:25.213Z</time>
      </trkpt>
      <trkpt lat="41.82449" lon="-1.68717">
        <ele>624.074601</ele>
        <time>2022-02-22T09:57:35.721Z</time>
      </trkpt>
      <trkpt lat="41.82438" lon="-1.68738">
        <ele>624.547827</ele>
        <time>2022-02-22T09:57:42.380Z</time>
      </trkpt>
      <trkpt lat="41.8243" lon="-1.68745">
        <ele>624.780605</ele>
        <time>2022-02-22T09:57:45.354Z</time>
      </trkpt>
      <trkpt lat="41.82385" lon="-1.68767">
        <ele>625.816538</ele>
        <time>2022-02-22T09:58:00.285Z</time>
      </trkpt>
      <trkpt lat="41.82356" lon="-1.68785">
        <ele>626.122943</ele>
        <time>2022-02-22T09:58:09.704Z</time>
      </trkpt>
      <trkpt lat="41.82322" lon="-1.68827">
        <ele>626.55522</ele>
        <time>2022-02-22T09:58:22.141Z</time>
      </trkpt>
      <trkpt lat="41.82308" lon="-1.68837">
        <ele>626.704053</ele>
        <time>2022-02-22T09:58:26.130Z</time>
      </trkpt>
      <trkpt lat="41.82296" lon="-1.68845">
        <ele>626.833825</ele>
        <time>2022-02-22T09:58:29.217Z</time>
      </trkpt>
      <trkpt lat="41.82223" lon="-1.68893">
        <ele>627.630219</ele>
        <time>2022-02-22T09:58:49.493Z</time>
      </trkpt>
      <trkpt lat="41.82186" lon="-1.6892">
        <ele>628.094853</ele>
        <time>2022-02-22T09:59:00.310Z</time>
      </trkpt>
      <trkpt lat="41.82161" lon="-1.68946">
        <ele>628.445329</ele>
        <time>2022-02-22T09:59:08.976Z</time>
      </trkpt>
      <trkpt lat="41.82076" lon="-1.69051">
        <ele>630.065629</ele>
        <time>2022-02-22T09:59:42.937Z</time>
      </trkpt>
      <trkpt lat="41.82023" lon="-1.69119">
        <ele>631.741251</ele>
        <time>2022-02-22T10:00:06.252Z</time>
      </trkpt>
      <trkpt lat="41.81989" lon="-1.69154">
        <ele>632.704183</ele>
        <time>2022-02-22T10:00:21.607Z</time>
      </trkpt>
      <trkpt lat="41.81934" lon="-1.692">
        <ele>634.506615</ele>
        <time>2022-02-22T10:00:46.555Z</time>
      </trkpt>
      <trkpt lat="41.8189" lon="-1.69227">
        <ele>636.141889</ele>
        <time>2022-02-22T10:01:05.634Z</time>
      </trkpt>
      <trkpt lat="41.81831" lon="-1.69259">
        <ele>638.323691</ele>
        <time>2022-02-22T10:01:31.197Z</time>
      </trkpt>
      <trkpt lat="41.81323" lon="-1.69538">
        <ele>655.552864</ele>
        <time>2022-02-22T10:05:02.227Z</time>
      </trkpt>
      <trkpt lat="41.81304" lon="-1.69549">
        <ele>656.154966</ele>
        <time>2022-02-22T10:05:08.680Z</time>
      </trkpt>
      <trkpt lat="41.81285" lon="-1.69559">
        <ele>656.508733</ele>
        <time>2022-02-22T10:05:14.577Z</time>
      </trkpt>
      <trkpt lat="41.81192" lon="-1.69608">
        <ele>657.795569</ele>
        <time>2022-02-22T10:05:41.835Z</time>
      </trkpt>
      <trkpt lat="41.81146" lon="-1.69608">
        <ele>658.380254</ele>
        <time>2022-02-22T10:05:54.070Z</time>
      </trkpt>
      <trkpt lat="41.81103" lon="-1.696">
        <ele>659.279698</ele>
        <time>2022-02-22T10:06:05.786Z</time>
      </trkpt>
      <trkpt lat="41.80454" lon="-1.69448">
        <ele>678.009237</ele>
        <time>2022-02-22T10:10:08.454Z</time>
      </trkpt>
      <trkpt lat="41.8043" lon="-1.69434">
        <ele>678.813325</ele>
        <time>2022-02-22T10:10:18.679Z</time>
      </trkpt>
      <trkpt lat="41.80403" lon="-1.69397">
        <ele>680.081296</ele>
        <time>2022-02-22T10:10:33.792Z</time>
      </trkpt>
      <trkpt lat="41.80388" lon="-1.6938">
        <ele>680.757383</ele>
        <time>2022-02-22T10:10:42.061Z</time>
      </trkpt>
      <trkpt lat="41.80362" lon="-1.69373">
        <ele>681.66909</ele>
        <time>2022-02-22T10:10:52.396Z</time>
      </trkpt>
      <trkpt lat="41.80185" lon="-1.69407">
        <ele>687.728635</ele>
        <time>2022-02-22T10:12:02.583Z</time>
      </trkpt>
      <trkpt lat="41.80138" lon="-1.69422">
        <ele>689.348473</ele>
        <time>2022-02-22T10:12:21.438Z</time>
      </trkpt>
      <trkpt lat="41.80098" lon="-1.69442">
        <ele>690.731278</ele>
        <time>2022-02-22T10:12:37.655Z</time>
      </trkpt>
      <trkpt lat="41.79732" lon="-1.69654">
        <ele>702.23687</ele>
        <time>2022-02-22T10:15:08.399Z</time>
      </trkpt>
      <trkpt lat="41.79339" lon="-1.69824">
        <ele>703.767622</ele>
        <time>2022-02-22T10:16:39.856Z</time>
      </trkpt>
      <trkpt lat="41.79314" lon="-1.69844">
        <ele>704.051827</ele>
        <time>2022-02-22T10:16:48.213Z</time>
      </trkpt>
      <trkpt lat="41.79301" lon="-1.69884">
        <ele>704.360229</ele>
        <time>2022-02-22T10:16:57.841Z</time>
      </trkpt>
      <trkpt lat="41.79291" lon="-1.69904">
        <ele>704.535361</ele>
        <time>2022-02-22T10:17:04.005Z</time>
      </trkpt>
      <trkpt lat="41.79279" lon="-1.69912">
        <ele>704.657969</ele>
        <time>2022-02-22T10:17:07.750Z</time>
      </trkpt>
      <trkpt lat="41.79092" lon="-1.69963">
        <ele>707.773391</ele>
        <time>2022-02-22T10:18:09.186Z</time>
      </trkpt>
      <trkpt lat="41.79069" lon="-1.6999">
        <ele>707.711721</ele>
        <time>2022-02-22T10:18:15.783Z</time>
      </trkpt>
      <trkpt lat="41.79063" lon="-1.70001">
        <ele>707.689607</ele>
        <time>2022-02-22T10:18:18.058Z</time>
      </trkpt>
      <trkpt lat="41.79053" lon="-1.70003">
        <ele>707.66747</ele>
        <time>2022-02-22T10:18:20.297Z</time>
      </trkpt>
      <trkpt lat="41.79043" lon="-1.69986">
        <ele>707.630879</ele>
        <time>2022-02-22T10:18:23.557Z</time>
      </trkpt>
      <trkpt lat="41.79043" lon="-1.69985">
        <ele>707.629889</ele>
        <time>2022-02-22T10:18:23.637Z</time>
      </trkpt>
      <trkpt lat="41.7903" lon="-1.69972">
        <ele>707.594469</ele>
        <time>2022-02-22T10:18:27.078Z</time>
      </trkpt>
      <trkpt lat="41.79017" lon="-1.69968">
        <ele>707.565736</ele>
        <time>2022-02-22T10:18:29.648Z</time>
      </trkpt>
      <trkpt lat="41.78993" lon="-1.69973">
        <ele>707.510273</ele>
        <time>2022-02-22T10:18:34.801Z</time>
      </trkpt>
      <trkpt lat="41.78956" lon="-1.69989">
        <ele>707.425277</ele>
        <time>2022-02-22T10:18:42.361Z</time>
      </trkpt>
      <trkpt lat="41.78927" lon="-1.6999">
        <ele>707.564098</ele>
        <time>2022-02-22T10:18:47.751Z</time>
      </trkpt>
      <trkpt lat="41.78917" lon="-1.69984">
        <ele>707.805235</ele>
        <time>2022-02-22T10:18:49.791Z</time>
      </trkpt>
      <trkpt lat="41.78869" lon="-1.69812">
        <ele>710.753098</ele>
        <time>2022-02-22T10:19:37.026Z</time>
      </trkpt>
      <trkpt lat="41.78864" lon="-1.6976">
        <ele>712.005919</ele>
        <time>2022-02-22T10:19:54.444Z</time>
      </trkpt>
      <trkpt lat="41.78864" lon="-1.69733">
        <ele>712.947688</ele>
        <time>2022-02-22T10:20:04.484Z</time>
      </trkpt>
      <trkpt lat="41.78867" lon="-1.69696">
        <ele>714.27325</ele>
        <time>2022-02-22T10:20:17.171Z</time>
      </trkpt>
      <trkpt lat="41.78866" lon="-1.69683">
        <ele>714.727584</ele>
        <time>2022-02-22T10:20:21.824Z</time>
      </trkpt>
      <trkpt lat="41.78868" lon="-1.69643">
        <ele>716.148395</ele>
        <time>2022-02-22T10:20:36.284Z</time>
      </trkpt>
      <trkpt lat="41.78869" lon="-1.69578">
        <ele>718.420993</ele>
        <time>2022-02-22T10:20:59.263Z</time>
      </trkpt>
      <trkpt lat="41.7886" lon="-1.69542">
        <ele>719.742777</ele>
        <time>2022-02-22T10:21:13.418Z</time>
      </trkpt>
      <trkpt lat="41.78849" lon="-1.69522">
        <ele>720.634925</ele>
        <time>2022-02-22T10:21:21.321Z</time>
      </trkpt>
      <trkpt lat="41.78822" lon="-1.69496">
        <ele>722.230387</ele>
        <time>2022-02-22T10:21:35.239Z</time>
      </trkpt>
      <trkpt lat="41.78751" lon="-1.69462">
        <ele>725.868663</ele>
        <time>2022-02-22T10:22:05.028Z</time>
      </trkpt>
      <trkpt lat="41.78744" lon="-1.69457">
        <ele>726.216389</ele>
        <time>2022-02-22T10:22:08.484Z</time>
      </trkpt>
      <trkpt lat="41.78706" lon="-1.69413">
        <ele>728.831643</ele>
        <time>2022-02-22T10:22:35.149Z</time>
      </trkpt>
      <trkpt lat="41.78689" lon="-1.69507">
        <ele>734.679217</ele>
        <time>2022-02-22T10:23:21.634Z</time>
      </trkpt>
      <trkpt lat="41.78692" lon="-1.69519">
        <ele>735.441963</ele>
        <time>2022-02-22T10:23:27.951Z</time>
      </trkpt>
      <trkpt lat="41.7873" lon="-1.69545">
        <ele>738.904298</ele>
        <time>2022-02-22T10:23:57.118Z</time>
      </trkpt>
      <trkpt lat="41.78693" lon="-1.69561">
        <ele>742.073328</ele>
        <time>2022-02-22T10:24:23.364Z</time>
      </trkpt>
      <trkpt lat="41.78629" lon="-1.69611">
        <ele>747.467748</ele>
        <time>2022-02-22T10:25:10.590Z</time>
      </trkpt>
      <trkpt lat="41.78628" lon="-1.69604">
        <ele>747.849313</ele>
        <time>2022-02-22T10:25:13.557Z</time>
      </trkpt>
      <trkpt lat="41.78583" lon="-1.69667">
        <ele>752.488548</ele>
        <time>2022-02-22T10:25:52.645Z</time>
      </trkpt>
      <trkpt lat="41.78565" lon="-1.69692">
        <ele>754.385212</ele>
        <time>2022-02-22T10:26:06.332Z</time>
      </trkpt>
      <trkpt lat="41.785" lon="-1.69755">
        <ele>759.418511</ele>
        <time>2022-02-22T10:26:45.780Z</time>
      </trkpt>
      <trkpt lat="41.78487" lon="-1.69766">
        <ele>760.381213</ele>
        <time>2022-02-22T10:26:53.719Z</time>
      </trkpt>
      <trkpt lat="41.78472" lon="-1.69778">
        <ele>761.400964</ele>
        <time>2022-02-22T10:27:02.491Z</time>
      </trkpt>
      <trkpt lat="41.78366" lon="-1.69866">
        <ele>769.425707</ele>
        <time>2022-02-22T10:28:12.294Z</time>
      </trkpt>
      <trkpt lat="41.78345" lon="-1.69891">
        <ele>771.467611</ele>
        <time>2022-02-22T10:28:28.793Z</time>
      </trkpt>
      <trkpt lat="41.7833" lon="-1.69922">
        <ele>773.454387</ele>
        <time>2022-02-22T10:28:45.821Z</time>
      </trkpt>
      <trkpt lat="41.78269" lon="-1.69981">
        <ele>778.92057</ele>
        <time>2022-02-22T10:29:32.135Z</time>
      </trkpt>
      <trkpt lat="41.7825" lon="-1.69992">
        <ele>780.315992</ele>
        <time>2022-02-22T10:29:45.555Z</time>
      </trkpt>
      <trkpt lat="41.78242" lon="-1.69992">
        <ele>780.757863</ele>
        <time>2022-02-22T10:29:50.351Z</time>
      </trkpt>
      <trkpt lat="41.78208" lon="-1.69984">
        <ele>782.695199</ele>
        <time>2022-02-22T10:30:10.474Z</time>
      </trkpt>
      <trkpt lat="41.78126" lon="-1.69949">
        <ele>787.594585</ele>
        <time>2022-02-22T10:30:54.756Z</time>
      </trkpt>
      <trkpt lat="41.77987" lon="-1.69967">
        <ele>791.820265</ele>
        <time>2022-02-22T10:31:52.397Z</time>
      </trkpt>
      <trkpt lat="41.77714" lon="-1.69932">
        <ele>792.055381</ele>
        <time>2022-02-22T10:32:53.950Z</time>
      </trkpt>
      <trkpt lat="41.77664" lon="-1.69917">
        <ele>790.810128</ele>
        <time>2022-02-22T10:33:02.799Z</time>
      </trkpt>
      <trkpt lat="41.77564" lon="-1.69869">
        <ele>788.192364</ele>
        <time>2022-02-22T10:33:21.752Z</time>
      </trkpt>
      <trkpt lat="41.77543" lon="-1.69864">
        <ele>788.048974</ele>
        <time>2022-02-22T10:33:25.721Z</time>
      </trkpt>
      <trkpt lat="41.77382" lon="-1.6999">
        <ele>790.724384</ele>
        <time>2022-02-22T10:34:21.972Z</time>
      </trkpt>
      <trkpt lat="41.77364" lon="-1.69993">
        <ele>791.776339</ele>
        <time>2022-02-22T10:34:31.283Z</time>
      </trkpt>
      <trkpt lat="41.7733" lon="-1.69979">
        <ele>793.767153</ele>
        <time>2022-02-22T10:34:49.533Z</time>
      </trkpt>
      <trkpt lat="41.77298" lon="-1.69955">
        <ele>795.815766</ele>
        <time>2022-02-22T10:35:09.850Z</time>
      </trkpt>
      <trkpt lat="41.77247" lon="-1.69939">
        <ele>798.736509</ele>
        <time>2022-02-22T10:35:39.853Z</time>
      </trkpt>
      <trkpt lat="41.77163" lon="-1.69887">
        <ele>804.484195</ele>
        <time>2022-02-22T10:36:34.532Z</time>
      </trkpt>
      <trkpt lat="41.77092" lon="-1.69875">
        <ele>809.087754</ele>
        <time>2022-02-22T10:37:13.397Z</time>
      </trkpt>
      <trkpt lat="41.7707" lon="-1.69866">
        <ele>810.531239</ele>
        <time>2022-02-22T10:37:24.381Z</time>
      </trkpt>
      <trkpt lat="41.77006" lon="-1.698">
        <ele>815.273221</ele>
        <time>2022-02-22T10:38:06.286Z</time>
      </trkpt>
      <trkpt lat="41.76946" lon="-1.69781">
        <ele>818.857223</ele>
        <time>2022-02-22T10:38:38.985Z</time>
      </trkpt>
      <trkpt lat="41.76911" lon="-1.69776">
        <ele>820.870217</ele>
        <time>2022-02-22T10:38:57.152Z</time>
      </trkpt>
      <trkpt lat="41.76832" lon="-1.69777">
        <ele>824.846817</ele>
        <time>2022-02-22T10:39:37.793Z</time>
      </trkpt>
      <trkpt lat="41.76745" lon="-1.69794">
        <ele>829.110139</ele>
        <time>2022-02-22T10:40:21.200Z</time>
      </trkpt>
      <trkpt lat="41.76601" lon="-1.69889">
        <ele>834.235682</ele>
        <time>2022-02-22T10:41:19.949Z</time>
      </trkpt>
      <trkpt lat="41.76504" lon="-1.69923">
        <ele>837.349561</ele>
        <time>2022-02-22T10:41:56.025Z</time>
      </trkpt>
      <trkpt lat="41.76391" lon="-1.69979">
        <ele>841.452495</ele>
        <time>2022-02-22T10:42:46.250Z</time>
      </trkpt>
      <trkpt lat="41.76322" lon="-1.70025">
        <ele>844.603829</ele>
        <time>2022-02-22T10:43:20.070Z</time>
      </trkpt>
      <trkpt lat="41.76292" lon="-1.70056">
        <ele>846.200272</ele>
        <time>2022-02-22T10:43:37.229Z</time>
      </trkpt>
      <trkpt lat="41.7622" lon="-1.70095">
        <ele>849.396025</ele>
        <time>2022-02-22T10:44:12.306Z</time>
      </trkpt>
      <trkpt lat="41.7606" lon="-1.70212">
        <ele>856.128675</ele>
        <time>2022-02-22T10:45:27.073Z</time>
      </trkpt>
      <trkpt lat="41.75972" lon="-1.70251">
        <ele>859.996446</ele>
        <time>2022-02-22T10:46:04.516Z</time>
      </trkpt>
      <trkpt lat="41.75928" lon="-1.70298">
        <ele>862.344522</ele>
        <time>2022-02-22T10:46:29.076Z</time>
      </trkpt>
      <trkpt lat="41.75732" lon="-1.70531">
        <ele>877.580193</ele>
        <time>2022-02-22T10:48:51.941Z</time>
      </trkpt>
      <trkpt lat="41.75708" lon="-1.70551">
        <ele>879.156645</ele>
        <time>2022-02-22T10:49:06.940Z</time>
      </trkpt>
      <trkpt lat="41.75622" lon="-1.706">
        <ele>884.329995</ele>
        <time>2022-02-22T10:49:54.009Z</time>
      </trkpt>
      <trkpt lat="41.75504" lon="-1.70595">
        <ele>887.799506</ele>
        <time>2022-02-22T10:50:41.989Z</time>
      </trkpt>
      <trkpt lat="41.75437" lon="-1.7055">
        <ele>889.41546</ele>
        <time>2022-02-22T10:51:06.907Z</time>
      </trkpt>
      <trkpt lat="41.75308" lon="-1.70409">
        <ele>887.525252</ele>
        <time>2022-02-22T10:51:41.173Z</time>
      </trkpt>
      <trkpt lat="41.75261" lon="-1.70318">
        <ele>882.362779</ele>
        <time>2022-02-22T10:51:54.758Z</time>
      </trkpt>
      <trkpt lat="41.75231" lon="-1.70242">
        <ele>878.334832</ele>
        <time>2022-02-22T10:52:04.749Z</time>
      </trkpt>
      <trkpt lat="41.75221" lon="-1.70197">
        <ele>876.039559</ele>
        <time>2022-02-22T10:52:10.124Z</time>
      </trkpt>
      <trkpt lat="41.75212" lon="-1.70028">
        <ele>865.82345</ele>
        <time>2022-02-22T10:52:29.134Z</time>
      </trkpt>
      <trkpt lat="41.75211" lon="-1.69941">
        <ele>861.479051</ele>
        <time>2022-02-22T10:52:39.373Z</time>
      </trkpt>
      <trkpt lat="41.75199" lon="-1.69854">
        <ele>860.199174</ele>
        <time>2022-02-22T10:52:50.732Z</time>
      </trkpt>
      <trkpt lat="41.75193" lon="-1.69723">
        <ele>858.315114</ele>
        <time>2022-02-22T10:53:13.888Z</time>
      </trkpt>
      <trkpt lat="41.75183" lon="-1.69667">
        <ele>860.219978</ele>
        <time>2022-02-22T10:53:30.280Z</time>
      </trkpt>
      <trkpt lat="41.75163" lon="-1.69592">
        <ele>862.983519</ele>
        <time>2022-02-22T10:53:59.164Z</time>
      </trkpt>
      <trkpt lat="41.75099" lon="-1.69534">
        <ele>866.511825</ele>
        <time>2022-02-22T10:54:40.209Z</time>
      </trkpt>
      <trkpt lat="41.75081" lon="-1.69499">
        <ele>868.376362</ele>
        <time>2022-02-22T10:54:57.949Z</time>
      </trkpt>
      <trkpt lat="41.75077" lon="-1.69481">
        <ele>869.216311</ele>
        <time>2022-02-22T10:55:05.630Z</time>
      </trkpt>
      <trkpt lat="41.75081" lon="-1.69419">
        <ele>871.957061</ele>
        <time>2022-02-22T10:55:30.053Z</time>
      </trkpt>
      <trkpt lat="41.75077" lon="-1.69344">
        <ele>875.291065</ele>
        <time>2022-02-22T10:55:58.525Z</time>
      </trkpt>
      <trkpt lat="41.75063" lon="-1.69308">
        <ele>877.107969</ele>
        <time>2022-02-22T10:56:14.328Z</time>
      </trkpt>
      <trkpt lat="41.75016" lon="-1.69264">
        <ele>881.574033</ele>
        <time>2022-02-22T10:56:45.670Z</time>
      </trkpt>
      <trkpt lat="41.74965" lon="-1.69205">
        <ele>886.863712</ele>
        <time>2022-02-22T10:57:26.340Z</time>
      </trkpt>
      <trkpt lat="41.74829" lon="-1.69175">
        <ele>900.289438</ele>
        <time>2022-02-22T10:59:06.422Z</time>
      </trkpt>
      <trkpt lat="41.74727" lon="-1.69126">
        <ele>912.508825</ele>
        <time>2022-02-22T11:00:38.693Z</time>
      </trkpt>
      <trkpt lat="41.74674" lon="-1.69093">
        <ele>919.443708</ele>
        <time>2022-02-22T11:01:27.384Z</time>
      </trkpt>
      <trkpt lat="41.7458" lon="-1.68991">
        <ele>934.054929</ele>
        <time>2022-02-22T11:03:07.141Z</time>
      </trkpt>
      <trkpt lat="41.74476" lon="-1.68949">
        <ele>948.170321</ele>
        <time>2022-02-22T11:04:37.485Z</time>
      </trkpt>
      <trkpt lat="41.74299" lon="-1.6883">
        <ele>975.543247</ele>
        <time>2022-02-22T11:07:51.767Z</time>
      </trkpt>
      <trkpt lat="41.74276" lon="-1.68811">
        <ele>979.418589</ele>
        <time>2022-02-22T11:08:17.627Z</time>
      </trkpt>
      <trkpt lat="41.74237" lon="-1.68763">
        <ele>985.195736</ele>
        <time>2022-02-22T11:09:00.902Z</time>
      </trkpt>
      <trkpt lat="41.74184" lon="-1.68681">
        <ele>992.646858</ele>
        <time>2022-02-22T11:10:01.295Z</time>
      </trkpt>
      <trkpt lat="41.74172" lon="-1.68677">
        <ele>993.748885</ele>
        <time>2022-02-22T11:10:09.742Z</time>
      </trkpt>
      <trkpt lat="41.74115" lon="-1.68697">
        <ele>998.806157</ele>
        <time>2022-02-22T11:10:39.996Z</time>
      </trkpt>
      <trkpt lat="41.74056" lon="-1.68679">
        <ele>1001.091796</ele>
        <time>2022-02-22T11:11:06.694Z</time>
      </trkpt>
      <trkpt lat="41.74016" lon="-1.68644">
        <ele>1002.902723</ele>
        <time>2022-02-22T11:11:26.032Z</time>
      </trkpt>
      <trkpt lat="41.73968" lon="-1.68571">
        <ele>1005.176675</ele>
        <time>2022-02-22T11:11:55.119Z</time>
      </trkpt>
      <trkpt lat="41.73959" lon="-1.68572">
        <ele>1004.993143</ele>
        <time>2022-02-22T11:11:58.169Z</time>
      </trkpt>
      <trkpt lat="41.73933" lon="-1.68616">
        <ele>1004.099038</ele>
        <time>2022-02-22T11:12:10.755Z</time>
      </trkpt>
      <trkpt lat="41.73907" lon="-1.68643">
        <ele>1003.390546</ele>
        <time>2022-02-22T11:12:17.526Z</time>
      </trkpt>
      <trkpt lat="41.73873" lon="-1.68645">
        <ele>1002.678178</ele>
        <time>2022-02-22T11:12:23.386Z</time>
      </trkpt>
      <trkpt lat="41.73843" lon="-1.6862">
        <ele>1001.91354</ele>
        <time>2022-02-22T11:12:29.283Z</time>
      </trkpt>
      <trkpt lat="41.73796" lon="-1.68603">
        <ele>999.24995</ele>
        <time>2022-02-22T11:12:36.878Z</time>
      </trkpt>
      <trkpt lat="41.73751" lon="-1.6857">
        <ele>995.242699</ele>
        <time>2022-02-22T11:12:44.841Z</time>
      </trkpt>
      <trkpt lat="41.73733" lon="-1.6855">
        <ele>993.466991</ele>
        <time>2022-02-22T11:12:48.303Z</time>
      </trkpt>
      <trkpt lat="41.73638" lon="-1.6839">
        <ele>982.71301</ele>
        <time>2022-02-22T11:13:11.788Z</time>
      </trkpt>
      <trkpt lat="41.73619" lon="-1.68387">
        <ele>981.476661</ele>
        <time>2022-02-22T11:13:15.114Z</time>
      </trkpt>
      <trkpt lat="41.73607" lon="-1.68398">
        <ele>980.550138</ele>
        <time>2022-02-22T11:13:17.488Z</time>
      </trkpt>
      <trkpt lat="41.73596" lon="-1.6842">
        <ele>979.280674</ele>
        <time>2022-02-22T11:13:20.843Z</time>
      </trkpt>
      <trkpt lat="41.73588" lon="-1.68455">
        <ele>977.567078</ele>
        <time>2022-02-22T11:13:25.214Z</time>
      </trkpt>
      <trkpt lat="41.73582" lon="-1.68463">
        <ele>976.991289</ele>
        <time>2022-02-22T11:13:26.711Z</time>
      </trkpt>
      <trkpt lat="41.73572" lon="-1.68464">
        <ele>976.402164</ele>
        <time>2022-02-22T11:13:28.203Z</time>
      </trkpt>
      <trkpt lat="41.73558" lon="-1.68448">
        <ele>974.830901</ele>
        <time>2022-02-22T11:13:31.299Z</time>
      </trkpt>
      <trkpt lat="41.73529" lon="-1.68393">
        <ele>970.464769</ele>
        <time>2022-02-22T11:13:39.504Z</time>
      </trkpt>
      <trkpt lat="41.73493" lon="-1.68296">
        <ele>963.34189</ele>
        <time>2022-02-22T11:13:51.629Z</time>
      </trkpt>
      <trkpt lat="41.73488" lon="-1.68272">
        <ele>961.733354</ele>
        <time>2022-02-22T11:13:54.299Z</time>
      </trkpt>
      <trkpt lat="41.73489" lon="-1.68183">
        <ele>953.770421</ele>
        <time>2022-02-22T11:14:03.881Z</time>
      </trkpt>
      <trkpt lat="41.73477" lon="-1.68155">
        <ele>950.691076</ele>
        <time>2022-02-22T11:14:07.235Z</time>
      </trkpt>
      <trkpt lat="41.7344" lon="-1.68099">
        <ele>943.424598</ele>
        <time>2022-02-22T11:14:15.281Z</time>
      </trkpt>
      <trkpt lat="41.73406" lon="-1.68016">
        <ele>934.36491</ele>
        <time>2022-02-22T11:14:25.404Z</time>
      </trkpt>
      <trkpt lat="41.73385" lon="-1.6798">
        <ele>930.18276</ele>
        <time>2022-02-22T11:14:30.209Z</time>
      </trkpt>
      <trkpt lat="41.73338" lon="-1.67908">
        <ele>921.275692</ele>
        <time>2022-02-22T11:14:40.704Z</time>
      </trkpt>
      <trkpt lat="41.73272" lon="-1.67821">
        <ele>909.410788</ele>
        <time>2022-02-22T11:14:54.041Z</time>
      </trkpt>
      <trkpt lat="41.73228" lon="-1.67727">
        <ele>898.395113</ele>
        <time>2022-02-22T11:15:05.736Z</time>
      </trkpt>
      <trkpt lat="41.73176" lon="-1.67592">
        <ele>886.094863</ele>
        <time>2022-02-22T11:15:22.056Z</time>
      </trkpt>
      <trkpt lat="41.73163" lon="-1.67575">
        <ele>884.682375</ele>
        <time>2022-02-22T11:15:24.691Z</time>
      </trkpt>
      <trkpt lat="41.73136" lon="-1.67559">
        <ele>882.293779</ele>
        <time>2022-02-22T11:15:29.176Z</time>
      </trkpt>
      <trkpt lat="41.73122" lon="-1.67628">
        <ele>877.98801</ele>
        <time>2022-02-22T11:15:44.530Z</time>
      </trkpt>
      <trkpt lat="41.73123" lon="-1.67713">
        <ele>875.909053</ele>
        <time>2022-02-22T11:16:04.573Z</time>
      </trkpt>
      <trkpt lat="41.73111" lon="-1.67781">
        <ele>875.723091</ele>
        <time>2022-02-22T11:16:15.868Z</time>
      </trkpt>
      <trkpt lat="41.73111" lon="-1.67834">
        <ele>875.582039</ele>
        <time>2022-02-22T11:16:27.226Z</time>
      </trkpt>
      <trkpt lat="41.73099" lon="-1.67858">
        <ele>875.505264</ele>
        <time>2022-02-22T11:16:32.181Z</time>
      </trkpt>
      <trkpt lat="41.73097" lon="-1.67859">
        <ele>875.499065</ele>
        <time>2022-02-22T11:16:32.665Z</time>
      </trkpt>
      <trkpt lat="41.73079" lon="-1.67878">
        <ele>875.41838</ele>
        <time>2022-02-22T11:16:39.320Z</time>
      </trkpt>
      <trkpt lat="41.73075" lon="-1.67879">
        <ele>875.507241</ele>
        <time>2022-02-22T11:16:40.576Z</time>
      </trkpt>
      <trkpt lat="41.73061" lon="-1.67879">
        <ele>876.047824</ele>
        <time>2022-02-22T11:16:46.007Z</time>
      </trkpt>
      <trkpt lat="41.73049" lon="-1.67881">
        <ele>876.542447</ele>
        <time>2022-02-22T11:16:51.482Z</time>
      </trkpt>
      <trkpt lat="41.7304" lon="-1.67896">
        <ele>877.110759</ele>
        <time>2022-02-22T11:16:55.632Z</time>
      </trkpt>
      <trkpt lat="41.73024" lon="-1.67914">
        <ele>877.951851</ele>
        <time>2022-02-22T11:17:05.088Z</time>
      </trkpt>
      <trkpt lat="41.7302" lon="-1.67894">
        <ele>878.576733</ele>
        <time>2022-02-22T11:17:09.827Z</time>
      </trkpt>
      <trkpt lat="41.73004" lon="-1.67856">
        <ele>879.83549</ele>
        <time>2022-02-22T11:17:22.512Z</time>
      </trkpt>
      <trkpt lat="41.73005" lon="-1.67834">
        <ele>880.512111</ele>
        <time>2022-02-22T11:17:30.250Z</time>
      </trkpt>
      <trkpt lat="41.72999" lon="-1.67835">
        <ele>880.767896</ele>
        <time>2022-02-22T11:17:33.733Z</time>
      </trkpt>
      <trkpt lat="41.7299" lon="-1.67835">
        <ele>881.114518</ele>
        <time>2022-02-22T11:17:37.068Z</time>
      </trkpt>
      <trkpt lat="41.72988" lon="-1.67835">
        <ele>881.174214</ele>
        <time>2022-02-22T11:17:37.800Z</time>
      </trkpt>
      <trkpt lat="41.72962" lon="-1.6783">
        <ele>882.243579</ele>
        <time>2022-02-22T11:17:56.728Z</time>
      </trkpt>
      <trkpt lat="41.72954" lon="-1.67814">
        <ele>883.274731</ele>
        <time>2022-02-22T11:18:05.901Z</time>
      </trkpt>
      <trkpt lat="41.72923" lon="-1.67842">
        <ele>887.501769</ele>
        <time>2022-02-22T11:18:35.553Z</time>
      </trkpt>
      <trkpt lat="41.72899" lon="-1.67843">
        <ele>890.308395</ele>
        <time>2022-02-22T11:18:55.816Z</time>
      </trkpt>
      <trkpt lat="41.72891" lon="-1.67833">
        <ele>891.513179</ele>
        <time>2022-02-22T11:19:05.731Z</time>
      </trkpt>
      <trkpt lat="41.72884" lon="-1.67833">
        <ele>892.234298</ele>
        <time>2022-02-22T11:19:12.520Z</time>
      </trkpt>
      <trkpt lat="41.72831" lon="-1.67853">
        <ele>898.49036</ele>
        <time>2022-02-22T11:20:14.431Z</time>
      </trkpt>
      <trkpt lat="41.72791" lon="-1.67827">
        <ele>903.45869</ele>
        <time>2022-02-22T11:21:00.665Z</time>
      </trkpt>
      <trkpt lat="41.72761" lon="-1.6784">
        <ele>906.915805</ele>
        <time>2022-02-22T11:21:31.756Z</time>
      </trkpt>
      <trkpt lat="41.72708" lon="-1.67845">
        <ele>912.772636</ele>
        <time>2022-02-22T11:22:25.397Z</time>
      </trkpt>
      <trkpt lat="41.72715" lon="-1.67828">
        <ele>914.43276</ele>
        <time>2022-02-22T11:22:37.178Z</time>
      </trkpt>
      <trkpt lat="41.72741" lon="-1.67721">
        <ele>923.2937</ele>
        <time>2022-02-22T11:23:48.447Z</time>
      </trkpt>
      <trkpt lat="41.72745" lon="-1.67676">
        <ele>925.725796</ele>
        <time>2022-02-22T11:24:16.469Z</time>
      </trkpt>
      <trkpt lat="41.72741" lon="-1.67604">
        <ele>929.581606</ele>
        <time>2022-02-22T11:24:51.808Z</time>
      </trkpt>
      <trkpt lat="41.7276" lon="-1.67531">
        <ele>933.694627</ele>
        <time>2022-02-22T11:25:28.929Z</time>
      </trkpt>
      <trkpt lat="41.72744" lon="-1.6756">
        <ele>935.670196</ele>
        <time>2022-02-22T11:25:47.784Z</time>
      </trkpt>
      <trkpt lat="41.72732" lon="-1.67582">
        <ele>937.525209</ele>
        <time>2022-02-22T11:26:02.677Z</time>
      </trkpt>
      <trkpt lat="41.72674" lon="-1.67755">
        <ele>950.733516</ele>
        <time>2022-02-22T11:28:10.011Z</time>
      </trkpt>
      <trkpt lat="41.72626" lon="-1.67868">
        <ele>956.162723</ele>
        <time>2022-02-22T11:29:25.409Z</time>
      </trkpt>
      <trkpt lat="41.72617" lon="-1.67873">
        <ele>956.642565</ele>
        <time>2022-02-22T11:29:34.347Z</time>
      </trkpt>
      <trkpt lat="41.72615" lon="-1.67865">
        <ele>956.965226</ele>
        <time>2022-02-22T11:29:37.972Z</time>
      </trkpt>
      <trkpt lat="41.72643" lon="-1.67711">
        <ele>960.432879</ele>
        <time>2022-02-22T11:30:29.272Z</time>
      </trkpt>
      <trkpt lat="41.7265" lon="-1.6765">
        <ele>959.69675</ele>
        <time>2022-02-22T11:30:42.941Z</time>
      </trkpt>
      <trkpt lat="41.72653" lon="-1.67511">
        <ele>958.688235</ele>
        <time>2022-02-22T11:31:14.275Z</time>
      </trkpt>
      <trkpt lat="41.72647" lon="-1.67478">
        <ele>961.322014</ele>
        <time>2022-02-22T11:31:27.013Z</time>
      </trkpt>
      <trkpt lat="41.72635" lon="-1.67447">
        <ele>964.072195</ele>
        <time>2022-02-22T11:31:45.524Z</time>
      </trkpt>
      <trkpt lat="41.72617" lon="-1.67426">
        <ele>966.526441</ele>
        <time>2022-02-22T11:32:06.301Z</time>
      </trkpt>
      <trkpt lat="41.72596" lon="-1.67422">
        <ele>968.792821</ele>
        <time>2022-02-22T11:32:27.827Z</time>
      </trkpt>
      <trkpt lat="41.72564" lon="-1.67429">
        <ele>972.169733</ele>
        <time>2022-02-22T11:33:03.830Z</time>
      </trkpt>
      <trkpt lat="41.72478" lon="-1.67488">
        <ele>984.805919</ele>
        <time>2022-02-22T11:35:08.296Z</time>
      </trkpt>
      <trkpt lat="41.72448" lon="-1.67501">
        <ele>989.627917</ele>
        <time>2022-02-22T11:35:47.409Z</time>
      </trkpt>
      <trkpt lat="41.72396" lon="-1.67497">
        <ele>997.527745</ele>
        <time>2022-02-22T11:36:50.111Z</time>
      </trkpt>
      <trkpt lat="41.72388" lon="-1.67489">
        <ele>999.094221</ele>
        <time>2022-02-22T11:37:01.221Z</time>
      </trkpt>
      <trkpt lat="41.72386" lon="-1.67476">
        <ele>1000.641433</ele>
        <time>2022-02-22T11:37:11.735Z</time>
      </trkpt>
      <trkpt lat="41.72408" lon="-1.67379">
        <ele>1007.945829</ele>
        <time>2022-02-22T11:38:14.770Z</time>
      </trkpt>
      <trkpt lat="41.72412" lon="-1.67314">
        <ele>1011.233434</ele>
        <time>2022-02-22T11:38:46.468Z</time>
      </trkpt>
      <trkpt lat="41.72405" lon="-1.67245">
        <ele>1014.770819</ele>
        <time>2022-02-22T11:39:16.190Z</time>
      </trkpt>
      <trkpt lat="41.72393" lon="-1.67212">
        <ele>1016.61156</ele>
        <time>2022-02-22T11:39:33.461Z</time>
      </trkpt>
      <trkpt lat="41.72362" lon="-1.67181">
        <ele>1018.780049</ele>
        <time>2022-02-22T11:40:00.000Z</time>
      </trkpt>
      <trkpt lat="41.72328" lon="-1.67127">
        <ele>1021.737359</ele>
        <time>2022-02-22T11:40:35.828Z</time>
      </trkpt>
      <trkpt lat="41.72303" lon="-1.67019">
        <ele>1026.463502</ele>
        <time>2022-02-22T11:41:31.165Z</time>
      </trkpt>
      <trkpt lat="41.72292" lon="-1.66995">
        <ele>1027.658749</ele>
        <time>2022-02-22T11:41:42.556Z</time>
      </trkpt>
      <trkpt lat="41.72277" lon="-1.66979">
        <ele>1028.790063</ele>
        <time>2022-02-22T11:41:54.518Z</time>
      </trkpt>
      <trkpt lat="41.72261" lon="-1.66974">
        <ele>1029.734259</ele>
        <time>2022-02-22T11:42:03.669Z</time>
      </trkpt>
      <trkpt lat="41.72248" lon="-1.66979">
        <ele>1030.559587</ele>
        <time>2022-02-22T11:42:13.409Z</time>
      </trkpt>
      <trkpt lat="41.72248" lon="-1.6699">
        <ele>1031.033415</ele>
        <time>2022-02-22T11:42:17.941Z</time>
      </trkpt>
      <trkpt lat="41.72261" lon="-1.67005">
        <ele>1032.013805</ele>
        <time>2022-02-22T11:42:28.640Z</time>
      </trkpt>
      <trkpt lat="41.72267" lon="-1.67033">
        <ele>1033.286518</ele>
        <time>2022-02-22T11:42:43.287Z</time>
      </trkpt>
      <trkpt lat="41.72265" lon="-1.67048">
        <ele>1033.987119</ele>
        <time>2022-02-22T11:42:51.197Z</time>
      </trkpt>
      <trkpt lat="41.72255" lon="-1.67052">
        <ele>1034.609429</ele>
        <time>2022-02-22T11:42:59.470Z</time>
      </trkpt>
      <trkpt lat="41.72241" lon="-1.67034">
        <ele>1035.74549</ele>
        <time>2022-02-22T11:43:12.304Z</time>
      </trkpt>
      <trkpt lat="41.72164" lon="-1.67042">
        <ele>1041.251064</ele>
        <time>2022-02-22T11:44:09.847Z</time>
      </trkpt>
      <trkpt lat="41.7213" lon="-1.67039">
        <ele>1043.843457</ele>
        <time>2022-02-22T11:44:34.421Z</time>
      </trkpt>
      <trkpt lat="41.72074" lon="-1.67022">
        <ele>1048.282798</ele>
        <time>2022-02-22T11:45:18.100Z</time>
      </trkpt>
      <trkpt lat="41.7205" lon="-1.67023">
        <ele>1050.179493</ele>
        <time>2022-02-22T11:45:36.658Z</time>
      </trkpt>
      <trkpt lat="41.72025" lon="-1.67037">
        <ele>1052.881365</ele>
        <time>2022-02-22T11:45:57.061Z</time>
      </trkpt>
      <trkpt lat="41.71993" lon="-1.67066">
        <ele>1057.609322</ele>
        <time>2022-02-22T11:46:30.076Z</time>
      </trkpt>
      <trkpt lat="41.71906" lon="-1.67041">
        <ele>1068.709783</ele>
        <time>2022-02-22T11:47:54.369Z</time>
      </trkpt>
      <trkpt lat="41.71883" lon="-1.67041">
        <ele>1071.533379</ele>
        <time>2022-02-22T11:48:23.202Z</time>
      </trkpt>
      <trkpt lat="41.71867" lon="-1.67058">
        <ele>1074.34184</ele>
        <time>2022-02-22T11:48:51.963Z</time>
      </trkpt>
      <trkpt lat="41.71808" lon="-1.67161">
        <ele>1091.708358</ele>
        <time>2022-02-22T11:50:56.357Z</time>
      </trkpt>
      <trkpt lat="41.71799" lon="-1.67188">
        <ele>1095.535014</ele>
        <time>2022-02-22T11:51:28.837Z</time>
      </trkpt>
      <trkpt lat="41.7179" lon="-1.67197">
        <ele>1097.634733</ele>
        <time>2022-02-22T11:51:40.274Z</time>
      </trkpt>
      <trkpt lat="41.71774" lon="-1.67196">
        <ele>1100.421629</ele>
        <time>2022-02-22T11:52:03.980Z</time>
      </trkpt>
      <trkpt lat="41.71702" lon="-1.67233">
        <ele>1109.934208</ele>
        <time>2022-02-22T11:53:34.637Z</time>
      </trkpt>
      <trkpt lat="41.71689" lon="-1.67232">
        <ele>1111.052391</ele>
        <time>2022-02-22T11:53:45.012Z</time>
      </trkpt>
      <trkpt lat="41.71674" lon="-1.67199">
        <ele>1113.637367</ele>
        <time>2022-02-22T11:54:16.212Z</time>
      </trkpt>
      <trkpt lat="41.71668" lon="-1.67162">
        <ele>1116.147139</ele>
        <time>2022-02-22T11:54:35.300Z</time>
      </trkpt>
      <trkpt lat="41.71663" lon="-1.67039">
        <ele>1121.714297</ele>
        <time>2022-02-22T11:55:16.142Z</time>
      </trkpt>
      <trkpt lat="41.71606" lon="-1.66856">
        <ele>1122.462314</ele>
        <time>2022-02-22T11:56:09.999Z</time>
      </trkpt>
      <trkpt lat="41.71585" lon="-1.66819">
        <ele>1123.935488</ele>
        <time>2022-02-22T11:56:24.989Z</time>
      </trkpt>
      <trkpt lat="41.71556" lon="-1.66788">
        <ele>1125.559435</ele>
        <time>2022-02-22T11:56:45.030Z</time>
      </trkpt>
      <trkpt lat="41.71534" lon="-1.66773">
        <ele>1126.65156</ele>
        <time>2022-02-22T11:56:59.697Z</time>
      </trkpt>
      <trkpt lat="41.71502" lon="-1.66774">
        <ele>1128.089362</ele>
        <time>2022-02-22T11:57:21.207Z</time>
      </trkpt>
      <trkpt lat="41.71488" lon="-1.66792">
        <ele>1128.914098</ele>
        <time>2022-02-22T11:57:34.331Z</time>
      </trkpt>
      <trkpt lat="41.71479" lon="-1.66816">
        <ele>1129.792801</ele>
        <time>2022-02-22T11:57:48.925Z</time>
      </trkpt>
      <trkpt lat="41.71477" lon="-1.66855">
        <ele>1131.617739</ele>
        <time>2022-02-22T11:58:10.765Z</time>
      </trkpt>
      <trkpt lat="41.71483" lon="-1.66895">
        <ele>1134.02325</ele>
        <time>2022-02-22T11:58:32.321Z</time>
      </trkpt>
      <trkpt lat="41.71465" lon="-1.67">
        <ele>1140.370475</ele>
        <time>2022-02-22T11:59:33.940Z</time>
      </trkpt>
      <trkpt lat="41.71473" lon="-1.67006">
        <ele>1141.10391</ele>
        <time>2022-02-22T11:59:41.021Z</time>
      </trkpt>
      <trkpt lat="41.71515" lon="-1.66968">
        <ele>1145.324329</ele>
        <time>2022-02-22T12:00:21.654Z</time>
      </trkpt>
      <trkpt lat="41.71523" lon="-1.66967">
        <ele>1146.187188</ele>
        <time>2022-02-22T12:00:28.256Z</time>
      </trkpt>
      <trkpt lat="41.7153" lon="-1.6698">
        <ele>1147.538856</ele>
        <time>2022-02-22T12:00:37.618Z</time>
      </trkpt>
      <trkpt lat="41.71511" lon="-1.6702">
        <ele>1151.545199</ele>
        <time>2022-02-22T12:01:07.518Z</time>
      </trkpt>
      <trkpt lat="41.71393" lon="-1.67161">
        <ele>1169.16363</ele>
        <time>2022-02-22T12:03:44.016Z</time>
      </trkpt>
      <trkpt lat="41.71322" lon="-1.67263">
        <ele>1181.078138</ele>
        <time>2022-02-22T12:05:26.798Z</time>
      </trkpt>
      <trkpt lat="41.71303" lon="-1.6728">
        <ele>1183.746941</ele>
        <time>2022-02-22T12:05:45.705Z</time>
      </trkpt>
      <trkpt lat="41.71261" lon="-1.67298">
        <ele>1187.447107</ele>
        <time>2022-02-22T12:06:21.565Z</time>
      </trkpt>
      <trkpt lat="41.71238" lon="-1.67301">
        <ele>1189.074473</ele>
        <time>2022-02-22T12:06:40.264Z</time>
      </trkpt>
      <trkpt lat="41.71169" lon="-1.6729">
        <ele>1194.08613</ele>
        <time>2022-02-22T12:07:31.395Z</time>
      </trkpt>
      <trkpt lat="41.71141" lon="-1.67298">
        <ele>1196.124119</ele>
        <time>2022-02-22T12:07:50.183Z</time>
      </trkpt>
      <trkpt lat="41.71123" lon="-1.67311">
        <ele>1197.663315</ele>
        <time>2022-02-22T12:08:04.103Z</time>
      </trkpt>
      <trkpt lat="41.71101" lon="-1.67345">
        <ele>1198.781289</ele>
        <time>2022-02-22T12:08:24.134Z</time>
      </trkpt>
      <trkpt lat="41.71081" lon="-1.6746">
        <ele>1200.93487</ele>
        <time>2022-02-22T12:09:11.661Z</time>
      </trkpt>
      <trkpt lat="41.71079" lon="-1.67501">
        <ele>1201.680856</ele>
        <time>2022-02-22T12:09:26.397Z</time>
      </trkpt>
      <trkpt lat="41.71069" lon="-1.67514">
        <ele>1202.013394</ele>
        <time>2022-02-22T12:09:32.282Z</time>
      </trkpt>
      <trkpt lat="41.71063" lon="-1.67513">
        <ele>1202.173709</ele>
        <time>2022-02-22T12:09:34.896Z</time>
      </trkpt>
      <trkpt lat="41.71058" lon="-1.67504">
        <ele>1202.35439</ele>
        <time>2022-02-22T12:09:37.572Z</time>
      </trkpt>
      <trkpt lat="41.71038" lon="-1.67449">
        <ele>1200.035856</ele>
        <time>2022-02-22T12:09:52.078Z</time>
      </trkpt>
      <trkpt lat="41.7102" lon="-1.67429">
        <ele>1198.568275</ele>
        <time>2022-02-22T12:09:59.065Z</time>
      </trkpt>
      <trkpt lat="41.70988" lon="-1.67402">
        <ele>1196.172132</ele>
        <time>2022-02-22T12:10:09.907Z</time>
      </trkpt>
      <trkpt lat="41.70921" lon="-1.67366">
        <ele>1191.611128</ele>
        <time>2022-02-22T12:10:28.696Z</time>
      </trkpt>
      <trkpt lat="41.70886" lon="-1.673">
        <ele>1185.104388</ele>
        <time>2022-02-22T12:10:43.754Z</time>
      </trkpt>
      <trkpt lat="41.70853" lon="-1.67195">
        <ele>1175.479725</ele>
        <time>2022-02-22T12:11:04.718Z</time>
      </trkpt>
      <trkpt lat="41.70818" lon="-1.67125">
        <ele>1169.693206</ele>
        <time>2022-02-22T12:11:20.762Z</time>
      </trkpt>
      <trkpt lat="41.70805" lon="-1.67115">
        <ele>1168.961821</ele>
        <time>2022-02-22T12:11:24.776Z</time>
      </trkpt>
      <trkpt lat="41.70788" lon="-1.67113">
        <ele>1168.107991</ele>
        <time>2022-02-22T12:11:29.307Z</time>
      </trkpt>
      <trkpt lat="41.70727" lon="-1.67151">
        <ele>1164.847304</ele>
        <time>2022-02-22T12:11:48.693Z</time>
      </trkpt>
      <trkpt lat="41.70663" lon="-1.67228">
        <ele>1162.182295</ele>
        <time>2022-02-22T12:12:19.935Z</time>
      </trkpt>
      <trkpt lat="41.70649" lon="-1.67239">
        <ele>1162.308245</ele>
        <time>2022-02-22T12:12:27.562Z</time>
      </trkpt>
      <trkpt lat="41.70609" lon="-1.6725">
        <ele>1162.619549</ele>
        <time>2022-02-22T12:12:45.619Z</time>
      </trkpt>
      <trkpt lat="41.70453" lon="-1.67253">
        <ele>1162.402296</ele>
        <time>2022-02-22T12:13:51.259Z</time>
      </trkpt>
      <trkpt lat="41.70424" lon="-1.67259">
        <ele>1161.941812</ele>
        <time>2022-02-22T12:14:01.770Z</time>
      </trkpt>
      <trkpt lat="41.70409" lon="-1.67255">
        <ele>1161.701114</ele>
        <time>2022-02-22T12:14:06.999Z</time>
      </trkpt>
      <trkpt lat="41.7034" lon="-1.67214">
        <ele>1160.455663</ele>
        <time>2022-02-22T12:14:30.152Z</time>
      </trkpt>
      <trkpt lat="41.70314" lon="-1.6719">
        <ele>1157.867519</ele>
        <time>2022-02-22T12:14:39.404Z</time>
      </trkpt>
      <trkpt lat="41.70302" lon="-1.67169">
        <ele>1156.281162</ele>
        <time>2022-02-22T12:14:44.661Z</time>
      </trkpt>
      <trkpt lat="41.70288" lon="-1.67075">
        <ele>1150.452179</ele>
        <time>2022-02-22T12:15:03.089Z</time>
      </trkpt>
      <trkpt lat="41.70292" lon="-1.66993">
        <ele>1145.655665</ele>
        <time>2022-02-22T12:15:18.994Z</time>
      </trkpt>
      <trkpt lat="41.70305" lon="-1.66927">
        <ele>1143.328105</ele>
        <time>2022-02-22T12:15:32.333Z</time>
      </trkpt>
      <trkpt lat="41.7027" lon="-1.66936">
        <ele>1141.702066</ele>
        <time>2022-02-22T12:15:42.259Z</time>
      </trkpt>
      <trkpt lat="41.70217" lon="-1.66934">
        <ele>1139.289812</ele>
        <time>2022-02-22T12:15:58.201Z</time>
      </trkpt>
      <trkpt lat="41.70037" lon="-1.66899">
        <ele>1141.068216</ele>
        <time>2022-02-22T12:17:26.196Z</time>
      </trkpt>
      <trkpt lat="41.6997" lon="-1.66905">
        <ele>1142.798241</ele>
        <time>2022-02-22T12:18:03.578Z</time>
      </trkpt>
      <trkpt lat="41.69872" lon="-1.66924">
        <ele>1145.687217</ele>
        <time>2022-02-22T12:18:56.450Z</time>
      </trkpt>
      <trkpt lat="41.69852" lon="-1.66917">
        <ele>1146.273321</ele>
        <time>2022-02-22T12:19:06.867Z</time>
      </trkpt>
      <trkpt lat="41.69813" lon="-1.66882">
        <ele>1147.07891</ele>
        <time>2022-02-22T12:19:28.811Z</time>
      </trkpt>
      <trkpt lat="41.69791" lon="-1.66879">
        <ele>1147.13014</ele>
        <time>2022-02-22T12:19:37.902Z</time>
      </trkpt>
      <trkpt lat="41.69765" lon="-1.66886">
        <ele>1147.191979</ele>
        <time>2022-02-22T12:19:48.561Z</time>
      </trkpt>
      <trkpt lat="41.69745" lon="-1.6689">
        <ele>1147.239528</ele>
        <time>2022-02-22T12:19:57.220Z</time>
      </trkpt>
      <trkpt lat="41.69734" lon="-1.66881">
        <ele>1147.270905</ele>
        <time>2022-02-22T12:20:01.931Z</time>
      </trkpt>
      <trkpt lat="41.69724" lon="-1.66864">
        <ele>1147.306871</ele>
        <time>2022-02-22T12:20:07.786Z</time>
      </trkpt>
      <trkpt lat="41.69709" lon="-1.66802">
        <ele>1147.419793</ele>
        <time>2022-02-22T12:20:24.976Z</time>
      </trkpt>
      <trkpt lat="41.69694" lon="-1.66788">
        <ele>1147.160175</ele>
        <time>2022-02-22T12:20:31.387Z</time>
      </trkpt>
      <trkpt lat="41.69657" lon="-1.66782">
        <ele>1145.384251</ele>
        <time>2022-02-22T12:20:43.970Z</time>
      </trkpt>
      <trkpt lat="41.69603" lon="-1.66793">
        <ele>1142.76339</ele>
        <time>2022-02-22T12:21:00.080Z</time>
      </trkpt>
      <trkpt lat="41.69558" lon="-1.66765">
        <ele>1140.384689</ele>
        <time>2022-02-22T12:21:13.590Z</time>
      </trkpt>
      <trkpt lat="41.69535" lon="-1.66762">
        <ele>1139.283772</ele>
        <time>2022-02-22T12:21:19.754Z</time>
      </trkpt>
      <trkpt lat="41.69494" lon="-1.66769">
        <ele>1135.924162</ele>
        <time>2022-02-22T12:21:30.976Z</time>
      </trkpt>
      <trkpt lat="41.69477" lon="-1.6676">
        <ele>1134.320158</ele>
        <time>2022-02-22T12:21:35.763Z</time>
      </trkpt>
      <trkpt lat="41.69461" lon="-1.6676">
        <ele>1132.817696</ele>
        <time>2022-02-22T12:21:40.124Z</time>
      </trkpt>
      <trkpt lat="41.69413" lon="-1.66734">
        <ele>1128.181297</ele>
        <time>2022-02-22T12:21:53.688Z</time>
      </trkpt>
      <trkpt lat="41.69385" lon="-1.66706">
        <ele>1125.016904</ele>
        <time>2022-02-22T12:22:02.634Z</time>
      </trkpt>
      <trkpt lat="41.693" lon="-1.66642">
        <ele>1113.007143</ele>
        <time>2022-02-22T12:22:27.411Z</time>
      </trkpt>
      <trkpt lat="41.69255" lon="-1.66636">
        <ele>1106.942235</ele>
        <time>2022-02-22T12:22:38.572Z</time>
      </trkpt>
      <trkpt lat="41.6918" lon="-1.66644">
        <ele>1096.651099</ele>
        <time>2022-02-22T12:22:56.509Z</time>
      </trkpt>
      <trkpt lat="41.6906" lon="-1.66586">
        <ele>1077.6079</ele>
        <time>2022-02-22T12:23:27.002Z</time>
      </trkpt>
      <trkpt lat="41.69022" lon="-1.66582">
        <ele>1071.750854</ele>
        <time>2022-02-22T12:23:36.760Z</time>
      </trkpt>
      <trkpt lat="41.69013" lon="-1.66561">
        <ele>1069.654454</ele>
        <time>2022-02-22T12:23:41.130Z</time>
      </trkpt>
      <trkpt lat="41.69019" lon="-1.66534">
        <ele>1067.215303</ele>
        <time>2022-02-22T12:23:46.341Z</time>
      </trkpt>
      <trkpt lat="41.69012" lon="-1.66531">
        <ele>1066.380841</ele>
        <time>2022-02-22T12:23:48.084Z</time>
      </trkpt>
      <trkpt lat="41.68989" lon="-1.66541">
        <ele>1063.590627</ele>
        <time>2022-02-22T12:23:54.006Z</time>
      </trkpt>
      <trkpt lat="41.68971" lon="-1.66563">
        <ele>1060.778987</ele>
        <time>2022-02-22T12:24:00.051Z</time>
      </trkpt>
      <trkpt lat="41.68958" lon="-1.66561">
        <ele>1059.232868</ele>
        <time>2022-02-22T12:24:03.451Z</time>
      </trkpt>
      <trkpt lat="41.68952" lon="-1.6654">
        <ele>1057.279213</ele>
        <time>2022-02-22T12:24:07.788Z</time>
      </trkpt>
      <trkpt lat="41.68956" lon="-1.66515">
        <ele>1055.111015</ele>
        <time>2022-02-22T12:24:12.712Z</time>
      </trkpt>
      <trkpt lat="41.68929" lon="-1.6651">
        <ele>1052.004064</ele>
        <time>2022-02-22T12:24:19.729Z</time>
      </trkpt>
      <trkpt lat="41.68898" lon="-1.66528">
        <ele>1048.440184</ele>
        <time>2022-02-22T12:24:28.442Z</time>
      </trkpt>
      <trkpt lat="41.68881" lon="-1.66529">
        <ele>1046.675001</ele>
        <time>2022-02-22T12:24:33.030Z</time>
      </trkpt>
      <trkpt lat="41.68866" lon="-1.66522">
        <ele>1045.148464</ele>
        <time>2022-02-22T12:24:36.883Z</time>
      </trkpt>
      <trkpt lat="41.68814" lon="-1.66475">
        <ele>1038.829241</ele>
        <time>2022-02-22T12:24:52.878Z</time>
      </trkpt>
      <trkpt lat="41.68787" lon="-1.6646">
        <ele>1035.904811</ele>
        <time>2022-02-22T12:25:00.151Z</time>
      </trkpt>
      <trkpt lat="41.68761" lon="-1.66428">
        <ele>1032.436201</ele>
        <time>2022-02-22T12:25:09.330Z</time>
      </trkpt>
      <trkpt lat="41.68719" lon="-1.6643">
        <ele>1029.719424</ele>
        <time>2022-02-22T12:25:20.872Z</time>
      </trkpt>
      <trkpt lat="41.68663" lon="-1.66416">
        <ele>1026.024047</ele>
        <time>2022-02-22T12:25:36.643Z</time>
      </trkpt>
      <trkpt lat="41.68644" lon="-1.66405">
        <ele>1024.680078</ele>
        <time>2022-02-22T12:25:42.402Z</time>
      </trkpt>
      <trkpt lat="41.68597" lon="-1.66375">
        <ele>1021.29392</ele>
        <time>2022-02-22T12:25:57.241Z</time>
      </trkpt>
      <trkpt lat="41.68576" lon="-1.66354">
        <ele>1020.215507</ele>
        <time>2022-02-22T12:26:04.858Z</time>
      </trkpt>
      <trkpt lat="41.68524" lon="-1.66324">
        <ele>1018.276194</ele>
        <time>2022-02-22T12:26:21.567Z</time>
      </trkpt>
      <trkpt lat="41.68425" lon="-1.66243">
        <ele>1014.508224</ele>
        <time>2022-02-22T12:26:58.040Z</time>
      </trkpt>
      <trkpt lat="41.68379" lon="-1.66217">
        <ele>1013.711954</ele>
        <time>2022-02-22T12:27:14.584Z</time>
      </trkpt>
      <trkpt lat="41.68361" lon="-1.662">
        <ele>1013.371735</ele>
        <time>2022-02-22T12:27:21.677Z</time>
      </trkpt>
      <trkpt lat="41.68338" lon="-1.66165">
        <ele>1012.81188</ele>
        <time>2022-02-22T12:27:33.466Z</time>
      </trkpt>
      <trkpt lat="41.68312" lon="-1.6614">
        <ele>1012.305695</ele>
        <time>2022-02-22T12:27:44.246Z</time>
      </trkpt>
      <trkpt lat="41.68276" lon="-1.66129">
        <ele>1011.801346</ele>
        <time>2022-02-22T12:27:57.187Z</time>
      </trkpt>
      <trkpt lat="41.68229" lon="-1.66087">
        <ele>1011.461158</ele>
        <time>2022-02-22T12:28:17.425Z</time>
      </trkpt>
      <trkpt lat="41.68177" lon="-1.66094">
        <ele>1011.146056</ele>
        <time>2022-02-22T12:28:36.992Z</time>
      </trkpt>
      <trkpt lat="41.68067" lon="-1.66008">
        <ele>1009.728714</ele>
        <time>2022-02-22T12:29:20.844Z</time>
      </trkpt>
      <trkpt lat="41.6802" lon="-1.65997">
        <ele>1008.963546</ele>
        <time>2022-02-22T12:29:36.262Z</time>
      </trkpt>
      <trkpt lat="41.67946" lon="-1.65911">
        <ele>1007.895957</ele>
        <time>2022-02-22T12:30:07.925Z</time>
      </trkpt>
      <trkpt lat="41.67903" lon="-1.65879">
        <ele>1007.888164</ele>
        <time>2022-02-22T12:30:25.599Z</time>
      </trkpt>
      <trkpt lat="41.67859" lon="-1.65855">
        <ele>1007.880503</ele>
        <time>2022-02-22T12:30:43.845Z</time>
      </trkpt>
      <trkpt lat="41.67827" lon="-1.65902">
        <ele>1007.873006</ele>
        <time>2022-02-22T12:31:05.703Z</time>
      </trkpt>
      <trkpt lat="41.67791" lon="-1.65923">
        <ele>1008.421209</ele>
        <time>2022-02-22T12:31:22.205Z</time>
      </trkpt>
      <trkpt lat="41.67761" lon="-1.6595">
        <ele>1008.99331</ele>
        <time>2022-02-22T12:31:38.345Z</time>
      </trkpt>
      <trkpt lat="41.67749" lon="-1.65947">
        <ele>1009.190521</ele>
        <time>2022-02-22T12:31:43.724Z</time>
      </trkpt>
      <trkpt lat="41.67725" lon="-1.65923">
        <ele>1009.655975</ele>
        <time>2022-02-22T12:31:59.547Z</time>
      </trkpt>
      <trkpt lat="41.67702" lon="-1.65913">
        <ele>1010.053317</ele>
        <time>2022-02-22T12:32:12.667Z</time>
      </trkpt>
      <trkpt lat="41.6767" lon="-1.65873">
        <ele>1010.724166</ele>
        <time>2022-02-22T12:32:29.128Z</time>
      </trkpt>
      <trkpt lat="41.67624" lon="-1.65825">
        <ele>1011.011062</ele>
        <time>2022-02-22T12:32:52.496Z</time>
      </trkpt>
      <trkpt lat="41.67606" lon="-1.65735">
        <ele>1011.352006</ele>
        <time>2022-02-22T12:33:19.919Z</time>
      </trkpt>
      <trkpt lat="41.67594" lon="-1.65708">
        <ele>1011.469416</ele>
        <time>2022-02-22T12:33:29.401Z</time>
      </trkpt>
      <trkpt lat="41.67557" lon="-1.65678">
        <ele>1011.132621</ele>
        <time>2022-02-22T12:33:46.613Z</time>
      </trkpt>
      <trkpt lat="41.67511" lon="-1.65608">
        <ele>1009.085954</ele>
        <time>2022-02-22T12:34:11.206Z</time>
      </trkpt>
      <trkpt lat="41.67478" lon="-1.65589">
        <ele>1008.045993</ele>
        <time>2022-02-22T12:34:22.390Z</time>
      </trkpt>
      <trkpt lat="41.6745" lon="-1.6555">
        <ele>1006.856003</ele>
        <time>2022-02-22T12:34:34.069Z</time>
      </trkpt>
      <trkpt lat="41.67443" lon="-1.65518">
        <ele>1005.615078</ele>
        <time>2022-02-22T12:34:40.833Z</time>
      </trkpt>
      <trkpt lat="41.67451" lon="-1.6546">
        <ele>1001.185584</ele>
        <time>2022-02-22T12:34:52.426Z</time>
      </trkpt>
      <trkpt lat="41.6743" lon="-1.65424">
        <ele>997.78277</ele>
        <time>2022-02-22T12:35:01.053Z</time>
      </trkpt>
      <trkpt lat="41.67318" lon="-1.65338">
        <ele>984.604302</ele>
        <time>2022-02-22T12:35:33.721Z</time>
      </trkpt>
      <trkpt lat="41.673" lon="-1.65315">
        <ele>982.002166</ele>
        <time>2022-02-22T12:35:39.885Z</time>
      </trkpt>
      <trkpt lat="41.6728" lon="-1.65273">
        <ele>978.034441</ele>
        <time>2022-02-22T12:35:49.330Z</time>
      </trkpt>
      <trkpt lat="41.67266" lon="-1.6526">
        <ele>976.254425</ele>
        <time>2022-02-22T12:35:53.636Z</time>
      </trkpt>
      <trkpt lat="41.67196" lon="-1.65224">
        <ele>968.350932</ele>
        <time>2022-02-22T12:36:13.127Z</time>
      </trkpt>
      <trkpt lat="41.67101" lon="-1.65146">
        <ele>957.769073</ele>
        <time>2022-02-22T12:36:41.796Z</time>
      </trkpt>
      <trkpt lat="41.67039" lon="-1.65127">
        <ele>951.694927</ele>
        <time>2022-02-22T12:36:58.412Z</time>
      </trkpt>
      <trkpt lat="41.67002" lon="-1.65145">
        <ele>948.274824</ele>
        <time>2022-02-22T12:37:08.755Z</time>
      </trkpt>
      <trkpt lat="41.66957" lon="-1.65179">
        <ele>943.774269</ele>
        <time>2022-02-22T12:37:22.492Z</time>
      </trkpt>
      <trkpt lat="41.66863" lon="-1.65201">
        <ele>935.059943</ele>
        <time>2022-02-22T12:37:47.903Z</time>
      </trkpt>
      <trkpt lat="41.66834" lon="-1.6519">
        <ele>931.342444</ele>
        <time>2022-02-22T12:37:55.632Z</time>
      </trkpt>
      <trkpt lat="41.66761" lon="-1.65147">
        <ele>921.271713</ele>
        <time>2022-02-22T12:38:15.589Z</time>
      </trkpt>
      <trkpt lat="41.66685" lon="-1.65009">
        <ele>902.808709</ele>
        <time>2022-02-22T12:38:46.080Z</time>
      </trkpt>
      <trkpt lat="41.66683" lon="-1.64995">
        <ele>901.031403</ele>
        <time>2022-02-22T12:38:48.660Z</time>
      </trkpt>
      <trkpt lat="41.66656" lon="-1.64941">
        <ele>893.267033</ele>
        <time>2022-02-22T12:39:00.248Z</time>
      </trkpt>
      <trkpt lat="41.66639" lon="-1.64927">
        <ele>890.050852</ele>
        <time>2022-02-22T12:39:05.005Z</time>
      </trkpt>
      <trkpt lat="41.66569" lon="-1.64931">
        <ele>880.517046</ele>
        <time>2022-02-22T12:39:22.256Z</time>
      </trkpt>
      <trkpt lat="41.66553" lon="-1.64914">
        <ele>878.294278</ele>
        <time>2022-02-22T12:39:27.217Z</time>
      </trkpt>
      <trkpt lat="41.66536" lon="-1.64885">
        <ele>875.156694</ele>
        <time>2022-02-22T12:39:34.236Z</time>
      </trkpt>
      <trkpt lat="41.66526" lon="-1.64839">
        <ele>871.091769</ele>
        <time>2022-02-22T12:39:43.432Z</time>
      </trkpt>
      <trkpt lat="41.66518" lon="-1.64827">
        <ele>869.759116</ele>
        <time>2022-02-22T12:39:46.532Z</time>
      </trkpt>
      <trkpt lat="41.66505" lon="-1.64818">
        <ele>868.129951</ele>
        <time>2022-02-22T12:39:50.364Z</time>
      </trkpt>
      <trkpt lat="41.66472" lon="-1.64816">
        <ele>864.324123</ele>
        <time>2022-02-22T12:39:59.089Z</time>
      </trkpt>
      <trkpt lat="41.66432" lon="-1.648">
        <ele>859.384834</ele>
        <time>2022-02-22T12:40:09.882Z</time>
      </trkpt>
      <trkpt lat="41.66391" lon="-1.64811">
        <ele>854.553741</ele>
        <time>2022-02-22T12:40:20.216Z</time>
      </trkpt>
      <trkpt lat="41.66366" lon="-1.64833">
        <ele>851.034395</ele>
        <time>2022-02-22T12:40:27.665Z</time>
      </trkpt>
      <trkpt lat="41.66358" lon="-1.64835">
        <ele>850.03366</ele>
        <time>2022-02-22T12:40:29.773Z</time>
      </trkpt>
      <trkpt lat="41.66237" lon="-1.64824">
        <ele>835.635473</ele>
        <time>2022-02-22T12:40:59.711Z</time>
      </trkpt>
      <trkpt lat="41.66195" lon="-1.64832">
        <ele>830.556011</ele>
        <time>2022-02-22T12:41:10.247Z</time>
      </trkpt>
      <trkpt lat="41.6618" lon="-1.64855">
        <ele>827.773516</ele>
        <time>2022-02-22T12:41:16.103Z</time>
      </trkpt>
      <trkpt lat="41.66171" lon="-1.6486">
        <ele>826.602911</ele>
        <time>2022-02-22T12:41:18.522Z</time>
      </trkpt>
      <trkpt lat="41.66128" lon="-1.64849">
        <ele>821.543604</ele>
        <time>2022-02-22T12:41:29.510Z</time>
      </trkpt>
      <trkpt lat="41.66087" lon="-1.6485">
        <ele>818.033455</ele>
        <time>2022-02-22T12:41:40.010Z</time>
      </trkpt>
      <trkpt lat="41.66054" lon="-1.64815">
        <ele>814.320918</ele>
        <time>2022-02-22T12:41:51.336Z</time>
      </trkpt>
      <trkpt lat="41.65999" lon="-1.64789">
        <ele>809.317453</ele>
        <time>2022-02-22T12:42:06.843Z</time>
      </trkpt>
      <trkpt lat="41.65955" lon="-1.64751">
        <ele>805.022072</ele>
        <time>2022-02-22T12:42:21.055Z</time>
      </trkpt>
      <trkpt lat="41.65895" lon="-1.64716">
        <ele>800.171738</ele>
        <time>2022-02-22T12:42:38.813Z</time>
      </trkpt>
      <trkpt lat="41.65867" lon="-1.64651">
        <ele>796.01095</ele>
        <time>2022-02-22T12:42:54.172Z</time>
      </trkpt>
      <trkpt lat="41.65854" lon="-1.6464">
        <ele>794.874104</ele>
        <time>2022-02-22T12:42:58.246Z</time>
      </trkpt>
      <trkpt lat="41.65837" lon="-1.64654">
        <ele>793.441728</ele>
        <time>2022-02-22T12:43:03.455Z</time>
      </trkpt>
      <trkpt lat="41.65817" lon="-1.64689">
        <ele>790.446141</ele>
        <time>2022-02-22T12:43:12.296Z</time>
      </trkpt>
      <trkpt lat="41.65797" lon="-1.64709">
        <ele>788.05938</ele>
        <time>2022-02-22T12:43:19.093Z</time>
      </trkpt>
      <trkpt lat="41.6578" lon="-1.64746">
        <ele>785.045128</ele>
        <time>2022-02-22T12:43:27.697Z</time>
      </trkpt>
      <trkpt lat="41.65762" lon="-1.64758">
        <ele>783.218831</ele>
        <time>2022-02-22T12:43:32.927Z</time>
      </trkpt>
      <trkpt lat="41.65735" lon="-1.64762">
        <ele>780.653323</ele>
        <time>2022-02-22T12:43:40.055Z</time>
      </trkpt>
      <trkpt lat="41.65699" lon="-1.64749">
        <ele>777.163843</ele>
        <time>2022-02-22T12:43:49.337Z</time>
      </trkpt>
      <trkpt lat="41.65641" lon="-1.64758">
        <ele>770.207409</ele>
        <time>2022-02-22T12:44:03.828Z</time>
      </trkpt>
      <trkpt lat="41.656" lon="-1.64737">
        <ele>764.765836</ele>
        <time>2022-02-22T12:44:14.687Z</time>
      </trkpt>
      <trkpt lat="41.65579" lon="-1.64749">
        <ele>761.901884</ele>
        <time>2022-02-22T12:44:20.270Z</time>
      </trkpt>
      <trkpt lat="41.65433" lon="-1.64614">
        <ele>742.989425</ele>
        <time>2022-02-22T12:45:04.887Z</time>
      </trkpt>
      <trkpt lat="41.65397" lon="-1.64588">
        <ele>739.101028</ele>
        <time>2022-02-22T12:45:15.859Z</time>
      </trkpt>
      <trkpt lat="41.65357" lon="-1.64579">
        <ele>736.057504</ele>
        <time>2022-02-22T12:45:27.423Z</time>
      </trkpt>
      <trkpt lat="41.65273" lon="-1.64548">
        <ele>733.175896</ele>
        <time>2022-02-22T12:45:53.788Z</time>
      </trkpt>
      <trkpt lat="41.65242" lon="-1.64544">
        <ele>732.140807</ele>
        <time>2022-02-22T12:46:03.853Z</time>
      </trkpt>
      <trkpt lat="41.65199" lon="-1.64548">
        <ele>730.717221</ele>
        <time>2022-02-22T12:46:18.047Z</time>
      </trkpt>
      <trkpt lat="41.65134" lon="-1.64516">
        <ele>729.437934</ele>
        <time>2022-02-22T12:46:41.135Z</time>
      </trkpt>
      <trkpt lat="41.65088" lon="-1.6451">
        <ele>728.631352</ele>
        <time>2022-02-22T12:46:56.369Z</time>
      </trkpt>
      <trkpt lat="41.65026" lon="-1.64465">
        <ele>727.397072</ele>
        <time>2022-02-22T12:47:19.273Z</time>
      </trkpt>
      <trkpt lat="41.65009" lon="-1.64442">
        <ele>726.845692</ele>
        <time>2022-02-22T12:47:27.325Z</time>
      </trkpt>
      <trkpt lat="41.6499" lon="-1.64437">
        <ele>726.427787</ele>
        <time>2022-02-22T12:47:33.413Z</time>
      </trkpt>
      <trkpt lat="41.64972" lon="-1.64413">
        <ele>725.859837</ele>
        <time>2022-02-22T12:47:41.685Z</time>
      </trkpt>
      <trkpt lat="41.64939" lon="-1.64386">
        <ele>724.989775</ele>
        <time>2022-02-22T12:47:54.393Z</time>
      </trkpt>
      <trkpt lat="41.64848" lon="-1.64362">
        <ele>722.662941</ele>
        <time>2022-02-22T12:48:23.809Z</time>
      </trkpt>
      <trkpt lat="41.64805" lon="-1.64326">
        <ele>720.943416</ele>
        <time>2022-02-22T12:48:39.576Z</time>
      </trkpt>
      <trkpt lat="41.6472" lon="-1.6436">
        <ele>717.951794</ele>
        <time>2022-02-22T12:49:06.442Z</time>
      </trkpt>
      <trkpt lat="41.64633" lon="-1.64362">
        <ele>712.24007</ele>
        <time>2022-02-22T12:49:32.052Z</time>
      </trkpt>
      <trkpt lat="41.64592" lon="-1.64353">
        <ele>709.20356</ele>
        <time>2022-02-22T12:49:42.687Z</time>
      </trkpt>
      <trkpt lat="41.64562" lon="-1.6438">
        <ele>706.511278</ele>
        <time>2022-02-22T12:49:52.204Z</time>
      </trkpt>
      <trkpt lat="41.64545" lon="-1.64405">
        <ele>704.653391</ele>
        <time>2022-02-22T12:49:58.754Z</time>
      </trkpt>
      <trkpt lat="41.64535" lon="-1.64444">
        <ele>702.008562</ele>
        <time>2022-02-22T12:50:06.864Z</time>
      </trkpt>
      <trkpt lat="41.64536" lon="-1.64469">
        <ele>700.262847</ele>
        <time>2022-02-22T12:50:11.794Z</time>
      </trkpt>
      <trkpt lat="41.64513" lon="-1.64476">
        <ele>698.141133</ele>
        <time>2022-02-22T12:50:15.113Z</time>
      </trkpt>
      <trkpt lat="41.64469" lon="-1.64469">
        <ele>694.076011</ele>
        <time>2022-02-22T12:50:21.503Z</time>
      </trkpt>
      <trkpt lat="41.64445" lon="-1.64461">
        <ele>691.82405</ele>
        <time>2022-02-22T12:50:25.015Z</time>
      </trkpt>
      <trkpt lat="41.64436" lon="-1.64449">
        <ele>690.631423</ele>
        <time>2022-02-22T12:50:26.886Z</time>
      </trkpt>
      <trkpt lat="41.64426" lon="-1.64391">
        <ele>686.738908</ele>
        <time>2022-02-22T12:50:33.302Z</time>
      </trkpt>
      <trkpt lat="41.64428" lon="-1.64295">
        <ele>681.320158</ele>
        <time>2022-02-22T12:50:44.250Z</time>
      </trkpt>
      <trkpt lat="41.64435" lon="-1.64249">
        <ele>678.638426</ele>
        <time>2022-02-22T12:50:49.554Z</time>
      </trkpt>
      <trkpt lat="41.64406" lon="-1.64189">
        <ele>674.580331</ele>
        <time>2022-02-22T12:50:57.345Z</time>
      </trkpt>
      <trkpt lat="41.6439" lon="-1.64142">
        <ele>671.468587</ele>
        <time>2022-02-22T12:51:02.936Z</time>
      </trkpt>
      <trkpt lat="41.64389" lon="-1.64123">
        <ele>670.368749</ele>
        <time>2022-02-22T12:51:04.860Z</time>
      </trkpt>
      <trkpt lat="41.64365" lon="-1.64116">
        <ele>668.392815</ele>
        <time>2022-02-22T12:51:08.592Z</time>
      </trkpt>
      <trkpt lat="41.64358" lon="-1.6412">
        <ele>667.698968</ele>
        <time>2022-02-22T12:51:09.890Z</time>
      </trkpt>
      <trkpt lat="41.64346" lon="-1.64096">
        <ele>665.952537</ele>
        <time>2022-02-22T12:51:13.226Z</time>
      </trkpt>
      <trkpt lat="41.64337" lon="-1.64092">
        <ele>665.207115</ele>
        <time>2022-02-22T12:51:14.626Z</time>
      </trkpt>
      <trkpt lat="41.64335" lon="-1.64077">
        <ele>664.288302</ele>
        <time>2022-02-22T12:51:16.349Z</time>
      </trkpt>
      <trkpt lat="41.64317" lon="-1.6408">
        <ele>662.822449</ele>
        <time>2022-02-22T12:51:19.131Z</time>
      </trkpt>
      <trkpt lat="41.64308" lon="-1.64077">
        <ele>662.107799</ele>
        <time>2022-02-22T12:51:20.461Z</time>
      </trkpt>
      <trkpt lat="41.64298" lon="-1.64068">
        <ele>661.103629</ele>
        <time>2022-02-22T12:51:22.344Z</time>
      </trkpt>
      <trkpt lat="41.64272" lon="-1.64026">
        <ele>659.154314</ele>
        <time>2022-02-22T12:51:28.704Z</time>
      </trkpt>
      <trkpt lat="41.64266" lon="-1.64017">
        <ele>659.039803</ele>
        <time>2022-02-22T12:51:30.251Z</time>
      </trkpt>
      <trkpt lat="41.64272" lon="-1.63996">
        <ele>658.824994</ele>
        <time>2022-02-22T12:51:33.234Z</time>
      </trkpt>
      <trkpt lat="41.64266" lon="-1.63974">
        <ele>658.605044</ele>
        <time>2022-02-22T12:51:36.483Z</time>
      </trkpt>
      <trkpt lat="41.6422" lon="-1.6393">
        <ele>657.901621</ele>
        <time>2022-02-22T12:51:49.371Z</time>
      </trkpt>
      <trkpt lat="41.64206" lon="-1.63901">
        <ele>657.581533</ele>
        <time>2022-02-22T12:51:57.583Z</time>
      </trkpt>
      <trkpt lat="41.64198" lon="-1.6387">
        <ele>657.273438</ele>
        <time>2022-02-22T12:52:06.061Z</time>
      </trkpt>
      <trkpt lat="41.64165" lon="-1.6382">
        <ele>657.619513</ele>
        <time>2022-02-22T12:52:25.711Z</time>
      </trkpt>
      <trkpt lat="41.64116" lon="-1.63773">
        <ele>658.310678</ele>
        <time>2022-02-22T12:52:45.837Z</time>
      </trkpt>
      <trkpt lat="41.64039" lon="-1.63733">
        <ele>659.070885</ele>
        <time>2022-02-22T12:53:06.697Z</time>
      </trkpt>
      <trkpt lat="41.63973" lon="-1.63691">
        <ele>655.927662</ele>
        <time>2022-02-22T12:53:18.804Z</time>
      </trkpt>
      <trkpt lat="41.63881" lon="-1.63624">
        <ele>651.450824</ele>
        <time>2022-02-22T12:53:35.040Z</time>
      </trkpt>
      <trkpt lat="41.63813" lon="-1.63564">
        <ele>647.886854</ele>
        <time>2022-02-22T12:53:47.733Z</time>
      </trkpt>
      <trkpt lat="41.63747" lon="-1.63527">
        <ele>644.78367</ele>
        <time>2022-02-22T12:53:59.494Z</time>
      </trkpt>
      <trkpt lat="41.6373" lon="-1.63502">
        <ele>643.695581</ele>
        <time>2022-02-22T12:54:04.067Z</time>
      </trkpt>
      <trkpt lat="41.63714" lon="-1.63452">
        <ele>643.283661</ele>
        <time>2022-02-22T12:54:11.776Z</time>
      </trkpt>
      <trkpt lat="41.63666" lon="-1.63405">
        <ele>642.697848</ele>
        <time>2022-02-22T12:54:23.593Z</time>
      </trkpt>
      <trkpt lat="41.6364" lon="-1.63327">
        <ele>642.066416</ele>
        <time>2022-02-22T12:54:37.316Z</time>
      </trkpt>
      <trkpt lat="41.63615" lon="-1.6329">
        <ele>641.758638</ele>
        <time>2022-02-22T12:54:45.502Z</time>
      </trkpt>
      <trkpt lat="41.63534" lon="-1.63226">
        <ele>641.0932</ele>
        <time>2022-02-22T12:55:05.665Z</time>
      </trkpt>
      <trkpt lat="41.63514" lon="-1.632">
        <ele>640.890901</ele>
        <time>2022-02-22T12:55:11.191Z</time>
      </trkpt>
      <trkpt lat="41.63488" lon="-1.63138">
        <ele>640.399125</ele>
        <time>2022-02-22T12:55:21.167Z</time>
      </trkpt>
      <trkpt lat="41.63462" lon="-1.63022">
        <ele>639.106859</ele>
        <time>2022-02-22T12:55:38.482Z</time>
      </trkpt>
      <trkpt lat="41.63438" lon="-1.62959">
        <ele>638.361713</ele>
        <time>2022-02-22T12:55:48.553Z</time>
      </trkpt>
      <trkpt lat="41.63388" lon="-1.62925">
        <ele>637.671315</ele>
        <time>2022-02-22T12:55:59.260Z</time>
      </trkpt>
      <trkpt lat="41.63333" lon="-1.629">
        <ele>637.016468</ele>
        <time>2022-02-22T12:56:10.630Z</time>
      </trkpt>
      <trkpt lat="41.63285" lon="-1.62854">
        <ele>636.353765</ele>
        <time>2022-02-22T12:56:22.568Z</time>
      </trkpt>
      <trkpt lat="41.63257" lon="-1.62784">
        <ele>635.631405</ele>
        <time>2022-02-22T12:56:34.728Z</time>
      </trkpt>
      <trkpt lat="41.63236" lon="-1.62706">
        <ele>634.834979</ele>
        <time>2022-02-22T12:56:46.463Z</time>
      </trkpt>
      <trkpt lat="41.63207" lon="-1.62663">
        <ele>634.278362</ele>
        <time>2022-02-22T12:56:54.692Z</time>
      </trkpt>
      <trkpt lat="41.63162" lon="-1.62644">
        <ele>633.787011</ele>
        <time>2022-02-22T12:57:03.610Z</time>
      </trkpt>
      <trkpt lat="41.63153" lon="-1.62636">
        <ele>633.888075</ele>
        <time>2022-02-22T12:57:05.747Z</time>
      </trkpt>
      <trkpt lat="41.63082" lon="-1.62522">
        <ele>634.846975</ele>
        <time>2022-02-22T12:57:28.426Z</time>
      </trkpt>
      <trkpt lat="41.63078" lon="-1.62505">
        <ele>634.961305</ele>
        <time>2022-02-22T12:57:35.501Z</time>
      </trkpt>
      <trkpt lat="41.6308" lon="-1.62489">
        <ele>635.066323</ele>
        <time>2022-02-22T12:57:38.502Z</time>
      </trkpt>
      <trkpt lat="41.63122" lon="-1.62467">
        <ele>636.565491</ele>
        <time>2022-02-22T12:57:59.172Z</time>
      </trkpt>
      <trkpt lat="41.63134" lon="-1.62447">
        <ele>637.927659</ele>
        <time>2022-02-22T12:58:09.936Z</time>
      </trkpt>
      <trkpt lat="41.63131" lon="-1.62427">
        <ele>639.034837</ele>
        <time>2022-02-22T12:58:16.167Z</time>
      </trkpt>
      <trkpt lat="41.63122" lon="-1.62407">
        <ele>640.287845</ele>
        <time>2022-02-22T12:58:27.510Z</time>
      </trkpt>
      <trkpt lat="41.63111" lon="-1.6239">
        <ele>641.455837</ele>
        <time>2022-02-22T12:58:34.644Z</time>
      </trkpt>
      <trkpt lat="41.63097" lon="-1.62384">
        <ele>642.553065</ele>
        <time>2022-02-22T12:58:47.244Z</time>
      </trkpt>
      <trkpt lat="41.63033" lon="-1.62381">
        <ele>647.096763</ele>
        <time>2022-02-22T12:59:26.228Z</time>
      </trkpt>
      <trkpt lat="41.62999" lon="-1.6234">
        <ele>650.033781</ele>
        <time>2022-02-22T12:59:59.222Z</time>
      </trkpt>
      <trkpt lat="41.62967" lon="-1.62324">
        <ele>652.112982</ele>
        <time>2022-02-22T13:00:23.437Z</time>
      </trkpt>
      <trkpt lat="41.62952" lon="-1.62305">
        <ele>653.3228</ele>
        <time>2022-02-22T13:00:33.650Z</time>
      </trkpt>
      <trkpt lat="41.62908" lon="-1.62216">
        <ele>658.117689</ele>
        <time>2022-02-22T13:01:08.659Z</time>
      </trkpt>
      <trkpt lat="41.62897" lon="-1.62208">
        <ele>658.873357</ele>
        <time>2022-02-22T13:01:13.963Z</time>
      </trkpt>
      <trkpt lat="41.62888" lon="-1.62218">
        <ele>658.959744</ele>
        <time>2022-02-22T13:01:19.001Z</time>
      </trkpt>
      <trkpt lat="41.62878" lon="-1.62309">
        <ele>658.761368</ele>
        <time>2022-02-22T13:01:39.199Z</time>
      </trkpt>
      <trkpt lat="41.62857" lon="-1.6233">
        <ele>658.684475</ele>
        <time>2022-02-22T13:01:44.751Z</time>
      </trkpt>
      <trkpt lat="41.62845" lon="-1.62331">
        <ele>658.64846</ele>
        <time>2022-02-22T13:01:47.333Z</time>
      </trkpt>
      <trkpt lat="41.62807" lon="-1.62311">
        <ele>658.531582</ele>
        <time>2022-02-22T13:01:54.797Z</time>
      </trkpt>
      <trkpt lat="41.62763" lon="-1.62324">
        <ele>657.065624</ele>
        <time>2022-02-22T13:02:02.161Z</time>
      </trkpt>
      <trkpt lat="41.62732" lon="-1.62321">
        <ele>655.153779</ele>
        <time>2022-02-22T13:02:07.072Z</time>
      </trkpt>
      <trkpt lat="41.62697" lon="-1.62359">
        <ele>652.384928</ele>
        <time>2022-02-22T13:02:13.968Z</time>
      </trkpt>
      <trkpt lat="41.62678" lon="-1.62368">
        <ele>651.145741</ele>
        <time>2022-02-22T13:02:16.988Z</time>
      </trkpt>
      <trkpt lat="41.62605" lon="-1.62368">
        <ele>646.714051</ele>
        <time>2022-02-22T13:02:27.720Z</time>
      </trkpt>
      <trkpt lat="41.6257" lon="-1.62375">
        <ele>644.59561</ele>
        <time>2022-02-22T13:02:33.024Z</time>
      </trkpt>
      <trkpt lat="41.62522" lon="-1.6236">
        <ele>641.616384</ele>
        <time>2022-02-22T13:02:40.518Z</time>
      </trkpt>
      <trkpt lat="41.62508" lon="-1.62347">
        <ele>640.596563</ele>
        <time>2022-02-22T13:02:43.124Z</time>
      </trkpt>
      <trkpt lat="41.62502" lon="-1.62335">
        <ele>639.968216</ele>
        <time>2022-02-22T13:02:44.733Z</time>
      </trkpt>
      <trkpt lat="41.6249" lon="-1.62248">
        <ele>636.299909</ele>
        <time>2022-02-22T13:02:55.331Z</time>
      </trkpt>
      <trkpt lat="41.62419" lon="-1.62154">
        <ele>633.072571</ele>
        <time>2022-02-22T13:03:12.464Z</time>
      </trkpt>
      <trkpt lat="41.62412" lon="-1.6213">
        <ele>632.444922</ele>
        <time>2022-02-22T13:03:15.900Z</time>
      </trkpt>
      <trkpt lat="41.62409" lon="-1.62081">
        <ele>631.265268</ele>
        <time>2022-02-22T13:03:22.331Z</time>
      </trkpt>
      <trkpt lat="41.62385" lon="-1.62033">
        <ele>630.736379</ele>
        <time>2022-02-22T13:03:30.249Z</time>
      </trkpt>
      <trkpt lat="41.62361" lon="-1.62017">
        <ele>630.610049</ele>
        <time>2022-02-22T13:03:34.794Z</time>
      </trkpt>
      <trkpt lat="41.62272" lon="-1.61985">
        <ele>630.185158</ele>
        <time>2022-02-22T13:03:57.526Z</time>
      </trkpt>
      <trkpt lat="41.6226" lon="-1.61971">
        <ele>630.113519</ele>
        <time>2022-02-22T13:04:00.309Z</time>
      </trkpt>
      <trkpt lat="41.62263" lon="-1.61958">
        <ele>630.066019</ele>
        <time>2022-02-22T13:04:06.897Z</time>
      </trkpt>
      <trkpt lat="41.62278" lon="-1.6195">
        <ele>630.325698</ele>
        <time>2022-02-22T13:04:10.188Z</time>
      </trkpt>
      <trkpt lat="41.62287" lon="-1.61934">
        <ele>630.645574</ele>
        <time>2022-02-22T13:04:15.397Z</time>
      </trkpt>
      <trkpt lat="41.62286" lon="-1.6191">
        <ele>631.042875</ele>
        <time>2022-02-22T13:04:21.475Z</time>
      </trkpt>
      <trkpt lat="41.62275" lon="-1.61903">
        <ele>631.298305</ele>
        <time>2022-02-22T13:04:23.824Z</time>
      </trkpt>
      <trkpt lat="41.6215" lon="-1.61902">
        <ele>633.912805</ele>
        <time>2022-02-22T13:05:10.106Z</time>
      </trkpt>
      <trkpt lat="41.62125" lon="-1.61878">
        <ele>633.954847</ele>
        <time>2022-02-22T13:05:19.873Z</time>
      </trkpt>
      <trkpt lat="41.62116" lon="-1.61875">
        <ele>633.967517</ele>
        <time>2022-02-22T13:05:22.535Z</time>
      </trkpt>
      <trkpt lat="41.62107" lon="-1.61879">
        <ele>633.979858</ele>
        <time>2022-02-22T13:05:25.023Z</time>
      </trkpt>
      <trkpt lat="41.62095" lon="-1.61905">
        <ele>634.010281</ele>
        <time>2022-02-22T13:05:30.964Z</time>
      </trkpt>
      <trkpt lat="41.62087" lon="-1.61911">
        <ele>634.023101</ele>
        <time>2022-02-22T13:05:33.187Z</time>
      </trkpt>
      <trkpt lat="41.62055" lon="-1.61916">
        <ele>634.066359</ele>
        <time>2022-02-22T13:05:40.492Z</time>
      </trkpt>
      <trkpt lat="41.62031" lon="-1.61907">
        <ele>634.100293</ele>
        <time>2022-02-22T13:05:45.780Z</time>
      </trkpt>
      <trkpt lat="41.6185" lon="-1.61735">
        <ele>629.503945</ele>
        <time>2022-02-22T13:06:25.680Z</time>
      </trkpt>
      <trkpt lat="41.61643" lon="-1.61634">
        <ele>620.575206</ele>
        <time>2022-02-22T13:07:01.331Z</time>
      </trkpt>
      <trkpt lat="41.61636" lon="-1.61613">
        <ele>619.905222</ele>
        <time>2022-02-22T13:07:04.197Z</time>
      </trkpt>
      <trkpt lat="41.61643" lon="-1.61559">
        <ele>618.314619</ele>
        <time>2022-02-22T13:07:11.136Z</time>
      </trkpt>
      <trkpt lat="41.61632" lon="-1.61543">
        <ele>617.663703</ele>
        <time>2022-02-22T13:07:13.852Z</time>
      </trkpt>
      <trkpt lat="41.61606" lon="-1.6155">
        <ele>616.636819</ele>
        <time>2022-02-22T13:07:18.150Z</time>
      </trkpt>
      <trkpt lat="41.61576" lon="-1.61581">
        <ele>615.126154</ele>
        <time>2022-02-22T13:07:24.444Z</time>
      </trkpt>
      <trkpt lat="41.61535" lon="-1.61604">
        <ele>613.176312</ele>
        <time>2022-02-22T13:07:31.796Z</time>
      </trkpt>
      <trkpt lat="41.61517" lon="-1.61607">
        <ele>612.349402</ele>
        <time>2022-02-22T13:07:34.892Z</time>
      </trkpt>
      <trkpt lat="41.61492" lon="-1.61597">
        <ele>611.227211</ele>
        <time>2022-02-22T13:07:38.935Z</time>
      </trkpt>
      <trkpt lat="41.61479" lon="-1.61577">
        <ele>610.355401</ele>
        <time>2022-02-22T13:07:42.102Z</time>
      </trkpt>
      <trkpt lat="41.61446" lon="-1.61483">
        <ele>607.036181</ele>
        <time>2022-02-22T13:07:54.506Z</time>
      </trkpt>
      <trkpt lat="41.61409" lon="-1.61434">
        <ele>605.471102</ele>
        <time>2022-02-22T13:08:02.868Z</time>
      </trkpt>
      <trkpt lat="41.61342" lon="-1.6129">
        <ele>601.843485</ele>
        <time>2022-02-22T13:08:25.686Z</time>
      </trkpt>
      <trkpt lat="41.61255" lon="-1.61125">
        <ele>600.822891</ele>
        <time>2022-02-22T13:08:56.921Z</time>
      </trkpt>
      <trkpt lat="41.61246" lon="-1.61115">
        <ele>600.74186</ele>
        <time>2022-02-22T13:08:59.582Z</time>
      </trkpt>
      <trkpt lat="41.61215" lon="-1.611">
        <ele>600.802348</ele>
        <time>2022-02-22T13:09:06.928Z</time>
      </trkpt>
      <trkpt lat="41.61181" lon="-1.61043">
        <ele>601.085613</ele>
        <time>2022-02-22T13:09:20.934Z</time>
      </trkpt>
      <trkpt lat="41.61115" lon="-1.60966">
        <ele>601.537038</ele>
        <time>2022-02-22T13:09:43.390Z</time>
      </trkpt>
      <trkpt lat="41.61099" lon="-1.6094">
        <ele>601.678705</ele>
        <time>2022-02-22T13:09:50.212Z</time>
      </trkpt>
      <trkpt lat="41.61073" lon="-1.6093">
        <ele>601.839943</ele>
        <time>2022-02-22T13:09:57.080Z</time>
      </trkpt>
      <trkpt lat="41.61044" lon="-1.60933">
        <ele>602.019539</ele>
        <time>2022-02-22T13:10:04.343Z</time>
      </trkpt>
      <trkpt lat="41.60979" lon="-1.60997">
        <ele>602.516411</ele>
        <time>2022-02-22T13:10:23.467Z</time>
      </trkpt>
      <trkpt lat="41.60968" lon="-1.61003">
        <ele>602.58842</ele>
        <time>2022-02-22T13:10:26.080Z</time>
      </trkpt>
      <trkpt lat="41.6086" lon="-1.61001">
        <ele>605.397184</ele>
        <time>2022-02-22T13:10:57.301Z</time>
      </trkpt>
      <trkpt lat="41.60849" lon="-1.6099">
        <ele>605.790818</ele>
        <time>2022-02-22T13:11:01.638Z</time>
      </trkpt>
      <trkpt lat="41.60842" lon="-1.60968">
        <ele>606.350127</ele>
        <time>2022-02-22T13:11:11.532Z</time>
      </trkpt>
      <trkpt lat="41.60826" lon="-1.60898">
        <ele>607.996833</ele>
        <time>2022-02-22T13:11:38.122Z</time>
      </trkpt>
      <trkpt lat="41.60823" lon="-1.60868">
        <ele>608.41847</ele>
        <time>2022-02-22T13:11:51.779Z</time>
      </trkpt>
      <trkpt lat="41.60835" lon="-1.60814">
        <ele>609.027824</ele>
        <time>2022-02-22T13:12:06.057Z</time>
      </trkpt>
      <trkpt lat="41.60832" lon="-1.60793">
        <ele>609.250732</ele>
        <time>2022-02-22T13:12:11.415Z</time>
      </trkpt>
      <trkpt lat="41.60824" lon="-1.60776">
        <ele>609.471184</ele>
        <time>2022-02-22T13:12:17.255Z</time>
      </trkpt>
      <trkpt lat="41.60811" lon="-1.60773">
        <ele>609.650995</ele>
        <time>2022-02-22T13:12:19.542Z</time>
      </trkpt>
      <trkpt lat="41.60789" lon="-1.6078">
        <ele>609.984824</ele>
        <time>2022-02-22T13:12:28.773Z</time>
      </trkpt>
      <trkpt lat="41.60775" lon="-1.60912">
        <ele>608.169948</ele>
        <time>2022-02-22T13:12:47.102Z</time>
      </trkpt>
      <trkpt lat="41.60764" lon="-1.6094">
        <ele>606.813132</ele>
        <time>2022-02-22T13:12:50.711Z</time>
      </trkpt>
      <trkpt lat="41.6075" lon="-1.60956">
        <ele>605.73941</ele>
        <time>2022-02-22T13:12:53.676Z</time>
      </trkpt>
      <trkpt lat="41.60729" lon="-1.60955">
        <ele>604.562892</ele>
        <time>2022-02-22T13:12:56.620Z</time>
      </trkpt>
      <trkpt lat="41.60704" lon="-1.60941">
        <ele>603.045188</ele>
        <time>2022-02-22T13:13:00.465Z</time>
      </trkpt>
      <trkpt lat="41.60693" lon="-1.60929">
        <ele>602.203312</ele>
        <time>2022-02-22T13:13:02.598Z</time>
      </trkpt>
      <trkpt lat="41.60649" lon="-1.60842">
        <ele>598.987564</ele>
        <time>2022-02-22T13:13:14.713Z</time>
      </trkpt>
      <trkpt lat="41.60639" lon="-1.60835">
        <ele>598.639546</ele>
        <time>2022-02-22T13:13:16.558Z</time>
      </trkpt>
      <trkpt lat="41.60611" lon="-1.6083">
        <ele>597.73001</ele>
        <time>2022-02-22T13:13:21.187Z</time>
      </trkpt>
      <trkpt lat="41.60591" lon="-1.60812">
        <ele>596.950769</ele>
        <time>2022-02-22T13:13:25.268Z</time>
      </trkpt>
      <trkpt lat="41.60578" lon="-1.60746">
        <ele>595.341954</ele>
        <time>2022-02-22T13:13:34.560Z</time>
      </trkpt>
      <trkpt lat="41.60562" lon="-1.60659">
        <ele>595.732446</ele>
        <time>2022-02-22T13:13:57.370Z</time>
      </trkpt>
      <trkpt lat="41.60542" lon="-1.60616">
        <ele>596.39671</ele>
        <time>2022-02-22T13:14:12.600Z</time>
      </trkpt>
      <trkpt lat="41.60536" lon="-1.60607">
        <ele>596.562434</ele>
        <time>2022-02-22T13:14:15.789Z</time>
      </trkpt>
      <trkpt lat="41.60514" lon="-1.60583">
        <ele>597.053155</ele>
        <time>2022-02-22T13:14:25.994Z</time>
      </trkpt>
      <trkpt lat="41.6049" lon="-1.6057">
        <ele>597.521935</ele>
        <time>2022-02-22T13:14:33.758Z</time>
      </trkpt>
      <trkpt lat="41.60447" lon="-1.60558">
        <ele>597.775796</ele>
        <time>2022-02-22T13:14:44.751Z</time>
      </trkpt>
      <trkpt lat="41.60413" lon="-1.60551">
        <ele>597.27667</ele>
        <time>2022-02-22T13:14:52.542Z</time>
      </trkpt>
      <trkpt lat="41.60367" lon="-1.60559">
        <ele>596.597436</ele>
        <time>2022-02-22T13:15:03.523Z</time>
      </trkpt>
      <trkpt lat="41.60308" lon="-1.60546">
        <ele>595.721634</ele>
        <time>2022-02-22T13:15:13.996Z</time>
      </trkpt>
      <trkpt lat="41.60294" lon="-1.60535">
        <ele>595.484019</ele>
        <time>2022-02-22T13:15:16.539Z</time>
      </trkpt>
      <trkpt lat="41.60279" lon="-1.60506">
        <ele>594.786218</ele>
        <time>2022-02-22T13:15:20.720Z</time>
      </trkpt>
      <trkpt lat="41.60256" lon="-1.60476">
        <ele>593.830755</ele>
        <time>2022-02-22T13:15:25.795Z</time>
      </trkpt>
      <trkpt lat="41.60204" lon="-1.6045">
        <ele>592.148904</ele>
        <time>2022-02-22T13:15:35.259Z</time>
      </trkpt>
      <trkpt lat="41.60181" lon="-1.60431">
        <ele>591.346003</ele>
        <time>2022-02-22T13:15:40.311Z</time>
      </trkpt>
      <trkpt lat="41.60169" lon="-1.60395">
        <ele>590.448372</ele>
        <time>2022-02-22T13:15:46.295Z</time>
      </trkpt>
      <trkpt lat="41.60132" lon="-1.60318">
        <ele>589.167152</ele>
        <time>2022-02-22T13:15:59.176Z</time>
      </trkpt>
      <trkpt lat="41.60088" lon="-1.60254">
        <ele>588.155473</ele>
        <time>2022-02-22T13:16:11.514Z</time>
      </trkpt>
      <trkpt lat="41.60022" lon="-1.60193">
        <ele>587.195021</ele>
        <time>2022-02-22T13:16:26.708Z</time>
      </trkpt>
      <trkpt lat="41.59972" lon="-1.60135">
        <ele>587.192833</ele>
        <time>2022-02-22T13:16:39.521Z</time>
      </trkpt>
      <trkpt lat="41.59925" lon="-1.60117">
        <ele>587.191199</ele>
        <time>2022-02-22T13:16:49.939Z</time>
      </trkpt>
      <trkpt lat="41.59899" lon="-1.60094">
        <ele>587.190176</ele>
        <time>2022-02-22T13:16:58.804Z</time>
      </trkpt>
      <trkpt lat="41.59896" lon="-1.6007">
        <ele>587.314599</ele>
        <time>2022-02-22T13:17:05.593Z</time>
      </trkpt>
      <trkpt lat="41.59898" lon="-1.60046">
        <ele>588.158485</ele>
        <time>2022-02-22T13:17:12.150Z</time>
      </trkpt>
      <trkpt lat="41.5991" lon="-1.60008">
        <ele>589.583886</ele>
        <time>2022-02-22T13:17:24.578Z</time>
      </trkpt>
      <trkpt lat="41.59913" lon="-1.59972">
        <ele>590.807301</ele>
        <time>2022-02-22T13:17:36.775Z</time>
      </trkpt>
      <trkpt lat="41.59905" lon="-1.59864">
        <ele>594.568662</ele>
        <time>2022-02-22T13:18:17.261Z</time>
      </trkpt>
      <trkpt lat="41.5988" lon="-1.59838">
        <ele>596.028293</ele>
        <time>2022-02-22T13:18:34.651Z</time>
      </trkpt>
      <trkpt lat="41.59869" lon="-1.5981">
        <ele>597.12533</ele>
        <time>2022-02-22T13:18:47.759Z</time>
      </trkpt>
      <trkpt lat="41.59872" lon="-1.59777">
        <ele>598.268911</ele>
        <time>2022-02-22T13:19:00.645Z</time>
      </trkpt>
      <trkpt lat="41.59892" lon="-1.59692">
        <ele>601.323809</ele>
        <time>2022-02-22T13:19:31.815Z</time>
      </trkpt>
      <trkpt lat="41.59885" lon="-1.59671">
        <ele>602.120645</ele>
        <time>2022-02-22T13:19:38.637Z</time>
      </trkpt>
      <trkpt lat="41.59869" lon="-1.59657">
        <ele>602.997498</ele>
        <time>2022-02-22T13:19:45.856Z</time>
      </trkpt>
      <trkpt lat="41.59827" lon="-1.59653">
        <ele>603.896689</ele>
        <time>2022-02-22T13:20:00.512Z</time>
      </trkpt>
      <trkpt lat="41.59813" lon="-1.59621">
        <ele>604.023253</ele>
        <time>2022-02-22T13:20:08.448Z</time>
      </trkpt>
      <trkpt lat="41.598" lon="-1.59573">
        <ele>604.20276</ele>
        <time>2022-02-22T13:20:17.783Z</time>
      </trkpt>
      <trkpt lat="41.59762" lon="-1.59524">
        <ele>604.446571</ele>
        <time>2022-02-22T13:20:28.565Z</time>
      </trkpt>
      <trkpt lat="41.59741" lon="-1.59517">
        <ele>604.546866</ele>
        <time>2022-02-22T13:20:32.849Z</time>
      </trkpt>
      <trkpt lat="41.59717" lon="-1.59538">
        <ele>604.633106</ele>
        <time>2022-02-22T13:20:38.664Z</time>
      </trkpt>
      <trkpt lat="41.597" lon="-1.59545">
        <ele>604.657174</ele>
        <time>2022-02-22T13:20:42.348Z</time>
      </trkpt>
      <trkpt lat="41.59688" lon="-1.59527">
        <ele>604.680884</ele>
        <time>2022-02-22T13:20:46.033Z</time>
      </trkpt>
      <trkpt lat="41.59684" lon="-1.59506">
        <ele>604.702559</ele>
        <time>2022-02-22T13:20:49.457Z</time>
      </trkpt>
      <trkpt lat="41.59669" lon="-1.59474">
        <ele>604.73958</ele>
        <time>2022-02-22T13:20:55.551Z</time>
      </trkpt>
      <trkpt lat="41.5964" lon="-1.59344">
        <ele>604.815662</ele>
        <time>2022-02-22T13:21:22.257Z</time>
      </trkpt>
      <trkpt lat="41.59646" lon="-1.59305">
        <ele>604.747773</ele>
        <time>2022-02-22T13:21:30.820Z</time>
      </trkpt>
      <trkpt lat="41.59657" lon="-1.59282">
        <ele>604.699486</ele>
        <time>2022-02-22T13:21:36.815Z</time>
      </trkpt>
      <trkpt lat="41.59653" lon="-1.59263">
        <ele>604.665828</ele>
        <time>2022-02-22T13:21:40.426Z</time>
      </trkpt>
      <trkpt lat="41.5964" lon="-1.59255">
        <ele>604.631878</ele>
        <time>2022-02-22T13:21:44.202Z</time>
      </trkpt>
      <trkpt lat="41.59611" lon="-1.59259">
        <ele>604.564974</ele>
        <time>2022-02-22T13:21:50.498Z</time>
      </trkpt>
      <trkpt lat="41.59598" lon="-1.59268">
        <ele>604.529822</ele>
        <time>2022-02-22T13:21:53.678Z</time>
      </trkpt>
      <trkpt lat="41.59584" lon="-1.59313">
        <ele>604.444578</ele>
        <time>2022-02-22T13:22:00.364Z</time>
      </trkpt>
      <trkpt lat="41.59561" lon="-1.59438">
        <ele>601.503716</ele>
        <time>2022-02-22T13:22:16.782Z</time>
      </trkpt>
      <trkpt lat="41.59559" lon="-1.59475">
        <ele>600.629638</ele>
        <time>2022-02-22T13:22:21.316Z</time>
      </trkpt>
      <trkpt lat="41.59548" lon="-1.59497">
        <ele>600.012225</ele>
        <time>2022-02-22T13:22:24.451Z</time>
      </trkpt>
      <trkpt lat="41.59528" lon="-1.59513">
        <ele>599.254093</ele>
        <time>2022-02-22T13:22:28.379Z</time>
      </trkpt>
      <trkpt lat="41.59507" lon="-1.5951">
        <ele>598.677538</ele>
        <time>2022-02-22T13:22:31.729Z</time>
      </trkpt>
      <trkpt lat="41.58644" lon="-1.58926">
        <ele>587.851747</ele>
        <time>2022-02-22T13:25:41.946Z</time>
      </trkpt>
      <trkpt lat="41.58591" lon="-1.58894">
        <ele>587.871688</ele>
        <time>2022-02-22T13:25:54.629Z</time>
      </trkpt>
      <trkpt lat="41.58545" lon="-1.58919">
        <ele>587.902427</ele>
        <time>2022-02-22T13:26:08.504Z</time>
      </trkpt>
      <trkpt lat="41.58527" lon="-1.58918">
        <ele>588.558576</ele>
        <time>2022-02-22T13:26:13.925Z</time>
      </trkpt>
      <trkpt lat="41.58466" lon="-1.58865">
        <ele>591.266376</ele>
        <time>2022-02-22T13:26:41.090Z</time>
      </trkpt>
      <trkpt lat="41.58361" lon="-1.58731">
        <ele>597.397137</ele>
        <time>2022-02-22T13:27:50.927Z</time>
      </trkpt>
      <trkpt lat="41.58263" lon="-1.58595">
        <ele>604.253319</ele>
        <time>2022-02-22T13:28:57.448Z</time>
      </trkpt>
      <trkpt lat="41.58245" lon="-1.58536">
        <ele>606.153049</ele>
        <time>2022-02-22T13:29:18.460Z</time>
      </trkpt>
      <trkpt lat="41.58245" lon="-1.5845">
        <ele>608.729994</ele>
        <time>2022-02-22T13:29:46.758Z</time>
      </trkpt>
      <trkpt lat="41.58263" lon="-1.58294">
        <ele>611.406066</ele>
        <time>2022-02-22T13:30:29.746Z</time>
      </trkpt>
      <trkpt lat="41.58284" lon="-1.58151">
        <ele>612.450311</ele>
        <time>2022-02-22T13:30:56.036Z</time>
      </trkpt>
      <trkpt lat="41.58284" lon="-1.58048">
        <ele>610.108131</ele>
        <time>2022-02-22T13:31:09.664Z</time>
      </trkpt>
      <trkpt lat="41.58268" lon="-1.58028">
        <ele>609.389831</ele>
        <time>2022-02-22T13:31:13.365Z</time>
      </trkpt>
      <trkpt lat="41.58181" lon="-1.58012">
        <ele>606.514894</ele>
        <time>2022-02-22T13:31:27.700Z</time>
      </trkpt>
      <trkpt lat="41.58149" lon="-1.57986">
        <ele>604.961004</ele>
        <time>2022-02-22T13:31:33.681Z</time>
      </trkpt>
      <trkpt lat="41.58056" lon="-1.57864">
        <ele>599.539134</ele>
        <time>2022-02-22T13:31:54.924Z</time>
      </trkpt>
      <trkpt lat="41.58035" lon="-1.57836">
        <ele>598.518013</ele>
        <time>2022-02-22T13:31:59.933Z</time>
      </trkpt>
      <trkpt lat="41.57962" lon="-1.57621">
        <ele>592.873545</ele>
        <time>2022-02-22T13:32:30.534Z</time>
      </trkpt>
      <trkpt lat="41.57877" lon="-1.57384">
        <ele>585.736417</ele>
        <time>2022-02-22T13:33:03.439Z</time>
      </trkpt>
      <trkpt lat="41.57484" lon="-1.56742">
        <ele>561.313369</ele>
        <time>2022-02-22T13:34:45.460Z</time>
      </trkpt>
      <trkpt lat="41.57441" lon="-1.56687">
        <ele>559.196288</ele>
        <time>2022-02-22T13:34:55.875Z</time>
      </trkpt>
      <trkpt lat="41.56782" lon="-1.56114">
        <ele>543.37757</ele>
        <time>2022-02-22T13:37:20.356Z</time>
      </trkpt>
      <trkpt lat="41.56242" lon="-1.55646">
        <ele>529.54548</ele>
        <time>2022-02-22T13:39:17.016Z</time>
      </trkpt>
      <trkpt lat="41.55879" lon="-1.55357">
        <ele>521.115972</ele>
        <time>2022-02-22T13:40:34.583Z</time>
      </trkpt>
      <trkpt lat="41.55831" lon="-1.55306">
        <ele>520.025663</ele>
        <time>2022-02-22T13:40:45.893Z</time>
      </trkpt>
      <trkpt lat="41.55505" lon="-1.548">
        <ele>512.805148</ele>
        <time>2022-02-22T13:42:21.196Z</time>
      </trkpt>
      <trkpt lat="41.55418" lon="-1.54657">
        <ele>511.518328</ele>
        <time>2022-02-22T13:42:49.302Z</time>
      </trkpt>
      <trkpt lat="41.55395" lon="-1.54603">
        <ele>511.282324</ele>
        <time>2022-02-22T13:42:58.908Z</time>
      </trkpt>
      <trkpt lat="41.55321" lon="-1.54345">
        <ele>510.171533</ele>
        <time>2022-02-22T13:43:42.453Z</time>
      </trkpt>
      <trkpt lat="41.55307" lon="-1.54313">
        <ele>510.015857</ele>
        <time>2022-02-22T13:43:48.229Z</time>
      </trkpt>
      <trkpt lat="41.55225" lon="-1.5415">
        <ele>508.273589</ele>
        <time>2022-02-22T13:44:17.959Z</time>
      </trkpt>
      <trkpt lat="41.55213" lon="-1.54125">
        <ele>507.932626</ele>
        <time>2022-02-22T13:44:22.323Z</time>
      </trkpt>
      <trkpt lat="41.55088" lon="-1.53967">
        <ele>503.373966</ele>
        <time>2022-02-22T13:44:52.739Z</time>
      </trkpt>
      <trkpt lat="41.5505" lon="-1.53922">
        <ele>501.726548</ele>
        <time>2022-02-22T13:45:01.000Z</time>
      </trkpt>
      <trkpt lat="41.54934" lon="-1.53786">
        <ele>494.391016</ele>
        <time>2022-02-22T13:45:25.553Z</time>
      </trkpt>
      <trkpt lat="41.54902" lon="-1.53738">
        <ele>491.993059</ele>
        <time>2022-02-22T13:45:33.134Z</time>
      </trkpt>
      <trkpt lat="41.54883" lon="-1.5371">
        <ele>490.470655</ele>
        <time>2022-02-22T13:45:37.609Z</time>
      </trkpt>
      <trkpt lat="41.54837" lon="-1.53643">
        <ele>486.856473</ele>
        <time>2022-02-22T13:45:48.416Z</time>
      </trkpt>
      <trkpt lat="41.54816" lon="-1.53627">
        <ele>485.571327</ele>
        <time>2022-02-22T13:45:52.141Z</time>
      </trkpt>
      <trkpt lat="41.54796" lon="-1.53623">
        <ele>484.507054</ele>
        <time>2022-02-22T13:45:55.108Z</time>
      </trkpt>
      <trkpt lat="41.54755" lon="-1.53631">
        <ele>482.430293</ele>
        <time>2022-02-22T13:46:01.691Z</time>
      </trkpt>
      <trkpt lat="41.54718" lon="-1.53621">
        <ele>481.291732</ele>
        <time>2022-02-22T13:46:07.784Z</time>
      </trkpt>
      <trkpt lat="41.54706" lon="-1.53601">
        <ele>480.714423</ele>
        <time>2022-02-22T13:46:11.005Z</time>
      </trkpt>
      <trkpt lat="41.54689" lon="-1.53545">
        <ele>479.342681</ele>
        <time>2022-02-22T13:46:18.939Z</time>
      </trkpt>
      <trkpt lat="41.54672" lon="-1.53487">
        <ele>477.930917</ele>
        <time>2022-02-22T13:46:27.633Z</time>
      </trkpt>
      <trkpt lat="41.54651" lon="-1.53439">
        <ele>477.066596</ele>
        <time>2022-02-22T13:46:35.500Z</time>
      </trkpt>
      <trkpt lat="41.54628" lon="-1.53404">
        <ele>476.817702</ele>
        <time>2022-02-22T13:46:41.857Z</time>
      </trkpt>
      <trkpt lat="41.54619" lon="-1.53409">
        <ele>476.743664</ele>
        <time>2022-02-22T13:46:43.827Z</time>
      </trkpt>
      <trkpt lat="41.54546" lon="-1.53484">
        <ele>476.075028</ele>
        <time>2022-02-22T13:47:03.708Z</time>
      </trkpt>
      <trkpt lat="41.54523" lon="-1.53497">
        <ele>475.898148</ele>
        <time>2022-02-22T13:47:08.752Z</time>
      </trkpt>
      <trkpt lat="41.54502" lon="-1.53495">
        <ele>476.320272</ele>
        <time>2022-02-22T13:47:13.042Z</time>
      </trkpt>
      <trkpt lat="41.5445" lon="-1.53461">
        <ele>477.544407</ele>
        <time>2022-02-22T13:47:29.260Z</time>
      </trkpt>
      <trkpt lat="41.54408" lon="-1.53411">
        <ele>478.730763</ele>
        <time>2022-02-22T13:47:49.940Z</time>
      </trkpt>
      <trkpt lat="41.54388" lon="-1.53375">
        <ele>479.440075</ele>
        <time>2022-02-22T13:48:03.028Z</time>
      </trkpt>
      <trkpt lat="41.54384" lon="-1.53326">
        <ele>480.785736</ele>
        <time>2022-02-22T13:48:19.048Z</time>
      </trkpt>
      <trkpt lat="41.54384" lon="-1.53282">
        <ele>482.179842</ele>
        <time>2022-02-22T13:48:34.089Z</time>
      </trkpt>
      <trkpt lat="41.54369" lon="-1.53257">
        <ele>483.195446</ele>
        <time>2022-02-22T13:48:44.975Z</time>
      </trkpt>
      <trkpt lat="41.54312" lon="-1.53195">
        <ele>486.384472</ele>
        <time>2022-02-22T13:49:20.025Z</time>
      </trkpt>
      <trkpt lat="41.54267" lon="-1.53181">
        <ele>487.699755</ele>
        <time>2022-02-22T13:49:39.578Z</time>
      </trkpt>
      <trkpt lat="41.5424" lon="-1.53118">
        <ele>488.382353</ele>
        <time>2022-02-22T13:49:55.131Z</time>
      </trkpt>
      <trkpt lat="41.54188" lon="-1.53046">
        <ele>489.322212</ele>
        <time>2022-02-22T13:50:13.124Z</time>
      </trkpt>
      <trkpt lat="41.54139" lon="-1.53037">
        <ele>489.814138</ele>
        <time>2022-02-22T13:50:23.980Z</time>
      </trkpt>
      <trkpt lat="41.54115" lon="-1.53025">
        <ele>489.963866</ele>
        <time>2022-02-22T13:50:29.633Z</time>
      </trkpt>
      <trkpt lat="41.54055" lon="-1.52962">
        <ele>490.420616</ele>
        <time>2022-02-22T13:50:48.194Z</time>
      </trkpt>
      <trkpt lat="41.54044" lon="-1.52917">
        <ele>490.630407</ele>
        <time>2022-02-22T13:50:57.639Z</time>
      </trkpt>
      <trkpt lat="41.54031" lon="-1.52896">
        <ele>490.749968</ele>
        <time>2022-02-22T13:51:03.211Z</time>
      </trkpt>
      <trkpt lat="41.54015" lon="-1.52887">
        <ele>491.07626</ele>
        <time>2022-02-22T13:51:08.465Z</time>
      </trkpt>
      <trkpt lat="41.53997" lon="-1.52865">
        <ele>491.559038</ele>
        <time>2022-02-22T13:51:15.948Z</time>
      </trkpt>
      <trkpt lat="41.53982" lon="-1.52837">
        <ele>492.088412</ele>
        <time>2022-02-22T13:51:24.784Z</time>
      </trkpt>
      <trkpt lat="41.5395" lon="-1.52742">
        <ele>493.639675</ele>
        <time>2022-02-22T13:51:52.280Z</time>
      </trkpt>
      <trkpt lat="41.53929" lon="-1.52711">
        <ele>494.270538</ele>
        <time>2022-02-22T13:52:02.835Z</time>
      </trkpt>
      <trkpt lat="41.53893" lon="-1.52674">
        <ele>494.419693</ele>
        <time>2022-02-22T13:52:15.967Z</time>
      </trkpt>
      <trkpt lat="41.53835" lon="-1.52594">
        <ele>494.518932</ele>
        <time>2022-02-22T13:52:35.420Z</time>
      </trkpt>
      <trkpt lat="41.53778" lon="-1.52527">
        <ele>494.460475</ele>
        <time>2022-02-22T13:52:50.110Z</time>
      </trkpt>
      <trkpt lat="41.53772" lon="-1.52475">
        <ele>494.206967</ele>
        <time>2022-02-22T13:52:57.611Z</time>
      </trkpt>
      <trkpt lat="41.53762" lon="-1.52439">
        <ele>494.01915</ele>
        <time>2022-02-22T13:53:03.229Z</time>
      </trkpt>
      <trkpt lat="41.53761" lon="-1.52436">
        <ele>494.005206</ele>
        <time>2022-02-22T13:53:03.633Z</time>
      </trkpt>
      <trkpt lat="41.53756" lon="-1.52421">
        <ele>493.926676</ele>
        <time>2022-02-22T13:53:05.986Z</time>
      </trkpt>
      <trkpt lat="41.53749" lon="-1.524">
        <ele>493.814269</ele>
        <time>2022-02-22T13:53:09.407Z</time>
      </trkpt>
      <trkpt lat="41.53746" lon="-1.52352">
        <ele>493.586088</ele>
        <time>2022-02-22T13:53:17.086Z</time>
      </trkpt>
      <trkpt lat="41.53753" lon="-1.52288">
        <ele>494.137492</ele>
        <time>2022-02-22T13:53:30.448Z</time>
      </trkpt>
      <trkpt lat="41.53741" lon="-1.52217">
        <ele>495.69318</ele>
        <time>2022-02-22T13:53:47.511Z</time>
      </trkpt>
      <trkpt lat="41.53701" lon="-1.52073">
        <ele>499.113383</ele>
        <time>2022-02-22T13:54:36.199Z</time>
      </trkpt>
      <trkpt lat="41.5367" lon="-1.51996">
        <ele>501.604598</ele>
        <time>2022-02-22T13:55:06.870Z</time>
      </trkpt>
      <trkpt lat="41.5366" lon="-1.51948">
        <ele>503.022856</ele>
        <time>2022-02-22T13:55:24.165Z</time>
      </trkpt>
      <trkpt lat="41.53649" lon="-1.51928">
        <ele>503.752618</ele>
        <time>2022-02-22T13:55:32.834Z</time>
      </trkpt>
      <trkpt lat="41.53518" lon="-1.51849">
        <ele>505.39065</ele>
        <time>2022-02-22T13:56:16.082Z</time>
      </trkpt>
      <trkpt lat="41.53479" lon="-1.51825">
        <ele>505.378128</ele>
        <time>2022-02-22T13:56:24.369Z</time>
      </trkpt>
      <trkpt lat="41.53386" lon="-1.51754">
        <ele>502.820528</ele>
        <time>2022-02-22T13:56:42.832Z</time>
      </trkpt>
      <trkpt lat="41.53328" lon="-1.51693">
        <ele>500.091388</ele>
        <time>2022-02-22T13:56:54.785Z</time>
      </trkpt>
      <trkpt lat="41.53266" lon="-1.51701">
        <ele>497.998029</ele>
        <time>2022-02-22T13:57:05.060Z</time>
      </trkpt>
      <trkpt lat="41.53231" lon="-1.51726">
        <ele>496.865721</ele>
        <time>2022-02-22T13:57:11.624Z</time>
      </trkpt>
      <trkpt lat="41.5317" lon="-1.51808">
        <ele>494.346317</ele>
        <time>2022-02-22T13:57:26.870Z</time>
      </trkpt>
      <trkpt lat="41.53143" lon="-1.51815">
        <ele>493.557017</ele>
        <time>2022-02-22T13:57:31.918Z</time>
      </trkpt>
      <trkpt lat="41.53125" lon="-1.51809">
        <ele>493.208357</ele>
        <time>2022-02-22T13:57:35.435Z</time>
      </trkpt>
      <trkpt lat="41.53105" lon="-1.51781">
        <ele>492.667183</ele>
        <time>2022-02-22T13:57:41.402Z</time>
      </trkpt>
      <trkpt lat="41.531" lon="-1.51753">
        <ele>492.258455</ele>
        <time>2022-02-22T13:57:45.799Z</time>
      </trkpt>
      <trkpt lat="41.53108" lon="-1.51718">
        <ele>491.755919</ele>
        <time>2022-02-22T13:57:51.119Z</time>
      </trkpt>
      <trkpt lat="41.53144" lon="-1.51647">
        <ele>490.555238</ele>
        <time>2022-02-22T13:58:02.969Z</time>
      </trkpt>
      <trkpt lat="41.53149" lon="-1.51607">
        <ele>489.721796</ele>
        <time>2022-02-22T13:58:08.282Z</time>
      </trkpt>
      <trkpt lat="41.53136" lon="-1.51531">
        <ele>487.135828</ele>
        <time>2022-02-22T13:58:17.944Z</time>
      </trkpt>
      <trkpt lat="41.53122" lon="-1.5149">
        <ele>485.641052</ele>
        <time>2022-02-22T13:58:23.382Z</time>
      </trkpt>
      <trkpt lat="41.53077" lon="-1.51393">
        <ele>481.808875</ele>
        <time>2022-02-22T13:58:36.778Z</time>
      </trkpt>
      <trkpt lat="41.53052" lon="-1.51361">
        <ele>479.943456</ele>
        <time>2022-02-22T13:58:42.206Z</time>
      </trkpt>
      <trkpt lat="41.52991" lon="-1.51308">
        <ele>476.016456</ele>
        <time>2022-02-22T13:58:53.689Z</time>
      </trkpt>
      <trkpt lat="41.5297" lon="-1.51279">
        <ele>474.370429</ele>
        <time>2022-02-22T13:58:58.461Z</time>
      </trkpt>
      <trkpt lat="41.52951" lon="-1.51237">
        <ele>472.39843</ele>
        <time>2022-02-22T13:59:04.059Z</time>
      </trkpt>
      <trkpt lat="41.52926" lon="-1.51124">
        <ele>467.054441</ele>
        <time>2022-02-22T13:59:17.598Z</time>
      </trkpt>
      <trkpt lat="41.52898" lon="-1.51091">
        <ele>464.790712</ele>
        <time>2022-02-22T13:59:23.234Z</time>
      </trkpt>
      <trkpt lat="41.52874" lon="-1.51075">
        <ele>463.162695</ele>
        <time>2022-02-22T13:59:27.269Z</time>
      </trkpt>
      <trkpt lat="41.52737" lon="-1.51042">
        <ele>457.583328</ele>
        <time>2022-02-22T13:59:49.421Z</time>
      </trkpt>
      <trkpt lat="41.52666" lon="-1.51009">
        <ele>455.353786</ele>
        <time>2022-02-22T14:00:04.277Z</time>
      </trkpt>
      <trkpt lat="41.52649" lon="-1.50992">
        <ele>455.509891</ele>
        <time>2022-02-22T14:00:09.294Z</time>
      </trkpt>
      <trkpt lat="41.52644" lon="-1.50975">
        <ele>455.616142</ele>
        <time>2022-02-22T14:00:12.592Z</time>
      </trkpt>
      <trkpt lat="41.52647" lon="-1.50904">
        <ele>456.016218</ele>
        <time>2022-02-22T14:00:27.426Z</time>
      </trkpt>
      <trkpt lat="41.52645" lon="-1.50859">
        <ele>456.275185</ele>
        <time>2022-02-22T14:00:37.420Z</time>
      </trkpt>
      <trkpt lat="41.52632" lon="-1.50817">
        <ele>456.531261</ele>
        <time>2022-02-22T14:00:47.354Z</time>
      </trkpt>
      <trkpt lat="41.52616" lon="-1.50783">
        <ele>456.762635</ele>
        <time>2022-02-22T14:00:56.176Z</time>
      </trkpt>
      <trkpt lat="41.52548" lon="-1.50695">
        <ele>457.490342</ele>
        <time>2022-02-22T14:01:21.760Z</time>
      </trkpt>
      <trkpt lat="41.52436" lon="-1.50562">
        <ele>457.462723</ele>
        <time>2022-02-22T14:01:56.637Z</time>
      </trkpt>
      <trkpt lat="41.52418" lon="-1.50533">
        <ele>457.261017</ele>
        <time>2022-02-22T14:02:02.587Z</time>
      </trkpt>
      <trkpt lat="41.52385" lon="-1.50441">
        <ele>456.590172</ele>
        <time>2022-02-22T14:02:17.269Z</time>
      </trkpt>
      <trkpt lat="41.5237" lon="-1.50415">
        <ele>455.804252</ele>
        <time>2022-02-22T14:02:21.628Z</time>
      </trkpt>
      <trkpt lat="41.52318" lon="-1.50379">
        <ele>453.916022</ele>
        <time>2022-02-22T14:02:31.753Z</time>
      </trkpt>
      <trkpt lat="41.52267" lon="-1.50334">
        <ele>451.933604</ele>
        <time>2022-02-22T14:02:41.951Z</time>
      </trkpt>
      <trkpt lat="41.52181" lon="-1.50244">
        <ele>448.037719</ele>
        <time>2022-02-22T14:02:59.691Z</time>
      </trkpt>
      <trkpt lat="41.52036" lon="-1.50014">
        <ele>441.045955</ele>
        <time>2022-02-22T14:03:38.069Z</time>
      </trkpt>
      <trkpt lat="41.51864" lon="-1.49755">
        <ele>437.205425</ele>
        <time>2022-02-22T14:04:28.686Z</time>
      </trkpt>
      <trkpt lat="41.51782" lon="-1.49711">
        <ele>436.194119</ele>
        <time>2022-02-22T14:04:47.205Z</time>
      </trkpt>
      <trkpt lat="41.51754" lon="-1.49701">
        <ele>435.870901</ele>
        <time>2022-02-22T14:04:52.746Z</time>
      </trkpt>
      <trkpt lat="41.51735" lon="-1.49704">
        <ele>435.648515</ele>
        <time>2022-02-22T14:04:56.496Z</time>
      </trkpt>
      <trkpt lat="41.51702" lon="-1.49725">
        <ele>434.919874</ele>
        <time>2022-02-22T14:05:03.345Z</time>
      </trkpt>
      <trkpt lat="41.51529" lon="-1.49857">
        <ele>428.591285</ele>
        <time>2022-02-22T14:05:37.441Z</time>
      </trkpt>
      <trkpt lat="41.51514" lon="-1.49862">
        <ele>427.988272</ele>
        <time>2022-02-22T14:05:39.819Z</time>
      </trkpt>
      <trkpt lat="41.515" lon="-1.49857">
        <ele>427.401092</ele>
        <time>2022-02-22T14:05:42.154Z</time>
      </trkpt>
      <trkpt lat="41.51433" lon="-1.4981">
        <ele>424.288563</ele>
        <time>2022-02-22T14:05:54.467Z</time>
      </trkpt>
      <trkpt lat="41.51416" lon="-1.49805">
        <ele>423.587565</ele>
        <time>2022-02-22T14:05:57.185Z</time>
      </trkpt>
      <trkpt lat="41.51375" lon="-1.49805">
        <ele>422.419053</ele>
        <time>2022-02-22T14:06:03.836Z</time>
      </trkpt>
      <trkpt lat="41.51351" lon="-1.49797">
        <ele>422.020831</ele>
        <time>2022-02-22T14:06:08.065Z</time>
      </trkpt>
      <trkpt lat="41.51332" lon="-1.4978">
        <ele>421.638955</ele>
        <time>2022-02-22T14:06:12.395Z</time>
      </trkpt>
      <trkpt lat="41.51301" lon="-1.49776">
        <ele>421.144853</ele>
        <time>2022-02-22T14:06:17.826Z</time>
      </trkpt>
      <trkpt lat="41.51286" lon="-1.49785">
        <ele>420.873553</ele>
        <time>2022-02-22T14:06:20.896Z</time>
      </trkpt>
      <trkpt lat="41.51257" lon="-1.49812">
        <ele>420.298122</ele>
        <time>2022-02-22T14:06:27.936Z</time>
      </trkpt>
      <trkpt lat="41.51214" lon="-1.49846">
        <ele>420.506563</ele>
        <time>2022-02-22T14:06:41.781Z</time>
      </trkpt>
      <trkpt lat="41.51188" lon="-1.49855">
        <ele>421.402579</ele>
        <time>2022-02-22T14:06:50.486Z</time>
      </trkpt>
      <trkpt lat="41.51104" lon="-1.49859">
        <ele>424.193938</ele>
        <time>2022-02-22T14:07:27.711Z</time>
      </trkpt>
      <trkpt lat="41.5107" lon="-1.49849">
        <ele>425.352386</ele>
        <time>2022-02-22T14:07:43.137Z</time>
      </trkpt>
      <trkpt lat="41.51007" lon="-1.49807">
        <ele>427.848604</ele>
        <time>2022-02-22T14:08:12.534Z</time>
      </trkpt>
      <trkpt lat="41.50972" lon="-1.4978">
        <ele>429.316873</ele>
        <time>2022-02-22T14:08:28.917Z</time>
      </trkpt>
      <trkpt lat="41.50933" lon="-1.49766">
        <ele>430.788244</ele>
        <time>2022-02-22T14:08:45.368Z</time>
      </trkpt>
      <trkpt lat="41.50843" lon="-1.4974">
        <ele>433.230925</ele>
        <time>2022-02-22T14:09:19.882Z</time>
      </trkpt>
      <trkpt lat="41.50784" lon="-1.49724">
        <ele>434.377415</ele>
        <time>2022-02-22T14:09:40.032Z</time>
      </trkpt>
      <trkpt lat="41.50762" lon="-1.49712">
        <ele>434.815266</ele>
        <time>2022-02-22T14:09:47.510Z</time>
      </trkpt>
      <trkpt lat="41.50724" lon="-1.49665">
        <ele>435.614365</ele>
        <time>2022-02-22T14:10:02.209Z</time>
      </trkpt>
      <trkpt lat="41.50501" lon="-1.49346">
        <ele>431.820477</ele>
        <time>2022-02-22T14:11:04.877Z</time>
      </trkpt>
      <trkpt lat="41.50397" lon="-1.49278">
        <ele>431.385621</ele>
        <time>2022-02-22T14:11:27.869Z</time>
      </trkpt>
      <trkpt lat="41.50278" lon="-1.49205">
        <ele>432.155628</ele>
        <time>2022-02-22T14:12:01.881Z</time>
      </trkpt>
      <trkpt lat="41.5012" lon="-1.49138">
        <ele>435.975114</ele>
        <time>2022-02-22T14:12:59.363Z</time>
      </trkpt>
      <trkpt lat="41.50082" lon="-1.49137">
        <ele>437.301635</ele>
        <time>2022-02-22T14:13:14.158Z</time>
      </trkpt>
      <trkpt lat="41.49973" lon="-1.49151">
        <ele>441.1144</ele>
        <time>2022-02-22T14:13:59.885Z</time>
      </trkpt>
      <trkpt lat="41.49663" lon="-1.49203">
        <ele>451.181108</ele>
        <time>2022-02-22T14:16:08.919Z</time>
      </trkpt>
      <trkpt lat="41.49616" lon="-1.49203">
        <ele>452.283438</ele>
        <time>2022-02-22T14:16:19.650Z</time>
      </trkpt>
      <trkpt lat="41.49582" lon="-1.49195">
        <ele>451.43673</ele>
        <time>2022-02-22T14:16:26.479Z</time>
      </trkpt>
      <trkpt lat="41.49566" lon="-1.49184">
        <ele>450.805391</ele>
        <time>2022-02-22T14:16:29.563Z</time>
      </trkpt>
      <trkpt lat="41.49524" lon="-1.49125">
        <ele>448.59104</ele>
        <time>2022-02-22T14:16:40.025Z</time>
      </trkpt>
      <trkpt lat="41.49504" lon="-1.49114">
        <ele>447.83247</ele>
        <time>2022-02-22T14:16:43.364Z</time>
      </trkpt>
      <trkpt lat="41.49478" lon="-1.49118">
        <ele>446.892053</ele>
        <time>2022-02-22T14:16:47.388Z</time>
      </trkpt>
      <trkpt lat="41.49415" lon="-1.4914">
        <ele>443.287371</ele>
        <time>2022-02-22T14:16:57.500Z</time>
      </trkpt>
      <trkpt lat="41.49391" lon="-1.49141">
        <ele>441.658721</ele>
        <time>2022-02-22T14:17:01.153Z</time>
      </trkpt>
      <trkpt lat="41.4929" lon="-1.49124">
        <ele>434.795191</ele>
        <time>2022-02-22T14:17:16.393Z</time>
      </trkpt>
      <trkpt lat="41.49264" lon="-1.49111">
        <ele>433.152381</ele>
        <time>2022-02-22T14:17:20.398Z</time>
      </trkpt>
      <trkpt lat="41.49241" lon="-1.49086">
        <ele>431.49651</ele>
        <time>2022-02-22T14:17:24.948Z</time>
      </trkpt>
      <trkpt lat="41.49174" lon="-1.48986">
        <ele>426.004838</ele>
        <time>2022-02-22T14:17:40.619Z</time>
      </trkpt>
      <trkpt lat="41.49072" lon="-1.4893">
        <ele>421.47507</ele>
        <time>2022-02-22T14:17:58.976Z</time>
      </trkpt>
      <trkpt lat="41.49045" lon="-1.4889">
        <ele>420.112365</ele>
        <time>2022-02-22T14:18:05.778Z</time>
      </trkpt>
      <trkpt lat="41.48978" lon="-1.48768">
        <ele>416.992509</ele>
        <time>2022-02-22T14:18:25.632Z</time>
      </trkpt>
      <trkpt lat="41.48916" lon="-1.4857">
        <ele>414.327129</ele>
        <time>2022-02-22T14:18:56.139Z</time>
      </trkpt>
      <trkpt lat="41.48856" lon="-1.48375">
        <ele>413.133241</ele>
        <time>2022-02-22T14:19:28.783Z</time>
      </trkpt>
      <trkpt lat="41.48828" lon="-1.48314">
        <ele>413.002913</ele>
        <time>2022-02-22T14:19:40.057Z</time>
      </trkpt>
      <trkpt lat="41.48797" lon="-1.48276">
        <ele>412.90226</ele>
        <time>2022-02-22T14:19:49.071Z</time>
      </trkpt>
      <trkpt lat="41.48771" lon="-1.48222">
        <ele>412.785982</ele>
        <time>2022-02-22T14:19:59.939Z</time>
      </trkpt>
      <trkpt lat="41.48751" lon="-1.48156">
        <ele>412.70636</ele>
        <time>2022-02-22T14:20:12.493Z</time>
      </trkpt>
      <trkpt lat="41.48711" lon="-1.48087">
        <ele>412.681365</ele>
        <time>2022-02-22T14:20:27.111Z</time>
      </trkpt>
      <trkpt lat="41.48688" lon="-1.48053">
        <ele>412.668331</ele>
        <time>2022-02-22T14:20:34.835Z</time>
      </trkpt>
      <trkpt lat="41.48678" lon="-1.48043">
        <ele>412.663609</ele>
        <time>2022-02-22T14:20:37.751Z</time>
      </trkpt>
      <trkpt lat="41.48671" lon="-1.48036">
        <ele>412.660114</ele>
        <time>2022-02-22T14:20:39.958Z</time>
      </trkpt>
      <trkpt lat="41.48658" lon="-1.48023">
        <ele>412.653705</ele>
        <time>2022-02-22T14:20:44.240Z</time>
      </trkpt>
      <trkpt lat="41.48644" lon="-1.4801">
        <ele>412.647307</ele>
        <time>2022-02-22T14:20:48.129Z</time>
      </trkpt>
      <trkpt lat="41.48637" lon="-1.48003">
        <ele>412.62713</ele>
        <time>2022-02-22T14:20:50.199Z</time>
      </trkpt>
      <trkpt lat="41.48604" lon="-1.47969">
        <ele>412.512572</ele>
        <time>2022-02-22T14:20:59.932Z</time>
      </trkpt>
      <trkpt lat="41.48584" lon="-1.47951">
        <ele>412.44549</ele>
        <time>2022-02-22T14:21:05.322Z</time>
      </trkpt>
      <trkpt lat="41.48579" lon="-1.47946">
        <ele>412.429801</ele>
        <time>2022-02-22T14:21:06.590Z</time>
      </trkpt>
      <trkpt lat="41.48558" lon="-1.47892">
        <ele>412.30562</ele>
        <time>2022-02-22T14:21:16.483Z</time>
      </trkpt>
      <trkpt lat="41.48539" lon="-1.47842">
        <ele>412.18952</ele>
        <time>2022-02-22T14:21:25.681Z</time>
      </trkpt>
      <trkpt lat="41.48463" lon="-1.47759">
        <ele>412.089412</ele>
        <time>2022-02-22T14:21:48.077Z</time>
      </trkpt>
      <trkpt lat="41.4842" lon="-1.47735">
        <ele>412.053922</ele>
        <time>2022-02-22T14:21:58.820Z</time>
      </trkpt>
      <trkpt lat="41.48405" lon="-1.47714">
        <ele>412.036996</ele>
        <time>2022-02-22T14:22:03.981Z</time>
      </trkpt>
      <trkpt lat="41.48393" lon="-1.4764">
        <ele>411.852714</ele>
        <time>2022-02-22T14:22:17.516Z</time>
      </trkpt>
      <trkpt lat="41.4833" lon="-1.47549">
        <ele>411.356603</ele>
        <time>2022-02-22T14:22:38.328Z</time>
      </trkpt>
      <trkpt lat="41.48296" lon="-1.47545">
        <ele>411.177965</ele>
        <time>2022-02-22T14:22:45.487Z</time>
      </trkpt>
      <trkpt lat="41.48208" lon="-1.47501">
        <ele>409.27584</ele>
        <time>2022-02-22T14:23:04.018Z</time>
      </trkpt>
      <trkpt lat="41.48174" lon="-1.47492">
        <ele>408.414278</ele>
        <time>2022-02-22T14:23:10.384Z</time>
      </trkpt>
      <trkpt lat="41.48137" lon="-1.47474">
        <ele>407.439048</ele>
        <time>2022-02-22T14:23:17.415Z</time>
      </trkpt>
      <trkpt lat="41.48035" lon="-1.47398">
        <ele>404.031439</ele>
        <time>2022-02-22T14:23:38.076Z</time>
      </trkpt>
      <trkpt lat="41.48026" lon="-1.47383">
        <ele>403.560181</ele>
        <time>2022-02-22T14:23:40.749Z</time>
      </trkpt>
      <trkpt lat="41.47949" lon="-1.47313">
        <ele>400.868047</ele>
        <time>2022-02-22T14:23:57.594Z</time>
      </trkpt>
      <trkpt lat="41.47935" lon="-1.4731">
        <ele>400.711574</ele>
        <time>2022-02-22T14:24:00.197Z</time>
      </trkpt>
      <trkpt lat="41.47907" lon="-1.47318">
        <ele>400.387266</ele>
        <time>2022-02-22T14:24:05.739Z</time>
      </trkpt>
      <trkpt lat="41.47885" lon="-1.47308">
        <ele>400.129464</ele>
        <time>2022-02-22T14:24:10.205Z</time>
      </trkpt>
      <trkpt lat="41.47842" lon="-1.47293">
        <ele>399.631317</ele>
        <time>2022-02-22T14:24:19.274Z</time>
      </trkpt>
      <trkpt lat="41.47785" lon="-1.47256">
        <ele>399.066927</ele>
        <time>2022-02-22T14:24:33.871Z</time>
      </trkpt>
      <trkpt lat="41.47764" lon="-1.47258">
        <ele>399.54973</ele>
        <time>2022-02-22T14:24:40.484Z</time>
      </trkpt>
      <trkpt lat="41.47755" lon="-1.47268">
        <ele>399.83371</ele>
        <time>2022-02-22T14:24:43.714Z</time>
      </trkpt>
      <trkpt lat="41.47703" lon="-1.47347">
        <ele>401.697538</ele>
        <time>2022-02-22T14:25:10.302Z</time>
      </trkpt>
      <trkpt lat="41.47694" lon="-1.4735">
        <ele>401.902709</ele>
        <time>2022-02-22T14:25:14.018Z</time>
      </trkpt>
      <trkpt lat="41.47657" lon="-1.47348">
        <ele>402.796298</ele>
        <time>2022-02-22T14:25:29.248Z</time>
      </trkpt>
      <trkpt lat="41.47592" lon="-1.47363">
        <ele>405.624151</ele>
        <time>2022-02-22T14:25:57.556Z</time>
      </trkpt>
      <trkpt lat="41.47541" lon="-1.47352">
        <ele>408.247267</ele>
        <time>2022-02-22T14:26:23.301Z</time>
      </trkpt>
      <trkpt lat="41.47427" lon="-1.47377">
        <ele>414.341663</ele>
        <time>2022-02-22T14:27:23.227Z</time>
      </trkpt>
      <trkpt lat="41.47416" lon="-1.4738">
        <ele>414.959648</ele>
        <time>2022-02-22T14:27:29.242Z</time>
      </trkpt>
      <trkpt lat="41.47399" lon="-1.47369">
        <ele>416.010803</ele>
        <time>2022-02-22T14:27:39.267Z</time>
      </trkpt>
      <trkpt lat="41.47386" lon="-1.47401">
        <ele>417.587035</ele>
        <time>2022-02-22T14:27:54.368Z</time>
      </trkpt>
      <trkpt lat="41.47364" lon="-1.47385">
        <ele>419.014294</ele>
        <time>2022-02-22T14:28:07.539Z</time>
      </trkpt>
      <trkpt lat="41.47315" lon="-1.4737">
        <ele>421.828908</ele>
        <time>2022-02-22T14:28:32.244Z</time>
      </trkpt>
      <trkpt lat="41.47304" lon="-1.47398">
        <ele>423.026704</ele>
        <time>2022-02-22T14:28:43.119Z</time>
      </trkpt>
      <trkpt lat="41.47262" lon="-1.47367">
        <ele>425.250752</ele>
        <time>2022-02-22T14:29:06.399Z</time>
      </trkpt>
      <trkpt lat="41.47234" lon="-1.47348">
        <ele>426.711212</ele>
        <time>2022-02-22T14:29:21.084Z</time>
      </trkpt>
      <trkpt lat="41.47217" lon="-1.47366">
        <ele>427.700262</ele>
        <time>2022-02-22T14:29:31.116Z</time>
      </trkpt>
      <trkpt lat="41.47188" lon="-1.47389">
        <ele>429.265192</ele>
        <time>2022-02-22T14:29:47.355Z</time>
      </trkpt>
      <trkpt lat="41.47192" lon="-1.47403">
        <ele>429.788058</ele>
        <time>2022-02-22T14:29:52.640Z</time>
      </trkpt>
      <trkpt lat="41.47188" lon="-1.47402">
        <ele>429.934439</ele>
        <time>2022-02-22T14:29:54.118Z</time>
      </trkpt>
      <trkpt lat="41.47184" lon="-1.47402">
        <ele>430.160765</ele>
        <time>2022-02-22T14:29:56.235Z</time>
      </trkpt>
      <trkpt lat="41.47154" lon="-1.47401">
        <ele>431.246889</ele>
        <time>2022-02-22T14:30:08.511Z</time>
      </trkpt>
      <trkpt lat="41.47077" lon="-1.47406">
        <ele>433.389139</ele>
        <time>2022-02-22T14:30:36.788Z</time>
      </trkpt>
      <trkpt lat="41.47062" lon="-1.47407">
        <ele>433.804712</ele>
        <time>2022-02-22T14:30:42.124Z</time>
      </trkpt>
      <trkpt lat="41.47037" lon="-1.47385">
        <ele>434.633241</ele>
        <time>2022-02-22T14:30:52.264Z</time>
      </trkpt>
      <trkpt lat="41.4698" lon="-1.47315">
        <ele>436.55038</ele>
        <time>2022-02-22T14:31:17.374Z</time>
      </trkpt>
      <trkpt lat="41.46949" lon="-1.47303">
        <ele>437.253742</ele>
        <time>2022-02-22T14:31:27.191Z</time>
      </trkpt>
      <trkpt lat="41.46937" lon="-1.47301">
        <ele>437.493525</ele>
        <time>2022-02-22T14:31:30.706Z</time>
      </trkpt>
      <trkpt lat="41.46812" lon="-1.47277">
        <ele>440.546906</ele>
        <time>2022-02-22T14:32:12.732Z</time>
      </trkpt>
      <trkpt lat="41.46755" lon="-1.47253">
        <ele>442.623431</ele>
        <time>2022-02-22T14:32:36.823Z</time>
      </trkpt>
      <trkpt lat="41.4675" lon="-1.47249">
        <ele>442.850503</ele>
        <time>2022-02-22T14:32:39.262Z</time>
      </trkpt>
      <trkpt lat="41.46664" lon="-1.47154">
        <ele>447.120455</ele>
        <time>2022-02-22T14:33:26.090Z</time>
      </trkpt>
      <trkpt lat="41.46647" lon="-1.47133">
        <ele>448.278707</ele>
        <time>2022-02-22T14:33:36.343Z</time>
      </trkpt>
      <trkpt lat="41.46626" lon="-1.47106">
        <ele>449.714439</ele>
        <time>2022-02-22T14:33:48.952Z</time>
      </trkpt>
      <trkpt lat="41.46488" lon="-1.46932">
        <ele>459.494842</ele>
        <time>2022-02-22T14:35:24.458Z</time>
      </trkpt>
      <trkpt lat="41.46452" lon="-1.46888">
        <ele>462.073552</ele>
        <time>2022-02-22T14:35:47.934Z</time>
      </trkpt>
      <trkpt lat="41.46393" lon="-1.46815">
        <ele>466.122111</ele>
        <time>2022-02-22T14:36:26.183Z</time>
      </trkpt>
      <trkpt lat="41.46358" lon="-1.46769">
        <ele>468.34571</ele>
        <time>2022-02-22T14:36:49.119Z</time>
      </trkpt>
      <trkpt lat="41.46234" lon="-1.46605">
        <ele>476.874577</ele>
        <time>2022-02-22T14:38:05.391Z</time>
      </trkpt>
      <trkpt lat="41.46173" lon="-1.46551">
        <ele>480.715277</ele>
        <time>2022-02-22T14:38:41.804Z</time>
      </trkpt>
      <trkpt lat="41.46143" lon="-1.46533">
        <ele>482.545575</ele>
        <time>2022-02-22T14:38:59.470Z</time>
      </trkpt>
      <trkpt lat="41.4606" lon="-1.46502">
        <ele>489.013972</ele>
        <time>2022-02-22T14:39:50.871Z</time>
      </trkpt>
      <trkpt lat="41.4598" lon="-1.46495">
        <ele>494.962088</ele>
        <time>2022-02-22T14:40:41.338Z</time>
      </trkpt>
      <trkpt lat="41.45969" lon="-1.46495">
        <ele>495.719736</ele>
        <time>2022-02-22T14:40:47.500Z</time>
      </trkpt>
      <trkpt lat="41.45906" lon="-1.46496">
        <ele>499.521941</ele>
        <time>2022-02-22T14:41:24.563Z</time>
      </trkpt>
      <trkpt lat="41.45875" lon="-1.46502">
        <ele>501.444213</ele>
        <time>2022-02-22T14:41:42.507Z</time>
      </trkpt>
      <trkpt lat="41.45856" lon="-1.46522">
        <ele>502.865443</ele>
        <time>2022-02-22T14:41:54.798Z</time>
      </trkpt>
      <trkpt lat="41.45849" lon="-1.4654">
        <ele>503.820734</ele>
        <time>2022-02-22T14:42:02.003Z</time>
      </trkpt>
      <trkpt lat="41.45828" lon="-1.46547">
        <ele>505.124554</ele>
        <time>2022-02-22T14:42:12.126Z</time>
      </trkpt>
      <trkpt lat="41.45813" lon="-1.46533">
        <ele>506.226958</ele>
        <time>2022-02-22T14:42:19.672Z</time>
      </trkpt>
      <trkpt lat="41.45793" lon="-1.46521">
        <ele>507.040655</ele>
        <time>2022-02-22T14:42:28.987Z</time>
      </trkpt>
      <trkpt lat="41.4577" lon="-1.46521">
        <ele>507.761093</ele>
        <time>2022-02-22T14:42:37.330Z</time>
      </trkpt>
      <trkpt lat="41.45696" lon="-1.46564">
        <ele>510.319462</ele>
        <time>2022-02-22T14:43:06.346Z</time>
      </trkpt>
      <trkpt lat="41.45658" lon="-1.46578">
        <ele>511.595287</ele>
        <time>2022-02-22T14:43:23.457Z</time>
      </trkpt>
      <trkpt lat="41.45433" lon="-1.46623">
        <ele>515.645903</ele>
        <time>2022-02-22T14:44:39.308Z</time>
      </trkpt>
      <trkpt lat="41.45373" lon="-1.46633">
        <ele>514.850684</ele>
        <time>2022-02-22T14:44:51.417Z</time>
      </trkpt>
      <trkpt lat="41.45352" lon="-1.46618">
        <ele>514.534938</ele>
        <time>2022-02-22T14:44:55.829Z</time>
      </trkpt>
      <trkpt lat="41.4534" lon="-1.46596">
        <ele>514.270946</ele>
        <time>2022-02-22T14:44:59.337Z</time>
      </trkpt>
      <trkpt lat="41.45309" lon="-1.46492">
        <ele>512.086955</ele>
        <time>2022-02-22T14:45:13.231Z</time>
      </trkpt>
      <trkpt lat="41.45297" lon="-1.46401">
        <ele>509.203586</ele>
        <time>2022-02-22T14:45:24.716Z</time>
      </trkpt>
      <trkpt lat="41.4528" lon="-1.46322">
        <ele>506.663856</ele>
        <time>2022-02-22T14:45:34.491Z</time>
      </trkpt>
      <trkpt lat="41.45243" lon="-1.46218">
        <ele>502.788174</ele>
        <time>2022-02-22T14:45:48.463Z</time>
      </trkpt>
      <trkpt lat="41.45227" lon="-1.46162">
        <ele>500.778322</ele>
        <time>2022-02-22T14:45:55.553Z</time>
      </trkpt>
      <trkpt lat="41.4521" lon="-1.46055">
        <ele>497.589996</ele>
        <time>2022-02-22T14:46:09.034Z</time>
      </trkpt>
      <trkpt lat="41.45197" lon="-1.46019">
        <ele>496.949604</ele>
        <time>2022-02-22T14:46:13.939Z</time>
      </trkpt>
      <trkpt lat="41.45167" lon="-1.45971">
        <ele>495.951086</ele>
        <time>2022-02-22T14:46:22.051Z</time>
      </trkpt>
      <trkpt lat="41.45138" lon="-1.45944">
        <ele>495.176613</ele>
        <time>2022-02-22T14:46:28.518Z</time>
      </trkpt>
      <trkpt lat="41.45119" lon="-1.45935">
        <ele>494.745742</ele>
        <time>2022-02-22T14:46:32.061Z</time>
      </trkpt>
      <trkpt lat="41.44953" lon="-1.45902">
        <ele>496.41592</ele>
        <time>2022-02-22T14:47:23.424Z</time>
      </trkpt>
      <trkpt lat="41.4493" lon="-1.4591">
        <ele>496.788015</ele>
        <time>2022-02-22T14:47:32.207Z</time>
      </trkpt>
      <trkpt lat="41.44915" lon="-1.45921">
        <ele>497.046499</ele>
        <time>2022-02-22T14:47:37.596Z</time>
      </trkpt>
      <trkpt lat="41.44903" lon="-1.45917">
        <ele>497.179609</ele>
        <time>2022-02-22T14:47:42.120Z</time>
      </trkpt>
      <trkpt lat="41.44897" lon="-1.45907">
        <ele>497.287192</ele>
        <time>2022-02-22T14:47:44.662Z</time>
      </trkpt>
      <trkpt lat="41.44876" lon="-1.45889">
        <ele>497.563042</ele>
        <time>2022-02-22T14:47:53.235Z</time>
      </trkpt>
      <trkpt lat="41.44769" lon="-1.45871">
        <ele>498.761581</ele>
        <time>2022-02-22T14:48:26.507Z</time>
      </trkpt>
      <trkpt lat="41.44714" lon="-1.4588">
        <ele>498.690354</ele>
        <time>2022-02-22T14:48:36.720Z</time>
      </trkpt>
      <trkpt lat="41.44675" lon="-1.45903">
        <ele>498.301707</ele>
        <time>2022-02-22T14:48:43.919Z</time>
      </trkpt>
      <trkpt lat="41.44553" lon="-1.45999">
        <ele>498.127188</ele>
        <time>2022-02-22T14:49:13.872Z</time>
      </trkpt>
      <trkpt lat="41.44538" lon="-1.46025">
        <ele>498.636089</ele>
        <time>2022-02-22T14:49:21.900Z</time>
      </trkpt>
      <trkpt lat="41.44537" lon="-1.46035">
        <ele>498.789316</ele>
        <time>2022-02-22T14:49:24.171Z</time>
      </trkpt>
      <trkpt lat="41.44531" lon="-1.46046">
        <ele>498.985675</ele>
        <time>2022-02-22T14:49:27.332Z</time>
      </trkpt>
      <trkpt lat="41.4452" lon="-1.46051">
        <ele>499.231015</ele>
        <time>2022-02-22T14:49:31.589Z</time>
      </trkpt>
      <trkpt lat="41.44504" lon="-1.46042">
        <ele>499.59156</ele>
        <time>2022-02-22T14:49:37.594Z</time>
      </trkpt>
      <trkpt lat="41.44501" lon="-1.4602">
        <ele>499.951908</ele>
        <time>2022-02-22T14:49:44.095Z</time>
      </trkpt>
      <trkpt lat="41.44494" lon="-1.45987">
        <ele>500.477211</ele>
        <time>2022-02-22T14:49:53.691Z</time>
      </trkpt>
      <trkpt lat="41.44455" lon="-1.45932">
        <ele>501.735229</ele>
        <time>2022-02-22T14:50:17.341Z</time>
      </trkpt>
      <trkpt lat="41.44407" lon="-1.45883">
        <ele>503.164053</ele>
        <time>2022-02-22T14:50:41.639Z</time>
      </trkpt>
      <trkpt lat="41.44361" lon="-1.45848">
        <ele>504.432164</ele>
        <time>2022-02-22T14:51:00.476Z</time>
      </trkpt>
      <trkpt lat="41.44318" lon="-1.45825">
        <ele>505.178761</ele>
        <time>2022-02-22T14:51:11.936Z</time>
      </trkpt>
      <trkpt lat="41.44231" lon="-1.45795">
        <ele>503.585305</ele>
        <time>2022-02-22T14:51:28.960Z</time>
      </trkpt>
      <trkpt lat="41.44016" lon="-1.45751">
        <ele>498.912734</ele>
        <time>2022-02-22T14:52:06.730Z</time>
      </trkpt>
      <trkpt lat="41.43912" lon="-1.45712">
        <ele>497.282841</ele>
        <time>2022-02-22T14:52:28.066Z</time>
      </trkpt>
      <trkpt lat="41.43818" lon="-1.45661">
        <ele>496.334691</ele>
        <time>2022-02-22T14:52:49.966Z</time>
      </trkpt>
      <trkpt lat="41.4325" lon="-1.45323">
        <ele>483.963013</ele>
        <time>2022-02-22T14:54:42.941Z</time>
      </trkpt>
      <trkpt lat="41.43162" lon="-1.45295">
        <ele>482.627879</ele>
        <time>2022-02-22T14:55:00.501Z</time>
      </trkpt>
      <trkpt lat="41.43114" lon="-1.4529">
        <ele>482.3477</ele>
        <time>2022-02-22T14:55:10.345Z</time>
      </trkpt>
      <trkpt lat="41.43031" lon="-1.45293">
        <ele>482.447402</ele>
        <time>2022-02-22T14:55:28.489Z</time>
      </trkpt>
      <trkpt lat="41.42818" lon="-1.45324">
        <ele>484.255333</ele>
        <time>2022-02-22T14:56:25.906Z</time>
      </trkpt>
      <trkpt lat="41.42525" lon="-1.45358">
        <ele>489.63344</ele>
        <time>2022-02-22T14:58:03.088Z</time>
      </trkpt>
      <trkpt lat="41.42464" lon="-1.45367">
        <ele>490.522698</ele>
        <time>2022-02-22T14:58:20.303Z</time>
      </trkpt>
      <trkpt lat="41.42138" lon="-1.45497">
        <ele>494.084606</ele>
        <time>2022-02-22T14:59:46.572Z</time>
      </trkpt>
      <trkpt lat="41.42059" lon="-1.45472">
        <ele>495.88948</ele>
        <time>2022-02-22T15:00:16.969Z</time>
      </trkpt>
      <trkpt lat="41.42007" lon="-1.45464">
        <ele>498.070787</ele>
        <time>2022-02-22T15:00:38.625Z</time>
      </trkpt>
      <trkpt lat="41.41943" lon="-1.4546">
        <ele>500.694185</ele>
        <time>2022-02-22T15:01:07.678Z</time>
      </trkpt>
      <trkpt lat="41.41887" lon="-1.45471">
        <ele>502.789064</ele>
        <time>2022-02-22T15:01:33.532Z</time>
      </trkpt>
      <trkpt lat="41.41872" lon="-1.45468">
        <ele>503.156334</ele>
        <time>2022-02-22T15:01:40.692Z</time>
      </trkpt>
      <trkpt lat="41.41841" lon="-1.45455">
        <ele>503.956848</ele>
        <time>2022-02-22T15:01:56.402Z</time>
      </trkpt>
      <trkpt lat="41.41814" lon="-1.45429">
        <ele>504.75337</ele>
        <time>2022-02-22T15:02:09.458Z</time>
      </trkpt>
      <trkpt lat="41.41778" lon="-1.45334">
        <ele>506.708206</ele>
        <time>2022-02-22T15:02:30.649Z</time>
      </trkpt>
      <trkpt lat="41.41701" lon="-1.45079">
        <ele>503.992304</ele>
        <time>2022-02-22T15:03:09.601Z</time>
      </trkpt>
      <trkpt lat="41.41679" lon="-1.45007">
        <ele>503.04952</ele>
        <time>2022-02-22T15:03:19.991Z</time>
      </trkpt>
      <trkpt lat="41.41667" lon="-1.44985">
        <ele>502.716337</ele>
        <time>2022-02-22T15:03:23.655Z</time>
      </trkpt>
      <trkpt lat="41.41626" lon="-1.44941">
        <ele>501.86695</ele>
        <time>2022-02-22T15:03:33.343Z</time>
      </trkpt>
      <trkpt lat="41.41541" lon="-1.44865">
        <ele>502.525163</ele>
        <time>2022-02-22T15:03:57.610Z</time>
      </trkpt>
      <trkpt lat="41.41483" lon="-1.4479">
        <ele>503.689357</ele>
        <time>2022-02-22T15:04:24.677Z</time>
      </trkpt>
      <trkpt lat="41.4143" lon="-1.44773">
        <ele>504.945695</ele>
        <time>2022-02-22T15:04:44.676Z</time>
      </trkpt>
      <trkpt lat="41.41387" lon="-1.44773">
        <ele>506.234608</ele>
        <time>2022-02-22T15:05:01.737Z</time>
      </trkpt>
      <trkpt lat="41.41367" lon="-1.44766">
        <ele>506.845966</ele>
        <time>2022-02-22T15:05:09.796Z</time>
      </trkpt>
      <trkpt lat="41.41332" lon="-1.44732">
        <ele>508.127459</ele>
        <time>2022-02-22T15:05:26.396Z</time>
      </trkpt>
      <trkpt lat="41.4131" lon="-1.4468">
        <ele>509.43465</ele>
        <time>2022-02-22T15:05:42.287Z</time>
      </trkpt>
      <trkpt lat="41.4129" lon="-1.4466">
        <ele>510.009554</ele>
        <time>2022-02-22T15:05:50.500Z</time>
      </trkpt>
      <trkpt lat="41.4116" lon="-1.44613">
        <ele>513.12306</ele>
        <time>2022-02-22T15:06:35.285Z</time>
      </trkpt>
      <trkpt lat="41.4105" lon="-1.44551">
        <ele>516.304299</ele>
        <time>2022-02-22T15:07:15.626Z</time>
      </trkpt>
      <trkpt lat="41.40963" lon="-1.44488">
        <ele>519.455173</ele>
        <time>2022-02-22T15:07:52.021Z</time>
      </trkpt>
      <trkpt lat="41.40778" lon="-1.44415">
        <ele>529.294863</ele>
        <time>2022-02-22T15:09:25.818Z</time>
      </trkpt>
      <trkpt lat="41.40663" lon="-1.44343">
        <ele>536.959162</ele>
        <time>2022-02-22T15:10:37.732Z</time>
      </trkpt>
      <trkpt lat="41.40594" lon="-1.44308">
        <ele>539.17084</ele>
        <time>2022-02-22T15:11:11.812Z</time>
      </trkpt>
      <trkpt lat="41.40513" lon="-1.44289">
        <ele>540.803599</ele>
        <time>2022-02-22T15:11:37.284Z</time>
      </trkpt>
      <trkpt lat="41.40446" lon="-1.44292">
        <ele>541.058915</ele>
        <time>2022-02-22T15:11:50.348Z</time>
      </trkpt>
      <trkpt lat="41.40263" lon="-1.44321">
        <ele>537.042902</ele>
        <time>2022-02-22T15:12:22.472Z</time>
      </trkpt>
      <trkpt lat="41.4018" lon="-1.44317">
        <ele>535.675145</ele>
        <time>2022-02-22T15:12:38.128Z</time>
      </trkpt>
      <trkpt lat="41.40114" lon="-1.44303">
        <ele>534.595237</ele>
        <time>2022-02-22T15:12:51.510Z</time>
      </trkpt>
      <trkpt lat="41.39811" lon="-1.44268">
        <ele>530.71285</ele>
        <time>2022-02-22T15:13:51.980Z</time>
      </trkpt>
      <trkpt lat="41.39734" lon="-1.4422">
        <ele>529.404265</ele>
        <time>2022-02-22T15:14:06.480Z</time>
      </trkpt>
      <trkpt lat="41.39688" lon="-1.44148">
        <ele>528.470272</ele>
        <time>2022-02-22T15:14:19.510Z</time>
      </trkpt>
      <trkpt lat="41.39647" lon="-1.44148">
        <ele>527.927146</ele>
        <time>2022-02-22T15:14:27.421Z</time>
      </trkpt>
      <trkpt lat="41.39566" lon="-1.44162">
        <ele>528.203207</ele>
        <time>2022-02-22T15:14:48.117Z</time>
      </trkpt>
      <trkpt lat="41.39494" lon="-1.44119">
        <ele>529.709834</ele>
        <time>2022-02-22T15:15:15.132Z</time>
      </trkpt>
      <trkpt lat="41.39483" lon="-1.44115">
        <ele>529.928746</ele>
        <time>2022-02-22T15:15:19.408Z</time>
      </trkpt>
      <trkpt lat="41.39439" lon="-1.44121">
        <ele>530.762924</ele>
        <time>2022-02-22T15:15:34.930Z</time>
      </trkpt>
      <trkpt lat="41.39397" lon="-1.44128">
        <ele>531.972039</ele>
        <time>2022-02-22T15:15:48.973Z</time>
      </trkpt>
      <trkpt lat="41.39336" lon="-1.4415">
        <ele>533.808892</ele>
        <time>2022-02-22T15:16:13.084Z</time>
      </trkpt>
      <trkpt lat="41.39282" lon="-1.44195">
        <ele>535.662327</ele>
        <time>2022-02-22T15:16:36.978Z</time>
      </trkpt>
      <trkpt lat="41.39232" lon="-1.44239">
        <ele>537.348217</ele>
        <time>2022-02-22T15:16:59.131Z</time>
      </trkpt>
      <trkpt lat="41.39215" lon="-1.44249">
        <ele>537.871937</ele>
        <time>2022-02-22T15:17:06.029Z</time>
      </trkpt>
      <trkpt lat="41.39176" lon="-1.44256">
        <ele>538.982749</ele>
        <time>2022-02-22T15:17:20.832Z</time>
      </trkpt>
      <trkpt lat="41.3913" lon="-1.44231">
        <ele>540.389965</ele>
        <time>2022-02-22T15:17:40.066Z</time>
      </trkpt>
      <trkpt lat="41.39077" lon="-1.44192">
        <ele>541.574179</ele>
        <time>2022-02-22T15:17:59.603Z</time>
      </trkpt>
      <trkpt lat="41.38989" lon="-1.44172">
        <ele>542.787578</ele>
        <time>2022-02-22T15:18:24.731Z</time>
      </trkpt>
      <trkpt lat="41.38934" lon="-1.44108">
        <ele>543.635308</ele>
        <time>2022-02-22T15:18:44.369Z</time>
      </trkpt>
      <trkpt lat="41.38884" lon="-1.44076">
        <ele>543.942707</ele>
        <time>2022-02-22T15:18:57.825Z</time>
      </trkpt>
      <trkpt lat="41.38559" lon="-1.43959">
        <ele>546.114251</ele>
        <time>2022-02-22T15:20:21.086Z</time>
      </trkpt>
      <trkpt lat="41.38477" lon="-1.43976">
        <ele>547.175341</ele>
        <time>2022-02-22T15:20:43.921Z</time>
      </trkpt>
      <trkpt lat="41.38457" lon="-1.43988">
        <ele>547.464421</ele>
        <time>2022-02-22T15:20:50.814Z</time>
      </trkpt>
      <trkpt lat="41.38406" lon="-1.44033">
        <ele>549.26292</ele>
        <time>2022-02-22T15:21:11.269Z</time>
      </trkpt>
      <trkpt lat="41.38245" lon="-1.44046">
        <ele>556.091933</ele>
        <time>2022-02-22T15:22:23.807Z</time>
      </trkpt>
      <trkpt lat="41.38224" lon="-1.44039">
        <ele>557.295972</ele>
        <time>2022-02-22T15:22:36.168Z</time>
      </trkpt>
      <trkpt lat="41.38098" lon="-1.43942">
        <ele>565.274069</ele>
        <time>2022-02-22T15:23:50.064Z</time>
      </trkpt>
      <trkpt lat="41.38063" lon="-1.43905">
        <ele>567.417502</ele>
        <time>2022-02-22T15:24:11.382Z</time>
      </trkpt>
      <trkpt lat="41.37997" lon="-1.43879">
        <ele>570.682667</ele>
        <time>2022-02-22T15:24:44.657Z</time>
      </trkpt>
      <trkpt lat="41.37982" lon="-1.43867">
        <ele>571.538909</ele>
        <time>2022-02-22T15:24:53.011Z</time>
      </trkpt>
      <trkpt lat="41.37876" lon="-1.43613">
        <ele>578.302247</ele>
        <time>2022-02-22T15:26:20.033Z</time>
      </trkpt>
      <trkpt lat="41.37875" lon="-1.43584">
        <ele>578.068707</ele>
        <time>2022-02-22T15:26:23.746Z</time>
      </trkpt>
      <trkpt lat="41.37893" lon="-1.43509">
        <ele>576.460647</ele>
        <time>2022-02-22T15:26:34.092Z</time>
      </trkpt>
      <trkpt lat="41.37914" lon="-1.43441">
        <ele>574.960052</ele>
        <time>2022-02-22T15:26:43.144Z</time>
      </trkpt>
      <trkpt lat="41.37912" lon="-1.43413">
        <ele>574.406204</ele>
        <time>2022-02-22T15:26:46.321Z</time>
      </trkpt>
      <trkpt lat="41.37895" lon="-1.4337">
        <ele>573.588659</ele>
        <time>2022-02-22T15:26:52.558Z</time>
      </trkpt>
      <trkpt lat="41.37842" lon="-1.43307">
        <ele>573.396101</ele>
        <time>2022-02-22T15:27:06.118Z</time>
      </trkpt>
      <trkpt lat="41.37816" lon="-1.43296">
        <ele>573.322414</ele>
        <time>2022-02-22T15:27:12.501Z</time>
      </trkpt>
      <trkpt lat="41.37719" lon="-1.43323">
        <ele>573.699945</ele>
        <time>2022-02-22T15:27:42.627Z</time>
      </trkpt>
      <trkpt lat="41.37691" lon="-1.43323">
        <ele>574.347235</ele>
        <time>2022-02-22T15:27:52.209Z</time>
      </trkpt>
      <trkpt lat="41.37664" lon="-1.43305">
        <ele>575.040465</ele>
        <time>2022-02-22T15:28:02.640Z</time>
      </trkpt>
      <trkpt lat="41.37599" lon="-1.43222">
        <ele>577.135223</ele>
        <time>2022-02-22T15:28:32.415Z</time>
      </trkpt>
      <trkpt lat="41.37495" lon="-1.43207">
        <ele>582.24311</ele>
        <time>2022-02-22T15:29:13.737Z</time>
      </trkpt>
      <trkpt lat="41.37409" lon="-1.43138">
        <ele>588.300002</ele>
        <time>2022-02-22T15:30:08.253Z</time>
      </trkpt>
      <trkpt lat="41.37315" lon="-1.43077">
        <ele>599.508494</ele>
        <time>2022-02-22T15:31:29.845Z</time>
      </trkpt>
      <trkpt lat="41.37267" lon="-1.43032">
        <ele>605.826414</ele>
        <time>2022-02-22T15:32:16.654Z</time>
      </trkpt>
      <trkpt lat="41.37221" lon="-1.43029">
        <ele>611.705485</ele>
        <time>2022-02-22T15:32:59.859Z</time>
      </trkpt>
      <trkpt lat="41.37191" lon="-1.42993">
        <ele>616.969844</ele>
        <time>2022-02-22T15:33:37.165Z</time>
      </trkpt>
      <trkpt lat="41.37149" lon="-1.42981">
        <ele>622.48616</ele>
        <time>2022-02-22T15:34:17.642Z</time>
      </trkpt>
      <trkpt lat="41.37131" lon="-1.42968">
        <ele>625.084806</ele>
        <time>2022-02-22T15:34:37.324Z</time>
      </trkpt>
      <trkpt lat="41.3712" lon="-1.42941">
        <ele>628.056299</ele>
        <time>2022-02-22T15:34:57.177Z</time>
      </trkpt>
      <trkpt lat="41.37054" lon="-1.43021">
        <ele>633.870199</ele>
        <time>2022-02-22T15:35:56.031Z</time>
      </trkpt>
      <trkpt lat="41.37048" lon="-1.43047">
        <ele>635.134145</ele>
        <time>2022-02-22T15:36:07.927Z</time>
      </trkpt>
      <trkpt lat="41.37037" lon="-1.43069">
        <ele>636.363588</ele>
        <time>2022-02-22T15:36:18.864Z</time>
      </trkpt>
      <trkpt lat="41.3702" lon="-1.43064">
        <ele>637.41996</ele>
        <time>2022-02-22T15:36:25.453Z</time>
      </trkpt>
      <trkpt lat="41.37006" lon="-1.43142">
        <ele>639.166557</ele>
        <time>2022-02-22T15:36:42.181Z</time>
      </trkpt>
      <trkpt lat="41.36962" lon="-1.43154">
        <ele>637.775962</ele>
        <time>2022-02-22T15:36:50.492Z</time>
      </trkpt>
      <trkpt lat="41.36906" lon="-1.43211">
        <ele>635.625043</ele>
        <time>2022-02-22T15:37:01.715Z</time>
      </trkpt>
      <trkpt lat="41.36842" lon="-1.4332">
        <ele>633.133307</ele>
        <time>2022-02-22T15:37:18.142Z</time>
      </trkpt>
      <trkpt lat="41.36829" lon="-1.4334">
        <ele>632.760806</ele>
        <time>2022-02-22T15:37:21.695Z</time>
      </trkpt>
      <trkpt lat="41.36809" lon="-1.43357">
        <ele>632.306989</ele>
        <time>2022-02-22T15:37:25.845Z</time>
      </trkpt>
      <trkpt lat="41.3679" lon="-1.43383">
        <ele>631.78916</ele>
        <time>2022-02-22T15:37:31.415Z</time>
      </trkpt>
      <trkpt lat="41.36734" lon="-1.43438">
        <ele>631.874078</ele>
        <time>2022-02-22T15:37:49.521Z</time>
      </trkpt>
      <trkpt lat="41.36599" lon="-1.43545">
        <ele>639.450256</ele>
        <time>2022-02-22T15:39:07.154Z</time>
      </trkpt>
      <trkpt lat="41.36576" lon="-1.43578">
        <ele>641.962573</ele>
        <time>2022-02-22T15:39:27.359Z</time>
      </trkpt>
      <trkpt lat="41.36557" lon="-1.43606">
        <ele>644.199755</ele>
        <time>2022-02-22T15:39:45.903Z</time>
      </trkpt>
      <trkpt lat="41.36527" lon="-1.43615">
        <ele>646.517088</ele>
        <time>2022-02-22T15:40:05.136Z</time>
      </trkpt>
      <trkpt lat="41.36513" lon="-1.43599">
        <ele>647.919755</ele>
        <time>2022-02-22T15:40:17.531Z</time>
      </trkpt>
      <trkpt lat="41.36507" lon="-1.43577">
        <ele>649.290127</ele>
        <time>2022-02-22T15:40:28.805Z</time>
      </trkpt>
      <trkpt lat="41.36509" lon="-1.43532">
        <ele>651.878283</ele>
        <time>2022-02-22T15:40:50.094Z</time>
      </trkpt>
      <trkpt lat="41.36531" lon="-1.43483">
        <ele>654.444812</ele>
        <time>2022-02-22T15:41:16.760Z</time>
      </trkpt>
      <trkpt lat="41.36561" lon="-1.43441">
        <ele>656.567849</ele>
        <time>2022-02-22T15:41:38.155Z</time>
      </trkpt>
      <trkpt lat="41.36611" lon="-1.43342">
        <ele>660.825524</ele>
        <time>2022-02-22T15:42:16.848Z</time>
      </trkpt>
      <trkpt lat="41.36652" lon="-1.4329">
        <ele>662.070317</ele>
        <time>2022-02-22T15:42:37.380Z</time>
      </trkpt>
      <trkpt lat="41.36668" lon="-1.4324">
        <ele>662.216447</ele>
        <time>2022-02-22T15:42:47.304Z</time>
      </trkpt>
      <trkpt lat="41.36667" lon="-1.43184">
        <ele>662.365831</ele>
        <time>2022-02-22T15:42:56.514Z</time>
      </trkpt>
      <trkpt lat="41.36683" lon="-1.4312">
        <ele>662.543822</ele>
        <time>2022-02-22T15:43:06.707Z</time>
      </trkpt>
      <trkpt lat="41.36677" lon="-1.43093">
        <ele>662.280895</ele>
        <time>2022-02-22T15:43:10.853Z</time>
      </trkpt>
      <trkpt lat="41.36641" lon="-1.43041">
        <ele>660.209497</ele>
        <time>2022-02-22T15:43:20.513Z</time>
      </trkpt>
      <trkpt lat="41.36637" lon="-1.43024">
        <ele>659.683153</ele>
        <time>2022-02-22T15:43:22.915Z</time>
      </trkpt>
      <trkpt lat="41.36639" lon="-1.42948">
        <ele>657.436005</ele>
        <time>2022-02-22T15:43:32.063Z</time>
      </trkpt>
      <trkpt lat="41.36635" lon="-1.42932">
        <ele>656.947391</ele>
        <time>2022-02-22T15:43:34.052Z</time>
      </trkpt>
      <trkpt lat="41.36629" lon="-1.42921">
        <ele>656.54607</ele>
        <time>2022-02-22T15:43:35.809Z</time>
      </trkpt>
      <trkpt lat="41.36593" lon="-1.42916">
        <ele>654.858535</ele>
        <time>2022-02-22T15:43:41.274Z</time>
      </trkpt>
      <trkpt lat="41.36581" lon="-1.42899">
        <ele>653.67566</ele>
        <time>2022-02-22T15:43:43.870Z</time>
      </trkpt>
      <trkpt lat="41.36577" lon="-1.42879">
        <ele>652.676961</ele>
        <time>2022-02-22T15:43:46.381Z</time>
      </trkpt>
      <trkpt lat="41.36571" lon="-1.42757">
        <ele>646.660161</ele>
        <time>2022-02-22T15:44:00.006Z</time>
      </trkpt>
      <trkpt lat="41.36577" lon="-1.42728">
        <ele>645.206862</ele>
        <time>2022-02-22T15:44:03.486Z</time>
      </trkpt>
      <trkpt lat="41.36607" lon="-1.42655">
        <ele>642.33008</ele>
        <time>2022-02-22T15:44:13.131Z</time>
      </trkpt>
      <trkpt lat="41.36608" lon="-1.42639">
        <ele>641.913957</ele>
        <time>2022-02-22T15:44:15.056Z</time>
      </trkpt>
      <trkpt lat="41.36599" lon="-1.42623">
        <ele>641.361812</ele>
        <time>2022-02-22T15:44:17.570Z</time>
      </trkpt>
      <trkpt lat="41.36587" lon="-1.42621">
        <ele>640.954699</ele>
        <time>2022-02-22T15:44:19.432Z</time>
      </trkpt>
      <trkpt lat="41.36506" lon="-1.42669">
        <ele>637.801925</ele>
        <time>2022-02-22T15:44:35.183Z</time>
      </trkpt>
      <trkpt lat="41.36486" lon="-1.42663">
        <ele>637.251846</ele>
        <time>2022-02-22T15:44:39.103Z</time>
      </trkpt>
      <trkpt lat="41.36455" lon="-1.42635">
        <ele>636.674922</ele>
        <time>2022-02-22T15:44:46.796Z</time>
      </trkpt>
      <trkpt lat="41.3643" lon="-1.4264">
        <ele>636.286808</ele>
        <time>2022-02-22T15:44:52.100Z</time>
      </trkpt>
      <trkpt lat="41.36371" lon="-1.42677">
        <ele>635.268773</ele>
        <time>2022-02-22T15:45:04.946Z</time>
      </trkpt>
      <trkpt lat="41.36359" lon="-1.42675">
        <ele>635.0917</ele>
        <time>2022-02-22T15:45:07.149Z</time>
      </trkpt>
      <trkpt lat="41.36343" lon="-1.42651">
        <ele>634.710784</ele>
        <time>2022-02-22T15:45:11.592Z</time>
      </trkpt>
      <trkpt lat="41.36341" lon="-1.42637">
        <ele>634.462001</ele>
        <time>2022-02-22T15:45:13.674Z</time>
      </trkpt>
      <trkpt lat="41.36425" lon="-1.42468">
        <ele>629.001377</ele>
        <time>2022-02-22T15:45:38.867Z</time>
      </trkpt>
      <trkpt lat="41.36443" lon="-1.42429">
        <ele>627.774068</ele>
        <time>2022-02-22T15:45:44.423Z</time>
      </trkpt>
      <trkpt lat="41.36446" lon="-1.42414">
        <ele>627.371638</ele>
        <time>2022-02-22T15:45:46.329Z</time>
      </trkpt>
      <trkpt lat="41.36442" lon="-1.424">
        <ele>626.961149</ele>
        <time>2022-02-22T15:45:48.294Z</time>
      </trkpt>
      <trkpt lat="41.36429" lon="-1.42391">
        <ele>626.481348</ele>
        <time>2022-02-22T15:45:50.630Z</time>
      </trkpt>
      <trkpt lat="41.36397" lon="-1.42391">
        <ele>625.362135</ele>
        <time>2022-02-22T15:45:56.144Z</time>
      </trkpt>
      <trkpt lat="41.36351" lon="-1.42379">
        <ele>623.729999</ele>
        <time>2022-02-22T15:46:04.295Z</time>
      </trkpt>
      <trkpt lat="41.36343" lon="-1.42374">
        <ele>623.446481</ele>
        <time>2022-02-22T15:46:05.688Z</time>
      </trkpt>
      <trkpt lat="41.36337" lon="-1.42354">
        <ele>622.88342</ele>
        <time>2022-02-22T15:46:08.441Z</time>
      </trkpt>
      <trkpt lat="41.36341" lon="-1.42336">
        <ele>622.391574</ele>
        <time>2022-02-22T15:46:10.984Z</time>
      </trkpt>
      <trkpt lat="41.36386" lon="-1.42323">
        <ele>620.338397</ele>
        <time>2022-02-22T15:46:18.918Z</time>
      </trkpt>
      <trkpt lat="41.36403" lon="-1.42312">
        <ele>619.392304</ele>
        <time>2022-02-22T15:46:22.064Z</time>
      </trkpt>
      <trkpt lat="41.36416" lon="-1.42277">
        <ele>617.974078</ele>
        <time>2022-02-22T15:46:26.595Z</time>
      </trkpt>
      <trkpt lat="41.3641" lon="-1.4225">
        <ele>616.92607</ele>
        <time>2022-02-22T15:46:29.824Z</time>
      </trkpt>
      <trkpt lat="41.36401" lon="-1.42241">
        <ele>616.385354</ele>
        <time>2022-02-22T15:46:31.504Z</time>
      </trkpt>
      <trkpt lat="41.36362" lon="-1.42226">
        <ele>614.358202</ele>
        <time>2022-02-22T15:46:37.789Z</time>
      </trkpt>
      <trkpt lat="41.36276" lon="-1.42174">
        <ele>609.93609</ele>
        <time>2022-02-22T15:46:52.628Z</time>
      </trkpt>
      <trkpt lat="41.3626" lon="-1.42176">
        <ele>609.20319</ele>
        <time>2022-02-22T15:46:55.173Z</time>
      </trkpt>
      <trkpt lat="41.36228" lon="-1.42199">
        <ele>607.5472</ele>
        <time>2022-02-22T15:47:00.980Z</time>
      </trkpt>
      <trkpt lat="41.3621" lon="-1.42197">
        <ele>606.711654</ele>
        <time>2022-02-22T15:47:03.920Z</time>
      </trkpt>
      <trkpt lat="41.36201" lon="-1.42186">
        <ele>606.183607</ele>
        <time>2022-02-22T15:47:05.815Z</time>
      </trkpt>
      <trkpt lat="41.36196" lon="-1.42171">
        <ele>605.619076</ele>
        <time>2022-02-22T15:47:07.945Z</time>
      </trkpt>
      <trkpt lat="41.36198" lon="-1.42121">
        <ele>604.289206</ele>
        <time>2022-02-22T15:47:14.413Z</time>
      </trkpt>
      <trkpt lat="41.36129" lon="-1.41873">
        <ele>599.916816</ele>
        <time>2022-02-22T15:47:49.780Z</time>
      </trkpt>
      <trkpt lat="41.36118" lon="-1.41847">
        <ele>599.810194</ele>
        <time>2022-02-22T15:47:53.906Z</time>
      </trkpt>
      <trkpt lat="41.36103" lon="-1.41836">
        <ele>599.729963</ele>
        <time>2022-02-22T15:47:57.008Z</time>
      </trkpt>
      <trkpt lat="41.36079" lon="-1.4183">
        <ele>599.612492</ele>
        <time>2022-02-22T15:48:01.926Z</time>
      </trkpt>
      <trkpt lat="41.35994" lon="-1.41856">
        <ele>599.550712</ele>
        <time>2022-02-22T15:48:24.765Z</time>
      </trkpt>
      <trkpt lat="41.35934" lon="-1.41855">
        <ele>601.50643</ele>
        <time>2022-02-22T15:48:47.051Z</time>
      </trkpt>
      <trkpt lat="41.35786" lon="-1.41818">
        <ele>606.241716</ele>
        <time>2022-02-22T15:49:51.144Z</time>
      </trkpt>
      <trkpt lat="41.35686" lon="-1.41758">
        <ele>609.356263</ele>
        <time>2022-02-22T15:50:32.066Z</time>
      </trkpt>
      <trkpt lat="41.356" lon="-1.41681">
        <ele>610.635526</ele>
        <time>2022-02-22T15:51:00.784Z</time>
      </trkpt>
      <trkpt lat="41.3532" lon="-1.41511">
        <ele>611.902146</ele>
        <time>2022-02-22T15:52:09.600Z</time>
      </trkpt>
      <trkpt lat="41.35294" lon="-1.41502">
        <ele>612.402758</ele>
        <time>2022-02-22T15:52:17.504Z</time>
      </trkpt>
      <trkpt lat="41.35228" lon="-1.41505">
        <ele>613.603858</ele>
        <time>2022-02-22T15:52:39.236Z</time>
      </trkpt>
      <trkpt lat="41.35163" lon="-1.41475">
        <ele>614.882309</ele>
        <time>2022-02-22T15:53:03.046Z</time>
      </trkpt>
      <trkpt lat="41.35116" lon="-1.41429">
        <ele>616.189442</ele>
        <time>2022-02-22T15:53:24.343Z</time>
      </trkpt>
      <trkpt lat="41.35085" lon="-1.41376">
        <ele>617.35408</ele>
        <time>2022-02-22T15:53:41.455Z</time>
      </trkpt>
      <trkpt lat="41.35057" lon="-1.41351">
        <ele>618.111127</ele>
        <time>2022-02-22T15:53:52.236Z</time>
      </trkpt>
      <trkpt lat="41.35022" lon="-1.41336">
        <ele>618.939848</ele>
        <time>2022-02-22T15:54:03.863Z</time>
      </trkpt>
      <trkpt lat="41.35004" lon="-1.41323">
        <ele>619.323963</ele>
        <time>2022-02-22T15:54:10.415Z</time>
      </trkpt>
      <trkpt lat="41.34968" lon="-1.41283">
        <ele>620.19243</ele>
        <time>2022-02-22T15:54:24.247Z</time>
      </trkpt>
      <trkpt lat="41.34927" lon="-1.41215">
        <ele>621.414889</ele>
        <time>2022-02-22T15:54:45.280Z</time>
      </trkpt>
      <trkpt lat="41.34916" lon="-1.41209">
        <ele>621.631167</ele>
        <time>2022-02-22T15:54:48.974Z</time>
      </trkpt>
      <trkpt lat="41.3486" lon="-1.41199">
        <ele>622.637928</ele>
        <time>2022-02-22T15:55:07.724Z</time>
      </trkpt>
      <trkpt lat="41.34834" lon="-1.41181">
        <ele>623.125302</ele>
        <time>2022-02-22T15:55:17.037Z</time>
      </trkpt>
      <trkpt lat="41.34773" lon="-1.41069">
        <ele>624.848018</ele>
        <time>2022-02-22T15:55:48.360Z</time>
      </trkpt>
      <trkpt lat="41.3464" lon="-1.4096">
        <ele>626.758593</ele>
        <time>2022-02-22T15:56:32.938Z</time>
      </trkpt>
      <trkpt lat="41.34616" lon="-1.40935">
        <ele>627.106935</ele>
        <time>2022-02-22T15:56:40.798Z</time>
      </trkpt>
      <trkpt lat="41.3455" lon="-1.40837">
        <ele>628.277808</ele>
        <time>2022-02-22T15:57:06.942Z</time>
      </trkpt>
      <trkpt lat="41.34523" lon="-1.40797">
        <ele>628.757009</ele>
        <time>2022-02-22T15:57:18.540Z</time>
      </trkpt>
      <trkpt lat="41.34503" lon="-1.40779">
        <ele>629.041855</ele>
        <time>2022-02-22T15:57:24.929Z</time>
      </trkpt>
      <trkpt lat="41.34302" lon="-1.40664">
        <ele>633.127247</ele>
        <time>2022-02-22T15:58:34.761Z</time>
      </trkpt>
      <trkpt lat="41.34274" lon="-1.40628">
        <ele>634.099964</ele>
        <time>2022-02-22T15:58:48.098Z</time>
      </trkpt>
      <trkpt lat="41.34216" lon="-1.40531">
        <ele>636.432335</ele>
        <time>2022-02-22T15:59:22.082Z</time>
      </trkpt>
      <trkpt lat="41.34157" lon="-1.4051">
        <ele>637.666042</ele>
        <time>2022-02-22T15:59:43.654Z</time>
      </trkpt>
      <trkpt lat="41.3414" lon="-1.40502">
        <ele>637.863643</ele>
        <time>2022-02-22T15:59:49.309Z</time>
      </trkpt>
      <trkpt lat="41.34133" lon="-1.40493">
        <ele>637.969068</ele>
        <time>2022-02-22T15:59:52.462Z</time>
      </trkpt>
      <trkpt lat="41.34121" lon="-1.40427">
        <ele>638.517455</ele>
        <time>2022-02-22T16:00:06.980Z</time>
      </trkpt>
      <trkpt lat="41.34139" lon="-1.40272">
        <ele>639.120047</ele>
        <time>2022-02-22T16:00:34.483Z</time>
      </trkpt>
      <trkpt lat="41.34135" lon="-1.40245">
        <ele>638.968741</ele>
        <time>2022-02-22T16:00:38.504Z</time>
      </trkpt>
      <trkpt lat="41.34104" lon="-1.4019">
        <ele>638.576826</ele>
        <time>2022-02-22T16:00:48.713Z</time>
      </trkpt>
      <trkpt lat="41.3408" lon="-1.40135">
        <ele>638.220848</ele>
        <time>2022-02-22T16:00:57.940Z</time>
      </trkpt>
      <trkpt lat="41.34058" lon="-1.40038">
        <ele>637.935867</ele>
        <time>2022-02-22T16:01:13.462Z</time>
      </trkpt>
      <trkpt lat="41.34036" lon="-1.40003">
        <ele>637.859991</ele>
        <time>2022-02-22T16:01:21.023Z</time>
      </trkpt>
      <trkpt lat="41.34013" lon="-1.39974">
        <ele>637.790504</ele>
        <time>2022-02-22T16:01:28.182Z</time>
      </trkpt>
      <trkpt lat="41.33967" lon="-1.39937">
        <ele>637.673369</ele>
        <time>2022-02-22T16:01:40.094Z</time>
      </trkpt>
      <trkpt lat="41.33954" lon="-1.39912">
        <ele>637.771075</ele>
        <time>2022-02-22T16:01:45.140Z</time>
      </trkpt>
      <trkpt lat="41.3392" lon="-1.39816">
        <ele>638.354515</ele>
        <time>2022-02-22T16:02:04.582Z</time>
      </trkpt>
      <trkpt lat="41.33902" lon="-1.39788">
        <ele>638.554039</ele>
        <time>2022-02-22T16:02:11.585Z</time>
      </trkpt>
      <trkpt lat="41.33893" lon="-1.39777">
        <ele>638.64879</ele>
        <time>2022-02-22T16:02:15.003Z</time>
      </trkpt>
      <trkpt lat="41.33889" lon="-1.39773">
        <ele>638.680128</ele>
        <time>2022-02-22T16:02:16.075Z</time>
      </trkpt>
      <trkpt lat="41.33867" lon="-1.39755">
        <ele>638.869605</ele>
        <time>2022-02-22T16:02:23.218Z</time>
      </trkpt>
      <trkpt lat="41.33848" lon="-1.39752">
        <ele>639.123324</ele>
        <time>2022-02-22T16:02:28.428Z</time>
      </trkpt>
      <trkpt lat="41.33713" lon="-1.39766">
        <ele>642.938278</ele>
        <time>2022-02-22T16:03:16.151Z</time>
      </trkpt>
      <trkpt lat="41.33682" lon="-1.39763">
        <ele>643.811025</ele>
        <time>2022-02-22T16:03:29.627Z</time>
      </trkpt>
      <trkpt lat="41.33544" lon="-1.3967">
        <ele>649.590232</ele>
        <time>2022-02-22T16:04:37.138Z</time>
      </trkpt>
      <trkpt lat="41.33429" lon="-1.39557">
        <ele>653.127074</ele>
        <time>2022-02-22T16:05:26.644Z</time>
      </trkpt>
      <trkpt lat="41.3335" lon="-1.39531">
        <ele>654.784319</ele>
        <time>2022-02-22T16:05:49.031Z</time>
      </trkpt>
      <trkpt lat="41.33328" lon="-1.39516">
        <ele>655.268142</ele>
        <time>2022-02-22T16:05:56.668Z</time>
      </trkpt>
      <trkpt lat="41.33283" lon="-1.39507">
        <ele>656.140713</ele>
        <time>2022-02-22T16:06:11.279Z</time>
      </trkpt>
      <trkpt lat="41.33222" lon="-1.3948">
        <ele>657.351903</ele>
        <time>2022-02-22T16:06:32.088Z</time>
      </trkpt>
      <trkpt lat="41.33153" lon="-1.39438">
        <ele>658.554832</ele>
        <time>2022-02-22T16:06:58.101Z</time>
      </trkpt>
      <trkpt lat="41.33088" lon="-1.39395">
        <ele>659.480603</ele>
        <time>2022-02-22T16:07:20.883Z</time>
      </trkpt>
      <trkpt lat="41.33071" lon="-1.39378">
        <ele>659.753331</ele>
        <time>2022-02-22T16:07:26.688Z</time>
      </trkpt>
      <trkpt lat="41.33006" lon="-1.39235">
        <ele>660.092936</ele>
        <time>2022-02-22T16:07:53.333Z</time>
      </trkpt>
      <trkpt lat="41.3296" lon="-1.39185">
        <ele>659.920153</ele>
        <time>2022-02-22T16:08:05.329Z</time>
      </trkpt>
      <trkpt lat="41.32919" lon="-1.39153">
        <ele>659.90662</ele>
        <time>2022-02-22T16:08:15.554Z</time>
      </trkpt>
      <trkpt lat="41.32809" lon="-1.39091">
        <ele>661.489103</ele>
        <time>2022-02-22T16:08:48.800Z</time>
      </trkpt>
      <trkpt lat="41.3274" lon="-1.3908">
        <ele>662.474615</ele>
        <time>2022-02-22T16:09:12.981Z</time>
      </trkpt>
      <trkpt lat="41.32656" lon="-1.39039">
        <ele>664.037395</ele>
        <time>2022-02-22T16:09:43.633Z</time>
      </trkpt>
      <trkpt lat="41.32586" lon="-1.38936">
        <ele>665.530098</ele>
        <time>2022-02-22T16:10:11.238Z</time>
      </trkpt>
      <trkpt lat="41.32564" lon="-1.38912">
        <ele>665.735478</ele>
        <time>2022-02-22T16:10:18.811Z</time>
      </trkpt>
      <trkpt lat="41.32519" lon="-1.38878">
        <ele>666.11087</ele>
        <time>2022-02-22T16:10:31.988Z</time>
      </trkpt>
      <trkpt lat="41.32384" lon="-1.38784">
        <ele>667.479386</ele>
        <time>2022-02-22T16:11:10.433Z</time>
      </trkpt>
      <trkpt lat="41.32299" lon="-1.38692">
        <ele>668.732343</ele>
        <time>2022-02-22T16:11:43.029Z</time>
      </trkpt>
      <trkpt lat="41.32275" lon="-1.38677">
        <ele>669.21052</ele>
        <time>2022-02-22T16:11:50.246Z</time>
      </trkpt>
      <trkpt lat="41.32126" lon="-1.38625">
        <ele>672.08763</ele>
        <time>2022-02-22T16:12:37.963Z</time>
      </trkpt>
      <trkpt lat="41.32046" lon="-1.38614">
        <ele>674.424417</ele>
        <time>2022-02-22T16:13:08.800Z</time>
      </trkpt>
      <trkpt lat="41.31987" lon="-1.386">
        <ele>676.156908</ele>
        <time>2022-02-22T16:13:31.867Z</time>
      </trkpt>
      <trkpt lat="41.31953" lon="-1.38586">
        <ele>677.119587</ele>
        <time>2022-02-22T16:13:45.369Z</time>
      </trkpt>
      <trkpt lat="41.31828" lon="-1.38457">
        <ele>680.832451</ele>
        <time>2022-02-22T16:14:39.097Z</time>
      </trkpt>
      <trkpt lat="41.3179" lon="-1.38424">
        <ele>681.84905</ele>
        <time>2022-02-22T16:14:52.702Z</time>
      </trkpt>
      <trkpt lat="41.31684" lon="-1.38351">
        <ele>684.479728</ele>
        <time>2022-02-22T16:15:31.482Z</time>
      </trkpt>
      <trkpt lat="41.31485" lon="-1.38249">
        <ele>690.848505</ele>
        <time>2022-02-22T16:16:50.100Z</time>
      </trkpt>
      <trkpt lat="41.31388" lon="-1.38176">
        <ele>695.770365</ele>
        <time>2022-02-22T16:17:41.290Z</time>
      </trkpt>
      <trkpt lat="41.31302" lon="-1.38168">
        <ele>699.031063</ele>
        <time>2022-02-22T16:18:20.896Z</time>
      </trkpt>
      <trkpt lat="41.31251" lon="-1.38119">
        <ele>700.426224</ele>
        <time>2022-02-22T16:18:45.713Z</time>
      </trkpt>
      <trkpt lat="41.31187" lon="-1.38027">
        <ele>702.46847</ele>
        <time>2022-02-22T16:19:12.098Z</time>
      </trkpt>
      <trkpt lat="41.31148" lon="-1.37968">
        <ele>701.849372</ele>
        <time>2022-02-22T16:19:23.339Z</time>
      </trkpt>
      <trkpt lat="41.3113" lon="-1.37951">
        <ele>701.611719</ele>
        <time>2022-02-22T16:19:27.497Z</time>
      </trkpt>
      <trkpt lat="41.31066" lon="-1.37916">
        <ele>700.887244</ele>
        <time>2022-02-22T16:19:40.401Z</time>
      </trkpt>
      <trkpt lat="41.31037" lon="-1.37915">
        <ele>700.606455</ele>
        <time>2022-02-22T16:19:45.932Z</time>
      </trkpt>
      <trkpt lat="41.30975" lon="-1.37925">
        <ele>701.422458</ele>
        <time>2022-02-22T16:20:00.936Z</time>
      </trkpt>
      <trkpt lat="41.30835" lon="-1.379">
        <ele>703.58489</ele>
        <time>2022-02-22T16:20:47.682Z</time>
      </trkpt>
      <trkpt lat="41.30759" lon="-1.37899">
        <ele>705.540364</ele>
        <time>2022-02-22T16:21:14.947Z</time>
      </trkpt>
      <trkpt lat="41.30665" lon="-1.37884">
        <ele>708.07072</ele>
        <time>2022-02-22T16:21:48.071Z</time>
      </trkpt>
      <trkpt lat="41.30599" lon="-1.37897">
        <ele>710.219929</ele>
        <time>2022-02-22T16:22:12.841Z</time>
      </trkpt>
      <trkpt lat="41.30487" lon="-1.37888">
        <ele>713.831081</ele>
        <time>2022-02-22T16:22:57.622Z</time>
      </trkpt>
      <trkpt lat="41.30441" lon="-1.37874">
        <ele>715.419915</ele>
        <time>2022-02-22T16:23:16.851Z</time>
      </trkpt>
      <trkpt lat="41.30398" lon="-1.37847">
        <ele>717.019305</ele>
        <time>2022-02-22T16:23:35.903Z</time>
      </trkpt>
      <trkpt lat="41.30359" lon="-1.37809">
        <ele>718.662795</ele>
        <time>2022-02-22T16:23:54.920Z</time>
      </trkpt>
      <trkpt lat="41.30336" lon="-1.37803">
        <ele>719.416922</ele>
        <time>2022-02-22T16:24:03.408Z</time>
      </trkpt>
      <trkpt lat="41.30276" lon="-1.3781">
        <ele>720.748294</ele>
        <time>2022-02-22T16:24:24.392Z</time>
      </trkpt>
      <trkpt lat="41.30223" lon="-1.37772">
        <ele>722.057608</ele>
        <time>2022-02-22T16:24:43.747Z</time>
      </trkpt>
      <trkpt lat="41.30158" lon="-1.37738">
        <ele>723.530947</ele>
        <time>2022-02-22T16:25:06.143Z</time>
      </trkpt>
      <trkpt lat="41.30046" lon="-1.37634">
        <ele>725.771211</ele>
        <time>2022-02-22T16:25:47.205Z</time>
      </trkpt>
      <trkpt lat="41.30018" lon="-1.37587">
        <ele>726.48465</ele>
        <time>2022-02-22T16:26:00.889Z</time>
      </trkpt>
      <trkpt lat="41.29948" lon="-1.37511">
        <ele>727.864666</ele>
        <time>2022-02-22T16:26:28.228Z</time>
      </trkpt>
      <trkpt lat="41.29926" lon="-1.37471">
        <ele>728.432598</ele>
        <time>2022-02-22T16:26:39.107Z</time>
      </trkpt>
      <trkpt lat="41.29909" lon="-1.37453">
        <ele>728.76724</ele>
        <time>2022-02-22T16:26:45.595Z</time>
      </trkpt>
      <trkpt lat="41.29832" lon="-1.37455">
        <ele>729.631665</ele>
        <time>2022-02-22T16:27:08.421Z</time>
      </trkpt>
      <trkpt lat="41.29793" lon="-1.37445">
        <ele>730.033365</ele>
        <time>2022-02-22T16:27:19.316Z</time>
      </trkpt>
      <trkpt lat="41.29728" lon="-1.37414">
        <ele>730.735925</ele>
        <time>2022-02-22T16:27:37.204Z</time>
      </trkpt>
      <trkpt lat="41.29715" lon="-1.37413">
        <ele>730.874617</ele>
        <time>2022-02-22T16:27:40.465Z</time>
      </trkpt>
      <trkpt lat="41.297" lon="-1.3742">
        <ele>731.078161</ele>
        <time>2022-02-22T16:27:44.563Z</time>
      </trkpt>
      <trkpt lat="41.29672" lon="-1.3745">
        <ele>731.528304</ele>
        <time>2022-02-22T16:27:53.447Z</time>
      </trkpt>
      <trkpt lat="41.29657" lon="-1.37478">
        <ele>731.843067</ele>
        <time>2022-02-22T16:27:59.985Z</time>
      </trkpt>
      <trkpt lat="41.29647" lon="-1.37519">
        <ele>732.244731</ele>
        <time>2022-02-22T16:28:08.953Z</time>
      </trkpt>
      <trkpt lat="41.29628" lon="-1.37556">
        <ele>732.656498</ele>
        <time>2022-02-22T16:28:19.182Z</time>
      </trkpt>
      <trkpt lat="41.29604" lon="-1.37572">
        <ele>732.993618</ele>
        <time>2022-02-22T16:28:28.200Z</time>
      </trkpt>
      <trkpt lat="41.29567" lon="-1.37575">
        <ele>733.679222</ele>
        <time>2022-02-22T16:28:40.638Z</time>
      </trkpt>
      <trkpt lat="41.29518" lon="-1.37562">
        <ele>734.648748</ele>
        <time>2022-02-22T16:28:57.001Z</time>
      </trkpt>
      <trkpt lat="41.29493" lon="-1.37558">
        <ele>735.15035</ele>
        <time>2022-02-22T16:29:05.154Z</time>
      </trkpt>
      <trkpt lat="41.29469" lon="-1.37571">
        <ele>735.648974</ele>
        <time>2022-02-22T16:29:13.840Z</time>
      </trkpt>
      <trkpt lat="41.29454" lon="-1.3757">
        <ele>735.942437</ele>
        <time>2022-02-22T16:29:18.485Z</time>
      </trkpt>
      <trkpt lat="41.29438" lon="-1.37584">
        <ele>736.32244</ele>
        <time>2022-02-22T16:29:25.200Z</time>
      </trkpt>
      <trkpt lat="41.29426" lon="-1.37587">
        <ele>736.553228</ele>
        <time>2022-02-22T16:29:28.806Z</time>
      </trkpt>
      <trkpt lat="41.29403" lon="-1.37661">
        <ele>737.187654</ele>
        <time>2022-02-22T16:29:47.886Z</time>
      </trkpt>
      <trkpt lat="41.29391" lon="-1.37657">
        <ele>737.320714</ele>
        <time>2022-02-22T16:29:51.403Z</time>
      </trkpt>
      <trkpt lat="41.29358" lon="-1.37631">
        <ele>737.708839</ele>
        <time>2022-02-22T16:30:01.373Z</time>
      </trkpt>
      <trkpt lat="41.29344" lon="-1.37681">
        <ele>738.120476</ele>
        <time>2022-02-22T16:30:10.812Z</time>
      </trkpt>
      <trkpt lat="41.29306" lon="-1.3773">
        <ele>738.832468</ele>
        <time>2022-02-22T16:30:24.232Z</time>
      </trkpt>
      <trkpt lat="41.29232" lon="-1.37849">
        <ele>740.807167</ele>
        <time>2022-02-22T16:30:59.832Z</time>
      </trkpt>
      <trkpt lat="41.29177" lon="-1.37952">
        <ele>743.17851</ele>
        <time>2022-02-22T16:31:33.491Z</time>
      </trkpt>
      <trkpt lat="41.2905" lon="-1.38138">
        <ele>749.345598</ele>
        <time>2022-02-22T16:32:46.580Z</time>
      </trkpt>
      <trkpt lat="41.28949" lon="-1.38333">
        <ele>755.770502</ele>
        <time>2022-02-22T16:34:01.076Z</time>
      </trkpt>
      <trkpt lat="41.28849" lon="-1.38453">
        <ele>760.510251</ele>
        <time>2022-02-22T16:34:53.405Z</time>
      </trkpt>
      <trkpt lat="41.28829" lon="-1.38554">
        <ele>763.289124</ele>
        <time>2022-02-22T16:35:23.122Z</time>
      </trkpt>
      <trkpt lat="41.28662" lon="-1.38781">
        <ele>771.959164</ele>
        <time>2022-02-22T16:37:03.071Z</time>
      </trkpt>
      <trkpt lat="41.28601" lon="-1.38908">
        <ele>775.197297</ele>
        <time>2022-02-22T16:37:44.162Z</time>
      </trkpt>
      <trkpt lat="41.28551" lon="-1.39064">
        <ele>778.454129</ele>
        <time>2022-02-22T16:38:26.879Z</time>
      </trkpt>
      <trkpt lat="41.28476" lon="-1.39204">
        <ele>781.559287</ele>
        <time>2022-02-22T16:39:10.899Z</time>
      </trkpt>
      <trkpt lat="41.28345" lon="-1.39501">
        <ele>788.321033</ele>
        <time>2022-02-22T16:40:42.367Z</time>
      </trkpt>
      <trkpt lat="41.28293" lon="-1.39575">
        <ele>790.440552</ele>
        <time>2022-02-22T16:41:09.493Z</time>
      </trkpt>
      <trkpt lat="41.28178" lon="-1.39665">
        <ele>794.486243</ele>
        <time>2022-02-22T16:41:59.891Z</time>
      </trkpt>
      <trkpt lat="41.28039" lon="-1.39808">
        <ele>799.752019</ele>
        <time>2022-02-22T16:43:07.509Z</time>
      </trkpt>
      <trkpt lat="41.28013" lon="-1.39842">
        <ele>800.777148</ele>
        <time>2022-02-22T16:43:20.331Z</time>
      </trkpt>
      <trkpt lat="41.27974" lon="-1.39912">
        <ele>802.604492</ele>
        <time>2022-02-22T16:43:42.748Z</time>
      </trkpt>
      <trkpt lat="41.27951" lon="-1.39931">
        <ele>803.246019</ele>
        <time>2022-02-22T16:43:51.900Z</time>
      </trkpt>
      <trkpt lat="41.27896" lon="-1.39963">
        <ele>804.669688</ele>
        <time>2022-02-22T16:44:11.696Z</time>
      </trkpt>
      <trkpt lat="41.27869" lon="-1.39971">
        <ele>805.32717</ele>
        <time>2022-02-22T16:44:20.626Z</time>
      </trkpt>
      <trkpt lat="41.27824" lon="-1.39967">
        <ele>806.388528</ele>
        <time>2022-02-22T16:44:36.154Z</time>
      </trkpt>
      <trkpt lat="41.27713" lon="-1.40049">
        <ele>810.164732</ele>
        <time>2022-02-22T16:45:23.730Z</time>
      </trkpt>
      <trkpt lat="41.27663" lon="-1.40101">
        <ele>812.114372</ele>
        <time>2022-02-22T16:45:48.109Z</time>
      </trkpt>
      <trkpt lat="41.2758" lon="-1.40141">
        <ele>814.867983</ele>
        <time>2022-02-22T16:46:21.886Z</time>
      </trkpt>
      <trkpt lat="41.27504" lon="-1.40286">
        <ele>818.877648</ele>
        <time>2022-02-22T16:47:11.601Z</time>
      </trkpt>
      <trkpt lat="41.27482" lon="-1.40305">
        <ele>819.617529</ele>
        <time>2022-02-22T16:47:21.435Z</time>
      </trkpt>
      <trkpt lat="41.27423" lon="-1.40314">
        <ele>821.293862</ele>
        <time>2022-02-22T16:47:42.844Z</time>
      </trkpt>
      <trkpt lat="41.27404" lon="-1.40323">
        <ele>821.860086</ele>
        <time>2022-02-22T16:47:50.047Z</time>
      </trkpt>
      <trkpt lat="41.27347" lon="-1.40372">
        <ele>823.739335</ele>
        <time>2022-02-22T16:48:14.011Z</time>
      </trkpt>
      <trkpt lat="41.27289" lon="-1.40384">
        <ele>825.355063</ele>
        <time>2022-02-22T16:48:34.048Z</time>
      </trkpt>
      <trkpt lat="41.27227" lon="-1.4039">
        <ele>827.069622</ele>
        <time>2022-02-22T16:48:56.489Z</time>
      </trkpt>
      <trkpt lat="41.27176" lon="-1.40443">
        <ele>829.325438</ele>
        <time>2022-02-22T16:49:21.490Z</time>
      </trkpt>
      <trkpt lat="41.2709" lon="-1.40431">
        <ele>832.667586</ele>
        <time>2022-02-22T16:49:58.231Z</time>
      </trkpt>
      <trkpt lat="41.27065" lon="-1.40432">
        <ele>833.629257</ele>
        <time>2022-02-22T16:50:08.782Z</time>
      </trkpt>
      <trkpt lat="41.27039" lon="-1.40417">
        <ele>834.723363</ele>
        <time>2022-02-22T16:50:21.242Z</time>
      </trkpt>
      <trkpt lat="41.27011" lon="-1.40405">
        <ele>835.882273</ele>
        <time>2022-02-22T16:50:34.295Z</time>
      </trkpt>
      <trkpt lat="41.26962" lon="-1.40402">
        <ele>837.800369</ele>
        <time>2022-02-22T16:50:55.083Z</time>
      </trkpt>
      <trkpt lat="41.26932" lon="-1.40414">
        <ele>839.037804</ele>
        <time>2022-02-22T16:51:08.528Z</time>
      </trkpt>
      <trkpt lat="41.26904" lon="-1.40444">
        <ele>840.452766</ele>
        <time>2022-02-22T16:51:23.541Z</time>
      </trkpt>
      <trkpt lat="41.26853" lon="-1.40512">
        <ele>843.024231</ele>
        <time>2022-02-22T16:51:51.537Z</time>
      </trkpt>
      <trkpt lat="41.26796" lon="-1.40552">
        <ele>845.152185</ele>
        <time>2022-02-22T16:52:16.772Z</time>
      </trkpt>
      <trkpt lat="41.26736" lon="-1.40613">
        <ele>847.640614</ele>
        <time>2022-02-22T16:52:45.411Z</time>
      </trkpt>
      <trkpt lat="41.26677" lon="-1.40702">
        <ele>850.659246</ele>
        <time>2022-02-22T16:53:20.392Z</time>
      </trkpt>
      <trkpt lat="41.26665" lon="-1.40731">
        <ele>851.522797</ele>
        <time>2022-02-22T16:53:30.464Z</time>
      </trkpt>
      <trkpt lat="41.26651" lon="-1.40823">
        <ele>853.867052</ele>
        <time>2022-02-22T16:53:57.988Z</time>
      </trkpt>
      <trkpt lat="41.26667" lon="-1.40856">
        <ele>854.723143</ele>
        <time>2022-02-22T16:54:10.008Z</time>
      </trkpt>
      <trkpt lat="41.26699" lon="-1.40927">
        <ele>856.508927</ele>
        <time>2022-02-22T16:54:33.462Z</time>
      </trkpt>
      <trkpt lat="41.26664" lon="-1.41036">
        <ele>859.00901</ele>
        <time>2022-02-22T16:55:04.964Z</time>
      </trkpt>
      <trkpt lat="41.26654" lon="-1.41066">
        <ele>859.529213</ele>
        <time>2022-02-22T16:55:12.652Z</time>
      </trkpt>
      <trkpt lat="41.26573" lon="-1.4116">
        <ele>861.768409</ele>
        <time>2022-02-22T16:55:46.703Z</time>
      </trkpt>
      <trkpt lat="41.26526" lon="-1.41236">
        <ele>863.652079</ele>
        <time>2022-02-22T16:56:10.324Z</time>
      </trkpt>
      <trkpt lat="41.2628" lon="-1.41494">
        <ele>874.225283</ele>
        <time>2022-02-22T16:58:15.112Z</time>
      </trkpt>
      <trkpt lat="41.26272" lon="-1.41521">
        <ele>875.008848</ele>
        <time>2022-02-22T16:58:24.592Z</time>
      </trkpt>
      <trkpt lat="41.26241" lon="-1.41697">
        <ele>879.91125</ele>
        <time>2022-02-22T16:59:19.758Z</time>
      </trkpt>
      <trkpt lat="41.2624" lon="-1.41727">
        <ele>880.712501</ele>
        <time>2022-02-22T16:59:28.422Z</time>
      </trkpt>
      <trkpt lat="41.26265" lon="-1.4181">
        <ele>882.92463</ele>
        <time>2022-02-22T16:59:54.560Z</time>
      </trkpt>
      <trkpt lat="41.26271" lon="-1.41849">
        <ele>883.926391</ele>
        <time>2022-02-22T17:00:06.153Z</time>
      </trkpt>
      <trkpt lat="41.26238" lon="-1.4219">
        <ele>891.956602</ele>
        <time>2022-02-22T17:01:44.355Z</time>
      </trkpt>
      <trkpt lat="41.26266" lon="-1.42374">
        <ele>895.751503</ele>
        <time>2022-02-22T17:02:32.584Z</time>
      </trkpt>
      <trkpt lat="41.262" lon="-1.42863">
        <ele>907.095955</ele>
        <time>2022-02-22T17:04:52.737Z</time>
      </trkpt>
      <trkpt lat="41.262" lon="-1.43165">
        <ele>914.632131</ele>
        <time>2022-02-22T17:06:23.438Z</time>
      </trkpt>
      <trkpt lat="41.26115" lon="-1.43402">
        <ele>918.554969</ele>
        <time>2022-02-22T17:07:28.092Z</time>
      </trkpt>
      <trkpt lat="41.26095" lon="-1.43402">
        <ele>918.655557</ele>
        <time>2022-02-22T17:07:33.345Z</time>
      </trkpt>
      <trkpt lat="41.25873" lon="-1.43268">
        <ele>919.507477</ele>
        <time>2022-02-22T17:08:27.889Z</time>
      </trkpt>
      <trkpt lat="41.2572" lon="-1.43076">
        <ele>919.893068</ele>
        <time>2022-02-22T17:09:17.787Z</time>
      </trkpt>
      <trkpt lat="41.25581" lon="-1.42896">
        <ele>919.932405</ele>
        <time>2022-02-22T17:10:01.106Z</time>
      </trkpt>
      <trkpt lat="41.25527" lon="-1.42845">
        <ele>919.771468</ele>
        <time>2022-02-22T17:10:15.388Z</time>
      </trkpt>
      <trkpt lat="41.25455" lon="-1.428">
        <ele>919.44669</ele>
        <time>2022-02-22T17:10:32.259Z</time>
      </trkpt>
      <trkpt lat="41.25408" lon="-1.42754">
        <ele>919.208652</ele>
        <time>2022-02-22T17:10:44.428Z</time>
      </trkpt>
      <trkpt lat="41.25193" lon="-1.42438">
        <ele>916.496052</ele>
        <time>2022-02-22T17:11:49.014Z</time>
      </trkpt>
      <trkpt lat="41.25149" lon="-1.42398">
        <ele>915.994636</ele>
        <time>2022-02-22T17:11:59.573Z</time>
      </trkpt>
      <trkpt lat="41.25119" lon="-1.42378">
        <ele>915.657636</ele>
        <time>2022-02-22T17:12:06.176Z</time>
      </trkpt>
      <trkpt lat="41.2495" lon="-1.42289">
        <ele>914.104879</ele>
        <time>2022-02-22T17:12:42.363Z</time>
      </trkpt>
      <trkpt lat="41.24749" lon="-1.42175">
        <ele>913.437622</ele>
        <time>2022-02-22T17:13:29.713Z</time>
      </trkpt>
      <trkpt lat="41.24726" lon="-1.42156">
        <ele>913.399907</ele>
        <time>2022-02-22T17:13:35.705Z</time>
      </trkpt>
      <trkpt lat="41.247" lon="-1.42126">
        <ele>913.353133</ele>
        <time>2022-02-22T17:13:43.154Z</time>
      </trkpt>
      <trkpt lat="41.24597" lon="-1.41952">
        <ele>913.168405</ele>
        <time>2022-02-22T17:14:20.032Z</time>
      </trkpt>
      <trkpt lat="41.24573" lon="-1.41919">
        <ele>913.132298</ele>
        <time>2022-02-22T17:14:27.587Z</time>
      </trkpt>
      <trkpt lat="41.24541" lon="-1.4189">
        <ele>912.893471</ele>
        <time>2022-02-22T17:14:35.771Z</time>
      </trkpt>
      <trkpt lat="41.24504" lon="-1.41866">
        <ele>912.503287</ele>
        <time>2022-02-22T17:14:44.633Z</time>
      </trkpt>
      <trkpt lat="41.24087" lon="-1.4168">
        <ele>907.838243</ele>
        <time>2022-02-22T17:16:11.455Z</time>
      </trkpt>
      <trkpt lat="41.24007" lon="-1.41673">
        <ele>906.392523</ele>
        <time>2022-02-22T17:16:26.123Z</time>
      </trkpt>
      <trkpt lat="41.23912" lon="-1.41711">
        <ele>904.269049</ele>
        <time>2022-02-22T17:16:44.125Z</time>
      </trkpt>
      <trkpt lat="41.23833" lon="-1.41718">
        <ele>902.192973</ele>
        <time>2022-02-22T17:16:58.308Z</time>
      </trkpt>
      <trkpt lat="41.23786" lon="-1.41709">
        <ele>900.783846</ele>
        <time>2022-02-22T17:17:06.517Z</time>
      </trkpt>
      <trkpt lat="41.23744" lon="-1.41692">
        <ele>899.446816</ele>
        <time>2022-02-22T17:17:14.208Z</time>
      </trkpt>
      <trkpt lat="41.23537" lon="-1.41624">
        <ele>892.253846</ele>
        <time>2022-02-22T17:17:49.590Z</time>
      </trkpt>
      <trkpt lat="41.2345" lon="-1.41636">
        <ele>890.531734</ele>
        <time>2022-02-22T17:18:05.212Z</time>
      </trkpt>
      <trkpt lat="41.23356" lon="-1.41673">
        <ele>888.806827</ele>
        <time>2022-02-22T17:18:24.522Z</time>
      </trkpt>
      <trkpt lat="41.23301" lon="-1.4168">
        <ele>888.646168</ele>
        <time>2022-02-22T17:18:35.963Z</time>
      </trkpt>
      <trkpt lat="41.2326" lon="-1.41669">
        <ele>888.581847</ele>
        <time>2022-02-22T17:18:45.024Z</time>
      </trkpt>
      <trkpt lat="41.23209" lon="-1.41638">
        <ele>888.496916</ele>
        <time>2022-02-22T17:18:57.448Z</time>
      </trkpt>
      <trkpt lat="41.22977" lon="-1.41386">
        <ele>889.262504</ele>
        <time>2022-02-22T17:20:13.048Z</time>
      </trkpt>
      <trkpt lat="41.2279" lon="-1.41165">
        <ele>887.377429</ele>
        <time>2022-02-22T17:21:02.573Z</time>
      </trkpt>
      <trkpt lat="41.22703" lon="-1.41081">
        <ele>886.235867</ele>
        <time>2022-02-22T17:21:23.645Z</time>
      </trkpt>
      <trkpt lat="41.22655" lon="-1.4105">
        <ele>885.668582</ele>
        <time>2022-02-22T17:21:34.272Z</time>
      </trkpt>
      <trkpt lat="41.22538" lon="-1.41014">
        <ele>883.850734</ele>
        <time>2022-02-22T17:21:58.209Z</time>
      </trkpt>
      <trkpt lat="41.22438" lon="-1.4096">
        <ele>881.84377</ele>
        <time>2022-02-22T17:22:17.857Z</time>
      </trkpt>
      <trkpt lat="41.22306" lon="-1.40879">
        <ele>876.775801</ele>
        <time>2022-02-22T17:22:42.394Z</time>
      </trkpt>
      <trkpt lat="41.22196" lon="-1.40817">
        <ele>872.459869</ele>
        <time>2022-02-22T17:23:01.852Z</time>
      </trkpt>
      <trkpt lat="41.22054" lon="-1.40755">
        <ele>868.158408</ele>
        <time>2022-02-22T17:23:27.547Z</time>
      </trkpt>
      <trkpt lat="41.22023" lon="-1.40715">
        <ele>867.365713</ele>
        <time>2022-02-22T17:23:35.588Z</time>
      </trkpt>
      <trkpt lat="41.21997" lon="-1.40663">
        <ele>866.504508</ele>
        <time>2022-02-22T17:23:44.650Z</time>
      </trkpt>
      <trkpt lat="41.21961" lon="-1.40499">
        <ele>865.879314</ele>
        <time>2022-02-22T17:24:11.879Z</time>
      </trkpt>
      <trkpt lat="41.21939" lon="-1.40446">
        <ele>865.828829</ele>
        <time>2022-02-22T17:24:22.343Z</time>
      </trkpt>
      <trkpt lat="41.21913" lon="-1.40401">
        <ele>865.860369</ele>
        <time>2022-02-22T17:24:32.281Z</time>
      </trkpt>
      <trkpt lat="41.21693" lon="-1.4009">
        <ele>868.884339</ele>
        <time>2022-02-22T17:25:57.180Z</time>
      </trkpt>
      <trkpt lat="41.21674" lon="-1.40063">
        <ele>869.211406</ele>
        <time>2022-02-22T17:26:06.077Z</time>
      </trkpt>
      <trkpt lat="41.21645" lon="-1.40066">
        <ele>870.11811</ele>
        <time>2022-02-22T17:26:15.771Z</time>
      </trkpt>
      <trkpt lat="41.21628" lon="-1.40074">
        <ele>870.708367</ele>
        <time>2022-02-22T17:26:22.147Z</time>
      </trkpt>
      <trkpt lat="41.21558" lon="-1.40119">
        <ele>873.217964</ele>
        <time>2022-02-22T17:26:55.026Z</time>
      </trkpt>
      <trkpt lat="41.21511" lon="-1.40132">
        <ele>874.749661</ele>
        <time>2022-02-22T17:27:14.799Z</time>
      </trkpt>
      <trkpt lat="41.21492" lon="-1.40133">
        <ele>875.287489</ele>
        <time>2022-02-22T17:27:21.333Z</time>
      </trkpt>
      <trkpt lat="41.21474" lon="-1.40124">
        <ele>875.781318</ele>
        <time>2022-02-22T17:27:29.563Z</time>
      </trkpt>
      <trkpt lat="41.21455" lon="-1.40114">
        <ele>876.284082</ele>
        <time>2022-02-22T17:27:36.355Z</time>
      </trkpt>
      <trkpt lat="41.21403" lon="-1.40108">
        <ele>877.58707</ele>
        <time>2022-02-22T17:27:55.317Z</time>
      </trkpt>
      <trkpt lat="41.21367" lon="-1.40092">
        <ele>878.530501</ele>
        <time>2022-02-22T17:28:08.340Z</time>
      </trkpt>
      <trkpt lat="41.21336" lon="-1.40054">
        <ele>879.560779</ele>
        <time>2022-02-22T17:28:21.867Z</time>
      </trkpt>
      <trkpt lat="41.21287" lon="-1.39999">
        <ele>880.581086</ele>
        <time>2022-02-22T17:28:38.364Z</time>
      </trkpt>
      <trkpt lat="41.21271" lon="-1.39981">
        <ele>880.921741</ele>
        <time>2022-02-22T17:28:44.356Z</time>
      </trkpt>
      <trkpt lat="41.21217" lon="-1.39911">
        <ele>882.136932</ele>
        <time>2022-02-22T17:29:06.937Z</time>
      </trkpt>
      <trkpt lat="41.21144" lon="-1.39827">
        <ele>884.833158</ele>
        <time>2022-02-22T17:29:42.186Z</time>
      </trkpt>
      <trkpt lat="41.21136" lon="-1.39822">
        <ele>885.112486</ele>
        <time>2022-02-22T17:29:45.604Z</time>
      </trkpt>
      <trkpt lat="41.21101" lon="-1.39803">
        <ele>886.256486</ele>
        <time>2022-02-22T17:30:00.774Z</time>
      </trkpt>
      <trkpt lat="41.21082" lon="-1.39814">
        <ele>886.876238</ele>
        <time>2022-02-22T17:30:09.160Z</time>
      </trkpt>
      <trkpt lat="41.20977" lon="-1.39874">
        <ele>889.860564</ele>
        <time>2022-02-22T17:30:52.436Z</time>
      </trkpt>
      <trkpt lat="41.20891" lon="-1.3995">
        <ele>892.32874</ele>
        <time>2022-02-22T17:31:25.589Z</time>
      </trkpt>
      <trkpt lat="41.2082" lon="-1.39985">
        <ele>893.45893</ele>
        <time>2022-02-22T17:31:46.648Z</time>
      </trkpt>
      <trkpt lat="41.20782" lon="-1.39997">
        <ele>894.041856</ele>
        <time>2022-02-22T17:31:57.513Z</time>
      </trkpt>
      <trkpt lat="41.20462" lon="-1.40049">
        <ele>899.560702</ele>
        <time>2022-02-22T17:33:39.212Z</time>
      </trkpt>
      <trkpt lat="41.20344" lon="-1.40062">
        <ele>901.454997</ele>
        <time>2022-02-22T17:34:12.979Z</time>
      </trkpt>
      <trkpt lat="41.20188" lon="-1.4008">
        <ele>904.138343</ele>
        <time>2022-02-22T17:35:01.436Z</time>
      </trkpt>
      <trkpt lat="41.20023" lon="-1.40086">
        <ele>907.519379</ele>
        <time>2022-02-22T17:35:57.141Z</time>
      </trkpt>
      <trkpt lat="41.19916" lon="-1.4011">
        <ele>908.828845</ele>
        <time>2022-02-22T17:36:28.409Z</time>
      </trkpt>
      <trkpt lat="41.19832" lon="-1.40132">
        <ele>909.724759</ele>
        <time>2022-02-22T17:36:49.771Z</time>
      </trkpt>
      <trkpt lat="41.19624" lon="-1.40241">
        <ele>911.351278</ele>
        <time>2022-02-22T17:37:48.150Z</time>
      </trkpt>
      <trkpt lat="41.19193" lon="-1.40324">
        <ele>914.105645</ele>
        <time>2022-02-22T17:39:38.820Z</time>
      </trkpt>
      <trkpt lat="41.1855" lon="-1.40324">
        <ele>916.962656</ele>
        <time>2022-02-22T17:42:15.088Z</time>
      </trkpt>
      <trkpt lat="41.18197" lon="-1.40297">
        <ele>918.94097</ele>
        <time>2022-02-22T17:43:44.392Z</time>
      </trkpt>
      <trkpt lat="41.18034" lon="-1.40264">
        <ele>919.690994</ele>
        <time>2022-02-22T17:44:24.710Z</time>
      </trkpt>
      <trkpt lat="41.17772" lon="-1.40057">
        <ele>921.099483</ele>
        <time>2022-02-22T17:45:38.404Z</time>
      </trkpt>
      <trkpt lat="41.17617" lon="-1.39942">
        <ele>922.638959</ele>
        <time>2022-02-22T17:46:26.275Z</time>
      </trkpt>
      <trkpt lat="41.172" lon="-1.39651">
        <ele>927.450493</ele>
        <time>2022-02-22T17:48:35.800Z</time>
      </trkpt>
      <trkpt lat="41.17061" lon="-1.3947">
        <ele>929.239698</ele>
        <time>2022-02-22T17:49:28.142Z</time>
      </trkpt>
      <trkpt lat="41.16906" lon="-1.39299">
        <ele>931.031158</ele>
        <time>2022-02-22T17:50:20.591Z</time>
      </trkpt>
      <trkpt lat="41.16699" lon="-1.39007">
        <ele>934.064378</ele>
        <time>2022-02-22T17:51:44.446Z</time>
      </trkpt>
      <trkpt lat="41.16092" lon="-1.38677">
        <ele>939.724344</ele>
        <time>2022-02-22T17:54:37.355Z</time>
      </trkpt>
      <trkpt lat="41.15501" lon="-1.38329">
        <ele>946.63533</ele>
        <time>2022-02-22T17:57:42.522Z</time>
      </trkpt>
      <trkpt lat="41.15485" lon="-1.3831">
        <ele>946.625376</ele>
        <time>2022-02-22T17:57:46.864Z</time>
      </trkpt>
      <trkpt lat="41.15317" lon="-1.38106">
        <ele>943.459648</ele>
        <time>2022-02-22T17:58:29.359Z</time>
      </trkpt>
      <trkpt lat="41.15282" lon="-1.38074">
        <ele>942.586032</ele>
        <time>2022-02-22T17:58:36.857Z</time>
      </trkpt>
      <trkpt lat="41.15089" lon="-1.37972">
        <ele>938.093524</ele>
        <time>2022-02-22T17:59:14.403Z</time>
      </trkpt>
      <trkpt lat="41.1507" lon="-1.37978">
        <ele>937.688905</ele>
        <time>2022-02-22T17:59:18.021Z</time>
      </trkpt>
      <trkpt lat="41.15054" lon="-1.37977">
        <ele>937.355934</ele>
        <time>2022-02-22T17:59:20.928Z</time>
      </trkpt>
      <trkpt lat="41.15061" lon="-1.37962">
        <ele>937.084956</ele>
        <time>2022-02-22T17:59:23.453Z</time>
      </trkpt>
      <trkpt lat="41.1504" lon="-1.37951">
        <ele>936.623965</ele>
        <time>2022-02-22T17:59:29.011Z</time>
      </trkpt>
      <trkpt lat="41.14988" lon="-1.37965">
        <ele>935.506665</ele>
        <time>2022-02-22T17:59:42.598Z</time>
      </trkpt>
      <trkpt lat="41.14956" lon="-1.37949">
        <ele>934.760805</ele>
        <time>2022-02-22T17:59:50.762Z</time>
      </trkpt>
      <trkpt lat="41.14942" lon="-1.37942">
        <ele>934.417246</ele>
        <time>2022-02-22T17:59:54.352Z</time>
      </trkpt>
      <trkpt lat="41.14885" lon="-1.37934">
        <ele>933.159049</ele>
        <time>2022-02-22T18:00:08.793Z</time>
      </trkpt>
      <trkpt lat="41.14869" lon="-1.37938">
        <ele>932.81161</ele>
        <time>2022-02-22T18:00:12.587Z</time>
      </trkpt>
      <trkpt lat="41.14812" lon="-1.3787">
        <ele>930.987324</ele>
        <time>2022-02-22T18:00:31.813Z</time>
      </trkpt>
      <trkpt lat="41.14806" lon="-1.37845">
        <ele>930.443809</ele>
        <time>2022-02-22T18:00:36.865Z</time>
      </trkpt>
      <trkpt lat="41.14808" lon="-1.37831">
        <ele>930.151875</ele>
        <time>2022-02-22T18:00:39.242Z</time>
      </trkpt>
      <trkpt lat="41.14822" lon="-1.37803">
        <ele>929.438171</ele>
        <time>2022-02-22T18:00:45.392Z</time>
      </trkpt>
      <trkpt lat="41.14849" lon="-1.37779">
        <ele>928.524583</ele>
        <time>2022-02-22T18:00:52.869Z</time>
      </trkpt>
      <trkpt lat="41.14852" lon="-1.3777">
        <ele>928.322283</ele>
        <time>2022-02-22T18:00:55.340Z</time>
      </trkpt>
      <trkpt lat="41.1481" lon="-1.37784">
        <ele>927.089136</ele>
        <time>2022-02-22T18:01:02.749Z</time>
      </trkpt>
      <trkpt lat="41.14787" lon="-1.37814">
        <ele>925.97973</ele>
        <time>2022-02-22T18:01:08.590Z</time>
      </trkpt>
      <trkpt lat="41.14765" lon="-1.37821">
        <ele>924.91041</ele>
        <time>2022-02-22T18:01:12.207Z</time>
      </trkpt>
      <trkpt lat="41.14736" lon="-1.37807">
        <ele>923.402642</ele>
        <time>2022-02-22T18:01:17.486Z</time>
      </trkpt>
      <trkpt lat="41.14668" lon="-1.37745">
        <ele>919.448478</ele>
        <time>2022-02-22T18:01:30.338Z</time>
      </trkpt>
      <trkpt lat="41.1465" lon="-1.3774">
        <ele>918.554552</ele>
        <time>2022-02-22T18:01:33.192Z</time>
      </trkpt>
      <trkpt lat="41.14585" lon="-1.37775">
        <ele>913.842381</ele>
        <time>2022-02-22T18:01:43.819Z</time>
      </trkpt>
      <trkpt lat="41.14558" lon="-1.37819">
        <ele>910.751978</ele>
        <time>2022-02-22T18:01:50.146Z</time>
      </trkpt>
      <trkpt lat="41.14505" lon="-1.37957">
        <ele>902.499358</ele>
        <time>2022-02-22T18:02:07.293Z</time>
      </trkpt>
      <trkpt lat="41.14486" lon="-1.38016">
        <ele>899.31806</ele>
        <time>2022-02-22T18:02:14.340Z</time>
      </trkpt>
      <trkpt lat="41.14476" lon="-1.38029">
        <ele>898.384344</ele>
        <time>2022-02-22T18:02:16.466Z</time>
      </trkpt>
      <trkpt lat="41.14445" lon="-1.38076">
        <ele>895.290433</ele>
        <time>2022-02-22T18:02:23.762Z</time>
      </trkpt>
      <trkpt lat="41.14434" lon="-1.38095">
        <ele>894.077563</ele>
        <time>2022-02-22T18:02:26.663Z</time>
      </trkpt>
      <trkpt lat="41.1441" lon="-1.38118">
        <ele>892.373619</ele>
        <time>2022-02-22T18:02:31.354Z</time>
      </trkpt>
      <trkpt lat="41.14407" lon="-1.38138">
        <ele>891.699958</ele>
        <time>2022-02-22T18:02:33.955Z</time>
      </trkpt>
      <trkpt lat="41.14395" lon="-1.38153">
        <ele>890.927469</ele>
        <time>2022-02-22T18:02:36.959Z</time>
      </trkpt>
      <trkpt lat="41.14369" lon="-1.38167">
        <ele>889.712597</ele>
        <time>2022-02-22T18:02:41.788Z</time>
      </trkpt>
      <trkpt lat="41.14341" lon="-1.38194">
        <ele>888.157577</ele>
        <time>2022-02-22T18:02:47.744Z</time>
      </trkpt>
      <trkpt lat="41.1431" lon="-1.38209">
        <ele>886.683877</ele>
        <time>2022-02-22T18:02:53.290Z</time>
      </trkpt>
      <trkpt lat="41.14267" lon="-1.3831">
        <ele>882.548812</ele>
        <time>2022-02-22T18:03:08.160Z</time>
      </trkpt>
      <trkpt lat="41.14235" lon="-1.38344">
        <ele>880.496124</ele>
        <time>2022-02-22T18:03:14.957Z</time>
      </trkpt>
      <trkpt lat="41.14216" lon="-1.38359">
        <ele>879.390828</ele>
        <time>2022-02-22T18:03:18.561Z</time>
      </trkpt>
      <trkpt lat="41.14192" lon="-1.38364">
        <ele>878.168891</ele>
        <time>2022-02-22T18:03:22.531Z</time>
      </trkpt>
      <trkpt lat="41.14172" lon="-1.38374">
        <ele>877.124909</ele>
        <time>2022-02-22T18:03:28.386Z</time>
      </trkpt>
      <trkpt lat="41.14144" lon="-1.38366">
        <ele>875.716926</ele>
        <time>2022-02-22T18:03:36.449Z</time>
      </trkpt>
      <trkpt lat="41.14016" lon="-1.38355">
        <ele>871.202544</ele>
        <time>2022-02-22T18:04:14.450Z</time>
      </trkpt>
      <trkpt lat="41.13961" lon="-1.38373">
        <ele>869.326472</ele>
        <time>2022-02-22T18:04:33.780Z</time>
      </trkpt>
      <trkpt lat="41.13937" lon="-1.38407">
        <ele>868.718155</ele>
        <time>2022-02-22T18:04:45.682Z</time>
      </trkpt>
      <trkpt lat="41.13846" lon="-1.38473">
        <ele>866.910467</ele>
        <time>2022-02-22T18:05:20.466Z</time>
      </trkpt>
      <trkpt lat="41.13818" lon="-1.38517">
        <ele>865.919557</ele>
        <time>2022-02-22T18:05:34.552Z</time>
      </trkpt>
      <trkpt lat="41.13769" lon="-1.38571">
        <ele>863.408991</ele>
        <time>2022-02-22T18:05:54.113Z</time>
      </trkpt>
      <trkpt lat="41.13646" lon="-1.38654">
        <ele>857.556846</ele>
        <time>2022-02-22T18:06:34.249Z</time>
      </trkpt>
      <trkpt lat="41.13605" lon="-1.38694">
        <ele>854.956068</ele>
        <time>2022-02-22T18:06:48.778Z</time>
      </trkpt>
      <trkpt lat="41.135" lon="-1.38762">
        <ele>848.877616</ele>
        <time>2022-02-22T18:07:22.109Z</time>
      </trkpt>
      <trkpt lat="41.13386" lon="-1.38878">
        <ele>841.184047</ele>
        <time>2022-02-22T18:08:02.734Z</time>
      </trkpt>
      <trkpt lat="41.13279" lon="-1.39011">
        <ele>834.682266</ele>
        <time>2022-02-22T18:08:45.656Z</time>
      </trkpt>
      <trkpt lat="41.13154" lon="-1.39126">
        <ele>829.021235</ele>
        <time>2022-02-22T18:09:31.830Z</time>
      </trkpt>
      <trkpt lat="41.13113" lon="-1.39144">
        <ele>827.51845</ele>
        <time>2022-02-22T18:09:45.162Z</time>
      </trkpt>
      <trkpt lat="41.13045" lon="-1.39153">
        <ele>825.002382</ele>
        <time>2022-02-22T18:10:05.911Z</time>
      </trkpt>
      <trkpt lat="41.13007" lon="-1.39172">
        <ele>823.411656</ele>
        <time>2022-02-22T18:10:18.043Z</time>
      </trkpt>
      <trkpt lat="41.1296" lon="-1.39237">
        <ele>820.771067</ele>
        <time>2022-02-22T18:10:38.005Z</time>
      </trkpt>
      <trkpt lat="41.12765" lon="-1.3936">
        <ele>812.555405</ele>
        <time>2022-02-22T18:11:42.512Z</time>
      </trkpt>
      <trkpt lat="41.12757" lon="-1.39374">
        <ele>812.30671</ele>
        <time>2022-02-22T18:11:46.495Z</time>
      </trkpt>
      <trkpt lat="41.12637" lon="-1.39437">
        <ele>809.946344</ele>
        <time>2022-02-22T18:12:29.467Z</time>
      </trkpt>
      <trkpt lat="41.12652" lon="-1.39514">
        <ele>808.885211</ele>
        <time>2022-02-22T18:12:50.324Z</time>
      </trkpt>
      <trkpt lat="41.12529" lon="-1.39562">
        <ele>806.755601</ele>
        <time>2022-02-22T18:13:14.688Z</time>
      </trkpt>
      <trkpt lat="41.12465" lon="-1.39598">
        <ele>805.287803</ele>
        <time>2022-02-22T18:13:27.079Z</time>
      </trkpt>
      <trkpt lat="41.12406" lon="-1.39635">
        <ele>803.709979</ele>
        <time>2022-02-22T18:13:38.442Z</time>
      </trkpt>
      <trkpt lat="41.12318" lon="-1.39711">
        <ele>801.417614</ele>
        <time>2022-02-22T18:13:57.185Z</time>
      </trkpt>
      <trkpt lat="41.1229" lon="-1.39733">
        <ele>800.910846</ele>
        <time>2022-02-22T18:14:03.315Z</time>
      </trkpt>
      <trkpt lat="41.12254" lon="-1.3977">
        <ele>800.21359</ele>
        <time>2022-02-22T18:14:11.989Z</time>
      </trkpt>
      <trkpt lat="41.12253" lon="-1.39791">
        <ele>799.968306</ele>
        <time>2022-02-22T18:14:15.122Z</time>
      </trkpt>
      <trkpt lat="41.12246" lon="-1.39808">
        <ele>799.752442</ele>
        <time>2022-02-22T18:14:17.812Z</time>
      </trkpt>
      <trkpt lat="41.12233" lon="-1.39824">
        <ele>799.47418</ele>
        <time>2022-02-22T18:14:21.390Z</time>
      </trkpt>
      <trkpt lat="41.12215" lon="-1.3983">
        <ele>799.191367</ele>
        <time>2022-02-22T18:14:24.913Z</time>
      </trkpt>
      <trkpt lat="41.12203" lon="-1.39839">
        <ele>799.027883</ele>
        <time>2022-02-22T18:14:27.740Z</time>
      </trkpt>
      <trkpt lat="41.1219" lon="-1.39862">
        <ele>798.837479</ele>
        <time>2022-02-22T18:14:32.006Z</time>
      </trkpt>
      <trkpt lat="41.12154" lon="-1.39919">
        <ele>798.352668</ele>
        <time>2022-02-22T18:14:43.505Z</time>
      </trkpt>
      <trkpt lat="41.12119" lon="-1.39973">
        <ele>797.879195</ele>
        <time>2022-02-22T18:14:54.739Z</time>
      </trkpt>
      <trkpt lat="41.12014" lon="-1.40137">
        <ele>795.70884</ele>
        <time>2022-02-22T18:15:26.087Z</time>
      </trkpt>
      <trkpt lat="41.11953" lon="-1.40231">
        <ele>794.133494</ele>
        <time>2022-02-22T18:15:43.316Z</time>
      </trkpt>
      <trkpt lat="41.1194" lon="-1.40214">
        <ele>793.754119</ele>
        <time>2022-02-22T18:15:46.822Z</time>
      </trkpt>
      <trkpt lat="41.1186" lon="-1.40346">
        <ele>791.171087</ele>
        <time>2022-02-22T18:16:11.140Z</time>
      </trkpt>
      <trkpt lat="41.11852" lon="-1.40371">
        <ele>790.931449</ele>
        <time>2022-02-22T18:16:15.033Z</time>
      </trkpt>
      <trkpt lat="41.11803" lon="-1.40452">
        <ele>790.013088</ele>
        <time>2022-02-22T18:16:30.723Z</time>
      </trkpt>
      <trkpt lat="41.11806" lon="-1.4046">
        <ele>789.931937</ele>
        <time>2022-02-22T18:16:32.217Z</time>
      </trkpt>
      <trkpt lat="41.11775" lon="-1.40509">
        <ele>789.356171</ele>
        <time>2022-02-22T18:16:41.951Z</time>
      </trkpt>
      <trkpt lat="41.11746" lon="-1.40554">
        <ele>788.992623</ele>
        <time>2022-02-22T18:16:51.405Z</time>
      </trkpt>
      <trkpt lat="41.11726" lon="-1.40585">
        <ele>788.87819</ele>
        <time>2022-02-22T18:16:58.454Z</time>
      </trkpt>
      <trkpt lat="41.11701" lon="-1.40624">
        <ele>788.736003</ele>
        <time>2022-02-22T18:17:06.946Z</time>
      </trkpt>
      <trkpt lat="41.11683" lon="-1.40651">
        <ele>788.634325</ele>
        <time>2022-02-22T18:17:12.753Z</time>
      </trkpt>
      <trkpt lat="41.11672" lon="-1.40669">
        <ele>788.568942</ele>
        <time>2022-02-22T18:17:16.411Z</time>
      </trkpt>
      <trkpt lat="41.11639" lon="-1.40728">
        <ele>788.349352</ele>
        <time>2022-02-22T18:17:28.148Z</time>
      </trkpt>
      <trkpt lat="41.11618" lon="-1.40733">
        <ele>788.237792</ele>
        <time>2022-02-22T18:17:32.747Z</time>
      </trkpt>
      <trkpt lat="41.11583" lon="-1.40763">
        <ele>788.014915</ele>
        <time>2022-02-22T18:17:41.774Z</time>
      </trkpt>
      <trkpt lat="41.11534" lon="-1.40801">
        <ele>787.712707</ele>
        <time>2022-02-22T18:17:54.185Z</time>
      </trkpt>
      <trkpt lat="41.11505" lon="-1.40824">
        <ele>787.531003</ele>
        <time>2022-02-22T18:18:02.288Z</time>
      </trkpt>
      <trkpt lat="41.11437" lon="-1.40876">
        <ele>786.686471</ele>
        <time>2022-02-22T18:18:18.693Z</time>
      </trkpt>
      <trkpt lat="41.11427" lon="-1.40908">
        <ele>786.365919</ele>
        <time>2022-02-22T18:18:23.830Z</time>
      </trkpt>
      <trkpt lat="41.11423" lon="-1.40936">
        <ele>786.097796</ele>
        <time>2022-02-22T18:18:28.058Z</time>
      </trkpt>
      <trkpt lat="41.11421" lon="-1.40962">
        <ele>785.856037</ele>
        <time>2022-02-22T18:18:31.849Z</time>
      </trkpt>
      <trkpt lat="41.11419" lon="-1.4099">
        <ele>785.597482</ele>
        <time>2022-02-22T18:18:35.709Z</time>
      </trkpt>
      <trkpt lat="41.11419" lon="-1.40991">
        <ele>785.584448</ele>
        <time>2022-02-22T18:18:35.912Z</time>
      </trkpt>
      <trkpt lat="41.11419" lon="-1.41005">
        <ele>785.456845</ele>
        <time>2022-02-22T18:18:37.899Z</time>
      </trkpt>
      <trkpt lat="41.11419" lon="-1.41039">
        <ele>785.088841</ele>
        <time>2022-02-22T18:18:42.648Z</time>
      </trkpt>
      <trkpt lat="41.11423" lon="-1.4107">
        <ele>784.615099</ele>
        <time>2022-02-22T18:18:46.956Z</time>
      </trkpt>
      <trkpt lat="41.11426" lon="-1.41096">
        <ele>784.209351</ele>
        <time>2022-02-22T18:18:50.783Z</time>
      </trkpt>
      <trkpt lat="41.11426" lon="-1.41107">
        <ele>784.053843</ele>
        <time>2022-02-22T18:18:52.226Z</time>
      </trkpt>
      <trkpt lat="41.1143" lon="-1.4115">
        <ele>783.398683</ele>
        <time>2022-02-22T18:18:58.253Z</time>
      </trkpt>
      <trkpt lat="41.1143" lon="-1.41154">
        <ele>783.323851</ele>
        <time>2022-02-22T18:18:58.927Z</time>
      </trkpt>
      <trkpt lat="41.11431" lon="-1.41184">
        <ele>782.868249</ele>
        <time>2022-02-22T18:19:03.116Z</time>
      </trkpt>
      <trkpt lat="41.1143" lon="-1.41201">
        <ele>782.62221</ele>
        <time>2022-02-22T18:19:05.414Z</time>
      </trkpt>
      <trkpt lat="41.11428" lon="-1.41227">
        <ele>782.223679</ele>
        <time>2022-02-22T18:19:09.022Z</time>
      </trkpt>
      <trkpt lat="41.11425" lon="-1.41265">
        <ele>781.637907</ele>
        <time>2022-02-22T18:19:14.226Z</time>
      </trkpt>
      <trkpt lat="41.11422" lon="-1.41274">
        <ele>781.444657</ele>
        <time>2022-02-22T18:19:15.511Z</time>
      </trkpt>
      <trkpt lat="41.11417" lon="-1.41304">
        <ele>780.728727</ele>
        <time>2022-02-22T18:19:19.609Z</time>
      </trkpt>
      <trkpt lat="41.11412" lon="-1.41328">
        <ele>780.145491</ele>
        <time>2022-02-22T18:19:22.906Z</time>
      </trkpt>
      <trkpt lat="41.11411" lon="-1.41331">
        <ele>780.076352</ele>
        <time>2022-02-22T18:19:23.293Z</time>
      </trkpt>
      <trkpt lat="41.11396" lon="-1.41382">
        <ele>778.812306</ele>
        <time>2022-02-22T18:19:30.319Z</time>
      </trkpt>
      <trkpt lat="41.11395" lon="-1.41388">
        <ele>778.683918</ele>
        <time>2022-02-22T18:19:31.007Z</time>
      </trkpt>
      <trkpt lat="41.11392" lon="-1.41418">
        <ele>777.972501</ele>
        <time>2022-02-22T18:19:35.028Z</time>
      </trkpt>
      <trkpt lat="41.114" lon="-1.41482">
        <ele>776.481694</ele>
        <time>2022-02-22T18:19:43.582Z</time>
      </trkpt>
      <trkpt lat="41.11401" lon="-1.41487">
        <ele>776.35291</ele>
        <time>2022-02-22T18:19:44.281Z</time>
      </trkpt>
      <trkpt lat="41.11403" lon="-1.41511">
        <ele>775.626114</ele>
        <time>2022-02-22T18:19:47.417Z</time>
      </trkpt>
      <trkpt lat="41.11399" lon="-1.41544">
        <ele>774.401918</ele>
        <time>2022-02-22T18:19:51.512Z</time>
      </trkpt>
      <trkpt lat="41.11394" lon="-1.41556">
        <ele>773.887668</ele>
        <time>2022-02-22T18:19:53.228Z</time>
      </trkpt>
      <trkpt lat="41.11378" lon="-1.41584">
        <ele>772.605732</ele>
        <time>2022-02-22T18:19:57.259Z</time>
      </trkpt>
      <trkpt lat="41.11365" lon="-1.41598">
        <ele>771.812573</ele>
        <time>2022-02-22T18:19:59.811Z</time>
      </trkpt>
      <trkpt lat="41.11323" lon="-1.41643">
        <ele>769.132136</ele>
        <time>2022-02-22T18:20:08.215Z</time>
      </trkpt>
      <trkpt lat="41.1131" lon="-1.41658">
        <ele>768.328037</ele>
        <time>2022-02-22T18:20:10.867Z</time>
      </trkpt>
      <trkpt lat="41.11303" lon="-1.41666">
        <ele>767.83676</ele>
        <time>2022-02-22T18:20:12.436Z</time>
      </trkpt>
      <trkpt lat="41.11287" lon="-1.41685">
        <ele>766.832507</ele>
        <time>2022-02-22T18:20:15.872Z</time>
      </trkpt>
      <trkpt lat="41.11279" lon="-1.41694">
        <ele>766.355084</ele>
        <time>2022-02-22T18:20:17.570Z</time>
      </trkpt>
      <trkpt lat="41.11276" lon="-1.41698">
        <ele>766.172338</ele>
        <time>2022-02-22T18:20:18.232Z</time>
      </trkpt>
      <trkpt lat="41.11272" lon="-1.41703">
        <ele>765.923293</ele>
        <time>2022-02-22T18:20:19.089Z</time>
      </trkpt>
      <trkpt lat="41.1125" lon="-1.41706">
        <ele>764.906152</ele>
        <time>2022-02-22T18:20:22.809Z</time>
      </trkpt>
      <trkpt lat="41.11246" lon="-1.41708">
        <ele>764.693004</ele>
        <time>2022-02-22T18:20:23.564Z</time>
      </trkpt>
      <trkpt lat="41.112" lon="-1.41721">
        <ele>762.556143</ele>
        <time>2022-02-22T18:20:31.056Z</time>
      </trkpt>
      <trkpt lat="41.11091" lon="-1.41767">
        <ele>757.907612</ele>
        <time>2022-02-22T18:20:49.438Z</time>
      </trkpt>
      <trkpt lat="41.11078" lon="-1.41775">
        <ele>757.468007</ele>
        <time>2022-02-22T18:20:51.864Z</time>
      </trkpt>
      <trkpt lat="41.11063" lon="-1.41784">
        <ele>756.970006</ele>
        <time>2022-02-22T18:20:54.646Z</time>
      </trkpt>
      <trkpt lat="41.11056" lon="-1.41789">
        <ele>756.721319</ele>
        <time>2022-02-22T18:20:56.072Z</time>
      </trkpt>
      <trkpt lat="41.11011" lon="-1.41812">
        <ele>755.257058</ele>
        <time>2022-02-22T18:21:04.467Z</time>
      </trkpt>
      <trkpt lat="41.10877" lon="-1.41888">
        <ele>752.339623</ele>
        <time>2022-02-22T18:21:31.666Z</time>
      </trkpt>
      <trkpt lat="41.1073" lon="-1.41967">
        <ele>750.543163</ele>
        <time>2022-02-22T18:22:03.205Z</time>
      </trkpt>
      <trkpt lat="41.10703" lon="-1.41982">
        <ele>750.311546</ele>
        <time>2022-02-22T18:22:08.920Z</time>
      </trkpt>
      <trkpt lat="41.10663" lon="-1.42008">
        <ele>749.950821</ele>
        <time>2022-02-22T18:22:17.947Z</time>
      </trkpt>
      <trkpt lat="41.10658" lon="-1.42011">
        <ele>749.910013</ele>
        <time>2022-02-22T18:22:18.957Z</time>
      </trkpt>
      <trkpt lat="41.1061" lon="-1.42037">
        <ele>749.86335</ele>
        <time>2022-02-22T18:22:29.808Z</time>
      </trkpt>
      <trkpt lat="41.10595" lon="-1.42044">
        <ele>750.0206</ele>
        <time>2022-02-22T18:22:33.432Z</time>
      </trkpt>
      <trkpt lat="41.10576" lon="-1.42054">
        <ele>750.228976</ele>
        <time>2022-02-22T18:22:38.760Z</time>
      </trkpt>
      <trkpt lat="41.10512" lon="-1.42087">
        <ele>750.911137</ele>
        <time>2022-02-22T18:22:58.515Z</time>
      </trkpt>
      <trkpt lat="41.10479" lon="-1.42107">
        <ele>751.274162</ele>
        <time>2022-02-22T18:23:09.756Z</time>
      </trkpt>
      <trkpt lat="41.1046" lon="-1.42124">
        <ele>751.515689</ele>
        <time>2022-02-22T18:23:17.219Z</time>
      </trkpt>
      <trkpt lat="41.10428" lon="-1.42154">
        <ele>752.013101</ele>
        <time>2022-02-22T18:23:30.208Z</time>
      </trkpt>
      <trkpt lat="41.1034" lon="-1.42034">
        <ele>753.627199</ele>
        <time>2022-02-22T18:24:08.646Z</time>
      </trkpt>
      <trkpt lat="41.10303" lon="-1.41985">
        <ele>753.397509</ele>
        <time>2022-02-22T18:24:19.930Z</time>
      </trkpt>
      <trkpt lat="41.10151" lon="-1.41816">
        <ele>752.490148</ele>
        <time>2022-02-22T18:25:00.452Z</time>
      </trkpt>
      <trkpt lat="41.09605" lon="-1.41317">
        <ele>755.093915</ele>
        <time>2022-02-22T18:27:52.120Z</time>
      </trkpt>
      <trkpt lat="41.08786" lon="-1.4055">
        <ele>760.216126</ele>
        <time>2022-02-22T18:32:10.080Z</time>
      </trkpt>
      <trkpt lat="41.08558" lon="-1.40344">
        <ele>761.440372</ele>
        <time>2022-02-22T18:33:18.539Z</time>
      </trkpt>
      <trkpt lat="41.08153" lon="-1.39959">
        <ele>766.245338</ele>
        <time>2022-02-22T18:35:39.874Z</time>
      </trkpt>
      <trkpt lat="41.07864" lon="-1.39526">
        <ele>768.521757</ele>
        <time>2022-02-22T18:37:31.863Z</time>
      </trkpt>
      <trkpt lat="41.07639" lon="-1.39173">
        <ele>769.647919</ele>
        <time>2022-02-22T18:38:58.012Z</time>
      </trkpt>
      <trkpt lat="41.07603" lon="-1.39136">
        <ele>769.758024</ele>
        <time>2022-02-22T18:39:08.835Z</time>
      </trkpt>
      <trkpt lat="41.07378" lon="-1.38961">
        <ele>770.673293</ele>
        <time>2022-02-22T18:40:12.958Z</time>
      </trkpt>
      <trkpt lat="41.0679" lon="-1.38531">
        <ele>776.934051</ele>
        <time>2022-02-22T18:43:22.546Z</time>
      </trkpt>
      <trkpt lat="41.06718" lon="-1.38487">
        <ele>777.24879</ele>
        <time>2022-02-22T18:43:41.973Z</time>
      </trkpt>
      <trkpt lat="41.06642" lon="-1.38454">
        <ele>777.021699</ele>
        <time>2022-02-22T18:43:59.602Z</time>
      </trkpt>
      <trkpt lat="41.06591" lon="-1.3843">
        <ele>776.870299</ele>
        <time>2022-02-22T18:44:11.307Z</time>
      </trkpt>
      <trkpt lat="41.06596" lon="-1.38405">
        <ele>776.815618</ele>
        <time>2022-02-22T18:44:15.351Z</time>
      </trkpt>
      <trkpt lat="41.06611" lon="-1.38337">
        <ele>776.941381</ele>
        <time>2022-02-22T18:44:27.031Z</time>
      </trkpt>
      <trkpt lat="41.06616" lon="-1.38317">
        <ele>776.980463</ele>
        <time>2022-02-22T18:44:30.459Z</time>
      </trkpt>
      <trkpt lat="41.06611" lon="-1.38314">
        <ele>776.993528</ele>
        <time>2022-02-22T18:44:32.682Z</time>
      </trkpt>
      <trkpt lat="41.06588" lon="-1.38319">
        <ele>777.051468</ele>
        <time>2022-02-22T18:44:41.574Z</time>
      </trkpt>
      <trkpt lat="41.06439" lon="-1.3828">
        <ele>778.202083</ele>
        <time>2022-02-22T18:45:42.814Z</time>
      </trkpt>
      <trkpt lat="41.06382" lon="-1.38248">
        <ele>779.043146</ele>
        <time>2022-02-22T18:46:10.403Z</time>
      </trkpt>
      <trkpt lat="41.06359" lon="-1.3822">
        <ele>779.464868</ele>
        <time>2022-02-22T18:46:24.794Z</time>
      </trkpt>
      <trkpt lat="41.06306" lon="-1.38141">
        <ele>781.048076</ele>
        <time>2022-02-22T18:47:03.833Z</time>
      </trkpt>
      <trkpt lat="41.06295" lon="-1.38045">
        <ele>782.618205</ele>
        <time>2022-02-22T18:47:40.219Z</time>
      </trkpt>
      <trkpt lat="41.06311" lon="-1.38031">
        <ele>783.023802</ele>
        <time>2022-02-22T18:47:49.223Z</time>
      </trkpt>
      <trkpt lat="41.06332" lon="-1.37941">
        <ele>783.884865</ele>
        <time>2022-02-22T18:48:21.045Z</time>
      </trkpt>
      <trkpt lat="41.06302" lon="-1.37926">
        <ele>784.104429</ele>
        <time>2022-02-22T18:48:34.190Z</time>
      </trkpt>
      <trkpt lat="41.06238" lon="-1.37879">
        <ele>784.602733</ele>
        <time>2022-02-22T18:49:02.215Z</time>
      </trkpt>
      <trkpt lat="41.06181" lon="-1.37805">
        <ele>785.211578</ele>
        <time>2022-02-22T18:49:31.453Z</time>
      </trkpt>
      <trkpt lat="41.06164" lon="-1.3775">
        <ele>785.56851</ele>
        <time>2022-02-22T18:49:48.900Z</time>
      </trkpt>
      <trkpt lat="41.06163" lon="-1.37711">
        <ele>785.807269</ele>
        <time>2022-02-22T18:50:01.381Z</time>
      </trkpt>
      <trkpt lat="41.06097" lon="-1.37653">
        <ele>786.731603</ele>
        <time>2022-02-22T18:50:37.927Z</time>
      </trkpt>
      <trkpt lat="41.05968" lon="-1.37626">
        <ele>789.309862</ele>
        <time>2022-02-22T18:51:40.847Z</time>
      </trkpt>
      <trkpt lat="41.05912" lon="-1.37598">
        <ele>790.174502</ele>
        <time>2022-02-22T18:52:07.813Z</time>
      </trkpt>
      <trkpt lat="41.0583" lon="-1.37574">
        <ele>791.081077</ele>
        <time>2022-02-22T18:52:43.812Z</time>
      </trkpt>
      <trkpt lat="41.05793" lon="-1.37555">
        <ele>791.50594</ele>
        <time>2022-02-22T18:52:59.761Z</time>
      </trkpt>
      <trkpt lat="41.05775" lon="-1.375">
        <ele>791.806359</ele>
        <time>2022-02-22T18:53:17.604Z</time>
      </trkpt>
      <trkpt lat="41.05674" lon="-1.37407">
        <ele>792.200871</ele>
        <time>2022-02-22T18:54:05.276Z</time>
      </trkpt>
      <trkpt lat="41.05605" lon="-1.37281">
        <ele>792.273138</ele>
        <time>2022-02-22T18:54:48.847Z</time>
      </trkpt>
      <trkpt lat="41.05536" lon="-1.37264">
        <ele>792.246479</ele>
        <time>2022-02-22T18:55:14.442Z</time>
      </trkpt>
      <trkpt lat="41.05506" lon="-1.37252">
        <ele>792.245037</ele>
        <time>2022-02-22T18:55:25.997Z</time>
      </trkpt>
      <trkpt lat="41.05469" lon="-1.37203">
        <ele>792.311963</ele>
        <time>2022-02-22T18:55:45.309Z</time>
      </trkpt>
      <trkpt lat="41.0543" lon="-1.37114">
        <ele>792.411689</ele>
        <time>2022-02-22T18:56:14.451Z</time>
      </trkpt>
      <trkpt lat="41.05394" lon="-1.37087">
        <ele>792.464531</ele>
        <time>2022-02-22T18:56:30.330Z</time>
      </trkpt>
      <trkpt lat="41.05343" lon="-1.37033">
        <ele>792.78132</ele>
        <time>2022-02-22T18:56:56.221Z</time>
      </trkpt>
      <trkpt lat="41.053" lon="-1.36977">
        <ele>793.078699</ele>
        <time>2022-02-22T18:57:20.299Z</time>
      </trkpt>
      <trkpt lat="41.05281" lon="-1.36976">
        <ele>793.175513</ele>
        <time>2022-02-22T18:57:28.051Z</time>
      </trkpt>
      <trkpt lat="41.05224" lon="-1.36916">
        <ele>793.49761</ele>
        <time>2022-02-22T18:57:56.870Z</time>
      </trkpt>
      <trkpt lat="41.05179" lon="-1.36904">
        <ele>793.675249</ele>
        <time>2022-02-22T18:58:14.994Z</time>
      </trkpt>
      <trkpt lat="41.0503" lon="-1.36894">
        <ele>794.175962</ele>
        <time>2022-02-22T18:59:12.623Z</time>
      </trkpt>
      <trkpt lat="41.05014" lon="-1.36892">
        <ele>794.213564</ele>
        <time>2022-02-22T18:59:18.615Z</time>
      </trkpt>
      <trkpt lat="41.04986" lon="-1.36869">
        <ele>794.290594</ele>
        <time>2022-02-22T18:59:31.280Z</time>
      </trkpt>
      <trkpt lat="41.0494" lon="-1.36791">
        <ele>794.464823</ele>
        <time>2022-02-22T18:59:59.707Z</time>
      </trkpt>
      <trkpt lat="41.04898" lon="-1.36701">
        <ele>794.538102</ele>
        <time>2022-02-22T19:00:30.005Z</time>
      </trkpt>
      <trkpt lat="41.04898" lon="-1.36677">
        <ele>794.552594</ele>
        <time>2022-02-22T19:00:36.727Z</time>
      </trkpt>
      <trkpt lat="41.04882" lon="-1.36649">
        <ele>794.574307</ele>
        <time>2022-02-22T19:00:46.710Z</time>
      </trkpt>
      <trkpt lat="41.04824" lon="-1.36615">
        <ele>794.623481</ele>
        <time>2022-02-22T19:01:10.409Z</time>
      </trkpt>
      <trkpt lat="41.04764" lon="-1.36566">
        <ele>794.604236</ele>
        <time>2022-02-22T19:01:36.086Z</time>
      </trkpt>
      <trkpt lat="41.04692" lon="-1.36496">
        <ele>794.579643</ele>
        <time>2022-02-22T19:02:09.079Z</time>
      </trkpt>
      <trkpt lat="41.04598" lon="-1.36421">
        <ele>794.879302</ele>
        <time>2022-02-22T19:02:50.505Z</time>
      </trkpt>
      <trkpt lat="41.0455" lon="-1.36376">
        <ele>795.072699</ele>
        <time>2022-02-22T19:03:13.455Z</time>
      </trkpt>
      <trkpt lat="41.04487" lon="-1.36351">
        <ele>795.607347</ele>
        <time>2022-02-22T19:03:40.091Z</time>
      </trkpt>
      <trkpt lat="41.04472" lon="-1.36343">
        <ele>795.806668</ele>
        <time>2022-02-22T19:03:47.050Z</time>
      </trkpt>
      <trkpt lat="41.04419" lon="-1.36291">
        <ele>796.593748</ele>
        <time>2022-02-22T19:04:15.047Z</time>
      </trkpt>
      <trkpt lat="41.04284" lon="-1.3614">
        <ele>799.243351</ele>
        <time>2022-02-22T19:05:36.383Z</time>
      </trkpt>
      <trkpt lat="41.04221" lon="-1.36066">
        <ele>800.493153</ele>
        <time>2022-02-22T19:06:13.884Z</time>
      </trkpt>
      <trkpt lat="41.04209" lon="-1.36051">
        <ele>800.645774</ele>
        <time>2022-02-22T19:06:18.711Z</time>
      </trkpt>
      <trkpt lat="41.04185" lon="-1.36018">
        <ele>800.957098</ele>
        <time>2022-02-22T19:06:28.141Z</time>
      </trkpt>
      <trkpt lat="41.04153" lon="-1.35972">
        <ele>801.380267</ele>
        <time>2022-02-22T19:06:41.181Z</time>
      </trkpt>
      <trkpt lat="41.04118" lon="-1.35923">
        <ele>801.841888</ele>
        <time>2022-02-22T19:06:54.971Z</time>
      </trkpt>
      <trkpt lat="41.04093" lon="-1.35894">
        <ele>801.987169</ele>
        <time>2022-02-22T19:07:03.229Z</time>
      </trkpt>
      <trkpt lat="41.0408" lon="-1.35881">
        <ele>802.022865</ele>
        <time>2022-02-22T19:07:07.042Z</time>
      </trkpt>
      <trkpt lat="41.04072" lon="-1.35843">
        <ele>802.091089</ele>
        <time>2022-02-22T19:07:14.434Z</time>
      </trkpt>
      <trkpt lat="41.04069" lon="-1.35825">
        <ele>802.123404</ele>
        <time>2022-02-22T19:07:17.897Z</time>
      </trkpt>
      <trkpt lat="41.04056" lon="-1.35799">
        <ele>802.176729</ele>
        <time>2022-02-22T19:07:23.623Z</time>
      </trkpt>
      <trkpt lat="41.04016" lon="-1.35727">
        <ele>802.330181</ele>
        <time>2022-02-22T19:07:39.784Z</time>
      </trkpt>
      <trkpt lat="41.04014" lon="-1.35715">
        <ele>802.337586</ele>
        <time>2022-02-22T19:07:41.920Z</time>
      </trkpt>
      <trkpt lat="41.03993" lon="-1.35682">
        <ele>802.268582</ele>
        <time>2022-02-22T19:07:49.461Z</time>
      </trkpt>
      <trkpt lat="41.03972" lon="-1.35656">
        <ele>802.20585</ele>
        <time>2022-02-22T19:07:55.982Z</time>
      </trkpt>
      <trkpt lat="41.03918" lon="-1.35608">
        <ele>802.065847</ele>
        <time>2022-02-22T19:08:10.363Z</time>
      </trkpt>
      <trkpt lat="41.03904" lon="-1.35602">
        <ele>802.034965</ele>
        <time>2022-02-22T19:08:13.408Z</time>
      </trkpt>
      <trkpt lat="41.03852" lon="-1.35559">
        <ele>801.893653</ele>
        <time>2022-02-22T19:08:26.758Z</time>
      </trkpt>
      <trkpt lat="41.03823" lon="-1.35527">
        <ele>801.799614</ele>
        <time>2022-02-22T19:08:34.889Z</time>
      </trkpt>
      <trkpt lat="41.03787" lon="-1.35472">
        <ele>801.662519</ele>
        <time>2022-02-22T19:08:46.752Z</time>
      </trkpt>
      <trkpt lat="41.03765" lon="-1.35445">
        <ele>801.586402</ele>
        <time>2022-02-22T19:08:53.411Z</time>
      </trkpt>
      <trkpt lat="41.03702" lon="-1.35402">
        <ele>801.23516</ele>
        <time>2022-02-22T19:09:08.342Z</time>
      </trkpt>
      <trkpt lat="41.03644" lon="-1.35322">
        <ele>800.647187</ele>
        <time>2022-02-22T19:09:25.390Z</time>
      </trkpt>
      <trkpt lat="41.03616" lon="-1.35308">
        <ele>800.432878</ele>
        <time>2022-02-22T19:09:31.448Z</time>
      </trkpt>
      <trkpt lat="41.03596" lon="-1.35297">
        <ele>800.280446</ele>
        <time>2022-02-22T19:09:35.782Z</time>
      </trkpt>
      <trkpt lat="41.03538" lon="-1.35262">
        <ele>799.784209</ele>
        <time>2022-02-22T19:09:57.692Z</time>
      </trkpt>
      <trkpt lat="41.03487" lon="-1.35308">
        <ele>799.295212</ele>
        <time>2022-02-22T19:10:19.157Z</time>
      </trkpt>
      <trkpt lat="41.03432" lon="-1.35291">
        <ele>798.847273</ele>
        <time>2022-02-22T19:10:39.028Z</time>
      </trkpt>
      <trkpt lat="41.0338" lon="-1.35349">
        <ele>799.022168</ele>
        <time>2022-02-22T19:11:03.478Z</time>
      </trkpt>
      <trkpt lat="41.03354" lon="-1.35362">
        <ele>799.111893</ele>
        <time>2022-02-22T19:11:14.375Z</time>
      </trkpt>
      <trkpt lat="41.03341" lon="-1.35366">
        <ele>799.15393</ele>
        <time>2022-02-22T19:11:19.560Z</time>
      </trkpt>
      <trkpt lat="41.03337" lon="-1.35369">
        <ele>799.167324</ele>
        <time>2022-02-22T19:11:21.220Z</time>
      </trkpt>
      <trkpt lat="41.03329" lon="-1.35316">
        <ele>799.294177</ele>
        <time>2022-02-22T19:11:37.807Z</time>
      </trkpt>
      <trkpt lat="41.03326" lon="-1.3529">
        <ele>799.358673</ele>
        <time>2022-02-22T19:11:46.537Z</time>
      </trkpt>
      <trkpt lat="41.0331" lon="-1.35247">
        <ele>799.620212</ele>
        <time>2022-02-22T19:12:01.542Z</time>
      </trkpt>
      <trkpt lat="41.03253" lon="-1.35169">
        <ele>800.34347</ele>
        <time>2022-02-22T19:12:36.191Z</time>
      </trkpt>
      <trkpt lat="41.03242" lon="-1.35157">
        <ele>800.473355</ele>
        <time>2022-02-22T19:12:42.263Z</time>
      </trkpt>
      <trkpt lat="41.03177" lon="-1.35133">
        <ele>800.985046</ele>
        <time>2022-02-22T19:13:10.104Z</time>
      </trkpt>
      <trkpt lat="41.03152" lon="-1.35115">
        <ele>801.000212</ele>
        <time>2022-02-22T19:13:21.437Z</time>
      </trkpt>
      <trkpt lat="41.03088" lon="-1.35088">
        <ele>801.035245</ele>
        <time>2022-02-22T19:13:45.857Z</time>
      </trkpt>
      <trkpt lat="41.03009" lon="-1.35075">
        <ele>801.092148</ele>
        <time>2022-02-22T19:14:14.930Z</time>
      </trkpt>
      <trkpt lat="41.02965" lon="-1.35029">
        <ele>801.257382</ele>
        <time>2022-02-22T19:14:35.531Z</time>
      </trkpt>
      <trkpt lat="41.02934" lon="-1.34987">
        <ele>801.392069</ele>
        <time>2022-02-22T19:14:52.811Z</time>
      </trkpt>
      <trkpt lat="41.02892" lon="-1.34967">
        <ele>801.525167</ele>
        <time>2022-02-22T19:15:10.334Z</time>
      </trkpt>
      <trkpt lat="41.02781" lon="-1.349">
        <ele>802.271066</ele>
        <time>2022-02-22T19:15:59.589Z</time>
      </trkpt>
      <trkpt lat="41.02773" lon="-1.34903">
        <ele>802.330228</ele>
        <time>2022-02-22T19:16:03.002Z</time>
      </trkpt>
      <trkpt lat="41.02746" lon="-1.34969">
        <ele>802.732005</ele>
        <time>2022-02-22T19:16:26.082Z</time>
      </trkpt>
      <trkpt lat="41.0272" lon="-1.34975">
        <ele>802.933288</ele>
        <time>2022-02-22T19:16:37.103Z</time>
      </trkpt>
      <trkpt lat="41.02685" lon="-1.34944">
        <ele>803.334184</ele>
        <time>2022-02-22T19:16:54.217Z</time>
      </trkpt>
      <trkpt lat="41.02645" lon="-1.34927">
        <ele>803.745207</ele>
        <time>2022-02-22T19:17:11.982Z</time>
      </trkpt>
      <trkpt lat="41.02624" lon="-1.34911">
        <ele>803.977695</ele>
        <time>2022-02-22T19:17:22.199Z</time>
      </trkpt>
      <trkpt lat="41.0257" lon="-1.34847">
        <ele>804.681721</ele>
        <time>2022-02-22T19:17:52.989Z</time>
      </trkpt>
      <trkpt lat="41.02557" lon="-1.34843">
        <ele>804.82061</ele>
        <time>2022-02-22T19:17:58.735Z</time>
      </trkpt>
      <trkpt lat="41.02525" lon="-1.34848">
        <ele>805.148126</ele>
        <time>2022-02-22T19:18:12.350Z</time>
      </trkpt>
      <trkpt lat="41.02505" lon="-1.3484">
        <ele>805.356761</ele>
        <time>2022-02-22T19:18:20.960Z</time>
      </trkpt>
      <trkpt lat="41.02492" lon="-1.34827">
        <ele>805.526058</ele>
        <time>2022-02-22T19:18:27.820Z</time>
      </trkpt>
      <trkpt lat="41.02467" lon="-1.34775">
        <ele>805.996282</ele>
        <time>2022-02-22T19:18:47.123Z</time>
      </trkpt>
      <trkpt lat="41.02448" lon="-1.34759">
        <ele>806.226254</ele>
        <time>2022-02-22T19:18:57.171Z</time>
      </trkpt>
      <trkpt lat="41.0241" lon="-1.34762">
        <ele>806.578048</ele>
        <time>2022-02-22T19:19:13.224Z</time>
      </trkpt>
      <trkpt lat="41.02391" lon="-1.3482">
        <ele>806.954365</ele>
        <time>2022-02-22T19:19:32.592Z</time>
      </trkpt>
      <trkpt lat="41.0237" lon="-1.34851">
        <ele>807.204315</ele>
        <time>2022-02-22T19:19:45.077Z</time>
      </trkpt>
      <trkpt lat="41.02353" lon="-1.34857">
        <ele>807.347122</ele>
        <time>2022-02-22T19:19:52.962Z</time>
      </trkpt>
      <trkpt lat="41.02326" lon="-1.34777">
        <ele>807.872619</ele>
        <time>2022-02-22T19:20:18.925Z</time>
      </trkpt>
      <trkpt lat="41.02277" lon="-1.34714">
        <ele>808.257046</ele>
        <time>2022-02-22T19:20:47.274Z</time>
      </trkpt>
      <trkpt lat="41.02248" lon="-1.34704">
        <ele>808.423686</ele>
        <time>2022-02-22T19:20:59.311Z</time>
      </trkpt>
      <trkpt lat="41.02212" lon="-1.34714">
        <ele>808.626208</ele>
        <time>2022-02-22T19:21:13.308Z</time>
      </trkpt>
      <trkpt lat="41.02199" lon="-1.34713">
        <ele>808.700418</ele>
        <time>2022-02-22T19:21:18.696Z</time>
      </trkpt>
      <trkpt lat="41.02179" lon="-1.34702">
        <ele>808.818039</ele>
        <time>2022-02-22T19:21:26.838Z</time>
      </trkpt>
      <trkpt lat="41.02114" lon="-1.34629">
        <ele>809.333349</ele>
        <time>2022-02-22T19:22:00.312Z</time>
      </trkpt>
      <trkpt lat="41.02092" lon="-1.34579">
        <ele>809.599285</ele>
        <time>2022-02-22T19:22:18.222Z</time>
      </trkpt>
      <trkpt lat="41.02083" lon="-1.34529">
        <ele>809.837755</ele>
        <time>2022-02-22T19:22:34.208Z</time>
      </trkpt>
      <trkpt lat="41.02053" lon="-1.34461">
        <ele>810.17951</ele>
        <time>2022-02-22T19:22:58.380Z</time>
      </trkpt>
      <trkpt lat="41.02001" lon="-1.3438">
        <ele>810.61993</ele>
        <time>2022-02-22T19:23:30.253Z</time>
      </trkpt>
      <trkpt lat="41.01946" lon="-1.34318">
        <ele>810.985788</ele>
        <time>2022-02-22T19:23:48.891Z</time>
      </trkpt>
      <trkpt lat="41.01949" lon="-1.34313">
        <ele>810.990239</ele>
        <time>2022-02-22T19:23:50.095Z</time>
      </trkpt>
      <trkpt lat="41.01951" lon="-1.34289">
        <ele>811.006517</ele>
        <time>2022-02-22T19:23:54.552Z</time>
      </trkpt>
      <trkpt lat="41.01946" lon="-1.34273">
        <ele>811.017906</ele>
        <time>2022-02-22T19:23:57.969Z</time>
      </trkpt>
      <trkpt lat="41.01873" lon="-1.34198">
        <ele>811.100372</ele>
        <time>2022-02-22T19:24:19.029Z</time>
      </trkpt>
      <trkpt lat="41.01853" lon="-1.34171">
        <ele>811.126094</ele>
        <time>2022-02-22T19:24:29.509Z</time>
      </trkpt>
      <trkpt lat="41.0182" lon="-1.34138">
        <ele>811.253521</ele>
        <time>2022-02-22T19:24:44.880Z</time>
      </trkpt>
      <trkpt lat="41.01779" lon="-1.34067">
        <ele>811.551494</ele>
        <time>2022-02-22T19:25:10.800Z</time>
      </trkpt>
      <trkpt lat="41.01725" lon="-1.33992">
        <ele>811.897338</ele>
        <time>2022-02-22T19:25:42.828Z</time>
      </trkpt>
      <trkpt lat="41.01687" lon="-1.3396">
        <ele>812.126208</ele>
        <time>2022-02-22T19:26:01.081Z</time>
      </trkpt>
      <trkpt lat="41.0161" lon="-1.33926">
        <ele>812.558118</ele>
        <time>2022-02-22T19:26:34.078Z</time>
      </trkpt>
      <trkpt lat="41.01545" lon="-1.3391">
        <ele>812.881888</ele>
        <time>2022-02-22T19:26:59.572Z</time>
      </trkpt>
      <trkpt lat="41.01464" lon="-1.33914">
        <ele>812.818586</ele>
        <time>2022-02-22T19:27:29.531Z</time>
      </trkpt>
      <trkpt lat="41.01409" lon="-1.33904">
        <ele>812.77467</ele>
        <time>2022-02-22T19:27:49.594Z</time>
      </trkpt>
      <trkpt lat="41.01318" lon="-1.33821">
        <ele>812.925939</ele>
        <time>2022-02-22T19:28:30.595Z</time>
      </trkpt>
      <trkpt lat="41.01294" lon="-1.3379">
        <ele>813.012788</ele>
        <time>2022-02-22T19:28:43.824Z</time>
      </trkpt>
      <trkpt lat="41.01256" lon="-1.33715">
        <ele>813.185417</ele>
        <time>2022-02-22T19:29:10.256Z</time>
      </trkpt>
      <trkpt lat="41.01233" lon="-1.33682">
        <ele>813.340785</ele>
        <time>2022-02-22T19:29:23.770Z</time>
      </trkpt>
      <trkpt lat="41.01188" lon="-1.33629">
        <ele>813.649653</ele>
        <time>2022-02-22T19:29:47.949Z</time>
      </trkpt>
      <trkpt lat="41.01153" lon="-1.33607">
        <ele>813.845669</ele>
        <time>2022-02-22T19:30:03.301Z</time>
      </trkpt>
      <trkpt lat="41.01074" lon="-1.33494">
        <ele>814.443292</ele>
        <time>2022-02-22T19:30:48.650Z</time>
      </trkpt>
      <trkpt lat="41.01058" lon="-1.3348">
        <ele>814.54247</ele>
        <time>2022-02-22T19:30:56.117Z</time>
      </trkpt>
      <trkpt lat="41.01033" lon="-1.33474">
        <ele>814.675145</ele>
        <time>2022-02-22T19:31:06.165Z</time>
      </trkpt>
      <trkpt lat="41.00961" lon="-1.33491">
        <ele>815.054456</ele>
        <time>2022-02-22T19:31:35.668Z</time>
      </trkpt>
      <trkpt lat="41.00944" lon="-1.33491">
        <ele>815.202237</ele>
        <time>2022-02-22T19:31:42.778Z</time>
      </trkpt>
      <trkpt lat="41.00899" lon="-1.33456">
        <ele>815.664233</ele>
        <time>2022-02-22T19:32:04.405Z</time>
      </trkpt>
      <trkpt lat="41.00799" lon="-1.33337">
        <ele>816.766371</ele>
        <time>2022-02-22T19:33:00.372Z</time>
      </trkpt>
      <trkpt lat="41.00739" lon="-1.33274">
        <ele>817.199071</ele>
        <time>2022-02-22T19:33:31.390Z</time>
      </trkpt>
      <trkpt lat="41.00656" lon="-1.33003">
        <ele>818.346173</ele>
        <time>2022-02-22T19:34:56.599Z</time>
      </trkpt>
      <trkpt lat="41.00627" lon="-1.32888">
        <ele>819.119502</ele>
        <time>2022-02-22T19:35:35.235Z</time>
      </trkpt>
      <trkpt lat="41.00627" lon="-1.32819">
        <ele>819.698798</ele>
        <time>2022-02-22T19:35:57.292Z</time>
      </trkpt>
      <trkpt lat="41.00616" lon="-1.32787">
        <ele>819.984563</ele>
        <time>2022-02-22T19:36:08.614Z</time>
      </trkpt>
      <trkpt lat="41.006" lon="-1.32764">
        <ele>820.250603</ele>
        <time>2022-02-22T19:36:18.861Z</time>
      </trkpt>
      <trkpt lat="41.00585" lon="-1.32747">
        <ele>820.471981</ele>
        <time>2022-02-22T19:36:27.432Z</time>
      </trkpt>
      <trkpt lat="41.00558" lon="-1.32734">
        <ele>820.745057</ele>
        <time>2022-02-22T19:36:40.128Z</time>
      </trkpt>
      <trkpt lat="41.00518" lon="-1.32733">
        <ele>821.114234</ele>
        <time>2022-02-22T19:36:57.554Z</time>
      </trkpt>
      <trkpt lat="41.00481" lon="-1.32754">
        <ele>821.482468</ele>
        <time>2022-02-22T19:37:14.691Z</time>
      </trkpt>
      <trkpt lat="41.00413" lon="-1.32783">
        <ele>822.141846</ele>
        <time>2022-02-22T19:37:43.025Z</time>
      </trkpt>
      <trkpt lat="41.00385" lon="-1.32779">
        <ele>822.273184</ele>
        <time>2022-02-22T19:37:54.075Z</time>
      </trkpt>
      <trkpt lat="41.00348" lon="-1.32749">
        <ele>822.435445</ele>
        <time>2022-02-22T19:38:11.038Z</time>
      </trkpt>
      <trkpt lat="41.00328" lon="-1.32726">
        <ele>822.535859</ele>
        <time>2022-02-22T19:38:21.451Z</time>
      </trkpt>
      <trkpt lat="41.00319" lon="-1.32667">
        <ele>822.705822</ele>
        <time>2022-02-22T19:38:39.028Z</time>
      </trkpt>
      <trkpt lat="41.00309" lon="-1.32651">
        <ele>822.764351</ele>
        <time>2022-02-22T19:38:45.083Z</time>
      </trkpt>
      <trkpt lat="41.00293" lon="-1.3264">
        <ele>822.831937</ele>
        <time>2022-02-22T19:38:52.095Z</time>
      </trkpt>
      <trkpt lat="41.0025" lon="-1.32637">
        <ele>823.033287</ele>
        <time>2022-02-22T19:39:08.959Z</time>
      </trkpt>
      <trkpt lat="41.00213" lon="-1.3262">
        <ele>823.222427</ele>
        <time>2022-02-22T19:39:24.142Z</time>
      </trkpt>
      <trkpt lat="41.0019" lon="-1.32624">
        <ele>823.333178</ele>
        <time>2022-02-22T19:39:32.986Z</time>
      </trkpt>
      <trkpt lat="41.00157" lon="-1.32658">
        <ele>823.535829</ele>
        <time>2022-02-22T19:39:49.621Z</time>
      </trkpt>
      <trkpt lat="41.0007" lon="-1.32709">
        <ele>824.344549</ele>
        <time>2022-02-22T19:40:28.372Z</time>
      </trkpt>
      <trkpt lat="41.00055" lon="-1.32709">
        <ele>824.514956</ele>
        <time>2022-02-22T19:40:34.635Z</time>
      </trkpt>
      <trkpt lat="41.00026" lon="-1.32694">
        <ele>824.86455</ele>
        <time>2022-02-22T19:40:47.735Z</time>
      </trkpt>
      <trkpt lat="40.99875" lon="-1.32606">
        <ele>827.017284</ele>
        <time>2022-02-22T19:42:00.816Z</time>
      </trkpt>
      <trkpt lat="40.99853" lon="-1.32563">
        <ele>827.592967</ele>
        <time>2022-02-22T19:42:18.372Z</time>
      </trkpt>
      <trkpt lat="40.99829" lon="-1.32487">
        <ele>828.484635</ele>
        <time>2022-02-22T19:42:46.296Z</time>
      </trkpt>
      <trkpt lat="40.99818" lon="-1.32471">
        <ele>828.675587</ele>
        <time>2022-02-22T19:42:53.801Z</time>
      </trkpt>
      <trkpt lat="40.99671" lon="-1.32451">
        <ele>830.371935</ele>
        <time>2022-02-22T19:43:57.119Z</time>
      </trkpt>
      <trkpt lat="40.99651" lon="-1.32437">
        <ele>830.529971</ele>
        <time>2022-02-22T19:44:06.309Z</time>
      </trkpt>
      <trkpt lat="40.99607" lon="-1.32389">
        <ele>830.793884</ele>
        <time>2022-02-22T19:44:28.819Z</time>
      </trkpt>
      <trkpt lat="40.99506" lon="-1.3225">
        <ele>831.433987</ele>
        <time>2022-02-22T19:45:25.132Z</time>
      </trkpt>
      <trkpt lat="40.99477" lon="-1.32175">
        <ele>831.659132</ele>
        <time>2022-02-22T19:45:49.634Z</time>
      </trkpt>
      <trkpt lat="40.99446" lon="-1.32135">
        <ele>831.811783</ele>
        <time>2022-02-22T19:46:06.272Z</time>
      </trkpt>
      <trkpt lat="40.9942" lon="-1.32072">
        <ele>832.035183</ele>
        <time>2022-02-22T19:46:27.471Z</time>
      </trkpt>
      <trkpt lat="40.99404" lon="-1.32051">
        <ele>832.148534</ele>
        <time>2022-02-22T19:46:36.136Z</time>
      </trkpt>
      <trkpt lat="40.99369" lon="-1.32028">
        <ele>832.346543</ele>
        <time>2022-02-22T19:46:51.559Z</time>
      </trkpt>
      <trkpt lat="40.99319" lon="-1.32013">
        <ele>832.610967</ele>
        <time>2022-02-22T19:47:12.295Z</time>
      </trkpt>
      <trkpt lat="40.99304" lon="-1.32002">
        <ele>832.698634</ele>
        <time>2022-02-22T19:47:19.132Z</time>
      </trkpt>
      <trkpt lat="40.99102" lon="-1.31743">
        <ele>834.522257</ele>
        <time>2022-02-22T19:49:13.777Z</time>
      </trkpt>
      <trkpt lat="40.99093" lon="-1.31714">
        <ele>834.640456</ele>
        <time>2022-02-22T19:49:23.042Z</time>
      </trkpt>
      <trkpt lat="40.9908" lon="-1.3162">
        <ele>834.9985</ele>
        <time>2022-02-22T19:49:50.834Z</time>
      </trkpt>
      <trkpt lat="40.9909" lon="-1.31515">
        <ele>835.20612</ele>
        <time>2022-02-22T19:50:20.870Z</time>
      </trkpt>
      <trkpt lat="40.9909" lon="-1.31473">
        <ele>835.272165</ele>
        <time>2022-02-22T19:50:32.892Z</time>
      </trkpt>
      <trkpt lat="40.99084" lon="-1.3143">
        <ele>835.340752</ele>
        <time>2022-02-22T19:50:45.326Z</time>
      </trkpt>
      <trkpt lat="40.99076" lon="-1.31399">
        <ele>835.393176</ele>
        <time>2022-02-22T19:50:54.889Z</time>
      </trkpt>
      <trkpt lat="40.99023" lon="-1.31333">
        <ele>835.776176</ele>
        <time>2022-02-22T19:51:23.101Z</time>
      </trkpt>
      <trkpt lat="40.98978" lon="-1.31294">
        <ele>836.14663</ele>
        <time>2022-02-22T19:51:44.487Z</time>
      </trkpt>
      <trkpt lat="40.98966" lon="-1.31274">
        <ele>836.282813</ele>
        <time>2022-02-22T19:51:52.733Z</time>
      </trkpt>
      <trkpt lat="40.98941" lon="-1.31209">
        <ele>836.661653</ele>
        <time>2022-02-22T19:52:16.002Z</time>
      </trkpt>
      <trkpt lat="40.9893" lon="-1.31194">
        <ele>836.7785</ele>
        <time>2022-02-22T19:52:22.737Z</time>
      </trkpt>
      <trkpt lat="40.98873" lon="-1.31167">
        <ele>837.233156</ele>
        <time>2022-02-22T19:52:47.935Z</time>
      </trkpt>
      <trkpt lat="40.98841" lon="-1.31139">
        <ele>837.515348</ele>
        <time>2022-02-22T19:53:03.251Z</time>
      </trkpt>
      <trkpt lat="40.98805" lon="-1.31088">
        <ele>837.908582</ele>
        <time>2022-02-22T19:53:24.385Z</time>
      </trkpt>
      <trkpt lat="40.98741" lon="-1.31012">
        <ele>838.38233</ele>
        <time>2022-02-22T19:53:58.694Z</time>
      </trkpt>
      <trkpt lat="40.98736" lon="-1.30958">
        <ele>838.589312</ele>
        <time>2022-02-22T19:54:14.508Z</time>
      </trkpt>
      <trkpt lat="40.9873" lon="-1.30938">
        <ele>838.669304</ele>
        <time>2022-02-22T19:54:20.687Z</time>
      </trkpt>
      <trkpt lat="40.98717" lon="-1.30925">
        <ele>838.749741</ele>
        <time>2022-02-22T19:54:26.954Z</time>
      </trkpt>
      <trkpt lat="40.98697" lon="-1.30916">
        <ele>838.856451</ele>
        <time>2022-02-22T19:54:35.432Z</time>
      </trkpt>
      <trkpt lat="40.98664" lon="-1.30908">
        <ele>839.147222</ele>
        <time>2022-02-22T19:54:48.920Z</time>
      </trkpt>
      <trkpt lat="40.98638" lon="-1.30908">
        <ele>839.448613</ele>
        <time>2022-02-22T19:54:59.606Z</time>
      </trkpt>
      <trkpt lat="40.98586" lon="-1.30931">
        <ele>840.085404</ele>
        <time>2022-02-22T19:55:23.347Z</time>
      </trkpt>
      <trkpt lat="40.98552" lon="-1.30938">
        <ele>840.48503</ele>
        <time>2022-02-22T19:55:38.340Z</time>
      </trkpt>
      <trkpt lat="40.98518" lon="-1.30938">
        <ele>840.889206</ele>
        <time>2022-02-22T19:55:53.619Z</time>
      </trkpt>
      <trkpt lat="40.98486" lon="-1.3093">
        <ele>841.315107</ele>
        <time>2022-02-22T19:56:07.924Z</time>
      </trkpt>
      <trkpt lat="40.98457" lon="-1.30918">
        <ele>841.751143</ele>
        <time>2022-02-22T19:56:21.701Z</time>
      </trkpt>
      <trkpt lat="40.98387" lon="-1.3091">
        <ele>842.76139</ele>
        <time>2022-02-22T19:56:53.366Z</time>
      </trkpt>
      <trkpt lat="40.98297" lon="-1.30926">
        <ele>843.788336</ele>
        <time>2022-02-22T19:57:32.689Z</time>
      </trkpt>
      <trkpt lat="40.98253" lon="-1.30952">
        <ele>844.0649</ele>
        <time>2022-02-22T19:57:52.279Z</time>
      </trkpt>
      <trkpt lat="40.98199" lon="-1.30933">
        <ele>844.380246</ele>
        <time>2022-02-22T19:58:14.048Z</time>
      </trkpt>
      <trkpt lat="40.98125" lon="-1.30957">
        <ele>844.706546</ele>
        <time>2022-02-22T19:58:42.822Z</time>
      </trkpt>
      <trkpt lat="40.98027" lon="-1.30948">
        <ele>844.930592</ele>
        <time>2022-02-22T19:59:19.196Z</time>
      </trkpt>
      <trkpt lat="40.97956" lon="-1.30955">
        <ele>845.422442</ele>
        <time>2022-02-22T19:59:47.176Z</time>
      </trkpt>
      <trkpt lat="40.97925" lon="-1.30936">
        <ele>846.002237</ele>
        <time>2022-02-22T20:00:01.487Z</time>
      </trkpt>
      <trkpt lat="40.9788" lon="-1.30879">
        <ele>847.07122</ele>
        <time>2022-02-22T20:00:30.094Z</time>
      </trkpt>
      <trkpt lat="40.97862" lon="-1.30865">
        <ele>847.422874</ele>
        <time>2022-02-22T20:00:40.025Z</time>
      </trkpt>
      <trkpt lat="40.97807" lon="-1.30849">
        <ele>848.460443</ele>
        <time>2022-02-22T20:01:08.546Z</time>
      </trkpt>
      <trkpt lat="40.97741" lon="-1.30815">
        <ele>850.012156</ele>
        <time>2022-02-22T20:01:44.831Z</time>
      </trkpt>
      <trkpt lat="40.97704" lon="-1.30821">
        <ele>850.841299</ele>
        <time>2022-02-22T20:02:03.381Z</time>
      </trkpt>
      <trkpt lat="40.97688" lon="-1.30831">
        <ele>851.221709</ele>
        <time>2022-02-22T20:02:11.585Z</time>
      </trkpt>
      <trkpt lat="40.97659" lon="-1.30888">
        <ele>852.098517</ele>
        <time>2022-02-22T20:02:34.426Z</time>
      </trkpt>
      <trkpt lat="40.97643" lon="-1.30953">
        <ele>852.226645</ele>
        <time>2022-02-22T20:02:55.286Z</time>
      </trkpt>
      <trkpt lat="40.97614" lon="-1.31005">
        <ele>852.349304</ele>
        <time>2022-02-22T20:03:13.633Z</time>
      </trkpt>
      <trkpt lat="40.97594" lon="-1.31074">
        <ele>852.488603</ele>
        <time>2022-02-22T20:03:33.663Z</time>
      </trkpt>
      <trkpt lat="40.9759" lon="-1.31118">
        <ele>852.490945</ele>
        <time>2022-02-22T20:03:45.454Z</time>
      </trkpt>
      <trkpt lat="40.97593" lon="-1.31174">
        <ele>852.447688</ele>
        <time>2022-02-22T20:04:00.854Z</time>
      </trkpt>
      <trkpt lat="40.97583" lon="-1.31219">
        <ele>852.411767</ele>
        <time>2022-02-22T20:04:13.980Z</time>
      </trkpt>
      <trkpt lat="40.9747" lon="-1.31401">
        <ele>852.387555</ele>
        <time>2022-02-22T20:05:21.490Z</time>
      </trkpt>
      <trkpt lat="40.9743" lon="-1.31518">
        <ele>852.448986</ele>
        <time>2022-02-22T20:05:57.162Z</time>
      </trkpt>
      <trkpt lat="40.97412" lon="-1.31557">
        <ele>852.484727</ele>
        <time>2022-02-22T20:06:09.783Z</time>
      </trkpt>
      <trkpt lat="40.97391" lon="-1.31638">
        <ele>852.551496</ele>
        <time>2022-02-22T20:06:33.557Z</time>
      </trkpt>
      <trkpt lat="40.97378" lon="-1.3165">
        <ele>852.568573</ele>
        <time>2022-02-22T20:06:39.870Z</time>
      </trkpt>
      <trkpt lat="40.97314" lon="-1.31687">
        <ele>852.762689</ele>
        <time>2022-02-22T20:07:07.064Z</time>
      </trkpt>
      <trkpt lat="40.97293" lon="-1.31721">
        <ele>852.981419</ele>
        <time>2022-02-22T20:07:20.133Z</time>
      </trkpt>
      <trkpt lat="40.97271" lon="-1.31716">
        <ele>853.124907</ele>
        <time>2022-02-22T20:07:28.839Z</time>
      </trkpt>
      <trkpt lat="40.97254" lon="-1.31697">
        <ele>853.269344</ele>
        <time>2022-02-22T20:07:37.794Z</time>
      </trkpt>
      <trkpt lat="40.97235" lon="-1.31653">
        <ele>853.525408</ele>
        <time>2022-02-22T20:07:53.739Z</time>
      </trkpt>
      <trkpt lat="40.97216" lon="-1.31593">
        <ele>853.844557</ele>
        <time>2022-02-22T20:08:14.026Z</time>
      </trkpt>
      <trkpt lat="40.9718" lon="-1.31557">
        <ele>854.11131</ele>
        <time>2022-02-22T20:08:32.921Z</time>
      </trkpt>
      <trkpt lat="40.97014" lon="-1.31505">
        <ele>854.926586</ele>
        <time>2022-02-22T20:09:40.362Z</time>
      </trkpt>
      <trkpt lat="40.96979" lon="-1.31501">
        <ele>854.971885</ele>
        <time>2022-02-22T20:09:53.571Z</time>
      </trkpt>
      <trkpt lat="40.96937" lon="-1.31508">
        <ele>855.02627</ele>
        <time>2022-02-22T20:10:09.159Z</time>
      </trkpt>
      <trkpt lat="40.96899" lon="-1.31501">
        <ele>855.07606</ele>
        <time>2022-02-22T20:10:23.408Z</time>
      </trkpt>
      <trkpt lat="40.9681" lon="-1.3146">
        <ele>855.409551</ele>
        <time>2022-02-22T20:10:58.327Z</time>
      </trkpt>
      <trkpt lat="40.96746" lon="-1.31453">
        <ele>855.677114</ele>
        <time>2022-02-22T20:11:23.566Z</time>
      </trkpt>
      <trkpt lat="40.96694" lon="-1.31412">
        <ele>856.003842</ele>
        <time>2022-02-22T20:11:48.881Z</time>
      </trkpt>
      <trkpt lat="40.96671" lon="-1.31412">
        <ele>856.195598</ele>
        <time>2022-02-22T20:11:58.419Z</time>
      </trkpt>
      <trkpt lat="40.96636" lon="-1.31423">
        <ele>856.49982</ele>
        <time>2022-02-22T20:12:13.663Z</time>
      </trkpt>
      <trkpt lat="40.96597" lon="-1.31404">
        <ele>856.848953</ele>
        <time>2022-02-22T20:12:31.038Z</time>
      </trkpt>
      <trkpt lat="40.96541" lon="-1.31378">
        <ele>857.351801</ele>
        <time>2022-02-22T20:12:55.396Z</time>
      </trkpt>
      <trkpt lat="40.96498" lon="-1.31331">
        <ele>857.422289</ele>
        <time>2022-02-22T20:13:17.464Z</time>
      </trkpt>
      <trkpt lat="40.96484" lon="-1.31321">
        <ele>857.437172</ele>
        <time>2022-02-22T20:13:23.493Z</time>
      </trkpt>
      <trkpt lat="40.96405" lon="-1.31306">
        <ele>857.513342</ele>
        <time>2022-02-22T20:13:52.529Z</time>
      </trkpt>
      <trkpt lat="40.96256" lon="-1.31264">
        <ele>857.559728</ele>
        <time>2022-02-22T20:14:48.096Z</time>
      </trkpt>
      <trkpt lat="40.9624" lon="-1.31266">
        <ele>857.561906</ele>
        <time>2022-02-22T20:14:54.121Z</time>
      </trkpt>
      <trkpt lat="40.96118" lon="-1.31329">
        <ele>858.162746</ele>
        <time>2022-02-22T20:15:45.824Z</time>
      </trkpt>
      <trkpt lat="40.96071" lon="-1.3134">
        <ele>858.491821</ele>
        <time>2022-02-22T20:16:05.791Z</time>
      </trkpt>
      <trkpt lat="40.96045" lon="-1.31341">
        <ele>858.665757</ele>
        <time>2022-02-22T20:16:16.328Z</time>
      </trkpt>
      <trkpt lat="40.95979" lon="-1.31324">
        <ele>859.308698</ele>
        <time>2022-02-22T20:16:44.500Z</time>
      </trkpt>
      <trkpt lat="40.95955" lon="-1.31324">
        <ele>859.562135</ele>
        <time>2022-02-22T20:16:54.727Z</time>
      </trkpt>
      <trkpt lat="40.95903" lon="-1.31353">
        <ele>860.151894</ele>
        <time>2022-02-22T20:17:18.966Z</time>
      </trkpt>
      <trkpt lat="40.95817" lon="-1.31344">
        <ele>861.080299</ele>
        <time>2022-02-22T20:17:56.107Z</time>
      </trkpt>
      <trkpt lat="40.95782" lon="-1.31333">
        <ele>861.475518</ele>
        <time>2022-02-22T20:18:11.521Z</time>
      </trkpt>
      <trkpt lat="40.95734" lon="-1.31334">
        <ele>861.998079</ele>
        <time>2022-02-22T20:18:31.978Z</time>
      </trkpt>
      <trkpt lat="40.95676" lon="-1.3132">
        <ele>862.641934</ele>
        <time>2022-02-22T20:18:56.768Z</time>
      </trkpt>
      <trkpt lat="40.95593" lon="-1.3128">
        <ele>863.397437</ele>
        <time>2022-02-22T20:19:32.770Z</time>
      </trkpt>
      <trkpt lat="40.95555" lon="-1.31287">
        <ele>863.725602</ele>
        <time>2022-02-22T20:19:48.532Z</time>
      </trkpt>
      <trkpt lat="40.95522" lon="-1.31276">
        <ele>864.016441</ele>
        <time>2022-02-22T20:20:02.649Z</time>
      </trkpt>
      <trkpt lat="40.9549" lon="-1.31278">
        <ele>864.262104</ele>
        <time>2022-02-22T20:20:15.949Z</time>
      </trkpt>
      <trkpt lat="40.95453" lon="-1.31271">
        <ele>864.498784</ele>
        <time>2022-02-22T20:20:31.546Z</time>
      </trkpt>
      <trkpt lat="40.95416" lon="-1.31282">
        <ele>864.744722</ele>
        <time>2022-02-22T20:20:47.596Z</time>
      </trkpt>
      <trkpt lat="40.95395" lon="-1.31282">
        <ele>864.874993</ele>
        <time>2022-02-22T20:20:56.013Z</time>
      </trkpt>
      <trkpt lat="40.95368" lon="-1.31279">
        <ele>865.048478</ele>
        <time>2022-02-22T20:21:06.980Z</time>
      </trkpt>
      <trkpt lat="40.95339" lon="-1.31263">
        <ele>865.244819</ele>
        <time>2022-02-22T20:21:19.051Z</time>
      </trkpt>
      <trkpt lat="40.95316" lon="-1.31258">
        <ele>865.296351</ele>
        <time>2022-02-22T20:21:27.902Z</time>
      </trkpt>
      <trkpt lat="40.95242" lon="-1.31264">
        <ele>865.062216</ele>
        <time>2022-02-22T20:21:54.996Z</time>
      </trkpt>
      <trkpt lat="40.95152" lon="-1.31218">
        <ele>864.76649</ele>
        <time>2022-02-22T20:22:29.322Z</time>
      </trkpt>
      <trkpt lat="40.95076" lon="-1.3121">
        <ele>864.939914</ele>
        <time>2022-02-22T20:22:56.630Z</time>
      </trkpt>
      <trkpt lat="40.94988" lon="-1.31186">
        <ele>865.142082</ele>
        <time>2022-02-22T20:23:32.320Z</time>
      </trkpt>
      <trkpt lat="40.94948" lon="-1.31187">
        <ele>865.517474</ele>
        <time>2022-02-22T20:23:49.765Z</time>
      </trkpt>
      <trkpt lat="40.94933" lon="-1.31174">
        <ele>865.735912</ele>
        <time>2022-02-22T20:23:57.419Z</time>
      </trkpt>
      <trkpt lat="40.94913" lon="-1.31148">
        <ele>866.083976</ele>
        <time>2022-02-22T20:24:09.981Z</time>
      </trkpt>
      <trkpt lat="40.94793" lon="-1.31056">
        <ele>867.557137</ele>
        <time>2022-02-22T20:25:10.687Z</time>
      </trkpt>
      <trkpt lat="40.94768" lon="-1.31005">
        <ele>867.799337</ele>
        <time>2022-02-22T20:25:29.281Z</time>
      </trkpt>
      <trkpt lat="40.94719" lon="-1.30957">
        <ele>868.118607</ele>
        <time>2022-02-22T20:25:52.690Z</time>
      </trkpt>
      <trkpt lat="40.94642" lon="-1.30867">
        <ele>868.319271</ele>
        <time>2022-02-22T20:26:30.278Z</time>
      </trkpt>
      <trkpt lat="40.94564" lon="-1.30701">
        <ele>868.45124</ele>
        <time>2022-02-22T20:27:24.751Z</time>
      </trkpt>
      <trkpt lat="40.94487" lon="-1.30641">
        <ele>868.924843</ele>
        <time>2022-02-22T20:28:01.276Z</time>
      </trkpt>
      <trkpt lat="40.94487" lon="-1.30579">
        <ele>869.171938</ele>
        <time>2022-02-22T20:28:20.102Z</time>
      </trkpt>
      <trkpt lat="40.94483" lon="-1.30557">
        <ele>869.258122</ele>
        <time>2022-02-22T20:28:27.618Z</time>
      </trkpt>
      <trkpt lat="40.94428" lon="-1.30495">
        <ele>869.531694</ele>
        <time>2022-02-22T20:28:56.773Z</time>
      </trkpt>
      <trkpt lat="40.94373" lon="-1.30453">
        <ele>869.773611</ele>
        <time>2022-02-22T20:29:21.592Z</time>
      </trkpt>
      <trkpt lat="40.94333" lon="-1.30449">
        <ele>869.923827</ele>
        <time>2022-02-22T20:29:36.098Z</time>
      </trkpt>
      <trkpt lat="40.94231" lon="-1.30368">
        <ele>869.631835</ele>
        <time>2022-02-22T20:30:19.068Z</time>
      </trkpt>
      <trkpt lat="40.94192" lon="-1.30354">
        <ele>869.530636</ele>
        <time>2022-02-22T20:30:33.627Z</time>
      </trkpt>
      <trkpt lat="40.9414" lon="-1.30322">
        <ele>869.435863</ele>
        <time>2022-02-22T20:30:54.623Z</time>
      </trkpt>
      <trkpt lat="40.94016" lon="-1.30265">
        <ele>869.291356</ele>
        <time>2022-02-22T20:31:42.778Z</time>
      </trkpt>
      <trkpt lat="40.93954" lon="-1.30254">
        <ele>869.375158</ele>
        <time>2022-02-22T20:32:06.545Z</time>
      </trkpt>
      <trkpt lat="40.9388" lon="-1.3026">
        <ele>869.521494</ele>
        <time>2022-02-22T20:32:34.686Z</time>
      </trkpt>
      <trkpt lat="40.93785" lon="-1.30236">
        <ele>869.806531</ele>
        <time>2022-02-22T20:33:11.435Z</time>
      </trkpt>
      <trkpt lat="40.93725" lon="-1.3021">
        <ele>870.081357</ele>
        <time>2022-02-22T20:33:36.681Z</time>
      </trkpt>
      <trkpt lat="40.93689" lon="-1.30207">
        <ele>870.23561</ele>
        <time>2022-02-22T20:33:51.207Z</time>
      </trkpt>
      <trkpt lat="40.93681" lon="-1.30183">
        <ele>870.320819</ele>
        <time>2022-02-22T20:33:59.323Z</time>
      </trkpt>
      <trkpt lat="40.93654" lon="-1.30171">
        <ele>870.428342</ele>
        <time>2022-02-22T20:34:10.576Z</time>
      </trkpt>
      <trkpt lat="40.93562" lon="-1.30156">
        <ele>870.656478</ele>
        <time>2022-02-22T20:34:46.726Z</time>
      </trkpt>
      <trkpt lat="40.93403" lon="-1.30146">
        <ele>871.016605</ele>
        <time>2022-02-22T20:35:46.024Z</time>
      </trkpt>
      <trkpt lat="40.93318" lon="-1.3013">
        <ele>871.19382</ele>
        <time>2022-02-22T20:36:17.999Z</time>
      </trkpt>
      <trkpt lat="40.9322" lon="-1.30139">
        <ele>871.790034</ele>
        <time>2022-02-22T20:36:58.801Z</time>
      </trkpt>
      <trkpt lat="40.93138" lon="-1.30149">
        <ele>872.335996</ele>
        <time>2022-02-22T20:37:32.588Z</time>
      </trkpt>
      <trkpt lat="40.92858" lon="-1.30183">
        <ele>873.53753</ele>
        <time>2022-02-22T20:39:19.774Z</time>
      </trkpt>
      <trkpt lat="40.92639" lon="-1.30181">
        <ele>875.60919</ele>
        <time>2022-02-22T20:40:53.927Z</time>
      </trkpt>
      <trkpt lat="40.9258" lon="-1.30174">
        <ele>876.257928</ele>
        <time>2022-02-22T20:41:18.936Z</time>
      </trkpt>
      <trkpt lat="40.92524" lon="-1.30182">
        <ele>876.766442</ele>
        <time>2022-02-22T20:41:42.494Z</time>
      </trkpt>
      <trkpt lat="40.92464" lon="-1.30189">
        <ele>877.309138</ele>
        <time>2022-02-22T20:41:58.544Z</time>
      </trkpt>
      <trkpt lat="40.92287" lon="-1.30195">
        <ele>879.687621</ele>
        <time>2022-02-22T20:42:49.182Z</time>
      </trkpt>
      <trkpt lat="40.92278" lon="-1.30194">
        <ele>879.82375</ele>
        <time>2022-02-22T20:42:52.071Z</time>
      </trkpt>
      <trkpt lat="40.92248" lon="-1.30188">
        <ele>880.295755</ele>
        <time>2022-02-22T20:43:02.583Z</time>
      </trkpt>
      <trkpt lat="40.92239" lon="-1.30185">
        <ele>880.43972</ele>
        <time>2022-02-22T20:43:05.896Z</time>
      </trkpt>
      <trkpt lat="40.92235" lon="-1.30184">
        <ele>880.495091</ele>
        <time>2022-02-22T20:43:07.167Z</time>
      </trkpt>
      <trkpt lat="40.92173" lon="-1.30165">
        <ele>881.949204</ele>
        <time>2022-02-22T20:43:31.103Z</time>
      </trkpt>
      <trkpt lat="40.92039" lon="-1.3015">
        <ele>884.922841</ele>
        <time>2022-02-22T20:44:17.509Z</time>
      </trkpt>
      <trkpt lat="40.92043" lon="-1.30188">
        <ele>885.213722</ele>
        <time>2022-02-22T20:44:26.709Z</time>
      </trkpt>
      <trkpt lat="40.92027" lon="-1.30227">
        <ele>885.553289</ele>
        <time>2022-02-22T20:44:37.001Z</time>
      </trkpt>
      <trkpt lat="40.92023" lon="-1.30233">
        <ele>885.610785</ele>
        <time>2022-02-22T20:44:38.639Z</time>
      </trkpt>
      <trkpt lat="40.92023" lon="-1.30235">
        <ele>885.627794</ele>
        <time>2022-02-22T20:44:39.150Z</time>
      </trkpt>
      <trkpt lat="40.92012" lon="-1.30258">
        <ele>885.834261</ele>
        <time>2022-02-22T20:44:44.922Z</time>
      </trkpt>
      <trkpt lat="40.9201" lon="-1.30272">
        <ele>885.939875</ele>
        <time>2022-02-22T20:44:47.777Z</time>
      </trkpt>
      <trkpt lat="40.91969" lon="-1.3035">
        <ele>886.607364</ele>
        <time>2022-02-22T20:45:05.031Z</time>
      </trkpt>
      <trkpt lat="40.91931" lon="-1.30453">
        <ele>886.621251</ele>
        <time>2022-02-22T20:45:24.523Z</time>
      </trkpt>
      <trkpt lat="40.91915" lon="-1.30455">
        <ele>886.623894</ele>
        <time>2022-02-22T20:45:28.405Z</time>
      </trkpt>
      <trkpt lat="40.91895" lon="-1.3041">
        <ele>886.630059</ele>
        <time>2022-02-22T20:45:37.288Z</time>
      </trkpt>
      <trkpt lat="40.91878" lon="-1.30385">
        <ele>886.634172</ele>
        <time>2022-02-22T20:45:43.015Z</time>
      </trkpt>
      <trkpt lat="40.91866" lon="-1.30374">
        <ele>886.693089</ele>
        <time>2022-02-22T20:45:46.329Z</time>
      </trkpt>
      <trkpt lat="40.91784" lon="-1.303">
        <ele>887.403118</ele>
        <time>2022-02-22T20:46:10.206Z</time>
      </trkpt>
      <trkpt lat="40.91765" lon="-1.30266">
        <ele>887.634331</ele>
        <time>2022-02-22T20:46:19.280Z</time>
      </trkpt>
      <trkpt lat="40.91714" lon="-1.30195">
        <ele>888.395074</ele>
        <time>2022-02-22T20:46:41.070Z</time>
      </trkpt>
      <trkpt lat="40.9169" lon="-1.30161">
        <ele>888.892521</ele>
        <time>2022-02-22T20:46:51.331Z</time>
      </trkpt>
      <trkpt lat="40.91676" lon="-1.30142">
        <ele>889.173967</ele>
        <time>2022-02-22T20:46:57.130Z</time>
      </trkpt>
      <trkpt lat="40.91672" lon="-1.30136">
        <ele>889.266097</ele>
        <time>2022-02-22T20:46:59.034Z</time>
      </trkpt>
      <trkpt lat="40.91662" lon="-1.30123">
        <ele>889.459699</ele>
        <time>2022-02-22T20:47:03.183Z</time>
      </trkpt>
      <trkpt lat="40.91626" lon="-1.30138">
        <ele>889.994009</ele>
        <time>2022-02-22T20:47:15.061Z</time>
      </trkpt>
      <trkpt lat="40.91543" lon="-1.30176">
        <ele>890.924196</ele>
        <time>2022-02-22T20:47:41.304Z</time>
      </trkpt>
      <trkpt lat="40.91505" lon="-1.3019">
        <ele>891.24919</ele>
        <time>2022-02-22T20:47:51.900Z</time>
      </trkpt>
      <trkpt lat="40.91493" lon="-1.30211">
        <ele>891.407728</ele>
        <time>2022-02-22T20:47:56.967Z</time>
      </trkpt>
      <trkpt lat="40.9146" lon="-1.30244">
        <ele>891.754382</ele>
        <time>2022-02-22T20:48:07.942Z</time>
      </trkpt>
      <trkpt lat="40.91314" lon="-1.30307">
        <ele>892.262567</ele>
        <time>2022-02-22T20:48:45.731Z</time>
      </trkpt>
      <trkpt lat="40.91246" lon="-1.30315">
        <ele>892.387778</ele>
        <time>2022-02-22T20:49:01.624Z</time>
      </trkpt>
      <trkpt lat="40.91203" lon="-1.30311">
        <ele>892.391029</ele>
        <time>2022-02-22T20:49:11.760Z</time>
      </trkpt>
      <trkpt lat="40.9113" lon="-1.30309">
        <ele>892.396521</ele>
        <time>2022-02-22T20:49:28.901Z</time>
      </trkpt>
      <trkpt lat="40.91027" lon="-1.30321">
        <ele>892.380612</ele>
        <time>2022-02-22T20:49:52.679Z</time>
      </trkpt>
      <trkpt lat="40.90979" lon="-1.30327">
        <ele>892.36397</ele>
        <time>2022-02-22T20:50:03.975Z</time>
      </trkpt>
      <trkpt lat="40.90959" lon="-1.30319">
        <ele>892.356811</ele>
        <time>2022-02-22T20:50:09.002Z</time>
      </trkpt>
      <trkpt lat="40.90919" lon="-1.30335">
        <ele>892.342634</ele>
        <time>2022-02-22T20:50:24.275Z</time>
      </trkpt>
      <trkpt lat="40.90866" lon="-1.30335">
        <ele>892.260947</ele>
        <time>2022-02-22T20:50:43.709Z</time>
      </trkpt>
      <trkpt lat="40.90736" lon="-1.3038">
        <ele>892.008612</ele>
        <time>2022-02-22T20:51:32.417Z</time>
      </trkpt>
      <trkpt lat="40.90627" lon="-1.30459">
        <ele>892.276933</ele>
        <time>2022-02-22T20:52:19.224Z</time>
      </trkpt>
      <trkpt lat="40.90577" lon="-1.30517">
        <ele>892.46116</ele>
        <time>2022-02-22T20:52:45.227Z</time>
      </trkpt>
      <trkpt lat="40.90455" lon="-1.30547">
        <ele>893.323612</ele>
        <time>2022-02-22T20:53:35.451Z</time>
      </trkpt>
      <trkpt lat="40.90369" lon="-1.30552">
        <ele>893.971649</ele>
        <time>2022-02-22T20:54:11.212Z</time>
      </trkpt>
      <trkpt lat="40.90277" lon="-1.30552">
        <ele>894.740024</ele>
        <time>2022-02-22T20:54:49.516Z</time>
      </trkpt>
      <trkpt lat="40.9021" lon="-1.30532">
        <ele>895.272251</ele>
        <time>2022-02-22T20:55:17.301Z</time>
      </trkpt>
      <trkpt lat="40.90175" lon="-1.30558">
        <ele>895.527539</ele>
        <time>2022-02-22T20:55:33.634Z</time>
      </trkpt>
      <trkpt lat="40.90121" lon="-1.30552">
        <ele>895.866316</ele>
        <time>2022-02-22T20:55:54.961Z</time>
      </trkpt>
      <trkpt lat="40.90082" lon="-1.30536">
        <ele>896.121509</ele>
        <time>2022-02-22T20:56:11.031Z</time>
      </trkpt>
      <trkpt lat="40.90051" lon="-1.3057">
        <ele>896.376508</ele>
        <time>2022-02-22T20:56:27.483Z</time>
      </trkpt>
      <trkpt lat="40.90032" lon="-1.30693">
        <ele>896.987896</ele>
        <time>2022-02-22T20:57:05.525Z</time>
      </trkpt>
      <trkpt lat="40.90008" lon="-1.30732">
        <ele>897.231492</ele>
        <time>2022-02-22T20:57:20.866Z</time>
      </trkpt>
      <trkpt lat="40.8993" lon="-1.30803">
        <ele>897.886658</ele>
        <time>2022-02-22T20:57:59.536Z</time>
      </trkpt>
      <trkpt lat="40.89761" lon="-1.30936">
        <ele>899.23957</ele>
        <time>2022-02-22T20:59:19.551Z</time>
      </trkpt>
      <trkpt lat="40.89639" lon="-1.31099">
        <ele>900.295535</ele>
        <time>2022-02-22T21:00:28.736Z</time>
      </trkpt>
      <trkpt lat="40.8956" lon="-1.31144">
        <ele>900.790628</ele>
        <time>2022-02-22T21:01:02.603Z</time>
      </trkpt>
      <trkpt lat="40.89521" lon="-1.31202">
        <ele>901.280688</ele>
        <time>2022-02-22T21:01:26.507Z</time>
      </trkpt>
      <trkpt lat="40.89484" lon="-1.31232">
        <ele>901.722608</ele>
        <time>2022-02-22T21:01:44.797Z</time>
      </trkpt>
      <trkpt lat="40.89359" lon="-1.31487">
        <ele>903.820409</ele>
        <time>2022-02-22T21:03:23.170Z</time>
      </trkpt>
      <trkpt lat="40.89219" lon="-1.31631">
        <ele>904.419472</ele>
        <time>2022-02-22T21:04:30.459Z</time>
      </trkpt>
      <trkpt lat="40.89148" lon="-1.31644">
        <ele>904.492229</ele>
        <time>2022-02-22T21:04:57.111Z</time>
      </trkpt>
      <trkpt lat="40.89115" lon="-1.31657">
        <ele>904.48928</ele>
        <time>2022-02-22T21:05:09.653Z</time>
      </trkpt>
      <trkpt lat="40.89028" lon="-1.31663">
        <ele>904.481665</ele>
        <time>2022-02-22T21:05:42.007Z</time>
      </trkpt>
      <trkpt lat="40.88835" lon="-1.3179">
        <ele>904.547257</ele>
        <time>2022-02-22T21:07:01.538Z</time>
      </trkpt>
      <trkpt lat="40.88803" lon="-1.31803">
        <ele>904.763967</ele>
        <time>2022-02-22T21:07:14.891Z</time>
      </trkpt>
      <trkpt lat="40.88739" lon="-1.31796">
        <ele>905.230917</ele>
        <time>2022-02-22T21:07:41.212Z</time>
      </trkpt>
      <trkpt lat="40.88697" lon="-1.31798">
        <ele>905.539588</ele>
        <time>2022-02-22T21:07:58.897Z</time>
      </trkpt>
      <trkpt lat="40.88653" lon="-1.31848">
        <ele>905.920116</ele>
        <time>2022-02-22T21:08:22.992Z</time>
      </trkpt>
      <trkpt lat="40.88645" lon="-1.31875">
        <ele>906.010499</ele>
        <time>2022-02-22T21:08:32.417Z</time>
      </trkpt>
      <trkpt lat="40.88629" lon="-1.32118">
        <ele>906.591903</ele>
        <time>2022-02-22T21:09:42.975Z</time>
      </trkpt>
      <trkpt lat="40.88653" lon="-1.32208">
        <ele>906.596936</ele>
        <time>2022-02-22T21:10:09.632Z</time>
      </trkpt>
      <trkpt lat="40.88649" lon="-1.32234">
        <ele>906.598324</ele>
        <time>2022-02-22T21:10:16.977Z</time>
      </trkpt>
      <trkpt lat="40.88549" lon="-1.32337">
        <ele>906.578035</ele>
        <time>2022-02-22T21:11:03.490Z</time>
      </trkpt>
      <trkpt lat="40.8842" lon="-1.32526">
        <ele>906.644256</ele>
        <time>2022-02-22T21:12:14.767Z</time>
      </trkpt>
      <trkpt lat="40.88344" lon="-1.32609">
        <ele>906.782191</ele>
        <time>2022-02-22T21:12:52.322Z</time>
      </trkpt>
      <trkpt lat="40.88268" lon="-1.32683">
        <ele>907.208276</ele>
        <time>2022-02-22T21:13:15.869Z</time>
      </trkpt>
      <trkpt lat="40.88211" lon="-1.32762">
        <ele>907.576724</ele>
        <time>2022-02-22T21:13:36.187Z</time>
      </trkpt>
      <trkpt lat="40.88183" lon="-1.32777">
        <ele>907.694814</ele>
        <time>2022-02-22T21:13:43.646Z</time>
      </trkpt>
      <trkpt lat="40.88143" lon="-1.32781">
        <ele>907.846892</ele>
        <time>2022-02-22T21:13:53.652Z</time>
      </trkpt>
      <trkpt lat="40.88116" lon="-1.3284">
        <ele>908.049941</ele>
        <time>2022-02-22T21:14:06.858Z</time>
      </trkpt>
      <trkpt lat="40.88096" lon="-1.32857">
        <ele>908.14448</ele>
        <time>2022-02-22T21:14:12.953Z</time>
      </trkpt>
      <trkpt lat="40.88071" lon="-1.32863">
        <ele>908.242722</ele>
        <time>2022-02-22T21:14:19.134Z</time>
      </trkpt>
      <trkpt lat="40.88054" lon="-1.32864">
        <ele>908.300061</ele>
        <time>2022-02-22T21:14:23.428Z</time>
      </trkpt>
      <trkpt lat="40.88007" lon="-1.32887">
        <ele>908.464865</ele>
        <time>2022-02-22T21:14:35.468Z</time>
      </trkpt>
      <trkpt lat="40.87942" lon="-1.32908">
        <ele>908.684293</ele>
        <time>2022-02-22T21:14:52.292Z</time>
      </trkpt>
      <trkpt lat="40.87685" lon="-1.3292">
        <ele>909.53742</ele>
        <time>2022-02-22T21:15:56.026Z</time>
      </trkpt>
      <trkpt lat="40.87673" lon="-1.32916">
        <ele>909.583415</ele>
        <time>2022-02-22T21:15:59.232Z</time>
      </trkpt>
      <trkpt lat="40.87631" lon="-1.32878">
        <ele>909.765545</ele>
        <time>2022-02-22T21:16:12.025Z</time>
      </trkpt>
      <trkpt lat="40.87604" lon="-1.32867">
        <ele>909.865961</ele>
        <time>2022-02-22T21:16:19.136Z</time>
      </trkpt>
      <trkpt lat="40.87463" lon="-1.32755">
        <ele>910.234606</ele>
        <time>2022-02-22T21:16:59.716Z</time>
      </trkpt>
      <trkpt lat="40.87419" lon="-1.32722">
        <ele>910.310482</ele>
        <time>2022-02-22T21:17:11.544Z</time>
      </trkpt>
      <trkpt lat="40.87409" lon="-1.32709">
        <ele>910.331013</ele>
        <time>2022-02-22T21:17:14.649Z</time>
      </trkpt>
      <trkpt lat="40.87396" lon="-1.32689">
        <ele>910.320235</ele>
        <time>2022-02-22T21:17:19.203Z</time>
      </trkpt>
      <trkpt lat="40.87265" lon="-1.32565">
        <ele>909.974658</ele>
        <time>2022-02-22T21:17:55.291Z</time>
      </trkpt>
      <trkpt lat="40.87149" lon="-1.32471">
        <ele>910.059371</ele>
        <time>2022-02-22T21:18:26.767Z</time>
      </trkpt>
      <trkpt lat="40.8712" lon="-1.32432">
        <ele>910.092341</ele>
        <time>2022-02-22T21:18:37.002Z</time>
      </trkpt>
      <trkpt lat="40.87068" lon="-1.3241">
        <ele>910.179333</ele>
        <time>2022-02-22T21:18:50.185Z</time>
      </trkpt>
      <trkpt lat="40.87053" lon="-1.32409">
        <ele>910.207275</ele>
        <time>2022-02-22T21:18:54.094Z</time>
      </trkpt>
      <trkpt lat="40.86986" lon="-1.32422">
        <ele>910.327896</ele>
        <time>2022-02-22T21:19:10.457Z</time>
      </trkpt>
      <trkpt lat="40.86942" lon="-1.32443">
        <ele>910.413338</ele>
        <time>2022-02-22T21:19:21.659Z</time>
      </trkpt>
      <trkpt lat="40.86895" lon="-1.32502">
        <ele>910.369912</ele>
        <time>2022-02-22T21:19:36.527Z</time>
      </trkpt>
      <trkpt lat="40.86884" lon="-1.32507">
        <ele>910.359341</ele>
        <time>2022-02-22T21:19:39.160Z</time>
      </trkpt>
      <trkpt lat="40.86826" lon="-1.32486">
        <ele>910.30327</ele>
        <time>2022-02-22T21:19:52.935Z</time>
      </trkpt>
      <trkpt lat="40.86775" lon="-1.3247">
        <ele>910.261418</ele>
        <time>2022-02-22T21:20:04.619Z</time>
      </trkpt>
      <trkpt lat="40.86752" lon="-1.32455">
        <ele>910.289449</ele>
        <time>2022-02-22T21:20:10.551Z</time>
      </trkpt>
      <trkpt lat="40.86695" lon="-1.32385">
        <ele>910.373055</ele>
        <time>2022-02-22T21:20:28.948Z</time>
      </trkpt>
      <trkpt lat="40.86684" lon="-1.32386">
        <ele>910.385156</ele>
        <time>2022-02-22T21:20:31.603Z</time>
      </trkpt>
      <trkpt lat="40.86575" lon="-1.32432">
        <ele>910.29794</ele>
        <time>2022-02-22T21:20:59.625Z</time>
      </trkpt>
      <trkpt lat="40.86569" lon="-1.32438">
        <ele>910.275878</ele>
        <time>2022-02-22T21:21:01.474Z</time>
      </trkpt>
      <trkpt lat="40.86564" lon="-1.32448">
        <ele>910.248364</ele>
        <time>2022-02-22T21:21:03.610Z</time>
      </trkpt>
      <trkpt lat="40.86572" lon="-1.32512">
        <ele>910.103031</ele>
        <time>2022-02-22T21:21:14.497Z</time>
      </trkpt>
      <trkpt lat="40.86569" lon="-1.32532">
        <ele>910.056745</ele>
        <time>2022-02-22T21:21:18.011Z</time>
      </trkpt>
      <trkpt lat="40.86541" lon="-1.32561">
        <ele>909.950627</ele>
        <time>2022-02-22T21:21:25.667Z</time>
      </trkpt>
      <trkpt lat="40.86544" lon="-1.32587">
        <ele>909.840646</ele>
        <time>2022-02-22T21:21:29.701Z</time>
      </trkpt>
      <trkpt lat="40.86561" lon="-1.32725">
        <ele>908.899605</ele>
        <time>2022-02-22T21:21:51.508Z</time>
      </trkpt>
      <trkpt lat="40.86568" lon="-1.32747">
        <ele>908.745739</ele>
        <time>2022-02-22T21:21:57.595Z</time>
      </trkpt>
      <trkpt lat="40.86609" lon="-1.32802">
        <ele>908.360589</ele>
        <time>2022-02-22T21:22:17.982Z</time>
      </trkpt>
      <trkpt lat="40.86626" lon="-1.32824">
        <ele>908.433029</ele>
        <time>2022-02-22T21:22:26.581Z</time>
      </trkpt>
      <trkpt lat="40.86635" lon="-1.32869">
        <ele>908.542268</ele>
        <time>2022-02-22T21:22:39.993Z</time>
      </trkpt>
      <trkpt lat="40.86635" lon="-1.32902">
        <ele>908.619532</ele>
        <time>2022-02-22T21:22:49.944Z</time>
      </trkpt>
      <trkpt lat="40.86655" lon="-1.32987">
        <ele>908.824961</ele>
        <time>2022-02-22T21:23:17.222Z</time>
      </trkpt>
      <trkpt lat="40.86649" lon="-1.33105">
        <ele>909.41462</ele>
        <time>2022-02-22T21:23:54.273Z</time>
      </trkpt>
      <trkpt lat="40.8659" lon="-1.33173">
        <ele>910.003632</ele>
        <time>2022-02-22T21:24:15.513Z</time>
      </trkpt>
      <trkpt lat="40.86528" lon="-1.33222">
        <ele>910.387237</ele>
        <time>2022-02-22T21:24:34.086Z</time>
      </trkpt>
      <trkpt lat="40.86424" lon="-1.33282">
        <ele>910.819946</ele>
        <time>2022-02-22T21:25:01.073Z</time>
      </trkpt>
      <trkpt lat="40.86327" lon="-1.33309">
        <ele>911.081615</ele>
        <time>2022-02-22T21:25:25.000Z</time>
      </trkpt>
      <trkpt lat="40.85933" lon="-1.33561">
        <ele>912.147471</ele>
        <time>2022-02-22T21:27:06.367Z</time>
      </trkpt>
      <trkpt lat="40.85882" lon="-1.33585">
        <ele>912.485398</ele>
        <time>2022-02-22T21:27:19.883Z</time>
      </trkpt>
      <trkpt lat="40.85835" lon="-1.33598">
        <ele>912.958306</ele>
        <time>2022-02-22T21:27:32.570Z</time>
      </trkpt>
      <trkpt lat="40.85213" lon="-1.33716">
        <ele>919.038475</ele>
        <time>2022-02-22T21:30:24.803Z</time>
      </trkpt>
      <trkpt lat="40.85126" lon="-1.33719">
        <ele>919.540622</ele>
        <time>2022-02-22T21:30:46.287Z</time>
      </trkpt>
      <trkpt lat="40.85063" lon="-1.33741">
        <ele>919.866226</ele>
        <time>2022-02-22T21:31:02.141Z</time>
      </trkpt>
      <trkpt lat="40.85012" lon="-1.33755">
        <ele>920.117374</ele>
        <time>2022-02-22T21:31:14.813Z</time>
      </trkpt>
      <trkpt lat="40.84833" lon="-1.33794">
        <ele>920.740984</ele>
        <time>2022-02-22T21:31:59.627Z</time>
      </trkpt>
      <trkpt lat="40.84831" lon="-1.33794">
        <ele>920.728597</ele>
        <time>2022-02-22T21:32:00.013Z</time>
      </trkpt>
      <trkpt lat="40.84782" lon="-1.33806">
        <ele>920.363662</ele>
        <time>2022-02-22T21:32:10.842Z</time>
      </trkpt>
      <trkpt lat="40.84758" lon="-1.33798">
        <ele>920.189312</ele>
        <time>2022-02-22T21:32:15.732Z</time>
      </trkpt>
      <trkpt lat="40.84746" lon="-1.33778">
        <ele>920.044625</ele>
        <time>2022-02-22T21:32:19.794Z</time>
      </trkpt>
      <trkpt lat="40.84729" lon="-1.336">
        <ele>918.563104</ele>
        <time>2022-02-22T21:32:45.826Z</time>
      </trkpt>
      <trkpt lat="40.8472" lon="-1.33571">
        <ele>918.208182</ele>
        <time>2022-02-22T21:32:50.188Z</time>
      </trkpt>
      <trkpt lat="40.84705" lon="-1.33542">
        <ele>917.786646</ele>
        <time>2022-02-22T21:32:55.281Z</time>
      </trkpt>
      <trkpt lat="40.84659" lon="-1.33489">
        <ele>916.853781</ele>
        <time>2022-02-22T21:33:06.774Z</time>
      </trkpt>
      <trkpt lat="40.84636" lon="-1.3348">
        <ele>916.585752</ele>
        <time>2022-02-22T21:33:11.276Z</time>
      </trkpt>
      <trkpt lat="40.84578" lon="-1.33475">
        <ele>915.999313</ele>
        <time>2022-02-22T21:33:22.459Z</time>
      </trkpt>
      <trkpt lat="40.84501" lon="-1.33485">
        <ele>915.213314</ele>
        <time>2022-02-22T21:33:38.139Z</time>
      </trkpt>
      <trkpt lat="40.84459" lon="-1.33502">
        <ele>914.942072</ele>
        <time>2022-02-22T21:33:47.231Z</time>
      </trkpt>
      <trkpt lat="40.84449" lon="-1.33505">
        <ele>914.942233</ele>
        <time>2022-02-22T21:33:49.365Z</time>
      </trkpt>
      <trkpt lat="40.84327" lon="-1.33588">
        <ele>914.944536</ele>
        <time>2022-02-22T21:34:20.126Z</time>
      </trkpt>
      <trkpt lat="40.84288" lon="-1.33607">
        <ele>915.165058</ele>
        <time>2022-02-22T21:34:30.805Z</time>
      </trkpt>
      <trkpt lat="40.84277" lon="-1.33606">
        <ele>915.257696</ele>
        <time>2022-02-22T21:34:33.443Z</time>
      </trkpt>
      <trkpt lat="40.84118" lon="-1.33717">
        <ele>916.760082</ele>
        <time>2022-02-22T21:35:21.839Z</time>
      </trkpt>
      <trkpt lat="40.84033" lon="-1.33747">
        <ele>917.498315</ele>
        <time>2022-02-22T21:35:45.445Z</time>
      </trkpt>
      <trkpt lat="40.83996" lon="-1.33762">
        <ele>917.831284</ele>
        <time>2022-02-22T21:35:55.597Z</time>
      </trkpt>
      <trkpt lat="40.83947" lon="-1.33758">
        <ele>918.098485</ele>
        <time>2022-02-22T21:36:07.996Z</time>
      </trkpt>
      <trkpt lat="40.83894" lon="-1.33771">
        <ele>918.317554</ele>
        <time>2022-02-22T21:36:21.388Z</time>
      </trkpt>
      <trkpt lat="40.83844" lon="-1.33764">
        <ele>918.522947</ele>
        <time>2022-02-22T21:36:33.287Z</time>
      </trkpt>
      <trkpt lat="40.83758" lon="-1.33754">
        <ele>918.806972</ele>
        <time>2022-02-22T21:36:53.507Z</time>
      </trkpt>
      <trkpt lat="40.83748" lon="-1.3376">
        <ele>918.835042</ele>
        <time>2022-02-22T21:36:56.078Z</time>
      </trkpt>
      <trkpt lat="40.83715" lon="-1.33839">
        <ele>919.0057</ele>
        <time>2022-02-22T21:37:12.042Z</time>
      </trkpt>
      <trkpt lat="40.83647" lon="-1.33852">
        <ele>919.185147</ele>
        <time>2022-02-22T21:37:28.109Z</time>
      </trkpt>
      <trkpt lat="40.83589" lon="-1.33853">
        <ele>919.374372</ele>
        <time>2022-02-22T21:37:41.704Z</time>
      </trkpt>
      <trkpt lat="40.83388" lon="-1.33812">
        <ele>920.052833</ele>
        <time>2022-02-22T21:38:30.795Z</time>
      </trkpt>
      <trkpt lat="40.83248" lon="-1.33767">
        <ele>920.584993</ele>
        <time>2022-02-22T21:39:05.220Z</time>
      </trkpt>
      <trkpt lat="40.83176" lon="-1.33759">
        <ele>920.88421</ele>
        <time>2022-02-22T21:39:22.911Z</time>
      </trkpt>
      <trkpt lat="40.83031" lon="-1.33698">
        <ele>921.560544</ele>
        <time>2022-02-22T21:39:59.956Z</time>
      </trkpt>
      <trkpt lat="40.82944" lon="-1.33687">
        <ele>921.954022</ele>
        <time>2022-02-22T21:40:21.829Z</time>
      </trkpt>
      <trkpt lat="40.82896" lon="-1.33697">
        <ele>922.137386</ele>
        <time>2022-02-22T21:40:33.750Z</time>
      </trkpt>
      <trkpt lat="40.82877" lon="-1.33707">
        <ele>922.21526</ele>
        <time>2022-02-22T21:40:38.810Z</time>
      </trkpt>
      <trkpt lat="40.82837" lon="-1.33696">
        <ele>922.367456</ele>
        <time>2022-02-22T21:40:48.610Z</time>
      </trkpt>
      <trkpt lat="40.82802" lon="-1.33668">
        <ele>922.521482</ele>
        <time>2022-02-22T21:40:58.589Z</time>
      </trkpt>
      <trkpt lat="40.82774" lon="-1.33656">
        <ele>922.667638</ele>
        <time>2022-02-22T21:41:05.783Z</time>
      </trkpt>
      <trkpt lat="40.82758" lon="-1.33656">
        <ele>922.797821</ele>
        <time>2022-02-22T21:41:10.041Z</time>
      </trkpt>
      <trkpt lat="40.82744" lon="-1.33653">
        <ele>922.907761</ele>
        <time>2022-02-22T21:41:13.596Z</time>
      </trkpt>
      <trkpt lat="40.82712" lon="-1.33645">
        <ele>923.160144</ele>
        <time>2022-02-22T21:41:22.117Z</time>
      </trkpt>
      <trkpt lat="40.82686" lon="-1.33641">
        <ele>923.364372</ele>
        <time>2022-02-22T21:41:29.132Z</time>
      </trkpt>
      <trkpt lat="40.82636" lon="-1.33658">
        <ele>923.77521</ele>
        <time>2022-02-22T21:41:43.588Z</time>
      </trkpt>
      <trkpt lat="40.82606" lon="-1.33665">
        <ele>924.015493</ele>
        <time>2022-02-22T21:41:52.497Z</time>
      </trkpt>
      <trkpt lat="40.826" lon="-1.33653">
        <ele>924.159877</ele>
        <time>2022-02-22T21:41:55.520Z</time>
      </trkpt>
      <trkpt lat="40.82581" lon="-1.33655">
        <ele>924.432868</ele>
        <time>2022-02-22T21:42:01.443Z</time>
      </trkpt>
      <trkpt lat="40.82571" lon="-1.33671">
        <ele>924.646954</ele>
        <time>2022-02-22T21:42:06.098Z</time>
      </trkpt>
      <trkpt lat="40.82573" lon="-1.33693">
        <ele>924.874859</ele>
        <time>2022-02-22T21:42:11.170Z</time>
      </trkpt>
      <trkpt lat="40.82536" lon="-1.33693">
        <ele>925.383658</ele>
        <time>2022-02-22T21:42:22.553Z</time>
      </trkpt>
      <trkpt lat="40.82529" lon="-1.33693">
        <ele>925.473065</ele>
        <time>2022-02-22T21:42:24.554Z</time>
      </trkpt>
      <trkpt lat="40.82494" lon="-1.33693">
        <ele>925.961234</ele>
        <time>2022-02-22T21:42:35.381Z</time>
      </trkpt>
      <trkpt lat="40.82487" lon="-1.33694">
        <ele>926.058299</ele>
        <time>2022-02-22T21:42:37.509Z</time>
      </trkpt>
      <trkpt lat="40.82395" lon="-1.33709">
        <ele>927.173336</ele>
        <time>2022-02-22T21:43:04.893Z</time>
      </trkpt>
      <trkpt lat="40.82347" lon="-1.3373">
        <ele>927.741208</ele>
        <time>2022-02-22T21:43:19.334Z</time>
      </trkpt>
      <trkpt lat="40.82305" lon="-1.33736">
        <ele>928.215839</ele>
        <time>2022-02-22T21:43:31.080Z</time>
      </trkpt>
      <trkpt lat="40.82252" lon="-1.33743">
        <ele>928.817165</ele>
        <time>2022-02-22T21:43:46.161Z</time>
      </trkpt>
      <trkpt lat="40.82216" lon="-1.33749">
        <ele>929.233194</ele>
        <time>2022-02-22T21:43:56.754Z</time>
      </trkpt>
      <trkpt lat="40.82171" lon="-1.33755">
        <ele>929.742422</ele>
        <time>2022-02-22T21:44:09.892Z</time>
      </trkpt>
      <trkpt lat="40.82087" lon="-1.33775">
        <ele>930.675474</ele>
        <time>2022-02-22T21:44:34.995Z</time>
      </trkpt>
      <trkpt lat="40.8186" lon="-1.33872">
        <ele>932.545375</ele>
        <time>2022-02-22T21:45:40.432Z</time>
      </trkpt>
      <trkpt lat="40.81807" lon="-1.33886">
        <ele>932.814739</ele>
        <time>2022-02-22T21:45:53.869Z</time>
      </trkpt>
      <trkpt lat="40.81747" lon="-1.33894">
        <ele>933.063561</ele>
        <time>2022-02-22T21:46:08.662Z</time>
      </trkpt>
      <trkpt lat="40.81718" lon="-1.33892">
        <ele>933.030898</ele>
        <time>2022-02-22T21:46:15.276Z</time>
      </trkpt>
      <trkpt lat="40.81646" lon="-1.33909">
        <ele>932.945197</ele>
        <time>2022-02-22T21:46:32.324Z</time>
      </trkpt>
      <trkpt lat="40.81516" lon="-1.33922">
        <ele>932.36119</ele>
        <time>2022-02-22T21:47:01.135Z</time>
      </trkpt>
      <trkpt lat="40.8135" lon="-1.33947">
        <ele>931.049424</ele>
        <time>2022-02-22T21:47:35.505Z</time>
      </trkpt>
      <trkpt lat="40.81225" lon="-1.3404">
        <ele>930.266606</ele>
        <time>2022-02-22T21:48:06.504Z</time>
      </trkpt>
      <trkpt lat="40.81187" lon="-1.34083">
        <ele>930.67825</ele>
        <time>2022-02-22T21:48:19.309Z</time>
      </trkpt>
      <trkpt lat="40.8111" lon="-1.34154">
        <ele>931.44747</ele>
        <time>2022-02-22T21:48:46.569Z</time>
      </trkpt>
      <trkpt lat="40.81033" lon="-1.34183">
        <ele>931.870102</ele>
        <time>2022-02-22T21:49:11.629Z</time>
      </trkpt>
      <trkpt lat="40.80932" lon="-1.34239">
        <ele>932.298089</ele>
        <time>2022-02-22T21:49:38.140Z</time>
      </trkpt>
      <trkpt lat="40.80805" lon="-1.34342">
        <ele>930.699937</ele>
        <time>2022-02-22T21:50:08.297Z</time>
      </trkpt>
      <trkpt lat="40.80768" lon="-1.34389">
        <ele>930.096225</ele>
        <time>2022-02-22T21:50:18.485Z</time>
      </trkpt>
      <trkpt lat="40.80749" lon="-1.34413">
        <ele>929.887835</ele>
        <time>2022-02-22T21:50:23.670Z</time>
      </trkpt>
      <trkpt lat="40.80686" lon="-1.34472">
        <ele>929.260219</ele>
        <time>2022-02-22T21:50:39.766Z</time>
      </trkpt>
      <trkpt lat="40.80542" lon="-1.34568">
        <ele>928.546812</ele>
        <time>2022-02-22T21:51:15.633Z</time>
      </trkpt>
      <trkpt lat="40.80492" lon="-1.34616">
        <ele>928.449893</ele>
        <time>2022-02-22T21:51:30.001Z</time>
      </trkpt>
      <trkpt lat="40.80412" lon="-1.34677">
        <ele>928.751788</ele>
        <time>2022-02-22T21:51:52.291Z</time>
      </trkpt>
      <trkpt lat="40.80222" lon="-1.34765">
        <ele>930.225599</ele>
        <time>2022-02-22T21:52:46.575Z</time>
      </trkpt>
      <trkpt lat="40.8006" lon="-1.3486">
        <ele>931.983987</ele>
        <time>2022-02-22T21:53:38.390Z</time>
      </trkpt>
      <trkpt lat="40.79904" lon="-1.34943">
        <ele>933.195286</ele>
        <time>2022-02-22T21:54:23.966Z</time>
      </trkpt>
      <trkpt lat="40.79803" lon="-1.34974">
        <ele>933.567125</ele>
        <time>2022-02-22T21:54:48.188Z</time>
      </trkpt>
      <trkpt lat="40.79734" lon="-1.34961">
        <ele>933.596099</ele>
        <time>2022-02-22T21:55:04.383Z</time>
      </trkpt>
      <trkpt lat="40.79631" lon="-1.34908">
        <ele>933.62289</ele>
        <time>2022-02-22T21:55:29.933Z</time>
      </trkpt>
      <trkpt lat="40.79594" lon="-1.34899">
        <ele>933.738203</ele>
        <time>2022-02-22T21:55:39.114Z</time>
      </trkpt>
      <trkpt lat="40.79557" lon="-1.349">
        <ele>933.860037</ele>
        <time>2022-02-22T21:55:47.955Z</time>
      </trkpt>
      <trkpt lat="40.79531" lon="-1.34912">
        <ele>933.950057</ele>
        <time>2022-02-22T21:55:54.693Z</time>
      </trkpt>
      <trkpt lat="40.79482" lon="-1.34954">
        <ele>934.141918</ele>
        <time>2022-02-22T21:56:09.764Z</time>
      </trkpt>
      <trkpt lat="40.79462" lon="-1.34958">
        <ele>934.208815</ele>
        <time>2022-02-22T21:56:14.956Z</time>
      </trkpt>
      <trkpt lat="40.79456" lon="-1.34964">
        <ele>934.243341</ele>
        <time>2022-02-22T21:56:17.202Z</time>
      </trkpt>
      <trkpt lat="40.7945" lon="-1.34961">
        <ele>934.27338</ele>
        <time>2022-02-22T21:56:18.708Z</time>
      </trkpt>
      <trkpt lat="40.79446" lon="-1.34926">
        <ele>934.401343</ele>
        <time>2022-02-22T21:56:25.610Z</time>
      </trkpt>
      <trkpt lat="40.79373" lon="-1.34946">
        <ele>934.755889</ele>
        <time>2022-02-22T21:56:44.704Z</time>
      </trkpt>
      <trkpt lat="40.79318" lon="-1.34939">
        <ele>935.020111</ele>
        <time>2022-02-22T21:56:58.606Z</time>
      </trkpt>
      <trkpt lat="40.79266" lon="-1.34939">
        <ele>934.930325</ele>
        <time>2022-02-22T21:57:12.296Z</time>
      </trkpt>
      <trkpt lat="40.79241" lon="-1.34905">
        <ele>934.801652</ele>
        <time>2022-02-22T21:57:20.793Z</time>
      </trkpt>
      <trkpt lat="40.79152" lon="-1.34889">
        <ele>934.486492</ele>
        <time>2022-02-22T21:57:39.664Z</time>
      </trkpt>
      <trkpt lat="40.79117" lon="-1.34876">
        <ele>934.355473</ele>
        <time>2022-02-22T21:57:47.176Z</time>
      </trkpt>
      <trkpt lat="40.79097" lon="-1.34869">
        <ele>934.283297</ele>
        <time>2022-02-22T21:57:51.153Z</time>
      </trkpt>
      <trkpt lat="40.78992" lon="-1.34885">
        <ele>933.903246</ele>
        <time>2022-02-22T21:58:14.661Z</time>
      </trkpt>
      <trkpt lat="40.79004" lon="-1.34988">
        <ele>934.55927</ele>
        <time>2022-02-22T21:58:33.933Z</time>
      </trkpt>
      <trkpt lat="40.79017" lon="-1.35096">
        <ele>935.876441</ele>
        <time>2022-02-22T21:58:59.284Z</time>
      </trkpt>
      <trkpt lat="40.79033" lon="-1.35231">
        <ele>937.824264</ele>
        <time>2022-02-22T21:59:37.179Z</time>
      </trkpt>
      <trkpt lat="40.79034" lon="-1.35279">
        <ele>938.593751</ele>
        <time>2022-02-22T21:59:49.744Z</time>
      </trkpt>
      <trkpt lat="40.79035" lon="-1.35282">
        <ele>938.649465</ele>
        <time>2022-02-22T21:59:50.639Z</time>
      </trkpt>
      <trkpt lat="40.79035" lon="-1.35322">
        <ele>939.303715</ele>
        <time>2022-02-22T22:00:00.894Z</time>
      </trkpt>
      <trkpt lat="40.79037" lon="-1.35344">
        <ele>939.648484</ele>
        <time>2022-02-22T22:00:06.129Z</time>
      </trkpt>
      <trkpt lat="40.79035" lon="-1.35381">
        <ele>940.25751</ele>
        <time>2022-02-22T22:00:15.116Z</time>
      </trkpt>
      <trkpt lat="40.7898" lon="-1.35413">
        <ele>940.693692</ele>
        <time>2022-02-22T22:00:32.375Z</time>
      </trkpt>
      <trkpt lat="40.78966" lon="-1.35414">
        <ele>940.749691</ele>
        <time>2022-02-22T22:00:36.142Z</time>
      </trkpt>
      <trkpt lat="40.78939" lon="-1.35436">
        <ele>940.881229</ele>
        <time>2022-02-22T22:00:44.636Z</time>
      </trkpt>
      <trkpt lat="40.78929" lon="-1.35434">
        <ele>940.923488</ele>
        <time>2022-02-22T22:00:47.078Z</time>
      </trkpt>
      <trkpt lat="40.78879" lon="-1.35438">
        <ele>941.126703</ele>
        <time>2022-02-22T22:00:58.283Z</time>
      </trkpt>
      <trkpt lat="40.78871" lon="-1.3544">
        <ele>941.159234</ele>
        <time>2022-02-22T22:01:00.012Z</time>
      </trkpt>
      <trkpt lat="40.78804" lon="-1.35444">
        <ele>941.02225</ele>
        <time>2022-02-22T22:01:14.591Z</time>
      </trkpt>
      <trkpt lat="40.78737" lon="-1.35447">
        <ele>940.741321</ele>
        <time>2022-02-22T22:01:29.007Z</time>
      </trkpt>
      <trkpt lat="40.787" lon="-1.35445">
        <ele>940.587008</ele>
        <time>2022-02-22T22:01:37.187Z</time>
      </trkpt>
      <trkpt lat="40.78677" lon="-1.35444">
        <ele>940.488852</ele>
        <time>2022-02-22T22:01:42.504Z</time>
      </trkpt>
      <trkpt lat="40.78661" lon="-1.35443">
        <ele>940.442109</ele>
        <time>2022-02-22T22:01:46.125Z</time>
      </trkpt>
      <trkpt lat="40.78657" lon="-1.35442">
        <ele>940.43064</ele>
        <time>2022-02-22T22:01:47.078Z</time>
      </trkpt>
      <trkpt lat="40.78654" lon="-1.35439">
        <ele>940.419129</ele>
        <time>2022-02-22T22:01:48.044Z</time>
      </trkpt>
      <trkpt lat="40.78645" lon="-1.35431">
        <ele>940.388051</ele>
        <time>2022-02-22T22:01:50.565Z</time>
      </trkpt>
      <trkpt lat="40.78581" lon="-1.3542">
        <ele>940.203529</ele>
        <time>2022-02-22T22:02:05.310Z</time>
      </trkpt>
      <trkpt lat="40.78467" lon="-1.35395">
        <ele>939.614675</ele>
        <time>2022-02-22T22:02:29.101Z</time>
      </trkpt>
      <trkpt lat="40.78401" lon="-1.35374">
        <ele>938.866821</ele>
        <time>2022-02-22T22:02:42.750Z</time>
      </trkpt>
      <trkpt lat="40.78371" lon="-1.35364">
        <ele>938.526573</ele>
        <time>2022-02-22T22:02:48.614Z</time>
      </trkpt>
      <trkpt lat="40.7833" lon="-1.35351">
        <ele>938.05429</ele>
        <time>2022-02-22T22:02:56.706Z</time>
      </trkpt>
      <trkpt lat="40.78299" lon="-1.35351">
        <ele>937.909268</ele>
        <time>2022-02-22T22:03:02.331Z</time>
      </trkpt>
      <trkpt lat="40.78241" lon="-1.35358">
        <ele>937.733155</ele>
        <time>2022-02-22T22:03:13.812Z</time>
      </trkpt>
      <trkpt lat="40.7823" lon="-1.35363">
        <ele>937.695912</ele>
        <time>2022-02-22T22:03:16.359Z</time>
      </trkpt>
      <trkpt lat="40.78162" lon="-1.35381">
        <ele>937.486215</ele>
        <time>2022-02-22T22:03:33.886Z</time>
      </trkpt>
      <trkpt lat="40.7811" lon="-1.35416">
        <ele>937.996217</ele>
        <time>2022-02-22T22:03:49.383Z</time>
      </trkpt>
      <trkpt lat="40.78045" lon="-1.35457">
        <ele>938.975949</ele>
        <time>2022-02-22T22:04:11.200Z</time>
      </trkpt>
      <trkpt lat="40.77959" lon="-1.35499">
        <ele>939.915243</ele>
        <time>2022-02-22T22:04:39.183Z</time>
      </trkpt>
      <trkpt lat="40.77919" lon="-1.35513">
        <ele>940.000766</ele>
        <time>2022-02-22T22:04:50.182Z</time>
      </trkpt>
      <trkpt lat="40.77886" lon="-1.35513">
        <ele>940.067937</ele>
        <time>2022-02-22T22:04:57.290Z</time>
      </trkpt>
      <trkpt lat="40.77821" lon="-1.35493">
        <ele>940.204522</ele>
        <time>2022-02-22T22:05:11.379Z</time>
      </trkpt>
      <trkpt lat="40.77798" lon="-1.35471">
        <ele>940.095505</ele>
        <time>2022-02-22T22:05:17.302Z</time>
      </trkpt>
      <trkpt lat="40.77773" lon="-1.35454">
        <ele>939.839843</ele>
        <time>2022-02-22T22:05:22.899Z</time>
      </trkpt>
      <trkpt lat="40.77758" lon="-1.3545">
        <ele>939.699139</ele>
        <time>2022-02-22T22:05:25.884Z</time>
      </trkpt>
      <trkpt lat="40.77695" lon="-1.3545">
        <ele>939.136746</ele>
        <time>2022-02-22T22:05:38.182Z</time>
      </trkpt>
      <trkpt lat="40.77678" lon="-1.3546">
        <ele>938.964043</ele>
        <time>2022-02-22T22:05:41.888Z</time>
      </trkpt>
      <trkpt lat="40.7763" lon="-1.35542">
        <ele>938.484371</ele>
        <time>2022-02-22T22:05:57.866Z</time>
      </trkpt>
      <trkpt lat="40.77592" lon="-1.35571">
        <ele>938.339369</ele>
        <time>2022-02-22T22:06:07.231Z</time>
      </trkpt>
      <trkpt lat="40.77567" lon="-1.35582">
        <ele>938.254444</ele>
        <time>2022-02-22T22:06:12.542Z</time>
      </trkpt>
      <trkpt lat="40.77514" lon="-1.35576">
        <ele>938.078441</ele>
        <time>2022-02-22T22:06:24.549Z</time>
      </trkpt>
      <trkpt lat="40.77494" lon="-1.35562">
        <ele>938.024375</ele>
        <time>2022-02-22T22:06:29.641Z</time>
      </trkpt>
      <trkpt lat="40.77481" lon="-1.35526">
        <ele>938.045683</ele>
        <time>2022-02-22T22:06:36.822Z</time>
      </trkpt>
      <trkpt lat="40.77462" lon="-1.35491">
        <ele>938.068342</ele>
        <time>2022-02-22T22:06:44.190Z</time>
      </trkpt>
      <trkpt lat="40.77395" lon="-1.35426">
        <ele>938.126722</ele>
        <time>2022-02-22T22:07:02.873Z</time>
      </trkpt>
      <trkpt lat="40.7735" lon="-1.354">
        <ele>938.19456</ele>
        <time>2022-02-22T22:07:13.884Z</time>
      </trkpt>
      <trkpt lat="40.77265" lon="-1.35375">
        <ele>938.400074</ele>
        <time>2022-02-22T22:07:34.515Z</time>
      </trkpt>
      <trkpt lat="40.77238" lon="-1.35378">
        <ele>938.465099</ele>
        <time>2022-02-22T22:07:41.056Z</time>
      </trkpt>
      <trkpt lat="40.77141" lon="-1.35429">
        <ele>938.531358</ele>
        <time>2022-02-22T22:08:05.514Z</time>
      </trkpt>
      <trkpt lat="40.77118" lon="-1.35447">
        <ele>938.51328</ele>
        <time>2022-02-22T22:08:11.367Z</time>
      </trkpt>
      <trkpt lat="40.77107" lon="-1.35448">
        <ele>938.505448</ele>
        <time>2022-02-22T22:08:13.879Z</time>
      </trkpt>
      <trkpt lat="40.77095" lon="-1.35445">
        <ele>938.496948</ele>
        <time>2022-02-22T22:08:16.613Z</time>
      </trkpt>
      <trkpt lat="40.77073" lon="-1.35426">
        <ele>938.478757</ele>
        <time>2022-02-22T22:08:22.347Z</time>
      </trkpt>
      <trkpt lat="40.77036" lon="-1.35405">
        <ele>938.451397</ele>
        <time>2022-02-22T22:08:30.778Z</time>
      </trkpt>
      <trkpt lat="40.76957" lon="-1.35387">
        <ele>938.162364</ele>
        <time>2022-02-22T22:08:47.400Z</time>
      </trkpt>
      <trkpt lat="40.76892" lon="-1.35379">
        <ele>937.914677</ele>
        <time>2022-02-22T22:09:00.976Z</time>
      </trkpt>
      <trkpt lat="40.76846" lon="-1.3538">
        <ele>937.830934</ele>
        <time>2022-02-22T22:09:10.822Z</time>
      </trkpt>
      <trkpt lat="40.76775" lon="-1.35362">
        <ele>938.468155</ele>
        <time>2022-02-22T22:09:28.803Z</time>
      </trkpt>
      <trkpt lat="40.76728" lon="-1.35375">
        <ele>938.894508</ele>
        <time>2022-02-22T22:09:42.347Z</time>
      </trkpt>
      <trkpt lat="40.7667" lon="-1.35401">
        <ele>939.452572</ele>
        <time>2022-02-22T22:10:01.263Z</time>
      </trkpt>
      <trkpt lat="40.76545" lon="-1.35444">
        <ele>940.78391</ele>
        <time>2022-02-22T22:10:38.348Z</time>
      </trkpt>
      <trkpt lat="40.76522" lon="-1.35452">
        <ele>941.028494</ele>
        <time>2022-02-22T22:10:44.234Z</time>
      </trkpt>
      <trkpt lat="40.76432" lon="-1.35461">
        <ele>941.024296</ele>
        <time>2022-02-22T22:11:04.269Z</time>
      </trkpt>
      <trkpt lat="40.7635" lon="-1.35458">
        <ele>940.813422</ele>
        <time>2022-02-22T22:11:20.962Z</time>
      </trkpt>
      <trkpt lat="40.762" lon="-1.35468">
        <ele>940.480725</ele>
        <time>2022-02-22T22:11:53.225Z</time>
      </trkpt>
      <trkpt lat="40.75976" lon="-1.3547">
        <ele>940.531379</ele>
        <time>2022-02-22T22:12:43.887Z</time>
      </trkpt>
      <trkpt lat="40.75732" lon="-1.35442">
        <ele>941.000517</ele>
        <time>2022-02-22T22:13:40.914Z</time>
      </trkpt>
      <trkpt lat="40.75663" lon="-1.35444">
        <ele>941.138506</ele>
        <time>2022-02-22T22:13:57.030Z</time>
      </trkpt>
      <trkpt lat="40.75466" lon="-1.35423">
        <ele>941.374847</ele>
        <time>2022-02-22T22:14:41.899Z</time>
      </trkpt>
      <trkpt lat="40.75393" lon="-1.35401">
        <ele>941.462416</ele>
        <time>2022-02-22T22:14:58.930Z</time>
      </trkpt>
      <trkpt lat="40.75344" lon="-1.35413">
        <ele>941.536306</ele>
        <time>2022-02-22T22:15:10.380Z</time>
      </trkpt>
      <trkpt lat="40.75251" lon="-1.35416">
        <ele>941.675462</ele>
        <time>2022-02-22T22:15:32.035Z</time>
      </trkpt>
      <trkpt lat="40.75156" lon="-1.35431">
        <ele>941.684469</ele>
        <time>2022-02-22T22:15:53.718Z</time>
      </trkpt>
      <trkpt lat="40.75126" lon="-1.35429">
        <ele>941.686797</ele>
        <time>2022-02-22T22:16:00.360Z</time>
      </trkpt>
      <trkpt lat="40.75075" lon="-1.35412">
        <ele>941.690816</ele>
        <time>2022-02-22T22:16:11.791Z</time>
      </trkpt>
      <trkpt lat="40.74961" lon="-1.35359">
        <ele>941.721767</ele>
        <time>2022-02-22T22:16:38.269Z</time>
      </trkpt>
      <trkpt lat="40.74919" lon="-1.35266">
        <ele>941.834479</ele>
        <time>2022-02-22T22:16:58.121Z</time>
      </trkpt>
      <trkpt lat="40.74917" lon="-1.35244">
        <ele>941.912821</ele>
        <time>2022-02-22T22:17:02.588Z</time>
      </trkpt>
      <trkpt lat="40.7492" lon="-1.35234">
        <ele>941.952332</ele>
        <time>2022-02-22T22:17:04.640Z</time>
      </trkpt>
      <trkpt lat="40.74926" lon="-1.35216">
        <ele>942.02245</ele>
        <time>2022-02-22T22:17:08.447Z</time>
      </trkpt>
      <trkpt lat="40.74933" lon="-1.35096">
        <ele>942.452947</ele>
        <time>2022-02-22T22:17:31.902Z</time>
      </trkpt>
      <trkpt lat="40.74946" lon="-1.35058">
        <ele>942.60381</ele>
        <time>2022-02-22T22:17:40.208Z</time>
      </trkpt>
      <trkpt lat="40.74911" lon="-1.35018">
        <ele>942.863411</ele>
        <time>2022-02-22T22:17:52.315Z</time>
      </trkpt>
      <trkpt lat="40.74843" lon="-1.34976">
        <ele>943.279174</ele>
        <time>2022-02-22T22:18:11.955Z</time>
      </trkpt>
      <trkpt lat="40.7473" lon="-1.34882">
        <ele>943.983373</ele>
        <time>2022-02-22T22:18:46.498Z</time>
      </trkpt>
      <trkpt lat="40.74647" lon="-1.34851">
        <ele>944.411194</ele>
        <time>2022-02-22T22:19:08.532Z</time>
      </trkpt>
      <trkpt lat="40.74542" lon="-1.34786">
        <ele>944.610032</ele>
        <time>2022-02-22T22:19:36.833Z</time>
      </trkpt>
      <trkpt lat="40.74459" lon="-1.34768">
        <ele>944.698456</ele>
        <time>2022-02-22T22:19:56.094Z</time>
      </trkpt>
      <trkpt lat="40.74376" lon="-1.34765">
        <ele>944.594454</ele>
        <time>2022-02-22T22:20:15.019Z</time>
      </trkpt>
      <trkpt lat="40.74148" lon="-1.34795">
        <ele>944.295407</ele>
        <time>2022-02-22T22:21:07.417Z</time>
      </trkpt>
      <trkpt lat="40.73944" lon="-1.34859">
        <ele>944.070699</ele>
        <time>2022-02-22T22:21:55.003Z</time>
      </trkpt>
      <trkpt lat="40.73854" lon="-1.3486">
        <ele>944.283822</ele>
        <time>2022-02-22T22:22:16.480Z</time>
      </trkpt>
      <trkpt lat="40.73827" lon="-1.34851">
        <ele>944.365599</ele>
        <time>2022-02-22T22:22:23.345Z</time>
      </trkpt>
      <trkpt lat="40.73517" lon="-1.34808">
        <ele>945.677591</ele>
        <time>2022-02-22T22:23:43.503Z</time>
      </trkpt>
      <trkpt lat="40.73195" lon="-1.34727">
        <ele>946.575853</ele>
        <time>2022-02-22T22:25:03.168Z</time>
      </trkpt>
      <trkpt lat="40.72891" lon="-1.34671">
        <ele>947.976234</ele>
        <time>2022-02-22T22:26:20.868Z</time>
      </trkpt>
      <trkpt lat="40.72506" lon="-1.34401">
        <ele>950.699209</ele>
        <time>2022-02-22T22:28:17.268Z</time>
      </trkpt>
      <trkpt lat="40.72407" lon="-1.34373">
        <ele>951.013652</ele>
        <time>2022-02-22T22:28:42.369Z</time>
      </trkpt>
      <trkpt lat="40.72173" lon="-1.34254">
        <ele>950.862466</ele>
        <time>2022-02-22T22:29:38.985Z</time>
      </trkpt>
      <trkpt lat="40.72086" lon="-1.34211">
        <ele>950.849952</ele>
        <time>2022-02-22T22:30:13.217Z</time>
      </trkpt>
      <trkpt lat="40.71807" lon="-1.33958">
        <ele>951.720305</ele>
        <time>2022-02-22T22:32:23.445Z</time>
      </trkpt>
      <trkpt lat="40.7171" lon="-1.33813">
        <ele>952.290787</ele>
        <time>2022-02-22T22:33:21.493Z</time>
      </trkpt>
      <trkpt lat="40.71676" lon="-1.33772">
        <ele>952.475866</ele>
        <time>2022-02-22T22:33:39.599Z</time>
      </trkpt>
      <trkpt lat="40.71588" lon="-1.33765">
        <ele>952.72096</ele>
        <time>2022-02-22T22:34:13.291Z</time>
      </trkpt>
      <trkpt lat="40.7152" lon="-1.33713">
        <ele>952.776577</ele>
        <time>2022-02-22T22:34:42.458Z</time>
      </trkpt>
      <trkpt lat="40.71497" lon="-1.33704">
        <ele>952.793707</ele>
        <time>2022-02-22T22:34:51.394Z</time>
      </trkpt>
      <trkpt lat="40.71298" lon="-1.33665">
        <ele>953.008698</ele>
        <time>2022-02-22T22:36:05.945Z</time>
      </trkpt>
      <trkpt lat="40.71132" lon="-1.33589">
        <ele>953.633288</ele>
        <time>2022-02-22T22:37:14.757Z</time>
      </trkpt>
      <trkpt lat="40.70973" lon="-1.33525">
        <ele>954.403297</ele>
        <time>2022-02-22T22:38:20.683Z</time>
      </trkpt>
      <trkpt lat="40.70246" lon="-1.3331">
        <ele>957.763759</ele>
        <time>2022-02-22T22:43:14.602Z</time>
      </trkpt>
      <trkpt lat="40.70104" lon="-1.33323">
        <ele>957.286264</ele>
        <time>2022-02-22T22:44:05.908Z</time>
      </trkpt>
      <trkpt lat="40.70059" lon="-1.33497">
        <ele>956.682577</ele>
        <time>2022-02-22T22:44:34.222Z</time>
      </trkpt>
      <trkpt lat="40.69917" lon="-1.33923">
        <ele>956.262705</ele>
        <time>2022-02-22T22:45:51.267Z</time>
      </trkpt>
      <trkpt lat="40.69859" lon="-1.34073">
        <ele>956.834328</ele>
        <time>2022-02-22T22:46:23.235Z</time>
      </trkpt>
      <trkpt lat="40.6974" lon="-1.34333">
        <ele>959.056961</ele>
        <time>2022-02-22T22:47:26.437Z</time>
      </trkpt>
      <trkpt lat="40.69599" lon="-1.34558">
        <ele>961.230133</ele>
        <time>2022-02-22T22:48:26.434Z</time>
      </trkpt>
      <trkpt lat="40.69496" lon="-1.34574">
        <ele>962.02329</ele>
        <time>2022-02-22T22:48:55.047Z</time>
      </trkpt>
      <trkpt lat="40.69458" lon="-1.34605">
        <ele>962.227753</ele>
        <time>2022-02-22T22:49:06.213Z</time>
      </trkpt>
      <trkpt lat="40.69426" lon="-1.34644">
        <ele>962.427153</ele>
        <time>2022-02-22T22:49:16.660Z</time>
      </trkpt>
      <trkpt lat="40.69441" lon="-1.34677">
        <ele>962.562358</ele>
        <time>2022-02-22T22:49:23.251Z</time>
      </trkpt>
      <trkpt lat="40.69449" lon="-1.34742">
        <ele>962.595007</ele>
        <time>2022-02-22T22:49:34.171Z</time>
      </trkpt>
      <trkpt lat="40.69404" lon="-1.34791">
        <ele>962.480656</ele>
        <time>2022-02-22T22:49:46.442Z</time>
      </trkpt>
      <trkpt lat="40.69369" lon="-1.34827">
        <ele>962.391386</ele>
        <time>2022-02-22T22:49:55.679Z</time>
      </trkpt>
      <trkpt lat="40.69336" lon="-1.34856">
        <ele>962.311576</ele>
        <time>2022-02-22T22:50:04.362Z</time>
      </trkpt>
      <trkpt lat="40.69247" lon="-1.34925">
        <ele>962.8012</ele>
        <time>2022-02-22T22:50:29.725Z</time>
      </trkpt>
      <trkpt lat="40.69165" lon="-1.34964">
        <ele>963.260645</ele>
        <time>2022-02-22T22:50:52.384Z</time>
      </trkpt>
      <trkpt lat="40.69153" lon="-1.34971">
        <ele>963.321116</ele>
        <time>2022-02-22T22:50:56.156Z</time>
      </trkpt>
      <trkpt lat="40.69061" lon="-1.35053">
        <ele>963.809495</ele>
        <time>2022-02-22T22:51:23.976Z</time>
      </trkpt>
      <trkpt lat="40.69043" lon="-1.35075">
        <ele>963.915693</ele>
        <time>2022-02-22T22:51:29.480Z</time>
      </trkpt>
      <trkpt lat="40.69015" lon="-1.35137">
        <ele>964.106349</ele>
        <time>2022-02-22T22:51:41.630Z</time>
      </trkpt>
      <trkpt lat="40.68998" lon="-1.35155">
        <ele>964.15798</ele>
        <time>2022-02-22T22:51:46.323Z</time>
      </trkpt>
      <trkpt lat="40.68876" lon="-1.35185">
        <ele>964.463746</ele>
        <time>2022-02-22T22:52:16.101Z</time>
      </trkpt>
      <trkpt lat="40.68826" lon="-1.35216">
        <ele>964.700973</ele>
        <time>2022-02-22T22:52:29.826Z</time>
      </trkpt>
      <trkpt lat="40.68729" lon="-1.35339">
        <ele>965.317158</ele>
        <time>2022-02-22T22:53:03.198Z</time>
      </trkpt>
      <trkpt lat="40.68659" lon="-1.35471">
        <ele>965.591677</ele>
        <time>2022-02-22T22:53:31.224Z</time>
      </trkpt>
      <trkpt lat="40.68655" lon="-1.35486">
        <ele>965.619175</ele>
        <time>2022-02-22T22:53:33.964Z</time>
      </trkpt>
      <trkpt lat="40.68654" lon="-1.35513">
        <ele>965.664683</ele>
        <time>2022-02-22T22:53:38.777Z</time>
      </trkpt>
      <trkpt lat="40.68658" lon="-1.35604">
        <ele>965.81388</ele>
        <time>2022-02-22T22:53:54.828Z</time>
      </trkpt>
      <trkpt lat="40.68628" lon="-1.35664">
        <ele>965.927839</ele>
        <time>2022-02-22T22:54:07.282Z</time>
      </trkpt>
      <trkpt lat="40.68617" lon="-1.35674">
        <ele>965.956309</ele>
        <time>2022-02-22T22:54:10.618Z</time>
      </trkpt>
      <trkpt lat="40.68411" lon="-1.35648">
        <ele>966.580157</ele>
        <time>2022-02-22T22:54:59.308Z</time>
      </trkpt>
      <trkpt lat="40.6833" lon="-1.35678">
        <ele>967.00604</ele>
        <time>2022-02-22T22:55:20.144Z</time>
      </trkpt>
      <trkpt lat="40.68303" lon="-1.35689">
        <ele>967.189914</ele>
        <time>2022-02-22T22:55:27.517Z</time>
      </trkpt>
      <trkpt lat="40.68272" lon="-1.3571">
        <ele>967.419582</ele>
        <time>2022-02-22T22:55:36.640Z</time>
      </trkpt>
      <trkpt lat="40.68236" lon="-1.35764">
        <ele>967.775585</ele>
        <time>2022-02-22T22:55:50.635Z</time>
      </trkpt>
      <trkpt lat="40.6823" lon="-1.35779">
        <ele>967.863341</ele>
        <time>2022-02-22T22:55:54.063Z</time>
      </trkpt>
      <trkpt lat="40.68214" lon="-1.35817">
        <ele>968.010311</ele>
        <time>2022-02-22T22:56:02.303Z</time>
      </trkpt>
      <trkpt lat="40.68193" lon="-1.35859">
        <ele>968.172548</ele>
        <time>2022-02-22T22:56:11.810Z</time>
      </trkpt>
      <trkpt lat="40.6818" lon="-1.35874">
        <ele>968.246585</ele>
        <time>2022-02-22T22:56:16.169Z</time>
      </trkpt>
      <trkpt lat="40.68097" lon="-1.35951">
        <ele>968.682466</ele>
        <time>2022-02-22T22:56:40.430Z</time>
      </trkpt>
      <trkpt lat="40.68076" lon="-1.35979">
        <ele>968.825268</ele>
        <time>2022-02-22T22:56:47.137Z</time>
      </trkpt>
      <trkpt lat="40.6806" lon="-1.36018">
        <ele>968.986243</ele>
        <time>2022-02-22T22:56:54.995Z</time>
      </trkpt>
      <trkpt lat="40.68018" lon="-1.36185">
        <ele>969.759952</ele>
        <time>2022-02-22T22:57:28.769Z</time>
      </trkpt>
      <trkpt lat="40.68017" lon="-1.36211">
        <ele>969.963231</ele>
        <time>2022-02-22T22:57:34.043Z</time>
      </trkpt>
      <trkpt lat="40.68046" lon="-1.36432">
        <ele>971.914722</ele>
        <time>2022-02-22T22:58:21.258Z</time>
      </trkpt>
      <trkpt lat="40.68208" lon="-1.36839">
        <ele>977.693111</ele>
        <time>2022-02-22T23:00:09.088Z</time>
      </trkpt>
      <trkpt lat="40.6834" lon="-1.37247">
        <ele>982.531302</ele>
        <time>2022-02-22T23:01:47.773Z</time>
      </trkpt>
      <trkpt lat="40.68352" lon="-1.37295">
        <ele>983.103552</ele>
        <time>2022-02-22T23:01:59.030Z</time>
      </trkpt>
      <trkpt lat="40.68453" lon="-1.37847">
        <ele>989.484887</ele>
        <time>2022-02-22T23:04:06.918Z</time>
      </trkpt>
      <trkpt lat="40.68447" lon="-1.38347">
        <ele>995.256456</ele>
        <time>2022-02-22T23:05:58.944Z</time>
      </trkpt>
      <trkpt lat="40.68459" lon="-1.38744">
        <ele>1001.389496</ele>
        <time>2022-02-22T23:07:37.336Z</time>
      </trkpt>
      <trkpt lat="40.68475" lon="-1.39018">
        <ele>1006.365923</ele>
        <time>2022-02-22T23:08:47.638Z</time>
      </trkpt>
      <trkpt lat="40.68468" lon="-1.3957">
        <ele>1017.874338</ele>
        <time>2022-02-22T23:11:21.008Z</time>
      </trkpt>
      <trkpt lat="40.68395" lon="-1.40181">
        <ele>1027.078815</ele>
        <time>2022-02-22T23:13:49.180Z</time>
      </trkpt>
      <trkpt lat="40.68399" lon="-1.40432">
        <ele>1030.602148</ele>
        <time>2022-02-22T23:14:53.148Z</time>
      </trkpt>
      <trkpt lat="40.68433" lon="-1.40701">
        <ele>1032.666508</ele>
        <time>2022-02-22T23:15:48.238Z</time>
      </trkpt>
      <trkpt lat="40.6842" lon="-1.40821">
        <ele>1032.906482</ele>
        <time>2022-02-22T23:16:08.495Z</time>
      </trkpt>
      <trkpt lat="40.68468" lon="-1.41115">
        <ele>1032.404785</ele>
        <time>2022-02-22T23:16:57.326Z</time>
      </trkpt>
      <trkpt lat="40.68469" lon="-1.41276">
        <ele>1032.350107</ele>
        <time>2022-02-22T23:17:24.077Z</time>
      </trkpt>
      <trkpt lat="40.68489" lon="-1.41358">
        <ele>1032.654939</ele>
        <time>2022-02-22T23:17:38.754Z</time>
      </trkpt>
      <trkpt lat="40.68491" lon="-1.41468">
        <ele>1033.049063</ele>
        <time>2022-02-22T23:18:00.498Z</time>
      </trkpt>
      <trkpt lat="40.68488" lon="-1.41536">
        <ele>1033.897974</ele>
        <time>2022-02-22T23:18:15.760Z</time>
      </trkpt>
      <trkpt lat="40.68438" lon="-1.41729">
        <ele>1036.662255</ele>
        <time>2022-02-22T23:19:05.741Z</time>
      </trkpt>
      <trkpt lat="40.68435" lon="-1.41754">
        <ele>1037.020622</ele>
        <time>2022-02-22T23:19:12.180Z</time>
      </trkpt>
      <trkpt lat="40.68435" lon="-1.41903">
        <ele>1039.10714</ele>
        <time>2022-02-22T23:19:47.694Z</time>
      </trkpt>
      <trkpt lat="40.68412" lon="-1.42367">
        <ele>1044.899603</ele>
        <time>2022-02-22T23:21:34.725Z</time>
      </trkpt>
      <trkpt lat="40.68355" lon="-1.42609">
        <ele>1047.485023</ele>
        <time>2022-02-22T23:22:32.980Z</time>
      </trkpt>
      <trkpt lat="40.68348" lon="-1.42693">
        <ele>1047.670518</ele>
        <time>2022-02-22T23:22:47.161Z</time>
      </trkpt>
      <trkpt lat="40.6831" lon="-1.42811">
        <ele>1047.45163</ele>
        <time>2022-02-22T23:23:07.636Z</time>
      </trkpt>
      <trkpt lat="40.68312" lon="-1.42835">
        <ele>1047.411157</ele>
        <time>2022-02-22T23:23:11.190Z</time>
      </trkpt>
      <trkpt lat="40.68321" lon="-1.42867">
        <ele>1047.366596</ele>
        <time>2022-02-22T23:23:16.558Z</time>
      </trkpt>
      <trkpt lat="40.68307" lon="-1.42909">
        <ele>1047.438261</ele>
        <time>2022-02-22T23:23:23.807Z</time>
      </trkpt>
      <trkpt lat="40.6825" lon="-1.43024">
        <ele>1047.655298</ele>
        <time>2022-02-22T23:23:46.989Z</time>
      </trkpt>
      <trkpt lat="40.68214" lon="-1.4306">
        <ele>1047.858088</ele>
        <time>2022-02-22T23:24:00.096Z</time>
      </trkpt>
      <trkpt lat="40.68164" lon="-1.43087">
        <ele>1048.73602</ele>
        <time>2022-02-22T23:24:16.055Z</time>
      </trkpt>
      <trkpt lat="40.68149" lon="-1.43102">
        <ele>1049.047007</ele>
        <time>2022-02-22T23:24:21.806Z</time>
      </trkpt>
      <trkpt lat="40.68143" lon="-1.43135">
        <ele>1049.467746</ele>
        <time>2022-02-22T23:24:29.802Z</time>
      </trkpt>
      <trkpt lat="40.68145" lon="-1.43203">
        <ele>1050.313205</ele>
        <time>2022-02-22T23:24:46.104Z</time>
      </trkpt>
      <trkpt lat="40.68122" lon="-1.4324">
        <ele>1050.963941</ele>
        <time>2022-02-22T23:24:57.857Z</time>
      </trkpt>
      <trkpt lat="40.6809" lon="-1.43276">
        <ele>1051.814483</ele>
        <time>2022-02-22T23:25:11.494Z</time>
      </trkpt>
      <trkpt lat="40.68082" lon="-1.43308">
        <ele>1052.336947</ele>
        <time>2022-02-22T23:25:19.815Z</time>
      </trkpt>
      <trkpt lat="40.68092" lon="-1.43395">
        <ele>1053.678718</ele>
        <time>2022-02-22T23:25:40.810Z</time>
      </trkpt>
      <trkpt lat="40.6809" lon="-1.43462">
        <ele>1054.936186</ele>
        <time>2022-02-22T23:25:57.490Z</time>
      </trkpt>
      <trkpt lat="40.68045" lon="-1.43552">
        <ele>1057.484611</ele>
        <time>2022-02-22T23:26:26.665Z</time>
      </trkpt>
      <trkpt lat="40.68035" lon="-1.43562">
        <ele>1057.874708</ele>
        <time>2022-02-22T23:26:31.645Z</time>
      </trkpt>
      <trkpt lat="40.68008" lon="-1.4357">
        <ele>1058.732751</ele>
        <time>2022-02-22T23:26:42.214Z</time>
      </trkpt>
      <trkpt lat="40.67888" lon="-1.4356">
        <ele>1063.659948</ele>
        <time>2022-02-22T23:27:35.080Z</time>
      </trkpt>
      <trkpt lat="40.67703" lon="-1.43443">
        <ele>1073.217132</ele>
        <time>2022-02-22T23:29:10.176Z</time>
      </trkpt>
      <trkpt lat="40.67671" lon="-1.43432">
        <ele>1074.798501</ele>
        <time>2022-02-22T23:29:24.790Z</time>
      </trkpt>
      <trkpt lat="40.67643" lon="-1.43439">
        <ele>1076.157758</ele>
        <time>2022-02-22T23:29:37.645Z</time>
      </trkpt>
      <trkpt lat="40.67616" lon="-1.43454">
        <ele>1077.715835</ele>
        <time>2022-02-22T23:29:51.054Z</time>
      </trkpt>
      <trkpt lat="40.67594" lon="-1.43518">
        <ele>1080.789245</ele>
        <time>2022-02-22T23:30:17.439Z</time>
      </trkpt>
      <trkpt lat="40.67585" lon="-1.43581">
        <ele>1083.545973</ele>
        <time>2022-02-22T23:30:41.134Z</time>
      </trkpt>
      <trkpt lat="40.67574" lon="-1.43597">
        <ele>1084.531536</ele>
        <time>2022-02-22T23:30:50.529Z</time>
      </trkpt>
      <trkpt lat="40.67552" lon="-1.43606">
        <ele>1085.844023</ele>
        <time>2022-02-22T23:31:02.720Z</time>
      </trkpt>
      <trkpt lat="40.67502" lon="-1.43604">
        <ele>1088.925487</ele>
        <time>2022-02-22T23:31:31.252Z</time>
      </trkpt>
      <trkpt lat="40.67461" lon="-1.43591">
        <ele>1091.726481</ele>
        <time>2022-02-22T23:31:56.548Z</time>
      </trkpt>
      <trkpt lat="40.67322" lon="-1.43509">
        <ele>1101.189323</ele>
        <time>2022-02-22T23:33:18.572Z</time>
      </trkpt>
      <trkpt lat="40.67287" lon="-1.43502">
        <ele>1103.027328</ele>
        <time>2022-02-22T23:33:35.332Z</time>
      </trkpt>
      <trkpt lat="40.67236" lon="-1.43503">
        <ele>1105.759561</ele>
        <time>2022-02-22T23:33:59.065Z</time>
      </trkpt>
      <trkpt lat="40.6722" lon="-1.43508">
        <ele>1106.614209</ele>
        <time>2022-02-22T23:34:06.355Z</time>
      </trkpt>
      <trkpt lat="40.67198" lon="-1.43526">
        <ele>1108.027601</ele>
        <time>2022-02-22T23:34:18.079Z</time>
      </trkpt>
      <trkpt lat="40.67182" lon="-1.43583">
        <ele>1111.241464</ele>
        <time>2022-02-22T23:34:40.269Z</time>
      </trkpt>
      <trkpt lat="40.67186" lon="-1.43621">
        <ele>1113.38182</ele>
        <time>2022-02-22T23:34:55.530Z</time>
      </trkpt>
      <trkpt lat="40.67228" lon="-1.43695">
        <ele>1118.436902</ele>
        <time>2022-02-22T23:35:37.649Z</time>
      </trkpt>
      <trkpt lat="40.67232" lon="-1.43711">
        <ele>1119.335339</ele>
        <time>2022-02-22T23:35:46.140Z</time>
      </trkpt>
      <trkpt lat="40.67226" lon="-1.4374">
        <ele>1121.03358</ele>
        <time>2022-02-22T23:36:02.619Z</time>
      </trkpt>
      <trkpt lat="40.67207" lon="-1.43761">
        <ele>1123.257535</ele>
        <time>2022-02-22T23:36:20.120Z</time>
      </trkpt>
      <trkpt lat="40.67001" lon="-1.43879">
        <ele>1143.568064</ele>
        <time>2022-02-22T23:39:01.389Z</time>
      </trkpt>
      <trkpt lat="40.6687" lon="-1.43912">
        <ele>1152.680102</ele>
        <time>2022-02-22T23:40:11.284Z</time>
      </trkpt>
      <trkpt lat="40.66735" lon="-1.43916">
        <ele>1157.930026</ele>
        <time>2022-02-22T23:41:07.168Z</time>
      </trkpt>
      <trkpt lat="40.66722" lon="-1.43921">
        <ele>1158.461545</ele>
        <time>2022-02-22T23:41:12.550Z</time>
      </trkpt>
      <trkpt lat="40.66594" lon="-1.44048">
        <ele>1161.378101</ele>
        <time>2022-02-22T23:42:04.094Z</time>
      </trkpt>
      <trkpt lat="40.66525" lon="-1.44071">
        <ele>1162.074749</ele>
        <time>2022-02-22T23:42:19.337Z</time>
      </trkpt>
      <trkpt lat="40.6644" lon="-1.44121">
        <ele>1162.464982</ele>
        <time>2022-02-22T23:42:39.842Z</time>
      </trkpt>
      <trkpt lat="40.6638" lon="-1.44143">
        <ele>1163.04412</ele>
        <time>2022-02-22T23:42:56.999Z</time>
      </trkpt>
      <trkpt lat="40.6637" lon="-1.44165">
        <ele>1163.559595</ele>
        <time>2022-02-22T23:43:02.692Z</time>
      </trkpt>
      <trkpt lat="40.66329" lon="-1.44457">
        <ele>1169.944</ele>
        <time>2022-02-22T23:44:29.194Z</time>
      </trkpt>
      <trkpt lat="40.66323" lon="-1.44475">
        <ele>1170.408555</ele>
        <time>2022-02-22T23:44:34.625Z</time>
      </trkpt>
      <trkpt lat="40.66253" lon="-1.44585">
        <ele>1173.67565</ele>
        <time>2022-02-22T23:45:14.551Z</time>
      </trkpt>
      <trkpt lat="40.66239" lon="-1.44639">
        <ele>1174.92741</ele>
        <time>2022-02-22T23:45:30.186Z</time>
      </trkpt>
      <trkpt lat="40.66223" lon="-1.44666">
        <ele>1175.696126</ele>
        <time>2022-02-22T23:45:40.083Z</time>
      </trkpt>
      <trkpt lat="40.66165" lon="-1.4474">
        <ele>1178.050712</ele>
        <time>2022-02-22T23:46:12.128Z</time>
      </trkpt>
      <trkpt lat="40.66077" lon="-1.44817">
        <ele>1178.371001</ele>
        <time>2022-02-22T23:46:44.360Z</time>
      </trkpt>
      <trkpt lat="40.66056" lon="-1.44857">
        <ele>1178.409253</ele>
        <time>2022-02-22T23:46:51.739Z</time>
      </trkpt>
      <trkpt lat="40.66051" lon="-1.4488">
        <ele>1178.428065</ele>
        <time>2022-02-22T23:46:55.080Z</time>
      </trkpt>
      <trkpt lat="40.66049" lon="-1.44978">
        <ele>1176.381049</ele>
        <time>2022-02-22T23:47:07.775Z</time>
      </trkpt>
      <trkpt lat="40.66027" lon="-1.45068">
        <ele>1173.205859</ele>
        <time>2022-02-22T23:47:19.427Z</time>
      </trkpt>
      <trkpt lat="40.65988" lon="-1.45147">
        <ele>1170.054985</ele>
        <time>2022-02-22T23:47:30.467Z</time>
      </trkpt>
      <trkpt lat="40.65977" lon="-1.45221">
        <ele>1167.357806</ele>
        <time>2022-02-22T23:47:39.499Z</time>
      </trkpt>
      <trkpt lat="40.65985" lon="-1.45272">
        <ele>1165.497026</ele>
        <time>2022-02-22T23:47:45.885Z</time>
      </trkpt>
      <trkpt lat="40.6604" lon="-1.45374">
        <ele>1161.472248</ele>
        <time>2022-02-22T23:48:01.476Z</time>
      </trkpt>
      <trkpt lat="40.66052" lon="-1.45417">
        <ele>1160.514321</ele>
        <time>2022-02-22T23:48:07.233Z</time>
      </trkpt>
      <trkpt lat="40.66051" lon="-1.45439">
        <ele>1160.046074</ele>
        <time>2022-02-22T23:48:10.055Z</time>
      </trkpt>
      <trkpt lat="40.65993" lon="-1.45488">
        <ele>1158.164093</ele>
        <time>2022-02-22T23:48:22.046Z</time>
      </trkpt>
      <trkpt lat="40.65942" lon="-1.45565">
        <ele>1158.075669</ele>
        <time>2022-02-22T23:48:37.887Z</time>
      </trkpt>
      <trkpt lat="40.65918" lon="-1.45628">
        <ele>1159.244606</ele>
        <time>2022-02-22T23:48:53.621Z</time>
      </trkpt>
      <trkpt lat="40.65853" lon="-1.45686">
        <ele>1160.947712</ele>
        <time>2022-02-22T23:49:26.090Z</time>
      </trkpt>
      <trkpt lat="40.6581" lon="-1.45752">
        <ele>1164.037716</ele>
        <time>2022-02-22T23:49:58.886Z</time>
      </trkpt>
      <trkpt lat="40.65781" lon="-1.45775">
        <ele>1165.704648</ele>
        <time>2022-02-22T23:50:16.965Z</time>
      </trkpt>
      <trkpt lat="40.65758" lon="-1.45784">
        <ele>1166.90377</ele>
        <time>2022-02-22T23:50:29.554Z</time>
      </trkpt>
      <trkpt lat="40.65661" lon="-1.45797">
        <ele>1170.542442</ele>
        <time>2022-02-22T23:51:12.096Z</time>
      </trkpt>
      <trkpt lat="40.65643" lon="-1.45806">
        <ele>1170.841222</ele>
        <time>2022-02-22T23:51:18.776Z</time>
      </trkpt>
      <trkpt lat="40.65614" lon="-1.45836">
        <ele>1171.438275</ele>
        <time>2022-02-22T23:51:29.739Z</time>
      </trkpt>
      <trkpt lat="40.65578" lon="-1.45885">
        <ele>1172.27501</ele>
        <time>2022-02-22T23:51:42.260Z</time>
      </trkpt>
      <trkpt lat="40.65557" lon="-1.45949">
        <ele>1173.036</ele>
        <time>2022-02-22T23:51:53.772Z</time>
      </trkpt>
      <trkpt lat="40.65522" lon="-1.45978">
        <ele>1173.497438</ele>
        <time>2022-02-22T23:52:02.726Z</time>
      </trkpt>
      <trkpt lat="40.65502" lon="-1.46008">
        <ele>1173.842211</ele>
        <time>2022-02-22T23:52:10.043Z</time>
      </trkpt>
      <trkpt lat="40.65462" lon="-1.46095">
        <ele>1174.705979</ele>
        <time>2022-02-22T23:52:33.725Z</time>
      </trkpt>
      <trkpt lat="40.65397" lon="-1.46192">
        <ele>1176.955934</ele>
        <time>2022-02-22T23:53:10.639Z</time>
      </trkpt>
      <trkpt lat="40.65367" lon="-1.46252">
        <ele>1178.321495</ele>
        <time>2022-02-22T23:53:30.523Z</time>
      </trkpt>
      <trkpt lat="40.65347" lon="-1.46364">
        <ele>1179.5704</ele>
        <time>2022-02-22T23:53:57.726Z</time>
      </trkpt>
      <trkpt lat="40.6535" lon="-1.46437">
        <ele>1179.799194</ele>
        <time>2022-02-22T23:54:11.367Z</time>
      </trkpt>
      <trkpt lat="40.65341" lon="-1.46515">
        <ele>1180.046839</ele>
        <time>2022-02-22T23:54:23.651Z</time>
      </trkpt>
      <trkpt lat="40.65324" lon="-1.46576">
        <ele>1180.275644</ele>
        <time>2022-02-22T23:54:33.894Z</time>
      </trkpt>
      <trkpt lat="40.6529" lon="-1.46626">
        <ele>1180.527901</ele>
        <time>2022-02-22T23:54:44.748Z</time>
      </trkpt>
      <trkpt lat="40.65186" lon="-1.46707">
        <ele>1181.667769</ele>
        <time>2022-02-22T23:55:17.394Z</time>
      </trkpt>
      <trkpt lat="40.65095" lon="-1.4683">
        <ele>1185.669366</ele>
        <time>2022-02-22T23:56:07.949Z</time>
      </trkpt>
      <trkpt lat="40.64908" lon="-1.46917">
        <ele>1193.630669</ele>
        <time>2022-02-22T23:57:34.936Z</time>
      </trkpt>
      <trkpt lat="40.64888" lon="-1.46924">
        <ele>1194.46903</ele>
        <time>2022-02-22T23:57:43.545Z</time>
      </trkpt>
      <trkpt lat="40.64842" lon="-1.46919">
        <ele>1196.194446</ele>
        <time>2022-02-22T23:58:02.229Z</time>
      </trkpt>
      <trkpt lat="40.64791" lon="-1.46933">
        <ele>1198.140796</ele>
        <time>2022-02-22T23:58:22.646Z</time>
      </trkpt>
      <trkpt lat="40.6464" lon="-1.47031">
        <ele>1204.872189</ele>
        <time>2022-02-22T23:59:33.065Z</time>
      </trkpt>
      <trkpt lat="40.64537" lon="-1.47124">
        <ele>1209.910143</ele>
        <time>2022-02-23T00:00:29.110Z</time>
      </trkpt>
      <trkpt lat="40.64495" lon="-1.47157">
        <ele>1211.735048</ele>
        <time>2022-02-23T00:00:50.242Z</time>
      </trkpt>
      <trkpt lat="40.6448" lon="-1.47161">
        <ele>1212.295934</ele>
        <time>2022-02-23T00:00:56.319Z</time>
      </trkpt>
      <trkpt lat="40.6445" lon="-1.47156">
        <ele>1213.410178</ele>
        <time>2022-02-23T00:01:08.577Z</time>
      </trkpt>
      <trkpt lat="40.64294" lon="-1.47044">
        <ele>1218.47131</ele>
        <time>2022-02-23T00:02:12.591Z</time>
      </trkpt>
      <trkpt lat="40.64263" lon="-1.4702">
        <ele>1219.388211</ele>
        <time>2022-02-23T00:02:24.965Z</time>
      </trkpt>
      <trkpt lat="40.6424" lon="-1.47002">
        <ele>1220.206421</ele>
        <time>2022-02-23T00:02:34.240Z</time>
      </trkpt>
      <trkpt lat="40.64229" lon="-1.46986">
        <ele>1220.760997</ele>
        <time>2022-02-23T00:02:39.994Z</time>
      </trkpt>
      <trkpt lat="40.64198" lon="-1.46968">
        <ele>1221.889164</ele>
        <time>2022-02-23T00:02:52.476Z</time>
      </trkpt>
      <trkpt lat="40.64171" lon="-1.47006">
        <ele>1223.220586</ele>
        <time>2022-02-23T00:03:08.265Z</time>
      </trkpt>
      <trkpt lat="40.64149" lon="-1.47019">
        <ele>1224.035048</ele>
        <time>2022-02-23T00:03:17.896Z</time>
      </trkpt>
      <trkpt lat="40.64135" lon="-1.47034">
        <ele>1224.640807</ele>
        <time>2022-02-23T00:03:25.320Z</time>
      </trkpt>
      <trkpt lat="40.64098" lon="-1.47103">
        <ele>1227.586808</ele>
        <time>2022-02-23T00:03:53.609Z</time>
      </trkpt>
      <trkpt lat="40.64089" lon="-1.4712">
        <ele>1228.53541</ele>
        <time>2022-02-23T00:04:01.549Z</time>
      </trkpt>
      <trkpt lat="40.64067" lon="-1.47113">
        <ele>1229.849985</ele>
        <time>2022-02-23T00:04:12.316Z</time>
      </trkpt>
      <trkpt lat="40.64046" lon="-1.47092">
        <ele>1231.400019</ele>
        <time>2022-02-23T00:04:25.758Z</time>
      </trkpt>
      <trkpt lat="40.64043" lon="-1.47088">
        <ele>1231.616933</ele>
        <time>2022-02-23T00:04:27.566Z</time>
      </trkpt>
      <trkpt lat="40.64029" lon="-1.47073">
        <ele>1232.653171</ele>
        <time>2022-02-23T00:04:36.916Z</time>
      </trkpt>
      <trkpt lat="40.64006" lon="-1.47073">
        <ele>1233.989142</ele>
        <time>2022-02-23T00:04:49.403Z</time>
      </trkpt>
      <trkpt lat="40.63985" lon="-1.47066">
        <ele>1235.250637</ele>
        <time>2022-02-23T00:05:01.838Z</time>
      </trkpt>
      <trkpt lat="40.6392" lon="-1.47071">
        <ele>1240.831597</ele>
        <time>2022-02-23T00:05:45.944Z</time>
      </trkpt>
      <trkpt lat="40.6388" lon="-1.4709">
        <ele>1244.789376</ele>
        <time>2022-02-23T00:06:15.932Z</time>
      </trkpt>
      <trkpt lat="40.63863" lon="-1.47081">
        <ele>1246.45049</ele>
        <time>2022-02-23T00:06:28.255Z</time>
      </trkpt>
      <trkpt lat="40.63841" lon="-1.47081">
        <ele>1248.520176</ele>
        <time>2022-02-23T00:06:44.251Z</time>
      </trkpt>
      <trkpt lat="40.63806" lon="-1.47085">
        <ele>1251.696395</ele>
        <time>2022-02-23T00:07:09.008Z</time>
      </trkpt>
      <trkpt lat="40.63735" lon="-1.47128">
        <ele>1259.695401</ele>
        <time>2022-02-23T00:08:08.953Z</time>
      </trkpt>
      <trkpt lat="40.63718" lon="-1.47147">
        <ele>1262.066263</ele>
        <time>2022-02-23T00:08:26.774Z</time>
      </trkpt>
      <trkpt lat="40.63684" lon="-1.47206">
        <ele>1267.925936</ele>
        <time>2022-02-23T00:09:10.578Z</time>
      </trkpt>
      <trkpt lat="40.63601" lon="-1.47275">
        <ele>1277.408816</ele>
        <time>2022-02-23T00:10:20.040Z</time>
      </trkpt>
      <trkpt lat="40.63574" lon="-1.47328">
        <ele>1281.893531</ele>
        <time>2022-02-23T00:10:54.497Z</time>
      </trkpt>
      <trkpt lat="40.63537" lon="-1.4737">
        <ele>1286.423725</ele>
        <time>2022-02-23T00:11:28.129Z</time>
      </trkpt>
      <trkpt lat="40.63519" lon="-1.4741">
        <ele>1289.236933</ele>
        <time>2022-02-23T00:11:51.709Z</time>
      </trkpt>
      <trkpt lat="40.63456" lon="-1.47478">
        <ele>1294.535671</ele>
        <time>2022-02-23T00:12:40.713Z</time>
      </trkpt>
      <trkpt lat="40.63428" lon="-1.47526">
        <ele>1297.580647</ele>
        <time>2022-02-23T00:13:04.916Z</time>
      </trkpt>
      <trkpt lat="40.6338" lon="-1.4763">
        <ele>1301.381837</ele>
        <time>2022-02-23T00:13:45.301Z</time>
      </trkpt>
      <trkpt lat="40.63361" lon="-1.47659">
        <ele>1302.170222</ele>
        <time>2022-02-23T00:13:56.415Z</time>
      </trkpt>
      <trkpt lat="40.63353" lon="-1.47692">
        <ele>1302.867502</ele>
        <time>2022-02-23T00:14:05.176Z</time>
      </trkpt>
      <trkpt lat="40.63351" lon="-1.47743">
        <ele>1303.888679</ele>
        <time>2022-02-23T00:14:16.699Z</time>
      </trkpt>
      <trkpt lat="40.6332" lon="-1.47881">
        <ele>1306.65445</ele>
        <time>2022-02-23T00:14:49.083Z</time>
      </trkpt>
      <trkpt lat="40.63323" lon="-1.47965">
        <ele>1308.240513</ele>
        <time>2022-02-23T00:15:12.371Z</time>
      </trkpt>
      <trkpt lat="40.63334" lon="-1.48039">
        <ele>1310.298647</ele>
        <time>2022-02-23T00:15:37.096Z</time>
      </trkpt>
      <trkpt lat="40.633" lon="-1.48217">
        <ele>1317.782832</ele>
        <time>2022-02-23T00:16:47.529Z</time>
      </trkpt>
      <trkpt lat="40.63295" lon="-1.48286">
        <ele>1320.738578</ele>
        <time>2022-02-23T00:17:18.404Z</time>
      </trkpt>
      <trkpt lat="40.633" lon="-1.48346">
        <ele>1323.324733</ele>
        <time>2022-02-23T00:17:43.456Z</time>
      </trkpt>
      <trkpt lat="40.6332" lon="-1.48429">
        <ele>1327.052197</ele>
        <time>2022-02-23T00:18:16.264Z</time>
      </trkpt>
      <trkpt lat="40.63328" lon="-1.4844">
        <ele>1327.728875</ele>
        <time>2022-02-23T00:18:21.939Z</time>
      </trkpt>
      <trkpt lat="40.63344" lon="-1.48446">
        <ele>1328.653999</ele>
        <time>2022-02-23T00:18:29.641Z</time>
      </trkpt>
      <trkpt lat="40.63354" lon="-1.48421">
        <ele>1329.736137</ele>
        <time>2022-02-23T00:18:39.996Z</time>
      </trkpt>
      <trkpt lat="40.63347" lon="-1.48326">
        <ele>1333.196592</ele>
        <time>2022-02-23T00:19:12.403Z</time>
      </trkpt>
      <trkpt lat="40.63352" lon="-1.48297">
        <ele>1334.247316</ele>
        <time>2022-02-23T00:19:21.857Z</time>
      </trkpt>
      <trkpt lat="40.63371" lon="-1.48256">
        <ele>1335.989678</ele>
        <time>2022-02-23T00:19:37.280Z</time>
      </trkpt>
      <trkpt lat="40.63391" lon="-1.48232">
        <ele>1337.309991</ele>
        <time>2022-02-23T00:19:50.673Z</time>
      </trkpt>
      <trkpt lat="40.63431" lon="-1.48202">
        <ele>1341.322757</ele>
        <time>2022-02-23T00:20:16.120Z</time>
      </trkpt>
      <trkpt lat="40.63514" lon="-1.48156">
        <ele>1349.728922</ele>
        <time>2022-02-23T00:21:18.101Z</time>
      </trkpt>
      <trkpt lat="40.63598" lon="-1.48089">
        <ele>1360.712219</ele>
        <time>2022-02-23T00:22:44.064Z</time>
      </trkpt>
      <trkpt lat="40.63641" lon="-1.48068">
        <ele>1366.64022</ele>
        <time>2022-02-23T00:23:27.779Z</time>
      </trkpt>
      <trkpt lat="40.63653" lon="-1.48068">
        <ele>1368.189162</ele>
        <time>2022-02-23T00:23:38.437Z</time>
      </trkpt>
      <trkpt lat="40.63688" lon="-1.48089">
        <ele>1373.067672</ele>
        <time>2022-02-23T00:24:12.960Z</time>
      </trkpt>
      <trkpt lat="40.6369" lon="-1.48091">
        <ele>1373.412662</ele>
        <time>2022-02-23T00:24:15.405Z</time>
      </trkpt>
      <trkpt lat="40.63702" lon="-1.48108">
        <ele>1375.6692</ele>
        <time>2022-02-23T00:24:31.171Z</time>
      </trkpt>
      <trkpt lat="40.63709" lon="-1.48147">
        <ele>1379.0268</ele>
        <time>2022-02-23T00:24:56.667Z</time>
      </trkpt>
      <trkpt lat="40.63713" lon="-1.48164">
        <ele>1380.269765</ele>
        <time>2022-02-23T00:25:07.417Z</time>
      </trkpt>
      <trkpt lat="40.63788" lon="-1.48374">
        <ele>1394.641182</ele>
        <time>2022-02-23T00:27:04.703Z</time>
      </trkpt>
      <trkpt lat="40.63793" lon="-1.48451">
        <ele>1396.032503</ele>
        <time>2022-02-23T00:27:27.121Z</time>
      </trkpt>
      <trkpt lat="40.63806" lon="-1.48593">
        <ele>1397.968005</ele>
        <time>2022-02-23T00:27:52.982Z</time>
      </trkpt>
      <trkpt lat="40.63754" lon="-1.49021">
        <ele>1389.316724</ele>
        <time>2022-02-23T00:28:52.604Z</time>
      </trkpt>
      <trkpt lat="40.63747" lon="-1.49054">
        <ele>1388.680794</ele>
        <time>2022-02-23T00:28:57.586Z</time>
      </trkpt>
      <trkpt lat="40.63736" lon="-1.49082">
        <ele>1388.306695</ele>
        <time>2022-02-23T00:29:02.101Z</time>
      </trkpt>
      <trkpt lat="40.63718" lon="-1.49108">
        <ele>1387.899196</ele>
        <time>2022-02-23T00:29:07.120Z</time>
      </trkpt>
      <trkpt lat="40.63662" lon="-1.49169">
        <ele>1386.757624</ele>
        <time>2022-02-23T00:29:21.635Z</time>
      </trkpt>
      <trkpt lat="40.63644" lon="-1.49205">
        <ele>1386.247872</ele>
        <time>2022-02-23T00:29:28.402Z</time>
      </trkpt>
      <trkpt lat="40.63627" lon="-1.49298">
        <ele>1386.079419</ele>
        <time>2022-02-23T00:29:44.329Z</time>
      </trkpt>
      <trkpt lat="40.63606" lon="-1.49545">
        <ele>1386.459018</ele>
        <time>2022-02-23T00:30:32.875Z</time>
      </trkpt>
      <trkpt lat="40.63598" lon="-1.49636">
        <ele>1386.678062</ele>
        <time>2022-02-23T00:30:50.336Z</time>
      </trkpt>
      <trkpt lat="40.63579" lon="-1.4971">
        <ele>1386.706969</ele>
        <time>2022-02-23T00:31:04.397Z</time>
      </trkpt>
      <trkpt lat="40.6357" lon="-1.49772">
        <ele>1386.34198</ele>
        <time>2022-02-23T00:31:15.123Z</time>
      </trkpt>
      <trkpt lat="40.6357" lon="-1.49781">
        <ele>1386.291634</ele>
        <time>2022-02-23T00:31:16.492Z</time>
      </trkpt>
      <trkpt lat="40.63599" lon="-1.50093">
        <ele>1384.450272</ele>
        <time>2022-02-23T00:32:05.547Z</time>
      </trkpt>
      <trkpt lat="40.63702" lon="-1.50594">
        <ele>1383.802544</ele>
        <time>2022-02-23T00:33:36.530Z</time>
      </trkpt>
      <trkpt lat="40.63723" lon="-1.50661">
        <ele>1383.41913</ele>
        <time>2022-02-23T00:33:48.653Z</time>
      </trkpt>
      <trkpt lat="40.63811" lon="-1.50856">
        <ele>1381.48158</ele>
        <time>2022-02-23T00:34:24.019Z</time>
      </trkpt>
      <trkpt lat="40.63839" lon="-1.50902">
        <ele>1380.629844</ele>
        <time>2022-02-23T00:34:32.737Z</time>
      </trkpt>
      <trkpt lat="40.63926" lon="-1.5104">
        <ele>1378.04476</ele>
        <time>2022-02-23T00:34:58.634Z</time>
      </trkpt>
      <trkpt lat="40.63944" lon="-1.51081">
        <ele>1377.33949</ele>
        <time>2022-02-23T00:35:05.362Z</time>
      </trkpt>
      <trkpt lat="40.63993" lon="-1.51263">
        <ele>1374.404523</ele>
        <time>2022-02-23T00:35:33.921Z</time>
      </trkpt>
      <trkpt lat="40.63998" lon="-1.51392">
        <ele>1372.39207</ele>
        <time>2022-02-23T00:35:52.703Z</time>
      </trkpt>
      <trkpt lat="40.64005" lon="-1.51437">
        <ele>1371.670667</ele>
        <time>2022-02-23T00:35:59.340Z</time>
      </trkpt>
      <trkpt lat="40.63971" lon="-1.51376">
        <ele>1370.344933</ele>
        <time>2022-02-23T00:36:10.148Z</time>
      </trkpt>
      <trkpt lat="40.6392" lon="-1.51444">
        <ele>1368.643408</ele>
        <time>2022-02-23T00:36:23.418Z</time>
      </trkpt>
      <trkpt lat="40.63882" lon="-1.51415">
        <ele>1367.597653</ele>
        <time>2022-02-23T00:36:31.342Z</time>
      </trkpt>
      <trkpt lat="40.63859" lon="-1.51416">
        <ele>1367.090404</ele>
        <time>2022-02-23T00:36:35.416Z</time>
      </trkpt>
      <trkpt lat="40.63756" lon="-1.51458">
        <ele>1365.422854</ele>
        <time>2022-02-23T00:36:55.217Z</time>
      </trkpt>
      <trkpt lat="40.63691" lon="-1.51451">
        <ele>1364.400473</ele>
        <time>2022-02-23T00:37:08.282Z</time>
      </trkpt>
      <trkpt lat="40.63659" lon="-1.51441">
        <ele>1364.287817</ele>
        <time>2022-02-23T00:37:15.005Z</time>
      </trkpt>
      <trkpt lat="40.63393" lon="-1.51294">
        <ele>1363.888162</ele>
        <time>2022-02-23T00:38:19.297Z</time>
      </trkpt>
      <trkpt lat="40.63391" lon="-1.51292">
        <ele>1363.885927</ele>
        <time>2022-02-23T00:38:19.897Z</time>
      </trkpt>
      <trkpt lat="40.63217" lon="-1.51185">
        <ele>1363.281812</ele>
        <time>2022-02-23T00:39:00.829Z</time>
      </trkpt>
      <trkpt lat="40.63091" lon="-1.51076">
        <ele>1362.458699</ele>
        <time>2022-02-23T00:39:31.630Z</time>
      </trkpt>
      <trkpt lat="40.63052" lon="-1.51051">
        <ele>1362.200469</ele>
        <time>2022-02-23T00:39:40.721Z</time>
      </trkpt>
      <trkpt lat="40.63015" lon="-1.51033">
        <ele>1362.098047</ele>
        <time>2022-02-23T00:39:49.050Z</time>
      </trkpt>
      <trkpt lat="40.6276" lon="-1.50963">
        <ele>1362.272834</ele>
        <time>2022-02-23T00:40:47.191Z</time>
      </trkpt>
      <trkpt lat="40.62639" lon="-1.5093">
        <ele>1362.875416</ele>
        <time>2022-02-23T00:41:18.687Z</time>
      </trkpt>
      <trkpt lat="40.62579" lon="-1.50919">
        <ele>1363.343729</ele>
        <time>2022-02-23T00:41:34.694Z</time>
      </trkpt>
      <trkpt lat="40.62234" lon="-1.50888">
        <ele>1366.388918</ele>
        <time>2022-02-23T00:43:05.922Z</time>
      </trkpt>
      <trkpt lat="40.61976" lon="-1.50783">
        <ele>1369.511842</ele>
        <time>2022-02-23T00:44:23.318Z</time>
      </trkpt>
      <trkpt lat="40.61905" lon="-1.50748">
        <ele>1370.218913</ele>
        <time>2022-02-23T00:44:43.683Z</time>
      </trkpt>
      <trkpt lat="40.61805" lon="-1.50651">
        <ele>1371.367387</ele>
        <time>2022-02-23T00:45:16.236Z</time>
      </trkpt>
      <trkpt lat="40.61735" lon="-1.50566">
        <ele>1372.229421</ele>
        <time>2022-02-23T00:45:42.556Z</time>
      </trkpt>
      <trkpt lat="40.61605" lon="-1.50388">
        <ele>1373.444846</ele>
        <time>2022-02-23T00:46:30.711Z</time>
      </trkpt>
      <trkpt lat="40.61572" lon="-1.50352">
        <ele>1373.670843</ele>
        <time>2022-02-23T00:46:40.520Z</time>
      </trkpt>
      <trkpt lat="40.61406" lon="-1.50256">
        <ele>1374.563704</ele>
        <time>2022-02-23T00:47:23.495Z</time>
      </trkpt>
      <trkpt lat="40.60886" lon="-1.49976">
        <ele>1384.614185</ele>
        <time>2022-02-23T00:50:17.529Z</time>
      </trkpt>
      <trkpt lat="40.60854" lon="-1.4995">
        <ele>1385.970476</ele>
        <time>2022-02-23T00:50:31.913Z</time>
      </trkpt>
      <trkpt lat="40.60588" lon="-1.49585">
        <ele>1400.168647</ele>
        <time>2022-02-23T00:53:17.816Z</time>
      </trkpt>
      <trkpt lat="40.60518" lon="-1.49419">
        <ele>1402.91149</ele>
        <time>2022-02-23T00:54:02.419Z</time>
      </trkpt>
      <trkpt lat="40.60495" lon="-1.49399">
        <ele>1402.882099</ele>
        <time>2022-02-23T00:54:08.820Z</time>
      </trkpt>
      <trkpt lat="40.60448" lon="-1.49373">
        <ele>1402.827104</ele>
        <time>2022-02-23T00:54:19.694Z</time>
      </trkpt>
      <trkpt lat="40.6036" lon="-1.49331">
        <ele>1401.807583</ele>
        <time>2022-02-23T00:54:37.843Z</time>
      </trkpt>
      <trkpt lat="40.60052" lon="-1.49245">
        <ele>1392.632462</ele>
        <time>2022-02-23T00:55:31.617Z</time>
      </trkpt>
      <trkpt lat="40.60014" lon="-1.49241">
        <ele>1391.928738</ele>
        <time>2022-02-23T00:55:38.348Z</time>
      </trkpt>
      <trkpt lat="40.59984" lon="-1.49247">
        <ele>1391.49072</ele>
        <time>2022-02-23T00:55:43.884Z</time>
      </trkpt>
      <trkpt lat="40.59887" lon="-1.49302">
        <ele>1389.960387</ele>
        <time>2022-02-23T00:56:04.567Z</time>
      </trkpt>
      <trkpt lat="40.5975" lon="-1.49307">
        <ele>1390.019865</ele>
        <time>2022-02-23T00:56:36.029Z</time>
      </trkpt>
      <trkpt lat="40.59716" lon="-1.493">
        <ele>1390.102077</ele>
        <time>2022-02-23T00:56:44.883Z</time>
      </trkpt>
      <trkpt lat="40.59672" lon="-1.49281">
        <ele>1390.298613</ele>
        <time>2022-02-23T00:56:56.653Z</time>
      </trkpt>
      <trkpt lat="40.59597" lon="-1.49234">
        <ele>1390.82088</ele>
        <time>2022-02-23T00:57:18.046Z</time>
      </trkpt>
      <trkpt lat="40.59089" lon="-1.49143">
        <ele>1393.980445</ele>
        <time>2022-02-23T00:59:25.617Z</time>
      </trkpt>
      <trkpt lat="40.59048" lon="-1.4913">
        <ele>1394.415685</ele>
        <time>2022-02-23T00:59:37.292Z</time>
      </trkpt>
      <trkpt lat="40.59001" lon="-1.49107">
        <ele>1394.920655</ele>
        <time>2022-02-23T00:59:51.670Z</time>
      </trkpt>
      <trkpt lat="40.589" lon="-1.49028">
        <ele>1397.329401</ele>
        <time>2022-02-23T01:00:29.924Z</time>
      </trkpt>
      <trkpt lat="40.58853" lon="-1.48997">
        <ele>1398.449554</ele>
        <time>2022-02-23T01:00:48.272Z</time>
      </trkpt>
      <trkpt lat="40.58769" lon="-1.48966">
        <ele>1400.232535</ele>
        <time>2022-02-23T01:01:18.088Z</time>
      </trkpt>
      <trkpt lat="40.58713" lon="-1.48951">
        <ele>1401.410357</ele>
        <time>2022-02-23T01:01:37.505Z</time>
      </trkpt>
      <trkpt lat="40.58192" lon="-1.48875">
        <ele>1408.833894</ele>
        <time>2022-02-23T01:04:09.664Z</time>
      </trkpt>
      <trkpt lat="40.58123" lon="-1.48863">
        <ele>1409.68597</ele>
        <time>2022-02-23T01:04:28.565Z</time>
      </trkpt>
      <trkpt lat="40.58086" lon="-1.4885">
        <ele>1410.157255</ele>
        <time>2022-02-23T01:04:39.047Z</time>
      </trkpt>
      <trkpt lat="40.58061" lon="-1.48836">
        <ele>1410.487276</ele>
        <time>2022-02-23T01:04:46.310Z</time>
      </trkpt>
      <trkpt lat="40.58024" lon="-1.488">
        <ele>1411.059117</ele>
        <time>2022-02-23T01:04:59.154Z</time>
      </trkpt>
      <trkpt lat="40.57837" lon="-1.48649">
        <ele>1414.449069</ele>
        <time>2022-02-23T01:06:05.437Z</time>
      </trkpt>
      <trkpt lat="40.57599" lon="-1.48433">
        <ele>1419.313918</ele>
        <time>2022-02-23T01:07:39.011Z</time>
      </trkpt>
      <trkpt lat="40.57511" lon="-1.48336">
        <ele>1420.127525</ele>
        <time>2022-02-23T01:08:06.327Z</time>
      </trkpt>
      <trkpt lat="40.57227" lon="-1.48115">
        <ele>1417.140085</ele>
        <time>2022-02-23T01:09:11.392Z</time>
      </trkpt>
      <trkpt lat="40.57046" lon="-1.47926">
        <ele>1415.723767</ele>
        <time>2022-02-23T01:09:59.296Z</time>
      </trkpt>
      <trkpt lat="40.56998" lon="-1.47882">
        <ele>1415.419991</ele>
        <time>2022-02-23T01:10:11.794Z</time>
      </trkpt>
      <trkpt lat="40.56815" lon="-1.47758">
        <ele>1414.374593</ele>
        <time>2022-02-23T01:10:54.777Z</time>
      </trkpt>
      <trkpt lat="40.567" lon="-1.47641">
        <ele>1413.410848</ele>
        <time>2022-02-23T01:11:25.103Z</time>
      </trkpt>
      <trkpt lat="40.56326" lon="-1.4715">
        <ele>1409.548502</ele>
        <time>2022-02-23T01:13:11.807Z</time>
      </trkpt>
      <trkpt lat="40.56315" lon="-1.47141">
        <ele>1409.499302</ele>
        <time>2022-02-23T01:13:14.929Z</time>
      </trkpt>
      <trkpt lat="40.56295" lon="-1.47128">
        <ele>1409.414205</ele>
        <time>2022-02-23T01:13:19.839Z</time>
      </trkpt>
      <trkpt lat="40.56299" lon="-1.47087">
        <ele>1409.295903</ele>
        <time>2022-02-23T01:13:26.701Z</time>
      </trkpt>
      <trkpt lat="40.56273" lon="-1.47053">
        <ele>1409.154857</ele>
        <time>2022-02-23T01:13:34.976Z</time>
      </trkpt>
      <trkpt lat="40.56223" lon="-1.47031">
        <ele>1408.837129</ele>
        <time>2022-02-23T01:13:46.821Z</time>
      </trkpt>
      <trkpt lat="40.56203" lon="-1.47026">
        <ele>1408.709468</ele>
        <time>2022-02-23T01:13:51.301Z</time>
      </trkpt>
      <trkpt lat="40.56155" lon="-1.47038">
        <ele>1408.412994</ele>
        <time>2022-02-23T01:14:02.069Z</time>
      </trkpt>
      <trkpt lat="40.56122" lon="-1.47037">
        <ele>1408.206791</ele>
        <time>2022-02-23T01:14:09.198Z</time>
      </trkpt>
      <trkpt lat="40.56112" lon="-1.47038">
        <ele>1408.147745</ele>
        <time>2022-02-23T01:14:11.249Z</time>
      </trkpt>
      <trkpt lat="40.561" lon="-1.4702">
        <ele>1408.025166</ele>
        <time>2022-02-23T01:14:14.862Z</time>
      </trkpt>
      <trkpt lat="40.56091" lon="-1.47014">
        <ele>1407.833021</ele>
        <time>2022-02-23T01:14:16.976Z</time>
      </trkpt>
      <trkpt lat="40.56091" lon="-1.46969">
        <ele>1407.193915</ele>
        <time>2022-02-23T01:14:23.686Z</time>
      </trkpt>
      <trkpt lat="40.56074" lon="-1.46959">
        <ele>1406.847711</ele>
        <time>2022-02-23T01:14:27.116Z</time>
      </trkpt>
      <trkpt lat="40.55974" lon="-1.4687">
        <ele>1404.579885</ele>
        <time>2022-02-23T01:14:49.225Z</time>
      </trkpt>
      <trkpt lat="40.55962" lon="-1.4685">
        <ele>1404.186191</ele>
        <time>2022-02-23T01:14:52.671Z</time>
      </trkpt>
      <trkpt lat="40.55915" lon="-1.46779">
        <ele>1402.711678</ele>
        <time>2022-02-23T01:15:05.662Z</time>
      </trkpt>
      <trkpt lat="40.55853" lon="-1.46709">
        <ele>1401.036855</ele>
        <time>2022-02-23T01:15:20.520Z</time>
      </trkpt>
      <trkpt lat="40.55775" lon="-1.46659">
        <ele>1400.03403</ele>
        <time>2022-02-23T01:15:37.074Z</time>
      </trkpt>
      <trkpt lat="40.55674" lon="-1.46609">
        <ele>1398.904501</ele>
        <time>2022-02-23T01:15:59.009Z</time>
      </trkpt>
      <trkpt lat="40.556" lon="-1.46582">
        <ele>1398.614911</ele>
        <time>2022-02-23T01:16:15.226Z</time>
      </trkpt>
      <trkpt lat="40.55572" lon="-1.46562">
        <ele>1398.493204</ele>
        <time>2022-02-23T01:16:22.119Z</time>
      </trkpt>
      <trkpt lat="40.55533" lon="-1.46518">
        <ele>1398.300527</ele>
        <time>2022-02-23T01:16:33.064Z</time>
      </trkpt>
      <trkpt lat="40.55512" lon="-1.46508">
        <ele>1398.356477</ele>
        <time>2022-02-23T01:16:37.803Z</time>
      </trkpt>
      <trkpt lat="40.55445" lon="-1.46506">
        <ele>1398.739995</ele>
        <time>2022-02-23T01:16:53.197Z</time>
      </trkpt>
      <trkpt lat="40.55368" lon="-1.46472">
        <ele>1399.194821</ele>
        <time>2022-02-23T01:17:13.697Z</time>
      </trkpt>
      <trkpt lat="40.55266" lon="-1.46374">
        <ele>1401.483356</ele>
        <time>2022-02-23T01:17:54.267Z</time>
      </trkpt>
      <trkpt lat="40.55199" lon="-1.46337">
        <ele>1402.907803</ele>
        <time>2022-02-23T01:18:19.230Z</time>
      </trkpt>
      <trkpt lat="40.55131" lon="-1.4631">
        <ele>1403.591076</ele>
        <time>2022-02-23T01:18:43.033Z</time>
      </trkpt>
      <trkpt lat="40.54631" lon="-1.46084">
        <ele>1407.208747</ele>
        <time>2022-02-23T01:20:56.615Z</time>
      </trkpt>
      <trkpt lat="40.5443" lon="-1.45993">
        <ele>1405.271039</ele>
        <time>2022-02-23T01:21:39.898Z</time>
      </trkpt>
      <trkpt lat="40.54332" lon="-1.45975">
        <ele>1403.399826</ele>
        <time>2022-02-23T01:21:57.389Z</time>
      </trkpt>
      <trkpt lat="40.54186" lon="-1.45966">
        <ele>1398.738037</ele>
        <time>2022-02-23T01:22:22.324Z</time>
      </trkpt>
      <trkpt lat="40.54141" lon="-1.45969">
        <ele>1397.089859</ele>
        <time>2022-02-23T01:22:29.837Z</time>
      </trkpt>
      <trkpt lat="40.54098" lon="-1.45982">
        <ele>1395.362878</ele>
        <time>2022-02-23T01:22:37.161Z</time>
      </trkpt>
      <trkpt lat="40.53993" lon="-1.4604">
        <ele>1390.938687</ele>
        <time>2022-02-23T01:22:55.954Z</time>
      </trkpt>
      <trkpt lat="40.53934" lon="-1.46061">
        <ele>1388.40635</ele>
        <time>2022-02-23T01:23:05.907Z</time>
      </trkpt>
      <trkpt lat="40.53898" lon="-1.46062">
        <ele>1386.927608</ele>
        <time>2022-02-23T01:23:11.731Z</time>
      </trkpt>
      <trkpt lat="40.53871" lon="-1.46056">
        <ele>1385.808039</ele>
        <time>2022-02-23T01:23:16.170Z</time>
      </trkpt>
      <trkpt lat="40.53787" lon="-1.46026">
        <ele>1382.542418</ele>
        <time>2022-02-23T01:23:30.595Z</time>
      </trkpt>
      <trkpt lat="40.53599" lon="-1.45832">
        <ele>1375.364787</ele>
        <time>2022-02-23T01:24:11.905Z</time>
      </trkpt>
      <trkpt lat="40.53573" lon="-1.458">
        <ele>1374.406722</ele>
        <time>2022-02-23T01:24:18.295Z</time>
      </trkpt>
      <trkpt lat="40.53542" lon="-1.45726">
        <ele>1372.645816</ele>
        <time>2022-02-23T01:24:29.904Z</time>
      </trkpt>
      <trkpt lat="40.53447" lon="-1.45614">
        <ele>1369.088237</ele>
        <time>2022-02-23T01:24:52.163Z</time>
      </trkpt>
      <trkpt lat="40.53413" lon="-1.45585">
        <ele>1367.986019</ele>
        <time>2022-02-23T01:24:58.979Z</time>
      </trkpt>
      <trkpt lat="40.53373" lon="-1.45567">
        <ele>1367.038609</ele>
        <time>2022-02-23T01:25:06.260Z</time>
      </trkpt>
      <trkpt lat="40.53315" lon="-1.45554">
        <ele>1365.714417</ele>
        <time>2022-02-23T01:25:16.684Z</time>
      </trkpt>
      <trkpt lat="40.53271" lon="-1.45555">
        <ele>1364.714811</ele>
        <time>2022-02-23T01:25:24.846Z</time>
      </trkpt>
      <trkpt lat="40.53186" lon="-1.45585">
        <ele>1362.893216</ele>
        <time>2022-02-23T01:25:42.178Z</time>
      </trkpt>
      <trkpt lat="40.53158" lon="-1.45581">
        <ele>1362.341934</ele>
        <time>2022-02-23T01:25:47.582Z</time>
      </trkpt>
      <trkpt lat="40.53129" lon="-1.45521">
        <ele>1361.28954</ele>
        <time>2022-02-23T01:25:57.556Z</time>
      </trkpt>
      <trkpt lat="40.53106" lon="-1.45488">
        <ele>1360.621998</ele>
        <time>2022-02-23T01:26:03.579Z</time>
      </trkpt>
      <trkpt lat="40.53056" lon="-1.4544">
        <ele>1358.455872</ele>
        <time>2022-02-23T01:26:14.055Z</time>
      </trkpt>
      <trkpt lat="40.52978" lon="-1.45379">
        <ele>1355.057504</ele>
        <time>2022-02-23T01:26:29.050Z</time>
      </trkpt>
      <trkpt lat="40.52908" lon="-1.45333">
        <ele>1352.400503</ele>
        <time>2022-02-23T01:26:41.762Z</time>
      </trkpt>
      <trkpt lat="40.52848" lon="-1.45304">
        <ele>1350.342172</ele>
        <time>2022-02-23T01:26:52.687Z</time>
      </trkpt>
      <trkpt lat="40.52827" lon="-1.45285">
        <ele>1349.514947</ele>
        <time>2022-02-23T01:26:57.214Z</time>
      </trkpt>
      <trkpt lat="40.52795" lon="-1.45224">
        <ele>1347.706871</ele>
        <time>2022-02-23T01:27:07.204Z</time>
      </trkpt>
      <trkpt lat="40.52753" lon="-1.45177">
        <ele>1346.032899</ele>
        <time>2022-02-23T01:27:16.952Z</time>
      </trkpt>
      <trkpt lat="40.52717" lon="-1.45147">
        <ele>1344.713198</ele>
        <time>2022-02-23T01:27:24.427Z</time>
      </trkpt>
      <trkpt lat="40.52613" lon="-1.45123">
        <ele>1341.139245</ele>
        <time>2022-02-23T01:27:41.984Z</time>
      </trkpt>
      <trkpt lat="40.52459" lon="-1.45122">
        <ele>1334.749721</ele>
        <time>2022-02-23T01:28:06.962Z</time>
      </trkpt>
      <trkpt lat="40.52356" lon="-1.45103">
        <ele>1331.223844</ele>
        <time>2022-02-23T01:28:24.223Z</time>
      </trkpt>
      <trkpt lat="40.52308" lon="-1.45115">
        <ele>1329.588557</ele>
        <time>2022-02-23T01:28:32.591Z</time>
      </trkpt>
      <trkpt lat="40.52" lon="-1.45288">
        <ele>1324.938404</ele>
        <time>2022-02-23T01:29:37.714Z</time>
      </trkpt>
      <trkpt lat="40.51916" lon="-1.4528">
        <ele>1324.036654</ele>
        <time>2022-02-23T01:29:54.768Z</time>
      </trkpt>
      <trkpt lat="40.51755" lon="-1.45241">
        <ele>1322.305058</ele>
        <time>2022-02-23T01:30:27.316Z</time>
      </trkpt>
      <trkpt lat="40.51707" lon="-1.45237">
        <ele>1321.672729</ele>
        <time>2022-02-23T01:30:36.575Z</time>
      </trkpt>
      <trkpt lat="40.51647" lon="-1.45239">
        <ele>1320.875338</ele>
        <time>2022-02-23T01:30:48.236Z</time>
      </trkpt>
      <trkpt lat="40.5146" lon="-1.45284">
        <ele>1317.494069</ele>
        <time>2022-02-23T01:31:23.932Z</time>
      </trkpt>
      <trkpt lat="40.51316" lon="-1.45296">
        <ele>1313.512637</ele>
        <time>2022-02-23T01:31:49.325Z</time>
      </trkpt>
      <trkpt lat="40.51277" lon="-1.45304">
        <ele>1312.297004</ele>
        <time>2022-02-23T01:31:55.981Z</time>
      </trkpt>
      <trkpt lat="40.51246" lon="-1.45321">
        <ele>1311.261862</ele>
        <time>2022-02-23T01:32:01.572Z</time>
      </trkpt>
      <trkpt lat="40.51165" lon="-1.45382">
        <ele>1307.243725</ele>
        <time>2022-02-23T01:32:16.798Z</time>
      </trkpt>
      <trkpt lat="40.5107" lon="-1.45426">
        <ele>1303.021741</ele>
        <time>2022-02-23T01:32:32.999Z</time>
      </trkpt>
      <trkpt lat="40.51049" lon="-1.45447">
        <ele>1302.119767</ele>
        <time>2022-02-23T01:32:37.240Z</time>
      </trkpt>
      <trkpt lat="40.51019" lon="-1.45503">
        <ele>1300.325302</ele>
        <time>2022-02-23T01:32:45.792Z</time>
      </trkpt>
      <trkpt lat="40.51" lon="-1.45523">
        <ele>1299.458834</ele>
        <time>2022-02-23T01:32:49.995Z</time>
      </trkpt>
      <trkpt lat="40.50974" lon="-1.45533">
        <ele>1298.52427</ele>
        <time>2022-02-23T01:32:54.562Z</time>
      </trkpt>
      <trkpt lat="40.50808" lon="-1.45547">
        <ele>1295.790571</ele>
        <time>2022-02-23T01:33:25.474Z</time>
      </trkpt>
      <trkpt lat="40.50537" lon="-1.45582">
        <ele>1295.851118</ele>
        <time>2022-02-23T01:34:34.694Z</time>
      </trkpt>
      <trkpt lat="40.50494" lon="-1.45583">
        <ele>1295.512638</ele>
        <time>2022-02-23T01:34:44.027Z</time>
      </trkpt>
      <trkpt lat="40.50366" lon="-1.45564">
        <ele>1293.47101</ele>
        <time>2022-02-23T01:35:08.204Z</time>
      </trkpt>
      <trkpt lat="40.50329" lon="-1.45566">
        <ele>1292.067668</ele>
        <time>2022-02-23T01:35:14.608Z</time>
      </trkpt>
      <trkpt lat="40.50157" lon="-1.45664">
        <ele>1283.698664</ele>
        <time>2022-02-23T01:35:44.499Z</time>
      </trkpt>
      <trkpt lat="40.49937" lon="-1.4576">
        <ele>1272.459801</ele>
        <time>2022-02-23T01:36:20.331Z</time>
      </trkpt>
      <trkpt lat="40.4984" lon="-1.45796">
        <ele>1271.353396</ele>
        <time>2022-02-23T01:36:40.550Z</time>
      </trkpt>
      <trkpt lat="40.49836" lon="-1.4577">
        <ele>1271.752395</ele>
        <time>2022-02-23T01:36:47.120Z</time>
      </trkpt>
      <trkpt lat="40.49814" lon="-1.45654">
        <ele>1273.553267</ele>
        <time>2022-02-23T01:37:23.081Z</time>
      </trkpt>
      <trkpt lat="40.49791" lon="-1.45608">
        <ele>1274.732898</ele>
        <time>2022-02-23T01:37:41.625Z</time>
      </trkpt>
      <trkpt lat="40.49728" lon="-1.45506">
        <ele>1278.021418</ele>
        <time>2022-02-23T01:38:23.598Z</time>
      </trkpt>
      <trkpt lat="40.49688" lon="-1.45393">
        <ele>1280.224357</ele>
        <time>2022-02-23T01:38:55.204Z</time>
      </trkpt>
      <trkpt lat="40.49593" lon="-1.44951">
        <ele>1282.162408</ele>
        <time>2022-02-23T01:40:21.299Z</time>
      </trkpt>
      <trkpt lat="40.49568" lon="-1.44884">
        <ele>1281.772724</ele>
        <time>2022-02-23T01:40:33.159Z</time>
      </trkpt>
      <trkpt lat="40.49552" lon="-1.44853">
        <ele>1281.57881</ele>
        <time>2022-02-23T01:40:38.915Z</time>
      </trkpt>
      <trkpt lat="40.49172" lon="-1.44276">
        <ele>1272.672575</ele>
        <time>2022-02-23T01:42:28.594Z</time>
      </trkpt>
      <trkpt lat="40.49138" lon="-1.44203">
        <ele>1271.141195</ele>
        <time>2022-02-23T01:42:40.626Z</time>
      </trkpt>
      <trkpt lat="40.48838" lon="-1.43438">
        <ele>1252.933679</ele>
        <time>2022-02-23T01:44:34.692Z</time>
      </trkpt>
      <trkpt lat="40.48815" lon="-1.43397">
        <ele>1251.741133</ele>
        <time>2022-02-23T01:44:41.260Z</time>
      </trkpt>
      <trkpt lat="40.48677" lon="-1.43193">
        <ele>1245.292764</ele>
        <time>2022-02-23T01:45:16.497Z</time>
      </trkpt>
      <trkpt lat="40.48634" lon="-1.43227">
        <ele>1244.126382</ele>
        <time>2022-02-23T01:45:25.311Z</time>
      </trkpt>
      <trkpt lat="40.48618" lon="-1.4323">
        <ele>1243.740408</ele>
        <time>2022-02-23T01:45:28.286Z</time>
      </trkpt>
      <trkpt lat="40.48598" lon="-1.43224">
        <ele>1243.259462</ele>
        <time>2022-02-23T01:45:32.042Z</time>
      </trkpt>
      <trkpt lat="40.48534" lon="-1.43185">
        <ele>1241.684787</ele>
        <time>2022-02-23T01:45:45.446Z</time>
      </trkpt>
      <trkpt lat="40.48473" lon="-1.43188">
        <ele>1240.529261</ele>
        <time>2022-02-23T01:45:57.160Z</time>
      </trkpt>
      <trkpt lat="40.48455" lon="-1.43184">
        <ele>1240.189796</ele>
        <time>2022-02-23T01:46:00.543Z</time>
      </trkpt>
      <trkpt lat="40.48431" lon="-1.43173">
        <ele>1239.70123</ele>
        <time>2022-02-23T01:46:05.352Z</time>
      </trkpt>
      <trkpt lat="40.48384" lon="-1.43135">
        <ele>1238.659594</ele>
        <time>2022-02-23T01:46:15.086Z</time>
      </trkpt>
      <trkpt lat="40.48308" lon="-1.43129">
        <ele>1236.117381</ele>
        <time>2022-02-23T01:46:28.406Z</time>
      </trkpt>
      <trkpt lat="40.48241" lon="-1.43144">
        <ele>1233.886374</ele>
        <time>2022-02-23T01:46:39.687Z</time>
      </trkpt>
      <trkpt lat="40.48167" lon="-1.43103">
        <ele>1231.23607</ele>
        <time>2022-02-23T01:46:53.117Z</time>
      </trkpt>
      <trkpt lat="40.48147" lon="-1.43084">
        <ele>1230.458382</ele>
        <time>2022-02-23T01:46:57.060Z</time>
      </trkpt>
      <trkpt lat="40.48117" lon="-1.43075">
        <ele>1229.458392</ele>
        <time>2022-02-23T01:47:02.285Z</time>
      </trkpt>
      <trkpt lat="40.48058" lon="-1.43082">
        <ele>1227.545782</ele>
        <time>2022-02-23T01:47:12.573Z</time>
      </trkpt>
      <trkpt lat="40.47937" lon="-1.43124">
        <ele>1224.558639</ele>
        <time>2022-02-23T01:47:35.098Z</time>
      </trkpt>
      <trkpt lat="40.47787" lon="-1.43135">
        <ele>1221.539072</ele>
        <time>2022-02-23T01:48:02.831Z</time>
      </trkpt>
      <trkpt lat="40.47714" lon="-1.4315">
        <ele>1220.20309</ele>
        <time>2022-02-23T01:48:16.454Z</time>
      </trkpt>
      <trkpt lat="40.47674" lon="-1.43164">
        <ele>1219.510686</ele>
        <time>2022-02-23T01:48:24.323Z</time>
      </trkpt>
      <trkpt lat="40.47607" lon="-1.43208">
        <ele>1218.650278</ele>
        <time>2022-02-23T01:48:38.606Z</time>
      </trkpt>
      <trkpt lat="40.47589" lon="-1.43214">
        <ele>1218.440191</ele>
        <time>2022-02-23T01:48:42.214Z</time>
      </trkpt>
      <trkpt lat="40.47552" lon="-1.43216">
        <ele>1218.011763</ele>
        <time>2022-02-23T01:48:49.652Z</time>
      </trkpt>
      <trkpt lat="40.47453" lon="-1.43236">
        <ele>1217.584313</ele>
        <time>2022-02-23T01:49:10.433Z</time>
      </trkpt>
      <trkpt lat="40.47387" lon="-1.43259">
        <ele>1217.613052</ele>
        <time>2022-02-23T01:49:25.986Z</time>
      </trkpt>
      <trkpt lat="40.47322" lon="-1.43274">
        <ele>1217.775899</ele>
        <time>2022-02-23T01:49:42.105Z</time>
      </trkpt>
      <trkpt lat="40.47014" lon="-1.43259">
        <ele>1220.438125</ele>
        <time>2022-02-23T01:51:06.999Z</time>
      </trkpt>
      <trkpt lat="40.46956" lon="-1.43252">
        <ele>1220.34948</ele>
        <time>2022-02-23T01:51:21.331Z</time>
      </trkpt>
      <trkpt lat="40.46827" lon="-1.43214">
        <ele>1218.086817</ele>
        <time>2022-02-23T01:51:46.994Z</time>
      </trkpt>
      <trkpt lat="40.46763" lon="-1.43174">
        <ele>1214.96947</ele>
        <time>2022-02-23T01:51:58.281Z</time>
      </trkpt>
      <trkpt lat="40.46741" lon="-1.43164">
        <ele>1213.614952</ele>
        <time>2022-02-23T01:52:01.834Z</time>
      </trkpt>
      <trkpt lat="40.46722" lon="-1.43162">
        <ele>1212.481833</ele>
        <time>2022-02-23T01:52:04.735Z</time>
      </trkpt>
      <trkpt lat="40.46686" lon="-1.43169">
        <ele>1210.373242</ele>
        <time>2022-02-23T01:52:10.167Z</time>
      </trkpt>
      <trkpt lat="40.46634" lon="-1.43193">
        <ele>1207.085023</ele>
        <time>2022-02-23T01:52:18.646Z</time>
      </trkpt>
      <trkpt lat="40.46586" lon="-1.43174">
        <ele>1203.881399</ele>
        <time>2022-02-23T01:52:26.114Z</time>
      </trkpt>
      <trkpt lat="40.46511" lon="-1.43198">
        <ele>1198.835195</ele>
        <time>2022-02-23T01:52:38.165Z</time>
      </trkpt>
      <trkpt lat="40.46428" lon="-1.43188">
        <ele>1192.718574</ele>
        <time>2022-02-23T01:52:50.671Z</time>
      </trkpt>
      <trkpt lat="40.46398" lon="-1.43177">
        <ele>1189.901273</ele>
        <time>2022-02-23T01:52:55.212Z</time>
      </trkpt>
      <trkpt lat="40.46386" lon="-1.43167">
        <ele>1188.586791</ele>
        <time>2022-02-23T01:52:57.258Z</time>
      </trkpt>
      <trkpt lat="40.46326" lon="-1.43039">
        <ele>1178.335589</ele>
        <time>2022-02-23T01:53:13.503Z</time>
      </trkpt>
      <trkpt lat="40.46313" lon="-1.43022">
        <ele>1176.824917</ele>
        <time>2022-02-23T01:53:16.141Z</time>
      </trkpt>
      <trkpt lat="40.46291" lon="-1.43009">
        <ele>1174.885846</ele>
        <time>2022-02-23T01:53:19.523Z</time>
      </trkpt>
      <trkpt lat="40.46267" lon="-1.43008">
        <ele>1172.946623</ele>
        <time>2022-02-23T01:53:22.965Z</time>
      </trkpt>
      <trkpt lat="40.4625" lon="-1.43014">
        <ele>1171.508516</ele>
        <time>2022-02-23T01:53:25.505Z</time>
      </trkpt>
      <trkpt lat="40.4619" lon="-1.43072">
        <ele>1165.496234</ele>
        <time>2022-02-23T01:53:36.469Z</time>
      </trkpt>
      <trkpt lat="40.46166" lon="-1.43089">
        <ele>1163.910158</ele>
        <time>2022-02-23T01:53:40.744Z</time>
      </trkpt>
      <trkpt lat="40.46114" lon="-1.43109">
        <ele>1161.891433</ele>
        <time>2022-02-23T01:53:49.493Z</time>
      </trkpt>
      <trkpt lat="40.4598" lon="-1.43126">
        <ele>1157.779151</ele>
        <time>2022-02-23T01:54:12.766Z</time>
      </trkpt>
      <trkpt lat="40.45951" lon="-1.43138">
        <ele>1157.857938</ele>
        <time>2022-02-23T01:54:18.847Z</time>
      </trkpt>
      <trkpt lat="40.45925" lon="-1.43166">
        <ele>1157.946198</ele>
        <time>2022-02-23T01:54:26.331Z</time>
      </trkpt>
      <trkpt lat="40.45792" lon="-1.4338">
        <ele>1160.820103</ele>
        <time>2022-02-23T01:55:33.781Z</time>
      </trkpt>
      <trkpt lat="40.45768" lon="-1.434">
        <ele>1161.436616</ele>
        <time>2022-02-23T01:55:43.154Z</time>
      </trkpt>
      <trkpt lat="40.45612" lon="-1.43413">
        <ele>1166.087952</ele>
        <time>2022-02-23T01:56:40.367Z</time>
      </trkpt>
      <trkpt lat="40.45588" lon="-1.43424">
        <ele>1166.883786</ele>
        <time>2022-02-23T01:56:50.098Z</time>
      </trkpt>
      <trkpt lat="40.45529" lon="-1.43474">
        <ele>1170.050071</ele>
        <time>2022-02-23T01:57:20.043Z</time>
      </trkpt>
      <trkpt lat="40.45498" lon="-1.43486">
        <ele>1171.819735</ele>
        <time>2022-02-23T01:57:35.486Z</time>
      </trkpt>
      <trkpt lat="40.45441" lon="-1.43471">
        <ele>1175.016244</ele>
        <time>2022-02-23T01:58:05.893Z</time>
      </trkpt>
      <trkpt lat="40.45291" lon="-1.43407">
        <ele>1184.173773</ele>
        <time>2022-02-23T01:59:33.541Z</time>
      </trkpt>
      <trkpt lat="40.45234" lon="-1.43392">
        <ele>1187.657185</ele>
        <time>2022-02-23T02:00:02.792Z</time>
      </trkpt>
      <trkpt lat="40.45186" lon="-1.43405">
        <ele>1190.062122</ele>
        <time>2022-02-23T02:00:23.568Z</time>
      </trkpt>
      <trkpt lat="40.4512" lon="-1.43449">
        <ele>1193.380692</ele>
        <time>2022-02-23T02:00:54.155Z</time>
      </trkpt>
      <trkpt lat="40.45096" lon="-1.43455">
        <ele>1194.496229</ele>
        <time>2022-02-23T02:01:04.572Z</time>
      </trkpt>
      <trkpt lat="40.45073" lon="-1.43452">
        <ele>1195.519782</ele>
        <time>2022-02-23T02:01:14.860Z</time>
      </trkpt>
      <trkpt lat="40.45032" lon="-1.43437">
        <ele>1197.784891</ele>
        <time>2022-02-23T02:01:36.269Z</time>
      </trkpt>
      <trkpt lat="40.45013" lon="-1.43437">
        <ele>1198.925979</ele>
        <time>2022-02-23T02:01:46.613Z</time>
      </trkpt>
      <trkpt lat="40.44963" lon="-1.43466">
        <ele>1202.261655</ele>
        <time>2022-02-23T02:02:15.581Z</time>
      </trkpt>
      <trkpt lat="40.44924" lon="-1.43512">
        <ele>1205.434772</ele>
        <time>2022-02-23T02:02:45.274Z</time>
      </trkpt>
      <trkpt lat="40.44917" lon="-1.43538">
        <ele>1206.680002</ele>
        <time>2022-02-23T02:02:55.230Z</time>
      </trkpt>
      <trkpt lat="40.44923" lon="-1.43603">
        <ele>1209.060925</ele>
        <time>2022-02-23T02:03:22.556Z</time>
      </trkpt>
      <trkpt lat="40.44916" lon="-1.4362">
        <ele>1209.704227</ele>
        <time>2022-02-23T02:03:28.921Z</time>
      </trkpt>
      <trkpt lat="40.44899" lon="-1.43636">
        <ele>1210.604585</ele>
        <time>2022-02-23T02:03:40.269Z</time>
      </trkpt>
      <trkpt lat="40.4488" lon="-1.43644">
        <ele>1211.440045</ele>
        <time>2022-02-23T02:03:48.482Z</time>
      </trkpt>
      <trkpt lat="40.44867" lon="-1.43643">
        <ele>1212.024465</ele>
        <time>2022-02-23T02:03:55.372Z</time>
      </trkpt>
      <trkpt lat="40.44851" lon="-1.43632">
        <ele>1212.788483</ele>
        <time>2022-02-23T02:04:01.822Z</time>
      </trkpt>
      <trkpt lat="40.44663" lon="-1.4346">
        <ele>1218.330363</ele>
        <time>2022-02-23T02:05:20.527Z</time>
      </trkpt>
      <trkpt lat="40.44624" lon="-1.43427">
        <ele>1216.960623</ele>
        <time>2022-02-23T02:05:29.350Z</time>
      </trkpt>
      <trkpt lat="40.44585" lon="-1.43405">
        <ele>1215.276826</ele>
        <time>2022-02-23T02:05:36.709Z</time>
      </trkpt>
      <trkpt lat="40.44359" lon="-1.43355">
        <ele>1204.212127</ele>
        <time>2022-02-23T02:06:11.845Z</time>
      </trkpt>
      <trkpt lat="40.44328" lon="-1.43361">
        <ele>1202.534493</ele>
        <time>2022-02-23T02:06:16.801Z</time>
      </trkpt>
      <trkpt lat="40.44307" lon="-1.43376">
        <ele>1201.285545</ele>
        <time>2022-02-23T02:06:20.811Z</time>
      </trkpt>
      <trkpt lat="40.44293" lon="-1.43392">
        <ele>1200.503737</ele>
        <time>2022-02-23T02:06:23.996Z</time>
      </trkpt>
      <trkpt lat="40.44274" lon="-1.43428">
        <ele>1199.107215</ele>
        <time>2022-02-23T02:06:29.902Z</time>
      </trkpt>
      <trkpt lat="40.44202" lon="-1.43594">
        <ele>1192.228904</ele>
        <time>2022-02-23T02:06:53.858Z</time>
      </trkpt>
      <trkpt lat="40.44122" lon="-1.43688">
        <ele>1184.005446</ele>
        <time>2022-02-23T02:07:09.451Z</time>
      </trkpt>
      <trkpt lat="40.44066" lon="-1.4379">
        <ele>1176.497866</ele>
        <time>2022-02-23T02:07:23.166Z</time>
      </trkpt>
      <trkpt lat="40.4404" lon="-1.43805">
        <ele>1174.209784</ele>
        <time>2022-02-23T02:07:27.326Z</time>
      </trkpt>
      <trkpt lat="40.43986" lon="-1.43788">
        <ele>1169.788426</ele>
        <time>2022-02-23T02:07:35.407Z</time>
      </trkpt>
      <trkpt lat="40.43943" lon="-1.43754">
        <ele>1165.766982</ele>
        <time>2022-02-23T02:07:42.940Z</time>
      </trkpt>
      <trkpt lat="40.43887" lon="-1.43722">
        <ele>1161.742603</ele>
        <time>2022-02-23T02:07:52.331Z</time>
      </trkpt>
      <trkpt lat="40.43841" lon="-1.43683">
        <ele>1158.110191</ele>
        <time>2022-02-23T02:08:00.899Z</time>
      </trkpt>
      <trkpt lat="40.43799" lon="-1.43661">
        <ele>1155.184363</ele>
        <time>2022-02-23T02:08:07.649Z</time>
      </trkpt>
      <trkpt lat="40.43749" lon="-1.43665">
        <ele>1151.568271</ele>
        <time>2022-02-23T02:08:14.996Z</time>
      </trkpt>
      <trkpt lat="40.43691" lon="-1.43629">
        <ele>1146.688295</ele>
        <time>2022-02-23T02:08:24.428Z</time>
      </trkpt>
      <trkpt lat="40.43615" lon="-1.436">
        <ele>1140.656075</ele>
        <time>2022-02-23T02:08:36.217Z</time>
      </trkpt>
      <trkpt lat="40.43524" lon="-1.43604">
        <ele>1133.838018</ele>
        <time>2022-02-23T02:08:49.733Z</time>
      </trkpt>
      <trkpt lat="40.43483" lon="-1.43558">
        <ele>1129.840432</ele>
        <time>2022-02-23T02:08:57.730Z</time>
      </trkpt>
      <trkpt lat="40.43275" lon="-1.43427">
        <ele>1113.266151</ele>
        <time>2022-02-23T02:09:32.049Z</time>
      </trkpt>
      <trkpt lat="40.43267" lon="-1.43447">
        <ele>1112.386703</ele>
        <time>2022-02-23T02:09:34.784Z</time>
      </trkpt>
      <trkpt lat="40.43197" lon="-1.43395">
        <ele>1108.434558</ele>
        <time>2022-02-23T02:09:47.940Z</time>
      </trkpt>
      <trkpt lat="40.4318" lon="-1.43401">
        <ele>1107.558791</ele>
        <time>2022-02-23T02:09:50.955Z</time>
      </trkpt>
      <trkpt lat="40.43173" lon="-1.43421">
        <ele>1106.756121</ele>
        <time>2022-02-23T02:09:53.811Z</time>
      </trkpt>
      <trkpt lat="40.43162" lon="-1.43456">
        <ele>1105.338234</ele>
        <time>2022-02-23T02:09:58.959Z</time>
      </trkpt>
      <trkpt lat="40.43096" lon="-1.43555">
        <ele>1104.317032</ele>
        <time>2022-02-23T02:10:19.553Z</time>
      </trkpt>
      <trkpt lat="40.43062" lon="-1.43588">
        <ele>1104.025716</ele>
        <time>2022-02-23T02:10:28.935Z</time>
      </trkpt>
      <trkpt lat="40.42963" lon="-1.43632">
        <ele>1104.331618</ele>
        <time>2022-02-23T02:10:57.320Z</time>
      </trkpt>
      <trkpt lat="40.42949" lon="-1.43629">
        <ele>1104.47778</ele>
        <time>2022-02-23T02:11:01.444Z</time>
      </trkpt>
      <trkpt lat="40.42941" lon="-1.43607">
        <ele>1104.675147</ele>
        <time>2022-02-23T02:11:07.000Z</time>
      </trkpt>
      <trkpt lat="40.4283" lon="-1.4365">
        <ele>1105.919761</ele>
        <time>2022-02-23T02:11:39.894Z</time>
      </trkpt>
      <trkpt lat="40.4277" lon="-1.43661">
        <ele>1106.616101</ele>
        <time>2022-02-23T02:11:57.455Z</time>
      </trkpt>
      <trkpt lat="40.42746" lon="-1.43672">
        <ele>1106.912598</ele>
        <time>2022-02-23T02:12:04.757Z</time>
      </trkpt>
      <trkpt lat="40.42651" lon="-1.43773">
        <ele>1108.111425</ele>
        <time>2022-02-23T02:12:37.600Z</time>
      </trkpt>
      <trkpt lat="40.42606" lon="-1.43794">
        <ele>1108.472807</ele>
        <time>2022-02-23T02:12:49.595Z</time>
      </trkpt>
      <trkpt lat="40.42448" lon="-1.43856">
        <ele>1109.440172</ele>
        <time>2022-02-23T02:13:32.064Z</time>
      </trkpt>
      <trkpt lat="40.42335" lon="-1.43886">
        <ele>1109.731795</ele>
        <time>2022-02-23T02:13:59.559Z</time>
      </trkpt>
      <trkpt lat="40.42275" lon="-1.43926">
        <ele>1109.450752</ele>
        <time>2022-02-23T02:14:13.470Z</time>
      </trkpt>
      <trkpt lat="40.42224" lon="-1.43921">
        <ele>1109.236417</ele>
        <time>2022-02-23T02:14:23.986Z</time>
      </trkpt>
      <trkpt lat="40.42208" lon="-1.43919">
        <ele>1109.172899</ele>
        <time>2022-02-23T02:14:27.092Z</time>
      </trkpt>
      <trkpt lat="40.42191" lon="-1.43917">
        <ele>1109.10053</ele>
        <time>2022-02-23T02:14:30.750Z</time>
      </trkpt>
      <trkpt lat="40.4218" lon="-1.43917">
        <ele>1109.090026</ele>
        <time>2022-02-23T02:14:33.182Z</time>
      </trkpt>
      <trkpt lat="40.42139" lon="-1.43925">
        <ele>1109.10972</ele>
        <time>2022-02-23T02:14:42.007Z</time>
      </trkpt>
      <trkpt lat="40.42129" lon="-1.43929">
        <ele>1109.114506</ele>
        <time>2022-02-23T02:14:44.125Z</time>
      </trkpt>
      <trkpt lat="40.42068" lon="-1.43967">
        <ele>1109.14662</ele>
        <time>2022-02-23T02:14:58.942Z</time>
      </trkpt>
      <trkpt lat="40.42054" lon="-1.43976">
        <ele>1109.153996</ele>
        <time>2022-02-23T02:15:02.670Z</time>
      </trkpt>
      <trkpt lat="40.4204" lon="-1.43984">
        <ele>1109.161399</ele>
        <time>2022-02-23T02:15:06.399Z</time>
      </trkpt>
      <trkpt lat="40.42027" lon="-1.43992">
        <ele>1109.168176</ele>
        <time>2022-02-23T02:15:09.899Z</time>
      </trkpt>
      <trkpt lat="40.41991" lon="-1.44014">
        <ele>1109.554176</ele>
        <time>2022-02-23T02:15:20.798Z</time>
      </trkpt>
      <trkpt lat="40.41877" lon="-1.44084">
        <ele>1111.038439</ele>
        <time>2022-02-23T02:15:57.502Z</time>
      </trkpt>
      <trkpt lat="40.41835" lon="-1.44098">
        <ele>1111.493883</ele>
        <time>2022-02-23T02:16:09.569Z</time>
      </trkpt>
      <trkpt lat="40.41706" lon="-1.44104">
        <ele>1112.676028</ele>
        <time>2022-02-23T02:16:44.656Z</time>
      </trkpt>
      <trkpt lat="40.41546" lon="-1.44104">
        <ele>1113.514054</ele>
        <time>2022-02-23T02:17:23.482Z</time>
      </trkpt>
      <trkpt lat="40.41394" lon="-1.44073">
        <ele>1114.92056</ele>
        <time>2022-02-23T02:18:01.301Z</time>
      </trkpt>
      <trkpt lat="40.4139" lon="-1.44063">
        <ele>1115.017474</ele>
        <time>2022-02-23T02:18:03.649Z</time>
      </trkpt>
      <trkpt lat="40.41384" lon="-1.44062">
        <ele>1115.085843</ele>
        <time>2022-02-23T02:18:05.488Z</time>
      </trkpt>
      <trkpt lat="40.41302" lon="-1.44044">
        <ele>1116.524525</ele>
        <time>2022-02-23T02:18:32.945Z</time>
      </trkpt>
      <trkpt lat="40.41177" lon="-1.44019">
        <ele>1120.773088</ele>
        <time>2022-02-23T02:19:23.269Z</time>
      </trkpt>
      <trkpt lat="40.41099" lon="-1.43996">
        <ele>1123.042566</ele>
        <time>2022-02-23T02:20:01.522Z</time>
      </trkpt>
      <trkpt lat="40.41047" lon="-1.43991">
        <ele>1124.333987</ele>
        <time>2022-02-23T02:20:18.336Z</time>
      </trkpt>
      <trkpt lat="40.41009" lon="-1.4396">
        <ele>1125.446743</ele>
        <time>2022-02-23T02:20:29.053Z</time>
      </trkpt>
      <trkpt lat="40.41005" lon="-1.43966">
        <ele>1125.612968</ele>
        <time>2022-02-23T02:20:31.757Z</time>
      </trkpt>
      <trkpt lat="40.40999" lon="-1.43967">
        <ele>1125.767778</ele>
        <time>2022-02-23T02:20:33.070Z</time>
      </trkpt>
      <trkpt lat="40.40966" lon="-1.43932">
        <ele>1126.916171</ele>
        <time>2022-02-23T02:20:47.170Z</time>
      </trkpt>
      <trkpt lat="40.4095" lon="-1.43899">
        <ele>1127.792872</ele>
        <time>2022-02-23T02:21:00.398Z</time>
      </trkpt>
      <trkpt lat="40.40937" lon="-1.43896">
        <ele>1128.183695</ele>
        <time>2022-02-23T02:21:06.059Z</time>
      </trkpt>
      <trkpt lat="40.4089" lon="-1.43908">
        <ele>1129.597897</ele>
        <time>2022-02-23T02:21:28.415Z</time>
      </trkpt>
      <trkpt lat="40.40871" lon="-1.43914">
        <ele>1130.175736</ele>
        <time>2022-02-23T02:21:36.086Z</time>
      </trkpt>
      <trkpt lat="40.40865" lon="-1.43907">
        <ele>1130.414318</ele>
        <time>2022-02-23T02:21:39.162Z</time>
      </trkpt>
      <trkpt lat="40.40832" lon="-1.43935">
        <ele>1131.575709</ele>
        <time>2022-02-23T02:21:50.315Z</time>
      </trkpt>
      <trkpt lat="40.40816" lon="-1.43952">
        <ele>1131.934208</ele>
        <time>2022-02-23T02:21:55.065Z</time>
      </trkpt>
      <trkpt lat="40.40813" lon="-1.43956">
        <ele>1132.001654</ele>
        <time>2022-02-23T02:21:56.897Z</time>
      </trkpt>
      <trkpt lat="40.40791" lon="-1.43985">
        <ele>1132.525333</ele>
        <time>2022-02-23T02:22:07.366Z</time>
      </trkpt>
      <trkpt lat="40.40783" lon="-1.43999">
        <ele>1132.752767</ele>
        <time>2022-02-23T02:22:13.614Z</time>
      </trkpt>
      <trkpt lat="40.40762" lon="-1.44116">
        <ele>1134.30066</ele>
        <time>2022-02-23T02:22:43.940Z</time>
      </trkpt>
      <trkpt lat="40.40759" lon="-1.44174">
        <ele>1135.082602</ele>
        <time>2022-02-23T02:22:52.993Z</time>
      </trkpt>
      <trkpt lat="40.40763" lon="-1.4422">
        <ele>1135.735618</ele>
        <time>2022-02-23T02:22:59.826Z</time>
      </trkpt>
      <trkpt lat="40.40771" lon="-1.44272">
        <ele>1136.481296</ele>
        <time>2022-02-23T02:23:09.838Z</time>
      </trkpt>
      <trkpt lat="40.40766" lon="-1.4428">
        <ele>1136.619582</ele>
        <time>2022-02-23T02:23:12.225Z</time>
      </trkpt>
      <trkpt lat="40.40764" lon="-1.44283">
        <ele>1136.668648</ele>
        <time>2022-02-23T02:23:13.290Z</time>
      </trkpt>
      <trkpt lat="40.40747" lon="-1.44314">
        <ele>1137.218204</ele>
        <time>2022-02-23T02:23:25.026Z</time>
      </trkpt>
      <trkpt lat="40.40725" lon="-1.44341">
        <ele>1137.76934</ele>
        <time>2022-02-23T02:23:38.823Z</time>
      </trkpt>
      <trkpt lat="40.40688" lon="-1.44375">
        <ele>1139.956216</ele>
        <time>2022-02-23T02:24:00.435Z</time>
      </trkpt>
      <trkpt lat="40.40676" lon="-1.44382">
        <ele>1140.703215</ele>
        <time>2022-02-23T02:24:08.217Z</time>
      </trkpt>
      <trkpt lat="40.40636" lon="-1.4438">
        <ele>1142.96793</ele>
        <time>2022-02-23T02:24:30.156Z</time>
      </trkpt>
      <trkpt lat="40.40598" lon="-1.44363">
        <ele>1145.258539</ele>
        <time>2022-02-23T02:24:52.755Z</time>
      </trkpt>
      <trkpt lat="40.40516" lon="-1.44324">
        <ele>1149.389603</ele>
        <time>2022-02-23T02:25:36.918Z</time>
      </trkpt>
      <trkpt lat="40.40472" lon="-1.4431">
        <ele>1150.931149</ele>
        <time>2022-02-23T02:25:57.061Z</time>
      </trkpt>
      <trkpt lat="40.40416" lon="-1.44262">
        <ele>1153.181231</ele>
        <time>2022-02-23T02:26:21.458Z</time>
      </trkpt>
      <trkpt lat="40.40409" lon="-1.44262">
        <ele>1153.432379</ele>
        <time>2022-02-23T02:26:23.600Z</time>
      </trkpt>
      <trkpt lat="40.40412" lon="-1.44274">
        <ele>1153.753134</ele>
        <time>2022-02-23T02:26:27.219Z</time>
      </trkpt>
      <trkpt lat="40.4047" lon="-1.44324">
        <ele>1153.996429</ele>
        <time>2022-02-23T02:26:46.717Z</time>
      </trkpt>
      <trkpt lat="40.40515" lon="-1.44355">
        <ele>1153.737057</ele>
        <time>2022-02-23T02:26:58.530Z</time>
      </trkpt>
      <trkpt lat="40.40523" lon="-1.44359">
        <ele>1153.695797</ele>
        <time>2022-02-23T02:27:00.421Z</time>
      </trkpt>
      <trkpt lat="40.40594" lon="-1.44402">
        <ele>1152.718982</ele>
        <time>2022-02-23T02:27:15.920Z</time>
      </trkpt>
      <trkpt lat="40.40607" lon="-1.44407">
        <ele>1152.032427</ele>
        <time>2022-02-23T02:27:18.100Z</time>
      </trkpt>
      <trkpt lat="40.40662" lon="-1.4443">
        <ele>1149.057247</ele>
        <time>2022-02-23T02:27:27.588Z</time>
      </trkpt>
      <trkpt lat="40.40675" lon="-1.44428">
        <ele>1148.37824</ele>
        <time>2022-02-23T02:27:29.711Z</time>
      </trkpt>
      <trkpt lat="40.40676" lon="-1.44426">
        <ele>1148.261169</ele>
        <time>2022-02-23T02:27:31.284Z</time>
      </trkpt>
      <trkpt lat="40.40675" lon="-1.44428">
        <ele>1148.144097</ele>
        <time>2022-02-23T02:27:32.845Z</time>
      </trkpt>
      <trkpt lat="40.40685" lon="-1.44427">
        <ele>1147.620374</ele>
        <time>2022-02-23T02:27:34.420Z</time>
      </trkpt>
      <trkpt lat="40.40707" lon="-1.44433">
        <ele>1146.454364</ele>
        <time>2022-02-23T02:27:38.075Z</time>
      </trkpt>
      <trkpt lat="40.40712" lon="-1.44432">
        <ele>1146.220487</ele>
        <time>2022-02-23T02:27:38.974Z</time>
      </trkpt>
      <trkpt lat="40.40713" lon="-1.44432">
        <ele>1146.184078</ele>
        <time>2022-02-23T02:27:39.076Z</time>
      </trkpt>
      <trkpt lat="40.40715" lon="-1.44423">
        <ele>1145.801395</ele>
        <time>2022-02-23T02:27:40.220Z</time>
      </trkpt>
      <trkpt lat="40.40724" lon="-1.44417">
        <ele>1145.302137</ele>
        <time>2022-02-23T02:27:41.801Z</time>
      </trkpt>
      <trkpt lat="40.40734" lon="-1.44409">
        <ele>1144.686212</ele>
        <time>2022-02-23T02:27:43.746Z</time>
      </trkpt>
      <trkpt lat="40.4074" lon="-1.44403">
        <ele>1144.284249</ele>
        <time>2022-02-23T02:27:45.040Z</time>
      </trkpt>
      <trkpt lat="40.40773" lon="-1.44369">
        <ele>1142.192667</ele>
        <time>2022-02-23T02:27:51.527Z</time>
      </trkpt>
      <trkpt lat="40.40765" lon="-1.44354">
        <ele>1141.491183</ele>
        <time>2022-02-23T02:28:01.214Z</time>
      </trkpt>
      <trkpt lat="40.40776" lon="-1.44353">
        <ele>1140.915784</ele>
        <time>2022-02-23T02:28:02.963Z</time>
      </trkpt>
      <trkpt lat="40.40782" lon="-1.44345">
        <ele>1140.484442</ele>
        <time>2022-02-23T02:28:04.378Z</time>
      </trkpt>
      <trkpt lat="40.40805" lon="-1.44307">
        <ele>1138.662137</ele>
        <time>2022-02-23T02:28:10.217Z</time>
      </trkpt>
      <trkpt lat="40.40808" lon="-1.44299">
        <ele>1138.302008</ele>
        <time>2022-02-23T02:28:11.371Z</time>
      </trkpt>
      <trkpt lat="40.40805" lon="-1.4429">
        <ele>1137.931627</ele>
        <time>2022-02-23T02:28:12.581Z</time>
      </trkpt>
      <trkpt lat="40.40808" lon="-1.4424">
        <ele>1136.021004</ele>
        <time>2022-02-23T02:28:18.980Z</time>
      </trkpt>
      <trkpt lat="40.40793" lon="-1.44216">
        <ele>1135.103938</ele>
        <time>2022-02-23T02:28:23.342Z</time>
      </trkpt>
      <trkpt lat="40.40799" lon="-1.44202">
        <ele>1135.397848</ele>
        <time>2022-02-23T02:28:26.178Z</time>
      </trkpt>
      <trkpt lat="40.40811" lon="-1.44154">
        <ele>1136.308221</ele>
        <time>2022-02-23T02:28:36.684Z</time>
      </trkpt>
      <trkpt lat="40.40808" lon="-1.44093">
        <ele>1137.393093</ele>
        <time>2022-02-23T02:28:53.089Z</time>
      </trkpt>
      <trkpt lat="40.408" lon="-1.4405">
        <ele>1138.199017</ele>
        <time>2022-02-23T02:29:11.219Z</time>
      </trkpt>
      <trkpt lat="40.40795" lon="-1.44019">
        <ele>1138.772835</ele>
        <time>2022-02-23T02:29:25.505Z</time>
      </trkpt>
      <trkpt lat="40.40796" lon="-1.43994">
        <ele>1139.209924</ele>
        <time>2022-02-23T02:29:32.038Z</time>
      </trkpt>
      <trkpt lat="40.40791" lon="-1.43985">
        <ele>1139.272676</ele>
        <time>2022-02-23T02:29:39.217Z</time>
      </trkpt>
      <trkpt lat="40.40813" lon="-1.43956">
        <ele>1139.343368</ele>
        <time>2022-02-23T02:29:48.178Z</time>
      </trkpt>
      <trkpt lat="40.40795" lon="-1.43943">
        <ele>1139.389611</ele>
        <time>2022-02-23T02:29:53.857Z</time>
      </trkpt>
      <trkpt lat="40.40792" lon="-1.4394">
        <ele>1139.397341</ele>
        <time>2022-02-23T02:29:54.407Z</time>
      </trkpt>
      <trkpt lat="40.40778" lon="-1.43923">
        <ele>1139.441869</ele>
        <time>2022-02-23T02:30:03.307Z</time>
      </trkpt>
      <trkpt lat="40.40775" lon="-1.4389">
        <ele>1139.500221</ele>
        <time>2022-02-23T02:30:07.698Z</time>
      </trkpt>
      <trkpt lat="40.40814" lon="-1.43778">
        <ele>1138.889008</ele>
        <time>2022-02-23T02:30:25.546Z</time>
      </trkpt>
      <trkpt lat="40.40838" lon="-1.43717">
        <ele>1136.753339</ele>
        <time>2022-02-23T02:30:33.901Z</time>
      </trkpt>
      <trkpt lat="40.40843" lon="-1.43705">
        <ele>1136.31358</ele>
        <time>2022-02-23T02:30:35.545Z</time>
      </trkpt>
      <trkpt lat="40.40865" lon="-1.43649">
        <ele>1134.378272</ele>
        <time>2022-02-23T02:30:42.894Z</time>
      </trkpt>
      <trkpt lat="40.40874" lon="-1.43627">
        <ele>1133.629761</ele>
        <time>2022-02-23T02:30:45.833Z</time>
      </trkpt>
      <trkpt lat="40.40905" lon="-1.4357">
        <ele>1132.601415</ele>
        <time>2022-02-23T02:30:55.114Z</time>
      </trkpt>
      <trkpt lat="40.40926" lon="-1.43544">
        <ele>1132.887948</ele>
        <time>2022-02-23T02:31:00.588Z</time>
      </trkpt>
      <trkpt lat="40.4096" lon="-1.43519">
        <ele>1133.279975</ele>
        <time>2022-02-23T02:31:09.834Z</time>
      </trkpt>
      <trkpt lat="40.40974" lon="-1.43497">
        <ele>1133.497715</ele>
        <time>2022-02-23T02:31:16.727Z</time>
      </trkpt>
      <trkpt lat="40.40982" lon="-1.43469">
        <ele>1133.728479</ele>
        <time>2022-02-23T02:31:25.152Z</time>
      </trkpt>
      <trkpt lat="40.40985" lon="-1.43458">
        <ele>1133.819043</ele>
        <time>2022-02-23T02:31:29.339Z</time>
      </trkpt>
      <trkpt lat="40.40991" lon="-1.43423">
        <ele>1134.095409</ele>
        <time>2022-02-23T02:31:41.038Z</time>
      </trkpt>
      <trkpt lat="40.40986" lon="-1.43397">
        <ele>1134.927365</ele>
        <time>2022-02-23T02:31:50.372Z</time>
      </trkpt>
      <trkpt lat="40.40977" lon="-1.43379">
        <ele>1135.897764</ele>
        <time>2022-02-23T02:31:57.311Z</time>
      </trkpt>
      <trkpt lat="40.4097" lon="-1.43372">
        <ele>1136.501461</ele>
        <time>2022-02-23T02:32:02.238Z</time>
      </trkpt>
      <trkpt lat="40.40953" lon="-1.43352">
        <ele>1137.888442</ele>
        <time>2022-02-23T02:32:13.189Z</time>
      </trkpt>
      <trkpt lat="40.40899" lon="-1.43286">
        <ele>1142.412187</ele>
        <time>2022-02-23T02:32:55.049Z</time>
      </trkpt>
      <trkpt lat="40.4084" lon="-1.43145">
        <ele>1149.276085</ele>
        <time>2022-02-23T02:34:07.595Z</time>
      </trkpt>
      <trkpt lat="40.40831" lon="-1.43076">
        <ele>1152.109761</ele>
        <time>2022-02-23T02:34:30.948Z</time>
      </trkpt>
      <trkpt lat="40.40824" lon="-1.43059">
        <ele>1152.864174</ele>
        <time>2022-02-23T02:34:36.725Z</time>
      </trkpt>
      <trkpt lat="40.40791" lon="-1.43019">
        <ele>1155.042256</ele>
        <time>2022-02-23T02:34:54.255Z</time>
      </trkpt>
      <trkpt lat="40.40733" lon="-1.42991">
        <ele>1157.027063</ele>
        <time>2022-02-23T02:35:16.788Z</time>
      </trkpt>
      <trkpt lat="40.40578" lon="-1.42872">
        <ele>1163.233441</ele>
        <time>2022-02-23T02:36:26.608Z</time>
      </trkpt>
      <trkpt lat="40.40527" lon="-1.42825">
        <ele>1165.585876</ele>
        <time>2022-02-23T02:36:51.470Z</time>
      </trkpt>
      <trkpt lat="40.40461" lon="-1.42751">
        <ele>1170.105759</ele>
        <time>2022-02-23T02:37:29.529Z</time>
      </trkpt>
      <trkpt lat="40.40444" lon="-1.42741">
        <ele>1171.341766</ele>
        <time>2022-02-23T02:37:39.485Z</time>
      </trkpt>
      <trkpt lat="40.40393" lon="-1.4273">
        <ele>1174.902883</ele>
        <time>2022-02-23T02:38:10.578Z</time>
      </trkpt>
      <trkpt lat="40.40345" lon="-1.42703">
        <ele>1178.473344</ele>
        <time>2022-02-23T02:38:42.118Z</time>
      </trkpt>
      <trkpt lat="40.40298" lon="-1.42678">
        <ele>1182.349056</ele>
        <time>2022-02-23T02:39:16.162Z</time>
      </trkpt>
      <trkpt lat="40.40215" lon="-1.42671">
        <ele>1188.969626</ele>
        <time>2022-02-23T02:40:11.386Z</time>
      </trkpt>
      <trkpt lat="40.40173" lon="-1.42644">
        <ele>1192.787145</ele>
        <time>2022-02-23T02:40:41.557Z</time>
      </trkpt>
      <trkpt lat="40.40144" lon="-1.42611">
        <ele>1195.263718</ele>
        <time>2022-02-23T02:41:00.644Z</time>
      </trkpt>
      <trkpt lat="40.40084" lon="-1.42509">
        <ele>1200.477584</ele>
        <time>2022-02-23T02:41:44.774Z</time>
      </trkpt>
      <trkpt lat="40.40015" lon="-1.4244">
        <ele>1205.507149</ele>
        <time>2022-02-23T02:42:27.923Z</time>
      </trkpt>
      <trkpt lat="40.40004" lon="-1.4243">
        <ele>1206.412428</ele>
        <time>2022-02-23T02:42:35.044Z</time>
      </trkpt>
      <trkpt lat="40.39985" lon="-1.42426">
        <ele>1207.662158</ele>
        <time>2022-02-23T02:42:44.585Z</time>
      </trkpt>
      <trkpt lat="40.3995" lon="-1.4243">
        <ele>1210.027896</ele>
        <time>2022-02-23T02:43:03.589Z</time>
      </trkpt>
      <trkpt lat="40.39887" lon="-1.42474">
        <ele>1214.789908</ele>
        <time>2022-02-23T02:43:45.161Z</time>
      </trkpt>
      <trkpt lat="40.39866" lon="-1.42496">
        <ele>1216.625783</ele>
        <time>2022-02-23T02:44:04.122Z</time>
      </trkpt>
      <trkpt lat="40.39826" lon="-1.42561">
        <ele>1220.910448</ele>
        <time>2022-02-23T02:44:43.398Z</time>
      </trkpt>
      <trkpt lat="40.39806" lon="-1.42575">
        <ele>1222.373634</ele>
        <time>2022-02-23T02:44:54.521Z</time>
      </trkpt>
      <trkpt lat="40.39785" lon="-1.42579">
        <ele>1223.804452</ele>
        <time>2022-02-23T02:45:07.298Z</time>
      </trkpt>
      <trkpt lat="40.39753" lon="-1.42549">
        <ele>1226.425029</ele>
        <time>2022-02-23T02:45:26.280Z</time>
      </trkpt>
      <trkpt lat="40.3974" lon="-1.42531">
        <ele>1227.697108</ele>
        <time>2022-02-23T02:45:34.504Z</time>
      </trkpt>
      <trkpt lat="40.39721" lon="-1.42465">
        <ele>1230.69809</ele>
        <time>2022-02-23T02:46:01.482Z</time>
      </trkpt>
      <trkpt lat="40.39708" lon="-1.42446">
        <ele>1231.744771</ele>
        <time>2022-02-23T02:46:10.857Z</time>
      </trkpt>
      <trkpt lat="40.39691" lon="-1.42436">
        <ele>1232.8015</ele>
        <time>2022-02-23T02:46:21.546Z</time>
      </trkpt>
      <trkpt lat="40.39622" lon="-1.42421">
        <ele>1236.631113</ele>
        <time>2022-02-23T02:46:53.885Z</time>
      </trkpt>
      <trkpt lat="40.39593" lon="-1.42391">
        <ele>1239.086398</ele>
        <time>2022-02-23T02:47:12.461Z</time>
      </trkpt>
      <trkpt lat="40.39563" lon="-1.42367">
        <ele>1241.894437</ele>
        <time>2022-02-23T02:47:31.363Z</time>
      </trkpt>
      <trkpt lat="40.39471" lon="-1.42343">
        <ele>1249.493313</ele>
        <time>2022-02-23T02:48:32.333Z</time>
      </trkpt>
      <trkpt lat="40.39359" lon="-1.42305">
        <ele>1260.448915</ele>
        <time>2022-02-23T02:49:56.809Z</time>
      </trkpt>
      <trkpt lat="40.39336" lon="-1.42295">
        <ele>1262.902074</ele>
        <time>2022-02-23T02:50:15.949Z</time>
      </trkpt>
      <trkpt lat="40.3926" lon="-1.42244">
        <ele>1271.4151</ele>
        <time>2022-02-23T02:51:16.613Z</time>
      </trkpt>
      <trkpt lat="40.39224" lon="-1.42189">
        <ele>1276.356205</ele>
        <time>2022-02-23T02:51:57.828Z</time>
      </trkpt>
      <trkpt lat="40.39184" lon="-1.42097">
        <ele>1283.60309</ele>
        <time>2022-02-23T02:52:50.898Z</time>
      </trkpt>
      <trkpt lat="40.39111" lon="-1.41949">
        <ele>1292.800433</ele>
        <time>2022-02-23T02:54:10.765Z</time>
      </trkpt>
      <trkpt lat="40.39098" lon="-1.41887">
        <ele>1295.797237</ele>
        <time>2022-02-23T02:54:35.388Z</time>
      </trkpt>
      <trkpt lat="40.39093" lon="-1.41803">
        <ele>1298.269625</ele>
        <time>2022-02-23T02:55:02.202Z</time>
      </trkpt>
      <trkpt lat="40.39102" lon="-1.41625">
        <ele>1300.747498</ele>
        <time>2022-02-23T02:55:39.183Z</time>
      </trkpt>
      <trkpt lat="40.39109" lon="-1.41472">
        <ele>1302.982928</ele>
        <time>2022-02-23T02:56:11.884Z</time>
      </trkpt>
      <trkpt lat="40.39105" lon="-1.41455">
        <ele>1303.246003</ele>
        <time>2022-02-23T02:56:16.472Z</time>
      </trkpt>
      <trkpt lat="40.39026" lon="-1.41262">
        <ele>1308.148563</ele>
        <time>2022-02-23T02:57:21.070Z</time>
      </trkpt>
      <trkpt lat="40.38933" lon="-1.41039">
        <ele>1314.663771</ele>
        <time>2022-02-23T02:58:40.786Z</time>
      </trkpt>
      <trkpt lat="40.38874" lon="-1.40924">
        <ele>1317.418107</ele>
        <time>2022-02-23T02:59:17.007Z</time>
      </trkpt>
      <trkpt lat="40.38847" lon="-1.40764">
        <ele>1319.609819</ele>
        <time>2022-02-23T02:59:53.120Z</time>
      </trkpt>
      <trkpt lat="40.38787" lon="-1.40649">
        <ele>1321.867719</ele>
        <time>2022-02-23T03:00:26.997Z</time>
      </trkpt>
      <trkpt lat="40.38782" lon="-1.40641">
        <ele>1322.039182</ele>
        <time>2022-02-23T03:00:29.779Z</time>
      </trkpt>
      <trkpt lat="40.38775" lon="-1.40627">
        <ele>1322.314063</ele>
        <time>2022-02-23T03:00:33.976Z</time>
      </trkpt>
      <trkpt lat="40.38762" lon="-1.40606">
        <ele>1322.763016</ele>
        <time>2022-02-23T03:00:41.408Z</time>
      </trkpt>
      <trkpt lat="40.38737" lon="-1.40561">
        <ele>1323.681167</ele>
        <time>2022-02-23T03:00:56.610Z</time>
      </trkpt>
      <trkpt lat="40.38726" lon="-1.40542">
        <ele>1324.074296</ele>
        <time>2022-02-23T03:01:03.037Z</time>
      </trkpt>
      <trkpt lat="40.38707" lon="-1.40527">
        <ele>1324.566661</ele>
        <time>2022-02-23T03:01:11.100Z</time>
      </trkpt>
      <trkpt lat="40.38589" lon="-1.4047">
        <ele>1327.303345</ele>
        <time>2022-02-23T03:01:52.522Z</time>
      </trkpt>
      <trkpt lat="40.38494" lon="-1.40423">
        <ele>1329.274481</ele>
        <time>2022-02-23T03:02:22.396Z</time>
      </trkpt>
      <trkpt lat="40.38432" lon="-1.40395">
        <ele>1330.544774</ele>
        <time>2022-02-23T03:02:43.110Z</time>
      </trkpt>
      <trkpt lat="40.38273" lon="-1.40407">
        <ele>1334.82431</ele>
        <time>2022-02-23T03:03:40.666Z</time>
      </trkpt>
      <trkpt lat="40.38059" lon="-1.40286">
        <ele>1342.049579</ele>
        <time>2022-02-23T03:05:08.844Z</time>
      </trkpt>
      <trkpt lat="40.3792" lon="-1.40203">
        <ele>1347.728709</ele>
        <time>2022-02-23T03:06:10.386Z</time>
      </trkpt>
      <trkpt lat="40.37908" lon="-1.40187">
        <ele>1348.348476</ele>
        <time>2022-02-23T03:06:17.308Z</time>
      </trkpt>
      <trkpt lat="40.37866" lon="-1.40176">
        <ele>1350.639344</ele>
        <time>2022-02-23T03:06:43.364Z</time>
      </trkpt>
      <trkpt lat="40.37828" lon="-1.4018">
        <ele>1352.6475</ele>
        <time>2022-02-23T03:07:07.105Z</time>
      </trkpt>
      <trkpt lat="40.37794" lon="-1.40175">
        <ele>1354.511929</ele>
        <time>2022-02-23T03:07:29.953Z</time>
      </trkpt>
      <trkpt lat="40.3777" lon="-1.40177">
        <ele>1355.821373</ele>
        <time>2022-02-23T03:07:45.982Z</time>
      </trkpt>
      <trkpt lat="40.3767" lon="-1.40202">
        <ele>1361.536651</ele>
        <time>2022-02-23T03:08:55.120Z</time>
      </trkpt>
      <trkpt lat="40.37589" lon="-1.40216">
        <ele>1366.258612</ele>
        <time>2022-02-23T03:09:50.233Z</time>
      </trkpt>
      <trkpt lat="40.37566" lon="-1.40227">
        <ele>1367.71216</ele>
        <time>2022-02-23T03:10:06.662Z</time>
      </trkpt>
      <trkpt lat="40.37533" lon="-1.40227">
        <ele>1369.262139</ele>
        <time>2022-02-23T03:10:26.743Z</time>
      </trkpt>
      <trkpt lat="40.37206" lon="-1.40067">
        <ele>1382.509974</ele>
        <time>2022-02-23T03:13:40.710Z</time>
      </trkpt>
      <trkpt lat="40.37148" lon="-1.40044">
        <ele>1384.299401</ele>
        <time>2022-02-23T03:14:12.227Z</time>
      </trkpt>
      <trkpt lat="40.37115" lon="-1.4002">
        <ele>1385.434842</ele>
        <time>2022-02-23T03:14:32.102Z</time>
      </trkpt>
      <trkpt lat="40.37103" lon="-1.4">
        <ele>1386.016147</ele>
        <time>2022-02-23T03:14:42.201Z</time>
      </trkpt>
      <trkpt lat="40.37074" lon="-1.39979">
        <ele>1386.990069</ele>
        <time>2022-02-23T03:14:58.712Z</time>
      </trkpt>
      <trkpt lat="40.37006" lon="-1.39971">
        <ele>1389.292188</ele>
        <time>2022-02-23T03:15:32.963Z</time>
      </trkpt>
      <trkpt lat="40.36962" lon="-1.39956">
        <ele>1390.883508</ele>
        <time>2022-02-23T03:15:57.235Z</time>
      </trkpt>
      <trkpt lat="40.36952" lon="-1.3989">
        <ele>1392.696426</ele>
        <time>2022-02-23T03:16:26.591Z</time>
      </trkpt>
      <trkpt lat="40.36943" lon="-1.39868">
        <ele>1393.363552</ele>
        <time>2022-02-23T03:16:37.560Z</time>
      </trkpt>
      <trkpt lat="40.36923" lon="-1.39834">
        <ele>1394.713173</ele>
        <time>2022-02-23T03:16:56.279Z</time>
      </trkpt>
      <trkpt lat="40.36897" lon="-1.39808">
        <ele>1396.329383</ele>
        <time>2022-02-23T03:17:15.811Z</time>
      </trkpt>
      <trkpt lat="40.36846" lon="-1.39732">
        <ele>1400.122029</ele>
        <time>2022-02-23T03:18:03.320Z</time>
      </trkpt>
      <trkpt lat="40.3682" lon="-1.39707">
        <ele>1401.69835</ele>
        <time>2022-02-23T03:18:24.402Z</time>
      </trkpt>
      <trkpt lat="40.36799" lon="-1.39648">
        <ele>1404.199044</ele>
        <time>2022-02-23T03:18:56.667Z</time>
      </trkpt>
      <trkpt lat="40.36787" lon="-1.396">
        <ele>1406.130988</ele>
        <time>2022-02-23T03:19:21.093Z</time>
      </trkpt>
      <trkpt lat="40.3677" lon="-1.39569">
        <ele>1407.606079</ele>
        <time>2022-02-23T03:19:39.635Z</time>
      </trkpt>
      <trkpt lat="40.36759" lon="-1.39535">
        <ele>1409.04832</ele>
        <time>2022-02-23T03:19:57.089Z</time>
      </trkpt>
      <trkpt lat="40.36751" lon="-1.39494">
        <ele>1410.678736</ele>
        <time>2022-02-23T03:20:16.408Z</time>
      </trkpt>
      <trkpt lat="40.3675" lon="-1.39459">
        <ele>1412.069667</ele>
        <time>2022-02-23T03:20:32.227Z</time>
      </trkpt>
      <trkpt lat="40.36757" lon="-1.39401">
        <ele>1414.418387</ele>
        <time>2022-02-23T03:20:59.914Z</time>
      </trkpt>
      <trkpt lat="40.36771" lon="-1.39385">
        <ele>1415.380514</ele>
        <time>2022-02-23T03:21:10.843Z</time>
      </trkpt>
      <trkpt lat="40.36869" lon="-1.39348">
        <ele>1420.714303</ele>
        <time>2022-02-23T03:22:11.520Z</time>
      </trkpt>
      <trkpt lat="40.36867" lon="-1.39331">
        <ele>1421.434252</ele>
        <time>2022-02-23T03:22:21.738Z</time>
      </trkpt>
      <trkpt lat="40.36775" lon="-1.39226">
        <ele>1432.935955</ele>
        <time>2022-02-23T03:24:01.346Z</time>
      </trkpt>
      <trkpt lat="40.36742" lon="-1.39169">
        <ele>1438.124817</ele>
        <time>2022-02-23T03:24:54.218Z</time>
      </trkpt>
      <trkpt lat="40.36677" lon="-1.39075">
        <ele>1448.124794</ele>
        <time>2022-02-23T03:26:27.172Z</time>
      </trkpt>
      <trkpt lat="40.3662" lon="-1.39021">
        <ele>1455.36576</ele>
        <time>2022-02-23T03:27:28.004Z</time>
      </trkpt>
      <trkpt lat="40.36612" lon="-1.38999">
        <ele>1457.168152</ele>
        <time>2022-02-23T03:27:41.319Z</time>
      </trkpt>
      <trkpt lat="40.36566" lon="-1.3894">
        <ele>1461.388139</ele>
        <time>2022-02-23T03:28:27.889Z</time>
      </trkpt>
      <trkpt lat="40.36549" lon="-1.38926">
        <ele>1462.692997</ele>
        <time>2022-02-23T03:28:41.271Z</time>
      </trkpt>
      <trkpt lat="40.36532" lon="-1.38918">
        <ele>1463.891298</ele>
        <time>2022-02-23T03:28:53.451Z</time>
      </trkpt>
      <trkpt lat="40.36519" lon="-1.3892">
        <ele>1464.784337</ele>
        <time>2022-02-23T03:29:02.103Z</time>
      </trkpt>
      <trkpt lat="40.36462" lon="-1.38964">
        <ele>1469.101278</ele>
        <time>2022-02-23T03:29:45.034Z</time>
      </trkpt>
      <trkpt lat="40.36442" lon="-1.38968">
        <ele>1470.373637</ele>
        <time>2022-02-23T03:29:59.032Z</time>
      </trkpt>
      <trkpt lat="40.36346" lon="-1.3893">
        <ele>1476.59767</ele>
        <time>2022-02-23T03:31:08.829Z</time>
      </trkpt>
      <trkpt lat="40.36335" lon="-1.38917">
        <ele>1477.533992</ele>
        <time>2022-02-23T03:31:18.827Z</time>
      </trkpt>
      <trkpt lat="40.36331" lon="-1.389">
        <ele>1478.363529</ele>
        <time>2022-02-23T03:31:29.377Z</time>
      </trkpt>
      <trkpt lat="40.36334" lon="-1.38887">
        <ele>1479.023908</ele>
        <time>2022-02-23T03:31:36.619Z</time>
      </trkpt>
      <trkpt lat="40.36417" lon="-1.38765">
        <ele>1484.832072</ele>
        <time>2022-02-23T03:32:56.379Z</time>
      </trkpt>
      <trkpt lat="40.3642" lon="-1.3875">
        <ele>1485.344776</ele>
        <time>2022-02-23T03:33:04.323Z</time>
      </trkpt>
      <trkpt lat="40.36409" lon="-1.3873">
        <ele>1486.172932</ele>
        <time>2022-02-23T03:33:14.630Z</time>
      </trkpt>
      <trkpt lat="40.36362" lon="-1.38711">
        <ele>1487.850916</ele>
        <time>2022-02-23T03:33:39.747Z</time>
      </trkpt>
      <trkpt lat="40.3631" lon="-1.38714">
        <ele>1487.127743</ele>
        <time>2022-02-23T03:33:59.341Z</time>
      </trkpt>
      <trkpt lat="40.36279" lon="-1.38724">
        <ele>1486.688007</ele>
        <time>2022-02-23T03:34:10.315Z</time>
      </trkpt>
      <trkpt lat="40.36254" lon="-1.3871">
        <ele>1486.309107</ele>
        <time>2022-02-23T03:34:19.027Z</time>
      </trkpt>
      <trkpt lat="40.36235" lon="-1.38665">
        <ele>1485.762863</ele>
        <time>2022-02-23T03:34:30.919Z</time>
      </trkpt>
      <trkpt lat="40.36216" lon="-1.38647">
        <ele>1485.37014</ele>
        <time>2022-02-23T03:34:37.737Z</time>
      </trkpt>
      <trkpt lat="40.36169" lon="-1.38635">
        <ele>1483.238017</ele>
        <time>2022-02-23T03:34:51.913Z</time>
      </trkpt>
      <trkpt lat="40.36095" lon="-1.38655">
        <ele>1479.884996</ele>
        <time>2022-02-23T03:35:13.502Z</time>
      </trkpt>
      <trkpt lat="40.36037" lon="-1.38645">
        <ele>1477.424318</ele>
        <time>2022-02-23T03:35:30.599Z</time>
      </trkpt>
      <trkpt lat="40.35992" lon="-1.38655">
        <ele>1476.471501</ele>
        <time>2022-02-23T03:35:44.645Z</time>
      </trkpt>
      <trkpt lat="40.35931" lon="-1.38625">
        <ele>1475.123621</ele>
        <time>2022-02-23T03:36:05.655Z</time>
      </trkpt>
      <trkpt lat="40.35873" lon="-1.38569">
        <ele>1473.761235</ele>
        <time>2022-02-23T03:36:30.590Z</time>
      </trkpt>
      <trkpt lat="40.35841" lon="-1.3855">
        <ele>1473.739916</ele>
        <time>2022-02-23T03:36:43.252Z</time>
      </trkpt>
      <trkpt lat="40.35801" lon="-1.38543">
        <ele>1473.715258</ele>
        <time>2022-02-23T03:36:58.179Z</time>
      </trkpt>
      <trkpt lat="40.35731" lon="-1.38546">
        <ele>1473.672899</ele>
        <time>2022-02-23T03:37:25.026Z</time>
      </trkpt>
      <trkpt lat="40.35698" lon="-1.3853">
        <ele>1473.623335</ele>
        <time>2022-02-23T03:37:38.938Z</time>
      </trkpt>
      <trkpt lat="40.3565" lon="-1.38496">
        <ele>1473.394102</ele>
        <time>2022-02-23T03:38:00.304Z</time>
      </trkpt>
      <trkpt lat="40.35611" lon="-1.3849">
        <ele>1473.229754</ele>
        <time>2022-02-23T03:38:14.822Z</time>
      </trkpt>
      <trkpt lat="40.35559" lon="-1.38502">
        <ele>1473.008826</ele>
        <time>2022-02-23T03:38:32.839Z</time>
      </trkpt>
      <trkpt lat="40.35539" lon="-1.38494">
        <ele>1472.922153</ele>
        <time>2022-02-23T03:38:39.816Z</time>
      </trkpt>
      <trkpt lat="40.35515" lon="-1.38492">
        <ele>1472.471731</ele>
        <time>2022-02-23T03:38:48.058Z</time>
      </trkpt>
      <trkpt lat="40.35485" lon="-1.38469">
        <ele>1471.724572</ele>
        <time>2022-02-23T03:38:59.506Z</time>
      </trkpt>
      <trkpt lat="40.35452" lon="-1.38462">
        <ele>1470.996046</ele>
        <time>2022-02-23T03:39:10.438Z</time>
      </trkpt>
      <trkpt lat="40.35447" lon="-1.38472">
        <ele>1470.799332</ele>
        <time>2022-02-23T03:39:13.441Z</time>
      </trkpt>
      <trkpt lat="40.35447" lon="-1.38472">
        <ele>1470.799332</ele>
        <time>2022-02-23T03:39:13.451Z</time>
      </trkpt>
      <trkpt lat="40.35461" lon="-1.38506">
        <ele>1470.160242</ele>
        <time>2022-02-23T03:39:23.050Z</time>
      </trkpt>
      <trkpt lat="40.35453" lon="-1.38528">
        <ele>1469.759973</ele>
        <time>2022-02-23T03:39:28.955Z</time>
      </trkpt>
      <trkpt lat="40.35445" lon="-1.38537">
        <ele>1469.539967</ele>
        <time>2022-02-23T03:39:32.235Z</time>
      </trkpt>
      <trkpt lat="40.35378" lon="-1.38517">
        <ele>1466.910298</ele>
        <time>2022-02-23T03:39:52.737Z</time>
      </trkpt>
      <trkpt lat="40.35333" lon="-1.38516">
        <ele>1464.764169</ele>
        <time>2022-02-23T03:40:05.793Z</time>
      </trkpt>
      <trkpt lat="40.353" lon="-1.38478">
        <ele>1462.649541</ele>
        <time>2022-02-23T03:40:18.468Z</time>
      </trkpt>
      <trkpt lat="40.35274" lon="-1.38474">
        <ele>1461.409339</ele>
        <time>2022-02-23T03:40:25.806Z</time>
      </trkpt>
      <trkpt lat="40.35251" lon="-1.38492">
        <ele>1460.069374</ele>
        <time>2022-02-23T03:40:33.310Z</time>
      </trkpt>
      <trkpt lat="40.35171" lon="-1.38507">
        <ele>1455.422433</ele>
        <time>2022-02-23T03:40:56.156Z</time>
      </trkpt>
      <trkpt lat="40.35136" lon="-1.38495">
        <ele>1453.315337</ele>
        <time>2022-02-23T03:41:06.193Z</time>
      </trkpt>
      <trkpt lat="40.35085" lon="-1.38453">
        <ele>1449.879598</ele>
        <time>2022-02-23T03:41:22.958Z</time>
      </trkpt>
      <trkpt lat="40.35074" lon="-1.38449">
        <ele>1449.251052</ele>
        <time>2022-02-23T03:41:26.476Z</time>
      </trkpt>
      <trkpt lat="40.35033" lon="-1.38458">
        <ele>1447.094832</ele>
        <time>2022-02-23T03:41:38.529Z</time>
      </trkpt>
      <trkpt lat="40.35009" lon="-1.38458">
        <ele>1445.863525</ele>
        <time>2022-02-23T03:41:45.200Z</time>
      </trkpt>
      <trkpt lat="40.34969" lon="-1.38447">
        <ele>1443.7246</ele>
        <time>2022-02-23T03:41:57.108Z</time>
      </trkpt>
      <trkpt lat="40.3495" lon="-1.38429">
        <ele>1442.530697</ele>
        <time>2022-02-23T03:42:03.744Z</time>
      </trkpt>
      <trkpt lat="40.34924" lon="-1.38424">
        <ele>1441.14468</ele>
        <time>2022-02-23T03:42:11.464Z</time>
      </trkpt>
      <trkpt lat="40.34877" lon="-1.38398">
        <ele>1438.569323</ele>
        <time>2022-02-23T03:42:25.547Z</time>
      </trkpt>
      <trkpt lat="40.34861" lon="-1.38395">
        <ele>1437.754391</ele>
        <time>2022-02-23T03:42:30.147Z</time>
      </trkpt>
      <trkpt lat="40.34824" lon="-1.38395">
        <ele>1435.895348</ele>
        <time>2022-02-23T03:42:40.892Z</time>
      </trkpt>
      <trkpt lat="40.34784" lon="-1.38414">
        <ele>1433.777533</ele>
        <time>2022-02-23T03:42:53.279Z</time>
      </trkpt>
      <trkpt lat="40.34745" lon="-1.3842">
        <ele>1431.843594</ele>
        <time>2022-02-23T03:43:04.647Z</time>
      </trkpt>
      <trkpt lat="40.34731" lon="-1.38419">
        <ele>1431.158821</ele>
        <time>2022-02-23T03:43:08.986Z</time>
      </trkpt>
      <trkpt lat="40.34688" lon="-1.38396">
        <ele>1429.124946</ele>
        <time>2022-02-23T03:43:22.707Z</time>
      </trkpt>
      <trkpt lat="40.34681" lon="-1.38398">
        <ele>1428.800807</ele>
        <time>2022-02-23T03:43:24.976Z</time>
      </trkpt>
      <trkpt lat="40.34665" lon="-1.38436">
        <ele>1427.352837</ele>
        <time>2022-02-23T03:43:34.399Z</time>
      </trkpt>
      <trkpt lat="40.3464" lon="-1.3848">
        <ele>1425.49464</ele>
        <time>2022-02-23T03:43:46.647Z</time>
      </trkpt>
      <trkpt lat="40.3459" lon="-1.38498">
        <ele>1423.268374</ele>
        <time>2022-02-23T03:44:02.128Z</time>
      </trkpt>
      <trkpt lat="40.34559" lon="-1.38534">
        <ele>1421.573395</ele>
        <time>2022-02-23T03:44:14.339Z</time>
      </trkpt>
      <trkpt lat="40.34532" lon="-1.38589">
        <ele>1419.561823</ele>
        <time>2022-02-23T03:44:28.966Z</time>
      </trkpt>
      <trkpt lat="40.34517" lon="-1.38603">
        <ele>1418.787378</ele>
        <time>2022-02-23T03:44:34.619Z</time>
      </trkpt>
      <trkpt lat="40.34466" lon="-1.3863">
        <ele>1416.554433</ele>
        <time>2022-02-23T03:44:50.830Z</time>
      </trkpt>
      <trkpt lat="40.34416" lon="-1.38679">
        <ele>1414.903964</ele>
        <time>2022-02-23T03:45:10.024Z</time>
      </trkpt>
      <trkpt lat="40.34366" lon="-1.3877">
        <ele>1412.702836</ele>
        <time>2022-02-23T03:45:37.245Z</time>
      </trkpt>
      <trkpt lat="40.34323" lon="-1.38878">
        <ele>1410.055057</ele>
        <time>2022-02-23T03:46:08.273Z</time>
      </trkpt>
      <trkpt lat="40.34298" lon="-1.38905">
        <ele>1409.084641</ele>
        <time>2022-02-23T03:46:18.712Z</time>
      </trkpt>
      <trkpt lat="40.3427" lon="-1.38877">
        <ele>1408.037951</ele>
        <time>2022-02-23T03:46:29.856Z</time>
      </trkpt>
      <trkpt lat="40.34244" lon="-1.3887">
        <ele>1407.227549</ele>
        <time>2022-02-23T03:46:38.144Z</time>
      </trkpt>
      <trkpt lat="40.34224" lon="-1.38883">
        <ele>1406.53954</ele>
        <time>2022-02-23T03:46:44.889Z</time>
      </trkpt>
      <trkpt lat="40.34166" lon="-1.39003">
        <ele>1398.057035</ele>
        <time>2022-02-23T03:47:14.313Z</time>
      </trkpt>
      <trkpt lat="40.34148" lon="-1.39012">
        <ele>1396.46741</ele>
        <time>2022-02-23T03:47:19.372Z</time>
      </trkpt>
      <trkpt lat="40.34121" lon="-1.39043">
        <ele>1393.585983</ele>
        <time>2022-02-23T03:47:28.451Z</time>
      </trkpt>
      <trkpt lat="40.34067" lon="-1.39066">
        <ele>1388.359103</ele>
        <time>2022-02-23T03:47:42.944Z</time>
      </trkpt>
      <trkpt lat="40.33924" lon="-1.39099">
        <ele>1374.132577</ele>
        <time>2022-02-23T03:48:20.183Z</time>
      </trkpt>
      <trkpt lat="40.33821" lon="-1.39088">
        <ele>1368.267832</ele>
        <time>2022-02-23T03:48:48.770Z</time>
      </trkpt>
      <trkpt lat="40.33806" lon="-1.39078">
        <ele>1367.325946</ele>
        <time>2022-02-23T03:48:53.551Z</time>
      </trkpt>
      <trkpt lat="40.33774" lon="-1.39037">
        <ele>1364.806929</ele>
        <time>2022-02-23T03:49:06.883Z</time>
      </trkpt>
      <trkpt lat="40.337" lon="-1.39007">
        <ele>1363.31179</ele>
        <time>2022-02-23T03:49:31.420Z</time>
      </trkpt>
      <trkpt lat="40.33677" lon="-1.38987">
        <ele>1363.043427</ele>
        <time>2022-02-23T03:49:40.960Z</time>
      </trkpt>
      <trkpt lat="40.33617" lon="-1.38953">
        <ele>1362.410298</ele>
        <time>2022-02-23T03:50:05.545Z</time>
      </trkpt>
      <trkpt lat="40.3359" lon="-1.38928">
        <ele>1362.205582</ele>
        <time>2022-02-23T03:50:18.884Z</time>
      </trkpt>
      <trkpt lat="40.33537" lon="-1.3886">
        <ele>1362.551554</ele>
        <time>2022-02-23T03:50:49.864Z</time>
      </trkpt>
      <trkpt lat="40.33521" lon="-1.38831">
        <ele>1362.678758</ele>
        <time>2022-02-23T03:51:01.000Z</time>
      </trkpt>
      <trkpt lat="40.33499" lon="-1.38733">
        <ele>1362.91729</ele>
        <time>2022-02-23T03:51:31.054Z</time>
      </trkpt>
      <trkpt lat="40.33484" lon="-1.38639">
        <ele>1361.940659</ele>
        <time>2022-02-23T03:51:56.449Z</time>
      </trkpt>
      <trkpt lat="40.33448" lon="-1.38518">
        <ele>1360.609363</ele>
        <time>2022-02-23T03:52:29.131Z</time>
      </trkpt>
      <trkpt lat="40.33423" lon="-1.38463">
        <ele>1358.859679</ele>
        <time>2022-02-23T03:52:44.510Z</time>
      </trkpt>
      <trkpt lat="40.33432" lon="-1.38293">
        <ele>1354.112816</ele>
        <time>2022-02-23T03:53:23.445Z</time>
      </trkpt>
      <trkpt lat="40.33418" lon="-1.38232">
        <ele>1350.892315</ele>
        <time>2022-02-23T03:53:37.185Z</time>
      </trkpt>
      <trkpt lat="40.33415" lon="-1.38172">
        <ele>1347.834739</ele>
        <time>2022-02-23T03:53:49.682Z</time>
      </trkpt>
      <trkpt lat="40.33395" lon="-1.38106">
        <ele>1344.187348</ele>
        <time>2022-02-23T03:54:04.262Z</time>
      </trkpt>
      <trkpt lat="40.33329" lon="-1.38002">
        <ele>1336.338128</ele>
        <time>2022-02-23T03:54:31.836Z</time>
      </trkpt>
      <trkpt lat="40.33312" lon="-1.37966">
        <ele>1333.738799</ele>
        <time>2022-02-23T03:54:40.403Z</time>
      </trkpt>
      <trkpt lat="40.33259" lon="-1.37938">
        <ele>1329.164216</ele>
        <time>2022-02-23T03:54:55.462Z</time>
      </trkpt>
      <trkpt lat="40.33234" lon="-1.37914">
        <ele>1326.72417</ele>
        <time>2022-02-23T03:55:03.630Z</time>
      </trkpt>
      <trkpt lat="40.33157" lon="-1.37865">
        <ele>1320.11595</ele>
        <time>2022-02-23T03:55:26.704Z</time>
      </trkpt>
      <trkpt lat="40.33086" lon="-1.37795">
        <ele>1313.312372</ele>
        <time>2022-02-23T03:55:50.491Z</time>
      </trkpt>
      <trkpt lat="40.33064" lon="-1.37763">
        <ele>1311.274641</ele>
        <time>2022-02-23T03:55:59.510Z</time>
      </trkpt>
      <trkpt lat="40.33049" lon="-1.37723">
        <ele>1309.177153</ele>
        <time>2022-02-23T03:56:08.964Z</time>
      </trkpt>
      <trkpt lat="40.33014" lon="-1.37711">
        <ele>1306.927274</ele>
        <time>2022-02-23T03:56:19.230Z</time>
      </trkpt>
      <trkpt lat="40.33005" lon="-1.37666">
        <ele>1304.74904</ele>
        <time>2022-02-23T03:56:24.760Z</time>
      </trkpt>
      <trkpt lat="40.32976" lon="-1.37597">
        <ele>1301.337201</ele>
        <time>2022-02-23T03:56:34.133Z</time>
      </trkpt>
      <trkpt lat="40.32946" lon="-1.37539">
        <ele>1298.646694</ele>
        <time>2022-02-23T03:56:42.446Z</time>
      </trkpt>
      <trkpt lat="40.32861" lon="-1.37398">
        <ele>1292.515631</ele>
        <time>2022-02-23T03:57:04.475Z</time>
      </trkpt>
      <trkpt lat="40.32852" lon="-1.37373">
        <ele>1291.903062</ele>
        <time>2022-02-23T03:57:07.907Z</time>
      </trkpt>
      <trkpt lat="40.32847" lon="-1.37342">
        <ele>1291.220969</ele>
        <time>2022-02-23T03:57:11.953Z</time>
      </trkpt>
      <trkpt lat="40.32848" lon="-1.37314">
        <ele>1290.618705</ele>
        <time>2022-02-23T03:57:15.511Z</time>
      </trkpt>
      <trkpt lat="40.32864" lon="-1.37268">
        <ele>1289.531519</ele>
        <time>2022-02-23T03:57:22.106Z</time>
      </trkpt>
      <trkpt lat="40.32895" lon="-1.37233">
        <ele>1288.388159</ele>
        <time>2022-02-23T03:57:29.941Z</time>
      </trkpt>
      <trkpt lat="40.33012" lon="-1.37164">
        <ele>1290.58709</ele>
        <time>2022-02-23T03:58:13.757Z</time>
      </trkpt>
      <trkpt lat="40.33051" lon="-1.37129">
        <ele>1291.39119</ele>
        <time>2022-02-23T03:58:30.528Z</time>
      </trkpt>
      <trkpt lat="40.33118" lon="-1.37057">
        <ele>1290.162571</ele>
        <time>2022-02-23T03:58:54.882Z</time>
      </trkpt>
      <trkpt lat="40.33238" lon="-1.36928">
        <ele>1285.652245</ele>
        <time>2022-02-23T03:59:20.370Z</time>
      </trkpt>
      <trkpt lat="40.33261" lon="-1.36904">
        <ele>1284.163978</ele>
        <time>2022-02-23T03:59:24.818Z</time>
      </trkpt>
      <trkpt lat="40.33316" lon="-1.36828">
        <ele>1280.081659</ele>
        <time>2022-02-23T03:59:37.289Z</time>
      </trkpt>
      <trkpt lat="40.33356" lon="-1.36752">
        <ele>1276.344191</ele>
        <time>2022-02-23T03:59:48.314Z</time>
      </trkpt>
      <trkpt lat="40.3338" lon="-1.36635">
        <ele>1271.438851</ele>
        <time>2022-02-23T04:00:03.203Z</time>
      </trkpt>
      <trkpt lat="40.33422" lon="-1.36507">
        <ele>1264.177781</ele>
        <time>2022-02-23T04:00:19.350Z</time>
      </trkpt>
      <trkpt lat="40.33427" lon="-1.36482">
        <ele>1262.761898</ele>
        <time>2022-02-23T04:00:22.145Z</time>
      </trkpt>
      <trkpt lat="40.33431" lon="-1.3629">
        <ele>1253.214255</ele>
        <time>2022-02-23T04:00:43.581Z</time>
      </trkpt>
      <trkpt lat="40.33427" lon="-1.36218">
        <ele>1250.211068</ele>
        <time>2022-02-23T04:00:52.168Z</time>
      </trkpt>
      <trkpt lat="40.33375" lon="-1.36117">
        <ele>1246.754374</ele>
        <time>2022-02-23T04:01:20.717Z</time>
      </trkpt>
      <trkpt lat="40.3328" lon="-1.3596">
        <ele>1246.289739</ele>
        <time>2022-02-23T04:02:20.488Z</time>
      </trkpt>
      <trkpt lat="40.33154" lon="-1.358">
        <ele>1248.030664</ele>
        <time>2022-02-23T04:03:35.676Z</time>
      </trkpt>
      <trkpt lat="40.3312" lon="-1.35772">
        <ele>1248.382392</ele>
        <time>2022-02-23T04:03:51.578Z</time>
      </trkpt>
      <trkpt lat="40.33036" lon="-1.35657">
        <ele>1249.465394</ele>
        <time>2022-02-23T04:04:38.474Z</time>
      </trkpt>
      <trkpt lat="40.33018" lon="-1.35619">
        <ele>1250.434379</ele>
        <time>2022-02-23T04:04:54.618Z</time>
      </trkpt>
      <trkpt lat="40.32993" lon="-1.35591">
        <ele>1252.110984</ele>
        <time>2022-02-23T04:05:11.797Z</time>
      </trkpt>
      <trkpt lat="40.32939" lon="-1.35555">
        <ele>1255.21559</ele>
        <time>2022-02-23T04:05:49.425Z</time>
      </trkpt>
      <trkpt lat="40.32796" lon="-1.35537">
        <ele>1264.068121</ele>
        <time>2022-02-23T04:07:37.023Z</time>
      </trkpt>
      <trkpt lat="40.32753" lon="-1.35548">
        <ele>1267.166183</ele>
        <time>2022-02-23T04:08:10.229Z</time>
      </trkpt>
      <trkpt lat="40.32712" lon="-1.35591">
        <ele>1270.955532</ele>
        <time>2022-02-23T04:08:47.641Z</time>
      </trkpt>
      <trkpt lat="40.32692" lon="-1.356">
        <ele>1272.328348</ele>
        <time>2022-02-23T04:09:02.310Z</time>
      </trkpt>
      <trkpt lat="40.32677" lon="-1.35546">
        <ele>1274.744291</ele>
        <time>2022-02-23T04:09:31.095Z</time>
      </trkpt>
      <trkpt lat="40.32652" lon="-1.35516">
        <ele>1276.597956</ele>
        <time>2022-02-23T04:09:51.923Z</time>
      </trkpt>
      <trkpt lat="40.32614" lon="-1.3549">
        <ele>1278.916502</ele>
        <time>2022-02-23T04:10:17.227Z</time>
      </trkpt>
      <trkpt lat="40.32552" lon="-1.35473">
        <ele>1282.599852</ele>
        <time>2022-02-23T04:10:57.731Z</time>
      </trkpt>
      <trkpt lat="40.32525" lon="-1.35459">
        <ele>1284.590331</ele>
        <time>2022-02-23T04:11:17.786Z</time>
      </trkpt>
      <trkpt lat="40.32497" lon="-1.35431">
        <ele>1287.0434</ele>
        <time>2022-02-23T04:11:43.451Z</time>
      </trkpt>
      <trkpt lat="40.32453" lon="-1.35374">
        <ele>1291.33836</ele>
        <time>2022-02-23T04:12:29.882Z</time>
      </trkpt>
      <trkpt lat="40.32429" lon="-1.35364">
        <ele>1293.120787</ele>
        <time>2022-02-23T04:12:48.939Z</time>
      </trkpt>
      <trkpt lat="40.32378" lon="-1.35323">
        <ele>1297.267392</ele>
        <time>2022-02-23T04:13:33.149Z</time>
      </trkpt>
      <trkpt lat="40.3228" lon="-1.35233">
        <ele>1305.753744</ele>
        <time>2022-02-23T04:15:00.820Z</time>
      </trkpt>
      <trkpt lat="40.32181" lon="-1.3518">
        <ele>1312.217205</ele>
        <time>2022-02-23T04:16:11.980Z</time>
      </trkpt>
      <trkpt lat="40.32155" lon="-1.35129">
        <ele>1315.016171</ele>
        <time>2022-02-23T04:16:41.221Z</time>
      </trkpt>
      <trkpt lat="40.32141" lon="-1.35123">
        <ele>1315.865807</ele>
        <time>2022-02-23T04:16:50.795Z</time>
      </trkpt>
      <trkpt lat="40.3213" lon="-1.35116">
        <ele>1316.588855</ele>
        <time>2022-02-23T04:16:58.399Z</time>
      </trkpt>
      <trkpt lat="40.32113" lon="-1.35123">
        <ele>1317.74078</ele>
        <time>2022-02-23T04:17:10.455Z</time>
      </trkpt>
      <trkpt lat="40.32011" lon="-1.35127">
        <ele>1325.729588</ele>
        <time>2022-02-23T04:18:24.687Z</time>
      </trkpt>
      <trkpt lat="40.31967" lon="-1.35118">
        <ele>1329.273421</ele>
        <time>2022-02-23T04:19:03.136Z</time>
      </trkpt>
      <trkpt lat="40.31814" lon="-1.35073">
        <ele>1342.297135</ele>
        <time>2022-02-23T04:21:11.987Z</time>
      </trkpt>
      <trkpt lat="40.31753" lon="-1.35062">
        <ele>1347.143458</ele>
        <time>2022-02-23T04:21:58.672Z</time>
      </trkpt>
      <trkpt lat="40.31629" lon="-1.35067">
        <ele>1353.131302</ele>
        <time>2022-02-23T04:23:18.416Z</time>
      </trkpt>
      <trkpt lat="40.31531" lon="-1.3506">
        <ele>1355.542924</ele>
        <time>2022-02-23T04:24:05.590Z</time>
      </trkpt>
      <trkpt lat="40.31521" lon="-1.3502">
        <ele>1355.64065</ele>
        <time>2022-02-23T04:24:18.658Z</time>
      </trkpt>
      <trkpt lat="40.31517" lon="-1.35006">
        <ele>1355.676812</ele>
        <time>2022-02-23T04:24:23.654Z</time>
      </trkpt>
      <trkpt lat="40.3151" lon="-1.34992">
        <ele>1355.715659</ele>
        <time>2022-02-23T04:24:28.077Z</time>
      </trkpt>
      <trkpt lat="40.31484" lon="-1.34972">
        <ele>1355.810212</ele>
        <time>2022-02-23T04:24:39.262Z</time>
      </trkpt>
      <trkpt lat="40.31374" lon="-1.34931">
        <ele>1353.743121</ele>
        <time>2022-02-23T04:25:16.092Z</time>
      </trkpt>
      <trkpt lat="40.31328" lon="-1.34926">
        <ele>1352.360268</ele>
        <time>2022-02-23T04:25:30.168Z</time>
      </trkpt>
      <trkpt lat="40.31239" lon="-1.34942">
        <ele>1348.970786</ele>
        <time>2022-02-23T04:25:57.089Z</time>
      </trkpt>
      <trkpt lat="40.31208" lon="-1.34942">
        <ele>1347.36417</ele>
        <time>2022-02-23T04:26:05.944Z</time>
      </trkpt>
      <trkpt lat="40.31181" lon="-1.34934">
        <ele>1345.891914</ele>
        <time>2022-02-23T04:26:13.938Z</time>
      </trkpt>
      <trkpt lat="40.31109" lon="-1.3489">
        <ele>1341.695124</ele>
        <time>2022-02-23T04:26:36.342Z</time>
      </trkpt>
      <trkpt lat="40.31066" lon="-1.34852">
        <ele>1338.448252</ele>
        <time>2022-02-23T04:26:50.648Z</time>
      </trkpt>
      <trkpt lat="40.30942" lon="-1.34671">
        <ele>1325.998814</ele>
        <time>2022-02-23T04:27:41.593Z</time>
      </trkpt>
      <trkpt lat="40.30922" lon="-1.34585">
        <ele>1321.093382</ele>
        <time>2022-02-23T04:28:00.384Z</time>
      </trkpt>
      <trkpt lat="40.30922" lon="-1.34503">
        <ele>1316.676506</ele>
        <time>2022-02-23T04:28:17.252Z</time>
      </trkpt>
      <trkpt lat="40.30904" lon="-1.34364">
        <ele>1307.386181</ele>
        <time>2022-02-23T04:28:45.856Z</time>
      </trkpt>
      <trkpt lat="40.3091" lon="-1.34033">
        <ele>1283.975384</ele>
        <time>2022-02-23T04:29:51.238Z</time>
      </trkpt>
      <trkpt lat="40.30901" lon="-1.33915">
        <ele>1277.77217</ele>
        <time>2022-02-23T04:30:15.314Z</time>
      </trkpt>
      <trkpt lat="40.30903" lon="-1.33866">
        <ele>1275.23087</ele>
        <time>2022-02-23T04:30:25.674Z</time>
      </trkpt>
      <trkpt lat="40.30847" lon="-1.33714">
        <ele>1268.294519</ele>
        <time>2022-02-23T04:31:03.041Z</time>
      </trkpt>
      <trkpt lat="40.308" lon="-1.3362">
        <ele>1264.626623</ele>
        <time>2022-02-23T04:31:28.573Z</time>
      </trkpt>
      <trkpt lat="40.30796" lon="-1.33593">
        <ele>1263.729591</ele>
        <time>2022-02-23T04:31:34.913Z</time>
      </trkpt>
      <trkpt lat="40.30795" lon="-1.33507">
        <ele>1261.645889</ele>
        <time>2022-02-23T04:31:54.938Z</time>
      </trkpt>
      <trkpt lat="40.30792" lon="-1.33478">
        <ele>1260.947714</ele>
        <time>2022-02-23T04:32:01.790Z</time>
      </trkpt>
      <trkpt lat="40.30792" lon="-1.33421">
        <ele>1259.554045</ele>
        <time>2022-02-23T04:32:15.445Z</time>
      </trkpt>
      <trkpt lat="40.30781" lon="-1.33354">
        <ele>1257.909165</ele>
        <time>2022-02-23T04:32:31.644Z</time>
      </trkpt>
      <trkpt lat="40.3074" lon="-1.33257">
        <ele>1255.505101</ele>
        <time>2022-02-23T04:32:58.008Z</time>
      </trkpt>
      <trkpt lat="40.30733" lon="-1.33226">
        <ele>1254.794839</ele>
        <time>2022-02-23T04:33:05.879Z</time>
      </trkpt>
      <trkpt lat="40.30735" lon="-1.33191">
        <ele>1254.038855</ele>
        <time>2022-02-23T04:33:14.203Z</time>
      </trkpt>
      <trkpt lat="40.3075" lon="-1.33137">
        <ele>1252.796124</ele>
        <time>2022-02-23T04:33:27.786Z</time>
      </trkpt>
      <trkpt lat="40.30736" lon="-1.32977">
        <ele>1249.44412</ele>
        <time>2022-02-23T04:34:05.886Z</time>
      </trkpt>
      <trkpt lat="40.30746" lon="-1.32867">
        <ele>1247.441137</ele>
        <time>2022-02-23T04:34:32.746Z</time>
      </trkpt>
      <trkpt lat="40.30753" lon="-1.32685">
        <ele>1245.04212</ele>
        <time>2022-02-23T04:35:19.008Z</time>
      </trkpt>
      <trkpt lat="40.30752" lon="-1.32634">
        <ele>1244.502548</ele>
        <time>2022-02-23T04:35:32.291Z</time>
      </trkpt>
      <trkpt lat="40.30736" lon="-1.32537">
        <ele>1243.578327</ele>
        <time>2022-02-23T04:35:57.719Z</time>
      </trkpt>
      <trkpt lat="40.30725" lon="-1.32511">
        <ele>1243.302472</ele>
        <time>2022-02-23T04:36:05.358Z</time>
      </trkpt>
      <trkpt lat="40.30723" lon="-1.32507">
        <ele>1243.255438</ele>
        <time>2022-02-23T04:36:06.655Z</time>
      </trkpt>
      <trkpt lat="40.30646" lon="-1.32436">
        <ele>1242.390447</ele>
        <time>2022-02-23T04:36:39.236Z</time>
      </trkpt>
      <trkpt lat="40.30593" lon="-1.32404">
        <ele>1242.058039</ele>
        <time>2022-02-23T04:36:59.627Z</time>
      </trkpt>
      <trkpt lat="40.30554" lon="-1.32394">
        <ele>1241.829227</ele>
        <time>2022-02-23T04:37:14.045Z</time>
      </trkpt>
      <trkpt lat="40.30526" lon="-1.32376">
        <ele>1241.650502</ele>
        <time>2022-02-23T04:37:25.417Z</time>
      </trkpt>
      <trkpt lat="40.30439" lon="-1.32286">
        <ele>1241.095845</ele>
        <time>2022-02-23T04:38:05.845Z</time>
      </trkpt>
      <trkpt lat="40.30397" lon="-1.32216">
        <ele>1240.757799</ele>
        <time>2022-02-23T04:38:29.678Z</time>
      </trkpt>
      <trkpt lat="40.3036" lon="-1.32173">
        <ele>1240.284332</ele>
        <time>2022-02-23T04:38:46.588Z</time>
      </trkpt>
      <trkpt lat="40.30273" lon="-1.32038">
        <ele>1238.882153</ele>
        <time>2022-02-23T04:39:32.637Z</time>
      </trkpt>
      <trkpt lat="40.30247" lon="-1.32007">
        <ele>1238.671492</ele>
        <time>2022-02-23T04:39:44.791Z</time>
      </trkpt>
      <trkpt lat="40.30166" lon="-1.31941">
        <ele>1238.144346</ele>
        <time>2022-02-23T04:40:18.778Z</time>
      </trkpt>
      <trkpt lat="40.30016" lon="-1.3186">
        <ele>1238.046072</ele>
        <time>2022-02-23T04:41:18.375Z</time>
      </trkpt>
      <trkpt lat="40.29972" lon="-1.31842">
        <ele>1238.12574</ele>
        <time>2022-02-23T04:41:35.835Z</time>
      </trkpt>
      <trkpt lat="40.29895" lon="-1.31811">
        <ele>1239.200492</ele>
        <time>2022-02-23T04:42:09.783Z</time>
      </trkpt>
      <trkpt lat="40.29827" lon="-1.31764">
        <ele>1240.60991</ele>
        <time>2022-02-23T04:42:45.847Z</time>
      </trkpt>
      <trkpt lat="40.2976" lon="-1.31707">
        <ele>1242.407842</ele>
        <time>2022-02-23T04:43:26.188Z</time>
      </trkpt>
      <trkpt lat="40.29642" lon="-1.3167">
        <ele>1245.939875</ele>
        <time>2022-02-23T04:44:29.727Z</time>
      </trkpt>
      <trkpt lat="40.29598" lon="-1.31626">
        <ele>1247.354744</ele>
        <time>2022-02-23T04:44:57.980Z</time>
      </trkpt>
      <trkpt lat="40.29528" lon="-1.31531">
        <ele>1249.645065</ele>
        <time>2022-02-23T04:45:47.749Z</time>
      </trkpt>
      <trkpt lat="40.29451" lon="-1.31457">
        <ele>1250.887716</ele>
        <time>2022-02-23T04:46:30.747Z</time>
      </trkpt>
      <trkpt lat="40.2938" lon="-1.314">
        <ele>1251.094483</ele>
        <time>2022-02-23T04:47:03.205Z</time>
      </trkpt>
      <trkpt lat="40.29324" lon="-1.31326">
        <ele>1250.871566</ele>
        <time>2022-02-23T04:47:30.581Z</time>
      </trkpt>
      <trkpt lat="40.29302" lon="-1.31285">
        <ele>1250.405928</ele>
        <time>2022-02-23T04:47:43.376Z</time>
      </trkpt>
      <trkpt lat="40.29286" lon="-1.3126">
        <ele>1250.105742</ele>
        <time>2022-02-23T04:47:51.695Z</time>
      </trkpt>
      <trkpt lat="40.29267" lon="-1.31242">
        <ele>1249.824075</ele>
        <time>2022-02-23T04:47:59.360Z</time>
      </trkpt>
      <trkpt lat="40.29224" lon="-1.31205">
        <ele>1249.200086</ele>
        <time>2022-02-23T04:48:16.794Z</time>
      </trkpt>
      <trkpt lat="40.29205" lon="-1.31196">
        <ele>1249.084269</ele>
        <time>2022-02-23T04:48:23.666Z</time>
      </trkpt>
      <trkpt lat="40.29157" lon="-1.31175">
        <ele>1249.406951</ele>
        <time>2022-02-23T04:48:41.580Z</time>
      </trkpt>
      <trkpt lat="40.29109" lon="-1.31111">
        <ele>1249.842638</ele>
        <time>2022-02-23T04:49:09.209Z</time>
      </trkpt>
      <trkpt lat="40.29068" lon="-1.31067">
        <ele>1250.179254</ele>
        <time>2022-02-23T04:49:34.145Z</time>
      </trkpt>
      <trkpt lat="40.29045" lon="-1.31049">
        <ele>1251.090118</ele>
        <time>2022-02-23T04:49:47.545Z</time>
      </trkpt>
      <trkpt lat="40.28964" lon="-1.31005">
        <ele>1254.060834</ele>
        <time>2022-02-23T04:50:33.635Z</time>
      </trkpt>
      <trkpt lat="40.28906" lon="-1.30977">
        <ele>1256.180664</ele>
        <time>2022-02-23T04:51:09.138Z</time>
      </trkpt>
      <trkpt lat="40.28739" lon="-1.30924">
        <ele>1264.787094</ele>
        <time>2022-02-23T04:52:55.870Z</time>
      </trkpt>
      <trkpt lat="40.28684" lon="-1.30895">
        <ele>1268.275996</ele>
        <time>2022-02-23T04:53:35.251Z</time>
      </trkpt>
      <trkpt lat="40.28602" lon="-1.30872">
        <ele>1273.422393</ele>
        <time>2022-02-23T04:54:33.698Z</time>
      </trkpt>
      <trkpt lat="40.28497" lon="-1.30819">
        <ele>1278.771072</ele>
        <time>2022-02-23T04:55:50.954Z</time>
      </trkpt>
      <trkpt lat="40.28429" lon="-1.30803">
        <ele>1281.292165</ele>
        <time>2022-02-23T04:56:29.063Z</time>
      </trkpt>
      <trkpt lat="40.28401" lon="-1.30804">
        <ele>1282.307186</ele>
        <time>2022-02-23T04:56:41.686Z</time>
      </trkpt>
      <trkpt lat="40.28319" lon="-1.30829">
        <ele>1281.720196</ele>
        <time>2022-02-23T04:57:12.627Z</time>
      </trkpt>
      <trkpt lat="40.28152" lon="-1.30846">
        <ele>1279.122073</ele>
        <time>2022-02-23T04:58:03.765Z</time>
      </trkpt>
      <trkpt lat="40.28137" lon="-1.30849">
        <ele>1279.039677</ele>
        <time>2022-02-23T04:58:08.686Z</time>
      </trkpt>
      <trkpt lat="40.28096" lon="-1.30875">
        <ele>1278.79039</ele>
        <time>2022-02-23T04:58:23.979Z</time>
      </trkpt>
      <trkpt lat="40.28097" lon="-1.30921">
        <ele>1278.594112</ele>
        <time>2022-02-23T04:58:33.086Z</time>
      </trkpt>
      <trkpt lat="40.28085" lon="-1.30951">
        <ele>1278.449903</ele>
        <time>2022-02-23T04:58:41.720Z</time>
      </trkpt>
      <trkpt lat="40.28065" lon="-1.30977">
        <ele>1279.530067</ele>
        <time>2022-02-23T04:58:52.127Z</time>
      </trkpt>
      <trkpt lat="40.27937" lon="-1.31106">
        <ele>1287.511701</ele>
        <time>2022-02-23T05:00:13.897Z</time>
      </trkpt>
      <trkpt lat="40.27727" lon="-1.31197">
        <ele>1298.399116</ele>
        <time>2022-02-23T05:02:02.295Z</time>
      </trkpt>
      <trkpt lat="40.27652" lon="-1.31218">
        <ele>1300.903184</ele>
        <time>2022-02-23T05:02:35.768Z</time>
      </trkpt>
      <trkpt lat="40.27574" lon="-1.31217">
        <ele>1302.009326</ele>
        <time>2022-02-23T05:02:57.155Z</time>
      </trkpt>
      <trkpt lat="40.27543" lon="-1.31213">
        <ele>1300.820051</ele>
        <time>2022-02-23T05:03:03.000Z</time>
      </trkpt>
      <trkpt lat="40.27514" lon="-1.31226">
        <ele>1299.623224</ele>
        <time>2022-02-23T05:03:08.356Z</time>
      </trkpt>
      <trkpt lat="40.27346" lon="-1.31347">
        <ele>1289.995843</ele>
        <time>2022-02-23T05:03:37.462Z</time>
      </trkpt>
      <trkpt lat="40.27274" lon="-1.31413">
        <ele>1284.471022</ele>
        <time>2022-02-23T05:03:50.872Z</time>
      </trkpt>
      <trkpt lat="40.27219" lon="-1.31442">
        <ele>1281.449207</ele>
        <time>2022-02-23T05:04:00.213Z</time>
      </trkpt>
      <trkpt lat="40.27144" lon="-1.31476">
        <ele>1277.421621</ele>
        <time>2022-02-23T05:04:12.894Z</time>
      </trkpt>
      <trkpt lat="40.26923" lon="-1.31514">
        <ele>1267.551981</ele>
        <time>2022-02-23T05:04:48.522Z</time>
      </trkpt>
      <trkpt lat="40.26857" lon="-1.31531">
        <ele>1268.065759</ele>
        <time>2022-02-23T05:05:01.389Z</time>
      </trkpt>
      <trkpt lat="40.26829" lon="-1.31542">
        <ele>1268.281172</ele>
        <time>2022-02-23T05:05:09.045Z</time>
      </trkpt>
      <trkpt lat="40.268" lon="-1.31567">
        <ele>1268.546651</ele>
        <time>2022-02-23T05:05:21.374Z</time>
      </trkpt>
      <trkpt lat="40.26757" lon="-1.31664">
        <ele>1271.31715</ele>
        <time>2022-02-23T05:05:57.771Z</time>
      </trkpt>
      <trkpt lat="40.26749" lon="-1.31731">
        <ele>1274.468522</ele>
        <time>2022-02-23T05:06:25.501Z</time>
      </trkpt>
      <trkpt lat="40.26744" lon="-1.31836">
        <ele>1279.318945</ele>
        <time>2022-02-23T05:07:12.742Z</time>
      </trkpt>
      <trkpt lat="40.26765" lon="-1.31939">
        <ele>1284.09099</ele>
        <time>2022-02-23T05:07:58.408Z</time>
      </trkpt>
      <trkpt lat="40.26778" lon="-1.32096">
        <ele>1290.742519</ele>
        <time>2022-02-23T05:08:57.243Z</time>
      </trkpt>
      <trkpt lat="40.26821" lon="-1.32267">
        <ele>1295.478618</ele>
        <time>2022-02-23T05:09:52.039Z</time>
      </trkpt>
      <trkpt lat="40.26797" lon="-1.3234">
        <ele>1296.972293</ele>
        <time>2022-02-23T05:10:11.337Z</time>
      </trkpt>
      <trkpt lat="40.26792" lon="-1.32372">
        <ele>1297.374077</ele>
        <time>2022-02-23T05:10:19.195Z</time>
      </trkpt>
      <trkpt lat="40.26804" lon="-1.32453">
        <ele>1298.389267</ele>
        <time>2022-02-23T05:10:36.946Z</time>
      </trkpt>
      <trkpt lat="40.26819" lon="-1.32496">
        <ele>1298.969068</ele>
        <time>2022-02-23T05:10:47.075Z</time>
      </trkpt>
      <trkpt lat="40.26842" lon="-1.32527">
        <ele>1299.66902</ele>
        <time>2022-02-23T05:10:56.633Z</time>
      </trkpt>
      <trkpt lat="40.26866" lon="-1.32546">
        <ele>1300.627599</ele>
        <time>2022-02-23T05:11:05.403Z</time>
      </trkpt>
      <trkpt lat="40.26881" lon="-1.32569">
        <ele>1301.401927</ele>
        <time>2022-02-23T05:11:12.693Z</time>
      </trkpt>
      <trkpt lat="40.26905" lon="-1.32625">
        <ele>1303.041939</ele>
        <time>2022-02-23T05:11:31.232Z</time>
      </trkpt>
      <trkpt lat="40.26927" lon="-1.3265">
        <ele>1304.018787</ele>
        <time>2022-02-23T05:11:43.607Z</time>
      </trkpt>
      <trkpt lat="40.27004" lon="-1.32712">
        <ele>1308.719988</ele>
        <time>2022-02-23T05:12:28.497Z</time>
      </trkpt>
      <trkpt lat="40.2707" lon="-1.32811">
        <ele>1315.47338</ele>
        <time>2022-02-23T05:13:27.315Z</time>
      </trkpt>
      <trkpt lat="40.27082" lon="-1.32844">
        <ele>1317.317692</ele>
        <time>2022-02-23T05:13:43.740Z</time>
      </trkpt>
      <trkpt lat="40.27092" lon="-1.32881">
        <ele>1319.558887</ele>
        <time>2022-02-23T05:14:01.612Z</time>
      </trkpt>
      <trkpt lat="40.27096" lon="-1.32918">
        <ele>1321.746733</ele>
        <time>2022-02-23T05:14:19.001Z</time>
      </trkpt>
      <trkpt lat="40.2708" lon="-1.3311">
        <ele>1333.24466</ele>
        <time>2022-02-23T05:15:46.707Z</time>
      </trkpt>
      <trkpt lat="40.27087" lon="-1.33212">
        <ele>1340.181978</ele>
        <time>2022-02-23T05:16:39.507Z</time>
      </trkpt>
      <trkpt lat="40.27075" lon="-1.33265">
        <ele>1343.942569</ele>
        <time>2022-02-23T05:17:08.262Z</time>
      </trkpt>
      <trkpt lat="40.27064" lon="-1.33286">
        <ele>1345.641211</ele>
        <time>2022-02-23T05:17:22.979Z</time>
      </trkpt>
      <trkpt lat="40.26976" lon="-1.33393">
        <ele>1355.754909</ele>
        <time>2022-02-23T05:18:44.692Z</time>
      </trkpt>
      <trkpt lat="40.26932" lon="-1.33423">
        <ele>1359.944018</ele>
        <time>2022-02-23T05:19:15.389Z</time>
      </trkpt>
      <trkpt lat="40.26902" lon="-1.33435">
        <ele>1362.472601</ele>
        <time>2022-02-23T05:19:31.494Z</time>
      </trkpt>
      <trkpt lat="40.26876" lon="-1.33442">
        <ele>1364.414331</ele>
        <time>2022-02-23T05:19:46.891Z</time>
      </trkpt>
      <trkpt lat="40.26846" lon="-1.3344">
        <ele>1366.556692</ele>
        <time>2022-02-23T05:20:03.501Z</time>
      </trkpt>
      <trkpt lat="40.26827" lon="-1.33433">
        <ele>1367.986008</ele>
        <time>2022-02-23T05:20:14.698Z</time>
      </trkpt>
      <trkpt lat="40.26786" lon="-1.33389">
        <ele>1371.841544</ele>
        <time>2022-02-23T05:20:46.423Z</time>
      </trkpt>
      <trkpt lat="40.26772" lon="-1.33383">
        <ele>1372.880185</ele>
        <time>2022-02-23T05:20:54.956Z</time>
      </trkpt>
      <trkpt lat="40.26746" lon="-1.33384">
        <ele>1374.767301</ele>
        <time>2022-02-23T05:21:11.733Z</time>
      </trkpt>
      <trkpt lat="40.26592" lon="-1.33403">
        <ele>1385.274162</ele>
        <time>2022-02-23T05:22:41.956Z</time>
      </trkpt>
      <trkpt lat="40.26484" lon="-1.33447">
        <ele>1391.447794</ele>
        <time>2022-02-23T05:23:34.554Z</time>
      </trkpt>
      <trkpt lat="40.2644" lon="-1.33442">
        <ele>1393.643634</ele>
        <time>2022-02-23T05:23:54.053Z</time>
      </trkpt>
      <trkpt lat="40.26393" lon="-1.33413">
        <ele>1396.214128</ele>
        <time>2022-02-23T05:24:17.995Z</time>
      </trkpt>
      <trkpt lat="40.26348" lon="-1.33347">
        <ele>1400.367368</ele>
        <time>2022-02-23T05:24:52.153Z</time>
      </trkpt>
      <trkpt lat="40.2632" lon="-1.33285">
        <ele>1403.786513</ele>
        <time>2022-02-23T05:25:22.191Z</time>
      </trkpt>
      <trkpt lat="40.26304" lon="-1.33268">
        <ele>1405.055642</ele>
        <time>2022-02-23T05:25:33.984Z</time>
      </trkpt>
      <trkpt lat="40.26283" lon="-1.33255">
        <ele>1406.477518</ele>
        <time>2022-02-23T05:25:47.488Z</time>
      </trkpt>
      <trkpt lat="40.26204" lon="-1.3323">
        <ele>1411.257607</ele>
        <time>2022-02-23T05:26:33.571Z</time>
      </trkpt>
      <trkpt lat="40.2611" lon="-1.3317">
        <ele>1417.326049</ele>
        <time>2022-02-23T05:27:25.283Z</time>
      </trkpt>
      <trkpt lat="40.26049" lon="-1.33148">
        <ele>1419.406281</ele>
        <time>2022-02-23T05:27:52.866Z</time>
      </trkpt>
      <trkpt lat="40.25962" lon="-1.33155">
        <ele>1421.885946</ele>
        <time>2022-02-23T05:28:23.960Z</time>
      </trkpt>
      <trkpt lat="40.25851" lon="-1.33132">
        <ele>1423.96188</ele>
        <time>2022-02-23T05:28:53.809Z</time>
      </trkpt>
      <trkpt lat="40.2579" lon="-1.33092">
        <ele>1424.868909</ele>
        <time>2022-02-23T05:29:12.008Z</time>
      </trkpt>
      <trkpt lat="40.25769" lon="-1.33065">
        <ele>1425.269329</ele>
        <time>2022-02-23T05:29:21.278Z</time>
      </trkpt>
      <trkpt lat="40.25721" lon="-1.32977">
        <ele>1428.157966</ele>
        <time>2022-02-23T05:29:51.137Z</time>
      </trkpt>
      <trkpt lat="40.257" lon="-1.32952">
        <ele>1429.194937</ele>
        <time>2022-02-23T05:30:02.533Z</time>
      </trkpt>
      <trkpt lat="40.25625" lon="-1.3289">
        <ele>1432.68216</ele>
        <time>2022-02-23T05:30:43.212Z</time>
      </trkpt>
      <trkpt lat="40.25583" lon="-1.3287">
        <ele>1435.104444</ele>
        <time>2022-02-23T05:31:06.076Z</time>
      </trkpt>
      <trkpt lat="40.25509" lon="-1.32867">
        <ele>1439.137287</ele>
        <time>2022-02-23T05:31:45.405Z</time>
      </trkpt>
      <trkpt lat="40.25389" lon="-1.32777">
        <ele>1442.720682</ele>
        <time>2022-02-23T05:32:48.368Z</time>
      </trkpt>
      <trkpt lat="40.25375" lon="-1.32771">
        <ele>1442.877837</ele>
        <time>2022-02-23T05:32:52.419Z</time>
      </trkpt>
      <trkpt lat="40.25334" lon="-1.32768">
        <ele>1443.307697</ele>
        <time>2022-02-23T05:33:00.985Z</time>
      </trkpt>
      <trkpt lat="40.25313" lon="-1.32775">
        <ele>1443.531935</ele>
        <time>2022-02-23T05:33:04.857Z</time>
      </trkpt>
      <trkpt lat="40.2518" lon="-1.32849">
        <ele>1435.104003</ele>
        <time>2022-02-23T05:33:26.698Z</time>
      </trkpt>
      <trkpt lat="40.25153" lon="-1.3286">
        <ele>1433.309596</ele>
        <time>2022-02-23T05:33:30.667Z</time>
      </trkpt>
      <trkpt lat="40.2514" lon="-1.32859">
        <ele>1432.465029</ele>
        <time>2022-02-23T05:33:32.581Z</time>
      </trkpt>
      <trkpt lat="40.25126" lon="-1.32845">
        <ele>1431.589484</ele>
        <time>2022-02-23T05:33:35.201Z</time>
      </trkpt>
      <trkpt lat="40.25116" lon="-1.32823">
        <ele>1430.83274</ele>
        <time>2022-02-23T05:33:38.255Z</time>
      </trkpt>
      <trkpt lat="40.25099" lon="-1.32774">
        <ele>1429.286374</ele>
        <time>2022-02-23T05:33:44.674Z</time>
      </trkpt>
      <trkpt lat="40.25088" lon="-1.32719">
        <ele>1427.632593</ele>
        <time>2022-02-23T05:33:52.131Z</time>
      </trkpt>
      <trkpt lat="40.25072" lon="-1.3268">
        <ele>1426.315456</ele>
        <time>2022-02-23T05:33:58.551Z</time>
      </trkpt>
      <trkpt lat="40.25059" lon="-1.32658">
        <ele>1425.526968</ele>
        <time>2022-02-23T05:34:02.675Z</time>
      </trkpt>
      <trkpt lat="40.25028" lon="-1.32629">
        <ele>1424.63224</ele>
        <time>2022-02-23T05:34:10.306Z</time>
      </trkpt>
      <trkpt lat="40.24986" lon="-1.32611">
        <ele>1423.834754</ele>
        <time>2022-02-23T05:34:18.729Z</time>
      </trkpt>
      <trkpt lat="40.24917" lon="-1.32613">
        <ele>1422.578257</ele>
        <time>2022-02-23T05:34:31.813Z</time>
      </trkpt>
      <trkpt lat="40.24896" lon="-1.32604">
        <ele>1422.183621</ele>
        <time>2022-02-23T05:34:35.689Z</time>
      </trkpt>
      <trkpt lat="40.24858" lon="-1.32566">
        <ele>1420.975289</ele>
        <time>2022-02-23T05:34:44.085Z</time>
      </trkpt>
      <trkpt lat="40.24804" lon="-1.32553">
        <ele>1419.417715</ele>
        <time>2022-02-23T05:34:53.201Z</time>
      </trkpt>
      <trkpt lat="40.24723" lon="-1.3252">
        <ele>1416.957394</ele>
        <time>2022-02-23T05:35:08.059Z</time>
      </trkpt>
      <trkpt lat="40.24635" lon="-1.32521">
        <ele>1415.094912</ele>
        <time>2022-02-23T05:35:24.242Z</time>
      </trkpt>
      <trkpt lat="40.24615" lon="-1.32541">
        <ele>1414.587472</ele>
        <time>2022-02-23T05:35:28.813Z</time>
      </trkpt>
      <trkpt lat="40.24577" lon="-1.3261">
        <ele>1413.248478</ele>
        <time>2022-02-23T05:35:40.805Z</time>
      </trkpt>
      <trkpt lat="40.24544" lon="-1.32643">
        <ele>1412.249525</ele>
        <time>2022-02-23T05:35:48.523Z</time>
      </trkpt>
      <trkpt lat="40.24478" lon="-1.32659">
        <ele>1410.561349</ele>
        <time>2022-02-23T05:36:00.658Z</time>
      </trkpt>
      <trkpt lat="40.24425" lon="-1.32646">
        <ele>1409.186378</ele>
        <time>2022-02-23T05:36:10.104Z</time>
      </trkpt>
      <trkpt lat="40.24408" lon="-1.32647">
        <ele>1408.764303</ele>
        <time>2022-02-23T05:36:12.938Z</time>
      </trkpt>
      <trkpt lat="40.24344" lon="-1.32701">
        <ele>1405.256957</ele>
        <time>2022-02-23T05:36:25.704Z</time>
      </trkpt>
      <trkpt lat="40.24326" lon="-1.32704">
        <ele>1404.37916</ele>
        <time>2022-02-23T05:36:28.641Z</time>
      </trkpt>
      <trkpt lat="40.24109" lon="-1.32675">
        <ele>1390.779886</ele>
        <time>2022-02-23T05:37:02.100Z</time>
      </trkpt>
      <trkpt lat="40.24058" lon="-1.32676">
        <ele>1387.01842</ele>
        <time>2022-02-23T05:37:09.546Z</time>
      </trkpt>
      <trkpt lat="40.23988" lon="-1.32652">
        <ele>1379.791672</ele>
        <time>2022-02-23T05:37:19.720Z</time>
      </trkpt>
      <trkpt lat="40.23982" lon="-1.3265">
        <ele>1379.113981</ele>
        <time>2022-02-23T05:37:20.629Z</time>
      </trkpt>
      <trkpt lat="40.23965" lon="-1.32642">
        <ele>1377.300242</ele>
        <time>2022-02-23T05:37:23.079Z</time>
      </trkpt>
      <trkpt lat="40.23899" lon="-1.32613">
        <ele>1370.05263</ele>
        <time>2022-02-23T05:37:32.829Z</time>
      </trkpt>
      <trkpt lat="40.23876" lon="-1.32609">
        <ele>1367.693329</ele>
        <time>2022-02-23T05:37:36.056Z</time>
      </trkpt>
      <trkpt lat="40.23763" lon="-1.32605">
        <ele>1358.299803</ele>
        <time>2022-02-23T05:37:52.378Z</time>
      </trkpt>
      <trkpt lat="40.23717" lon="-1.32609">
        <ele>1354.467015</ele>
        <time>2022-02-23T05:37:59.412Z</time>
      </trkpt>
      <trkpt lat="40.23662" lon="-1.32622">
        <ele>1351.051953</ele>
        <time>2022-02-23T05:38:08.106Z</time>
      </trkpt>
      <trkpt lat="40.23624" lon="-1.3264">
        <ele>1349.015036</ele>
        <time>2022-02-23T05:38:14.560Z</time>
      </trkpt>
      <trkpt lat="40.23599" lon="-1.32687">
        <ele>1346.800743</ele>
        <time>2022-02-23T05:38:21.652Z</time>
      </trkpt>
      <trkpt lat="40.23552" lon="-1.32726">
        <ele>1343.993985</ele>
        <time>2022-02-23T05:38:30.517Z</time>
      </trkpt>
      <trkpt lat="40.2353" lon="-1.32738">
        <ele>1342.467135</ele>
        <time>2022-02-23T05:38:34.370Z</time>
      </trkpt>
      <trkpt lat="40.23489" lon="-1.32734">
        <ele>1339.849449</ele>
        <time>2022-02-23T05:38:40.628Z</time>
      </trkpt>
      <trkpt lat="40.23453" lon="-1.32742">
        <ele>1337.487935</ele>
        <time>2022-02-23T05:38:46.141Z</time>
      </trkpt>
      <trkpt lat="40.23426" lon="-1.32731">
        <ele>1335.637274</ele>
        <time>2022-02-23T05:38:50.433Z</time>
      </trkpt>
      <trkpt lat="40.23358" lon="-1.32723">
        <ele>1331.23228</ele>
        <time>2022-02-23T05:39:00.668Z</time>
      </trkpt>
      <trkpt lat="40.23338" lon="-1.32726">
        <ele>1329.988932</ele>
        <time>2022-02-23T05:39:03.572Z</time>
      </trkpt>
      <trkpt lat="40.23306" lon="-1.32743">
        <ele>1327.799676</ele>
        <time>2022-02-23T05:39:08.773Z</time>
      </trkpt>
      <trkpt lat="40.23179" lon="-1.32727">
        <ele>1319.938374</ele>
        <time>2022-02-23T05:39:28.629Z</time>
      </trkpt>
      <trkpt lat="40.23153" lon="-1.32729">
        <ele>1318.566761</ele>
        <time>2022-02-23T05:39:32.675Z</time>
      </trkpt>
      <trkpt lat="40.23057" lon="-1.32704">
        <ele>1313.218561</ele>
        <time>2022-02-23T05:39:48.211Z</time>
      </trkpt>
      <trkpt lat="40.23043" lon="-1.32693">
        <ele>1312.352977</ele>
        <time>2022-02-23T05:39:50.685Z</time>
      </trkpt>
      <trkpt lat="40.23013" lon="-1.32647">
        <ele>1309.431345</ele>
        <time>2022-02-23T05:39:57.878Z</time>
      </trkpt>
      <trkpt lat="40.22979" lon="-1.32618">
        <ele>1306.641574</ele>
        <time>2022-02-23T05:40:03.988Z</time>
      </trkpt>
      <trkpt lat="40.22922" lon="-1.32592">
        <ele>1302.428823</ele>
        <time>2022-02-23T05:40:13.059Z</time>
      </trkpt>
      <trkpt lat="40.22867" lon="-1.32575">
        <ele>1298.417612</ele>
        <time>2022-02-23T05:40:21.393Z</time>
      </trkpt>
      <trkpt lat="40.22816" lon="-1.32523">
        <ele>1292.391345</ele>
        <time>2022-02-23T05:40:30.785Z</time>
      </trkpt>
      <trkpt lat="40.22701" lon="-1.32475">
        <ele>1280.971102</ele>
        <time>2022-02-23T05:40:48.000Z</time>
      </trkpt>
      <trkpt lat="40.22478" lon="-1.32476">
        <ele>1259.386294</ele>
        <time>2022-02-23T05:41:19.287Z</time>
      </trkpt>
      <trkpt lat="40.22465" lon="-1.32478">
        <ele>1258.558473</ele>
        <time>2022-02-23T05:41:21.173Z</time>
      </trkpt>
      <trkpt lat="40.22374" lon="-1.32544">
        <ele>1251.740026</ele>
        <time>2022-02-23T05:41:37.610Z</time>
      </trkpt>
      <trkpt lat="40.22363" lon="-1.32547">
        <ele>1251.044171</ele>
        <time>2022-02-23T05:41:39.512Z</time>
      </trkpt>
      <trkpt lat="40.22341" lon="-1.32541">
        <ele>1250.387908</ele>
        <time>2022-02-23T05:41:43.671Z</time>
      </trkpt>
      <trkpt lat="40.22326" lon="-1.32545">
        <ele>1250.001438</ele>
        <time>2022-02-23T05:41:46.565Z</time>
      </trkpt>
      <trkpt lat="40.22303" lon="-1.32573">
        <ele>1249.19101</ele>
        <time>2022-02-23T05:41:52.721Z</time>
      </trkpt>
      <trkpt lat="40.22305" lon="-1.32628">
        <ele>1248.093981</ele>
        <time>2022-02-23T05:42:00.682Z</time>
      </trkpt>
      <trkpt lat="40.22288" lon="-1.32662">
        <ele>1247.287521</ele>
        <time>2022-02-23T05:42:06.287Z</time>
      </trkpt>
      <trkpt lat="40.2226" lon="-1.32686">
        <ele>1246.424126</ele>
        <time>2022-02-23T05:42:11.997Z</time>
      </trkpt>
      <trkpt lat="40.22227" lon="-1.32704">
        <ele>1244.604948</ele>
        <time>2022-02-23T05:42:17.877Z</time>
      </trkpt>
      <trkpt lat="40.22191" lon="-1.32767">
        <ele>1241.293569</ele>
        <time>2022-02-23T05:42:27.372Z</time>
      </trkpt>
      <trkpt lat="40.22126" lon="-1.32823">
        <ele>1237.016837</ele>
        <time>2022-02-23T05:42:39.208Z</time>
      </trkpt>
      <trkpt lat="40.22065" lon="-1.32856">
        <ele>1232.891088</ele>
        <time>2022-02-23T05:42:49.131Z</time>
      </trkpt>
      <trkpt lat="40.22011" lon="-1.3291">
        <ele>1228.577407</ele>
        <time>2022-02-23T05:42:59.356Z</time>
      </trkpt>
      <trkpt lat="40.2192" lon="-1.32977">
        <ele>1222.685642</ele>
        <time>2022-02-23T05:43:15.583Z</time>
      </trkpt>
      <trkpt lat="40.21862" lon="-1.32989">
        <ele>1219.876804</ele>
        <time>2022-02-23T05:43:24.905Z</time>
      </trkpt>
      <trkpt lat="40.21836" lon="-1.32981">
        <ele>1218.563555</ele>
        <time>2022-02-23T05:43:29.302Z</time>
      </trkpt>
      <trkpt lat="40.218" lon="-1.33009">
        <ele>1216.595681</ele>
        <time>2022-02-23T05:43:36.076Z</time>
      </trkpt>
      <trkpt lat="40.21789" lon="-1.33034">
        <ele>1215.725335</ele>
        <time>2022-02-23T05:43:39.711Z</time>
      </trkpt>
      <trkpt lat="40.21793" lon="-1.33088">
        <ele>1214.310852</ele>
        <time>2022-02-23T05:43:46.692Z</time>
      </trkpt>
      <trkpt lat="40.21816" lon="-1.33199">
        <ele>1211.246514</ele>
        <time>2022-02-23T05:44:01.578Z</time>
      </trkpt>
      <trkpt lat="40.21801" lon="-1.33233">
        <ele>1210.217841</ele>
        <time>2022-02-23T05:44:06.573Z</time>
      </trkpt>
      <trkpt lat="40.21783" lon="-1.33239">
        <ele>1209.719911</ele>
        <time>2022-02-23T05:44:09.929Z</time>
      </trkpt>
      <trkpt lat="40.21625" lon="-1.33201">
        <ele>1205.837333</ele>
        <time>2022-02-23T05:44:38.450Z</time>
      </trkpt>
      <trkpt lat="40.21581" lon="-1.33201">
        <ele>1205.667093</ele>
        <time>2022-02-23T05:44:46.969Z</time>
      </trkpt>
      <trkpt lat="40.21564" lon="-1.33201">
        <ele>1205.647705</ele>
        <time>2022-02-23T05:44:50.318Z</time>
      </trkpt>
      <trkpt lat="40.21504" lon="-1.33206">
        <ele>1205.579032</ele>
        <time>2022-02-23T05:45:03.937Z</time>
      </trkpt>
      <trkpt lat="40.21455" lon="-1.33202">
        <ele>1205.523063</ele>
        <time>2022-02-23T05:45:16.985Z</time>
      </trkpt>
      <trkpt lat="40.21422" lon="-1.33226">
        <ele>1205.788121</ele>
        <time>2022-02-23T05:45:27.986Z</time>
      </trkpt>
      <trkpt lat="40.21379" lon="-1.33282">
        <ele>1206.528375</ele>
        <time>2022-02-23T05:45:45.894Z</time>
      </trkpt>
      <trkpt lat="40.21334" lon="-1.33273">
        <ele>1207.081341</ele>
        <time>2022-02-23T05:45:58.515Z</time>
      </trkpt>
      <trkpt lat="40.21292" lon="-1.33293">
        <ele>1207.628479</ele>
        <time>2022-02-23T05:46:11.364Z</time>
      </trkpt>
      <trkpt lat="40.21202" lon="-1.33295">
        <ele>1208.757285</ele>
        <time>2022-02-23T05:46:35.785Z</time>
      </trkpt>
      <trkpt lat="40.21163" lon="-1.33318">
        <ele>1209.286115</ele>
        <time>2022-02-23T05:46:46.991Z</time>
      </trkpt>
      <trkpt lat="40.20972" lon="-1.3375">
        <ele>1216.749527</ele>
        <time>2022-02-23T05:48:45.066Z</time>
      </trkpt>
      <trkpt lat="40.20936" lon="-1.33722">
        <ele>1218.044117</ele>
        <time>2022-02-23T05:49:05.006Z</time>
      </trkpt>
      <trkpt lat="40.20921" lon="-1.33721">
        <ele>1218.782615</ele>
        <time>2022-02-23T05:49:11.993Z</time>
      </trkpt>
      <trkpt lat="40.20911" lon="-1.33726">
        <ele>1219.322928</ele>
        <time>2022-02-23T05:49:17.627Z</time>
      </trkpt>
      <trkpt lat="40.20873" lon="-1.33769">
        <ele>1221.726624</ele>
        <time>2022-02-23T05:49:42.397Z</time>
      </trkpt>
      <trkpt lat="40.20842" lon="-1.33789">
        <ele>1223.417227</ele>
        <time>2022-02-23T05:50:00.533Z</time>
      </trkpt>
      <trkpt lat="40.20816" lon="-1.33792">
        <ele>1224.652137</ele>
        <time>2022-02-23T05:50:13.750Z</time>
      </trkpt>
      <trkpt lat="40.20718" lon="-1.33769">
        <ele>1227.942649</ele>
        <time>2022-02-23T05:50:52.822Z</time>
      </trkpt>
      <trkpt lat="40.20702" lon="-1.33771">
        <ele>1228.334725</ele>
        <time>2022-02-23T05:50:58.089Z</time>
      </trkpt>
      <trkpt lat="40.20657" lon="-1.33789">
        <ele>1229.538088</ele>
        <time>2022-02-23T05:51:13.719Z</time>
      </trkpt>
      <trkpt lat="40.20615" lon="-1.33796">
        <ele>1230.617983</ele>
        <time>2022-02-23T05:51:26.198Z</time>
      </trkpt>
      <trkpt lat="40.20569" lon="-1.33794">
        <ele>1231.49398</ele>
        <time>2022-02-23T05:51:39.698Z</time>
      </trkpt>
      <trkpt lat="40.20547" lon="-1.33771">
        <ele>1232.013013</ele>
        <time>2022-02-23T05:51:48.203Z</time>
      </trkpt>
      <trkpt lat="40.20514" lon="-1.33705">
        <ele>1233.111179</ele>
        <time>2022-02-23T05:52:06.995Z</time>
      </trkpt>
      <trkpt lat="40.20478" lon="-1.33678">
        <ele>1233.868357</ele>
        <time>2022-02-23T05:52:20.418Z</time>
      </trkpt>
      <trkpt lat="40.20457" lon="-1.33669">
        <ele>1234.28104</ele>
        <time>2022-02-23T05:52:27.739Z</time>
      </trkpt>
      <trkpt lat="40.20419" lon="-1.33665">
        <ele>1235.077492</ele>
        <time>2022-02-23T05:52:40.927Z</time>
      </trkpt>
      <trkpt lat="40.20365" lon="-1.33648">
        <ele>1236.222324</ele>
        <time>2022-02-23T05:53:00.068Z</time>
      </trkpt>
      <trkpt lat="40.20261" lon="-1.3365">
        <ele>1238.02172</ele>
        <time>2022-02-23T05:53:32.909Z</time>
      </trkpt>
      <trkpt lat="40.20211" lon="-1.33645">
        <ele>1238.425218</ele>
        <time>2022-02-23T05:53:46.353Z</time>
      </trkpt>
      <trkpt lat="40.20156" lon="-1.33611">
        <ele>1238.926316</ele>
        <time>2022-02-23T05:54:01.893Z</time>
      </trkpt>
      <trkpt lat="40.2011" lon="-1.33605">
        <ele>1239.215533</ele>
        <time>2022-02-23T05:54:12.449Z</time>
      </trkpt>
      <trkpt lat="40.20043" lon="-1.33585">
        <ele>1238.792888</ele>
        <time>2022-02-23T05:54:27.213Z</time>
      </trkpt>
      <trkpt lat="40.19902" lon="-1.33502">
        <ele>1237.368126</ele>
        <time>2022-02-23T05:54:58.038Z</time>
      </trkpt>
      <trkpt lat="40.1978" lon="-1.33393">
        <ele>1234.882988</ele>
        <time>2022-02-23T05:55:25.509Z</time>
      </trkpt>
      <trkpt lat="40.19746" lon="-1.33378">
        <ele>1233.928844</ele>
        <time>2022-02-23T05:55:32.163Z</time>
      </trkpt>
      <trkpt lat="40.19677" lon="-1.33382">
        <ele>1232.132255</ele>
        <time>2022-02-23T05:55:44.383Z</time>
      </trkpt>
      <trkpt lat="40.19604" lon="-1.33347">
        <ele>1229.726945</ele>
        <time>2022-02-23T05:55:57.760Z</time>
      </trkpt>
      <trkpt lat="40.19504" lon="-1.33321">
        <ele>1225.23343</ele>
        <time>2022-02-23T05:56:14.263Z</time>
      </trkpt>
      <trkpt lat="40.19464" lon="-1.33294">
        <ele>1223.227734</ele>
        <time>2022-02-23T05:56:21.413Z</time>
      </trkpt>
      <trkpt lat="40.19381" lon="-1.33217">
        <ele>1218.292149</ele>
        <time>2022-02-23T05:56:37.367Z</time>
      </trkpt>
      <trkpt lat="40.1931" lon="-1.3317">
        <ele>1214.383463</ele>
        <time>2022-02-23T05:56:50.027Z</time>
      </trkpt>
      <trkpt lat="40.19269" lon="-1.33159">
        <ele>1212.828516</ele>
        <time>2022-02-23T05:56:56.815Z</time>
      </trkpt>
      <trkpt lat="40.19236" lon="-1.33166">
        <ele>1211.727349</ele>
        <time>2022-02-23T05:57:02.383Z</time>
      </trkpt>
      <trkpt lat="40.19206" lon="-1.33165">
        <ele>1210.738307</ele>
        <time>2022-02-23T05:57:07.458Z</time>
      </trkpt>
      <trkpt lat="40.19153" lon="-1.33149">
        <ele>1208.920098</ele>
        <time>2022-02-23T05:57:17.017Z</time>
      </trkpt>
      <trkpt lat="40.19053" lon="-1.33107">
        <ele>1206.769261</ele>
        <time>2022-02-23T05:57:35.970Z</time>
      </trkpt>
      <trkpt lat="40.18913" lon="-1.33025">
        <ele>1205.068354</ele>
        <time>2022-02-23T05:58:06.308Z</time>
      </trkpt>
      <trkpt lat="40.18882" lon="-1.33005">
        <ele>1205.014522</ele>
        <time>2022-02-23T05:58:13.952Z</time>
      </trkpt>
      <trkpt lat="40.18838" lon="-1.32966">
        <ele>1204.932168</ele>
        <time>2022-02-23T05:58:26.074Z</time>
      </trkpt>
      <trkpt lat="40.18797" lon="-1.32946">
        <ele>1204.863451</ele>
        <time>2022-02-23T05:58:36.637Z</time>
      </trkpt>
      <trkpt lat="40.18774" lon="-1.32936">
        <ele>1204.981685</ele>
        <time>2022-02-23T05:58:42.399Z</time>
      </trkpt>
      <trkpt lat="40.18736" lon="-1.32923">
        <ele>1205.191216</ele>
        <time>2022-02-23T05:58:52.243Z</time>
      </trkpt>
      <trkpt lat="40.18663" lon="-1.32914">
        <ele>1205.581028</ele>
        <time>2022-02-23T05:59:10.679Z</time>
      </trkpt>
      <trkpt lat="40.18617" lon="-1.32915">
        <ele>1205.831298</ele>
        <time>2022-02-23T05:59:22.009Z</time>
      </trkpt>
      <trkpt lat="40.18602" lon="-1.32923">
        <ele>1205.967099</ele>
        <time>2022-02-23T05:59:25.874Z</time>
      </trkpt>
      <trkpt lat="40.18515" lon="-1.33018">
        <ele>1206.965465</ele>
        <time>2022-02-23T05:59:55.689Z</time>
      </trkpt>
      <trkpt lat="40.18416" lon="-1.33079">
        <ele>1208.083596</ele>
        <time>2022-02-23T06:00:26.867Z</time>
      </trkpt>
      <trkpt lat="40.18318" lon="-1.33162">
        <ele>1209.394796</ele>
        <time>2022-02-23T06:00:59.540Z</time>
      </trkpt>
      <trkpt lat="40.18291" lon="-1.33171">
        <ele>1209.580143</ele>
        <time>2022-02-23T06:01:06.812Z</time>
      </trkpt>
      <trkpt lat="40.18232" lon="-1.33205">
        <ele>1209.994051</ele>
        <time>2022-02-23T06:01:23.695Z</time>
      </trkpt>
      <trkpt lat="40.18144" lon="-1.33297">
        <ele>1210.590607</ele>
        <time>2022-02-23T06:01:51.119Z</time>
      </trkpt>
      <trkpt lat="40.18024" lon="-1.33372">
        <ele>1210.7524</ele>
        <time>2022-02-23T06:02:22.042Z</time>
      </trkpt>
      <trkpt lat="40.17965" lon="-1.33418">
        <ele>1210.349998</ele>
        <time>2022-02-23T06:02:36.788Z</time>
      </trkpt>
      <trkpt lat="40.17908" lon="-1.33454">
        <ele>1209.726909</ele>
        <time>2022-02-23T06:02:49.628Z</time>
      </trkpt>
      <trkpt lat="40.17857" lon="-1.33458">
        <ele>1209.230167</ele>
        <time>2022-02-23T06:02:59.398Z</time>
      </trkpt>
      <trkpt lat="40.17741" lon="-1.33428">
        <ele>1206.867879</ele>
        <time>2022-02-23T06:03:20.937Z</time>
      </trkpt>
      <trkpt lat="40.17684" lon="-1.33395">
        <ele>1205.464336</ele>
        <time>2022-02-23T06:03:32.072Z</time>
      </trkpt>
      <trkpt lat="40.17655" lon="-1.33374">
        <ele>1204.716493</ele>
        <time>2022-02-23T06:03:37.942Z</time>
      </trkpt>
      <trkpt lat="40.17636" lon="-1.33353">
        <ele>1204.142007</ele>
        <time>2022-02-23T06:03:42.340Z</time>
      </trkpt>
      <trkpt lat="40.17622" lon="-1.33323">
        <ele>1203.531952</ele>
        <time>2022-02-23T06:03:47.022Z</time>
      </trkpt>
      <trkpt lat="40.17592" lon="-1.33219">
        <ele>1201.560303</ele>
        <time>2022-02-23T06:04:02.284Z</time>
      </trkpt>
      <trkpt lat="40.175" lon="-1.33032">
        <ele>1197.995731</ele>
        <time>2022-02-23T06:04:33.710Z</time>
      </trkpt>
      <trkpt lat="40.17438" lon="-1.32857">
        <ele>1194.504649</ele>
        <time>2022-02-23T06:05:00.315Z</time>
      </trkpt>
      <trkpt lat="40.17345" lon="-1.32683">
        <ele>1190.101032</ele>
        <time>2022-02-23T06:05:28.463Z</time>
      </trkpt>
      <trkpt lat="40.17334" lon="-1.32653">
        <ele>1189.373159</ele>
        <time>2022-02-23T06:05:32.780Z</time>
      </trkpt>
      <trkpt lat="40.17293" lon="-1.32489">
        <ele>1185.831363</ele>
        <time>2022-02-23T06:05:55.922Z</time>
      </trkpt>
      <trkpt lat="40.1727" lon="-1.32432">
        <ele>1184.621833</ele>
        <time>2022-02-23T06:06:04.645Z</time>
      </trkpt>
      <trkpt lat="40.17228" lon="-1.32367">
        <ele>1183.019486</ele>
        <time>2022-02-23T06:06:16.232Z</time>
      </trkpt>
      <trkpt lat="40.17135" lon="-1.32248">
        <ele>1180.734474</ele>
        <time>2022-02-23T06:06:40.191Z</time>
      </trkpt>
      <trkpt lat="40.17099" lon="-1.32209">
        <ele>1179.901668</ele>
        <time>2022-02-23T06:06:49.518Z</time>
      </trkpt>
      <trkpt lat="40.17062" lon="-1.32165">
        <ele>1178.919656</ele>
        <time>2022-02-23T06:06:59.247Z</time>
      </trkpt>
      <trkpt lat="40.17021" lon="-1.32125">
        <ele>1177.891042</ele>
        <time>2022-02-23T06:07:08.965Z</time>
      </trkpt>
      <trkpt lat="40.16955" lon="-1.32087">
        <ele>1176.45821</ele>
        <time>2022-02-23T06:07:21.885Z</time>
      </trkpt>
      <trkpt lat="40.16888" lon="-1.32081">
        <ele>1173.258741</ele>
        <time>2022-02-23T06:07:33.334Z</time>
      </trkpt>
      <trkpt lat="40.16813" lon="-1.32072">
        <ele>1169.339311</ele>
        <time>2022-02-23T06:07:45.164Z</time>
      </trkpt>
      <trkpt lat="40.16771" lon="-1.32081">
        <ele>1167.148346</ele>
        <time>2022-02-23T06:07:51.543Z</time>
      </trkpt>
      <trkpt lat="40.16739" lon="-1.32064">
        <ele>1164.11988</ele>
        <time>2022-02-23T06:07:56.637Z</time>
      </trkpt>
      <trkpt lat="40.16662" lon="-1.31979">
        <ele>1154.777092</ele>
        <time>2022-02-23T06:08:11.191Z</time>
      </trkpt>
      <trkpt lat="40.16495" lon="-1.31808">
        <ele>1132.628448</ele>
        <time>2022-02-23T06:08:40.671Z</time>
      </trkpt>
      <trkpt lat="40.16428" lon="-1.31724">
        <ele>1126.088067</ele>
        <time>2022-02-23T06:08:54.154Z</time>
      </trkpt>
      <trkpt lat="40.16396" lon="-1.31695">
        <ele>1123.671512</ele>
        <time>2022-02-23T06:09:00.216Z</time>
      </trkpt>
      <trkpt lat="40.16371" lon="-1.31681">
        <ele>1122.011372</ele>
        <time>2022-02-23T06:09:04.540Z</time>
      </trkpt>
      <trkpt lat="40.16333" lon="-1.31672">
        <ele>1119.659287</ele>
        <time>2022-02-23T06:09:11.347Z</time>
      </trkpt>
      <trkpt lat="40.16277" lon="-1.31671">
        <ele>1118.978655</ele>
        <time>2022-02-23T06:09:21.793Z</time>
      </trkpt>
      <trkpt lat="40.16252" lon="-1.31658">
        <ele>1118.646468</ele>
        <time>2022-02-23T06:09:27.406Z</time>
      </trkpt>
      <trkpt lat="40.1621" lon="-1.31596">
        <ele>1117.873153</ele>
        <time>2022-02-23T06:09:40.685Z</time>
      </trkpt>
      <trkpt lat="40.16155" lon="-1.31571">
        <ele>1116.717959</ele>
        <time>2022-02-23T06:09:52.680Z</time>
      </trkpt>
      <trkpt lat="40.16128" lon="-1.31531">
        <ele>1115.500301</ele>
        <time>2022-02-23T06:10:00.404Z</time>
      </trkpt>
      <trkpt lat="40.16121" lon="-1.31504">
        <ele>1114.86073</ele>
        <time>2022-02-23T06:10:04.212Z</time>
      </trkpt>
      <trkpt lat="40.16111" lon="-1.31415">
        <ele>1112.816017</ele>
        <time>2022-02-23T06:10:15.665Z</time>
      </trkpt>
      <trkpt lat="40.16085" lon="-1.31346">
        <ele>1110.125363</ele>
        <time>2022-02-23T06:10:24.921Z</time>
      </trkpt>
      <trkpt lat="40.16075" lon="-1.31329">
        <ele>1109.21313</ele>
        <time>2022-02-23T06:10:27.449Z</time>
      </trkpt>
      <trkpt lat="40.1603" lon="-1.31298">
        <ele>1106.351038</ele>
        <time>2022-02-23T06:10:35.347Z</time>
      </trkpt>
      <trkpt lat="40.16019" lon="-1.31282">
        <ele>1105.417303</ele>
        <time>2022-02-23T06:10:37.904Z</time>
      </trkpt>
      <trkpt lat="40.16002" lon="-1.31217">
        <ele>1102.474779</ele>
        <time>2022-02-23T06:10:46.049Z</time>
      </trkpt>
      <trkpt lat="40.15993" lon="-1.3116">
        <ele>1099.181683</ele>
        <time>2022-02-23T06:10:52.923Z</time>
      </trkpt>
      <trkpt lat="40.15988" lon="-1.31146">
        <ele>1098.269099</ele>
        <time>2022-02-23T06:10:54.763Z</time>
      </trkpt>
      <trkpt lat="40.15966" lon="-1.31121">
        <ele>1095.995537</ele>
        <time>2022-02-23T06:10:59.019Z</time>
      </trkpt>
      <trkpt lat="40.15951" lon="-1.31054">
        <ele>1091.887563</ele>
        <time>2022-02-23T06:11:06.738Z</time>
      </trkpt>
      <trkpt lat="40.15911" lon="-1.30972">
        <ele>1085.629814</ele>
        <time>2022-02-23T06:11:17.519Z</time>
      </trkpt>
      <trkpt lat="40.15889" lon="-1.30964">
        <ele>1083.421868</ele>
        <time>2022-02-23T06:11:20.774Z</time>
      </trkpt>
      <trkpt lat="40.15878" lon="-1.30968">
        <ele>1082.345983</ele>
        <time>2022-02-23T06:11:22.423Z</time>
      </trkpt>
      <trkpt lat="40.15841" lon="-1.30999">
        <ele>1078.133696</ele>
        <time>2022-02-23T06:11:28.738Z</time>
      </trkpt>
      <trkpt lat="40.1583" lon="-1.30998">
        <ele>1077.072983</ele>
        <time>2022-02-23T06:11:30.324Z</time>
      </trkpt>
      <trkpt lat="40.15804" lon="-1.3098">
        <ele>1074.305152</ele>
        <time>2022-02-23T06:11:34.467Z</time>
      </trkpt>
      <trkpt lat="40.15759" lon="-1.3092">
        <ele>1068.458532</ele>
        <time>2022-02-23T06:11:43.520Z</time>
      </trkpt>
      <trkpt lat="40.1574" lon="-1.30901">
        <ele>1066.374776</ele>
        <time>2022-02-23T06:11:47.135Z</time>
      </trkpt>
      <trkpt lat="40.15709" lon="-1.30884">
        <ele>1063.555683</ele>
        <time>2022-02-23T06:11:51.960Z</time>
      </trkpt>
      <trkpt lat="40.15666" lon="-1.30879">
        <ele>1059.81356</ele>
        <time>2022-02-23T06:11:58.354Z</time>
      </trkpt>
      <trkpt lat="40.1563" lon="-1.3088">
        <ele>1056.694377</ele>
        <time>2022-02-23T06:12:03.724Z</time>
      </trkpt>
      <trkpt lat="40.15574" lon="-1.30865">
        <ele>1051.749598</ele>
        <time>2022-02-23T06:12:11.990Z</time>
      </trkpt>
      <trkpt lat="40.15553" lon="-1.30831">
        <ele>1048.769134</ele>
        <time>2022-02-23T06:12:16.808Z</time>
      </trkpt>
      <trkpt lat="40.1554" lon="-1.30817">
        <ele>1047.308889</ele>
        <time>2022-02-23T06:12:19.158Z</time>
      </trkpt>
      <trkpt lat="40.15526" lon="-1.30811">
        <ele>1046.017549</ele>
        <time>2022-02-23T06:12:21.244Z</time>
      </trkpt>
      <trkpt lat="40.15444" lon="-1.30806">
        <ele>1038.634213</ele>
        <time>2022-02-23T06:12:33.253Z</time>
      </trkpt>
      <trkpt lat="40.1542" lon="-1.30771">
        <ele>1035.076102</ele>
        <time>2022-02-23T06:12:38.497Z</time>
      </trkpt>
      <trkpt lat="40.15399" lon="-1.30712">
        <ele>1030.031538</ele>
        <time>2022-02-23T06:12:45.686Z</time>
      </trkpt>
      <trkpt lat="40.15366" lon="-1.30688">
        <ele>1026.316493</ele>
        <time>2022-02-23T06:12:50.900Z</time>
      </trkpt>
      <trkpt lat="40.1533" lon="-1.30678">
        <ele>1022.642224</ele>
        <time>2022-02-23T06:12:56.003Z</time>
      </trkpt>
      <trkpt lat="40.15314" lon="-1.30681">
        <ele>1020.928092</ele>
        <time>2022-02-23T06:12:58.232Z</time>
      </trkpt>
      <trkpt lat="40.15178" lon="-1.3079">
        <ele>1002.139968</ele>
        <time>2022-02-23T06:13:20.257Z</time>
      </trkpt>
      <trkpt lat="40.15117" lon="-1.30802">
        <ele>994.610051</ele>
        <time>2022-02-23T06:13:29.006Z</time>
      </trkpt>
      <trkpt lat="40.15109" lon="-1.30818">
        <ele>992.935042</ele>
        <time>2022-02-23T06:13:30.963Z</time>
      </trkpt>
      <trkpt lat="40.1512" lon="-1.30864">
        <ele>988.449765</ele>
        <time>2022-02-23T06:13:36.099Z</time>
      </trkpt>
      <trkpt lat="40.15117" lon="-1.30886">
        <ele>986.327366</ele>
        <time>2022-02-23T06:13:38.490Z</time>
      </trkpt>
      <trkpt lat="40.15096" lon="-1.30927">
        <ele>981.801841</ele>
        <time>2022-02-23T06:13:43.624Z</time>
      </trkpt>
      <trkpt lat="40.15037" lon="-1.30972">
        <ele>972.588403</ele>
        <time>2022-02-23T06:13:53.035Z</time>
      </trkpt>
      <trkpt lat="40.15024" lon="-1.31008">
        <ele>968.199361</ele>
        <time>2022-02-23T06:13:57.239Z</time>
      </trkpt>
      <trkpt lat="40.15017" lon="-1.31026">
        <ele>966.026288</ele>
        <time>2022-02-23T06:13:59.274Z</time>
      </trkpt>
      <trkpt lat="40.14999" lon="-1.31046">
        <ele>962.69781</ele>
        <time>2022-02-23T06:14:02.477Z</time>
      </trkpt>
      <trkpt lat="40.14895" lon="-1.31093">
        <ele>947.730263</ele>
        <time>2022-02-23T06:14:17.172Z</time>
      </trkpt>
      <trkpt lat="40.14812" lon="-1.31171">
        <ele>935.060715</ele>
        <time>2022-02-23T06:14:31.451Z</time>
      </trkpt>
      <trkpt lat="40.14808" lon="-1.31165">
        <ele>934.290254</ele>
        <time>2022-02-23T06:14:33.018Z</time>
      </trkpt>
      <trkpt lat="40.14791" lon="-1.31195">
        <ele>930.723426</ele>
        <time>2022-02-23T06:14:40.302Z</time>
      </trkpt>
      <trkpt lat="40.14769" lon="-1.31207">
        <ele>928.469446</ele>
        <time>2022-02-23T06:14:46.342Z</time>
      </trkpt>
      <trkpt lat="40.14747" lon="-1.31228">
        <ele>925.877443</ele>
        <time>2022-02-23T06:14:53.182Z</time>
      </trkpt>
      <trkpt lat="40.14745" lon="-1.31249">
        <ele>924.361648</ele>
        <time>2022-02-23T06:14:57.298Z</time>
      </trkpt>
      <trkpt lat="40.14736" lon="-1.3127">
        <ele>922.646231</ele>
        <time>2022-02-23T06:15:01.791Z</time>
      </trkpt>
      <trkpt lat="40.14738" lon="-1.31282">
        <ele>921.754012</ele>
        <time>2022-02-23T06:15:04.218Z</time>
      </trkpt>
      <trkpt lat="40.14719" lon="-1.31299">
        <ele>919.581247</ele>
        <time>2022-02-23T06:15:07.494Z</time>
      </trkpt>
      <trkpt lat="40.14699" lon="-1.31298">
        <ele>917.646441</ele>
        <time>2022-02-23T06:15:10.494Z</time>
      </trkpt>
      <trkpt lat="40.14695" lon="-1.31302">
        <ele>917.203781</ele>
        <time>2022-02-23T06:15:11.155Z</time>
      </trkpt>
      <trkpt lat="40.14695" lon="-1.31308">
        <ele>916.756541</ele>
        <time>2022-02-23T06:15:11.856Z</time>
      </trkpt>
      <trkpt lat="40.14672" lon="-1.31327">
        <ele>914.205385</ele>
        <time>2022-02-23T06:15:16.170Z</time>
      </trkpt>
      <trkpt lat="40.14661" lon="-1.31322">
        <ele>913.480412</ele>
        <time>2022-02-23T06:15:18.070Z</time>
      </trkpt>
      <trkpt lat="40.14658" lon="-1.31325">
        <ele>913.31168</ele>
        <time>2022-02-23T06:15:18.798Z</time>
      </trkpt>
      <trkpt lat="40.14649" lon="-1.31335">
        <ele>912.872195</ele>
        <time>2022-02-23T06:15:20.627Z</time>
      </trkpt>
      <trkpt lat="40.14631" lon="-1.31355">
        <ele>911.990116</ele>
        <time>2022-02-23T06:15:26.265Z</time>
      </trkpt>
      <trkpt lat="40.1462" lon="-1.31351">
        <ele>911.557747</ele>
        <time>2022-02-23T06:15:28.640Z</time>
      </trkpt>
      <trkpt lat="40.14612" lon="-1.31361">
        <ele>911.136715</ele>
        <time>2022-02-23T06:15:31.916Z</time>
      </trkpt>
      <trkpt lat="40.14608" lon="-1.31381">
        <ele>910.548661</ele>
        <time>2022-02-23T06:15:35.737Z</time>
      </trkpt>
      <trkpt lat="40.14617" lon="-1.31392">
        <ele>910.100897</ele>
        <time>2022-02-23T06:15:38.254Z</time>
      </trkpt>
      <trkpt lat="40.1465" lon="-1.31379">
        <ele>908.812437</ele>
        <time>2022-02-23T06:15:46.213Z</time>
      </trkpt>
      <trkpt lat="40.14674" lon="-1.3138">
        <ele>907.909355</ele>
        <time>2022-02-23T06:15:52.521Z</time>
      </trkpt>
      <trkpt lat="40.147" lon="-1.31383">
        <ele>906.924976</ele>
        <time>2022-02-23T06:15:57.290Z</time>
      </trkpt>
      <trkpt lat="40.14751" lon="-1.31374">
        <ele>904.636085</ele>
        <time>2022-02-23T06:16:07.056Z</time>
      </trkpt>
      <trkpt lat="40.14696" lon="-1.31399">
        <ele>902.047595</ele>
        <time>2022-02-23T06:16:17.353Z</time>
      </trkpt>
      <trkpt lat="40.14616" lon="-1.31427">
        <ele>898.123968</ele>
        <time>2022-02-23T06:16:29.765Z</time>
      </trkpt>
      <trkpt lat="40.14578" lon="-1.31534">
        <ele>892.317602</ele>
        <time>2022-02-23T06:16:42.992Z</time>
      </trkpt>
      <trkpt lat="40.14542" lon="-1.31629">
        <ele>887.350998</ele>
        <time>2022-02-23T06:16:55.777Z</time>
      </trkpt>
      <trkpt lat="40.14515" lon="-1.31671">
        <ele>886.478885</ele>
        <time>2022-02-23T06:17:02.890Z</time>
      </trkpt>
      <trkpt lat="40.14477" lon="-1.31719">
        <ele>885.388015</ele>
        <time>2022-02-23T06:17:12.414Z</time>
      </trkpt>
      <trkpt lat="40.14451" lon="-1.31734">
        <ele>884.78621</ele>
        <time>2022-02-23T06:17:17.987Z</time>
      </trkpt>
      <trkpt lat="40.14432" lon="-1.31736">
        <ele>884.383785</ele>
        <time>2022-02-23T06:17:21.802Z</time>
      </trkpt>
      <trkpt lat="40.14403" lon="-1.31726">
        <ele>883.755561</ele>
        <time>2022-02-23T06:17:28.166Z</time>
      </trkpt>
      <trkpt lat="40.14348" lon="-1.31692">
        <ele>884.231148</ele>
        <time>2022-02-23T06:17:41.718Z</time>
      </trkpt>
      <trkpt lat="40.14228" lon="-1.31645">
        <ele>885.322778</ele>
        <time>2022-02-23T06:18:17.725Z</time>
      </trkpt>
      <trkpt lat="40.14158" lon="-1.31625">
        <ele>886.018479</ele>
        <time>2022-02-23T06:18:41.530Z</time>
      </trkpt>
      <trkpt lat="40.14078" lon="-1.31574">
        <ele>886.88246</ele>
        <time>2022-02-23T06:19:03.043Z</time>
      </trkpt>
      <trkpt lat="40.14069" lon="-1.31563">
        <ele>887.002221</ele>
        <time>2022-02-23T06:19:08.176Z</time>
      </trkpt>
      <trkpt lat="40.14061" lon="-1.31525">
        <ele>886.728618</ele>
        <time>2022-02-23T06:19:13.982Z</time>
      </trkpt>
      <trkpt lat="40.14049" lon="-1.31505">
        <ele>886.532061</ele>
        <time>2022-02-23T06:19:17.790Z</time>
      </trkpt>
      <trkpt lat="40.14027" lon="-1.31476">
        <ele>886.196845</ele>
        <time>2022-02-23T06:19:24.239Z</time>
      </trkpt>
      <trkpt lat="40.14001" lon="-1.31456">
        <ele>885.881126</ele>
        <time>2022-02-23T06:19:30.179Z</time>
      </trkpt>
      <trkpt lat="40.13969" lon="-1.3145">
        <ele>885.534206</ele>
        <time>2022-02-23T06:19:36.401Z</time>
      </trkpt>
      <trkpt lat="40.13932" lon="-1.31435">
        <ele>885.122965</ele>
        <time>2022-02-23T06:19:43.050Z</time>
      </trkpt>
      <trkpt lat="40.13814" lon="-1.31436">
        <ele>884.672555</ele>
        <time>2022-02-23T06:20:07.010Z</time>
      </trkpt>
      <trkpt lat="40.13776" lon="-1.31443">
        <ele>884.525239</ele>
        <time>2022-02-23T06:20:15.153Z</time>
      </trkpt>
      <trkpt lat="40.13739" lon="-1.31462">
        <ele>885.044926</ele>
        <time>2022-02-23T06:20:25.789Z</time>
      </trkpt>
      <trkpt lat="40.13668" lon="-1.31466">
        <ele>887.737522</ele>
        <time>2022-02-23T06:20:53.722Z</time>
      </trkpt>
      <trkpt lat="40.13642" lon="-1.31453">
        <ele>888.775772</ele>
        <time>2022-02-23T06:21:07.117Z</time>
      </trkpt>
      <trkpt lat="40.13629" lon="-1.31432">
        <ele>889.561013</ele>
        <time>2022-02-23T06:21:16.095Z</time>
      </trkpt>
      <trkpt lat="40.1361" lon="-1.31402">
        <ele>890.69217</ele>
        <time>2022-02-23T06:21:31.059Z</time>
      </trkpt>
      <trkpt lat="40.1357" lon="-1.31358">
        <ele>892.527706</ele>
        <time>2022-02-23T06:21:56.100Z</time>
      </trkpt>
      <trkpt lat="40.13542" lon="-1.31331">
        <ele>893.724536</ele>
        <time>2022-02-23T06:22:13.138Z</time>
      </trkpt>
      <trkpt lat="40.13533" lon="-1.31318">
        <ele>894.166696</ele>
        <time>2022-02-23T06:22:20.074Z</time>
      </trkpt>
      <trkpt lat="40.13525" lon="-1.31294">
        <ele>894.854958</ele>
        <time>2022-02-23T06:22:28.307Z</time>
      </trkpt>
      <trkpt lat="40.13477" lon="-1.31215">
        <ele>897.276878</ele>
        <time>2022-02-23T06:22:55.313Z</time>
      </trkpt>
      <trkpt lat="40.13457" lon="-1.31162">
        <ele>895.610095</ele>
        <time>2022-02-23T06:23:03.739Z</time>
      </trkpt>
      <trkpt lat="40.13444" lon="-1.31083">
        <ele>893.302983</ele>
        <time>2022-02-23T06:23:13.655Z</time>
      </trkpt>
      <trkpt lat="40.1345" lon="-1.30964">
        <ele>890.961282</ele>
        <time>2022-02-23T06:23:27.569Z</time>
      </trkpt>
      <trkpt lat="40.13447" lon="-1.30952">
        <ele>891.090944</ele>
        <time>2022-02-23T06:23:29.064Z</time>
      </trkpt>
      <trkpt lat="40.13426" lon="-1.30933">
        <ele>891.441115</ele>
        <time>2022-02-23T06:23:33.030Z</time>
      </trkpt>
      <trkpt lat="40.13376" lon="-1.30907">
        <ele>892.184996</ele>
        <time>2022-02-23T06:23:46.635Z</time>
      </trkpt>
      <trkpt lat="40.13362" lon="-1.30889">
        <ele>892.450496</ele>
        <time>2022-02-23T06:23:54.438Z</time>
      </trkpt>
      <trkpt lat="40.13342" lon="-1.30853">
        <ele>892.907498</ele>
        <time>2022-02-23T06:24:14.770Z</time>
      </trkpt>
      <trkpt lat="40.13322" lon="-1.30844">
        <ele>893.704406</ele>
        <time>2022-02-23T06:24:31.084Z</time>
      </trkpt>
      <trkpt lat="40.13298" lon="-1.30846">
        <ele>896.399431</ele>
        <time>2022-02-23T06:24:48.322Z</time>
      </trkpt>
      <trkpt lat="40.13265" lon="-1.30852">
        <ele>900.125396</ele>
        <time>2022-02-23T06:25:14.513Z</time>
      </trkpt>
      <trkpt lat="40.13247" lon="-1.30839">
        <ele>902.522088</ele>
        <time>2022-02-23T06:25:34.248Z</time>
      </trkpt>
      <trkpt lat="40.13194" lon="-1.30738">
        <ele>913.125015</ele>
        <time>2022-02-23T06:26:55.838Z</time>
      </trkpt>
      <trkpt lat="40.13191" lon="-1.30727">
        <ele>913.477564</ele>
        <time>2022-02-23T06:27:03.966Z</time>
      </trkpt>
      <trkpt lat="40.13174" lon="-1.3063">
        <ele>913.764032</ele>
        <time>2022-02-23T06:27:47.675Z</time>
      </trkpt>
      <trkpt lat="40.13175" lon="-1.30566">
        <ele>913.94955</ele>
        <time>2022-02-23T06:27:57.100Z</time>
      </trkpt>
      <trkpt lat="40.13157" lon="-1.30497">
        <ele>913.205948</ele>
        <time>2022-02-23T06:28:05.078Z</time>
      </trkpt>
      <trkpt lat="40.13157" lon="-1.30495">
        <ele>913.033032</ele>
        <time>2022-02-23T06:28:05.250Z</time>
      </trkpt>
      <trkpt lat="40.1316" lon="-1.30468">
        <ele>910.087083</ele>
        <time>2022-02-23T06:28:08.133Z</time>
      </trkpt>
      <trkpt lat="40.13173" lon="-1.30432">
        <ele>905.876268</ele>
        <time>2022-02-23T06:28:12.235Z</time>
      </trkpt>
      <trkpt lat="40.13187" lon="-1.30404">
        <ele>902.392692</ele>
        <time>2022-02-23T06:28:15.641Z</time>
      </trkpt>
      <trkpt lat="40.13185" lon="-1.30383">
        <ele>900.119161</ele>
        <time>2022-02-23T06:28:17.838Z</time>
      </trkpt>
      <trkpt lat="40.13176" lon="-1.30318">
        <ele>893.175437</ele>
        <time>2022-02-23T06:28:24.899Z</time>
      </trkpt>
      <trkpt lat="40.1317" lon="-1.303">
        <ele>891.036766</ele>
        <time>2022-02-23T06:28:26.943Z</time>
      </trkpt>
      <trkpt lat="40.13116" lon="-1.30273">
        <ele>885.388568</ele>
        <time>2022-02-23T06:28:34.757Z</time>
      </trkpt>
      <trkpt lat="40.13091" lon="-1.30277">
        <ele>883.214262</ele>
        <time>2022-02-23T06:28:38.234Z</time>
      </trkpt>
      <trkpt lat="40.13013" lon="-1.3028">
        <ele>876.335995</ele>
        <time>2022-02-23T06:28:49.891Z</time>
      </trkpt>
      <trkpt lat="40.13004" lon="-1.30284">
        <ele>875.498924</ele>
        <time>2022-02-23T06:28:51.510Z</time>
      </trkpt>
      <trkpt lat="40.12996" lon="-1.30296">
        <ele>874.500927</ele>
        <time>2022-02-23T06:28:53.455Z</time>
      </trkpt>
      <trkpt lat="40.12986" lon="-1.30324">
        <ele>873.267276</ele>
        <time>2022-02-23T06:28:57.722Z</time>
      </trkpt>
      <trkpt lat="40.1298" lon="-1.30344">
        <ele>872.909744</ele>
        <time>2022-02-23T06:29:00.460Z</time>
      </trkpt>
      <trkpt lat="40.1297" lon="-1.30384">
        <ele>872.177557</ele>
        <time>2022-02-23T06:29:06.508Z</time>
      </trkpt>
      <trkpt lat="40.12964" lon="-1.30397">
        <ele>871.908589</ele>
        <time>2022-02-23T06:29:08.924Z</time>
      </trkpt>
      <trkpt lat="40.12959" lon="-1.30405">
        <ele>871.726659</ele>
        <time>2022-02-23T06:29:10.561Z</time>
      </trkpt>
      <trkpt lat="40.12956" lon="-1.30388">
        <ele>871.427051</ele>
        <time>2022-02-23T06:29:13.013Z</time>
      </trkpt>
      <trkpt lat="40.12948" lon="-1.30381">
        <ele>871.192633</ele>
        <time>2022-02-23T06:29:15.318Z</time>
      </trkpt>
      <trkpt lat="40.12913" lon="-1.30381">
        <ele>870.409698</ele>
        <time>2022-02-23T06:29:22.337Z</time>
      </trkpt>
      <trkpt lat="40.12873" lon="-1.30371">
        <ele>869.501398</ele>
        <time>2022-02-23T06:29:30.079Z</time>
      </trkpt>
      <trkpt lat="40.12802" lon="-1.3035">
        <ele>868.177841</ele>
        <time>2022-02-23T06:29:43.484Z</time>
      </trkpt>
      <trkpt lat="40.12716" lon="-1.30301">
        <ele>866.486048</ele>
        <time>2022-02-23T06:30:03.305Z</time>
      </trkpt>
      <trkpt lat="40.12695" lon="-1.30297">
        <ele>865.676245</ele>
        <time>2022-02-23T06:30:07.949Z</time>
      </trkpt>
      <trkpt lat="40.12664" lon="-1.303">
        <ele>863.810418</ele>
        <time>2022-02-23T06:30:13.568Z</time>
      </trkpt>
      <trkpt lat="40.12633" lon="-1.30286">
        <ele>861.782498</ele>
        <time>2022-02-23T06:30:18.940Z</time>
      </trkpt>
      <trkpt lat="40.12599" lon="-1.30222">
        <ele>858.14693</ele>
        <time>2022-02-23T06:30:28.283Z</time>
      </trkpt>
      <trkpt lat="40.12586" lon="-1.3022">
        <ele>857.34225</ele>
        <time>2022-02-23T06:30:30.304Z</time>
      </trkpt>
      <trkpt lat="40.12561" lon="-1.30199">
        <ele>855.504299</ele>
        <time>2022-02-23T06:30:34.876Z</time>
      </trkpt>
      <trkpt lat="40.12545" lon="-1.30154">
        <ele>851.411707</ele>
        <time>2022-02-23T06:30:40.489Z</time>
      </trkpt>
      <trkpt lat="40.12474" lon="-1.30064">
        <ele>840.061778</ele>
        <time>2022-02-23T06:30:54.748Z</time>
      </trkpt>
      <trkpt lat="40.12443" lon="-1.30046">
        <ele>836.159966</ele>
        <time>2022-02-23T06:30:59.623Z</time>
      </trkpt>
      <trkpt lat="40.12368" lon="-1.30041">
        <ele>828.388209</ele>
        <time>2022-02-23T06:31:10.752Z</time>
      </trkpt>
      <trkpt lat="40.12352" lon="-1.30031">
        <ele>826.639684</ele>
        <time>2022-02-23T06:31:13.333Z</time>
      </trkpt>
      <trkpt lat="40.12322" lon="-1.29994">
        <ele>822.473043</ele>
        <time>2022-02-23T06:31:19.487Z</time>
      </trkpt>
      <trkpt lat="40.1231" lon="-1.2996">
        <ele>819.59504</ele>
        <time>2022-02-23T06:31:23.780Z</time>
      </trkpt>
      <trkpt lat="40.12294" lon="-1.29941">
        <ele>817.432465</ele>
        <time>2022-02-23T06:31:27.009Z</time>
      </trkpt>
      <trkpt lat="40.1228" lon="-1.29916">
        <ele>815.537603</ele>
        <time>2022-02-23T06:31:30.638Z</time>
      </trkpt>
      <trkpt lat="40.12271" lon="-1.29889">
        <ele>814.048979</ele>
        <time>2022-02-23T06:31:34.068Z</time>
      </trkpt>
      <trkpt lat="40.12256" lon="-1.29869">
        <ele>812.603431</ele>
        <time>2022-02-23T06:31:37.398Z</time>
      </trkpt>
      <trkpt lat="40.12175" lon="-1.29828">
        <ele>806.813492</ele>
        <time>2022-02-23T06:31:51.194Z</time>
      </trkpt>
      <trkpt lat="40.12138" lon="-1.29793">
        <ele>804.02299</ele>
        <time>2022-02-23T06:31:58.926Z</time>
      </trkpt>
      <trkpt lat="40.12141" lon="-1.29769">
        <ele>803.180948</ele>
        <time>2022-02-23T06:32:02.088Z</time>
      </trkpt>
      <trkpt lat="40.12129" lon="-1.29757">
        <ele>802.510947</ele>
        <time>2022-02-23T06:32:06.740Z</time>
      </trkpt>
      <trkpt lat="40.12123" lon="-1.29704">
        <ele>800.708809</ele>
        <time>2022-02-23T06:32:18.610Z</time>
      </trkpt>
      <trkpt lat="40.12117" lon="-1.29692">
        <ele>800.215905</ele>
        <time>2022-02-23T06:32:22.021Z</time>
      </trkpt>
      <trkpt lat="40.12104" lon="-1.29681">
        <ele>799.524229</ele>
        <time>2022-02-23T06:32:26.543Z</time>
      </trkpt>
      <trkpt lat="40.12075" lon="-1.29667">
        <ele>798.171752</ele>
        <time>2022-02-23T06:32:35.687Z</time>
      </trkpt>
      <trkpt lat="40.12074" lon="-1.29626">
        <ele>796.781818</ele>
        <time>2022-02-23T06:32:44.864Z</time>
      </trkpt>
      <trkpt lat="40.12084" lon="-1.29585">
        <ele>795.295784</ele>
        <time>2022-02-23T06:32:54.685Z</time>
      </trkpt>
      <trkpt lat="40.12077" lon="-1.29567">
        <ele>794.602229</ele>
        <time>2022-02-23T06:32:57.148Z</time>
      </trkpt>
      <trkpt lat="40.12081" lon="-1.29533">
        <ele>793.414835</ele>
        <time>2022-02-23T06:33:01.780Z</time>
      </trkpt>
      <trkpt lat="40.12078" lon="-1.29507">
        <ele>792.505012</ele>
        <time>2022-02-23T06:33:05.220Z</time>
      </trkpt>
      <trkpt lat="40.12036" lon="-1.29456">
        <ele>789.935533</ele>
        <time>2022-02-23T06:33:14.696Z</time>
      </trkpt>
      <trkpt lat="40.12" lon="-1.29416">
        <ele>788.177309</ele>
        <time>2022-02-23T06:33:22.748Z</time>
      </trkpt>
      <trkpt lat="40.11951" lon="-1.29358">
        <ele>786.78876</ele>
        <time>2022-02-23T06:33:35.027Z</time>
      </trkpt>
      <trkpt lat="40.11922" lon="-1.29297">
        <ele>785.644082</ele>
        <time>2022-02-23T06:33:46.058Z</time>
      </trkpt>
      <trkpt lat="40.11885" lon="-1.29258">
        <ele>784.673918</ele>
        <time>2022-02-23T06:33:56.112Z</time>
      </trkpt>
      <trkpt lat="40.11844" lon="-1.29238">
        <ele>784.118984</ele>
        <time>2022-02-23T06:34:05.400Z</time>
      </trkpt>
      <trkpt lat="40.11694" lon="-1.29301">
        <ele>782.088429</ele>
        <time>2022-02-23T06:34:37.136Z</time>
      </trkpt>
      <trkpt lat="40.11655" lon="-1.29294">
        <ele>781.521071</ele>
        <time>2022-02-23T06:34:44.756Z</time>
      </trkpt>
      <trkpt lat="40.11613" lon="-1.2932">
        <ele>780.845598</ele>
        <time>2022-02-23T06:34:53.652Z</time>
      </trkpt>
      <trkpt lat="40.11599" lon="-1.2932">
        <ele>780.643159</ele>
        <time>2022-02-23T06:34:56.426Z</time>
      </trkpt>
      <trkpt lat="40.11581" lon="-1.29312">
        <ele>780.365875</ele>
        <time>2022-02-23T06:35:00.172Z</time>
      </trkpt>
      <trkpt lat="40.11564" lon="-1.29295">
        <ele>780.063561</ele>
        <time>2022-02-23T06:35:04.578Z</time>
      </trkpt>
      <trkpt lat="40.11555" lon="-1.29272">
        <ele>779.891663</ele>
        <time>2022-02-23T06:35:08.711Z</time>
      </trkpt>
      <trkpt lat="40.1153" lon="-1.29257">
        <ele>780.09683</ele>
        <time>2022-02-23T06:35:14.844Z</time>
      </trkpt>
      <trkpt lat="40.11499" lon="-1.29225">
        <ele>780.394477</ele>
        <time>2022-02-23T06:35:24.846Z</time>
      </trkpt>
      <trkpt lat="40.11462" lon="-1.29196">
        <ele>780.721451</ele>
        <time>2022-02-23T06:35:37.417Z</time>
      </trkpt>
      <trkpt lat="40.1138" lon="-1.29093">
        <ele>782.043266</ele>
        <time>2022-02-23T06:36:12.345Z</time>
      </trkpt>
      <trkpt lat="40.11355" lon="-1.2907">
        <ele>782.553913</ele>
        <time>2022-02-23T06:36:23.115Z</time>
      </trkpt>
      <trkpt lat="40.11327" lon="-1.29063">
        <ele>783.025026</ele>
        <time>2022-02-23T06:36:33.144Z</time>
      </trkpt>
      <trkpt lat="40.11282" lon="-1.29087">
        <ele>783.858772</ele>
        <time>2022-02-23T06:36:49.479Z</time>
      </trkpt>
      <trkpt lat="40.11253" lon="-1.29095">
        <ele>784.170892</ele>
        <time>2022-02-23T06:36:58.344Z</time>
      </trkpt>
      <trkpt lat="40.11183" lon="-1.29094">
        <ele>783.229371</ele>
        <time>2022-02-23T06:37:14.403Z</time>
      </trkpt>
      <trkpt lat="40.11089" lon="-1.29058">
        <ele>781.901521</ele>
        <time>2022-02-23T06:37:32.963Z</time>
      </trkpt>
      <trkpt lat="40.11069" lon="-1.29042">
        <ele>781.071617</ele>
        <time>2022-02-23T06:37:37.064Z</time>
      </trkpt>
      <trkpt lat="40.10963" lon="-1.29029">
        <ele>776.616172</ele>
        <time>2022-02-23T06:37:55.031Z</time>
      </trkpt>
      <trkpt lat="40.10933" lon="-1.29016">
        <ele>775.284476</ele>
        <time>2022-02-23T06:38:00.362Z</time>
      </trkpt>
      <trkpt lat="40.10914" lon="-1.29">
        <ele>774.363527</ele>
        <time>2022-02-23T06:38:04.075Z</time>
      </trkpt>
      <trkpt lat="40.10897" lon="-1.28972">
        <ele>773.66795</ele>
        <time>2022-02-23T06:38:08.815Z</time>
      </trkpt>
      <trkpt lat="40.10868" lon="-1.28942">
        <ele>772.793444</ele>
        <time>2022-02-23T06:38:15.288Z</time>
      </trkpt>
      <trkpt lat="40.10833" lon="-1.28878">
        <ele>771.36552</ele>
        <time>2022-02-23T06:38:26.643Z</time>
      </trkpt>
      <trkpt lat="40.10805" lon="-1.28811">
        <ele>769.995666</ele>
        <time>2022-02-23T06:38:38.770Z</time>
      </trkpt>
      <trkpt lat="40.1079" lon="-1.28773">
        <ele>770.081579</ele>
        <time>2022-02-23T06:38:45.662Z</time>
      </trkpt>
      <trkpt lat="40.10761" lon="-1.28621">
        <ele>770.398541</ele>
        <time>2022-02-23T06:39:14.069Z</time>
      </trkpt>
      <trkpt lat="40.10747" lon="-1.2858">
        <ele>770.616387</ele>
        <time>2022-02-23T06:39:24.336Z</time>
      </trkpt>
      <trkpt lat="40.10745" lon="-1.28567">
        <ele>770.801191</ele>
        <time>2022-02-23T06:39:27.363Z</time>
      </trkpt>
      <trkpt lat="40.10755" lon="-1.28518">
        <ele>771.504344</ele>
        <time>2022-02-23T06:39:38.519Z</time>
      </trkpt>
      <trkpt lat="40.10751" lon="-1.28443">
        <ele>772.554651</ele>
        <time>2022-02-23T06:39:55.013Z</time>
      </trkpt>
      <trkpt lat="40.10727" lon="-1.28381">
        <ele>773.519376</ele>
        <time>2022-02-23T06:40:13.008Z</time>
      </trkpt>
      <trkpt lat="40.10711" lon="-1.28328">
        <ele>774.772037</ele>
        <time>2022-02-23T06:40:30.436Z</time>
      </trkpt>
      <trkpt lat="40.10693" lon="-1.28255">
        <ele>776.697405</ele>
        <time>2022-02-23T06:40:52.508Z</time>
      </trkpt>
      <trkpt lat="40.10696" lon="-1.28249">
        <ele>776.889051</ele>
        <time>2022-02-23T06:40:54.879Z</time>
      </trkpt>
      <trkpt lat="40.10705" lon="-1.28244">
        <ele>777.206924</ele>
        <time>2022-02-23T06:40:59.074Z</time>
      </trkpt>
      <trkpt lat="40.10708" lon="-1.28242">
        <ele>777.336282</ele>
        <time>2022-02-23T06:41:00.695Z</time>
      </trkpt>
      <trkpt lat="40.10708" lon="-1.28237">
        <ele>777.462458</ele>
        <time>2022-02-23T06:41:01.954Z</time>
      </trkpt>
      <trkpt lat="40.10707" lon="-1.28232">
        <ele>777.595583</ele>
        <time>2022-02-23T06:41:03.270Z</time>
      </trkpt>
      <trkpt lat="40.10702" lon="-1.28216">
        <ele>778.025349</ele>
        <time>2022-02-23T06:41:07.337Z</time>
      </trkpt>
      <trkpt lat="40.10701" lon="-1.2821">
        <ele>778.174335</ele>
        <time>2022-02-23T06:41:09.109Z</time>
      </trkpt>
      <trkpt lat="40.10713" lon="-1.2819">
        <ele>778.810324</ele>
        <time>2022-02-23T06:41:17.045Z</time>
      </trkpt>
      <trkpt lat="40.10726" lon="-1.28162">
        <ele>779.637571</ele>
        <time>2022-02-23T06:41:28.604Z</time>
      </trkpt>
      <trkpt lat="40.10723" lon="-1.28144">
        <ele>779.86607</ele>
        <time>2022-02-23T06:41:33.983Z</time>
      </trkpt>
      <trkpt lat="40.10723" lon="-1.28139">
        <ele>779.924526</ele>
        <time>2022-02-23T06:41:35.348Z</time>
      </trkpt>
      <trkpt lat="40.10724" lon="-1.28118">
        <ele>780.177737</ele>
        <time>2022-02-23T06:41:44.275Z</time>
      </trkpt>
      <trkpt lat="40.10726" lon="-1.28111">
        <ele>780.272304</ele>
        <time>2022-02-23T06:41:47.002Z</time>
      </trkpt>
      <trkpt lat="40.1073" lon="-1.28107">
        <ele>780.345888</ele>
        <time>2022-02-23T06:41:48.835Z</time>
      </trkpt>
      <trkpt lat="40.10737" lon="-1.28091">
        <ele>780.571444</ele>
        <time>2022-02-23T06:41:52.619Z</time>
      </trkpt>
      <trkpt lat="40.10743" lon="-1.28082">
        <ele>780.709971</ele>
        <time>2022-02-23T06:41:57.131Z</time>
      </trkpt>
      <trkpt lat="40.10748" lon="-1.28061">
        <ele>780.986738</ele>
        <time>2022-02-23T06:42:02.757Z</time>
      </trkpt>
      <trkpt lat="40.10756" lon="-1.2804">
        <ele>781.267893</ele>
        <time>2022-02-23T06:42:07.935Z</time>
      </trkpt>
      <trkpt lat="40.1077" lon="-1.28017">
        <ele>781.623704</ele>
        <time>2022-02-23T06:42:12.362Z</time>
      </trkpt>
      <trkpt lat="40.10782" lon="-1.28002">
        <ele>781.881108</ele>
        <time>2022-02-23T06:42:18.090Z</time>
      </trkpt>
      <trkpt lat="40.1079" lon="-1.27979">
        <ele>782.184802</ele>
        <time>2022-02-23T06:42:21.557Z</time>
      </trkpt>
      <trkpt lat="40.10781" lon="-1.27945">
        <ele>782.334924</ele>
        <time>2022-02-23T06:42:28.525Z</time>
      </trkpt>
      <trkpt lat="40.10775" lon="-1.27938">
        <ele>782.161972</ele>
        <time>2022-02-23T06:42:29.816Z</time>
      </trkpt>
      <trkpt lat="40.10728" lon="-1.27913">
        <ele>781.082883</ele>
        <time>2022-02-23T06:42:40.200Z</time>
      </trkpt>
      <trkpt lat="40.10717" lon="-1.27907">
        <ele>780.829517</ele>
        <time>2022-02-23T06:42:42.649Z</time>
      </trkpt>
      <trkpt lat="40.1071" lon="-1.27896">
        <ele>780.597593</ele>
        <time>2022-02-23T06:42:44.414Z</time>
      </trkpt>
      <trkpt lat="40.10706" lon="-1.27889">
        <ele>780.457624</ele>
        <time>2022-02-23T06:42:46.106Z</time>
      </trkpt>
      <trkpt lat="40.10703" lon="-1.27851">
        <ele>779.832286</ele>
        <time>2022-02-23T06:42:51.198Z</time>
      </trkpt>
      <trkpt lat="40.10687" lon="-1.27814">
        <ele>779.138814</ele>
        <time>2022-02-23T06:42:56.746Z</time>
      </trkpt>
      <trkpt lat="40.10596" lon="-1.27641">
        <ele>772.413036</ele>
        <time>2022-02-23T06:43:23.379Z</time>
      </trkpt>
      <trkpt lat="40.10562" lon="-1.27548">
        <ele>768.384271</ele>
        <time>2022-02-23T06:43:35.312Z</time>
      </trkpt>
      <trkpt lat="40.10483" lon="-1.27602">
        <ele>763.245674</ele>
        <time>2022-02-23T06:43:48.769Z</time>
      </trkpt>
      <trkpt lat="40.10475" lon="-1.27599">
        <ele>762.737505</ele>
        <time>2022-02-23T06:43:50.137Z</time>
      </trkpt>
      <trkpt lat="40.10458" lon="-1.27575">
        <ele>761.276432</ele>
        <time>2022-02-23T06:43:57.303Z</time>
      </trkpt>
      <trkpt lat="40.10412" lon="-1.27552">
        <ele>759.65144</ele>
        <time>2022-02-23T06:44:11.458Z</time>
      </trkpt>
      <trkpt lat="40.10412" lon="-1.27556">
        <ele>759.612411</ele>
        <time>2022-02-23T06:44:11.870Z</time>
      </trkpt>
      <trkpt lat="40.10405" lon="-1.27585">
        <ele>759.248807</ele>
        <time>2022-02-23T06:44:15.784Z</time>
      </trkpt>
      <trkpt lat="40.10398" lon="-1.27609">
        <ele>758.940725</ele>
        <time>2022-02-23T06:44:19.330Z</time>
      </trkpt>
      <trkpt lat="40.1039" lon="-1.27653">
        <ele>758.39366</ele>
        <time>2022-02-23T06:44:26.249Z</time>
      </trkpt>
      <trkpt lat="40.10371" lon="-1.27659">
        <ele>758.088106</ele>
        <time>2022-02-23T06:44:30.594Z</time>
      </trkpt>
      <trkpt lat="40.10354" lon="-1.27656">
        <ele>757.823036</ele>
        <time>2022-02-23T06:44:35.016Z</time>
      </trkpt>
      <trkpt lat="40.10342" lon="-1.2765">
        <ele>757.623157</ele>
        <time>2022-02-23T06:44:38.582Z</time>
      </trkpt>
      <trkpt lat="40.10331" lon="-1.27647">
        <ele>757.439466</ele>
        <time>2022-02-23T06:44:41.553Z</time>
      </trkpt>
      <trkpt lat="40.10227" lon="-1.27628">
        <ele>758.315847</ele>
        <time>2022-02-23T06:45:11.943Z</time>
      </trkpt>
      <trkpt lat="40.102" lon="-1.27614">
        <ele>758.620527</ele>
        <time>2022-02-23T06:45:20.117Z</time>
      </trkpt>
      <trkpt lat="40.10155" lon="-1.27578">
        <ele>759.197399</ele>
        <time>2022-02-23T06:45:34.510Z</time>
      </trkpt>
      <trkpt lat="40.10077" lon="-1.27544">
        <ele>759.067825</ele>
        <time>2022-02-23T06:45:55.253Z</time>
      </trkpt>
      <trkpt lat="40.09985" lon="-1.27489">
        <ele>758.858259</ele>
        <time>2022-02-23T06:46:15.786Z</time>
      </trkpt>
      <trkpt lat="40.09874" lon="-1.27432">
        <ele>757.343705</ele>
        <time>2022-02-23T06:46:38.682Z</time>
      </trkpt>
      <trkpt lat="40.09791" lon="-1.27377">
        <ele>756.336731</ele>
        <time>2022-02-23T06:46:56.489Z</time>
      </trkpt>
      <trkpt lat="40.09683" lon="-1.27346">
        <ele>755.477246</ele>
        <time>2022-02-23T06:47:19.508Z</time>
      </trkpt>
      <trkpt lat="40.09656" lon="-1.27334">
        <ele>755.261713</ele>
        <time>2022-02-23T06:47:24.932Z</time>
      </trkpt>
      <trkpt lat="40.09628" lon="-1.27303">
        <ele>755.633521</ele>
        <time>2022-02-23T06:47:32.475Z</time>
      </trkpt>
      <trkpt lat="40.0959" lon="-1.27243">
        <ele>756.522945</ele>
        <time>2022-02-23T06:47:48.223Z</time>
      </trkpt>
      <trkpt lat="40.09542" lon="-1.27192">
        <ele>757.442806</ele>
        <time>2022-02-23T06:48:08.272Z</time>
      </trkpt>
      <trkpt lat="40.09495" lon="-1.27142">
        <ele>759.695597</ele>
        <time>2022-02-23T06:48:32.191Z</time>
      </trkpt>
      <trkpt lat="40.09433" lon="-1.27077">
        <ele>764.311121</ele>
        <time>2022-02-23T06:49:12.305Z</time>
      </trkpt>
      <trkpt lat="40.09406" lon="-1.27055">
        <ele>766.121456</ele>
        <time>2022-02-23T06:49:32.206Z</time>
      </trkpt>
      <trkpt lat="40.09291" lon="-1.26984">
        <ele>773.296098</ele>
        <time>2022-02-23T06:50:45.611Z</time>
      </trkpt>
      <trkpt lat="40.09205" lon="-1.26961">
        <ele>778.199979</ele>
        <time>2022-02-23T06:51:25.930Z</time>
      </trkpt>
      <trkpt lat="40.09183" lon="-1.26947">
        <ele>778.547597</ele>
        <time>2022-02-23T06:51:34.778Z</time>
      </trkpt>
      <trkpt lat="40.09162" lon="-1.26923">
        <ele>778.804929</ele>
        <time>2022-02-23T06:51:44.492Z</time>
      </trkpt>
      <trkpt lat="40.09085" lon="-1.26794">
        <ele>779.960897</ele>
        <time>2022-02-23T06:52:13.538Z</time>
      </trkpt>
      <trkpt lat="40.09063" lon="-1.26772">
        <ele>779.301688</ele>
        <time>2022-02-23T06:52:19.359Z</time>
      </trkpt>
      <trkpt lat="40.08924" lon="-1.26694">
        <ele>774.780309</ele>
        <time>2022-02-23T06:52:45.631Z</time>
      </trkpt>
      <trkpt lat="40.08886" lon="-1.26688">
        <ele>771.798613</ele>
        <time>2022-02-23T06:52:51.464Z</time>
      </trkpt>
      <trkpt lat="40.08697" lon="-1.26686">
        <ele>754.982447</ele>
        <time>2022-02-23T06:53:18.456Z</time>
      </trkpt>
      <trkpt lat="40.08654" lon="-1.26666">
        <ele>750.466158</ele>
        <time>2022-02-23T06:53:24.861Z</time>
      </trkpt>
      <trkpt lat="40.08583" lon="-1.26607">
        <ele>742.188582</ele>
        <time>2022-02-23T06:53:36.750Z</time>
      </trkpt>
      <trkpt lat="40.08558" lon="-1.26593">
        <ele>740.140179</ele>
        <time>2022-02-23T06:53:40.583Z</time>
      </trkpt>
      <trkpt lat="40.08489" lon="-1.26582">
        <ele>735.467492</ele>
        <time>2022-02-23T06:53:50.970Z</time>
      </trkpt>
      <trkpt lat="40.08397" lon="-1.26555">
        <ele>729.215245</ele>
        <time>2022-02-23T06:54:05.554Z</time>
      </trkpt>
      <trkpt lat="40.08322" lon="-1.26562">
        <ele>726.785903</ele>
        <time>2022-02-23T06:54:17.896Z</time>
      </trkpt>
      <trkpt lat="40.08241" lon="-1.2657">
        <ele>724.171268</ele>
        <time>2022-02-23T06:54:32.248Z</time>
      </trkpt>
      <trkpt lat="40.08071" lon="-1.26611">
        <ele>722.075535</ele>
        <time>2022-02-23T06:55:06.732Z</time>
      </trkpt>
      <trkpt lat="40.08033" lon="-1.26634">
        <ele>721.69984</ele>
        <time>2022-02-23T06:55:15.823Z</time>
      </trkpt>
      <trkpt lat="40.08009" lon="-1.26655">
        <ele>721.450457</ele>
        <time>2022-02-23T06:55:22.055Z</time>
      </trkpt>
      <trkpt lat="40.07947" lon="-1.26742">
        <ele>720.676365</ele>
        <time>2022-02-23T06:55:40.303Z</time>
      </trkpt>
      <trkpt lat="40.07915" lon="-1.26774">
        <ele>720.329168</ele>
        <time>2022-02-23T06:55:48.298Z</time>
      </trkpt>
      <trkpt lat="40.07878" lon="-1.26809">
        <ele>719.802326</ele>
        <time>2022-02-23T06:55:56.955Z</time>
      </trkpt>
      <trkpt lat="40.07832" lon="-1.26887">
        <ele>718.90087</ele>
        <time>2022-02-23T06:56:11.400Z</time>
      </trkpt>
      <trkpt lat="40.07813" lon="-1.26908">
        <ele>718.598568</ele>
        <time>2022-02-23T06:56:16.267Z</time>
      </trkpt>
      <trkpt lat="40.07784" lon="-1.26927">
        <ele>718.206858</ele>
        <time>2022-02-23T06:56:22.584Z</time>
      </trkpt>
      <trkpt lat="40.07695" lon="-1.26963">
        <ele>717.740441</ele>
        <time>2022-02-23T06:56:42.399Z</time>
      </trkpt>
      <trkpt lat="40.0767" lon="-1.26987">
        <ele>717.602299</ele>
        <time>2022-02-23T06:56:48.947Z</time>
      </trkpt>
      <trkpt lat="40.07649" lon="-1.27023">
        <ele>717.449539</ele>
        <time>2022-02-23T06:56:56.322Z</time>
      </trkpt>
      <trkpt lat="40.07642" lon="-1.27039">
        <ele>717.384348</ele>
        <time>2022-02-23T06:56:59.571Z</time>
      </trkpt>
      <trkpt lat="40.07607" lon="-1.27113">
        <ele>716.980398</ele>
        <time>2022-02-23T06:57:13.544Z</time>
      </trkpt>
      <trkpt lat="40.07567" lon="-1.27161">
        <ele>716.622609</ele>
        <time>2022-02-23T06:57:24.711Z</time>
      </trkpt>
      <trkpt lat="40.07518" lon="-1.27197">
        <ele>716.254277</ele>
        <time>2022-02-23T06:57:35.946Z</time>
      </trkpt>
      <trkpt lat="40.0745" lon="-1.27225">
        <ele>715.869787</ele>
        <time>2022-02-23T06:57:50.475Z</time>
      </trkpt>
      <trkpt lat="40.07336" lon="-1.27274">
        <ele>715.260867</ele>
        <time>2022-02-23T06:58:15.802Z</time>
      </trkpt>
      <trkpt lat="40.07293" lon="-1.27311">
        <ele>715.15431</ele>
        <time>2022-02-23T06:58:27.059Z</time>
      </trkpt>
      <trkpt lat="40.06972" lon="-1.27697">
        <ele>714.516017</ele>
        <time>2022-02-23T07:00:01.887Z</time>
      </trkpt>
      <trkpt lat="40.06899" lon="-1.2779">
        <ele>714.573583</ele>
        <time>2022-02-23T07:00:25.277Z</time>
      </trkpt>
      <trkpt lat="40.06825" lon="-1.27896">
        <ele>714.804571</ele>
        <time>2022-02-23T07:00:51.732Z</time>
      </trkpt>
      <trkpt lat="40.06749" lon="-1.2802">
        <ele>714.248117</ele>
        <time>2022-02-23T07:01:18.716Z</time>
      </trkpt>
      <trkpt lat="40.06693" lon="-1.28092">
        <ele>713.753644</ele>
        <time>2022-02-23T07:01:34.085Z</time>
      </trkpt>
      <trkpt lat="40.0669" lon="-1.28099">
        <ele>713.706876</ele>
        <time>2022-02-23T07:01:35.181Z</time>
      </trkpt>
      <trkpt lat="40.06674" lon="-1.28121">
        <ele>713.371553</ele>
        <time>2022-02-23T07:01:39.457Z</time>
      </trkpt>
      <trkpt lat="40.06671" lon="-1.28126">
        <ele>713.297313</ele>
        <time>2022-02-23T07:01:40.418Z</time>
      </trkpt>
      <trkpt lat="40.06618" lon="-1.28209">
        <ele>712.113546</ele>
        <time>2022-02-23T07:01:55.715Z</time>
      </trkpt>
      <trkpt lat="40.06608" lon="-1.28233">
        <ele>711.809743</ele>
        <time>2022-02-23T07:01:59.697Z</time>
      </trkpt>
      <trkpt lat="40.06596" lon="-1.28228">
        <ele>711.620684</ele>
        <time>2022-02-23T07:02:04.271Z</time>
      </trkpt>
      <trkpt lat="40.06579" lon="-1.28234">
        <ele>711.367259</ele>
        <time>2022-02-23T07:02:07.858Z</time>
      </trkpt>
      <trkpt lat="40.06562" lon="-1.28254">
        <ele>711.1242</ele>
        <time>2022-02-23T07:02:15.711Z</time>
      </trkpt>
      <trkpt lat="40.06473" lon="-1.2841">
        <ele>710.718172</ele>
        <time>2022-02-23T07:03:09.771Z</time>
      </trkpt>
      <trkpt lat="40.06447" lon="-1.28446">
        <ele>710.568585</ele>
        <time>2022-02-23T07:03:25.149Z</time>
      </trkpt>
      <trkpt lat="40.06407" lon="-1.28477">
        <ele>710.29896</ele>
        <time>2022-02-23T07:03:42.735Z</time>
      </trkpt>
      <trkpt lat="40.06372" lon="-1.28491">
        <ele>710.080134</ele>
        <time>2022-02-23T07:03:55.966Z</time>
      </trkpt>
      <trkpt lat="40.06284" lon="-1.28495">
        <ele>709.516162</ele>
        <time>2022-02-23T07:04:26.054Z</time>
      </trkpt>
      <trkpt lat="40.06243" lon="-1.28478">
        <ele>708.816872</ele>
        <time>2022-02-23T07:04:40.451Z</time>
      </trkpt>
      <trkpt lat="40.06213" lon="-1.28454">
        <ele>708.26135</ele>
        <time>2022-02-23T07:04:51.890Z</time>
      </trkpt>
      <trkpt lat="40.06193" lon="-1.28425">
        <ele>707.785061</ele>
        <time>2022-02-23T07:05:01.817Z</time>
      </trkpt>
      <trkpt lat="40.06151" lon="-1.2834">
        <ele>706.602987</ele>
        <time>2022-02-23T07:05:27.290Z</time>
      </trkpt>
      <trkpt lat="40.06151" lon="-1.28333">
        <ele>706.551694</ele>
        <time>2022-02-23T07:05:28.945Z</time>
      </trkpt>
      <trkpt lat="40.06151" lon="-1.28327">
        <ele>706.496272</ele>
        <time>2022-02-23T07:05:30.737Z</time>
      </trkpt>
      <trkpt lat="40.06152" lon="-1.28172">
        <ele>705.215878</ele>
        <time>2022-02-23T07:05:57.017Z</time>
      </trkpt>
      <trkpt lat="40.06139" lon="-1.28133">
        <ele>704.869437</ele>
        <time>2022-02-23T07:06:04.425Z</time>
      </trkpt>
      <trkpt lat="40.06121" lon="-1.28107">
        <ele>704.683073</ele>
        <time>2022-02-23T07:06:10.689Z</time>
      </trkpt>
      <trkpt lat="40.06035" lon="-1.28007">
        <ele>704.096707</ele>
        <time>2022-02-23T07:06:37.244Z</time>
      </trkpt>
      <trkpt lat="40.06012" lon="-1.27974">
        <ele>703.91997</ele>
        <time>2022-02-23T07:06:45.206Z</time>
      </trkpt>
      <trkpt lat="40.05982" lon="-1.27884">
        <ele>703.79738</ele>
        <time>2022-02-23T07:07:03.708Z</time>
      </trkpt>
      <trkpt lat="40.05958" lon="-1.27845">
        <ele>703.76004</ele>
        <time>2022-02-23T07:07:13.003Z</time>
      </trkpt>
      <trkpt lat="40.05929" lon="-1.27827">
        <ele>703.728631</ele>
        <time>2022-02-23T07:07:20.801Z</time>
      </trkpt>
      <trkpt lat="40.05841" lon="-1.27744">
        <ele>705.007775</ele>
        <time>2022-02-23T07:07:47.649Z</time>
      </trkpt>
      <trkpt lat="40.05765" lon="-1.2769">
        <ele>706.819244</ele>
        <time>2022-02-23T07:08:14.469Z</time>
      </trkpt>
      <trkpt lat="40.05736" lon="-1.27676">
        <ele>707.484969</ele>
        <time>2022-02-23T07:08:30.025Z</time>
      </trkpt>
      <trkpt lat="40.05663" lon="-1.27656">
        <ele>715.823165</ele>
        <time>2022-02-23T07:09:20.468Z</time>
      </trkpt>
      <trkpt lat="40.05666" lon="-1.27652">
        <ele>716.281043</ele>
        <time>2022-02-23T07:09:23.190Z</time>
      </trkpt>
      <trkpt lat="40.05586" lon="-1.27655">
        <ele>725.185729</ele>
        <time>2022-02-23T07:10:35.560Z</time>
      </trkpt>
      <trkpt lat="40.05511" lon="-1.27643">
        <ele>734.866403</ele>
        <time>2022-02-23T07:11:52.852Z</time>
      </trkpt>
      <trkpt lat="40.05425" lon="-1.27613">
        <ele>746.756153</ele>
        <time>2022-02-23T07:13:16.132Z</time>
      </trkpt>
      <trkpt lat="40.05346" lon="-1.27582">
        <ele>754.471714</ele>
        <time>2022-02-23T07:14:15.008Z</time>
      </trkpt>
      <trkpt lat="40.0523" lon="-1.27536">
        <ele>761.896597</ele>
        <time>2022-02-23T07:15:11.670Z</time>
      </trkpt>
      <trkpt lat="40.05219" lon="-1.27531">
        <ele>762.598854</ele>
        <time>2022-02-23T07:15:16.331Z</time>
      </trkpt>
      <trkpt lat="40.05062" lon="-1.27471">
        <ele>767.026781</ele>
        <time>2022-02-23T07:16:11.912Z</time>
      </trkpt>
      <trkpt lat="40.05024" lon="-1.27466">
        <ele>768.733653</ele>
        <time>2022-02-23T07:16:24.515Z</time>
      </trkpt>
      <trkpt lat="40.0496" lon="-1.27469">
        <ele>772.372897</ele>
        <time>2022-02-23T07:16:49.857Z</time>
      </trkpt>
      <trkpt lat="40.04918" lon="-1.27483">
        <ele>774.878875</ele>
        <time>2022-02-23T07:17:13.372Z</time>
      </trkpt>
      <trkpt lat="40.04871" lon="-1.27509">
        <ele>777.797815</ele>
        <time>2022-02-23T07:17:45.486Z</time>
      </trkpt>
      <trkpt lat="40.04742" lon="-1.2762">
        <ele>796.545226</ele>
        <time>2022-02-23T07:19:50.240Z</time>
      </trkpt>
      <trkpt lat="40.04685" lon="-1.27657">
        <ele>806.908713</ele>
        <time>2022-02-23T07:20:54.171Z</time>
      </trkpt>
      <trkpt lat="40.04631" lon="-1.27671">
        <ele>817.497353</ele>
        <time>2022-02-23T07:21:58.298Z</time>
      </trkpt>
      <trkpt lat="40.04559" lon="-1.2768">
        <ele>831.364909</ele>
        <time>2022-02-23T07:23:32.846Z</time>
      </trkpt>
      <trkpt lat="40.0448" lon="-1.27709">
        <ele>847.942718</ele>
        <time>2022-02-23T07:25:22.076Z</time>
      </trkpt>
      <trkpt lat="40.04425" lon="-1.2776">
        <ele>861.767225</ele>
        <time>2022-02-23T07:26:51.346Z</time>
      </trkpt>
      <trkpt lat="40.04367" lon="-1.27845">
        <ele>876.12642</ele>
        <time>2022-02-23T07:28:27.541Z</time>
      </trkpt>
      <trkpt lat="40.04322" lon="-1.27923">
        <ele>885.071158</ele>
        <time>2022-02-23T07:29:25.869Z</time>
      </trkpt>
      <trkpt lat="40.04298" lon="-1.28004">
        <ele>892.917454</ele>
        <time>2022-02-23T07:30:09.915Z</time>
      </trkpt>
      <trkpt lat="40.04281" lon="-1.28101">
        <ele>898.599941</ele>
        <time>2022-02-23T07:30:56.308Z</time>
      </trkpt>
      <trkpt lat="40.04265" lon="-1.28285">
        <ele>908.972198</ele>
        <time>2022-02-23T07:32:17.189Z</time>
      </trkpt>
      <trkpt lat="40.04234" lon="-1.28385">
        <ele>914.671789</ele>
        <time>2022-02-23T07:33:05.679Z</time>
      </trkpt>
      <trkpt lat="40.04194" lon="-1.28453">
        <ele>918.949803</ele>
        <time>2022-02-23T07:33:43.925Z</time>
      </trkpt>
      <trkpt lat="40.04088" lon="-1.28598">
        <ele>925.778324</ele>
        <time>2022-02-23T07:34:52.444Z</time>
      </trkpt>
      <trkpt lat="40.04052" lon="-1.28676">
        <ele>928.651196</ele>
        <time>2022-02-23T07:35:13.808Z</time>
      </trkpt>
      <trkpt lat="40.04037" lon="-1.28738">
        <ele>930.672315</ele>
        <time>2022-02-23T07:35:31.724Z</time>
      </trkpt>
      <trkpt lat="40.0403" lon="-1.28794">
        <ele>932.417463</ele>
        <time>2022-02-23T07:35:49.577Z</time>
      </trkpt>
      <trkpt lat="40.04033" lon="-1.28863">
        <ele>935.939323</ele>
        <time>2022-02-23T07:36:18.391Z</time>
      </trkpt>
      <trkpt lat="40.04058" lon="-1.28984">
        <ele>946.533106</ele>
        <time>2022-02-23T07:37:32.084Z</time>
      </trkpt>
      <trkpt lat="40.04063" lon="-1.29037">
        <ele>950.965703</ele>
        <time>2022-02-23T07:38:08.757Z</time>
      </trkpt>
      <trkpt lat="40.04058" lon="-1.29095">
        <ele>956.229594</ele>
        <time>2022-02-23T07:38:51.189Z</time>
      </trkpt>
      <trkpt lat="40.04045" lon="-1.2916">
        <ele>962.548666</ele>
        <time>2022-02-23T07:39:38.267Z</time>
      </trkpt>
      <trkpt lat="40.04028" lon="-1.29217">
        <ele>968.330646</ele>
        <time>2022-02-23T07:40:19.463Z</time>
      </trkpt>
      <trkpt lat="40.04" lon="-1.29275">
        <ele>974.752761</ele>
        <time>2022-02-23T07:40:59.599Z</time>
      </trkpt>
      <trkpt lat="40.03968" lon="-1.29318">
        <ele>978.424137</ele>
        <time>2022-02-23T07:41:30.236Z</time>
      </trkpt>
      <trkpt lat="40.03925" lon="-1.29354">
        <ele>982.181492</ele>
        <time>2022-02-23T07:42:01.291Z</time>
      </trkpt>
      <trkpt lat="40.03879" lon="-1.29379">
        <ele>985.767982</ele>
        <time>2022-02-23T07:42:28.032Z</time>
      </trkpt>
      <trkpt lat="40.03598" lon="-1.2944">
        <ele>1001.93958</ele>
        <time>2022-02-23T07:44:45.695Z</time>
      </trkpt>
      <trkpt lat="40.03557" lon="-1.29455">
        <ele>1004.379294</ele>
        <time>2022-02-23T07:45:07.313Z</time>
      </trkpt>
      <trkpt lat="40.03522" lon="-1.29477">
        <ele>1006.593167</ele>
        <time>2022-02-23T07:45:27.213Z</time>
      </trkpt>
      <trkpt lat="40.03452" lon="-1.29547">
        <ele>1012.320384</ele>
        <time>2022-02-23T07:46:16.300Z</time>
      </trkpt>
      <trkpt lat="40.03423" lon="-1.29592">
        <ele>1015.413272</ele>
        <time>2022-02-23T07:46:41.373Z</time>
      </trkpt>
      <trkpt lat="40.03329" lon="-1.29807">
        <ele>1029.166016</ele>
        <time>2022-02-23T07:48:32.733Z</time>
      </trkpt>
      <trkpt lat="40.03293" lon="-1.29866">
        <ele>1033.541976</ele>
        <time>2022-02-23T07:49:07.988Z</time>
      </trkpt>
      <trkpt lat="40.03253" lon="-1.29919">
        <ele>1038.032206</ele>
        <time>2022-02-23T07:49:43.411Z</time>
      </trkpt>
      <trkpt lat="40.03225" lon="-1.29948">
        <ele>1040.940318</ele>
        <time>2022-02-23T07:50:06.778Z</time>
      </trkpt>
      <trkpt lat="40.03043" lon="-1.30099">
        <ele>1055.619029</ele>
        <time>2022-02-23T07:52:20.144Z</time>
      </trkpt>
      <trkpt lat="40.0282" lon="-1.30305">
        <ele>1063.780266</ele>
        <time>2022-02-23T07:53:49.394Z</time>
      </trkpt>
      <trkpt lat="40.02288" lon="-1.30799">
        <ele>1076.785502</ele>
        <time>2022-02-23T07:57:21.330Z</time>
      </trkpt>
      <trkpt lat="40.02195" lon="-1.3088">
        <ele>1078.377781</ele>
        <time>2022-02-23T07:57:52.355Z</time>
      </trkpt>
      <trkpt lat="40.02076" lon="-1.30961">
        <ele>1080.194273</ele>
        <time>2022-02-23T07:58:30.014Z</time>
      </trkpt>
      <trkpt lat="40.02004" lon="-1.31002">
        <ele>1081.661271</ele>
        <time>2022-02-23T07:58:54.944Z</time>
      </trkpt>
      <trkpt lat="40.0185" lon="-1.31069">
        <ele>1084.85439</ele>
        <time>2022-02-23T07:59:48.997Z</time>
      </trkpt>
      <trkpt lat="40.01719" lon="-1.31108">
        <ele>1087.319952</ele>
        <time>2022-02-23T08:00:31.650Z</time>
      </trkpt>
      <trkpt lat="40.00725" lon="-1.31409">
        <ele>1101.590815</ele>
        <time>2022-02-23T08:05:27.417Z</time>
      </trkpt>
      <trkpt lat="40.00292" lon="-1.31539">
        <ele>1111.355741</ele>
        <time>2022-02-23T08:07:58.915Z</time>
      </trkpt>
      <trkpt lat="40.00111" lon="-1.31586">
        <ele>1113.817519</ele>
        <time>2022-02-23T08:08:50.860Z</time>
      </trkpt>
      <trkpt lat="39.99986" lon="-1.31599">
        <ele>1114.806743</ele>
        <time>2022-02-23T08:09:23.806Z</time>
      </trkpt>
      <trkpt lat="39.99787" lon="-1.316">
        <ele>1114.555734</ele>
        <time>2022-02-23T08:10:09.871Z</time>
      </trkpt>
      <trkpt lat="39.9973" lon="-1.3161">
        <ele>1113.6276</ele>
        <time>2022-02-23T08:10:20.816Z</time>
      </trkpt>
      <trkpt lat="39.99678" lon="-1.31627">
        <ele>1112.758833</ele>
        <time>2022-02-23T08:10:30.516Z</time>
      </trkpt>
      <trkpt lat="39.99617" lon="-1.31658">
        <ele>1111.232878</ele>
        <time>2022-02-23T08:10:41.682Z</time>
      </trkpt>
      <trkpt lat="39.99395" lon="-1.31834">
        <ele>1105.00633</ele>
        <time>2022-02-23T08:11:26.659Z</time>
      </trkpt>
      <trkpt lat="39.99301" lon="-1.31896">
        <ele>1104.548115</ele>
        <time>2022-02-23T08:11:50.335Z</time>
      </trkpt>
      <trkpt lat="39.99215" lon="-1.31939">
        <ele>1106.069826</ele>
        <time>2022-02-23T08:12:19.124Z</time>
      </trkpt>
      <trkpt lat="39.99139" lon="-1.31965">
        <ele>1108.031113</ele>
        <time>2022-02-23T08:12:47.054Z</time>
      </trkpt>
      <trkpt lat="39.98912" lon="-1.32022">
        <ele>1115.520391</ele>
        <time>2022-02-23T08:14:26.684Z</time>
      </trkpt>
      <trkpt lat="39.98791" lon="-1.32045">
        <ele>1117.503293</ele>
        <time>2022-02-23T08:14:59.458Z</time>
      </trkpt>
      <trkpt lat="39.98699" lon="-1.32055">
        <ele>1116.804782</ele>
        <time>2022-02-23T08:15:16.978Z</time>
      </trkpt>
      <trkpt lat="39.98132" lon="-1.32075">
        <ele>1111.442011</ele>
        <time>2022-02-23T08:17:10.582Z</time>
      </trkpt>
      <trkpt lat="39.98056" lon="-1.32088">
        <ele>1110.109804</ele>
        <time>2022-02-23T08:17:25.551Z</time>
      </trkpt>
      <trkpt lat="39.97869" lon="-1.32132">
        <ele>1105.430044</ele>
        <time>2022-02-23T08:17:58.897Z</time>
      </trkpt>
      <trkpt lat="39.97829" lon="-1.32141">
        <ele>1104.22274</ele>
        <time>2022-02-23T08:18:05.788Z</time>
      </trkpt>
      <trkpt lat="39.97729" lon="-1.3216">
        <ele>1101.363004</ele>
        <time>2022-02-23T08:18:23.114Z</time>
      </trkpt>
      <trkpt lat="39.97656" lon="-1.32165">
        <ele>1099.819966</ele>
        <time>2022-02-23T08:18:36.362Z</time>
      </trkpt>
      <trkpt lat="39.97572" lon="-1.32161">
        <ele>1098.077074</ele>
        <time>2022-02-23T08:18:52.061Z</time>
      </trkpt>
      <trkpt lat="39.97488" lon="-1.32147">
        <ele>1096.704778</ele>
        <time>2022-02-23T08:19:08.224Z</time>
      </trkpt>
      <trkpt lat="39.97454" lon="-1.32139">
        <ele>1096.165302</ele>
        <time>2022-02-23T08:19:14.839Z</time>
      </trkpt>
      <trkpt lat="39.97388" lon="-1.32117">
        <ele>1095.11278</ele>
        <time>2022-02-23T08:19:27.649Z</time>
      </trkpt>
      <trkpt lat="39.97292" lon="-1.32072">
        <ele>1093.166964</ele>
        <time>2022-02-23T08:19:46.647Z</time>
      </trkpt>
      <trkpt lat="39.96964" lon="-1.31862">
        <ele>1085.570661</ele>
        <time>2022-02-23T08:20:53.453Z</time>
      </trkpt>
      <trkpt lat="39.96371" lon="-1.31477">
        <ele>1070.811258</ele>
        <time>2022-02-23T08:22:51.864Z</time>
      </trkpt>
      <trkpt lat="39.95326" lon="-1.308">
        <ele>1060.295719</ele>
        <time>2022-02-23T08:26:48.376Z</time>
      </trkpt>
      <trkpt lat="39.9424" lon="-1.30094">
        <ele>1041.403898</ele>
        <time>2022-02-23T08:30:37.055Z</time>
      </trkpt>
      <trkpt lat="39.9408" lon="-1.2999">
        <ele>1039.701946</ele>
        <time>2022-02-23T08:31:14.450Z</time>
      </trkpt>
      <trkpt lat="39.93969" lon="-1.29927">
        <ele>1038.48635</ele>
        <time>2022-02-23T08:31:38.266Z</time>
      </trkpt>
      <trkpt lat="39.9391" lon="-1.29899">
        <ele>1037.543421</ele>
        <time>2022-02-23T08:31:49.854Z</time>
      </trkpt>
      <trkpt lat="39.93802" lon="-1.29861">
        <ele>1036.210609</ele>
        <time>2022-02-23T08:32:10.805Z</time>
      </trkpt>
      <trkpt lat="39.93464" lon="-1.29755">
        <ele>1036.569699</ele>
        <time>2022-02-23T08:33:31.997Z</time>
      </trkpt>
      <trkpt lat="39.93255" lon="-1.29677">
        <ele>1039.296819</ele>
        <time>2022-02-23T08:34:32.427Z</time>
      </trkpt>
      <trkpt lat="39.93122" lon="-1.2962">
        <ele>1042.133211</ele>
        <time>2022-02-23T08:35:20.727Z</time>
      </trkpt>
      <trkpt lat="39.93046" lon="-1.29616">
        <ele>1043.747843</ele>
        <time>2022-02-23T08:35:45.971Z</time>
      </trkpt>
      <trkpt lat="39.93016" lon="-1.29623">
        <ele>1044.392482</ele>
        <time>2022-02-23T08:35:55.656Z</time>
      </trkpt>
      <trkpt lat="39.92949" lon="-1.29661">
        <ele>1045.91649</ele>
        <time>2022-02-23T08:36:18.871Z</time>
      </trkpt>
      <trkpt lat="39.92943" lon="-1.29645">
        <ele>1046.178304</ele>
        <time>2022-02-23T08:36:23.694Z</time>
      </trkpt>
      <trkpt lat="39.92939" lon="-1.29632">
        <ele>1046.368626</ele>
        <time>2022-02-23T08:36:27.267Z</time>
      </trkpt>
      <trkpt lat="39.92932" lon="-1.29612">
        <ele>1046.676191</ele>
        <time>2022-02-23T08:36:33.447Z</time>
      </trkpt>
      <trkpt lat="39.92855" lon="-1.29671">
        <ele>1048.312219</ele>
        <time>2022-02-23T08:37:01.163Z</time>
      </trkpt>
      <trkpt lat="39.92824" lon="-1.29686">
        <ele>1048.923314</ele>
        <time>2022-02-23T08:37:11.114Z</time>
      </trkpt>
      <trkpt lat="39.92818" lon="-1.29695">
        <ele>1049.051351</ele>
        <time>2022-02-23T08:37:13.534Z</time>
      </trkpt>
      <trkpt lat="39.92808" lon="-1.29699">
        <ele>1049.179133</ele>
        <time>2022-02-23T08:37:16.839Z</time>
      </trkpt>
      <trkpt lat="39.92795" lon="-1.2969">
        <ele>1049.367499</ele>
        <time>2022-02-23T08:37:21.228Z</time>
      </trkpt>
      <trkpt lat="39.92792" lon="-1.29682">
        <ele>1049.450299</ele>
        <time>2022-02-23T08:37:22.993Z</time>
      </trkpt>
      <trkpt lat="39.92758" lon="-1.29654">
        <ele>1049.94276</ele>
        <time>2022-02-23T08:37:33.802Z</time>
      </trkpt>
      <trkpt lat="39.92693" lon="-1.29611">
        <ele>1050.855446</ele>
        <time>2022-02-23T08:37:54.933Z</time>
      </trkpt>
      <trkpt lat="39.92675" lon="-1.29592">
        <ele>1051.144904</ele>
        <time>2022-02-23T08:38:01.449Z</time>
      </trkpt>
      <trkpt lat="39.92666" lon="-1.29569">
        <ele>1051.480536</ele>
        <time>2022-02-23T08:38:06.497Z</time>
      </trkpt>
      <trkpt lat="39.92666" lon="-1.29532">
        <ele>1052.010717</ele>
        <time>2022-02-23T08:38:13.972Z</time>
      </trkpt>
      <trkpt lat="39.92673" lon="-1.29496">
        <ele>1052.553289</ele>
        <time>2022-02-23T08:38:22.819Z</time>
      </trkpt>
      <trkpt lat="39.92667" lon="-1.29475">
        <ele>1052.88364</ele>
        <time>2022-02-23T08:38:28.402Z</time>
      </trkpt>
      <trkpt lat="39.92652" lon="-1.29454">
        <ele>1053.30417</ele>
        <time>2022-02-23T08:38:35.427Z</time>
      </trkpt>
      <trkpt lat="39.9262" lon="-1.29426">
        <ele>1054.040807</ele>
        <time>2022-02-23T08:38:48.509Z</time>
      </trkpt>
      <trkpt lat="39.9259" lon="-1.29401">
        <ele>1054.726959</ele>
        <time>2022-02-23T08:39:01.095Z</time>
      </trkpt>
      <trkpt lat="39.92573" lon="-1.29387">
        <ele>1055.189982</ele>
        <time>2022-02-23T08:39:08.502Z</time>
      </trkpt>
      <trkpt lat="39.92546" lon="-1.29371">
        <ele>1055.889201</ele>
        <time>2022-02-23T08:39:19.572Z</time>
      </trkpt>
      <trkpt lat="39.92533" lon="-1.29358">
        <ele>1056.266663</ele>
        <time>2022-02-23T08:39:25.257Z</time>
      </trkpt>
      <trkpt lat="39.92523" lon="-1.29347">
        <ele>1056.578782</ele>
        <time>2022-02-23T08:39:29.647Z</time>
      </trkpt>
      <trkpt lat="39.92511" lon="-1.29335">
        <ele>1056.90731</ele>
        <time>2022-02-23T08:39:34.267Z</time>
      </trkpt>
      <trkpt lat="39.92489" lon="-1.2932">
        <ele>1057.503154</ele>
        <time>2022-02-23T08:39:42.282Z</time>
      </trkpt>
      <trkpt lat="39.92484" lon="-1.29318">
        <ele>1057.609417</ele>
        <time>2022-02-23T08:39:43.744Z</time>
      </trkpt>
      <trkpt lat="39.92454" lon="-1.29301">
        <ele>1058.375985</ele>
        <time>2022-02-23T08:39:54.283Z</time>
      </trkpt>
      <trkpt lat="39.92412" lon="-1.29278">
        <ele>1059.590817</ele>
        <time>2022-02-23T08:40:09.131Z</time>
      </trkpt>
      <trkpt lat="39.92343" lon="-1.29236">
        <ele>1061.87899</ele>
        <time>2022-02-23T08:40:36.180Z</time>
      </trkpt>
      <trkpt lat="39.91846" lon="-1.28856">
        <ele>1083.398462</ele>
        <time>2022-02-23T08:44:31.796Z</time>
      </trkpt>
      <trkpt lat="39.9143" lon="-1.2848">
        <ele>1107.782483</ele>
        <time>2022-02-23T08:48:40.163Z</time>
      </trkpt>
      <trkpt lat="39.91396" lon="-1.2844">
        <ele>1109.325749</ele>
        <time>2022-02-23T08:48:55.981Z</time>
      </trkpt>
      <trkpt lat="39.91304" lon="-1.28322">
        <ele>1108.0598</ele>
        <time>2022-02-23T08:49:21.079Z</time>
      </trkpt>
      <trkpt lat="39.91125" lon="-1.28194">
        <ele>1102.546131</ele>
        <time>2022-02-23T08:49:54.800Z</time>
      </trkpt>
      <trkpt lat="39.91106" lon="-1.2817">
        <ele>1101.747444</ele>
        <time>2022-02-23T08:49:59.709Z</time>
      </trkpt>
      <trkpt lat="39.91049" lon="-1.28075">
        <ele>1100.882307</ele>
        <time>2022-02-23T08:50:18.828Z</time>
      </trkpt>
      <trkpt lat="39.91023" lon="-1.28046">
        <ele>1100.883604</ele>
        <time>2022-02-23T08:50:27.880Z</time>
      </trkpt>
      <trkpt lat="39.90976" lon="-1.28013">
        <ele>1100.885668</ele>
        <time>2022-02-23T08:50:43.246Z</time>
      </trkpt>
      <trkpt lat="39.9083" lon="-1.27944">
        <ele>1099.069938</ele>
        <time>2022-02-23T08:51:14.912Z</time>
      </trkpt>
      <trkpt lat="39.90597" lon="-1.27773">
        <ele>1092.253912</ele>
        <time>2022-02-23T08:52:00.365Z</time>
      </trkpt>
      <trkpt lat="39.9048" lon="-1.2764">
        <ele>1091.082446</ele>
        <time>2022-02-23T08:52:32.230Z</time>
      </trkpt>
      <trkpt lat="39.90365" lon="-1.27494">
        <ele>1094.930188</ele>
        <time>2022-02-23T08:53:29.805Z</time>
      </trkpt>
      <trkpt lat="39.90286" lon="-1.27396">
        <ele>1098.836818</ele>
        <time>2022-02-23T08:54:16.529Z</time>
      </trkpt>
      <trkpt lat="39.90213" lon="-1.27341">
        <ele>1101.838426</ele>
        <time>2022-02-23T08:54:51.893Z</time>
      </trkpt>
      <trkpt lat="39.90169" lon="-1.27328">
        <ele>1101.973771</ele>
        <time>2022-02-23T08:55:07.594Z</time>
      </trkpt>
      <trkpt lat="39.901" lon="-1.27336">
        <ele>1102.181098</ele>
        <time>2022-02-23T08:55:24.805Z</time>
      </trkpt>
      <trkpt lat="39.90072" lon="-1.27334">
        <ele>1102.264675</ele>
        <time>2022-02-23T08:55:30.521Z</time>
      </trkpt>
      <trkpt lat="39.90036" lon="-1.27332">
        <ele>1102.230131</ele>
        <time>2022-02-23T08:55:37.013Z</time>
      </trkpt>
      <trkpt lat="39.9001" lon="-1.27326">
        <ele>1100.927899</ele>
        <time>2022-02-23T08:55:41.445Z</time>
      </trkpt>
      <trkpt lat="39.89945" lon="-1.27292">
        <ele>1097.377821</ele>
        <time>2022-02-23T08:55:52.814Z</time>
      </trkpt>
      <trkpt lat="39.89905" lon="-1.27271">
        <ele>1095.211293</ele>
        <time>2022-02-23T08:55:59.365Z</time>
      </trkpt>
      <trkpt lat="39.89886" lon="-1.27262">
        <ele>1094.214232</ele>
        <time>2022-02-23T08:56:02.337Z</time>
      </trkpt>
      <trkpt lat="39.89871" lon="-1.27236">
        <ele>1092.884883</ele>
        <time>2022-02-23T08:56:06.047Z</time>
      </trkpt>
      <trkpt lat="39.89868" lon="-1.27232">
        <ele>1092.595633</ele>
        <time>2022-02-23T08:56:06.749Z</time>
      </trkpt>
      <trkpt lat="39.89846" lon="-1.27219">
        <ele>1091.095118</ele>
        <time>2022-02-23T08:56:10.407Z</time>
      </trkpt>
      <trkpt lat="39.89838" lon="-1.2721">
        <ele>1090.431247</ele>
        <time>2022-02-23T08:56:12.010Z</time>
      </trkpt>
      <trkpt lat="39.8983" lon="-1.27187">
        <ele>1089.278033</ele>
        <time>2022-02-23T08:56:14.848Z</time>
      </trkpt>
      <trkpt lat="39.89821" lon="-1.27201">
        <ele>1088.4266</ele>
        <time>2022-02-23T08:56:18.603Z</time>
      </trkpt>
      <trkpt lat="39.89737" lon="-1.27237">
        <ele>1082.978895</ele>
        <time>2022-02-23T08:56:43.185Z</time>
      </trkpt>
      <trkpt lat="39.89727" lon="-1.27235">
        <ele>1082.374734</ele>
        <time>2022-02-23T08:56:45.972Z</time>
      </trkpt>
      <trkpt lat="39.89702" lon="-1.27215">
        <ele>1081.263571</ele>
        <time>2022-02-23T08:56:54.604Z</time>
      </trkpt>
      <trkpt lat="39.89686" lon="-1.27224">
        <ele>1080.648253</ele>
        <time>2022-02-23T08:56:59.672Z</time>
      </trkpt>
      <trkpt lat="39.89663" lon="-1.27217">
        <ele>1079.814177</ele>
        <time>2022-02-23T08:57:07.017Z</time>
      </trkpt>
      <trkpt lat="39.89659" lon="-1.27225">
        <ele>1079.550049</ele>
        <time>2022-02-23T08:57:09.206Z</time>
      </trkpt>
      <trkpt lat="39.89643" lon="-1.27222">
        <ele>1078.990787</ele>
        <time>2022-02-23T08:57:14.269Z</time>
      </trkpt>
      <trkpt lat="39.89627" lon="-1.27231">
        <ele>1078.370115</ele>
        <time>2022-02-23T08:57:17.440Z</time>
      </trkpt>
      <trkpt lat="39.8961" lon="-1.27229">
        <ele>1077.758842</ele>
        <time>2022-02-23T08:57:20.701Z</time>
      </trkpt>
      <trkpt lat="39.89541" lon="-1.27179">
        <ele>1075.161456</ele>
        <time>2022-02-23T08:57:35.131Z</time>
      </trkpt>
      <trkpt lat="39.89493" lon="-1.27128">
        <ele>1073.468802</ele>
        <time>2022-02-23T08:57:46.450Z</time>
      </trkpt>
      <trkpt lat="39.89439" lon="-1.27091">
        <ele>1071.782124</ele>
        <time>2022-02-23T08:57:57.835Z</time>
      </trkpt>
      <trkpt lat="39.89318" lon="-1.27017">
        <ele>1067.844779</ele>
        <time>2022-02-23T08:58:21.849Z</time>
      </trkpt>
      <trkpt lat="39.89259" lon="-1.27008">
        <ele>1066.022478</ele>
        <time>2022-02-23T08:58:32.721Z</time>
      </trkpt>
      <trkpt lat="39.89231" lon="-1.2698">
        <ele>1065.036598</ele>
        <time>2022-02-23T08:58:39.036Z</time>
      </trkpt>
      <trkpt lat="39.8914" lon="-1.27013">
        <ele>1062.63506</ele>
        <time>2022-02-23T08:58:55.390Z</time>
      </trkpt>
      <trkpt lat="39.89106" lon="-1.27013">
        <ele>1061.755446</ele>
        <time>2022-02-23T08:59:01.519Z</time>
      </trkpt>
      <trkpt lat="39.88978" lon="-1.2699">
        <ele>1060.010413</ele>
        <time>2022-02-23T08:59:25.791Z</time>
      </trkpt>
      <trkpt lat="39.88833" lon="-1.27033">
        <ele>1059.90297</ele>
        <time>2022-02-23T08:59:58.637Z</time>
      </trkpt>
      <trkpt lat="39.88647" lon="-1.27018">
        <ele>1062.183363</ele>
        <time>2022-02-23T09:00:55.705Z</time>
      </trkpt>
      <trkpt lat="39.88534" lon="-1.27021">
        <ele>1063.83931</ele>
        <time>2022-02-23T09:01:30.039Z</time>
      </trkpt>
      <trkpt lat="39.88497" lon="-1.27023">
        <ele>1063.905196</ele>
        <time>2022-02-23T09:01:39.673Z</time>
      </trkpt>
      <trkpt lat="39.88391" lon="-1.27029">
        <ele>1064.093992</ele>
        <time>2022-02-23T09:02:03.453Z</time>
      </trkpt>
      <trkpt lat="39.88359" lon="-1.27031">
        <ele>1064.149071</ele>
        <time>2022-02-23T09:02:09.720Z</time>
      </trkpt>
      <trkpt lat="39.88151" lon="-1.2703">
        <ele>1063.605839</ele>
        <time>2022-02-23T09:02:54.370Z</time>
      </trkpt>
      <trkpt lat="39.87919" lon="-1.26993">
        <ele>1062.656983</ele>
        <time>2022-02-23T09:03:46.915Z</time>
      </trkpt>
      <trkpt lat="39.87875" lon="-1.26981">
        <ele>1062.151972</ele>
        <time>2022-02-23T09:03:55.723Z</time>
      </trkpt>
      <trkpt lat="39.87611" lon="-1.26878">
        <ele>1055.067648</ele>
        <time>2022-02-23T09:04:43.836Z</time>
      </trkpt>
      <trkpt lat="39.87373" lon="-1.26829">
        <ele>1045.630622</ele>
        <time>2022-02-23T09:05:23.686Z</time>
      </trkpt>
      <trkpt lat="39.8721" lon="-1.26743">
        <ele>1038.029098</ele>
        <time>2022-02-23T09:05:51.835Z</time>
      </trkpt>
      <trkpt lat="39.86847" lon="-1.26544">
        <ele>1023.354498</ele>
        <time>2022-02-23T09:06:57.247Z</time>
      </trkpt>
      <trkpt lat="39.86833" lon="-1.26542">
        <ele>1022.915867</ele>
        <time>2022-02-23T09:06:59.696Z</time>
      </trkpt>
      <trkpt lat="39.86815" lon="-1.26541">
        <ele>1022.324695</ele>
        <time>2022-02-23T09:07:02.986Z</time>
      </trkpt>
      <trkpt lat="39.86781" lon="-1.26552">
        <ele>1021.585</ele>
        <time>2022-02-23T09:07:09.473Z</time>
      </trkpt>
      <trkpt lat="39.86485" lon="-1.26713">
        <ele>1018.270951</ele>
        <time>2022-02-23T09:08:13.567Z</time>
      </trkpt>
      <trkpt lat="39.86448" lon="-1.26742">
        <ele>1018.055781</ele>
        <time>2022-02-23T09:08:22.577Z</time>
      </trkpt>
      <trkpt lat="39.8642" lon="-1.26774">
        <ele>1017.971298</ele>
        <time>2022-02-23T09:08:30.535Z</time>
      </trkpt>
      <trkpt lat="39.86242" lon="-1.26974">
        <ele>1017.134086</ele>
        <time>2022-02-23T09:09:22.397Z</time>
      </trkpt>
      <trkpt lat="39.86205" lon="-1.27026">
        <ele>1016.86999</ele>
        <time>2022-02-23T09:09:33.436Z</time>
      </trkpt>
      <trkpt lat="39.86079" lon="-1.27253">
        <ele>1013.154454</ele>
        <time>2022-02-23T09:10:13.296Z</time>
      </trkpt>
      <trkpt lat="39.86023" lon="-1.27327">
        <ele>1011.418133</ele>
        <time>2022-02-23T09:10:27.715Z</time>
      </trkpt>
      <trkpt lat="39.85939" lon="-1.27228">
        <ele>1009.284352</ele>
        <time>2022-02-23T09:11:03.790Z</time>
      </trkpt>
      <trkpt lat="39.85879" lon="-1.27295">
        <ele>1008.236894</ele>
        <time>2022-02-23T09:11:30.310Z</time>
      </trkpt>
      <trkpt lat="39.8586" lon="-1.2731">
        <ele>1007.939729</ele>
        <time>2022-02-23T09:11:38.169Z</time>
      </trkpt>
      <trkpt lat="39.8575" lon="-1.27371">
        <ele>1006.427931</ele>
        <time>2022-02-23T09:12:21.414Z</time>
      </trkpt>
      <trkpt lat="39.85718" lon="-1.27382">
        <ele>1006.029415</ele>
        <time>2022-02-23T09:12:32.987Z</time>
      </trkpt>
      <trkpt lat="39.85622" lon="-1.27355">
        <ele>1003.898386</ele>
        <time>2022-02-23T09:13:04.906Z</time>
      </trkpt>
      <trkpt lat="39.85459" lon="-1.27241">
        <ele>996.618706</ele>
        <time>2022-02-23T09:13:58.438Z</time>
      </trkpt>
      <trkpt lat="39.85414" lon="-1.2723">
        <ele>995.152346</ele>
        <time>2022-02-23T09:14:11.903Z</time>
      </trkpt>
      <trkpt lat="39.85298" lon="-1.27191">
        <ele>991.524586</ele>
        <time>2022-02-23T09:14:50.461Z</time>
      </trkpt>
      <trkpt lat="39.85297" lon="-1.27191">
        <ele>991.498254</ele>
        <time>2022-02-23T09:14:50.751Z</time>
      </trkpt>
      <trkpt lat="39.85133" lon="-1.27146">
        <ele>988.110541</ele>
        <time>2022-02-23T09:15:25.923Z</time>
      </trkpt>
      <trkpt lat="39.85097" lon="-1.27141">
        <ele>987.0854</ele>
        <time>2022-02-23T09:15:32.992Z</time>
      </trkpt>
      <trkpt lat="39.85063" lon="-1.27138">
        <ele>986.086504</ele>
        <time>2022-02-23T09:15:39.820Z</time>
      </trkpt>
      <trkpt lat="39.84957" lon="-1.27086">
        <ele>982.859636</ele>
        <time>2022-02-23T09:16:01.561Z</time>
      </trkpt>
      <trkpt lat="39.84923" lon="-1.27067">
        <ele>981.761879</ele>
        <time>2022-02-23T09:16:08.883Z</time>
      </trkpt>
      <trkpt lat="39.8483" lon="-1.27018">
        <ele>978.886943</ele>
        <time>2022-02-23T09:16:28.374Z</time>
      </trkpt>
      <trkpt lat="39.8471" lon="-1.26961">
        <ele>975.638422</ele>
        <time>2022-02-23T09:16:54.266Z</time>
      </trkpt>
      <trkpt lat="39.84553" lon="-1.26881">
        <ele>971.749893</ele>
        <time>2022-02-23T09:17:28.210Z</time>
      </trkpt>
      <trkpt lat="39.84502" lon="-1.26838">
        <ele>970.390713</ele>
        <time>2022-02-23T09:17:40.778Z</time>
      </trkpt>
      <trkpt lat="39.84488" lon="-1.26825">
        <ele>970.015893</ele>
        <time>2022-02-23T09:17:44.301Z</time>
      </trkpt>
      <trkpt lat="39.8448" lon="-1.26829">
        <ele>969.816314</ele>
        <time>2022-02-23T09:17:46.138Z</time>
      </trkpt>
      <trkpt lat="39.84467" lon="-1.26836">
        <ele>969.48546</ele>
        <time>2022-02-23T09:17:49.037Z</time>
      </trkpt>
      <trkpt lat="39.84436" lon="-1.2678">
        <ele>968.211385</ele>
        <time>2022-02-23T09:17:58.777Z</time>
      </trkpt>
      <trkpt lat="39.84411" lon="-1.26749">
        <ele>967.387114</ele>
        <time>2022-02-23T09:18:04.991Z</time>
      </trkpt>
      <trkpt lat="39.84364" lon="-1.26706">
        <ele>966.011581</ele>
        <time>2022-02-23T09:18:15.202Z</time>
      </trkpt>
      <trkpt lat="39.84333" lon="-1.26681">
        <ele>964.963491</ele>
        <time>2022-02-23T09:18:21.722Z</time>
      </trkpt>
      <trkpt lat="39.84167" lon="-1.26552">
        <ele>957.767898</ele>
        <time>2022-02-23T09:18:53.549Z</time>
      </trkpt>
      <trkpt lat="39.84135" lon="-1.26533">
        <ele>956.513748</ele>
        <time>2022-02-23T09:18:59.305Z</time>
      </trkpt>
      <trkpt lat="39.84015" lon="-1.2648">
        <ele>952.072311</ele>
        <time>2022-02-23T09:19:20.580Z</time>
      </trkpt>
      <trkpt lat="39.83845" lon="-1.26407">
        <ele>948.150564</ele>
        <time>2022-02-23T09:19:53.236Z</time>
      </trkpt>
      <trkpt lat="39.83811" lon="-1.26383">
        <ele>947.595351</ele>
        <time>2022-02-23T09:20:00.506Z</time>
      </trkpt>
      <trkpt lat="39.83753" lon="-1.26329">
        <ele>946.555319</ele>
        <time>2022-02-23T09:20:14.398Z</time>
      </trkpt>
      <trkpt lat="39.83633" lon="-1.26219">
        <ele>944.149192</ele>
        <time>2022-02-23T09:20:42.814Z</time>
      </trkpt>
      <trkpt lat="39.83596" lon="-1.26175">
        <ele>943.253925</ele>
        <time>2022-02-23T09:20:52.157Z</time>
      </trkpt>
      <trkpt lat="39.83433" lon="-1.25908">
        <ele>937.807731</ele>
        <time>2022-02-23T09:21:38.757Z</time>
      </trkpt>
      <trkpt lat="39.83399" lon="-1.25864">
        <ele>937.359282</ele>
        <time>2022-02-23T09:21:47.966Z</time>
      </trkpt>
      <trkpt lat="39.83326" lon="-1.25809">
        <ele>936.577014</ele>
        <time>2022-02-23T09:22:05.483Z</time>
      </trkpt>
      <trkpt lat="39.83223" lon="-1.25761">
        <ele>937.806845</ele>
        <time>2022-02-23T09:22:34.601Z</time>
      </trkpt>
      <trkpt lat="39.83099" lon="-1.25705">
        <ele>940.368254</ele>
        <time>2022-02-23T09:23:18.374Z</time>
      </trkpt>
      <trkpt lat="39.83031" lon="-1.2568">
        <ele>942.43586</ele>
        <time>2022-02-23T09:23:44.726Z</time>
      </trkpt>
      <trkpt lat="39.82968" lon="-1.25664">
        <ele>944.316569</ele>
        <time>2022-02-23T09:24:09.810Z</time>
      </trkpt>
      <trkpt lat="39.82886" lon="-1.25652">
        <ele>947.028558</ele>
        <time>2022-02-23T09:24:43.171Z</time>
      </trkpt>
      <trkpt lat="39.82639" lon="-1.25623">
        <ele>954.222652</ele>
        <time>2022-02-23T09:26:15.991Z</time>
      </trkpt>
      <trkpt lat="39.82594" lon="-1.25618">
        <ele>955.140452</ele>
        <time>2022-02-23T09:26:29.332Z</time>
      </trkpt>
      <trkpt lat="39.82438" lon="-1.25598">
        <ele>956.907305</ele>
        <time>2022-02-23T09:27:12.588Z</time>
      </trkpt>
      <trkpt lat="39.82395" lon="-1.25586">
        <ele>956.572091</ele>
        <time>2022-02-23T09:27:23.691Z</time>
      </trkpt>
      <trkpt lat="39.82311" lon="-1.25538">
        <ele>955.693441</ele>
        <time>2022-02-23T09:27:42.501Z</time>
      </trkpt>
      <trkpt lat="39.82262" lon="-1.2551">
        <ele>955.006439</ele>
        <time>2022-02-23T09:27:52.001Z</time>
      </trkpt>
      <trkpt lat="39.82221" lon="-1.25494">
        <ele>953.010693</ele>
        <time>2022-02-23T09:27:59.248Z</time>
      </trkpt>
      <trkpt lat="39.8218" lon="-1.25487">
        <ele>951.11048</ele>
        <time>2022-02-23T09:28:05.818Z</time>
      </trkpt>
      <trkpt lat="39.82135" lon="-1.25488">
        <ele>949.00972</ele>
        <time>2022-02-23T09:28:12.885Z</time>
      </trkpt>
      <trkpt lat="39.81862" lon="-1.25518">
        <ele>933.679605</ele>
        <time>2022-02-23T09:28:55.454Z</time>
      </trkpt>
      <trkpt lat="39.8174" lon="-1.25534">
        <ele>926.244354</ele>
        <time>2022-02-23T09:29:14.135Z</time>
      </trkpt>
      <trkpt lat="39.81678" lon="-1.25553">
        <ele>922.507682</ele>
        <time>2022-02-23T09:29:23.870Z</time>
      </trkpt>
      <trkpt lat="39.81603" lon="-1.25591">
        <ele>917.814433</ele>
        <time>2022-02-23T09:29:36.253Z</time>
      </trkpt>
      <trkpt lat="39.8152" lon="-1.2566">
        <ele>913.778465</ele>
        <time>2022-02-23T09:29:52.029Z</time>
      </trkpt>
      <trkpt lat="39.81471" lon="-1.25721">
        <ele>911.9564</ele>
        <time>2022-02-23T09:30:03.888Z</time>
      </trkpt>
      <trkpt lat="39.81377" lon="-1.25858">
        <ele>910.478415</ele>
        <time>2022-02-23T09:30:32.895Z</time>
      </trkpt>
      <trkpt lat="39.81371" lon="-1.25867">
        <ele>910.488543</ele>
        <time>2022-02-23T09:30:35.196Z</time>
      </trkpt>
      <trkpt lat="39.8119" lon="-1.26125">
        <ele>912.711688</ele>
        <time>2022-02-23T09:31:46.783Z</time>
      </trkpt>
      <trkpt lat="39.81187" lon="-1.26129">
        <ele>912.834669</ele>
        <time>2022-02-23T09:31:48.033Z</time>
      </trkpt>
      <trkpt lat="39.80978" lon="-1.26429">
        <ele>923.222445</ele>
        <time>2022-02-23T09:33:47.161Z</time>
      </trkpt>
      <trkpt lat="39.80958" lon="-1.26459">
        <ele>924.429261</ele>
        <time>2022-02-23T09:34:03.167Z</time>
      </trkpt>
      <trkpt lat="39.80833" lon="-1.26633">
        <ele>933.396436</ele>
        <time>2022-02-23T09:35:34.984Z</time>
      </trkpt>
      <trkpt lat="39.80796" lon="-1.26669">
        <ele>933.73226</ele>
        <time>2022-02-23T09:35:51.137Z</time>
      </trkpt>
      <trkpt lat="39.80752" lon="-1.267">
        <ele>933.533293</ele>
        <time>2022-02-23T09:36:04.524Z</time>
      </trkpt>
      <trkpt lat="39.80706" lon="-1.26721">
        <ele>933.344149</ele>
        <time>2022-02-23T09:36:13.603Z</time>
      </trkpt>
      <trkpt lat="39.80665" lon="-1.26732">
        <ele>933.177767</ele>
        <time>2022-02-23T09:36:20.661Z</time>
      </trkpt>
      <trkpt lat="39.80624" lon="-1.26735">
        <ele>931.054282</ele>
        <time>2022-02-23T09:36:27.365Z</time>
      </trkpt>
      <trkpt lat="39.80584" lon="-1.26732">
        <ele>928.819228</ele>
        <time>2022-02-23T09:36:33.696Z</time>
      </trkpt>
      <trkpt lat="39.80479" lon="-1.2671">
        <ele>922.905383</ele>
        <time>2022-02-23T09:36:49.945Z</time>
      </trkpt>
      <trkpt lat="39.80423" lon="-1.26706">
        <ele>919.812861</ele>
        <time>2022-02-23T09:36:58.267Z</time>
      </trkpt>
      <trkpt lat="39.80281" lon="-1.26722">
        <ele>912.725734</ele>
        <time>2022-02-23T09:37:20.722Z</time>
      </trkpt>
      <trkpt lat="39.80236" lon="-1.26739">
        <ele>911.774418</ele>
        <time>2022-02-23T09:37:29.058Z</time>
      </trkpt>
      <trkpt lat="39.80199" lon="-1.26762">
        <ele>910.964823</ele>
        <time>2022-02-23T09:37:36.631Z</time>
      </trkpt>
      <trkpt lat="39.80167" lon="-1.2679">
        <ele>910.18946</ele>
        <time>2022-02-23T09:37:44.451Z</time>
      </trkpt>
      <trkpt lat="39.79988" lon="-1.27044">
        <ele>909.621763</ele>
        <time>2022-02-23T09:38:46.400Z</time>
      </trkpt>
      <trkpt lat="39.79872" lon="-1.27207">
        <ele>908.75535</ele>
        <time>2022-02-23T09:39:21.345Z</time>
      </trkpt>
      <trkpt lat="39.79826" lon="-1.27258">
        <ele>908.275954</ele>
        <time>2022-02-23T09:39:33.536Z</time>
      </trkpt>
      <trkpt lat="39.79776" lon="-1.27302">
        <ele>907.800077</ele>
        <time>2022-02-23T09:39:45.559Z</time>
      </trkpt>
      <trkpt lat="39.79733" lon="-1.27328">
        <ele>907.333382</ele>
        <time>2022-02-23T09:39:55.271Z</time>
      </trkpt>
      <trkpt lat="39.79658" lon="-1.27358">
        <ele>906.486646</ele>
        <time>2022-02-23T09:40:11.967Z</time>
      </trkpt>
      <trkpt lat="39.79625" lon="-1.27367">
        <ele>906.129038</ele>
        <time>2022-02-23T09:40:18.501Z</time>
      </trkpt>
      <trkpt lat="39.79616" lon="-1.27367">
        <ele>906.034416</ele>
        <time>2022-02-23T09:40:20.218Z</time>
      </trkpt>
      <trkpt lat="39.79569" lon="-1.27373">
        <ele>904.487489</ele>
        <time>2022-02-23T09:40:28.839Z</time>
      </trkpt>
      <trkpt lat="39.79514" lon="-1.27371">
        <ele>901.328465</ele>
        <time>2022-02-23T09:40:38.358Z</time>
      </trkpt>
      <trkpt lat="39.79127" lon="-1.27314">
        <ele>880.28829</ele>
        <time>2022-02-23T09:41:37.366Z</time>
      </trkpt>
      <trkpt lat="39.7905" lon="-1.27303">
        <ele>877.110699</ele>
        <time>2022-02-23T09:41:50.597Z</time>
      </trkpt>
      <trkpt lat="39.79021" lon="-1.27299">
        <ele>878.146384</ele>
        <time>2022-02-23T09:41:56.544Z</time>
      </trkpt>
      <trkpt lat="39.78641" lon="-1.2725">
        <ele>895.685632</ele>
        <time>2022-02-23T09:45:04.600Z</time>
      </trkpt>
      <trkpt lat="39.78611" lon="-1.27254">
        <ele>897.122816</ele>
        <time>2022-02-23T09:45:19.285Z</time>
      </trkpt>
      <trkpt lat="39.78533" lon="-1.27279">
        <ele>900.874013</ele>
        <time>2022-02-23T09:45:55.604Z</time>
      </trkpt>
      <trkpt lat="39.78535" lon="-1.2729">
        <ele>901.28897</ele>
        <time>2022-02-23T09:45:58.669Z</time>
      </trkpt>
      <trkpt lat="39.78509" lon="-1.27304">
        <ele>901.958897</ele>
        <time>2022-02-23T09:46:11.407Z</time>
      </trkpt>
      <trkpt lat="39.78394" lon="-1.27378">
        <ele>904.493706</ele>
        <time>2022-02-23T09:46:51.596Z</time>
      </trkpt>
      <trkpt lat="39.78369" lon="-1.27377">
        <ele>904.98124</ele>
        <time>2022-02-23T09:46:59.160Z</time>
      </trkpt>
      <trkpt lat="39.7831" lon="-1.2729">
        <ele>904.759852</ele>
        <time>2022-02-23T09:47:21.181Z</time>
      </trkpt>
      <trkpt lat="39.78265" lon="-1.27214">
        <ele>904.524841</ele>
        <time>2022-02-23T09:47:36.641Z</time>
      </trkpt>
      <trkpt lat="39.78262" lon="-1.27194">
        <ele>904.474949</ele>
        <time>2022-02-23T09:47:39.949Z</time>
      </trkpt>
      <trkpt lat="39.78046" lon="-1.2683">
        <ele>897.24568</ele>
        <time>2022-02-23T09:48:44.467Z</time>
      </trkpt>
      <trkpt lat="39.78043" lon="-1.26823">
        <ele>897.111237</ele>
        <time>2022-02-23T09:48:45.548Z</time>
      </trkpt>
      <trkpt lat="39.77808" lon="-1.26436">
        <ele>887.095633</ele>
        <time>2022-02-23T09:49:51.668Z</time>
      </trkpt>
      <trkpt lat="39.77602" lon="-1.26086">
        <ele>882.948351</ele>
        <time>2022-02-23T09:50:58.547Z</time>
      </trkpt>
      <trkpt lat="39.77261" lon="-1.25511">
        <ele>875.879592</ele>
        <time>2022-02-23T09:52:46.913Z</time>
      </trkpt>
      <trkpt lat="39.77176" lon="-1.2541">
        <ele>874.400907</ele>
        <time>2022-02-23T09:53:09.050Z</time>
      </trkpt>
      <trkpt lat="39.77132" lon="-1.2537">
        <ele>873.723718</ele>
        <time>2022-02-23T09:53:19.428Z</time>
      </trkpt>
      <trkpt lat="39.76659" lon="-1.25022">
        <ele>869.370552</ele>
        <time>2022-02-23T09:55:09.441Z</time>
      </trkpt>
      <trkpt lat="39.76592" lon="-1.24973">
        <ele>868.98933</ele>
        <time>2022-02-23T09:55:25.642Z</time>
      </trkpt>
      <trkpt lat="39.76569" lon="-1.24996">
        <ele>868.847587</ele>
        <time>2022-02-23T09:55:32.360Z</time>
      </trkpt>
      <trkpt lat="39.76544" lon="-1.25009">
        <ele>868.715873</ele>
        <time>2022-02-23T09:55:38.664Z</time>
      </trkpt>
      <trkpt lat="39.76524" lon="-1.25013">
        <ele>868.61765</ele>
        <time>2022-02-23T09:55:43.442Z</time>
      </trkpt>
      <trkpt lat="39.76438" lon="-1.24995">
        <ele>868.374325</ele>
        <time>2022-02-23T09:56:04.242Z</time>
      </trkpt>
      <trkpt lat="39.76347" lon="-1.24924">
        <ele>868.150617</ele>
        <time>2022-02-23T09:56:30.184Z</time>
      </trkpt>
      <trkpt lat="39.76231" lon="-1.24861">
        <ele>867.670481</ele>
        <time>2022-02-23T09:57:01.118Z</time>
      </trkpt>
      <trkpt lat="39.7621" lon="-1.24851">
        <ele>867.584842</ele>
        <time>2022-02-23T09:57:06.096Z</time>
      </trkpt>
      <trkpt lat="39.76109" lon="-1.24835">
        <ele>866.569627</ele>
        <time>2022-02-23T09:57:28.505Z</time>
      </trkpt>
      <trkpt lat="39.76057" lon="-1.24827">
        <ele>865.839071</ele>
        <time>2022-02-23T09:57:39.774Z</time>
      </trkpt>
      <trkpt lat="39.75965" lon="-1.2484">
        <ele>864.599798</ele>
        <time>2022-02-23T09:57:59.361Z</time>
      </trkpt>
      <trkpt lat="39.75932" lon="-1.24833">
        <ele>864.184161</ele>
        <time>2022-02-23T09:58:06.416Z</time>
      </trkpt>
      <trkpt lat="39.75879" lon="-1.24808">
        <ele>863.489215</ele>
        <time>2022-02-23T09:58:18.763Z</time>
      </trkpt>
      <trkpt lat="39.7581" lon="-1.24785">
        <ele>862.666816</ele>
        <time>2022-02-23T09:58:34.763Z</time>
      </trkpt>
      <trkpt lat="39.75693" lon="-1.24729">
        <ele>861.927358</ele>
        <time>2022-02-23T09:59:03.642Z</time>
      </trkpt>
      <trkpt lat="39.75633" lon="-1.24692">
        <ele>861.553095</ele>
        <time>2022-02-23T09:59:19.435Z</time>
      </trkpt>
      <trkpt lat="39.75559" lon="-1.24658">
        <ele>861.178814</ele>
        <time>2022-02-23T09:59:37.958Z</time>
      </trkpt>
      <trkpt lat="39.75441" lon="-1.24554">
        <ele>860.374129</ele>
        <time>2022-02-23T10:00:11.091Z</time>
      </trkpt>
      <trkpt lat="39.7532" lon="-1.24478">
        <ele>859.459082</ele>
        <time>2022-02-23T10:00:41.648Z</time>
      </trkpt>
      <trkpt lat="39.75197" lon="-1.24392">
        <ele>858.608563</ele>
        <time>2022-02-23T10:01:13.936Z</time>
      </trkpt>
      <trkpt lat="39.75077" lon="-1.24348">
        <ele>858.14508</ele>
        <time>2022-02-23T10:01:43.688Z</time>
      </trkpt>
      <trkpt lat="39.74982" lon="-1.24321">
        <ele>857.800715</ele>
        <time>2022-02-23T10:02:06.899Z</time>
      </trkpt>
      <trkpt lat="39.74922" lon="-1.24297">
        <ele>857.448192</ele>
        <time>2022-02-23T10:02:21.690Z</time>
      </trkpt>
      <trkpt lat="39.7479" lon="-1.24227">
        <ele>856.668409</ele>
        <time>2022-02-23T10:02:54.163Z</time>
      </trkpt>
      <trkpt lat="39.74758" lon="-1.24205">
        <ele>856.476973</ele>
        <time>2022-02-23T10:03:02.491Z</time>
      </trkpt>
      <trkpt lat="39.74657" lon="-1.24111">
        <ele>855.92503</ele>
        <time>2022-02-23T10:03:31.994Z</time>
      </trkpt>
      <trkpt lat="39.74439" lon="-1.23925">
        <ele>855.310075</ele>
        <time>2022-02-23T10:04:36.096Z</time>
      </trkpt>
      <trkpt lat="39.74394" lon="-1.23896">
        <ele>855.070973</ele>
        <time>2022-02-23T10:04:47.605Z</time>
      </trkpt>
      <trkpt lat="39.74166" lon="-1.23696">
        <ele>852.585401</ele>
        <time>2022-02-23T10:05:46.843Z</time>
      </trkpt>
      <trkpt lat="39.74092" lon="-1.23583">
        <ele>852.905001</ele>
        <time>2022-02-23T10:06:20.337Z</time>
      </trkpt>
      <trkpt lat="39.73985" lon="-1.23445">
        <ele>856.353063</ele>
        <time>2022-02-23T10:07:13.786Z</time>
      </trkpt>
      <trkpt lat="39.73869" lon="-1.23359">
        <ele>858.611084</ele>
        <time>2022-02-23T10:07:56.900Z</time>
      </trkpt>
      <trkpt lat="39.73854" lon="-1.23382">
        <ele>858.962967</ele>
        <time>2022-02-23T10:08:01.701Z</time>
      </trkpt>
      <trkpt lat="39.73796" lon="-1.23427">
        <ele>859.956639</ele>
        <time>2022-02-23T10:08:20.531Z</time>
      </trkpt>
      <trkpt lat="39.73793" lon="-1.23453">
        <ele>860.225337</ele>
        <time>2022-02-23T10:08:27.387Z</time>
      </trkpt>
      <trkpt lat="39.73803" lon="-1.23491">
        <ele>860.620445</ele>
        <time>2022-02-23T10:08:35.214Z</time>
      </trkpt>
      <trkpt lat="39.73805" lon="-1.23528">
        <ele>860.988337</ele>
        <time>2022-02-23T10:08:41.574Z</time>
      </trkpt>
      <trkpt lat="39.73797" lon="-1.2354">
        <ele>861.147844</ele>
        <time>2022-02-23T10:08:46.702Z</time>
      </trkpt>
      <trkpt lat="39.73714" lon="-1.23605">
        <ele>862.446436</ele>
        <time>2022-02-23T10:09:14.933Z</time>
      </trkpt>
      <trkpt lat="39.73699" lon="-1.23615">
        <ele>862.686276</ele>
        <time>2022-02-23T10:09:21.260Z</time>
      </trkpt>
      <trkpt lat="39.73653" lon="-1.23628">
        <ele>863.378847</ele>
        <time>2022-02-23T10:09:37.249Z</time>
      </trkpt>
      <trkpt lat="39.73567" lon="-1.23676">
        <ele>864.611168</ele>
        <time>2022-02-23T10:10:03.396Z</time>
      </trkpt>
      <trkpt lat="39.73487" lon="-1.23739">
        <ele>863.916605</ele>
        <time>2022-02-23T10:10:23.676Z</time>
      </trkpt>
      <trkpt lat="39.73468" lon="-1.23771">
        <ele>863.684914</ele>
        <time>2022-02-23T10:10:29.394Z</time>
      </trkpt>
      <trkpt lat="39.73418" lon="-1.23878">
        <ele>862.60812</ele>
        <time>2022-02-23T10:10:47.291Z</time>
      </trkpt>
      <trkpt lat="39.73407" lon="-1.2389">
        <ele>862.398406</ele>
        <time>2022-02-23T10:10:50.142Z</time>
      </trkpt>
      <trkpt lat="39.73384" lon="-1.23897">
        <ele>862.040597</ele>
        <time>2022-02-23T10:10:54.589Z</time>
      </trkpt>
      <trkpt lat="39.73382" lon="-1.239">
        <ele>861.992907</ele>
        <time>2022-02-23T10:10:55.325Z</time>
      </trkpt>
      <trkpt lat="39.7337" lon="-1.23903">
        <ele>861.814582</ele>
        <time>2022-02-23T10:10:58.073Z</time>
      </trkpt>
      <trkpt lat="39.73366" lon="-1.23897">
        <ele>861.722084</ele>
        <time>2022-02-23T10:10:59.463Z</time>
      </trkpt>
      <trkpt lat="39.73345" lon="-1.23912">
        <ele>861.359013</ele>
        <time>2022-02-23T10:11:04.273Z</time>
      </trkpt>
      <trkpt lat="39.73217" lon="-1.23968">
        <ele>859.001078</ele>
        <time>2022-02-23T10:11:29.431Z</time>
      </trkpt>
      <trkpt lat="39.73191" lon="-1.24013">
        <ele>858.16675</ele>
        <time>2022-02-23T10:11:37.600Z</time>
      </trkpt>
      <trkpt lat="39.73113" lon="-1.24096">
        <ele>856.599259</ele>
        <time>2022-02-23T10:11:55.583Z</time>
      </trkpt>
      <trkpt lat="39.73086" lon="-1.24109">
        <ele>856.251745</ele>
        <time>2022-02-23T10:12:00.613Z</time>
      </trkpt>
      <trkpt lat="39.73008" lon="-1.24116">
        <ele>855.304511</ele>
        <time>2022-02-23T10:12:16.361Z</time>
      </trkpt>
      <trkpt lat="39.72979" lon="-1.24111">
        <ele>855.119261</ele>
        <time>2022-02-23T10:12:23.341Z</time>
      </trkpt>
      <trkpt lat="39.72886" lon="-1.24067">
        <ele>856.612223</ele>
        <time>2022-02-23T10:12:52.199Z</time>
      </trkpt>
      <trkpt lat="39.72774" lon="-1.24026">
        <ele>858.002015</ele>
        <time>2022-02-23T10:13:32.099Z</time>
      </trkpt>
      <trkpt lat="39.72738" lon="-1.23996">
        <ele>858.254977</ele>
        <time>2022-02-23T10:13:44.856Z</time>
      </trkpt>
      <trkpt lat="39.7267" lon="-1.23914">
        <ele>858.804294</ele>
        <time>2022-02-23T10:14:05.066Z</time>
      </trkpt>
      <trkpt lat="39.72642" lon="-1.23895">
        <ele>857.895013</ele>
        <time>2022-02-23T10:14:11.012Z</time>
      </trkpt>
      <trkpt lat="39.72579" lon="-1.23967">
        <ele>855.228791</ele>
        <time>2022-02-23T10:14:25.201Z</time>
      </trkpt>
      <trkpt lat="39.72563" lon="-1.2398">
        <ele>854.609903</ele>
        <time>2022-02-23T10:14:28.375Z</time>
      </trkpt>
      <trkpt lat="39.72541" lon="-1.23995">
        <ele>853.832795</ele>
        <time>2022-02-23T10:14:32.310Z</time>
      </trkpt>
      <trkpt lat="39.72443" lon="-1.2403">
        <ele>850.524993</ele>
        <time>2022-02-23T10:14:48.984Z</time>
      </trkpt>
      <trkpt lat="39.72418" lon="-1.24031">
        <ele>849.724823</ele>
        <time>2022-02-23T10:14:53.161Z</time>
      </trkpt>
      <trkpt lat="39.72396" lon="-1.24023">
        <ele>848.966678</ele>
        <time>2022-02-23T10:14:57.216Z</time>
      </trkpt>
      <trkpt lat="39.72348" lon="-1.23995">
        <ele>847.26873</ele>
        <time>2022-02-23T10:15:06.546Z</time>
      </trkpt>
      <trkpt lat="39.72241" lon="-1.23974">
        <ele>845.70181</ele>
        <time>2022-02-23T10:15:26.717Z</time>
      </trkpt>
      <trkpt lat="39.72193" lon="-1.24106">
        <ele>844.252168</ele>
        <time>2022-02-23T10:15:52.312Z</time>
      </trkpt>
      <trkpt lat="39.72185" lon="-1.24152">
        <ele>843.876698</ele>
        <time>2022-02-23T10:16:00.215Z</time>
      </trkpt>
      <trkpt lat="39.72154" lon="-1.24213">
        <ele>843.295244</ele>
        <time>2022-02-23T10:16:12.511Z</time>
      </trkpt>
      <trkpt lat="39.7214" lon="-1.24209">
        <ele>843.141862</ele>
        <time>2022-02-23T10:16:15.627Z</time>
      </trkpt>
      <trkpt lat="39.72095" lon="-1.24171">
        <ele>842.578832</ele>
        <time>2022-02-23T10:16:27.838Z</time>
      </trkpt>
      <trkpt lat="39.72081" lon="-1.24161">
        <ele>842.408862</ele>
        <time>2022-02-23T10:16:31.354Z</time>
      </trkpt>
      <trkpt lat="39.71831" lon="-1.24083">
        <ele>840.103919</ele>
        <time>2022-02-23T10:17:28.301Z</time>
      </trkpt>
      <trkpt lat="39.71567" lon="-1.24089">
        <ele>839.454715</ele>
        <time>2022-02-23T10:18:32.602Z</time>
      </trkpt>
      <trkpt lat="39.71553" lon="-1.2408">
        <ele>839.462166</ele>
        <time>2022-02-23T10:18:36.647Z</time>
      </trkpt>
      <trkpt lat="39.71491" lon="-1.2401">
        <ele>839.50085</ele>
        <time>2022-02-23T10:18:57.427Z</time>
      </trkpt>
      <trkpt lat="39.71465" lon="-1.23999">
        <ele>839.513401</ele>
        <time>2022-02-23T10:19:04.192Z</time>
      </trkpt>
      <trkpt lat="39.71357" lon="-1.24015">
        <ele>839.222129</ele>
        <time>2022-02-23T10:19:31.334Z</time>
      </trkpt>
      <trkpt lat="39.71241" lon="-1.23961">
        <ele>838.581244</ele>
        <time>2022-02-23T10:19:59.458Z</time>
      </trkpt>
      <trkpt lat="39.71183" lon="-1.23924">
        <ele>837.836961</ele>
        <time>2022-02-23T10:20:13.689Z</time>
      </trkpt>
      <trkpt lat="39.71142" lon="-1.23891">
        <ele>837.274462</ele>
        <time>2022-02-23T10:20:24.289Z</time>
      </trkpt>
      <trkpt lat="39.71096" lon="-1.23883">
        <ele>836.738915</ele>
        <time>2022-02-23T10:20:34.175Z</time>
      </trkpt>
      <trkpt lat="39.71007" lon="-1.2389">
        <ele>835.836326</ele>
        <time>2022-02-23T10:20:53.661Z</time>
      </trkpt>
      <trkpt lat="39.70978" lon="-1.23905">
        <ele>835.524608</ele>
        <time>2022-02-23T10:21:00.670Z</time>
      </trkpt>
      <trkpt lat="39.70893" lon="-1.24039">
        <ele>834.522407</ele>
        <time>2022-02-23T10:21:31.312Z</time>
      </trkpt>
      <trkpt lat="39.70878" lon="-1.2409">
        <ele>834.31211</ele>
        <time>2022-02-23T10:21:41.296Z</time>
      </trkpt>
      <trkpt lat="39.70855" lon="-1.24278">
        <ele>833.521627</ele>
        <time>2022-02-23T10:22:15.869Z</time>
      </trkpt>
      <trkpt lat="39.70835" lon="-1.24369">
        <ele>833.100295</ele>
        <time>2022-02-23T10:22:32.683Z</time>
      </trkpt>
      <trkpt lat="39.7081" lon="-1.2442">
        <ele>832.803344</ele>
        <time>2022-02-23T10:22:43.326Z</time>
      </trkpt>
      <trkpt lat="39.70773" lon="-1.24461">
        <ele>832.443171</ele>
        <time>2022-02-23T10:22:54.228Z</time>
      </trkpt>
      <trkpt lat="39.70731" lon="-1.24486">
        <ele>832.09457</ele>
        <time>2022-02-23T10:23:04.810Z</time>
      </trkpt>
      <trkpt lat="39.70589" lon="-1.24528">
        <ele>831.15534</ele>
        <time>2022-02-23T10:23:38.463Z</time>
      </trkpt>
      <trkpt lat="39.70492" lon="-1.24584">
        <ele>830.582755</ele>
        <time>2022-02-23T10:24:03.079Z</time>
      </trkpt>
      <trkpt lat="39.70434" lon="-1.24625">
        <ele>830.46636</ele>
        <time>2022-02-23T10:24:18.532Z</time>
      </trkpt>
      <trkpt lat="39.70397" lon="-1.24634">
        <ele>830.401405</ele>
        <time>2022-02-23T10:24:27.579Z</time>
      </trkpt>
      <trkpt lat="39.70329" lon="-1.2464">
        <ele>830.281768</ele>
        <time>2022-02-23T10:24:44.805Z</time>
      </trkpt>
      <trkpt lat="39.70299" lon="-1.24648">
        <ele>830.349616</ele>
        <time>2022-02-23T10:24:52.666Z</time>
      </trkpt>
      <trkpt lat="39.70261" lon="-1.24674">
        <ele>830.484805</ele>
        <time>2022-02-23T10:25:04.370Z</time>
      </trkpt>
      <trkpt lat="39.70232" lon="-1.24684">
        <ele>830.579046</ele>
        <time>2022-02-23T10:25:12.385Z</time>
      </trkpt>
      <trkpt lat="39.70134" lon="-1.24687">
        <ele>830.770909</ele>
        <time>2022-02-23T10:25:38.474Z</time>
      </trkpt>
      <trkpt lat="39.70052" lon="-1.24711">
        <ele>830.436889</ele>
        <time>2022-02-23T10:25:58.685Z</time>
      </trkpt>
      <trkpt lat="39.70031" lon="-1.24702">
        <ele>830.348646</ele>
        <time>2022-02-23T10:26:03.659Z</time>
      </trkpt>
      <trkpt lat="39.70013" lon="-1.24688">
        <ele>830.263813</ele>
        <time>2022-02-23T10:26:08.548Z</time>
      </trkpt>
      <trkpt lat="39.69969" lon="-1.24635">
        <ele>829.868544</ele>
        <time>2022-02-23T10:26:22.180Z</time>
      </trkpt>
      <trkpt lat="39.69956" lon="-1.24631">
        <ele>829.731698</ele>
        <time>2022-02-23T10:26:25.075Z</time>
      </trkpt>
      <trkpt lat="39.6993" lon="-1.2464">
        <ele>829.450231</ele>
        <time>2022-02-23T10:26:30.968Z</time>
      </trkpt>
      <trkpt lat="39.6991" lon="-1.24662">
        <ele>829.174126</ele>
        <time>2022-02-23T10:26:36.637Z</time>
      </trkpt>
      <trkpt lat="39.69901" lon="-1.24691">
        <ele>828.918746</ele>
        <time>2022-02-23T10:26:42.054Z</time>
      </trkpt>
      <trkpt lat="39.69911" lon="-1.24754">
        <ele>828.40147</ele>
        <time>2022-02-23T10:26:52.951Z</time>
      </trkpt>
      <trkpt lat="39.6991" lon="-1.24777">
        <ele>828.215481</ele>
        <time>2022-02-23T10:26:56.976Z</time>
      </trkpt>
      <trkpt lat="39.69899" lon="-1.24794">
        <ele>828.066888</ele>
        <time>2022-02-23T10:27:00.663Z</time>
      </trkpt>
      <trkpt lat="39.69855" lon="-1.24842">
        <ele>827.55886</ele>
        <time>2022-02-23T10:27:13.684Z</time>
      </trkpt>
      <trkpt lat="39.69831" lon="-1.24908">
        <ele>827.067599</ele>
        <time>2022-02-23T10:27:26.309Z</time>
      </trkpt>
      <trkpt lat="39.69816" lon="-1.24935">
        <ele>826.836843</ele>
        <time>2022-02-23T10:27:32.236Z</time>
      </trkpt>
      <trkpt lat="39.69757" lon="-1.24972">
        <ele>826.323236</ele>
        <time>2022-02-23T10:27:47.207Z</time>
      </trkpt>
      <trkpt lat="39.69708" lon="-1.25016">
        <ele>825.887957</ele>
        <time>2022-02-23T10:28:00.749Z</time>
      </trkpt>
      <trkpt lat="39.69635" lon="-1.25055">
        <ele>825.305717</ele>
        <time>2022-02-23T10:28:18.784Z</time>
      </trkpt>
      <trkpt lat="39.69565" lon="-1.25139">
        <ele>824.631358</ele>
        <time>2022-02-23T10:28:40.427Z</time>
      </trkpt>
      <trkpt lat="39.69442" lon="-1.25241">
        <ele>823.878814</ele>
        <time>2022-02-23T10:29:14.028Z</time>
      </trkpt>
      <trkpt lat="39.69372" lon="-1.25282">
        <ele>823.6742</ele>
        <time>2022-02-23T10:29:32.725Z</time>
      </trkpt>
      <trkpt lat="39.69363" lon="-1.25292">
        <ele>823.642219</ele>
        <time>2022-02-23T10:29:35.632Z</time>
      </trkpt>
      <trkpt lat="39.69348" lon="-1.25324">
        <ele>823.565927</ele>
        <time>2022-02-23T10:29:42.802Z</time>
      </trkpt>
      <trkpt lat="39.69312" lon="-1.25364">
        <ele>823.480775</ele>
        <time>2022-02-23T10:29:54.722Z</time>
      </trkpt>
      <trkpt lat="39.69267" lon="-1.25387">
        <ele>823.395957</ele>
        <time>2022-02-23T10:30:06.658Z</time>
      </trkpt>
      <trkpt lat="39.6903" lon="-1.25381">
        <ele>822.41797</ele>
        <time>2022-02-23T10:31:02.630Z</time>
      </trkpt>
      <trkpt lat="39.68935" lon="-1.25338">
        <ele>821.586945</ele>
        <time>2022-02-23T10:31:25.067Z</time>
      </trkpt>
      <trkpt lat="39.68866" lon="-1.25323">
        <ele>820.945678</ele>
        <time>2022-02-23T10:31:40.526Z</time>
      </trkpt>
      <trkpt lat="39.68822" lon="-1.25329">
        <ele>820.573018</ele>
        <time>2022-02-23T10:31:50.477Z</time>
      </trkpt>
      <trkpt lat="39.68608" lon="-1.25462">
        <ele>819.446008</ele>
        <time>2022-02-23T10:32:46.349Z</time>
      </trkpt>
      <trkpt lat="39.68549" lon="-1.25509">
        <ele>819.195298</ele>
        <time>2022-02-23T10:33:03.140Z</time>
      </trkpt>
      <trkpt lat="39.68508" lon="-1.25553">
        <ele>818.984025</ele>
        <time>2022-02-23T10:33:15.528Z</time>
      </trkpt>
      <trkpt lat="39.68435" lon="-1.25596">
        <ele>818.504382</ele>
        <time>2022-02-23T10:33:34.065Z</time>
      </trkpt>
      <trkpt lat="39.68372" lon="-1.25656">
        <ele>818.033443</ele>
        <time>2022-02-23T10:33:52.121Z</time>
      </trkpt>
      <trkpt lat="39.6829" lon="-1.258">
        <ele>817.318283</ele>
        <time>2022-02-23T10:34:24.034Z</time>
      </trkpt>
      <trkpt lat="39.68257" lon="-1.25837">
        <ele>817.099272</ele>
        <time>2022-02-23T10:34:34.166Z</time>
      </trkpt>
      <trkpt lat="39.68218" lon="-1.25908">
        <ele>816.951425</ele>
        <time>2022-02-23T10:34:50.394Z</time>
      </trkpt>
      <trkpt lat="39.68173" lon="-1.25958">
        <ele>816.85744</ele>
        <time>2022-02-23T10:35:04.788Z</time>
      </trkpt>
      <trkpt lat="39.68169" lon="-1.25972">
        <ele>816.838667</ele>
        <time>2022-02-23T10:35:07.660Z</time>
      </trkpt>
      <trkpt lat="39.68177" lon="-1.26008">
        <ele>816.792211</ele>
        <time>2022-02-23T10:35:14.824Z</time>
      </trkpt>
      <trkpt lat="39.68174" lon="-1.26023">
        <ele>816.77285</ele>
        <time>2022-02-23T10:35:17.802Z</time>
      </trkpt>
      <trkpt lat="39.68157" lon="-1.26038">
        <ele>816.73898</ele>
        <time>2022-02-23T10:35:22.888Z</time>
      </trkpt>
      <trkpt lat="39.68134" lon="-1.2604">
        <ele>816.701058</ele>
        <time>2022-02-23T10:35:28.401Z</time>
      </trkpt>
      <trkpt lat="39.68076" lon="-1.26136">
        <ele>816.54268</ele>
        <time>2022-02-23T10:35:51.366Z</time>
      </trkpt>
      <trkpt lat="39.67993" lon="-1.26242">
        <ele>816.267636</ele>
        <time>2022-02-23T10:36:19.248Z</time>
      </trkpt>
      <trkpt lat="39.67952" lon="-1.26268">
        <ele>816.132858</ele>
        <time>2022-02-23T10:36:30.077Z</time>
      </trkpt>
      <trkpt lat="39.67802" lon="-1.26338">
        <ele>815.538854</ele>
        <time>2022-02-23T10:37:08.304Z</time>
      </trkpt>
      <trkpt lat="39.67756" lon="-1.26365">
        <ele>815.319599</ele>
        <time>2022-02-23T10:37:20.154Z</time>
      </trkpt>
      <trkpt lat="39.67703" lon="-1.26381">
        <ele>814.999474</ele>
        <time>2022-02-23T10:37:32.728Z</time>
      </trkpt>
      <trkpt lat="39.67619" lon="-1.26369">
        <ele>814.100656</ele>
        <time>2022-02-23T10:37:51.535Z</time>
      </trkpt>
      <trkpt lat="39.67504" lon="-1.26294">
        <ele>812.817489</ele>
        <time>2022-02-23T10:38:19.523Z</time>
      </trkpt>
      <trkpt lat="39.67476" lon="-1.26295">
        <ele>812.575041</ele>
        <time>2022-02-23T10:38:25.526Z</time>
      </trkpt>
      <trkpt lat="39.67419" lon="-1.26311">
        <ele>812.061241</ele>
        <time>2022-02-23T10:38:38.534Z</time>
      </trkpt>
      <trkpt lat="39.67393" lon="-1.26305">
        <ele>811.828366</ele>
        <time>2022-02-23T10:38:44.692Z</time>
      </trkpt>
      <trkpt lat="39.67365" lon="-1.26311">
        <ele>811.695883</ele>
        <time>2022-02-23T10:38:51.426Z</time>
      </trkpt>
      <trkpt lat="39.67333" lon="-1.26328">
        <ele>811.950191</ele>
        <time>2022-02-23T10:39:00.339Z</time>
      </trkpt>
      <trkpt lat="39.67289" lon="-1.26367">
        <ele>812.338062</ele>
        <time>2022-02-23T10:39:15.351Z</time>
      </trkpt>
      <trkpt lat="39.67145" lon="-1.26424">
        <ele>813.333089</ele>
        <time>2022-02-23T10:40:02.015Z</time>
      </trkpt>
      <trkpt lat="39.67024" lon="-1.2649">
        <ele>813.809783</ele>
        <time>2022-02-23T10:40:36.963Z</time>
      </trkpt>
      <trkpt lat="39.67015" lon="-1.26495">
        <ele>813.716647</ele>
        <time>2022-02-23T10:40:39.242Z</time>
      </trkpt>
      <trkpt lat="39.66992" lon="-1.26435">
        <ele>813.199418</ele>
        <time>2022-02-23T10:40:49.540Z</time>
      </trkpt>
      <trkpt lat="39.6696" lon="-1.26353">
        <ele>812.478099</ele>
        <time>2022-02-23T10:41:03.462Z</time>
      </trkpt>
      <trkpt lat="39.66928" lon="-1.26365">
        <ele>812.183209</ele>
        <time>2022-02-23T10:41:10.119Z</time>
      </trkpt>
      <trkpt lat="39.66902" lon="-1.26307">
        <ele>812.563034</ele>
        <time>2022-02-23T10:41:20.913Z</time>
      </trkpt>
      <trkpt lat="39.66898" lon="-1.26299">
        <ele>812.616683</ele>
        <time>2022-02-23T10:41:22.576Z</time>
      </trkpt>
      <trkpt lat="39.66878" lon="-1.26247">
        <ele>812.945295</ele>
        <time>2022-02-23T10:41:34.880Z</time>
      </trkpt>
      <trkpt lat="39.66866" lon="-1.26191">
        <ele>813.274903</ele>
        <time>2022-02-23T10:41:48.493Z</time>
      </trkpt>
      <trkpt lat="39.66865" lon="-1.26186">
        <ele>813.309527</ele>
        <time>2022-02-23T10:41:49.820Z</time>
      </trkpt>
      <trkpt lat="39.66864" lon="-1.26079">
        <ele>813.969653</ele>
        <time>2022-02-23T10:42:16.508Z</time>
      </trkpt>
      <trkpt lat="39.66862" lon="-1.26027">
        <ele>814.310758</ele>
        <time>2022-02-23T10:42:30.131Z</time>
      </trkpt>
      <trkpt lat="39.66327" lon="-1.26202">
        <ele>811.95361</ele>
        <time>2022-02-23T10:44:24.226Z</time>
      </trkpt>
      <trkpt lat="39.66262" lon="-1.26244">
        <ele>811.353628</ele>
        <time>2022-02-23T10:44:38.363Z</time>
      </trkpt>
      <trkpt lat="39.6612" lon="-1.26369">
        <ele>809.834841</ele>
        <time>2022-02-23T10:45:12.325Z</time>
      </trkpt>
      <trkpt lat="39.66092" lon="-1.26388">
        <ele>809.908606</ele>
        <time>2022-02-23T10:45:19.129Z</time>
      </trkpt>
      <trkpt lat="39.65566" lon="-1.26707">
        <ele>812.053002</ele>
        <time>2022-02-23T10:47:47.225Z</time>
      </trkpt>
      <trkpt lat="39.65273" lon="-1.26807">
        <ele>807.263923</ele>
        <time>2022-02-23T10:48:42.624Z</time>
      </trkpt>
      <trkpt lat="39.64992" lon="-1.26813">
        <ele>803.316354</ele>
        <time>2022-02-23T10:49:36.630Z</time>
      </trkpt>
      <trkpt lat="39.64575" lon="-1.26742">
        <ele>798.650314</ele>
        <time>2022-02-23T10:50:59.253Z</time>
      </trkpt>
      <trkpt lat="39.64482" lon="-1.26757">
        <ele>798.006183</ele>
        <time>2022-02-23T10:51:18.781Z</time>
      </trkpt>
      <trkpt lat="39.64236" lon="-1.26801">
        <ele>795.692956</ele>
        <time>2022-02-23T10:52:10.053Z</time>
      </trkpt>
      <trkpt lat="39.64182" lon="-1.26794">
        <ele>794.673963</ele>
        <time>2022-02-23T10:52:19.564Z</time>
      </trkpt>
      <trkpt lat="39.64071" lon="-1.26894">
        <ele>791.191663</ele>
        <time>2022-02-23T10:52:42.733Z</time>
      </trkpt>
      <trkpt lat="39.64055" lon="-1.26907">
        <ele>790.74979</ele>
        <time>2022-02-23T10:52:46.019Z</time>
      </trkpt>
      <trkpt lat="39.63821" lon="-1.27108">
        <ele>790.32159</ele>
        <time>2022-02-23T10:53:45.721Z</time>
      </trkpt>
      <trkpt lat="39.63646" lon="-1.27235">
        <ele>793.848964</ele>
        <time>2022-02-23T10:54:53.748Z</time>
      </trkpt>
      <trkpt lat="39.63613" lon="-1.27265">
        <ele>794.810221</ele>
        <time>2022-02-23T10:55:07.860Z</time>
      </trkpt>
      <trkpt lat="39.63605" lon="-1.27273">
        <ele>795.046087</ele>
        <time>2022-02-23T10:55:11.142Z</time>
      </trkpt>
      <trkpt lat="39.63286" lon="-1.27605">
        <ele>803.565634</ele>
        <time>2022-02-23T10:57:25.808Z</time>
      </trkpt>
      <trkpt lat="39.63054" lon="-1.27808">
        <ele>807.588381</ele>
        <time>2022-02-23T10:58:48.771Z</time>
      </trkpt>
      <trkpt lat="39.62667" lon="-1.28054">
        <ele>809.563082</ele>
        <time>2022-02-23T11:00:31.955Z</time>
      </trkpt>
      <trkpt lat="39.62621" lon="-1.28051">
        <ele>809.800592</ele>
        <time>2022-02-23T11:00:43.803Z</time>
      </trkpt>
      <trkpt lat="39.62425" lon="-1.2806">
        <ele>810.813821</ele>
        <time>2022-02-23T11:01:35.414Z</time>
      </trkpt>
      <trkpt lat="39.624" lon="-1.28061">
        <ele>810.948319</ele>
        <time>2022-02-23T11:01:42.046Z</time>
      </trkpt>
      <trkpt lat="39.62372" lon="-1.28061">
        <ele>811.09271</ele>
        <time>2022-02-23T11:01:49.072Z</time>
      </trkpt>
      <trkpt lat="39.62305" lon="-1.28061">
        <ele>810.789502</ele>
        <time>2022-02-23T11:02:06.085Z</time>
      </trkpt>
      <trkpt lat="39.62299" lon="-1.28062">
        <ele>810.720176</ele>
        <time>2022-02-23T11:02:07.530Z</time>
      </trkpt>
      <trkpt lat="39.62206" lon="-1.28081">
        <ele>809.563993</ele>
        <time>2022-02-23T11:02:27.484Z</time>
      </trkpt>
      <trkpt lat="39.62156" lon="-1.28053">
        <ele>808.51047</ele>
        <time>2022-02-23T11:02:37.382Z</time>
      </trkpt>
      <trkpt lat="39.62128" lon="-1.2807">
        <ele>807.12533</ele>
        <time>2022-02-23T11:02:42.616Z</time>
      </trkpt>
      <trkpt lat="39.62107" lon="-1.28081">
        <ele>806.131144</ele>
        <time>2022-02-23T11:02:46.272Z</time>
      </trkpt>
      <trkpt lat="39.62086" lon="-1.28092">
        <ele>805.103366</ele>
        <time>2022-02-23T11:02:50.097Z</time>
      </trkpt>
      <trkpt lat="39.62074" lon="-1.28147">
        <ele>803.145171</ele>
        <time>2022-02-23T11:02:57.399Z</time>
      </trkpt>
      <trkpt lat="39.62052" lon="-1.28166">
        <ele>801.943389</ele>
        <time>2022-02-23T11:03:01.887Z</time>
      </trkpt>
      <trkpt lat="39.62042" lon="-1.28175">
        <ele>801.413882</ele>
        <time>2022-02-23T11:03:03.857Z</time>
      </trkpt>
      <trkpt lat="39.62035" lon="-1.28233">
        <ele>800.122593</ele>
        <time>2022-02-23T11:03:11.394Z</time>
      </trkpt>
      <trkpt lat="39.61973" lon="-1.28334">
        <ele>797.736962</ele>
        <time>2022-02-23T11:03:29.608Z</time>
      </trkpt>
      <trkpt lat="39.61968" lon="-1.28329">
        <ele>797.581155</ele>
        <time>2022-02-23T11:03:30.924Z</time>
      </trkpt>
      <trkpt lat="39.61922" lon="-1.28282">
        <ele>796.763436</ele>
        <time>2022-02-23T11:03:45.290Z</time>
      </trkpt>
      <trkpt lat="39.61796" lon="-1.28155">
        <ele>797.627644</ele>
        <time>2022-02-23T11:04:27.173Z</time>
      </trkpt>
      <trkpt lat="39.61749" lon="-1.28124">
        <ele>797.365716</ele>
        <time>2022-02-23T11:04:39.682Z</time>
      </trkpt>
      <trkpt lat="39.61142" lon="-1.27773">
        <ele>793.497724</ele>
        <time>2022-02-23T11:06:56.918Z</time>
      </trkpt>
      <trkpt lat="39.60763" lon="-1.27553">
        <ele>786.914987</ele>
        <time>2022-02-23T11:08:13.580Z</time>
      </trkpt>
      <trkpt lat="39.60107" lon="-1.27173">
        <ele>786.293176</ele>
        <time>2022-02-23T11:10:56.267Z</time>
      </trkpt>
      <trkpt lat="39.59814" lon="-1.27003">
        <ele>785.378472</ele>
        <time>2022-02-23T11:12:03.961Z</time>
      </trkpt>
      <trkpt lat="39.59725" lon="-1.26952">
        <ele>786.01579</ele>
        <time>2022-02-23T11:12:27.422Z</time>
      </trkpt>
      <trkpt lat="39.59714" lon="-1.26946">
        <ele>786.087708</ele>
        <time>2022-02-23T11:12:30.544Z</time>
      </trkpt>
      <trkpt lat="39.59707" lon="-1.26942">
        <ele>786.13991</ele>
        <time>2022-02-23T11:12:32.701Z</time>
      </trkpt>
      <trkpt lat="39.59688" lon="-1.26956">
        <ele>786.284765</ele>
        <time>2022-02-23T11:12:39.928Z</time>
      </trkpt>
      <trkpt lat="39.59624" lon="-1.26982">
        <ele>786.555798</ele>
        <time>2022-02-23T11:12:59.429Z</time>
      </trkpt>
      <trkpt lat="39.59586" lon="-1.27008">
        <ele>786.654747</ele>
        <time>2022-02-23T11:13:10.948Z</time>
      </trkpt>
      <trkpt lat="39.59578" lon="-1.27013">
        <ele>786.675912</ele>
        <time>2022-02-23T11:13:12.953Z</time>
      </trkpt>
      <trkpt lat="39.59554" lon="-1.27032">
        <ele>786.738951</ele>
        <time>2022-02-23T11:13:20.117Z</time>
      </trkpt>
      <trkpt lat="39.59525" lon="-1.27049">
        <ele>786.813119</ele>
        <time>2022-02-23T11:13:27.030Z</time>
      </trkpt>
      <trkpt lat="39.59519" lon="-1.27049">
        <ele>786.826676</ele>
        <time>2022-02-23T11:13:28.239Z</time>
      </trkpt>
      <trkpt lat="39.59492" lon="-1.27064">
        <ele>786.739603</ele>
        <time>2022-02-23T11:13:33.994Z</time>
      </trkpt>
      <trkpt lat="39.59405" lon="-1.27146">
        <ele>784.508573</ele>
        <time>2022-02-23T11:13:53.536Z</time>
      </trkpt>
      <trkpt lat="39.59394" lon="-1.27156">
        <ele>784.228214</ele>
        <time>2022-02-23T11:13:55.916Z</time>
      </trkpt>
      <trkpt lat="39.59378" lon="-1.27171">
        <ele>783.833717</ele>
        <time>2022-02-23T11:13:59.181Z</time>
      </trkpt>
      <trkpt lat="39.59337" lon="-1.27261">
        <ele>782.471783</ele>
        <time>2022-02-23T11:14:13.776Z</time>
      </trkpt>
      <trkpt lat="39.59319" lon="-1.27285">
        <ele>782.105366</ele>
        <time>2022-02-23T11:14:18.567Z</time>
      </trkpt>
      <trkpt lat="39.59171" lon="-1.27437">
        <ele>780.152294</ele>
        <time>2022-02-23T11:14:56.522Z</time>
      </trkpt>
      <trkpt lat="39.59157" lon="-1.27472">
        <ele>779.988284</ele>
        <time>2022-02-23T11:15:02.805Z</time>
      </trkpt>
      <trkpt lat="39.59149" lon="-1.27501">
        <ele>779.859443</ele>
        <time>2022-02-23T11:15:07.832Z</time>
      </trkpt>
      <trkpt lat="39.59132" lon="-1.27527">
        <ele>779.71877</ele>
        <time>2022-02-23T11:15:13.300Z</time>
      </trkpt>
      <trkpt lat="39.59049" lon="-1.27605">
        <ele>779.926478</ele>
        <time>2022-02-23T11:15:36.931Z</time>
      </trkpt>
      <trkpt lat="39.59019" lon="-1.27641">
        <ele>780.071111</ele>
        <time>2022-02-23T11:15:46.635Z</time>
      </trkpt>
      <trkpt lat="39.59007" lon="-1.27685">
        <ele>780.199549</ele>
        <time>2022-02-23T11:15:56.039Z</time>
      </trkpt>
      <trkpt lat="39.58998" lon="-1.27721">
        <ele>780.323153</ele>
        <time>2022-02-23T11:16:03.670Z</time>
      </trkpt>
      <trkpt lat="39.58993" lon="-1.27728">
        <ele>780.364024</ele>
        <time>2022-02-23T11:16:05.644Z</time>
      </trkpt>
      <trkpt lat="39.58969" lon="-1.27758">
        <ele>780.544417</ele>
        <time>2022-02-23T11:16:14.470Z</time>
      </trkpt>
      <trkpt lat="39.58959" lon="-1.27771">
        <ele>780.623301</ele>
        <time>2022-02-23T11:16:18.349Z</time>
      </trkpt>
      <trkpt lat="39.58942" lon="-1.27782">
        <ele>780.727606</ele>
        <time>2022-02-23T11:16:23.350Z</time>
      </trkpt>
      <trkpt lat="39.58933" lon="-1.27831">
        <ele>780.937783</ele>
        <time>2022-02-23T11:16:32.768Z</time>
      </trkpt>
      <trkpt lat="39.58886" lon="-1.27873">
        <ele>781.24558</ele>
        <time>2022-02-23T11:16:46.651Z</time>
      </trkpt>
      <trkpt lat="39.58863" lon="-1.27904">
        <ele>781.370708</ele>
        <time>2022-02-23T11:16:54.814Z</time>
      </trkpt>
      <trkpt lat="39.58863" lon="-1.27918">
        <ele>781.411092</ele>
        <time>2022-02-23T11:16:57.551Z</time>
      </trkpt>
      <trkpt lat="39.58826" lon="-1.27951">
        <ele>781.580372</ele>
        <time>2022-02-23T11:17:08.473Z</time>
      </trkpt>
      <trkpt lat="39.58801" lon="-1.27984">
        <ele>781.714384</ele>
        <time>2022-02-23T11:17:16.740Z</time>
      </trkpt>
      <trkpt lat="39.58741" lon="-1.28058">
        <ele>782.209683</ele>
        <time>2022-02-23T11:17:36.922Z</time>
      </trkpt>
      <trkpt lat="39.58721" lon="-1.28083">
        <ele>782.482154</ele>
        <time>2022-02-23T11:17:44.020Z</time>
      </trkpt>
      <trkpt lat="39.58462" lon="-1.28211">
        <ele>785.189085</ele>
        <time>2022-02-23T11:19:02.792Z</time>
      </trkpt>
      <trkpt lat="39.58386" lon="-1.28235">
        <ele>785.221905</ele>
        <time>2022-02-23T11:19:20.122Z</time>
      </trkpt>
      <trkpt lat="39.5837" lon="-1.2824">
        <ele>785.152354</ele>
        <time>2022-02-23T11:19:23.714Z</time>
      </trkpt>
      <trkpt lat="39.58341" lon="-1.28237">
        <ele>785.034578</ele>
        <time>2022-02-23T11:19:29.687Z</time>
      </trkpt>
      <trkpt lat="39.58274" lon="-1.28202">
        <ele>784.740899</ele>
        <time>2022-02-23T11:19:44.368Z</time>
      </trkpt>
      <trkpt lat="39.58203" lon="-1.28182">
        <ele>784.359472</ele>
        <time>2022-02-23T11:19:59.002Z</time>
      </trkpt>
      <trkpt lat="39.58186" lon="-1.28178">
        <ele>784.260536</ele>
        <time>2022-02-23T11:20:02.761Z</time>
      </trkpt>
      <trkpt lat="39.58126" lon="-1.2814">
        <ele>783.899229</ele>
        <time>2022-02-23T11:20:16.464Z</time>
      </trkpt>
      <trkpt lat="39.57993" lon="-1.28102">
        <ele>783.441507</ele>
        <time>2022-02-23T11:20:45.791Z</time>
      </trkpt>
      <trkpt lat="39.57926" lon="-1.28069">
        <ele>783.249011</ele>
        <time>2022-02-23T11:21:01.197Z</time>
      </trkpt>
      <trkpt lat="39.57797" lon="-1.2805">
        <ele>783.176335</ele>
        <time>2022-02-23T11:21:29.742Z</time>
      </trkpt>
      <trkpt lat="39.5776" lon="-1.28058">
        <ele>783.158179</ele>
        <time>2022-02-23T11:21:38.175Z</time>
      </trkpt>
      <trkpt lat="39.57686" lon="-1.28079">
        <ele>783.211775</ele>
        <time>2022-02-23T11:21:55.541Z</time>
      </trkpt>
      <trkpt lat="39.57654" lon="-1.28081">
        <ele>783.24583</ele>
        <time>2022-02-23T11:22:02.996Z</time>
      </trkpt>
      <trkpt lat="39.57529" lon="-1.28024">
        <ele>783.233477</ele>
        <time>2022-02-23T11:22:32.965Z</time>
      </trkpt>
      <trkpt lat="39.57318" lon="-1.27962">
        <ele>782.698706</ele>
        <time>2022-02-23T11:23:19.046Z</time>
      </trkpt>
      <trkpt lat="39.57128" lon="-1.2787">
        <ele>782.365605</ele>
        <time>2022-02-23T11:24:03.224Z</time>
      </trkpt>
      <trkpt lat="39.57062" lon="-1.27823">
        <ele>782.302051</ele>
        <time>2022-02-23T11:24:19.902Z</time>
      </trkpt>
      <trkpt lat="39.57001" lon="-1.27807">
        <ele>782.323044</ele>
        <time>2022-02-23T11:24:33.776Z</time>
      </trkpt>
      <trkpt lat="39.56947" lon="-1.27786">
        <ele>782.343788</ele>
        <time>2022-02-23T11:24:46.589Z</time>
      </trkpt>
      <trkpt lat="39.56883" lon="-1.27799">
        <ele>782.367354</ele>
        <time>2022-02-23T11:25:01.359Z</time>
      </trkpt>
      <trkpt lat="39.56778" lon="-1.2779">
        <ele>782.388787</ele>
        <time>2022-02-23T11:25:24.823Z</time>
      </trkpt>
      <trkpt lat="39.56713" lon="-1.27785">
        <ele>782.402228</ele>
        <time>2022-02-23T11:25:39.700Z</time>
      </trkpt>
      <trkpt lat="39.56602" lon="-1.27743">
        <ele>782.445846</ele>
        <time>2022-02-23T11:26:04.709Z</time>
      </trkpt>
      <trkpt lat="39.56498" lon="-1.27703">
        <ele>782.887887</ele>
        <time>2022-02-23T11:26:30.195Z</time>
      </trkpt>
      <trkpt lat="39.56472" lon="-1.27704">
        <ele>783.191885</ele>
        <time>2022-02-23T11:26:37.263Z</time>
      </trkpt>
      <trkpt lat="39.56438" lon="-1.27719">
        <ele>783.605643</ele>
        <time>2022-02-23T11:26:47.489Z</time>
      </trkpt>
      <trkpt lat="39.56294" lon="-1.27782">
        <ele>785.657613</ele>
        <time>2022-02-23T11:27:33.867Z</time>
      </trkpt>
      <trkpt lat="39.56242" lon="-1.27815">
        <ele>786.573803</ele>
        <time>2022-02-23T11:27:51.657Z</time>
      </trkpt>
      <trkpt lat="39.56222" lon="-1.27821">
        <ele>786.907544</ele>
        <time>2022-02-23T11:27:58.057Z</time>
      </trkpt>
      <trkpt lat="39.56182" lon="-1.27832">
        <ele>787.483778</ele>
        <time>2022-02-23T11:28:09.582Z</time>
      </trkpt>
      <trkpt lat="39.56167" lon="-1.27842">
        <ele>787.646172</ele>
        <time>2022-02-23T11:28:14.259Z</time>
      </trkpt>
      <trkpt lat="39.56156" lon="-1.27892">
        <ele>788.025176</ele>
        <time>2022-02-23T11:28:25.204Z</time>
      </trkpt>
      <trkpt lat="39.56149" lon="-1.27955">
        <ele>788.493192</ele>
        <time>2022-02-23T11:28:38.778Z</time>
      </trkpt>
      <trkpt lat="39.56144" lon="-1.28004">
        <ele>788.855432</ele>
        <time>2022-02-23T11:28:48.781Z</time>
      </trkpt>
      <trkpt lat="39.5614" lon="-1.28042">
        <ele>789.082896</ele>
        <time>2022-02-23T11:28:56.405Z</time>
      </trkpt>
      <trkpt lat="39.56139" lon="-1.2805">
        <ele>789.047425</ele>
        <time>2022-02-23T11:28:57.962Z</time>
      </trkpt>
      <trkpt lat="39.56136" lon="-1.28075">
        <ele>788.932117</ele>
        <time>2022-02-23T11:29:02.866Z</time>
      </trkpt>
      <trkpt lat="39.5613" lon="-1.28091">
        <ele>788.855088</ele>
        <time>2022-02-23T11:29:06.069Z</time>
      </trkpt>
      <trkpt lat="39.56093" lon="-1.28136">
        <ele>788.556926</ele>
        <time>2022-02-23T11:29:17.486Z</time>
      </trkpt>
      <trkpt lat="39.5607" lon="-1.28161">
        <ele>788.381303</ele>
        <time>2022-02-23T11:29:23.729Z</time>
      </trkpt>
      <trkpt lat="39.55999" lon="-1.28179">
        <ele>787.562112</ele>
        <time>2022-02-23T11:29:37.222Z</time>
      </trkpt>
      <trkpt lat="39.55979" lon="-1.28184">
        <ele>786.922607</ele>
        <time>2022-02-23T11:29:40.812Z</time>
      </trkpt>
      <trkpt lat="39.55929" lon="-1.28195">
        <ele>785.352771</ele>
        <time>2022-02-23T11:29:49.318Z</time>
      </trkpt>
      <trkpt lat="39.55907" lon="-1.28195">
        <ele>784.641079</ele>
        <time>2022-02-23T11:29:53.169Z</time>
      </trkpt>
      <trkpt lat="39.55873" lon="-1.28194">
        <ele>783.596875</ele>
        <time>2022-02-23T11:29:58.801Z</time>
      </trkpt>
      <trkpt lat="39.55849" lon="-1.28201">
        <ele>782.839905</ele>
        <time>2022-02-23T11:30:02.863Z</time>
      </trkpt>
      <trkpt lat="39.55831" lon="-1.28253">
        <ele>782.221874</ele>
        <time>2022-02-23T11:30:10.338Z</time>
      </trkpt>
      <trkpt lat="39.55824" lon="-1.28276">
        <ele>782.078418</ele>
        <time>2022-02-23T11:30:13.543Z</time>
      </trkpt>
      <trkpt lat="39.55811" lon="-1.28288">
        <ele>781.954604</ele>
        <time>2022-02-23T11:30:16.403Z</time>
      </trkpt>
      <trkpt lat="39.55784" lon="-1.28297">
        <ele>781.73998</ele>
        <time>2022-02-23T11:30:21.527Z</time>
      </trkpt>
      <trkpt lat="39.55701" lon="-1.28385">
        <ele>781.72612</ele>
        <time>2022-02-23T11:30:53.182Z</time>
      </trkpt>
      <trkpt lat="39.55696" lon="-1.28385">
        <ele>781.863169</ele>
        <time>2022-02-23T11:30:54.663Z</time>
      </trkpt>
      <trkpt lat="39.55695" lon="-1.28393">
        <ele>782.052801</ele>
        <time>2022-02-23T11:30:57.314Z</time>
      </trkpt>
      <trkpt lat="39.55684" lon="-1.28401">
        <ele>782.413063</ele>
        <time>2022-02-23T11:31:02.596Z</time>
      </trkpt>
      <trkpt lat="39.55677" lon="-1.28396">
        <ele>782.644083</ele>
        <time>2022-02-23T11:31:05.697Z</time>
      </trkpt>
      <trkpt lat="39.55676" lon="-1.28395">
        <ele>782.6894</ele>
        <time>2022-02-23T11:31:06.265Z</time>
      </trkpt>
      <trkpt lat="39.55659" lon="-1.28388">
        <ele>783.196688</ele>
        <time>2022-02-23T11:31:13.133Z</time>
      </trkpt>
      <trkpt lat="39.55613" lon="-1.28389">
        <ele>784.506724</ele>
        <time>2022-02-23T11:31:30.895Z</time>
      </trkpt>
      <trkpt lat="39.55582" lon="-1.28398">
        <ele>785.418854</ele>
        <time>2022-02-23T11:31:42.755Z</time>
      </trkpt>
      <trkpt lat="39.55546" lon="-1.28413">
        <ele>786.417619</ele>
        <time>2022-02-23T11:31:56.553Z</time>
      </trkpt>
      <trkpt lat="39.55524" lon="-1.28429">
        <ele>786.988296</ele>
        <time>2022-02-23T11:32:06.625Z</time>
      </trkpt>
      <trkpt lat="39.55507" lon="-1.28453">
        <ele>787.533737</ele>
        <time>2022-02-23T11:32:16.046Z</time>
      </trkpt>
      <trkpt lat="39.55452" lon="-1.28557">
        <ele>789.664793</ele>
        <time>2022-02-23T11:32:45.744Z</time>
      </trkpt>
      <trkpt lat="39.5544" lon="-1.28567">
        <ele>789.974199</ele>
        <time>2022-02-23T11:32:50.087Z</time>
      </trkpt>
      <trkpt lat="39.55388" lon="-1.28586">
        <ele>791.212242</ele>
        <time>2022-02-23T11:33:06.507Z</time>
      </trkpt>
      <trkpt lat="39.55299" lon="-1.28582">
        <ele>793.299763</ele>
        <time>2022-02-23T11:33:37.697Z</time>
      </trkpt>
      <trkpt lat="39.55193" lon="-1.28631">
        <ele>795.591394</ele>
        <time>2022-02-23T11:34:18.023Z</time>
      </trkpt>
      <trkpt lat="39.55156" lon="-1.28657">
        <ele>796.375893</ele>
        <time>2022-02-23T11:34:31.157Z</time>
      </trkpt>
      <trkpt lat="39.55132" lon="-1.28662">
        <ele>796.813881</ele>
        <time>2022-02-23T11:34:38.629Z</time>
      </trkpt>
      <trkpt lat="39.55129" lon="-1.28686">
        <ele>797.160494</ele>
        <time>2022-02-23T11:34:45.016Z</time>
      </trkpt>
      <trkpt lat="39.55106" lon="-1.28747">
        <ele>797.649923</ele>
        <time>2022-02-23T11:35:03.421Z</time>
      </trkpt>
      <trkpt lat="39.55039" lon="-1.29204">
        <ele>796.185688</ele>
        <time>2022-02-23T11:36:43.575Z</time>
      </trkpt>
      <trkpt lat="39.55003" lon="-1.2938">
        <ele>794.766152</ele>
        <time>2022-02-23T11:37:20.270Z</time>
      </trkpt>
      <trkpt lat="39.5499" lon="-1.29569">
        <ele>794.036775</ele>
        <time>2022-02-23T11:38:00.725Z</time>
      </trkpt>
      <trkpt lat="39.54971" lon="-1.29585">
        <ele>793.939369</ele>
        <time>2022-02-23T11:38:07.550Z</time>
      </trkpt>
      <trkpt lat="39.54938" lon="-1.2961">
        <ele>793.881143</ele>
        <time>2022-02-23T11:38:16.675Z</time>
      </trkpt>
      <trkpt lat="39.54919" lon="-1.29632">
        <ele>794.025642</ele>
        <time>2022-02-23T11:38:24.484Z</time>
      </trkpt>
      <trkpt lat="39.54875" lon="-1.29719">
        <ele>794.469308</ele>
        <time>2022-02-23T11:38:49.986Z</time>
      </trkpt>
      <trkpt lat="39.5484" lon="-1.29799">
        <ele>794.937288</ele>
        <time>2022-02-23T11:39:14.103Z</time>
      </trkpt>
      <trkpt lat="39.54803" lon="-1.2986">
        <ele>795.893034</ele>
        <time>2022-02-23T11:39:34.091Z</time>
      </trkpt>
      <trkpt lat="39.54719" lon="-1.29975">
        <ele>797.957716</ele>
        <time>2022-02-23T11:40:20.667Z</time>
      </trkpt>
      <trkpt lat="39.54467" lon="-1.30274">
        <ele>808.306603</ele>
        <time>2022-02-23T11:42:55.261Z</time>
      </trkpt>
      <trkpt lat="39.54413" lon="-1.30346">
        <ele>810.246299</ele>
        <time>2022-02-23T11:43:27.522Z</time>
      </trkpt>
      <trkpt lat="39.54374" lon="-1.30402">
        <ele>811.647271</ele>
        <time>2022-02-23T11:43:51.472Z</time>
      </trkpt>
      <trkpt lat="39.54287" lon="-1.30574">
        <ele>814.488866</ele>
        <time>2022-02-23T11:44:54.995Z</time>
      </trkpt>
      <trkpt lat="39.54241" lon="-1.3067">
        <ele>815.448333</ele>
        <time>2022-02-23T11:45:24.326Z</time>
      </trkpt>
      <trkpt lat="39.54222" lon="-1.30724">
        <ele>814.98763</ele>
        <time>2022-02-23T11:45:37.001Z</time>
      </trkpt>
      <trkpt lat="39.54212" lon="-1.30874">
        <ele>813.805507</ele>
        <time>2022-02-23T11:46:06.686Z</time>
      </trkpt>
      <trkpt lat="39.54211" lon="-1.3103">
        <ele>812.598897</ele>
        <time>2022-02-23T11:46:37.787Z</time>
      </trkpt>
      <trkpt lat="39.54197" lon="-1.31064">
        <ele>812.309154</ele>
        <time>2022-02-23T11:46:45.828Z</time>
      </trkpt>
      <trkpt lat="39.54201" lon="-1.31071">
        <ele>812.238037</ele>
        <time>2022-02-23T11:46:47.380Z</time>
      </trkpt>
      <trkpt lat="39.54199" lon="-1.31094">
        <ele>812.060395</ele>
        <time>2022-02-23T11:46:51.186Z</time>
      </trkpt>
      <trkpt lat="39.54181" lon="-1.31103">
        <ele>812.03635</ele>
        <time>2022-02-23T11:46:55.330Z</time>
      </trkpt>
      <trkpt lat="39.54169" lon="-1.31091">
        <ele>812.182518</ele>
        <time>2022-02-23T11:46:58.754Z</time>
      </trkpt>
      <trkpt lat="39.54141" lon="-1.31074">
        <ele>812.489632</ele>
        <time>2022-02-23T11:47:06.592Z</time>
      </trkpt>
      <trkpt lat="39.54115" lon="-1.3107">
        <ele>812.742462</ele>
        <time>2022-02-23T11:47:13.475Z</time>
      </trkpt>
      <trkpt lat="39.54073" lon="-1.31065">
        <ele>813.15596</ele>
        <time>2022-02-23T11:47:25.858Z</time>
      </trkpt>
      <trkpt lat="39.54033" lon="-1.3106">
        <ele>813.542071</ele>
        <time>2022-02-23T11:47:38.051Z</time>
      </trkpt>
      <trkpt lat="39.54009" lon="-1.31068">
        <ele>813.861574</ele>
        <time>2022-02-23T11:47:45.780Z</time>
      </trkpt>
      <trkpt lat="39.54004" lon="-1.31082">
        <ele>814.104009</ele>
        <time>2022-02-23T11:47:49.414Z</time>
      </trkpt>
      <trkpt lat="39.53993" lon="-1.31089">
        <ele>814.347485</ele>
        <time>2022-02-23T11:47:53.205Z</time>
      </trkpt>
      <trkpt lat="39.53985" lon="-1.31089">
        <ele>814.520724</ele>
        <time>2022-02-23T11:47:55.844Z</time>
      </trkpt>
      <trkpt lat="39.53973" lon="-1.31082">
        <ele>814.782984</ele>
        <time>2022-02-23T11:47:59.808Z</time>
      </trkpt>
      <trkpt lat="39.53969" lon="-1.31076">
        <ele>814.90119</ele>
        <time>2022-02-23T11:48:01.622Z</time>
      </trkpt>
      <trkpt lat="39.5395" lon="-1.3107">
        <ele>815.308791</ele>
        <time>2022-02-23T11:48:08.002Z</time>
      </trkpt>
      <trkpt lat="39.53878" lon="-1.31089">
        <ele>816.800826</ele>
        <time>2022-02-23T11:48:32.261Z</time>
      </trkpt>
      <trkpt lat="39.53856" lon="-1.31095">
        <ele>817.255906</ele>
        <time>2022-02-23T11:48:39.857Z</time>
      </trkpt>
      <trkpt lat="39.53376" lon="-1.31219">
        <ele>828.381853</ele>
        <time>2022-02-23T11:51:27.231Z</time>
      </trkpt>
      <trkpt lat="39.53343" lon="-1.31232">
        <ele>829.068183</ele>
        <time>2022-02-23T11:51:37.756Z</time>
      </trkpt>
      <trkpt lat="39.53184" lon="-1.31335">
        <ele>830.216241</ele>
        <time>2022-02-23T11:52:23.360Z</time>
      </trkpt>
      <trkpt lat="39.52847" lon="-1.3156">
        <ele>827.61045</ele>
        <time>2022-02-23T11:53:39.927Z</time>
      </trkpt>
      <trkpt lat="39.52827" lon="-1.31593">
        <ele>827.3959</ele>
        <time>2022-02-23T11:53:46.532Z</time>
      </trkpt>
      <trkpt lat="39.52698" lon="-1.31962">
        <ele>825.347879</ele>
        <time>2022-02-23T11:54:51.310Z</time>
      </trkpt>
      <trkpt lat="39.52675" lon="-1.32003">
        <ele>824.959112</ele>
        <time>2022-02-23T11:54:59.113Z</time>
      </trkpt>
      <trkpt lat="39.52617" lon="-1.32082">
        <ele>823.859504</ele>
        <time>2022-02-23T11:55:15.621Z</time>
      </trkpt>
      <trkpt lat="39.51948" lon="-1.32991">
        <ele>808.29185</ele>
        <time>2022-02-23T11:58:18.393Z</time>
      </trkpt>
      <trkpt lat="39.51728" lon="-1.33451">
        <ele>799.536193</ele>
        <time>2022-02-23T11:59:34.586Z</time>
      </trkpt>
      <trkpt lat="39.51707" lon="-1.33481">
        <ele>798.7657</ele>
        <time>2022-02-23T11:59:40.071Z</time>
      </trkpt>
      <trkpt lat="39.51683" lon="-1.33502">
        <ele>798.028734</ele>
        <time>2022-02-23T11:59:45.275Z</time>
      </trkpt>
      <trkpt lat="39.51537" lon="-1.33578">
        <ele>793.586241</ele>
        <time>2022-02-23T12:00:12.649Z</time>
      </trkpt>
      <trkpt lat="39.51512" lon="-1.33598">
        <ele>792.717654</ele>
        <time>2022-02-23T12:00:17.523Z</time>
      </trkpt>
      <trkpt lat="39.51499" lon="-1.33619">
        <ele>792.087604</ele>
        <time>2022-02-23T12:00:21.059Z</time>
      </trkpt>
      <trkpt lat="39.51489" lon="-1.33646">
        <ele>791.371485</ele>
        <time>2022-02-23T12:00:25.091Z</time>
      </trkpt>
      <trkpt lat="39.51465" lon="-1.33792">
        <ele>788.521771</ele>
        <time>2022-02-23T12:00:45.041Z</time>
      </trkpt>
      <trkpt lat="39.51453" lon="-1.33817">
        <ele>787.992326</ele>
        <time>2022-02-23T12:00:49.058Z</time>
      </trkpt>
      <trkpt lat="39.51431" lon="-1.33837">
        <ele>787.346924</ele>
        <time>2022-02-23T12:00:54.028Z</time>
      </trkpt>
      <trkpt lat="39.51326" lon="-1.33861">
        <ele>786.010321</ele>
        <time>2022-02-23T12:01:14.977Z</time>
      </trkpt>
      <trkpt lat="39.51292" lon="-1.33881">
        <ele>785.719445</ele>
        <time>2022-02-23T12:01:22.802Z</time>
      </trkpt>
      <trkpt lat="39.51242" lon="-1.33964">
        <ele>784.994139</ele>
        <time>2022-02-23T12:01:40.150Z</time>
      </trkpt>
      <trkpt lat="39.51193" lon="-1.34023">
        <ele>783.957837</ele>
        <time>2022-02-23T12:01:54.275Z</time>
      </trkpt>
      <trkpt lat="39.50579" lon="-1.34639">
        <ele>772.939497</ele>
        <time>2022-02-23T12:04:19.922Z</time>
      </trkpt>
      <trkpt lat="39.50556" lon="-1.34674">
        <ele>772.636206</ele>
        <time>2022-02-23T12:04:29.111Z</time>
      </trkpt>
      <trkpt lat="39.50528" lon="-1.3474">
        <ele>773.597826</ele>
        <time>2022-02-23T12:04:47.092Z</time>
      </trkpt>
      <trkpt lat="39.50488" lon="-1.34834">
        <ele>775.242617</ele>
        <time>2022-02-23T12:05:15.672Z</time>
      </trkpt>
      <trkpt lat="39.50485" lon="-1.34839">
        <ele>775.336531</ele>
        <time>2022-02-23T12:05:17.392Z</time>
      </trkpt>
      <trkpt lat="39.5047" lon="-1.34876">
        <ele>775.993247</ele>
        <time>2022-02-23T12:05:29.144Z</time>
      </trkpt>
      <trkpt lat="39.50455" lon="-1.3491">
        <ele>776.271287</ele>
        <time>2022-02-23T12:05:39.234Z</time>
      </trkpt>
      <trkpt lat="39.50436" lon="-1.34941">
        <ele>776.434297</ele>
        <time>2022-02-23T12:05:49.509Z</time>
      </trkpt>
      <trkpt lat="39.50359" lon="-1.35038">
        <ele>777.003256</ele>
        <time>2022-02-23T12:06:14.253Z</time>
      </trkpt>
      <trkpt lat="39.50337" lon="-1.35058">
        <ele>777.019437</ele>
        <time>2022-02-23T12:06:19.387Z</time>
      </trkpt>
      <trkpt lat="39.50189" lon="-1.3515">
        <ele>774.458685</ele>
        <time>2022-02-23T12:06:50.085Z</time>
      </trkpt>
      <trkpt lat="39.50011" lon="-1.35204">
        <ele>771.319214</ele>
        <time>2022-02-23T12:07:24.861Z</time>
      </trkpt>
      <trkpt lat="39.49977" lon="-1.35223">
        <ele>770.213738</ele>
        <time>2022-02-23T12:07:31.368Z</time>
      </trkpt>
      <trkpt lat="39.49963" lon="-1.35237">
        <ele>769.648381</ele>
        <time>2022-02-23T12:07:34.360Z</time>
      </trkpt>
      <trkpt lat="39.49867" lon="-1.35405">
        <ele>765.026259</ele>
        <time>2022-02-23T12:08:01.324Z</time>
      </trkpt>
      <trkpt lat="39.49851" lon="-1.35424">
        <ele>764.769253</ele>
        <time>2022-02-23T12:08:05.096Z</time>
      </trkpt>
      <trkpt lat="39.49824" lon="-1.35438">
        <ele>764.428312</ele>
        <time>2022-02-23T12:08:10.379Z</time>
      </trkpt>
      <trkpt lat="39.49779" lon="-1.35449">
        <ele>763.88739</ele>
        <time>2022-02-23T12:08:19.877Z</time>
      </trkpt>
      <trkpt lat="39.49654" lon="-1.3542">
        <ele>763.18092</ele>
        <time>2022-02-23T12:08:54.721Z</time>
      </trkpt>
      <trkpt lat="39.49626" lon="-1.35423">
        <ele>763.15194</ele>
        <time>2022-02-23T12:09:02.605Z</time>
      </trkpt>
      <trkpt lat="39.49614" lon="-1.35435">
        <ele>763.136131</ele>
        <time>2022-02-23T12:09:06.207Z</time>
      </trkpt>
      <trkpt lat="39.49511" lon="-1.35611">
        <ele>760.055461</ele>
        <time>2022-02-23T12:09:37.730Z</time>
      </trkpt>
      <trkpt lat="39.49494" lon="-1.35628">
        <ele>759.434774</ele>
        <time>2022-02-23T12:09:41.266Z</time>
      </trkpt>
      <trkpt lat="39.49371" lon="-1.3571">
        <ele>755.317557</ele>
        <time>2022-02-23T12:10:03.934Z</time>
      </trkpt>
      <trkpt lat="39.49346" lon="-1.35722">
        <ele>754.516093</ele>
        <time>2022-02-23T12:10:08.328Z</time>
      </trkpt>
      <trkpt lat="39.49325" lon="-1.35724">
        <ele>753.865656</ele>
        <time>2022-02-23T12:10:11.973Z</time>
      </trkpt>
      <trkpt lat="39.49034" lon="-1.35684">
        <ele>749.817905</ele>
        <time>2022-02-23T12:11:10.038Z</time>
      </trkpt>
      <trkpt lat="39.49018" lon="-1.35694">
        <ele>749.61894</ele>
        <time>2022-02-23T12:11:13.733Z</time>
      </trkpt>
      <trkpt lat="39.4898" lon="-1.35748">
        <ele>748.993717</ele>
        <time>2022-02-23T12:11:25.217Z</time>
      </trkpt>
      <trkpt lat="39.48961" lon="-1.35765">
        <ele>748.739601</ele>
        <time>2022-02-23T12:11:29.611Z</time>
      </trkpt>
      <trkpt lat="39.48925" lon="-1.35772">
        <ele>747.96847</ele>
        <time>2022-02-23T12:11:36.550Z</time>
      </trkpt>
      <trkpt lat="39.48887" lon="-1.3576">
        <ele>746.914872</ele>
        <time>2022-02-23T12:11:43.477Z</time>
      </trkpt>
      <trkpt lat="39.48872" lon="-1.35761">
        <ele>746.479735</ele>
        <time>2022-02-23T12:11:46.329Z</time>
      </trkpt>
      <trkpt lat="39.48695" lon="-1.35876">
        <ele>740.088838</ele>
        <time>2022-02-23T12:12:19.760Z</time>
      </trkpt>
      <trkpt lat="39.48678" lon="-1.35877">
        <ele>739.452803</ele>
        <time>2022-02-23T12:12:22.519Z</time>
      </trkpt>
      <trkpt lat="39.48655" lon="-1.35862">
        <ele>738.478849</ele>
        <time>2022-02-23T12:12:26.722Z</time>
      </trkpt>
      <trkpt lat="39.48634" lon="-1.35823">
        <ele>737.086419</ele>
        <time>2022-02-23T12:12:32.777Z</time>
      </trkpt>
      <trkpt lat="39.48613" lon="-1.35813">
        <ele>736.077519</ele>
        <time>2022-02-23T12:12:36.450Z</time>
      </trkpt>
      <trkpt lat="39.4859" lon="-1.35808">
        <ele>734.95401</ele>
        <time>2022-02-23T12:12:40.298Z</time>
      </trkpt>
      <trkpt lat="39.48571" lon="-1.35804">
        <ele>734.016481</ele>
        <time>2022-02-23T12:12:43.464Z</time>
      </trkpt>
      <trkpt lat="39.48552" lon="-1.358">
        <ele>733.083071</ele>
        <time>2022-02-23T12:12:46.645Z</time>
      </trkpt>
      <trkpt lat="39.48542" lon="-1.35797">
        <ele>732.608932</ele>
        <time>2022-02-23T12:12:48.234Z</time>
      </trkpt>
      <trkpt lat="39.4854" lon="-1.35827">
        <ele>731.518697</ele>
        <time>2022-02-23T12:12:51.876Z</time>
      </trkpt>
      <trkpt lat="39.48538" lon="-1.35844">
        <ele>730.868089</ele>
        <time>2022-02-23T12:12:54.021Z</time>
      </trkpt>
      <trkpt lat="39.48532" lon="-1.35913">
        <ele>728.284653</ele>
        <time>2022-02-23T12:13:02.341Z</time>
      </trkpt>
      <trkpt lat="39.48531" lon="-1.35932">
        <ele>727.609037</ele>
        <time>2022-02-23T12:13:04.574Z</time>
      </trkpt>
      <trkpt lat="39.48525" lon="-1.36001">
        <ele>725.135345</ele>
        <time>2022-02-23T12:13:12.825Z</time>
      </trkpt>
      <trkpt lat="39.48524" lon="-1.36016">
        <ele>724.591793</ele>
        <time>2022-02-23T12:13:14.653Z</time>
      </trkpt>
      <trkpt lat="39.48523" lon="-1.36026">
        <ele>724.252301</ele>
        <time>2022-02-23T12:13:15.815Z</time>
      </trkpt>
      <trkpt lat="39.4852" lon="-1.36074">
        <ele>722.524197</ele>
        <time>2022-02-23T12:13:21.778Z</time>
      </trkpt>
      <trkpt lat="39.48533" lon="-1.36196">
        <ele>720.027307</ele>
        <time>2022-02-23T12:13:38.265Z</time>
      </trkpt>
      <trkpt lat="39.48537" lon="-1.36228">
        <ele>720.119261</ele>
        <time>2022-02-23T12:13:43.215Z</time>
      </trkpt>
      <trkpt lat="39.48541" lon="-1.36255">
        <ele>720.19656</ele>
        <time>2022-02-23T12:13:47.809Z</time>
      </trkpt>
      <trkpt lat="39.4856" lon="-1.36392">
        <ele>721.01039</ele>
        <time>2022-02-23T12:14:22.346Z</time>
      </trkpt>
      <trkpt lat="39.48567" lon="-1.36413">
        <ele>721.698126</ele>
        <time>2022-02-23T12:14:29.826Z</time>
      </trkpt>
      <trkpt lat="39.48635" lon="-1.36511">
        <ele>725.717115</ele>
        <time>2022-02-23T12:15:15.467Z</time>
      </trkpt>
      <trkpt lat="39.4867" lon="-1.36586">
        <ele>728.421622</ele>
        <time>2022-02-23T12:15:44.208Z</time>
      </trkpt>
      <trkpt lat="39.48726" lon="-1.36661">
        <ele>731.661039</ele>
        <time>2022-02-23T12:16:18.955Z</time>
      </trkpt>
      <trkpt lat="39.48736" lon="-1.36695">
        <ele>732.786465</ele>
        <time>2022-02-23T12:16:31.135Z</time>
      </trkpt>
      <trkpt lat="39.48732" lon="-1.36753">
        <ele>734.575339</ele>
        <time>2022-02-23T12:16:49.655Z</time>
      </trkpt>
      <trkpt lat="39.48816" lon="-1.37123">
        <ele>744.169703</ele>
        <time>2022-02-23T12:18:48.040Z</time>
      </trkpt>
      <trkpt lat="39.48819" lon="-1.37161">
        <ele>744.941556</ele>
        <time>2022-02-23T12:18:57.372Z</time>
      </trkpt>
      <trkpt lat="39.48829" lon="-1.37185">
        <ele>745.50159</ele>
        <time>2022-02-23T12:19:03.884Z</time>
      </trkpt>
      <trkpt lat="39.48931" lon="-1.37328">
        <ele>747.731135</ele>
        <time>2022-02-23T12:19:43.020Z</time>
      </trkpt>
      <trkpt lat="39.48934" lon="-1.37342">
        <ele>747.887817</ele>
        <time>2022-02-23T12:19:46.091Z</time>
      </trkpt>
      <trkpt lat="39.48904" lon="-1.37428">
        <ele>749.74516</ele>
        <time>2022-02-23T12:20:10.399Z</time>
      </trkpt>
      <trkpt lat="39.48901" lon="-1.37451">
        <ele>750.4503</ele>
        <time>2022-02-23T12:20:17.821Z</time>
      </trkpt>
      <trkpt lat="39.48909" lon="-1.37514">
        <ele>752.33807</ele>
        <time>2022-02-23T12:20:39.389Z</time>
      </trkpt>
      <trkpt lat="39.48903" lon="-1.37712">
        <ele>757.417666</ele>
        <time>2022-02-23T12:21:49.449Z</time>
      </trkpt>
      <trkpt lat="39.48864" lon="-1.37976">
        <ele>760.510223</ele>
        <time>2022-02-23T12:22:49.674Z</time>
      </trkpt>
      <trkpt lat="39.48876" lon="-1.38084">
        <ele>760.521574</ele>
        <time>2022-02-23T12:23:06.148Z</time>
      </trkpt>
      <trkpt lat="39.48874" lon="-1.38101">
        <ele>760.288038</ele>
        <time>2022-02-23T12:23:08.628Z</time>
      </trkpt>
      <trkpt lat="39.48868" lon="-1.38111">
        <ele>760.107666</ele>
        <time>2022-02-23T12:23:10.509Z</time>
      </trkpt>
      <trkpt lat="39.48795" lon="-1.38121">
        <ele>758.806535</ele>
        <time>2022-02-23T12:23:23.893Z</time>
      </trkpt>
      <trkpt lat="39.48688" lon="-1.38279">
        <ele>756.458718</ele>
        <time>2022-02-23T12:23:53.830Z</time>
      </trkpt>
      <trkpt lat="39.48672" lon="-1.38293">
        <ele>756.233314</ele>
        <time>2022-02-23T12:23:57.719Z</time>
      </trkpt>
      <trkpt lat="39.48641" lon="-1.38297">
        <ele>755.886539</ele>
        <time>2022-02-23T12:24:03.828Z</time>
      </trkpt>
      <trkpt lat="39.48614" lon="-1.38311">
        <ele>755.55073</ele>
        <time>2022-02-23T12:24:10.020Z</time>
      </trkpt>
      <trkpt lat="39.48595" lon="-1.38314">
        <ele>755.402554</ele>
        <time>2022-02-23T12:24:14.270Z</time>
      </trkpt>
      <trkpt lat="39.48558" lon="-1.38309">
        <ele>755.557371</ele>
        <time>2022-02-23T12:24:23.003Z</time>
      </trkpt>
      <trkpt lat="39.48493" lon="-1.38334">
        <ele>755.838055</ele>
        <time>2022-02-23T12:24:40.410Z</time>
      </trkpt>
      <trkpt lat="39.48413" lon="-1.38392">
        <ele>756.208758</ele>
        <time>2022-02-23T12:25:03.428Z</time>
      </trkpt>
      <trkpt lat="39.48255" lon="-1.38548">
        <ele>756.356383</ele>
        <time>2022-02-23T12:25:51.557Z</time>
      </trkpt>
      <trkpt lat="39.48169" lon="-1.38623">
        <ele>755.160889</ele>
        <time>2022-02-23T12:26:11.670Z</time>
      </trkpt>
      <trkpt lat="39.48144" lon="-1.38635">
        <ele>754.85785</ele>
        <time>2022-02-23T12:26:16.372Z</time>
      </trkpt>
      <trkpt lat="39.48017" lon="-1.38652">
        <ele>752.456458</ele>
        <time>2022-02-23T12:26:39.097Z</time>
      </trkpt>
      <trkpt lat="39.47998" lon="-1.38666">
        <ele>752.028762</ele>
        <time>2022-02-23T12:26:43.076Z</time>
      </trkpt>
      <trkpt lat="39.47969" lon="-1.38703">
        <ele>751.29062</ele>
        <time>2022-02-23T12:26:50.850Z</time>
      </trkpt>
      <trkpt lat="39.47955" lon="-1.38713">
        <ele>751.534227</ele>
        <time>2022-02-23T12:26:54.482Z</time>
      </trkpt>
      <trkpt lat="39.47901" lon="-1.38709">
        <ele>752.326615</ele>
        <time>2022-02-23T12:27:07.325Z</time>
      </trkpt>
      <trkpt lat="39.47883" lon="-1.38723">
        <ele>752.630265</ele>
        <time>2022-02-23T12:27:13.960Z</time>
      </trkpt>
      <trkpt lat="39.47859" lon="-1.3876">
        <ele>753.178074</ele>
        <time>2022-02-23T12:27:26.758Z</time>
      </trkpt>
      <trkpt lat="39.47836" lon="-1.38779">
        <ele>753.581769</ele>
        <time>2022-02-23T12:27:37.185Z</time>
      </trkpt>
      <trkpt lat="39.4781" lon="-1.38786">
        <ele>754.006254</ele>
        <time>2022-02-23T12:27:47.058Z</time>
      </trkpt>
      <trkpt lat="39.47717" lon="-1.38787">
        <ele>756.350841</ele>
        <time>2022-02-23T12:28:22.294Z</time>
      </trkpt>
      <trkpt lat="39.47695" lon="-1.388">
        <ele>756.966113</ele>
        <time>2022-02-23T12:28:31.108Z</time>
      </trkpt>
      <trkpt lat="39.47692" lon="-1.38804">
        <ele>757.065917</ele>
        <time>2022-02-23T12:28:32.438Z</time>
      </trkpt>
      <trkpt lat="39.4767" lon="-1.38831">
        <ele>757.820252</ele>
        <time>2022-02-23T12:28:42.281Z</time>
      </trkpt>
      <trkpt lat="39.4761" lon="-1.38874">
        <ele>758.385741</ele>
        <time>2022-02-23T12:29:02.401Z</time>
      </trkpt>
      <trkpt lat="39.47571" lon="-1.38887">
        <ele>758.332483</ele>
        <time>2022-02-23T12:29:11.938Z</time>
      </trkpt>
      <trkpt lat="39.47516" lon="-1.38953">
        <ele>758.234146</ele>
        <time>2022-02-23T12:29:26.947Z</time>
      </trkpt>
      <trkpt lat="39.47334" lon="-1.3902">
        <ele>756.057464</ele>
        <time>2022-02-23T12:30:02.793Z</time>
      </trkpt>
      <trkpt lat="39.47291" lon="-1.39039">
        <ele>756.442494</ele>
        <time>2022-02-23T12:30:12.310Z</time>
      </trkpt>
      <trkpt lat="39.47236" lon="-1.39076">
        <ele>757.377514</ele>
        <time>2022-02-23T12:30:28.806Z</time>
      </trkpt>
      <trkpt lat="39.47224" lon="-1.3909">
        <ele>757.624189</ele>
        <time>2022-02-23T12:30:33.906Z</time>
      </trkpt>
      <trkpt lat="39.47216" lon="-1.39131">
        <ele>758.112708</ele>
        <time>2022-02-23T12:30:45.047Z</time>
      </trkpt>
      <trkpt lat="39.47208" lon="-1.39148">
        <ele>758.343536</ele>
        <time>2022-02-23T12:30:50.935Z</time>
      </trkpt>
      <trkpt lat="39.47152" lon="-1.39163">
        <ele>760.616996</ele>
        <time>2022-02-23T12:31:15.358Z</time>
      </trkpt>
      <trkpt lat="39.47139" lon="-1.39173">
        <ele>761.373164</ele>
        <time>2022-02-23T12:31:22.429Z</time>
      </trkpt>
      <trkpt lat="39.47131" lon="-1.39215">
        <ele>763.074784</ele>
        <time>2022-02-23T12:31:39.050Z</time>
      </trkpt>
      <trkpt lat="39.47101" lon="-1.39284">
        <ele>766.238438</ele>
        <time>2022-02-23T12:32:11.446Z</time>
      </trkpt>
      <trkpt lat="39.47029" lon="-1.39319">
        <ele>770.085047</ele>
        <time>2022-02-23T12:32:49.693Z</time>
      </trkpt>
      <trkpt lat="39.46968" lon="-1.39401">
        <ele>774.411851</ele>
        <time>2022-02-23T12:33:31.724Z</time>
      </trkpt>
      <trkpt lat="39.46951" lon="-1.39405">
        <ele>775.260422</ele>
        <time>2022-02-23T12:33:39.546Z</time>
      </trkpt>
      <trkpt lat="39.46891" lon="-1.39389">
        <ele>777.662042</ele>
        <time>2022-02-23T12:34:05.199Z</time>
      </trkpt>
      <trkpt lat="39.46876" lon="-1.39392">
        <ele>778.095267</ele>
        <time>2022-02-23T12:34:11.244Z</time>
      </trkpt>
      <trkpt lat="39.46854" lon="-1.3941">
        <ele>778.880271</ele>
        <time>2022-02-23T12:34:21.336Z</time>
      </trkpt>
      <trkpt lat="39.46839" lon="-1.39408">
        <ele>779.308068</ele>
        <time>2022-02-23T12:34:26.792Z</time>
      </trkpt>
      <trkpt lat="39.4677" lon="-1.39277">
        <ele>782.536949</ele>
        <time>2022-02-23T12:35:08.481Z</time>
      </trkpt>
      <trkpt lat="39.46757" lon="-1.39268">
        <ele>782.771216</ele>
        <time>2022-02-23T12:35:12.680Z</time>
      </trkpt>
      <trkpt lat="39.46719" lon="-1.39269">
        <ele>783.405415</ele>
        <time>2022-02-23T12:35:23.929Z</time>
      </trkpt>
      <trkpt lat="39.46671" lon="-1.39295">
        <ele>784.287357</ele>
        <time>2022-02-23T12:35:39.127Z</time>
      </trkpt>
      <trkpt lat="39.46639" lon="-1.39293">
        <ele>784.812367</ele>
        <time>2022-02-23T12:35:48.300Z</time>
      </trkpt>
      <trkpt lat="39.4655" lon="-1.39344">
        <ele>786.773752</ele>
        <time>2022-02-23T12:36:18.877Z</time>
      </trkpt>
      <trkpt lat="39.46514" lon="-1.39339">
        <ele>787.510027</ele>
        <time>2022-02-23T12:36:30.791Z</time>
      </trkpt>
      <trkpt lat="39.46488" lon="-1.39342">
        <ele>788.039271</ele>
        <time>2022-02-23T12:36:39.611Z</time>
      </trkpt>
      <trkpt lat="39.46416" lon="-1.39304">
        <ele>789.413472</ele>
        <time>2022-02-23T12:37:06.970Z</time>
      </trkpt>
      <trkpt lat="39.46331" lon="-1.39298">
        <ele>790.723055</ele>
        <time>2022-02-23T12:37:32.814Z</time>
      </trkpt>
      <trkpt lat="39.4631" lon="-1.39302">
        <ele>791.047119</ele>
        <time>2022-02-23T12:37:38.822Z</time>
      </trkpt>
      <trkpt lat="39.4625" lon="-1.39239">
        <ele>791.162264</ele>
        <time>2022-02-23T12:37:58.038Z</time>
      </trkpt>
      <trkpt lat="39.46221" lon="-1.39216">
        <ele>790.932899</ele>
        <time>2022-02-23T12:38:05.857Z</time>
      </trkpt>
      <trkpt lat="39.46189" lon="-1.39198">
        <ele>790.700269</ele>
        <time>2022-02-23T12:38:13.379Z</time>
      </trkpt>
      <trkpt lat="39.46154" lon="-1.39199">
        <ele>790.46955</ele>
        <time>2022-02-23T12:38:20.100Z</time>
      </trkpt>
      <trkpt lat="39.4613" lon="-1.39203">
        <ele>790.30976</ele>
        <time>2022-02-23T12:38:24.784Z</time>
      </trkpt>
      <trkpt lat="39.46087" lon="-1.39197">
        <ele>789.154468</ele>
        <time>2022-02-23T12:38:33.070Z</time>
      </trkpt>
      <trkpt lat="39.46057" lon="-1.39202">
        <ele>788.285543</ele>
        <time>2022-02-23T12:38:38.943Z</time>
      </trkpt>
      <trkpt lat="39.46034" lon="-1.39199">
        <ele>787.642077</ele>
        <time>2022-02-23T12:38:43.100Z</time>
      </trkpt>
      <trkpt lat="39.46009" lon="-1.39191">
        <ele>786.932002</ele>
        <time>2022-02-23T12:38:47.720Z</time>
      </trkpt>
      <trkpt lat="39.45999" lon="-1.3918">
        <ele>786.564707</ele>
        <time>2022-02-23T12:38:49.997Z</time>
      </trkpt>
      <trkpt lat="39.45983" lon="-1.39175">
        <ele>786.085478</ele>
        <time>2022-02-23T12:38:53.020Z</time>
      </trkpt>
      <trkpt lat="39.45968" lon="-1.39174">
        <ele>785.656848</ele>
        <time>2022-02-23T12:38:55.624Z</time>
      </trkpt>
      <trkpt lat="39.4596" lon="-1.39153">
        <ele>785.134469</ele>
        <time>2022-02-23T12:38:58.843Z</time>
      </trkpt>
      <trkpt lat="39.45951" lon="-1.39161">
        <ele>784.819295</ele>
        <time>2022-02-23T12:39:00.627Z</time>
      </trkpt>
      <trkpt lat="39.4593" lon="-1.39177">
        <ele>784.068036</ele>
        <time>2022-02-23T12:39:04.908Z</time>
      </trkpt>
      <trkpt lat="39.45919" lon="-1.39192">
        <ele>783.566263</ele>
        <time>2022-02-23T12:39:07.760Z</time>
      </trkpt>
      <trkpt lat="39.45915" lon="-1.39219">
        <ele>782.929612</ele>
        <time>2022-02-23T12:39:11.460Z</time>
      </trkpt>
      <trkpt lat="39.45914" lon="-1.39234">
        <ele>782.585976</ele>
        <time>2022-02-23T12:39:13.518Z</time>
      </trkpt>
      <trkpt lat="39.45908" lon="-1.39253">
        <ele>782.091813</ele>
        <time>2022-02-23T12:39:16.387Z</time>
      </trkpt>
      <trkpt lat="39.45862" lon="-1.39335">
        <ele>779.743268</ele>
        <time>2022-02-23T12:39:30.909Z</time>
      </trkpt>
      <trkpt lat="39.45812" lon="-1.39404">
        <ele>779.5664</ele>
        <time>2022-02-23T12:39:45.309Z</time>
      </trkpt>
      <trkpt lat="39.45794" lon="-1.39489">
        <ele>779.402308</ele>
        <time>2022-02-23T12:40:01.817Z</time>
      </trkpt>
      <trkpt lat="39.45802" lon="-1.39636">
        <ele>781.523634</ele>
        <time>2022-02-23T12:40:39.520Z</time>
      </trkpt>
      <trkpt lat="39.45792" lon="-1.39659">
        <ele>782.118532</ele>
        <time>2022-02-23T12:40:47.510Z</time>
      </trkpt>
      <trkpt lat="39.45749" lon="-1.39713">
        <ele>783.856812</ele>
        <time>2022-02-23T12:41:11.412Z</time>
      </trkpt>
      <trkpt lat="39.45714" lon="-1.39793">
        <ele>787.044695</ele>
        <time>2022-02-23T12:41:43.115Z</time>
      </trkpt>
      <trkpt lat="39.45705" lon="-1.39866">
        <ele>790.082854</ele>
        <time>2022-02-23T12:42:10.847Z</time>
      </trkpt>
      <trkpt lat="39.45703" lon="-1.40032">
        <ele>797.989782</ele>
        <time>2022-02-23T12:43:20.340Z</time>
      </trkpt>
      <trkpt lat="39.45713" lon="-1.40078">
        <ele>800.744809</ele>
        <time>2022-02-23T12:43:41.739Z</time>
      </trkpt>
      <trkpt lat="39.45782" lon="-1.40217">
        <ele>810.730129</ele>
        <time>2022-02-23T12:45:04.929Z</time>
      </trkpt>
      <trkpt lat="39.45783" lon="-1.40253">
        <ele>813.11348</ele>
        <time>2022-02-23T12:45:24.202Z</time>
      </trkpt>
      <trkpt lat="39.45705" lon="-1.4049">
        <ele>828.934166</ele>
        <time>2022-02-23T12:47:36.106Z</time>
      </trkpt>
      <trkpt lat="39.45688" lon="-1.40514">
        <ele>830.687063</ele>
        <time>2022-02-23T12:47:50.521Z</time>
      </trkpt>
      <trkpt lat="39.45625" lon="-1.40554">
        <ele>835.638335</ele>
        <time>2022-02-23T12:48:26.393Z</time>
      </trkpt>
      <trkpt lat="39.45611" lon="-1.4057">
        <ele>836.483319</ele>
        <time>2022-02-23T12:48:34.731Z</time>
      </trkpt>
      <trkpt lat="39.45595" lon="-1.40587">
        <ele>837.437516</ele>
        <time>2022-02-23T12:48:44.073Z</time>
      </trkpt>
      <trkpt lat="39.45557" lon="-1.40693">
        <ele>841.628481</ele>
        <time>2022-02-23T12:49:24.772Z</time>
      </trkpt>
      <trkpt lat="39.45524" lon="-1.40727">
        <ele>843.569295</ele>
        <time>2022-02-23T12:49:45.896Z</time>
      </trkpt>
      <trkpt lat="39.45447" lon="-1.4086">
        <ele>846.793243</ele>
        <time>2022-02-23T12:50:36.311Z</time>
      </trkpt>
      <trkpt lat="39.45441" lon="-1.40897">
        <ele>847.481165</ele>
        <time>2022-02-23T12:50:44.614Z</time>
      </trkpt>
      <trkpt lat="39.45453" lon="-1.40926">
        <ele>848.086067</ele>
        <time>2022-02-23T12:50:51.466Z</time>
      </trkpt>
      <trkpt lat="39.45474" lon="-1.4096">
        <ele>847.338984</ele>
        <time>2022-02-23T12:50:58.705Z</time>
      </trkpt>
      <trkpt lat="39.45488" lon="-1.40999">
        <ele>846.287306</ele>
        <time>2022-02-23T12:51:05.259Z</time>
      </trkpt>
      <trkpt lat="39.4548" lon="-1.4109">
        <ele>844.060521</ele>
        <time>2022-02-23T12:51:17.559Z</time>
      </trkpt>
      <trkpt lat="39.4547" lon="-1.41096">
        <ele>843.736975</ele>
        <time>2022-02-23T12:51:19.282Z</time>
      </trkpt>
      <trkpt lat="39.45453" lon="-1.41068">
        <ele>842.860059</ele>
        <time>2022-02-23T12:51:23.716Z</time>
      </trkpt>
      <trkpt lat="39.45439" lon="-1.4106">
        <ele>842.204779</ele>
        <time>2022-02-23T12:51:26.267Z</time>
      </trkpt>
      <trkpt lat="39.45414" lon="-1.41082">
        <ele>840.345008</ele>
        <time>2022-02-23T12:51:31.173Z</time>
      </trkpt>
      <trkpt lat="39.45387" lon="-1.41096">
        <ele>838.485387</ele>
        <time>2022-02-23T12:51:36.010Z</time>
      </trkpt>
      <trkpt lat="39.45387" lon="-1.41115">
        <ele>837.551909</ele>
        <time>2022-02-23T12:51:38.408Z</time>
      </trkpt>
      <trkpt lat="39.45399" lon="-1.41136">
        <ele>836.314704</ele>
        <time>2022-02-23T12:51:41.616Z</time>
      </trkpt>
      <trkpt lat="39.45399" lon="-1.41158">
        <ele>835.260617</ele>
        <time>2022-02-23T12:51:44.304Z</time>
      </trkpt>
      <trkpt lat="39.45376" lon="-1.41213">
        <ele>832.255505</ele>
        <time>2022-02-23T12:51:51.913Z</time>
      </trkpt>
      <trkpt lat="39.45346" lon="-1.41269">
        <ele>828.652798</ele>
        <time>2022-02-23T12:52:00.111Z</time>
      </trkpt>
      <trkpt lat="39.45349" lon="-1.41291">
        <ele>827.452966</ele>
        <time>2022-02-23T12:52:02.720Z</time>
      </trkpt>
      <trkpt lat="39.45358" lon="-1.41308">
        <ele>826.322749</ele>
        <time>2022-02-23T12:52:05.197Z</time>
      </trkpt>
      <trkpt lat="39.45358" lon="-1.41321">
        <ele>825.580516</ele>
        <time>2022-02-23T12:52:06.818Z</time>
      </trkpt>
      <trkpt lat="39.45287" lon="-1.41569">
        <ele>813.059872</ele>
        <time>2022-02-23T12:52:39.156Z</time>
      </trkpt>
      <trkpt lat="39.45289" lon="-1.41598">
        <ele>811.865234</ele>
        <time>2022-02-23T12:52:43.008Z</time>
      </trkpt>
      <trkpt lat="39.45324" lon="-1.41626">
        <ele>809.698489</ele>
        <time>2022-02-23T12:52:50.137Z</time>
      </trkpt>
      <trkpt lat="39.45328" lon="-1.41641">
        <ele>809.088788</ele>
        <time>2022-02-23T12:52:52.197Z</time>
      </trkpt>
      <trkpt lat="39.45323" lon="-1.4166">
        <ele>808.959502</ele>
        <time>2022-02-23T12:52:55.158Z</time>
      </trkpt>
      <trkpt lat="39.45297" lon="-1.41683">
        <ele>808.707014</ele>
        <time>2022-02-23T12:53:01.211Z</time>
      </trkpt>
      <trkpt lat="39.45294" lon="-1.41694">
        <ele>808.631617</ele>
        <time>2022-02-23T12:53:03.129Z</time>
      </trkpt>
      <trkpt lat="39.45307" lon="-1.41788">
        <ele>808.034931</ele>
        <time>2022-02-23T12:53:20.163Z</time>
      </trkpt>
      <trkpt lat="39.45306" lon="-1.41801">
        <ele>807.954812</ele>
        <time>2022-02-23T12:53:22.493Z</time>
      </trkpt>
      <trkpt lat="39.45291" lon="-1.41831">
        <ele>807.732199</ele>
        <time>2022-02-23T12:53:29.534Z</time>
      </trkpt>
      <trkpt lat="39.45284" lon="-1.41863">
        <ele>807.524225</ele>
        <time>2022-02-23T12:53:36.114Z</time>
      </trkpt>
      <trkpt lat="39.45285" lon="-1.41926">
        <ele>807.139774</ele>
        <time>2022-02-23T12:53:47.745Z</time>
      </trkpt>
      <trkpt lat="39.45278" lon="-1.41967">
        <ele>806.884862</ele>
        <time>2022-02-23T12:53:55.009Z</time>
      </trkpt>
      <trkpt lat="39.45281" lon="-1.41979">
        <ele>806.808841</ele>
        <time>2022-02-23T12:53:57.118Z</time>
      </trkpt>
      <trkpt lat="39.45309" lon="-1.42007">
        <ele>806.532283</ele>
        <time>2022-02-23T12:54:04.241Z</time>
      </trkpt>
      <trkpt lat="39.45311" lon="-1.42019">
        <ele>806.458011</ele>
        <time>2022-02-23T12:54:06.092Z</time>
      </trkpt>
      <trkpt lat="39.45243" lon="-1.42142">
        <ele>803.391178</ele>
        <time>2022-02-23T12:54:27.882Z</time>
      </trkpt>
      <trkpt lat="39.45235" lon="-1.4217">
        <ele>802.636686</ele>
        <time>2022-02-23T12:54:31.814Z</time>
      </trkpt>
      <trkpt lat="39.45246" lon="-1.42182">
        <ele>802.173254</ele>
        <time>2022-02-23T12:54:34.315Z</time>
      </trkpt>
      <trkpt lat="39.45275" lon="-1.42173">
        <ele>801.172169</ele>
        <time>2022-02-23T12:54:39.519Z</time>
      </trkpt>
      <trkpt lat="39.4529" lon="-1.42178">
        <ele>800.663128</ele>
        <time>2022-02-23T12:54:42.206Z</time>
      </trkpt>
      <trkpt lat="39.45291" lon="-1.4222">
        <ele>799.349136</ele>
        <time>2022-02-23T12:54:47.812Z</time>
      </trkpt>
      <trkpt lat="39.45296" lon="-1.42231">
        <ele>798.88746</ele>
        <time>2022-02-23T12:54:49.581Z</time>
      </trkpt>
      <trkpt lat="39.45321" lon="-1.42251">
        <ele>797.633462</ele>
        <time>2022-02-23T12:54:54.556Z</time>
      </trkpt>
      <trkpt lat="39.45322" lon="-1.42263">
        <ele>797.219413</ele>
        <time>2022-02-23T12:54:56.098Z</time>
      </trkpt>
      <trkpt lat="39.45282" lon="-1.42302">
        <ele>795.038338</ele>
        <time>2022-02-23T12:55:04.839Z</time>
      </trkpt>
      <trkpt lat="39.45255" lon="-1.42322">
        <ele>793.657899</ele>
        <time>2022-02-23T12:55:09.981Z</time>
      </trkpt>
      <trkpt lat="39.45214" lon="-1.42316">
        <ele>791.945879</ele>
        <time>2022-02-23T12:55:16.538Z</time>
      </trkpt>
      <trkpt lat="39.4517" lon="-1.42345">
        <ele>790.153132</ele>
        <time>2022-02-23T12:55:25.340Z</time>
      </trkpt>
      <trkpt lat="39.45149" lon="-1.42352">
        <ele>789.369414</ele>
        <time>2022-02-23T12:55:28.753Z</time>
      </trkpt>
      <trkpt lat="39.4512" lon="-1.42348">
        <ele>788.312329</ele>
        <time>2022-02-23T12:55:35.389Z</time>
      </trkpt>
      <trkpt lat="39.45114" lon="-1.42352">
        <ele>788.069921</ele>
        <time>2022-02-23T12:55:36.309Z</time>
      </trkpt>
      <trkpt lat="39.4511" lon="-1.42365">
        <ele>787.676431</ele>
        <time>2022-02-23T12:55:39.696Z</time>
      </trkpt>
      <trkpt lat="39.45115" lon="-1.42386">
        <ele>787.063566</ele>
        <time>2022-02-23T12:55:43.337Z</time>
      </trkpt>
      <trkpt lat="39.45146" lon="-1.4241">
        <ele>785.760128</ele>
        <time>2022-02-23T12:55:49.740Z</time>
      </trkpt>
      <trkpt lat="39.45191" lon="-1.42462">
        <ele>783.942274</ele>
        <time>2022-02-23T12:56:00.626Z</time>
      </trkpt>
      <trkpt lat="39.45207" lon="-1.42465">
        <ele>783.467179</ele>
        <time>2022-02-23T12:56:03.452Z</time>
      </trkpt>
      <trkpt lat="39.45228" lon="-1.42455">
        <ele>782.78077</ele>
        <time>2022-02-23T12:56:07.968Z</time>
      </trkpt>
      <trkpt lat="39.45246" lon="-1.42454">
        <ele>782.261629</ele>
        <time>2022-02-23T12:56:11.764Z</time>
      </trkpt>
      <trkpt lat="39.45253" lon="-1.42464">
        <ele>781.94682</ele>
        <time>2022-02-23T12:56:13.776Z</time>
      </trkpt>
      <trkpt lat="39.45261" lon="-1.42502">
        <ele>781.047005</ele>
        <time>2022-02-23T12:56:19.295Z</time>
      </trkpt>
      <trkpt lat="39.4527" lon="-1.42522">
        <ele>780.500955</ele>
        <time>2022-02-23T12:56:22.329Z</time>
      </trkpt>
      <trkpt lat="39.45317" lon="-1.42525">
        <ele>777.565588</ele>
        <time>2022-02-23T12:56:30.122Z</time>
      </trkpt>
      <trkpt lat="39.45325" lon="-1.42535">
        <ele>776.831704</ele>
        <time>2022-02-23T12:56:31.951Z</time>
      </trkpt>
      <trkpt lat="39.45337" lon="-1.42563">
        <ele>775.233182</ele>
        <time>2022-02-23T12:56:35.992Z</time>
      </trkpt>
      <trkpt lat="39.45365" lon="-1.42595">
        <ele>772.827439</ele>
        <time>2022-02-23T12:56:41.944Z</time>
      </trkpt>
      <trkpt lat="39.45386" lon="-1.4262">
        <ele>771.041398</ele>
        <time>2022-02-23T12:56:46.290Z</time>
      </trkpt>
      <trkpt lat="39.454" lon="-1.42651">
        <ele>769.251086</ele>
        <time>2022-02-23T12:56:50.640Z</time>
      </trkpt>
      <trkpt lat="39.45426" lon="-1.42796">
        <ele>760.182989</ele>
        <time>2022-02-23T12:57:08.065Z</time>
      </trkpt>
      <trkpt lat="39.45427" lon="-1.42887">
        <ele>754.612886</ele>
        <time>2022-02-23T12:57:19.067Z</time>
      </trkpt>
      <trkpt lat="39.45419" lon="-1.42922">
        <ele>752.494958</ele>
        <time>2022-02-23T12:57:23.548Z</time>
      </trkpt>
      <trkpt lat="39.45407" lon="-1.42944">
        <ele>750.993233</ele>
        <time>2022-02-23T12:57:26.718Z</time>
      </trkpt>
      <trkpt lat="39.45345" lon="-1.4302">
        <ele>744.680313</ele>
        <time>2022-02-23T12:57:39.995Z</time>
      </trkpt>
      <trkpt lat="39.45276" lon="-1.43067">
        <ele>738.674756</ele>
        <time>2022-02-23T12:57:52.123Z</time>
      </trkpt>
      <trkpt lat="39.45105" lon="-1.4312">
        <ele>724.659855</ele>
        <time>2022-02-23T12:58:19.199Z</time>
      </trkpt>
      <trkpt lat="39.45032" lon="-1.43187">
        <ele>717.725281</ele>
        <time>2022-02-23T12:58:32.879Z</time>
      </trkpt>
      <trkpt lat="39.44968" lon="-1.43223">
        <ele>712.603715</ele>
        <time>2022-02-23T12:58:43.768Z</time>
      </trkpt>
      <trkpt lat="39.4496" lon="-1.43236">
        <ele>712.041363</ele>
        <time>2022-02-23T12:58:45.960Z</time>
      </trkpt>
      <trkpt lat="39.44954" lon="-1.4327">
        <ele>710.890155</ele>
        <time>2022-02-23T12:58:50.209Z</time>
      </trkpt>
      <trkpt lat="39.44947" lon="-1.43281">
        <ele>710.40962</ele>
        <time>2022-02-23T12:58:52.147Z</time>
      </trkpt>
      <trkpt lat="39.44905" lon="-1.43311">
        <ele>708.342881</ele>
        <time>2022-02-23T12:59:00.218Z</time>
      </trkpt>
      <trkpt lat="39.44835" lon="-1.43388">
        <ele>705.048653</ele>
        <time>2022-02-23T12:59:16.780Z</time>
      </trkpt>
      <trkpt lat="39.4483" lon="-1.4341">
        <ele>704.905062</ele>
        <time>2022-02-23T12:59:20.768Z</time>
      </trkpt>
      <trkpt lat="39.44831" lon="-1.43429">
        <ele>704.788125</ele>
        <time>2022-02-23T12:59:24.374Z</time>
      </trkpt>
      <trkpt lat="39.44845" lon="-1.43489">
        <ele>704.391614</ele>
        <time>2022-02-23T12:59:36.867Z</time>
      </trkpt>
      <trkpt lat="39.44867" lon="-1.43545">
        <ele>704.001752</ele>
        <time>2022-02-23T12:59:48.109Z</time>
      </trkpt>
      <trkpt lat="39.44907" lon="-1.43624">
        <ele>702.209953</ele>
        <time>2022-02-23T13:00:02.920Z</time>
      </trkpt>
      <trkpt lat="39.4494" lon="-1.43712">
        <ele>699.392852</ele>
        <time>2022-02-23T13:00:16.263Z</time>
      </trkpt>
      <trkpt lat="39.44949" lon="-1.43818">
        <ele>695.816918</ele>
        <time>2022-02-23T13:00:29.650Z</time>
      </trkpt>
      <trkpt lat="39.44943" lon="-1.43928">
        <ele>690.335251</ele>
        <time>2022-02-23T13:00:43.197Z</time>
      </trkpt>
      <trkpt lat="39.44951" lon="-1.44013">
        <ele>686.152231</ele>
        <time>2022-02-23T13:00:53.622Z</time>
      </trkpt>
      <trkpt lat="39.44941" lon="-1.44041">
        <ele>684.659816</ele>
        <time>2022-02-23T13:00:57.400Z</time>
      </trkpt>
      <trkpt lat="39.44919" lon="-1.44071">
        <ele>682.61112</ele>
        <time>2022-02-23T13:01:02.710Z</time>
      </trkpt>
      <trkpt lat="39.44881" lon="-1.44083">
        <ele>680.210245</ele>
        <time>2022-02-23T13:01:09.025Z</time>
      </trkpt>
      <trkpt lat="39.44867" lon="-1.44099">
        <ele>679.03913</ele>
        <time>2022-02-23T13:01:12.127Z</time>
      </trkpt>
      <trkpt lat="39.4485" lon="-1.44154">
        <ele>676.194638</ele>
        <time>2022-02-23T13:01:19.600Z</time>
      </trkpt>
      <trkpt lat="39.44853" lon="-1.44224">
        <ele>672.468824</ele>
        <time>2022-02-23T13:01:27.918Z</time>
      </trkpt>
      <trkpt lat="39.44848" lon="-1.44238">
        <ele>671.57956</ele>
        <time>2022-02-23T13:01:29.711Z</time>
      </trkpt>
      <trkpt lat="39.44802" lon="-1.44295">
        <ele>666.72034</ele>
        <time>2022-02-23T13:01:39.576Z</time>
      </trkpt>
      <trkpt lat="39.44784" lon="-1.44305">
        <ele>665.226489</ele>
        <time>2022-02-23T13:01:42.707Z</time>
      </trkpt>
      <trkpt lat="39.44762" lon="-1.44302">
        <ele>663.502796</ele>
        <time>2022-02-23T13:01:46.163Z</time>
      </trkpt>
      <trkpt lat="39.44744" lon="-1.4431">
        <ele>662.100872</ele>
        <time>2022-02-23T13:01:49.041Z</time>
      </trkpt>
      <trkpt lat="39.44718" lon="-1.44342">
        <ele>659.726171</ele>
        <time>2022-02-23T13:01:54.518Z</time>
      </trkpt>
      <trkpt lat="39.44682" lon="-1.44431">
        <ele>655.385773</ele>
        <time>2022-02-23T13:02:06.771Z</time>
      </trkpt>
      <trkpt lat="39.44653" lon="-1.44456">
        <ele>653.453342</ele>
        <time>2022-02-23T13:02:12.531Z</time>
      </trkpt>
      <trkpt lat="39.44614" lon="-1.44476">
        <ele>651.143055</ele>
        <time>2022-02-23T13:02:20.195Z</time>
      </trkpt>
      <trkpt lat="39.44589" lon="-1.44496">
        <ele>650.169725</ele>
        <time>2022-02-23T13:02:25.660Z</time>
      </trkpt>
      <trkpt lat="39.44562" lon="-1.44554">
        <ele>649.033584</ele>
        <time>2022-02-23T13:02:35.222Z</time>
      </trkpt>
      <trkpt lat="39.44401" lon="-1.44631">
        <ele>646.32609</ele>
        <time>2022-02-23T13:03:09.038Z</time>
      </trkpt>
      <trkpt lat="39.44393" lon="-1.44642">
        <ele>646.250083</ele>
        <time>2022-02-23T13:03:11.622Z</time>
      </trkpt>
      <trkpt lat="39.44369" lon="-1.44708">
        <ele>645.899169</ele>
        <time>2022-02-23T13:03:24.027Z</time>
      </trkpt>
      <trkpt lat="39.44342" lon="-1.44745">
        <ele>645.65271</ele>
        <time>2022-02-23T13:03:33.384Z</time>
      </trkpt>
      <trkpt lat="39.44292" lon="-1.44741">
        <ele>645.832737</ele>
        <time>2022-02-23T13:03:46.531Z</time>
      </trkpt>
      <trkpt lat="39.44233" lon="-1.44768">
        <ele>646.17309</ele>
        <time>2022-02-23T13:04:03.693Z</time>
      </trkpt>
      <trkpt lat="39.44224" lon="-1.44767">
        <ele>646.22278</ele>
        <time>2022-02-23T13:04:06.217Z</time>
      </trkpt>
      <trkpt lat="39.44205" lon="-1.44741">
        <ele>646.370874</ele>
        <time>2022-02-23T13:04:13.514Z</time>
      </trkpt>
      <trkpt lat="39.44195" lon="-1.44741">
        <ele>646.427406</ele>
        <time>2022-02-23T13:04:16.222Z</time>
      </trkpt>
      <trkpt lat="39.44132" lon="-1.44784">
        <ele>646.144564</ele>
        <time>2022-02-23T13:04:33.338Z</time>
      </trkpt>
      <trkpt lat="39.44088" lon="-1.44821">
        <ele>645.590782</ele>
        <time>2022-02-23T13:04:44.576Z</time>
      </trkpt>
      <trkpt lat="39.44053" lon="-1.44839">
        <ele>645.199173</ele>
        <time>2022-02-23T13:04:52.063Z</time>
      </trkpt>
      <trkpt lat="39.44014" lon="-1.44849">
        <ele>644.778812</ele>
        <time>2022-02-23T13:04:59.797Z</time>
      </trkpt>
      <trkpt lat="39.43988" lon="-1.44892">
        <ele>643.62226</ele>
        <time>2022-02-23T13:05:07.606Z</time>
      </trkpt>
      <trkpt lat="39.43966" lon="-1.44959">
        <ele>641.86156</ele>
        <time>2022-02-23T13:05:17.624Z</time>
      </trkpt>
      <trkpt lat="39.43928" lon="-1.44964">
        <ele>640.684664</ele>
        <time>2022-02-23T13:05:24.193Z</time>
      </trkpt>
      <trkpt lat="39.43908" lon="-1.44974">
        <ele>640.006161</ele>
        <time>2022-02-23T13:05:27.978Z</time>
      </trkpt>
      <trkpt lat="39.43892" lon="-1.44986">
        <ele>639.420932</ele>
        <time>2022-02-23T13:05:31.265Z</time>
      </trkpt>
      <trkpt lat="39.43873" lon="-1.45012">
        <ele>638.658574</ele>
        <time>2022-02-23T13:05:36.127Z</time>
      </trkpt>
      <trkpt lat="39.43822" lon="-1.45021">
        <ele>637.346364</ele>
        <time>2022-02-23T13:05:45.491Z</time>
      </trkpt>
      <trkpt lat="39.43812" lon="-1.45031">
        <ele>637.024032</ele>
        <time>2022-02-23T13:05:47.847Z</time>
      </trkpt>
      <trkpt lat="39.43792" lon="-1.45076">
        <ele>636.006682</ele>
        <time>2022-02-23T13:05:55.339Z</time>
      </trkpt>
      <trkpt lat="39.43784" lon="-1.45083">
        <ele>635.755703</ele>
        <time>2022-02-23T13:05:57.224Z</time>
      </trkpt>
      <trkpt lat="39.4377" lon="-1.4508">
        <ele>635.408413</ele>
        <time>2022-02-23T13:05:59.855Z</time>
      </trkpt>
      <trkpt lat="39.43755" lon="-1.45039">
        <ele>634.502934</ele>
        <time>2022-02-23T13:06:06.866Z</time>
      </trkpt>
      <trkpt lat="39.43735" lon="-1.4501">
        <ele>633.597731</ele>
        <time>2022-02-23T13:06:12.644Z</time>
      </trkpt>
      <trkpt lat="39.43691" lon="-1.45004">
        <ele>632.216502</ele>
        <time>2022-02-23T13:06:20.888Z</time>
      </trkpt>
      <trkpt lat="39.43683" lon="-1.44953">
        <ele>630.974757</ele>
        <time>2022-02-23T13:06:28.160Z</time>
      </trkpt>
      <trkpt lat="39.43658" lon="-1.44932">
        <ele>630.045789</ele>
        <time>2022-02-23T13:06:33.415Z</time>
      </trkpt>
      <trkpt lat="39.43646" lon="-1.449">
        <ele>629.18067</ele>
        <time>2022-02-23T13:06:38.208Z</time>
      </trkpt>
      <trkpt lat="39.43615" lon="-1.44861">
        <ele>627.477029</ele>
        <time>2022-02-23T13:06:45.368Z</time>
      </trkpt>
      <trkpt lat="39.43597" lon="-1.44803">
        <ele>625.412341</ele>
        <time>2022-02-23T13:06:53.513Z</time>
      </trkpt>
      <trkpt lat="39.43568" lon="-1.44768">
        <ele>623.695438</ele>
        <time>2022-02-23T13:07:00.291Z</time>
      </trkpt>
      <trkpt lat="39.43558" lon="-1.44762">
        <ele>623.245552</ele>
        <time>2022-02-23T13:07:02.066Z</time>
      </trkpt>
      <trkpt lat="39.43547" lon="-1.44765">
        <ele>622.751755</ele>
        <time>2022-02-23T13:07:03.986Z</time>
      </trkpt>
      <trkpt lat="39.43511" lon="-1.44803">
        <ele>621.08449</ele>
        <time>2022-02-23T13:07:12.098Z</time>
      </trkpt>
      <trkpt lat="39.43501" lon="-1.44863">
        <ele>620.406116</ele>
        <time>2022-02-23T13:07:20.908Z</time>
      </trkpt>
      <trkpt lat="39.43489" lon="-1.4489">
        <ele>620.05385</ele>
        <time>2022-02-23T13:07:25.673Z</time>
      </trkpt>
      <trkpt lat="39.43466" lon="-1.44895">
        <ele>619.719188</ele>
        <time>2022-02-23T13:07:30.319Z</time>
      </trkpt>
      <trkpt lat="39.43394" lon="-1.44867">
        <ele>618.650467</ele>
        <time>2022-02-23T13:07:47.087Z</time>
      </trkpt>
      <trkpt lat="39.43377" lon="-1.44869">
        <ele>618.707706</ele>
        <time>2022-02-23T13:07:51.815Z</time>
      </trkpt>
      <trkpt lat="39.4337" lon="-1.44878">
        <ele>618.741942</ele>
        <time>2022-02-23T13:07:54.387Z</time>
      </trkpt>
      <trkpt lat="39.43336" lon="-1.44958">
        <ele>618.979626</ele>
        <time>2022-02-23T13:08:13.973Z</time>
      </trkpt>
      <trkpt lat="39.43307" lon="-1.44982">
        <ele>619.093117</ele>
        <time>2022-02-23T13:08:22.843Z</time>
      </trkpt>
      <trkpt lat="39.43296" lon="-1.45021">
        <ele>619.200933</ele>
        <time>2022-02-23T13:08:30.584Z</time>
      </trkpt>
      <trkpt lat="39.43272" lon="-1.45071">
        <ele>618.838837</ele>
        <time>2022-02-23T13:08:40.450Z</time>
      </trkpt>
      <trkpt lat="39.43214" lon="-1.45103">
        <ele>617.956124</ele>
        <time>2022-02-23T13:08:53.653Z</time>
      </trkpt>
      <trkpt lat="39.43179" lon="-1.45115">
        <ele>617.456902</ele>
        <time>2022-02-23T13:09:00.741Z</time>
      </trkpt>
      <trkpt lat="39.43167" lon="-1.45127">
        <ele>617.243669</ele>
        <time>2022-02-23T13:09:03.602Z</time>
      </trkpt>
      <trkpt lat="39.43151" lon="-1.45201">
        <ele>616.457991</ele>
        <time>2022-02-23T13:09:14.530Z</time>
      </trkpt>
      <trkpt lat="39.43129" lon="-1.45278">
        <ele>615.675588</ele>
        <time>2022-02-23T13:09:26.720Z</time>
      </trkpt>
      <trkpt lat="39.43086" lon="-1.45391">
        <ele>614.565028</ele>
        <time>2022-02-23T13:09:47.711Z</time>
      </trkpt>
      <trkpt lat="39.4306" lon="-1.45448">
        <ele>614.793621</ele>
        <time>2022-02-23T13:10:01.983Z</time>
      </trkpt>
      <trkpt lat="39.43054" lon="-1.45517">
        <ele>615.0321</ele>
        <time>2022-02-23T13:10:16.757Z</time>
      </trkpt>
      <trkpt lat="39.43006" lon="-1.45598">
        <ele>615.280086</ele>
        <time>2022-02-23T13:10:37.350Z</time>
      </trkpt>
      <trkpt lat="39.42984" lon="-1.45631">
        <ele>615.020783</ele>
        <time>2022-02-23T13:10:44.942Z</time>
      </trkpt>
      <trkpt lat="39.42962" lon="-1.45653">
        <ele>614.811241</ele>
        <time>2022-02-23T13:10:50.848Z</time>
      </trkpt>
      <trkpt lat="39.42903" lon="-1.45713">
        <ele>614.239209</ele>
        <time>2022-02-23T13:11:06.491Z</time>
      </trkpt>
      <trkpt lat="39.42877" lon="-1.45724">
        <ele>614.033604</ele>
        <time>2022-02-23T13:11:11.872Z</time>
      </trkpt>
      <trkpt lat="39.42811" lon="-1.45707">
        <ele>613.008468</ele>
        <time>2022-02-23T13:11:25.251Z</time>
      </trkpt>
      <trkpt lat="39.4275" lon="-1.45668">
        <ele>611.92938</ele>
        <time>2022-02-23T13:11:38.819Z</time>
      </trkpt>
      <trkpt lat="39.42712" lon="-1.45675">
        <ele>611.317195</ele>
        <time>2022-02-23T13:11:46.642Z</time>
      </trkpt>
      <trkpt lat="39.42572" lon="-1.45819">
        <ele>606.408564</ele>
        <time>2022-02-23T13:12:19.853Z</time>
      </trkpt>
      <trkpt lat="39.4255" lon="-1.45861">
        <ele>604.763827</ele>
        <time>2022-02-23T13:12:26.690Z</time>
      </trkpt>
      <trkpt lat="39.42528" lon="-1.4593">
        <ele>601.858499</ele>
        <time>2022-02-23T13:12:35.954Z</time>
      </trkpt>
      <trkpt lat="39.42483" lon="-1.46029">
        <ele>597.425226</ele>
        <time>2022-02-23T13:12:50.611Z</time>
      </trkpt>
      <trkpt lat="39.42478" lon="-1.46051">
        <ele>596.639748</ele>
        <time>2022-02-23T13:12:53.395Z</time>
      </trkpt>
      <trkpt lat="39.4249" lon="-1.46116">
        <ele>594.654309</ele>
        <time>2022-02-23T13:13:02.481Z</time>
      </trkpt>
      <trkpt lat="39.4249" lon="-1.46139">
        <ele>593.959925</ele>
        <time>2022-02-23T13:13:05.486Z</time>
      </trkpt>
      <trkpt lat="39.42482" lon="-1.46163">
        <ele>593.208556</ele>
        <time>2022-02-23T13:13:09.205Z</time>
      </trkpt>
      <trkpt lat="39.42457" lon="-1.46206">
        <ele>591.59756</ele>
        <time>2022-02-23T13:13:16.445Z</time>
      </trkpt>
      <trkpt lat="39.42452" lon="-1.46228">
        <ele>590.922226</ele>
        <time>2022-02-23T13:13:19.406Z</time>
      </trkpt>
      <trkpt lat="39.42441" lon="-1.46329">
        <ele>588.779705</ele>
        <time>2022-02-23T13:13:34.623Z</time>
      </trkpt>
      <trkpt lat="39.42424" lon="-1.46414">
        <ele>587.22569</ele>
        <time>2022-02-23T13:13:47.448Z</time>
      </trkpt>
      <trkpt lat="39.42422" lon="-1.4653">
        <ele>585.33962</ele>
        <time>2022-02-23T13:14:04.325Z</time>
      </trkpt>
      <trkpt lat="39.42373" lon="-1.46654">
        <ele>583.422651</ele>
        <time>2022-02-23T13:14:25.327Z</time>
      </trkpt>
      <trkpt lat="39.42344" lon="-1.46697">
        <ele>582.712705</ele>
        <time>2022-02-23T13:14:34.158Z</time>
      </trkpt>
      <trkpt lat="39.42331" lon="-1.46708">
        <ele>582.607781</ele>
        <time>2022-02-23T13:14:37.231Z</time>
      </trkpt>
      <trkpt lat="39.42294" lon="-1.46721">
        <ele>582.341381</ele>
        <time>2022-02-23T13:14:45.141Z</time>
      </trkpt>
      <trkpt lat="39.42227" lon="-1.46735">
        <ele>581.865992</ele>
        <time>2022-02-23T13:14:59.779Z</time>
      </trkpt>
      <trkpt lat="39.42199" lon="-1.46748">
        <ele>581.653388</ele>
        <time>2022-02-23T13:15:06.542Z</time>
      </trkpt>
      <trkpt lat="39.42171" lon="-1.46771">
        <ele>581.47246</ele>
        <time>2022-02-23T13:15:14.072Z</time>
      </trkpt>
      <trkpt lat="39.42105" lon="-1.46877">
        <ele>581.218184</ele>
        <time>2022-02-23T13:15:38.464Z</time>
      </trkpt>
      <trkpt lat="39.4203" lon="-1.4703">
        <ele>579.99852</ele>
        <time>2022-02-23T13:16:08.889Z</time>
      </trkpt>
      <trkpt lat="39.42003" lon="-1.47102">
        <ele>579.13619</ele>
        <time>2022-02-23T13:16:20.838Z</time>
      </trkpt>
      <trkpt lat="39.4199" lon="-1.47117">
        <ele>578.889392</ele>
        <time>2022-02-23T13:16:24.173Z</time>
      </trkpt>
      <trkpt lat="39.41954" lon="-1.47139">
        <ele>577.948378</ele>
        <time>2022-02-23T13:16:31.761Z</time>
      </trkpt>
      <trkpt lat="39.4193" lon="-1.47163">
        <ele>576.744189</ele>
        <time>2022-02-23T13:16:37.480Z</time>
      </trkpt>
      <trkpt lat="39.41889" lon="-1.472">
        <ele>574.77152</ele>
        <time>2022-02-23T13:16:46.741Z</time>
      </trkpt>
      <trkpt lat="39.41839" lon="-1.47308">
        <ele>570.402052</ele>
        <time>2022-02-23T13:17:02.766Z</time>
      </trkpt>
      <trkpt lat="39.41834" lon="-1.47343">
        <ele>568.064588</ele>
        <time>2022-02-23T13:17:07.132Z</time>
      </trkpt>
      <trkpt lat="39.4184" lon="-1.47427">
        <ele>562.605818</ele>
        <time>2022-02-23T13:17:17.074Z</time>
      </trkpt>
      <trkpt lat="39.41829" lon="-1.47482">
        <ele>558.992483</ele>
        <time>2022-02-23T13:17:23.521Z</time>
      </trkpt>
      <trkpt lat="39.41814" lon="-1.47539">
        <ele>555.231831</ele>
        <time>2022-02-23T13:17:30.396Z</time>
      </trkpt>
      <trkpt lat="39.41755" lon="-1.47766">
        <ele>542.450169</ele>
        <time>2022-02-23T13:17:59.201Z</time>
      </trkpt>
      <trkpt lat="39.41741" lon="-1.47822">
        <ele>541.413159</ele>
        <time>2022-02-23T13:18:08.171Z</time>
      </trkpt>
      <trkpt lat="39.41738" lon="-1.47862">
        <ele>540.725668</ele>
        <time>2022-02-23T13:18:14.514Z</time>
      </trkpt>
      <trkpt lat="39.41696" lon="-1.47947">
        <ele>538.964068</ele>
        <time>2022-02-23T13:18:31.545Z</time>
      </trkpt>
      <trkpt lat="39.4168" lon="-1.48017">
        <ele>536.674678</ele>
        <time>2022-02-23T13:18:43.362Z</time>
      </trkpt>
      <trkpt lat="39.41685" lon="-1.48045">
        <ele>535.744307</ele>
        <time>2022-02-23T13:18:47.470Z</time>
      </trkpt>
      <trkpt lat="39.41702" lon="-1.48056">
        <ele>534.933977</ele>
        <time>2022-02-23T13:18:50.778Z</time>
      </trkpt>
      <trkpt lat="39.41741" lon="-1.48058">
        <ele>533.300805</ele>
        <time>2022-02-23T13:18:57.147Z</time>
      </trkpt>
      <trkpt lat="39.41784" lon="-1.48031">
        <ele>531.265146</ele>
        <time>2022-02-23T13:19:04.576Z</time>
      </trkpt>
      <trkpt lat="39.41808" lon="-1.48025">
        <ele>529.612648</ele>
        <time>2022-02-23T13:19:08.435Z</time>
      </trkpt>
      <trkpt lat="39.41922" lon="-1.48049">
        <ele>521.831936</ele>
        <time>2022-02-23T13:19:26.492Z</time>
      </trkpt>
      <trkpt lat="39.41958" lon="-1.48052">
        <ele>519.373168</ele>
        <time>2022-02-23T13:19:32.352Z</time>
      </trkpt>
      <trkpt lat="39.41963" lon="-1.4806">
        <ele>519.00579</ele>
        <time>2022-02-23T13:19:33.572Z</time>
      </trkpt>
      <trkpt lat="39.4196" lon="-1.48068">
        <ele>518.715532</ele>
        <time>2022-02-23T13:19:34.786Z</time>
      </trkpt>
      <trkpt lat="39.41906" lon="-1.48088">
        <ele>516.418306</ele>
        <time>2022-02-23T13:19:44.329Z</time>
      </trkpt>
      <trkpt lat="39.41856" lon="-1.48134">
        <ele>513.937714</ele>
        <time>2022-02-23T13:19:56.105Z</time>
      </trkpt>
      <trkpt lat="39.41844" lon="-1.4815">
        <ele>513.245102</ele>
        <time>2022-02-23T13:19:58.974Z</time>
      </trkpt>
      <trkpt lat="39.41844" lon="-1.4816">
        <ele>512.919915</ele>
        <time>2022-02-23T13:20:00.400Z</time>
      </trkpt>
      <trkpt lat="39.4185" lon="-1.48164">
        <ele>512.631233</ele>
        <time>2022-02-23T13:20:01.647Z</time>
      </trkpt>
      <trkpt lat="39.41925" lon="-1.48128">
        <ele>509.223886</ele>
        <time>2022-02-23T13:20:15.075Z</time>
      </trkpt>
      <trkpt lat="39.42005" lon="-1.48106">
        <ele>505.664813</ele>
        <time>2022-02-23T13:20:28.889Z</time>
      </trkpt>
      <trkpt lat="39.42049" lon="-1.48016">
        <ele>502.554985</ele>
        <time>2022-02-23T13:20:43.194Z</time>
      </trkpt>
      <trkpt lat="39.42078" lon="-1.47985">
        <ele>501.296064</ele>
        <time>2022-02-23T13:20:49.991Z</time>
      </trkpt>
      <trkpt lat="39.42094" lon="-1.47982">
        <ele>500.752098</ele>
        <time>2022-02-23T13:20:53.058Z</time>
      </trkpt>
      <trkpt lat="39.42094" lon="-1.48003">
        <ele>500.206053</ele>
        <time>2022-02-23T13:20:56.029Z</time>
      </trkpt>
      <trkpt lat="39.42075" lon="-1.48029">
        <ele>499.281918</ele>
        <time>2022-02-23T13:21:01.247Z</time>
      </trkpt>
      <trkpt lat="39.4206" lon="-1.48065">
        <ele>498.237118</ele>
        <time>2022-02-23T13:21:06.837Z</time>
      </trkpt>
      <trkpt lat="39.42059" lon="-1.48113">
        <ele>496.825818</ele>
        <time>2022-02-23T13:21:13.356Z</time>
      </trkpt>
      <trkpt lat="39.42063" lon="-1.48145">
        <ele>495.878252</ele>
        <time>2022-02-23T13:21:17.665Z</time>
      </trkpt>
      <trkpt lat="39.42146" lon="-1.48215">
        <ele>492.125645</ele>
        <time>2022-02-23T13:21:34.699Z</time>
      </trkpt>
      <trkpt lat="39.42228" lon="-1.48266">
        <ele>489.790762</ele>
        <time>2022-02-23T13:21:50.780Z</time>
      </trkpt>
      <trkpt lat="39.42266" lon="-1.48306">
        <ele>488.712752</ele>
        <time>2022-02-23T13:22:00.222Z</time>
      </trkpt>
      <trkpt lat="39.42293" lon="-1.4834">
        <ele>487.877719</ele>
        <time>2022-02-23T13:22:08.207Z</time>
      </trkpt>
      <trkpt lat="39.42306" lon="-1.48363">
        <ele>487.39265</ele>
        <time>2022-02-23T13:22:12.793Z</time>
      </trkpt>
      <trkpt lat="39.42328" lon="-1.48384">
        <ele>487.046761</ele>
        <time>2022-02-23T13:22:18.432Z</time>
      </trkpt>
      <trkpt lat="39.42337" lon="-1.48409">
        <ele>486.788124</ele>
        <time>2022-02-23T13:22:22.951Z</time>
      </trkpt>
      <trkpt lat="39.42338" lon="-1.48467">
        <ele>486.25867</ele>
        <time>2022-02-23T13:22:31.973Z</time>
      </trkpt>
      <trkpt lat="39.42352" lon="-1.48609">
        <ele>485.037208</ele>
        <time>2022-02-23T13:22:54.396Z</time>
      </trkpt>
      <trkpt lat="39.4234" lon="-1.48641">
        <ele>484.831257</ele>
        <time>2022-02-23T13:23:00.068Z</time>
      </trkpt>
      <trkpt lat="39.42331" lon="-1.48698">
        <ele>484.500018</ele>
        <time>2022-02-23T13:23:09.405Z</time>
      </trkpt>
      <trkpt lat="39.42312" lon="-1.48765">
        <ele>484.091554</ele>
        <time>2022-02-23T13:23:21.428Z</time>
      </trkpt>
      <trkpt lat="39.42293" lon="-1.48822">
        <ele>483.943618</ele>
        <time>2022-02-23T13:23:32.335Z</time>
      </trkpt>
      <trkpt lat="39.423" lon="-1.4887">
        <ele>484.111422</ele>
        <time>2022-02-23T13:23:41.373Z</time>
      </trkpt>
      <trkpt lat="39.42279" lon="-1.48891">
        <ele>484.224379</ele>
        <time>2022-02-23T13:23:47.800Z</time>
      </trkpt>
      <trkpt lat="39.42272" lon="-1.48907">
        <ele>484.28876</ele>
        <time>2022-02-23T13:23:51.441Z</time>
      </trkpt>
      <trkpt lat="39.4227" lon="-1.48997">
        <ele>484.594655</ele>
        <time>2022-02-23T13:24:09.692Z</time>
      </trkpt>
      <trkpt lat="39.42275" lon="-1.49021">
        <ele>484.711187</ele>
        <time>2022-02-23T13:24:15.084Z</time>
      </trkpt>
      <trkpt lat="39.42286" lon="-1.49028">
        <ele>484.84948</ele>
        <time>2022-02-23T13:24:18.407Z</time>
      </trkpt>
      <trkpt lat="39.42285" lon="-1.49047">
        <ele>485.02379</ele>
        <time>2022-02-23T13:24:22.727Z</time>
      </trkpt>
      <trkpt lat="39.42272" lon="-1.49058">
        <ele>485.199605</ele>
        <time>2022-02-23T13:24:27.264Z</time>
      </trkpt>
      <trkpt lat="39.42234" lon="-1.49064">
        <ele>485.651667</ele>
        <time>2022-02-23T13:24:38.830Z</time>
      </trkpt>
      <trkpt lat="39.42221" lon="-1.49074">
        <ele>485.83055</ele>
        <time>2022-02-23T13:24:43.327Z</time>
      </trkpt>
      <trkpt lat="39.42166" lon="-1.49176">
        <ele>486.834628</ele>
        <time>2022-02-23T13:25:11.945Z</time>
      </trkpt>
      <trkpt lat="39.42103" lon="-1.49273">
        <ele>487.233172</ele>
        <time>2022-02-23T13:25:37.608Z</time>
      </trkpt>
      <trkpt lat="39.42079" lon="-1.49301">
        <ele>487.366009</ele>
        <time>2022-02-23T13:25:45.322Z</time>
      </trkpt>
      <trkpt lat="39.42054" lon="-1.49347">
        <ele>487.431054</ele>
        <time>2022-02-23T13:25:54.933Z</time>
      </trkpt>
      <trkpt lat="39.41995" lon="-1.49419">
        <ele>486.853037</ele>
        <time>2022-02-23T13:26:12.182Z</time>
      </trkpt>
      <trkpt lat="39.41985" lon="-1.49443">
        <ele>486.702</ele>
        <time>2022-02-23T13:26:16.587Z</time>
      </trkpt>
      <trkpt lat="39.41953" lon="-1.49474">
        <ele>486.422476</ele>
        <time>2022-02-23T13:26:24.826Z</time>
      </trkpt>
      <trkpt lat="39.41936" lon="-1.49499">
        <ele>486.238355</ele>
        <time>2022-02-23T13:26:30.318Z</time>
      </trkpt>
      <trkpt lat="39.41886" lon="-1.49522">
        <ele>485.905345</ele>
        <time>2022-02-23T13:26:41.702Z</time>
      </trkpt>
      <trkpt lat="39.41754" lon="-1.49608">
        <ele>485.017073</ele>
        <time>2022-02-23T13:27:13.785Z</time>
      </trkpt>
      <trkpt lat="39.41697" lon="-1.49634">
        <ele>484.724715</ele>
        <time>2022-02-23T13:27:26.984Z</time>
      </trkpt>
      <trkpt lat="39.4166" lon="-1.49677">
        <ele>484.482895</ele>
        <time>2022-02-23T13:27:38.171Z</time>
      </trkpt>
      <trkpt lat="39.41645" lon="-1.49709">
        <ele>484.343996</ele>
        <time>2022-02-23T13:27:44.458Z</time>
      </trkpt>
      <trkpt lat="39.41602" lon="-1.49872">
        <ele>484.73254</ele>
        <time>2022-02-23T13:28:31.481Z</time>
      </trkpt>
      <trkpt lat="39.41597" lon="-1.49916">
        <ele>484.886035</ele>
        <time>2022-02-23T13:28:44.190Z</time>
      </trkpt>
      <trkpt lat="39.41591" lon="-1.49935">
        <ele>484.957226</ele>
        <time>2022-02-23T13:28:51.790Z</time>
      </trkpt>
      <trkpt lat="39.41595" lon="-1.49971">
        <ele>485.407271</ele>
        <time>2022-02-23T13:29:06.428Z</time>
      </trkpt>
      <trkpt lat="39.4159" lon="-1.49977">
        <ele>485.677875</ele>
        <time>2022-02-23T13:29:10.497Z</time>
      </trkpt>
      <trkpt lat="39.41586" lon="-1.49972">
        <ele>485.911857</ele>
        <time>2022-02-23T13:29:14.009Z</time>
      </trkpt>
      <trkpt lat="39.41579" lon="-1.49917">
        <ele>487.610511</ele>
        <time>2022-02-23T13:29:39.130Z</time>
      </trkpt>
      <trkpt lat="39.41572" lon="-1.49913">
        <ele>487.908798</ele>
        <time>2022-02-23T13:29:42.971Z</time>
      </trkpt>
      <trkpt lat="39.41559" lon="-1.49917">
        <ele>488.413379</ele>
        <time>2022-02-23T13:29:50.213Z</time>
      </trkpt>
      <trkpt lat="39.41548" lon="-1.49921">
        <ele>488.88623</ele>
        <time>2022-02-23T13:29:56.890Z</time>
      </trkpt>
      <trkpt lat="39.41536" lon="-1.49929">
        <ele>489.41388</ele>
        <time>2022-02-23T13:30:04.072Z</time>
      </trkpt>
      <trkpt lat="39.41513" lon="-1.49953">
        <ele>490.576949</ele>
        <time>2022-02-23T13:30:21.919Z</time>
      </trkpt>
      <trkpt lat="39.41495" lon="-1.49974">
        <ele>491.536254</ele>
        <time>2022-02-23T13:30:36.892Z</time>
      </trkpt>
      <trkpt lat="39.4149" lon="-1.49982">
        <ele>491.845003</ele>
        <time>2022-02-23T13:30:41.886Z</time>
      </trkpt>
      <trkpt lat="39.41498" lon="-1.50043">
        <ele>493.99756</ele>
        <time>2022-02-23T13:31:03.798Z</time>
      </trkpt>
      <trkpt lat="39.41513" lon="-1.50079">
        <ele>495.474812</ele>
        <time>2022-02-23T13:31:19.206Z</time>
      </trkpt>
      <trkpt lat="39.41533" lon="-1.50152">
        <ele>498.23516</ele>
        <time>2022-02-23T13:31:48.721Z</time>
      </trkpt>
      <trkpt lat="39.41557" lon="-1.50328">
        <ele>504.324724</ele>
        <time>2022-02-23T13:32:47.280Z</time>
      </trkpt>
      <trkpt lat="39.41553" lon="-1.5034">
        <ele>504.761616</ele>
        <time>2022-02-23T13:32:56.318Z</time>
      </trkpt>
      <trkpt lat="39.41533" lon="-1.50369">
        <ele>506.045892</ele>
        <time>2022-02-23T13:33:05.419Z</time>
      </trkpt>
      <trkpt lat="39.4153" lon="-1.50381">
        <ele>506.468797</ele>
        <time>2022-02-23T13:33:11.824Z</time>
      </trkpt>
      <trkpt lat="39.41537" lon="-1.50394">
        <ele>507.002284</ele>
        <time>2022-02-23T13:33:14.819Z</time>
      </trkpt>
      <trkpt lat="39.41559" lon="-1.5039">
        <ele>507.958377</ele>
        <time>2022-02-23T13:33:27.137Z</time>
      </trkpt>
      <trkpt lat="39.41568" lon="-1.50393">
        <ele>508.365201</ele>
        <time>2022-02-23T13:33:30.099Z</time>
      </trkpt>
      <trkpt lat="39.41576" lon="-1.50404">
        <ele>508.851927</ele>
        <time>2022-02-23T13:33:32.598Z</time>
      </trkpt>
      <trkpt lat="39.41602" lon="-1.50476">
        <ele>511.489593</ele>
        <time>2022-02-23T13:34:07.415Z</time>
      </trkpt>
      <trkpt lat="39.41602" lon="-1.50486">
        <ele>511.816356</ele>
        <time>2022-02-23T13:34:09.753Z</time>
      </trkpt>
      <trkpt lat="39.41592" lon="-1.50496">
        <ele>512.358618</ele>
        <time>2022-02-23T13:34:15.108Z</time>
      </trkpt>
      <trkpt lat="39.41574" lon="-1.50494">
        <ele>513.112643</ele>
        <time>2022-02-23T13:34:22.006Z</time>
      </trkpt>
      <trkpt lat="39.41549" lon="-1.50445">
        <ele>515.072062</ele>
        <time>2022-02-23T13:34:39.180Z</time>
      </trkpt>
      <trkpt lat="39.41538" lon="-1.50436">
        <ele>515.610369</ele>
        <time>2022-02-23T13:34:44.768Z</time>
      </trkpt>
      <trkpt lat="39.4147" lon="-1.5042">
        <ele>519.919974</ele>
        <time>2022-02-23T13:35:17.617Z</time>
      </trkpt>
      <trkpt lat="39.41443" lon="-1.50375">
        <ele>522.646346</ele>
        <time>2022-02-23T13:35:43.532Z</time>
      </trkpt>
      <trkpt lat="39.41439" lon="-1.50362">
        <ele>523.375513</ele>
        <time>2022-02-23T13:35:50.941Z</time>
      </trkpt>
      <trkpt lat="39.41441" lon="-1.50345">
        <ele>524.184851</ele>
        <time>2022-02-23T13:35:58.229Z</time>
      </trkpt>
      <trkpt lat="39.41459" lon="-1.50305">
        <ele>526.472543</ele>
        <time>2022-02-23T13:36:20.844Z</time>
      </trkpt>
      <trkpt lat="39.41472" lon="-1.50259">
        <ele>528.851391</ele>
        <time>2022-02-23T13:36:43.676Z</time>
      </trkpt>
      <trkpt lat="39.41473" lon="-1.50231">
        <ele>530.231437</ele>
        <time>2022-02-23T13:36:57.141Z</time>
      </trkpt>
      <trkpt lat="39.41447" lon="-1.50194">
        <ele>532.680139</ele>
        <time>2022-02-23T13:37:18.440Z</time>
      </trkpt>
      <trkpt lat="39.41433" lon="-1.5018">
        <ele>533.832276</ele>
        <time>2022-02-23T13:37:27.900Z</time>
      </trkpt>
      <trkpt lat="39.41389" lon="-1.50155">
        <ele>536.857621</ele>
        <time>2022-02-23T13:37:54.631Z</time>
      </trkpt>
      <trkpt lat="39.41376" lon="-1.50133">
        <ele>538.164509</ele>
        <time>2022-02-23T13:38:05.075Z</time>
      </trkpt>
      <trkpt lat="39.41374" lon="-1.50096">
        <ele>539.120843</ele>
        <time>2022-02-23T13:38:19.454Z</time>
      </trkpt>
      <trkpt lat="39.41377" lon="-1.5005">
        <ele>539.968141</ele>
        <time>2022-02-23T13:38:33.975Z</time>
      </trkpt>
      <trkpt lat="39.41366" lon="-1.49993">
        <ele>541.026333</ele>
        <time>2022-02-23T13:38:48.590Z</time>
      </trkpt>
      <trkpt lat="39.41358" lon="-1.49915">
        <ele>542.459897</ele>
        <time>2022-02-23T13:39:05.517Z</time>
      </trkpt>
      <trkpt lat="39.41359" lon="-1.49863">
        <ele>543.226253</ele>
        <time>2022-02-23T13:39:15.172Z</time>
      </trkpt>
      <trkpt lat="39.41345" lon="-1.49787">
        <ele>544.185092</ele>
        <time>2022-02-23T13:39:32.389Z</time>
      </trkpt>
      <trkpt lat="39.41339" lon="-1.49782">
        <ele>544.298747</ele>
        <time>2022-02-23T13:39:35.273Z</time>
      </trkpt>
      <trkpt lat="39.41332" lon="-1.49782">
        <ele>544.411966</ele>
        <time>2022-02-23T13:39:37.164Z</time>
      </trkpt>
      <trkpt lat="39.41328" lon="-1.4979">
        <ele>544.525995</ele>
        <time>2022-02-23T13:39:39.410Z</time>
      </trkpt>
      <trkpt lat="39.41331" lon="-1.49889">
        <ele>545.790214</ele>
        <time>2022-02-23T13:40:05.368Z</time>
      </trkpt>
      <trkpt lat="39.41333" lon="-1.49972">
        <ele>547.981164</ele>
        <time>2022-02-23T13:40:29.252Z</time>
      </trkpt>
      <trkpt lat="39.4133" lon="-1.49985">
        <ele>548.335526</ele>
        <time>2022-02-23T13:40:33.153Z</time>
      </trkpt>
      <trkpt lat="39.41314" lon="-1.50014">
        <ele>549.296896</ele>
        <time>2022-02-23T13:40:44.609Z</time>
      </trkpt>
      <trkpt lat="39.41254" lon="-1.50053">
        <ele>551.587354</ele>
        <time>2022-02-23T13:41:14.239Z</time>
      </trkpt>
      <trkpt lat="39.4121" lon="-1.50064">
        <ele>553.499602</ele>
        <time>2022-02-23T13:41:33.719Z</time>
      </trkpt>
      <trkpt lat="39.4115" lon="-1.50155">
        <ele>557.679955</ele>
        <time>2022-02-23T13:42:14.739Z</time>
      </trkpt>
      <trkpt lat="39.411" lon="-1.50171">
        <ele>559.997049</ele>
        <time>2022-02-23T13:42:39.623Z</time>
      </trkpt>
      <trkpt lat="39.41049" lon="-1.50195">
        <ele>563.086748</ele>
        <time>2022-02-23T13:43:06.591Z</time>
      </trkpt>
      <trkpt lat="39.41032" lon="-1.50214">
        <ele>564.408297</ele>
        <time>2022-02-23T13:43:18.022Z</time>
      </trkpt>
      <trkpt lat="39.41005" lon="-1.50258">
        <ele>566.863191</ele>
        <time>2022-02-23T13:43:40.055Z</time>
      </trkpt>
      <trkpt lat="39.40985" lon="-1.50278">
        <ele>568.34633</ele>
        <time>2022-02-23T13:43:53.574Z</time>
      </trkpt>
      <trkpt lat="39.40976" lon="-1.50295">
        <ele>569.218965</ele>
        <time>2022-02-23T13:44:01.921Z</time>
      </trkpt>
      <trkpt lat="39.4098" lon="-1.50355">
        <ele>572.619283</ele>
        <time>2022-02-23T13:44:28.260Z</time>
      </trkpt>
      <trkpt lat="39.40971" lon="-1.50394">
        <ele>575.193987</ele>
        <time>2022-02-23T13:44:47.245Z</time>
      </trkpt>
      <trkpt lat="39.40946" lon="-1.50412">
        <ele>577.633689</ele>
        <time>2022-02-23T13:45:06.013Z</time>
      </trkpt>
      <trkpt lat="39.40902" lon="-1.50462">
        <ele>582.449205</ele>
        <time>2022-02-23T13:45:45.634Z</time>
      </trkpt>
      <trkpt lat="39.40882" lon="-1.50496">
        <ele>585.215987</ele>
        <time>2022-02-23T13:46:09.765Z</time>
      </trkpt>
      <trkpt lat="39.40867" lon="-1.5055">
        <ele>588.851234</ele>
        <time>2022-02-23T13:46:42.000Z</time>
      </trkpt>
      <trkpt lat="39.40901" lon="-1.50638">
        <ele>595.105474</ele>
        <time>2022-02-23T13:47:32.974Z</time>
      </trkpt>
      <trkpt lat="39.40907" lon="-1.50674">
        <ele>597.421373</ele>
        <time>2022-02-23T13:47:49.383Z</time>
      </trkpt>
      <trkpt lat="39.40923" lon="-1.50719">
        <ele>600.219275</ele>
        <time>2022-02-23T13:48:11.220Z</time>
      </trkpt>
      <trkpt lat="39.4092" lon="-1.50755">
        <ele>601.155609</ele>
        <time>2022-02-23T13:48:26.323Z</time>
      </trkpt>
      <trkpt lat="39.40913" lon="-1.50768">
        <ele>601.572814</ele>
        <time>2022-02-23T13:48:32.399Z</time>
      </trkpt>
      <trkpt lat="39.40906" lon="-1.50768">
        <ele>601.823163</ele>
        <time>2022-02-23T13:48:35.765Z</time>
      </trkpt>
      <trkpt lat="39.40883" lon="-1.5075">
        <ele>602.728432</ele>
        <time>2022-02-23T13:48:47.347Z</time>
      </trkpt>
      <trkpt lat="39.40855" lon="-1.50738">
        <ele>603.719859</ele>
        <time>2022-02-23T13:48:58.025Z</time>
      </trkpt>
      <trkpt lat="39.40842" lon="-1.50749">
        <ele>604.234037</ele>
        <time>2022-02-23T13:49:02.620Z</time>
      </trkpt>
      <trkpt lat="39.40827" lon="-1.50807">
        <ele>605.811585</ele>
        <time>2022-02-23T13:49:16.612Z</time>
      </trkpt>
      <trkpt lat="39.4081" lon="-1.50836">
        <ele>606.197964</ele>
        <time>2022-02-23T13:49:23.674Z</time>
      </trkpt>
      <trkpt lat="39.40795" lon="-1.50849">
        <ele>606.333229</ele>
        <time>2022-02-23T13:49:28.287Z</time>
      </trkpt>
      <trkpt lat="39.40782" lon="-1.50853">
        <ele>606.432998</ele>
        <time>2022-02-23T13:49:31.481Z</time>
      </trkpt>
      <trkpt lat="39.40718" lon="-1.50848">
        <ele>606.924436</ele>
        <time>2022-02-23T13:49:50.161Z</time>
      </trkpt>
      <trkpt lat="39.40687" lon="-1.50861">
        <ele>607.179137</ele>
        <time>2022-02-23T13:49:58.736Z</time>
      </trkpt>
      <trkpt lat="39.40673" lon="-1.50875">
        <ele>607.312377</ele>
        <time>2022-02-23T13:50:02.747Z</time>
      </trkpt>
      <trkpt lat="39.40584" lon="-1.51032">
        <ele>608.68622</ele>
        <time>2022-02-23T13:50:41.589Z</time>
      </trkpt>
      <trkpt lat="39.40571" lon="-1.51082">
        <ele>609.065827</ele>
        <time>2022-02-23T13:50:54.069Z</time>
      </trkpt>
      <trkpt lat="39.40497" lon="-1.51253">
        <ele>613.070531</ele>
        <time>2022-02-23T13:51:48.513Z</time>
      </trkpt>
      <trkpt lat="39.40462" lon="-1.51321">
        <ele>614.986862</ele>
        <time>2022-02-23T13:52:14.882Z</time>
      </trkpt>
      <trkpt lat="39.4045" lon="-1.51341">
        <ele>615.649047</ele>
        <time>2022-02-23T13:52:23.435Z</time>
      </trkpt>
      <trkpt lat="39.40395" lon="-1.51435">
        <ele>618.667409</ele>
        <time>2022-02-23T13:53:01.017Z</time>
      </trkpt>
      <trkpt lat="39.40387" lon="-1.51461">
        <ele>619.40598</ele>
        <time>2022-02-23T13:53:08.902Z</time>
      </trkpt>
      <trkpt lat="39.40379" lon="-1.51523">
        <ele>620.461661</ele>
        <time>2022-02-23T13:53:26.748Z</time>
      </trkpt>
      <trkpt lat="39.40371" lon="-1.51579">
        <ele>621.214984</ele>
        <time>2022-02-23T13:53:41.094Z</time>
      </trkpt>
      <trkpt lat="39.40363" lon="-1.51597">
        <ele>621.484632</ele>
        <time>2022-02-23T13:53:45.888Z</time>
      </trkpt>
      <trkpt lat="39.40295" lon="-1.51671">
        <ele>622.981275</ele>
        <time>2022-02-23T13:54:12.092Z</time>
      </trkpt>
      <trkpt lat="39.40277" lon="-1.51695">
        <ele>623.281232</ele>
        <time>2022-02-23T13:54:18.603Z</time>
      </trkpt>
      <trkpt lat="39.40244" lon="-1.5176">
        <ele>623.974246</ele>
        <time>2022-02-23T13:54:35.354Z</time>
      </trkpt>
      <trkpt lat="39.40232" lon="-1.51773">
        <ele>624.150507</ele>
        <time>2022-02-23T13:54:39.778Z</time>
      </trkpt>
      <trkpt lat="39.40154" lon="-1.51816">
        <ele>625.203131</ele>
        <time>2022-02-23T13:55:04.801Z</time>
      </trkpt>
      <trkpt lat="39.40022" lon="-1.51971">
        <ele>628.319707</ele>
        <time>2022-02-23T13:56:03.630Z</time>
      </trkpt>
      <trkpt lat="39.3997" lon="-1.52018">
        <ele>629.005168</ele>
        <time>2022-02-23T13:56:22.710Z</time>
      </trkpt>
      <trkpt lat="39.39941" lon="-1.52018">
        <ele>629.325245</ele>
        <time>2022-02-23T13:56:30.846Z</time>
      </trkpt>
      <trkpt lat="39.39904" lon="-1.51995">
        <ele>629.763636</ele>
        <time>2022-02-23T13:56:41.693Z</time>
      </trkpt>
      <trkpt lat="39.39883" lon="-1.51932">
        <ele>630.267682</ele>
        <time>2022-02-23T13:56:56.344Z</time>
      </trkpt>
      <trkpt lat="39.39873" lon="-1.5192">
        <ele>630.351567</ele>
        <time>2022-02-23T13:57:00.002Z</time>
      </trkpt>
      <trkpt lat="39.39843" lon="-1.51906">
        <ele>630.546832</ele>
        <time>2022-02-23T13:57:07.102Z</time>
      </trkpt>
      <trkpt lat="39.39817" lon="-1.51905">
        <ele>630.703778</ele>
        <time>2022-02-23T13:57:12.805Z</time>
      </trkpt>
      <trkpt lat="39.39801" lon="-1.5191">
        <ele>630.809146</ele>
        <time>2022-02-23T13:57:16.975Z</time>
      </trkpt>
      <trkpt lat="39.39789" lon="-1.51922">
        <ele>630.903068</ele>
        <time>2022-02-23T13:57:20.917Z</time>
      </trkpt>
      <trkpt lat="39.39788" lon="-1.51946">
        <ele>631.014553</ele>
        <time>2022-02-23T13:57:26.113Z</time>
      </trkpt>
      <trkpt lat="39.39817" lon="-1.51987">
        <ele>631.288555</ele>
        <time>2022-02-23T13:57:38.382Z</time>
      </trkpt>
      <trkpt lat="39.39826" lon="-1.52007">
        <ele>631.641094</ele>
        <time>2022-02-23T13:57:44.196Z</time>
      </trkpt>
      <trkpt lat="39.39828" lon="-1.52031">
        <ele>631.996303</ele>
        <time>2022-02-23T13:57:50.109Z</time>
      </trkpt>
      <trkpt lat="39.39819" lon="-1.52094">
        <ele>632.939199</ele>
        <time>2022-02-23T13:58:06.996Z</time>
      </trkpt>
      <trkpt lat="39.39811" lon="-1.52109">
        <ele>633.207327</ele>
        <time>2022-02-23T13:58:12.011Z</time>
      </trkpt>
      <trkpt lat="39.39797" lon="-1.52118">
        <ele>633.50495</ele>
        <time>2022-02-23T13:58:17.270Z</time>
      </trkpt>
      <trkpt lat="39.39765" lon="-1.52114">
        <ele>634.11545</ele>
        <time>2022-02-23T13:58:27.849Z</time>
      </trkpt>
      <trkpt lat="39.39728" lon="-1.52126">
        <ele>634.816744</ele>
        <time>2022-02-23T13:58:40.241Z</time>
      </trkpt>
      <trkpt lat="39.39663" lon="-1.52198">
        <ele>636.295238</ele>
        <time>2022-02-23T13:59:08.107Z</time>
      </trkpt>
      <trkpt lat="39.39623" lon="-1.5222">
        <ele>637.038802</ele>
        <time>2022-02-23T13:59:21.635Z</time>
      </trkpt>
      <trkpt lat="39.39537" lon="-1.52253">
        <ele>638.583901</ele>
        <time>2022-02-23T13:59:49.341Z</time>
      </trkpt>
      <trkpt lat="39.39501" lon="-1.52274">
        <ele>639.255662</ele>
        <time>2022-02-23T14:00:02.006Z</time>
      </trkpt>
      <trkpt lat="39.39428" lon="-1.52333">
        <ele>640.736557</ele>
        <time>2022-02-23T14:00:29.375Z</time>
      </trkpt>
      <trkpt lat="39.39413" lon="-1.52342">
        <ele>641.025947</ele>
        <time>2022-02-23T14:00:34.654Z</time>
      </trkpt>
      <trkpt lat="39.39372" lon="-1.52358">
        <ele>641.813848</ele>
        <time>2022-02-23T14:00:48.433Z</time>
      </trkpt>
      <trkpt lat="39.39346" lon="-1.52361">
        <ele>642.294142</ele>
        <time>2022-02-23T14:00:56.866Z</time>
      </trkpt>
      <trkpt lat="39.39317" lon="-1.52354">
        <ele>642.844372</ele>
        <time>2022-02-23T14:01:06.440Z</time>
      </trkpt>
      <trkpt lat="39.39262" lon="-1.52321">
        <ele>643.96611</ele>
        <time>2022-02-23T14:01:26.224Z</time>
      </trkpt>
      <trkpt lat="39.3916" lon="-1.52301">
        <ele>646.324761</ele>
        <time>2022-02-23T14:02:00.341Z</time>
      </trkpt>
      <trkpt lat="39.3913" lon="-1.52319">
        <ele>647.12459</ele>
        <time>2022-02-23T14:02:12.564Z</time>
      </trkpt>
      <trkpt lat="39.39034" lon="-1.52421">
        <ele>650.232209</ele>
        <time>2022-02-23T14:02:58.266Z</time>
      </trkpt>
      <trkpt lat="39.3902" lon="-1.52429">
        <ele>650.639812</ele>
        <time>2022-02-23T14:03:04.461Z</time>
      </trkpt>
      <trkpt lat="39.38961" lon="-1.5244">
        <ele>652.193281</ele>
        <time>2022-02-23T14:03:26.923Z</time>
      </trkpt>
      <trkpt lat="39.38889" lon="-1.52492">
        <ele>653.388875</ele>
        <time>2022-02-23T14:03:54.378Z</time>
      </trkpt>
      <trkpt lat="39.38842" lon="-1.52534">
        <ele>653.653666</ele>
        <time>2022-02-23T14:04:10.101Z</time>
      </trkpt>
      <trkpt lat="39.38839" lon="-1.52537">
        <ele>653.669924</ele>
        <time>2022-02-23T14:04:10.982Z</time>
      </trkpt>
      <trkpt lat="39.38792" lon="-1.52601">
        <ele>653.989716</ele>
        <time>2022-02-23T14:04:26.199Z</time>
      </trkpt>
      <trkpt lat="39.38752" lon="-1.52622">
        <ele>652.888375</ele>
        <time>2022-02-23T14:04:34.538Z</time>
      </trkpt>
      <trkpt lat="39.38693" lon="-1.52643">
        <ele>651.060321</ele>
        <time>2022-02-23T14:04:45.590Z</time>
      </trkpt>
      <trkpt lat="39.3864" lon="-1.52737">
        <ele>648.454369</ele>
        <time>2022-02-23T14:05:01.115Z</time>
      </trkpt>
      <trkpt lat="39.3861" lon="-1.52758">
        <ele>647.644375</ele>
        <time>2022-02-23T14:05:07.155Z</time>
      </trkpt>
      <trkpt lat="39.38586" lon="-1.52766">
        <ele>647.060196</ele>
        <time>2022-02-23T14:05:11.530Z</time>
      </trkpt>
      <trkpt lat="39.38573" lon="-1.52766">
        <ele>646.751894</ele>
        <time>2022-02-23T14:05:14.056Z</time>
      </trkpt>
      <trkpt lat="39.38543" lon="-1.52766">
        <ele>646.048251</ele>
        <time>2022-02-23T14:05:19.610Z</time>
      </trkpt>
      <trkpt lat="39.38509" lon="-1.52779">
        <ele>645.220983</ele>
        <time>2022-02-23T14:05:26.492Z</time>
      </trkpt>
      <trkpt lat="39.38465" lon="-1.52834">
        <ele>644.493921</ele>
        <time>2022-02-23T14:05:39.340Z</time>
      </trkpt>
      <trkpt lat="39.38405" lon="-1.52894">
        <ele>644.651653</ele>
        <time>2022-02-23T14:05:59.982Z</time>
      </trkpt>
      <trkpt lat="39.38392" lon="-1.52915">
        <ele>644.695142</ele>
        <time>2022-02-23T14:06:06.187Z</time>
      </trkpt>
      <trkpt lat="39.38385" lon="-1.52976">
        <ele>644.794313</ele>
        <time>2022-02-23T14:06:18.583Z</time>
      </trkpt>
      <trkpt lat="39.3837" lon="-1.53038">
        <ele>644.152426</ele>
        <time>2022-02-23T14:06:30.246Z</time>
      </trkpt>
      <trkpt lat="39.38355" lon="-1.53086">
        <ele>643.529731</ele>
        <time>2022-02-23T14:06:38.304Z</time>
      </trkpt>
      <trkpt lat="39.38337" lon="-1.53172">
        <ele>642.459928</ele>
        <time>2022-02-23T14:06:51.287Z</time>
      </trkpt>
      <trkpt lat="39.38333" lon="-1.53234">
        <ele>641.608954</ele>
        <time>2022-02-23T14:07:00.081Z</time>
      </trkpt>
      <trkpt lat="39.3834" lon="-1.53271">
        <ele>640.993576</ele>
        <time>2022-02-23T14:07:05.389Z</time>
      </trkpt>
      <trkpt lat="39.38371" lon="-1.53363">
        <ele>639.365704</ele>
        <time>2022-02-23T14:07:19.862Z</time>
      </trkpt>
      <trkpt lat="39.38389" lon="-1.53383">
        <ele>638.870826</ele>
        <time>2022-02-23T14:07:24.390Z</time>
      </trkpt>
      <trkpt lat="39.38435" lon="-1.53404">
        <ele>638.410291</ele>
        <time>2022-02-23T14:07:34.506Z</time>
      </trkpt>
      <trkpt lat="39.38451" lon="-1.53432">
        <ele>638.616897</ele>
        <time>2022-02-23T14:07:41.412Z</time>
      </trkpt>
      <trkpt lat="39.38456" lon="-1.53452">
        <ele>638.741462</ele>
        <time>2022-02-23T14:07:45.806Z</time>
      </trkpt>
      <trkpt lat="39.3846" lon="-1.53507">
        <ele>639.073998</ele>
        <time>2022-02-23T14:07:58.581Z</time>
      </trkpt>
      <trkpt lat="39.38449" lon="-1.53684">
        <ele>640.395905</ele>
        <time>2022-02-23T14:08:40.745Z</time>
      </trkpt>
      <trkpt lat="39.38452" lon="-1.537">
        <ele>640.557433</ele>
        <time>2022-02-23T14:08:44.731Z</time>
      </trkpt>
      <trkpt lat="39.38466" lon="-1.53722">
        <ele>640.8143</ele>
        <time>2022-02-23T14:08:51.866Z</time>
      </trkpt>
      <trkpt lat="39.38509" lon="-1.53769">
        <ele>641.490504</ele>
        <time>2022-02-23T14:09:08.106Z</time>
      </trkpt>
      <trkpt lat="39.38529" lon="-1.53802">
        <ele>641.791914</ele>
        <time>2022-02-23T14:09:16.728Z</time>
      </trkpt>
      <trkpt lat="39.38532" lon="-1.53825">
        <ele>641.741218</ele>
        <time>2022-02-23T14:09:21.173Z</time>
      </trkpt>
      <trkpt lat="39.38523" lon="-1.53926">
        <ele>641.513559</ele>
        <time>2022-02-23T14:09:38.315Z</time>
      </trkpt>
      <trkpt lat="39.38514" lon="-1.53978">
        <ele>641.394887</ele>
        <time>2022-02-23T14:09:47.398Z</time>
      </trkpt>
      <trkpt lat="39.3851" lon="-1.54082">
        <ele>641.428172</ele>
        <time>2022-02-23T14:10:04.719Z</time>
      </trkpt>
      <trkpt lat="39.38497" lon="-1.54152">
        <ele>641.596118</ele>
        <time>2022-02-23T14:10:17.326Z</time>
      </trkpt>
      <trkpt lat="39.38488" lon="-1.5417">
        <ele>641.646858</ele>
        <time>2022-02-23T14:10:21.553Z</time>
      </trkpt>
      <trkpt lat="39.38463" lon="-1.5419">
        <ele>641.733286</ele>
        <time>2022-02-23T14:10:29.360Z</time>
      </trkpt>
      <trkpt lat="39.38424" lon="-1.5424">
        <ele>641.910325</ele>
        <time>2022-02-23T14:10:46.284Z</time>
      </trkpt>
      <trkpt lat="39.38404" lon="-1.54276">
        <ele>642.031131</ele>
        <time>2022-02-23T14:10:57.706Z</time>
      </trkpt>
      <trkpt lat="39.38351" lon="-1.54332">
        <ele>642.271274</ele>
        <time>2022-02-23T14:11:17.023Z</time>
      </trkpt>
      <trkpt lat="39.38315" lon="-1.54357">
        <ele>642.41625</ele>
        <time>2022-02-23T14:11:25.458Z</time>
      </trkpt>
      <trkpt lat="39.38298" lon="-1.54375">
        <ele>642.362065</ele>
        <time>2022-02-23T14:11:29.815Z</time>
      </trkpt>
      <trkpt lat="39.38287" lon="-1.54395">
        <ele>642.058232</ele>
        <time>2022-02-23T14:11:33.358Z</time>
      </trkpt>
      <trkpt lat="39.38285" lon="-1.54403">
        <ele>641.963309</ele>
        <time>2022-02-23T14:11:34.504Z</time>
      </trkpt>
      <trkpt lat="39.3829" lon="-1.5441">
        <ele>641.841124</ele>
        <time>2022-02-23T14:11:36.153Z</time>
      </trkpt>
      <trkpt lat="39.38297" lon="-1.54414">
        <ele>641.733824</ele>
        <time>2022-02-23T14:11:37.342Z</time>
      </trkpt>
      <trkpt lat="39.38348" lon="-1.54392">
        <ele>640.889914</ele>
        <time>2022-02-23T14:11:47.513Z</time>
      </trkpt>
      <trkpt lat="39.38382" lon="-1.54387">
        <ele>640.341946</ele>
        <time>2022-02-23T14:11:54.486Z</time>
      </trkpt>
      <trkpt lat="39.38401" lon="-1.54372">
        <ele>640.0006</ele>
        <time>2022-02-23T14:11:58.773Z</time>
      </trkpt>
      <trkpt lat="39.38411" lon="-1.54366">
        <ele>639.822097</ele>
        <time>2022-02-23T14:12:01.006Z</time>
      </trkpt>
      <trkpt lat="39.38426" lon="-1.54367">
        <ele>639.749885</ele>
        <time>2022-02-23T14:12:04.016Z</time>
      </trkpt>
      <trkpt lat="39.38437" lon="-1.54379">
        <ele>640.21727</ele>
        <time>2022-02-23T14:12:06.760Z</time>
      </trkpt>
      <trkpt lat="39.38443" lon="-1.54405">
        <ele>640.911833</ele>
        <time>2022-02-23T14:12:11.320Z</time>
      </trkpt>
      <trkpt lat="39.38427" lon="-1.54477">
        <ele>642.829508</ele>
        <time>2022-02-23T14:12:31.828Z</time>
      </trkpt>
      <trkpt lat="39.38386" lon="-1.54529">
        <ele>644.722242</ele>
        <time>2022-02-23T14:13:01.850Z</time>
      </trkpt>
      <trkpt lat="39.38361" lon="-1.54743">
        <ele>654.568697</ele>
        <time>2022-02-23T14:14:39.021Z</time>
      </trkpt>
      <trkpt lat="39.38355" lon="-1.54761">
        <ele>655.538706</ele>
        <time>2022-02-23T14:14:47.154Z</time>
      </trkpt>
      <trkpt lat="39.38284" lon="-1.54849">
        <ele>659.729367</ele>
        <time>2022-02-23T14:15:32.189Z</time>
      </trkpt>
      <trkpt lat="39.38209" lon="-1.54916">
        <ele>662.985708</ele>
        <time>2022-02-23T14:16:05.199Z</time>
      </trkpt>
      <trkpt lat="39.38147" lon="-1.54956">
        <ele>665.292495</ele>
        <time>2022-02-23T14:16:30.279Z</time>
      </trkpt>
      <trkpt lat="39.38126" lon="-1.54984">
        <ele>666.30728</ele>
        <time>2022-02-23T14:16:42.164Z</time>
      </trkpt>
      <trkpt lat="39.3812" lon="-1.55007">
        <ele>666.937635</ele>
        <time>2022-02-23T14:16:49.814Z</time>
      </trkpt>
      <trkpt lat="39.3812" lon="-1.55149">
        <ele>670.769104</ele>
        <time>2022-02-23T14:17:36.064Z</time>
      </trkpt>
      <trkpt lat="39.38104" lon="-1.55196">
        <ele>672.330032</ele>
        <time>2022-02-23T14:17:53.777Z</time>
      </trkpt>
      <trkpt lat="39.38071" lon="-1.55259">
        <ele>674.640889</ele>
        <time>2022-02-23T14:18:18.638Z</time>
      </trkpt>
      <trkpt lat="39.38056" lon="-1.55309">
        <ele>676.292582</ele>
        <time>2022-02-23T14:18:36.739Z</time>
      </trkpt>
      <trkpt lat="39.38059" lon="-1.55368">
        <ele>677.999547</ele>
        <time>2022-02-23T14:18:56.368Z</time>
      </trkpt>
      <trkpt lat="39.38079" lon="-1.55435">
        <ele>680.103702</ele>
        <time>2022-02-23T14:19:19.481Z</time>
      </trkpt>
      <trkpt lat="39.38092" lon="-1.55502">
        <ele>682.102144</ele>
        <time>2022-02-23T14:19:41.571Z</time>
      </trkpt>
      <trkpt lat="39.38089" lon="-1.55553">
        <ele>683.596093</ele>
        <time>2022-02-23T14:19:57.990Z</time>
      </trkpt>
      <trkpt lat="39.38063" lon="-1.55656">
        <ele>686.677413</ele>
        <time>2022-02-23T14:20:33.074Z</time>
      </trkpt>
      <trkpt lat="39.38008" lon="-1.55788">
        <ele>690.878242</ele>
        <time>2022-02-23T14:21:21.068Z</time>
      </trkpt>
      <trkpt lat="39.37973" lon="-1.55862">
        <ele>693.236165</ele>
        <time>2022-02-23T14:21:48.817Z</time>
      </trkpt>
      <trkpt lat="39.37937" lon="-1.55907">
        <ele>695.006142</ele>
        <time>2022-02-23T14:22:09.236Z</time>
      </trkpt>
      <trkpt lat="39.37925" lon="-1.5593">
        <ele>695.74529</ele>
        <time>2022-02-23T14:22:18.044Z</time>
      </trkpt>
      <trkpt lat="39.37894" lon="-1.56029">
        <ele>698.348412</ele>
        <time>2022-02-23T14:22:49.717Z</time>
      </trkpt>
      <trkpt lat="39.37885" lon="-1.5613">
        <ele>700.805575</ele>
        <time>2022-02-23T14:23:18.841Z</time>
      </trkpt>
      <trkpt lat="39.37855" lon="-1.56207">
        <ele>702.995466</ele>
        <time>2022-02-23T14:23:45.901Z</time>
      </trkpt>
      <trkpt lat="39.37847" lon="-1.56215">
        <ele>703.342299</ele>
        <time>2022-02-23T14:23:49.980Z</time>
      </trkpt>
      <trkpt lat="39.37815" lon="-1.56223">
        <ele>704.47362</ele>
        <time>2022-02-23T14:24:03.536Z</time>
      </trkpt>
      <trkpt lat="39.37803" lon="-1.56238">
        <ele>705.045513</ele>
        <time>2022-02-23T14:24:10.189Z</time>
      </trkpt>
      <trkpt lat="39.37797" lon="-1.5627">
        <ele>705.931651</ele>
        <time>2022-02-23T14:24:20.341Z</time>
      </trkpt>
      <trkpt lat="39.37807" lon="-1.56354">
        <ele>708.206001</ele>
        <time>2022-02-23T14:24:46.840Z</time>
      </trkpt>
      <trkpt lat="39.37818" lon="-1.564">
        <ele>709.395941</ele>
        <time>2022-02-23T14:25:02.718Z</time>
      </trkpt>
      <trkpt lat="39.37821" lon="-1.56501">
        <ele>711.888184</ele>
        <time>2022-02-23T14:25:35.122Z</time>
      </trkpt>
      <trkpt lat="39.37791" lon="-1.56593">
        <ele>714.15216</ele>
        <time>2022-02-23T14:26:02.112Z</time>
      </trkpt>
      <trkpt lat="39.37786" lon="-1.56608">
        <ele>714.412117</ele>
        <time>2022-02-23T14:26:06.498Z</time>
      </trkpt>
      <trkpt lat="39.37775" lon="-1.56649">
        <ele>715.082774</ele>
        <time>2022-02-23T14:26:17.707Z</time>
      </trkpt>
      <trkpt lat="39.37776" lon="-1.56659">
        <ele>715.227468</ele>
        <time>2022-02-23T14:26:20.071Z</time>
      </trkpt>
      <trkpt lat="39.3778" lon="-1.56689">
        <ele>715.710301</ele>
        <time>2022-02-23T14:26:28.176Z</time>
      </trkpt>
      <trkpt lat="39.37779" lon="-1.56711">
        <ele>716.050928</ele>
        <time>2022-02-23T14:26:33.691Z</time>
      </trkpt>
      <trkpt lat="39.37762" lon="-1.56857">
        <ele>718.5163</ele>
        <time>2022-02-23T14:27:10.171Z</time>
      </trkpt>
      <trkpt lat="39.37749" lon="-1.56899">
        <ele>719.347609</ele>
        <time>2022-02-23T14:27:21.985Z</time>
      </trkpt>
      <trkpt lat="39.37721" lon="-1.56946">
        <ele>720.436869</ele>
        <time>2022-02-23T14:27:38.179Z</time>
      </trkpt>
      <trkpt lat="39.37701" lon="-1.57065">
        <ele>723.455413</ele>
        <time>2022-02-23T14:28:13.877Z</time>
      </trkpt>
      <trkpt lat="39.37669" lon="-1.5715">
        <ele>726.54194</ele>
        <time>2022-02-23T14:28:45.593Z</time>
      </trkpt>
      <trkpt lat="39.37644" lon="-1.57254">
        <ele>730.469203</ele>
        <time>2022-02-23T14:29:26.901Z</time>
      </trkpt>
      <trkpt lat="39.3761" lon="-1.57332">
        <ele>734.738424</ele>
        <time>2022-02-23T14:30:04.098Z</time>
      </trkpt>
      <trkpt lat="39.37484" lon="-1.57581">
        <ele>748.209251</ele>
        <time>2022-02-23T14:32:12.857Z</time>
      </trkpt>
      <trkpt lat="39.3746" lon="-1.576">
        <ele>749.814254</ele>
        <time>2022-02-23T14:32:25.355Z</time>
      </trkpt>
      <trkpt lat="39.37434" lon="-1.57622">
        <ele>750.694295</ele>
        <time>2022-02-23T14:32:37.073Z</time>
      </trkpt>
      <trkpt lat="39.37409" lon="-1.57668">
        <ele>751.088382</ele>
        <time>2022-02-23T14:32:52.262Z</time>
      </trkpt>
      <trkpt lat="39.37395" lon="-1.577">
        <ele>751.340217</ele>
        <time>2022-02-23T14:33:00.575Z</time>
      </trkpt>
      <trkpt lat="39.37376" lon="-1.57743">
        <ele>751.687071</ele>
        <time>2022-02-23T14:33:10.334Z</time>
      </trkpt>
      <trkpt lat="39.3733" lon="-1.5783">
        <ele>751.700706</ele>
        <time>2022-02-23T14:33:26.293Z</time>
      </trkpt>
      <trkpt lat="39.37212" lon="-1.58004">
        <ele>749.084954</ele>
        <time>2022-02-23T14:34:02.034Z</time>
      </trkpt>
      <trkpt lat="39.37153" lon="-1.58113">
        <ele>747.720459</ele>
        <time>2022-02-23T14:34:22.916Z</time>
      </trkpt>
      <trkpt lat="39.37078" lon="-1.58311">
        <ele>745.030361</ele>
        <time>2022-02-23T14:34:56.944Z</time>
      </trkpt>
      <trkpt lat="39.37036" lon="-1.58429">
        <ele>743.299741</ele>
        <time>2022-02-23T14:35:16.053Z</time>
      </trkpt>
      <trkpt lat="39.37016" lon="-1.58498">
        <ele>742.269618</ele>
        <time>2022-02-23T14:35:26.994Z</time>
      </trkpt>
      <trkpt lat="39.36982" lon="-1.5866">
        <ele>740.512232</ele>
        <time>2022-02-23T14:35:52.969Z</time>
      </trkpt>
      <trkpt lat="39.36962" lon="-1.58806">
        <ele>739.76932</ele>
        <time>2022-02-23T14:36:18.179Z</time>
      </trkpt>
      <trkpt lat="39.36909" lon="-1.58956">
        <ele>739.62579</ele>
        <time>2022-02-23T14:36:47.692Z</time>
      </trkpt>
      <trkpt lat="39.36875" lon="-1.59032">
        <ele>739.600723</ele>
        <time>2022-02-23T14:37:03.422Z</time>
      </trkpt>
      <trkpt lat="39.36868" lon="-1.59048">
        <ele>739.650521</ele>
        <time>2022-02-23T14:37:06.734Z</time>
      </trkpt>
      <trkpt lat="39.36833" lon="-1.59125">
        <ele>739.891775</ele>
        <time>2022-02-23T14:37:23.134Z</time>
      </trkpt>
      <trkpt lat="39.36704" lon="-1.59296">
        <ele>741.100474</ele>
        <time>2022-02-23T14:38:11.698Z</time>
      </trkpt>
      <trkpt lat="39.36697" lon="-1.59307">
        <ele>741.212157</ele>
        <time>2022-02-23T14:38:14.987Z</time>
      </trkpt>
      <trkpt lat="39.36684" lon="-1.5932">
        <ele>741.373442</ele>
        <time>2022-02-23T14:38:19.677Z</time>
      </trkpt>
      <trkpt lat="39.36608" lon="-1.59422">
        <ele>742.653021</ele>
        <time>2022-02-23T14:38:52.157Z</time>
      </trkpt>
      <trkpt lat="39.36568" lon="-1.59489">
        <ele>743.590128</ele>
        <time>2022-02-23T14:39:13.174Z</time>
      </trkpt>
      <trkpt lat="39.36538" lon="-1.59545">
        <ele>744.34619</ele>
        <time>2022-02-23T14:39:29.433Z</time>
      </trkpt>
      <trkpt lat="39.36531" lon="-1.5956">
        <ele>744.535405</ele>
        <time>2022-02-23T14:39:33.306Z</time>
      </trkpt>
      <trkpt lat="39.36506" lon="-1.59605">
        <ele>744.777139</ele>
        <time>2022-02-23T14:39:45.281Z</time>
      </trkpt>
      <trkpt lat="39.36483" lon="-1.5964">
        <ele>744.950092</ele>
        <time>2022-02-23T14:39:54.653Z</time>
      </trkpt>
      <trkpt lat="39.36445" lon="-1.59673">
        <ele>745.178588</ele>
        <time>2022-02-23T14:40:06.677Z</time>
      </trkpt>
      <trkpt lat="39.36436" lon="-1.5968">
        <ele>745.229781</ele>
        <time>2022-02-23T14:40:09.182Z</time>
      </trkpt>
      <trkpt lat="39.3641" lon="-1.597">
        <ele>745.37892</ele>
        <time>2022-02-23T14:40:16.497Z</time>
      </trkpt>
      <trkpt lat="39.36406" lon="-1.59704">
        <ele>745.399351</ele>
        <time>2022-02-23T14:40:17.430Z</time>
      </trkpt>
      <trkpt lat="39.36361" lon="-1.59744">
        <ele>745.107562</ele>
        <time>2022-02-23T14:40:29.548Z</time>
      </trkpt>
      <trkpt lat="39.36322" lon="-1.59769">
        <ele>744.733147</ele>
        <time>2022-02-23T14:40:38.693Z</time>
      </trkpt>
      <trkpt lat="39.36318" lon="-1.59771">
        <ele>744.700655</ele>
        <time>2022-02-23T14:40:39.464Z</time>
      </trkpt>
      <trkpt lat="39.36244" lon="-1.59836">
        <ele>743.927549</ele>
        <time>2022-02-23T14:40:57.978Z</time>
      </trkpt>
      <trkpt lat="39.36226" lon="-1.5986">
        <ele>743.416015</ele>
        <time>2022-02-23T14:41:03.263Z</time>
      </trkpt>
      <trkpt lat="39.36203" lon="-1.59843">
        <ele>742.89137</ele>
        <time>2022-02-23T14:41:08.520Z</time>
      </trkpt>
      <trkpt lat="39.36168" lon="-1.59911">
        <ele>741.618781</ele>
        <time>2022-02-23T14:41:20.748Z</time>
      </trkpt>
      <trkpt lat="39.36161" lon="-1.59904">
        <ele>741.442519</ele>
        <time>2022-02-23T14:41:22.346Z</time>
      </trkpt>
      <trkpt lat="39.36144" lon="-1.59977">
        <ele>740.23986</ele>
        <time>2022-02-23T14:41:33.177Z</time>
      </trkpt>
      <trkpt lat="39.3614" lon="-1.59981">
        <ele>740.11337</ele>
        <time>2022-02-23T14:41:34.006Z</time>
      </trkpt>
      <trkpt lat="39.36111" lon="-1.59995">
        <ele>739.26546</ele>
        <time>2022-02-23T14:41:39.656Z</time>
      </trkpt>
      <trkpt lat="39.36105" lon="-1.59998">
        <ele>739.080076</ele>
        <time>2022-02-23T14:41:40.889Z</time>
      </trkpt>
      <trkpt lat="39.36069" lon="-1.60022">
        <ele>737.982198</ele>
        <time>2022-02-23T14:41:48.236Z</time>
      </trkpt>
      <trkpt lat="39.36057" lon="-1.60025">
        <ele>737.646075</ele>
        <time>2022-02-23T14:41:50.509Z</time>
      </trkpt>
      <trkpt lat="39.36048" lon="-1.6002">
        <ele>737.387032</ele>
        <time>2022-02-23T14:41:52.240Z</time>
      </trkpt>
      <trkpt lat="39.36044" lon="-1.60027">
        <ele>737.210712</ele>
        <time>2022-02-23T14:41:53.389Z</time>
      </trkpt>
      <trkpt lat="39.36044" lon="-1.60052">
        <ele>736.68147</ele>
        <time>2022-02-23T14:41:57.007Z</time>
      </trkpt>
      <trkpt lat="39.35994" lon="-1.60049">
        <ele>735.318183</ele>
        <time>2022-02-23T14:42:06.212Z</time>
      </trkpt>
      <trkpt lat="39.35993" lon="-1.6006">
        <ele>735.129991</ele>
        <time>2022-02-23T14:42:07.878Z</time>
      </trkpt>
      <trkpt lat="39.36" lon="-1.60062">
        <ele>735.001178</ele>
        <time>2022-02-23T14:42:09.060Z</time>
      </trkpt>
      <trkpt lat="39.35998" lon="-1.60074">
        <ele>734.800528</ele>
        <time>2022-02-23T14:42:10.874Z</time>
      </trkpt>
      <trkpt lat="39.35994" lon="-1.6009">
        <ele>734.534363</ele>
        <time>2022-02-23T14:42:13.192Z</time>
      </trkpt>
      <trkpt lat="39.35987" lon="-1.60109">
        <ele>734.195449</ele>
        <time>2022-02-23T14:42:16.316Z</time>
      </trkpt>
      <trkpt lat="39.35977" lon="-1.60133">
        <ele>733.758149</ele>
        <time>2022-02-23T14:42:20.266Z</time>
      </trkpt>
      <trkpt lat="39.3597" lon="-1.60145">
        <ele>733.513964</ele>
        <time>2022-02-23T14:42:22.597Z</time>
      </trkpt>
      <trkpt lat="39.35953" lon="-1.60166">
        <ele>733.019595</ele>
        <time>2022-02-23T14:42:27.238Z</time>
      </trkpt>
      <trkpt lat="39.35947" lon="-1.60173">
        <ele>732.860026</ele>
        <time>2022-02-23T14:42:28.748Z</time>
      </trkpt>
      <trkpt lat="39.35934" lon="-1.60187">
        <ele>732.510971</ele>
        <time>2022-02-23T14:42:32.021Z</time>
      </trkpt>
      <trkpt lat="39.35916" lon="-1.60207">
        <ele>732.015468</ele>
        <time>2022-02-23T14:42:36.661Z</time>
      </trkpt>
      <trkpt lat="39.35848" lon="-1.60285">
        <ele>730.433239</ele>
        <time>2022-02-23T14:42:54.426Z</time>
      </trkpt>
      <trkpt lat="39.35842" lon="-1.60291">
        <ele>730.316762</ele>
        <time>2022-02-23T14:42:55.825Z</time>
      </trkpt>
      <trkpt lat="39.35783" lon="-1.60359">
        <ele>729.002215</ele>
        <time>2022-02-23T14:43:11.485Z</time>
      </trkpt>
      <trkpt lat="39.3578" lon="-1.60362">
        <ele>728.94688</ele>
        <time>2022-02-23T14:43:12.168Z</time>
      </trkpt>
      <trkpt lat="39.35731" lon="-1.60419">
        <ele>728.327503</ele>
        <time>2022-02-23T14:43:25.539Z</time>
      </trkpt>
      <trkpt lat="39.35676" lon="-1.6048">
        <ele>727.817964</ele>
        <time>2022-02-23T14:43:40.276Z</time>
      </trkpt>
      <trkpt lat="39.35624" lon="-1.60539">
        <ele>727.470732</ele>
        <time>2022-02-23T14:43:55.295Z</time>
      </trkpt>
      <trkpt lat="39.35532" lon="-1.60643">
        <ele>728.126953</ele>
        <time>2022-02-23T14:44:26.203Z</time>
      </trkpt>
      <trkpt lat="39.35511" lon="-1.60667">
        <ele>728.27652</ele>
        <time>2022-02-23T14:44:33.528Z</time>
      </trkpt>
      <trkpt lat="39.35477" lon="-1.60706">
        <ele>728.572631</ele>
        <time>2022-02-23T14:44:45.652Z</time>
      </trkpt>
      <trkpt lat="39.35337" lon="-1.60866">
        <ele>729.918471</ele>
        <time>2022-02-23T14:45:34.206Z</time>
      </trkpt>
      <trkpt lat="39.35327" lon="-1.60877">
        <ele>729.994517</ele>
        <time>2022-02-23T14:45:37.142Z</time>
      </trkpt>
      <trkpt lat="39.35103" lon="-1.61134">
        <ele>732.043412</ele>
        <time>2022-02-23T14:46:52.506Z</time>
      </trkpt>
      <trkpt lat="39.34912" lon="-1.61353">
        <ele>735.529591</ele>
        <time>2022-02-23T14:48:08.650Z</time>
      </trkpt>
      <trkpt lat="39.34893" lon="-1.61374">
        <ele>735.877597</ele>
        <time>2022-02-23T14:48:16.084Z</time>
      </trkpt>
      <trkpt lat="39.34881" lon="-1.61407">
        <ele>736.258243</ele>
        <time>2022-02-23T14:48:24.169Z</time>
      </trkpt>
      <trkpt lat="39.34878" lon="-1.61427">
        <ele>736.469316</ele>
        <time>2022-02-23T14:48:28.654Z</time>
      </trkpt>
      <trkpt lat="39.34859" lon="-1.6144">
        <ele>736.768337</ele>
        <time>2022-02-23T14:48:34.885Z</time>
      </trkpt>
      <trkpt lat="39.34852" lon="-1.61438">
        <ele>736.872344</ele>
        <time>2022-02-23T14:48:37.020Z</time>
      </trkpt>
      <trkpt lat="39.34826" lon="-1.6145">
        <ele>737.198973</ele>
        <time>2022-02-23T14:48:44.715Z</time>
      </trkpt>
      <trkpt lat="39.34815" lon="-1.61464">
        <ele>737.312118</ele>
        <time>2022-02-23T14:48:49.114Z</time>
      </trkpt>
      <trkpt lat="39.34696" lon="-1.61599">
        <ele>738.457546</ele>
        <time>2022-02-23T14:49:29.913Z</time>
      </trkpt>
      <trkpt lat="39.3468" lon="-1.61618">
        <ele>738.43357</ele>
        <time>2022-02-23T14:49:35.120Z</time>
      </trkpt>
      <trkpt lat="39.34325" lon="-1.62022">
        <ele>738.006938</ele>
        <time>2022-02-23T14:51:17.663Z</time>
      </trkpt>
      <trkpt lat="39.3374" lon="-1.6269">
        <ele>740.498854</ele>
        <time>2022-02-23T14:54:25.477Z</time>
      </trkpt>
      <trkpt lat="39.33602" lon="-1.62845">
        <ele>740.388637</ele>
        <time>2022-02-23T14:55:06.388Z</time>
      </trkpt>
      <trkpt lat="39.3341" lon="-1.63063">
        <ele>738.143349</ele>
        <time>2022-02-23T14:55:57.220Z</time>
      </trkpt>
      <trkpt lat="39.33289" lon="-1.63202">
        <ele>736.655195</ele>
        <time>2022-02-23T14:56:29.083Z</time>
      </trkpt>
      <trkpt lat="39.33107" lon="-1.6341">
        <ele>735.293128</ele>
        <time>2022-02-23T14:57:19.823Z</time>
      </trkpt>
      <trkpt lat="39.33091" lon="-1.63435">
        <ele>735.193719</ele>
        <time>2022-02-23T14:57:25.387Z</time>
      </trkpt>
      <trkpt lat="39.33057" lon="-1.63506">
        <ele>734.852983</ele>
        <time>2022-02-23T14:57:39.852Z</time>
      </trkpt>
      <trkpt lat="39.33045" lon="-1.63558">
        <ele>734.619446</ele>
        <time>2022-02-23T14:57:48.983Z</time>
      </trkpt>
      <trkpt lat="39.33025" lon="-1.63702">
        <ele>733.526588</ele>
        <time>2022-02-23T14:58:11.516Z</time>
      </trkpt>
      <trkpt lat="39.33014" lon="-1.63754">
        <ele>732.55217</ele>
        <time>2022-02-23T14:58:19.245Z</time>
      </trkpt>
      <trkpt lat="39.32902" lon="-1.64074">
        <ele>725.474224</ele>
        <time>2022-02-23T14:59:06.332Z</time>
      </trkpt>
      <trkpt lat="39.32859" lon="-1.64188">
        <ele>723.502203</ele>
        <time>2022-02-23T14:59:24.044Z</time>
      </trkpt>
      <trkpt lat="39.32839" lon="-1.64229">
        <ele>722.832662</ele>
        <time>2022-02-23T14:59:31.025Z</time>
      </trkpt>
      <trkpt lat="39.32805" lon="-1.64282">
        <ele>721.879134</ele>
        <time>2022-02-23T14:59:41.290Z</time>
      </trkpt>
      <trkpt lat="39.32742" lon="-1.64351">
        <ele>721.871152</ele>
        <time>2022-02-23T14:59:58.380Z</time>
      </trkpt>
      <trkpt lat="39.32652" lon="-1.64407">
        <ele>722.143851</ele>
        <time>2022-02-23T15:00:23.034Z</time>
      </trkpt>
      <trkpt lat="39.32492" lon="-1.6449">
        <ele>725.944061</ele>
        <time>2022-02-23T15:01:22.769Z</time>
      </trkpt>
      <trkpt lat="39.32419" lon="-1.64542">
        <ele>727.496663</ele>
        <time>2022-02-23T15:01:53.098Z</time>
      </trkpt>
      <trkpt lat="39.3233" lon="-1.64617">
        <ele>729.369823</ele>
        <time>2022-02-23T15:02:25.321Z</time>
      </trkpt>
      <trkpt lat="39.32243" lon="-1.64673">
        <ele>728.778368</ele>
        <time>2022-02-23T15:02:45.699Z</time>
      </trkpt>
      <trkpt lat="39.32076" lon="-1.64745">
        <ele>726.21706</ele>
        <time>2022-02-23T15:03:19.048Z</time>
      </trkpt>
      <trkpt lat="39.31995" lon="-1.64793">
        <ele>724.329291</ele>
        <time>2022-02-23T15:03:34.880Z</time>
      </trkpt>
      <trkpt lat="39.3174" lon="-1.64995">
        <ele>714.519912</ele>
        <time>2022-02-23T15:04:25.510Z</time>
      </trkpt>
      <trkpt lat="39.31626" lon="-1.65122">
        <ele>710.02412</ele>
        <time>2022-02-23T15:04:51.704Z</time>
      </trkpt>
      <trkpt lat="39.31591" lon="-1.65151">
        <ele>708.878254</ele>
        <time>2022-02-23T15:04:58.996Z</time>
      </trkpt>
      <trkpt lat="39.31538" lon="-1.65182">
        <ele>707.246185</ele>
        <time>2022-02-23T15:05:09.179Z</time>
      </trkpt>
      <trkpt lat="39.31456" lon="-1.65201">
        <ele>704.654871</ele>
        <time>2022-02-23T15:05:23.662Z</time>
      </trkpt>
      <trkpt lat="39.31137" lon="-1.6524">
        <ele>694.705767</ele>
        <time>2022-02-23T15:06:17.976Z</time>
      </trkpt>
      <trkpt lat="39.31114" lon="-1.65247">
        <ele>694.160804</ele>
        <time>2022-02-23T15:06:22.334Z</time>
      </trkpt>
      <trkpt lat="39.311" lon="-1.65259">
        <ele>693.786615</ele>
        <time>2022-02-23T15:06:25.368Z</time>
      </trkpt>
      <trkpt lat="39.31097" lon="-1.65262">
        <ele>693.702718</ele>
        <time>2022-02-23T15:06:26.063Z</time>
      </trkpt>
      <trkpt lat="39.31091" lon="-1.653">
        <ele>693.032703</ele>
        <time>2022-02-23T15:06:31.567Z</time>
      </trkpt>
      <trkpt lat="39.31081" lon="-1.65322">
        <ele>692.579872</ele>
        <time>2022-02-23T15:06:35.337Z</time>
      </trkpt>
      <trkpt lat="39.31062" lon="-1.65329">
        <ele>692.13716</ele>
        <time>2022-02-23T15:06:39.108Z</time>
      </trkpt>
      <trkpt lat="39.31047" lon="-1.65323">
        <ele>691.783265</ele>
        <time>2022-02-23T15:06:42.105Z</time>
      </trkpt>
      <trkpt lat="39.31026" lon="-1.65284">
        <ele>691.330757</ele>
        <time>2022-02-23T15:06:49.349Z</time>
      </trkpt>
      <trkpt lat="39.31014" lon="-1.65272">
        <ele>691.15094</ele>
        <time>2022-02-23T15:06:52.303Z</time>
      </trkpt>
      <trkpt lat="39.3098" lon="-1.65258">
        <ele>690.7084</ele>
        <time>2022-02-23T15:06:59.479Z</time>
      </trkpt>
      <trkpt lat="39.30897" lon="-1.65242">
        <ele>689.683011</ele>
        <time>2022-02-23T15:07:16.017Z</time>
      </trkpt>
      <trkpt lat="39.30827" lon="-1.65221">
        <ele>688.671007</ele>
        <time>2022-02-23T15:07:29.530Z</time>
      </trkpt>
      <trkpt lat="39.30793" lon="-1.65221">
        <ele>688.174387</ele>
        <time>2022-02-23T15:07:35.944Z</time>
      </trkpt>
      <trkpt lat="39.30757" lon="-1.65227">
        <ele>687.654728</ele>
        <time>2022-02-23T15:07:42.627Z</time>
      </trkpt>
      <trkpt lat="39.30751" lon="-1.6523">
        <ele>687.564384</ele>
        <time>2022-02-23T15:07:43.826Z</time>
      </trkpt>
      <trkpt lat="39.30643" lon="-1.65282">
        <ele>686.875391</ele>
        <time>2022-02-23T15:08:06.550Z</time>
      </trkpt>
      <trkpt lat="39.30632" lon="-1.65287">
        <ele>686.857939</ele>
        <time>2022-02-23T15:08:08.864Z</time>
      </trkpt>
      <trkpt lat="39.30511" lon="-1.65351">
        <ele>687.704101</ele>
        <time>2022-02-23T15:08:42.715Z</time>
      </trkpt>
      <trkpt lat="39.30477" lon="-1.65368">
        <ele>688.6533</ele>
        <time>2022-02-23T15:08:53.891Z</time>
      </trkpt>
      <trkpt lat="39.30458" lon="-1.65378">
        <ele>689.178899</ele>
        <time>2022-02-23T15:09:01.690Z</time>
      </trkpt>
      <trkpt lat="39.30424" lon="-1.65404">
        <ele>690.18315</ele>
        <time>2022-02-23T15:09:16.606Z</time>
      </trkpt>
      <trkpt lat="39.30399" lon="-1.65441">
        <ele>691.162228</ele>
        <time>2022-02-23T15:09:32.214Z</time>
      </trkpt>
      <trkpt lat="39.30385" lon="-1.65497">
        <ele>693.147402</ele>
        <time>2022-02-23T15:09:52.017Z</time>
      </trkpt>
      <trkpt lat="39.30384" lon="-1.65523">
        <ele>694.097986</ele>
        <time>2022-02-23T15:10:01.729Z</time>
      </trkpt>
      <trkpt lat="39.30402" lon="-1.6567">
        <ele>699.498873</ele>
        <time>2022-02-23T15:10:56.654Z</time>
      </trkpt>
      <trkpt lat="39.30327" lon="-1.65666">
        <ele>702.529805</ele>
        <time>2022-02-23T15:11:32.993Z</time>
      </trkpt>
      <trkpt lat="39.30313" lon="-1.6573">
        <ele>704.572172</ele>
        <time>2022-02-23T15:11:54.608Z</time>
      </trkpt>
      <trkpt lat="39.30277" lon="-1.65833">
        <ele>707.724826</ele>
        <time>2022-02-23T15:12:27.849Z</time>
      </trkpt>
      <trkpt lat="39.3026" lon="-1.6587">
        <ele>708.644875</ele>
        <time>2022-02-23T15:12:40.581Z</time>
      </trkpt>
      <trkpt lat="39.30228" lon="-1.65922">
        <ele>710.099697</ele>
        <time>2022-02-23T15:12:59.876Z</time>
      </trkpt>
      <trkpt lat="39.3024" lon="-1.66012">
        <ele>712.078886</ele>
        <time>2022-02-23T15:13:25.096Z</time>
      </trkpt>
      <trkpt lat="39.30243" lon="-1.66122">
        <ele>714.816705</ele>
        <time>2022-02-23T15:13:56.399Z</time>
      </trkpt>
      <trkpt lat="39.30244" lon="-1.66128">
        <ele>714.97671</ele>
        <time>2022-02-23T15:13:58.356Z</time>
      </trkpt>
      <trkpt lat="39.30232" lon="-1.66173">
        <ele>716.160217</ele>
        <time>2022-02-23T15:14:13.402Z</time>
      </trkpt>
      <trkpt lat="39.30222" lon="-1.6621">
        <ele>717.135827</ele>
        <time>2022-02-23T15:14:26.258Z</time>
      </trkpt>
      <trkpt lat="39.3021" lon="-1.66254">
        <ele>718.38448</ele>
        <time>2022-02-23T15:14:41.811Z</time>
      </trkpt>
      <trkpt lat="39.30204" lon="-1.66265">
        <ele>718.785984</ele>
        <time>2022-02-23T15:14:46.387Z</time>
      </trkpt>
      <trkpt lat="39.30137" lon="-1.6638">
        <ele>722.926529</ele>
        <time>2022-02-23T15:15:34.132Z</time>
      </trkpt>
      <trkpt lat="39.30101" lon="-1.66442">
        <ele>724.732265</ele>
        <time>2022-02-23T15:15:58.503Z</time>
      </trkpt>
      <trkpt lat="39.30088" lon="-1.66466">
        <ele>725.042283</ele>
        <time>2022-02-23T15:16:06.800Z</time>
      </trkpt>
      <trkpt lat="39.30075" lon="-1.66487">
        <ele>725.331174</ele>
        <time>2022-02-23T15:16:14.199Z</time>
      </trkpt>
      <trkpt lat="39.30066" lon="-1.66499">
        <ele>725.500933</ele>
        <time>2022-02-23T15:16:18.280Z</time>
      </trkpt>
      <trkpt lat="39.30054" lon="-1.66507">
        <ele>725.696053</ele>
        <time>2022-02-23T15:16:22.816Z</time>
      </trkpt>
      <trkpt lat="39.29991" lon="-1.66544">
        <ele>726.645639</ele>
        <time>2022-02-23T15:16:39.677Z</time>
      </trkpt>
      <trkpt lat="39.29977" lon="-1.66561">
        <ele>726.912039</ele>
        <time>2022-02-23T15:16:43.742Z</time>
      </trkpt>
      <trkpt lat="39.29948" lon="-1.66615">
        <ele>726.74656</ele>
        <time>2022-02-23T15:16:54.098Z</time>
      </trkpt>
      <trkpt lat="39.29931" lon="-1.66678">
        <ele>726.528372</ele>
        <time>2022-02-23T15:17:04.420Z</time>
      </trkpt>
      <trkpt lat="39.29608" lon="-1.67926">
        <ele>725.175619</ele>
        <time>2022-02-23T15:20:46.771Z</time>
      </trkpt>
      <trkpt lat="39.29598" lon="-1.67948">
        <ele>725.27329</ele>
        <time>2022-02-23T15:20:51.354Z</time>
      </trkpt>
      <trkpt lat="39.29332" lon="-1.69024">
        <ele>729.341932</ele>
        <time>2022-02-23T15:24:38.478Z</time>
      </trkpt>
      <trkpt lat="39.29333" lon="-1.69042">
        <ele>729.263929</ele>
        <time>2022-02-23T15:24:43.527Z</time>
      </trkpt>
      <trkpt lat="39.29342" lon="-1.69074">
        <ele>729.120466</ele>
        <time>2022-02-23T15:24:52.786Z</time>
      </trkpt>
      <trkpt lat="39.29339" lon="-1.69099">
        <ele>729.010712</ele>
        <time>2022-02-23T15:24:59.788Z</time>
      </trkpt>
      <trkpt lat="39.29305" lon="-1.69095">
        <ele>728.826779</ele>
        <time>2022-02-23T15:25:11.325Z</time>
      </trkpt>
      <trkpt lat="39.29283" lon="-1.69198">
        <ele>728.141386</ele>
        <time>2022-02-23T15:25:27.484Z</time>
      </trkpt>
      <trkpt lat="39.29179" lon="-1.69617">
        <ele>723.912274</ele>
        <time>2022-02-23T15:26:33.126Z</time>
      </trkpt>
      <trkpt lat="39.29064" lon="-1.70172">
        <ele>722.659569</ele>
        <time>2022-02-23T15:28:09.391Z</time>
      </trkpt>
      <trkpt lat="39.29028" lon="-1.70352">
        <ele>722.065739</ele>
        <time>2022-02-23T15:28:40.426Z</time>
      </trkpt>
      <trkpt lat="39.28992" lon="-1.70503">
        <ele>721.257977</ele>
        <time>2022-02-23T15:29:05.293Z</time>
      </trkpt>
      <trkpt lat="39.28961" lon="-1.7059">
        <ele>720.26243</ele>
        <time>2022-02-23T15:29:19.704Z</time>
      </trkpt>
      <trkpt lat="39.28903" lon="-1.70708">
        <ele>718.815844</ele>
        <time>2022-02-23T15:29:40.228Z</time>
      </trkpt>
      <trkpt lat="39.2879" lon="-1.70883">
        <ele>716.299745</ele>
        <time>2022-02-23T15:30:14.087Z</time>
      </trkpt>
      <trkpt lat="39.28551" lon="-1.71231">
        <ele>711.223408</ele>
        <time>2022-02-23T15:31:22.977Z</time>
      </trkpt>
      <trkpt lat="39.28502" lon="-1.71282">
        <ele>710.888829</ele>
        <time>2022-02-23T15:31:35.158Z</time>
      </trkpt>
      <trkpt lat="39.28475" lon="-1.71302">
        <ele>710.726608</ele>
        <time>2022-02-23T15:31:41.342Z</time>
      </trkpt>
      <trkpt lat="39.28432" lon="-1.7133">
        <ele>710.470995</ele>
        <time>2022-02-23T15:31:51.695Z</time>
      </trkpt>
      <trkpt lat="39.28388" lon="-1.7135">
        <ele>710.454695</ele>
        <time>2022-02-23T15:32:03.112Z</time>
      </trkpt>
      <trkpt lat="39.28374" lon="-1.71355">
        <ele>710.685812</ele>
        <time>2022-02-23T15:32:06.655Z</time>
      </trkpt>
      <trkpt lat="39.28361" lon="-1.71358">
        <ele>710.906857</ele>
        <time>2022-02-23T15:32:10.286Z</time>
      </trkpt>
      <trkpt lat="39.28114" lon="-1.71401">
        <ele>714.973832</ele>
        <time>2022-02-23T15:33:31.475Z</time>
      </trkpt>
      <trkpt lat="39.27958" lon="-1.71427">
        <ele>715.85224</ele>
        <time>2022-02-23T15:34:13.570Z</time>
      </trkpt>
      <trkpt lat="39.27906" lon="-1.71441">
        <ele>715.678843</ele>
        <time>2022-02-23T15:34:24.002Z</time>
      </trkpt>
      <trkpt lat="39.27834" lon="-1.71477">
        <ele>714.849436</ele>
        <time>2022-02-23T15:34:38.348Z</time>
      </trkpt>
      <trkpt lat="39.27764" lon="-1.71535">
        <ele>713.201986</ele>
        <time>2022-02-23T15:34:53.348Z</time>
      </trkpt>
      <trkpt lat="39.27706" lon="-1.71608">
        <ele>711.698373</ele>
        <time>2022-02-23T15:35:08.371Z</time>
      </trkpt>
      <trkpt lat="39.27608" lon="-1.71781">
        <ele>709.322125</ele>
        <time>2022-02-23T15:35:40.356Z</time>
      </trkpt>
      <trkpt lat="39.27575" lon="-1.71827">
        <ele>708.676605</ele>
        <time>2022-02-23T15:35:49.775Z</time>
      </trkpt>
      <trkpt lat="39.27571" lon="-1.71832">
        <ele>708.596196</ele>
        <time>2022-02-23T15:35:50.940Z</time>
      </trkpt>
      <trkpt lat="39.27552" lon="-1.71851">
        <ele>708.282077</ele>
        <time>2022-02-23T15:35:55.566Z</time>
      </trkpt>
      <trkpt lat="39.27482" lon="-1.71907">
        <ele>707.174785</ele>
        <time>2022-02-23T15:36:11.507Z</time>
      </trkpt>
      <trkpt lat="39.27413" lon="-1.71941">
        <ele>706.196837</ele>
        <time>2022-02-23T15:36:25.529Z</time>
      </trkpt>
      <trkpt lat="39.27373" lon="-1.71951">
        <ele>705.648016</ele>
        <time>2022-02-23T15:36:33.398Z</time>
      </trkpt>
      <trkpt lat="39.26935" lon="-1.71998">
        <ele>700.623347</ele>
        <time>2022-02-23T15:37:58.613Z</time>
      </trkpt>
      <trkpt lat="39.26807" lon="-1.72004">
        <ele>702.298725</ele>
        <time>2022-02-23T15:38:36.558Z</time>
      </trkpt>
      <trkpt lat="39.26769" lon="-1.71998">
        <ele>702.794305</ele>
        <time>2022-02-23T15:38:49.443Z</time>
      </trkpt>
      <trkpt lat="39.26647" lon="-1.7196">
        <ele>704.140355</ele>
        <time>2022-02-23T15:39:28.222Z</time>
      </trkpt>
      <trkpt lat="39.26572" lon="-1.71954">
        <ele>704.725096</ele>
        <time>2022-02-23T15:39:46.415Z</time>
      </trkpt>
      <trkpt lat="39.24549" lon="-1.72048">
        <ele>676.740442</ele>
        <time>2022-02-23T15:46:13.838Z</time>
      </trkpt>
      <trkpt lat="39.23549" lon="-1.72096">
        <ele>670.285859</ele>
        <time>2022-02-23T15:49:40.822Z</time>
      </trkpt>
      <trkpt lat="39.226" lon="-1.72142">
        <ele>667.131821</ele>
        <time>2022-02-23T15:53:03.112Z</time>
      </trkpt>
      <trkpt lat="39.22549" lon="-1.72147">
        <ele>667.143576</ele>
        <time>2022-02-23T15:53:14.737Z</time>
      </trkpt>
      <trkpt lat="39.22467" lon="-1.72168">
        <ele>667.162508</ele>
        <time>2022-02-23T15:53:34.065Z</time>
      </trkpt>
      <trkpt lat="39.22364" lon="-1.72217">
        <ele>667.171743</ele>
        <time>2022-02-23T15:53:58.460Z</time>
      </trkpt>
      <trkpt lat="39.22351" lon="-1.72225">
        <ele>667.172457</ele>
        <time>2022-02-23T15:54:01.477Z</time>
      </trkpt>
      <trkpt lat="39.22343" lon="-1.72215">
        <ele>667.173046</ele>
        <time>2022-02-23T15:54:03.915Z</time>
      </trkpt>
      <trkpt lat="39.22339" lon="-1.72197">
        <ele>667.173815</ele>
        <time>2022-02-23T15:54:07.106Z</time>
      </trkpt>
      <trkpt lat="39.22319" lon="-1.72156">
        <ele>667.175765</ele>
        <time>2022-02-23T15:54:15.666Z</time>
      </trkpt>
      <trkpt lat="39.223" lon="-1.72147">
        <ele>667.190279</ele>
        <time>2022-02-23T15:54:20.440Z</time>
      </trkpt>
      <trkpt lat="39.2221" lon="-1.72144">
        <ele>667.359923</ele>
        <time>2022-02-23T15:54:40.939Z</time>
      </trkpt>
      <trkpt lat="39.22159" lon="-1.7215">
        <ele>667.455041</ele>
        <time>2022-02-23T15:54:53.156Z</time>
      </trkpt>
      <trkpt lat="39.21837" lon="-1.72163">
        <ele>667.808911</ele>
        <time>2022-02-23T15:56:07.095Z</time>
      </trkpt>
      <trkpt lat="39.21607" lon="-1.72174">
        <ele>667.546869</ele>
        <time>2022-02-23T15:56:57.685Z</time>
      </trkpt>
      <trkpt lat="39.21444" lon="-1.72187">
        <ele>666.385214</ele>
        <time>2022-02-23T15:57:31.329Z</time>
      </trkpt>
      <trkpt lat="39.21397" lon="-1.72192">
        <ele>665.893556</ele>
        <time>2022-02-23T15:57:40.454Z</time>
      </trkpt>
      <trkpt lat="39.21314" lon="-1.722">
        <ele>664.440113</ele>
        <time>2022-02-23T15:57:55.922Z</time>
      </trkpt>
      <trkpt lat="39.21277" lon="-1.72202">
        <ele>663.788436</ele>
        <time>2022-02-23T15:58:02.796Z</time>
      </trkpt>
      <trkpt lat="39.21262" lon="-1.72201">
        <ele>663.525424</ele>
        <time>2022-02-23T15:58:05.529Z</time>
      </trkpt>
      <trkpt lat="39.21185" lon="-1.72188">
        <ele>662.286338</ele>
        <time>2022-02-23T15:58:19.887Z</time>
      </trkpt>
      <trkpt lat="39.21173" lon="-1.72184">
        <ele>662.101374</ele>
        <time>2022-02-23T15:58:22.211Z</time>
      </trkpt>
      <trkpt lat="39.21131" lon="-1.72172">
        <ele>661.468205</ele>
        <time>2022-02-23T15:58:30.118Z</time>
      </trkpt>
      <trkpt lat="39.21085" lon="-1.72159">
        <ele>660.762139</ele>
        <time>2022-02-23T15:58:39.194Z</time>
      </trkpt>
      <trkpt lat="39.21063" lon="-1.72152">
        <ele>660.423088</ele>
        <time>2022-02-23T15:58:43.733Z</time>
      </trkpt>
      <trkpt lat="39.21038" lon="-1.7213">
        <ele>660.220567</ele>
        <time>2022-02-23T15:58:49.895Z</time>
      </trkpt>
      <trkpt lat="39.21009" lon="-1.72092">
        <ele>660.091965</ele>
        <time>2022-02-23T15:58:58.684Z</time>
      </trkpt>
      <trkpt lat="39.20924" lon="-1.71987">
        <ele>659.731014</ele>
        <time>2022-02-23T15:59:24.164Z</time>
      </trkpt>
      <trkpt lat="39.20903" lon="-1.7197">
        <ele>659.872614</ele>
        <time>2022-02-23T15:59:29.911Z</time>
      </trkpt>
      <trkpt lat="39.20879" lon="-1.71959">
        <ele>660.024251</ele>
        <time>2022-02-23T15:59:36.215Z</time>
      </trkpt>
      <trkpt lat="39.20839" lon="-1.71924">
        <ele>660.310003</ele>
        <time>2022-02-23T15:59:48.039Z</time>
      </trkpt>
      <trkpt lat="39.20816" lon="-1.71889">
        <ele>660.522445</ele>
        <time>2022-02-23T15:59:57.318Z</time>
      </trkpt>
      <trkpt lat="39.2078" lon="-1.71759">
        <ele>661.466732</ele>
        <time>2022-02-23T16:00:26.641Z</time>
      </trkpt>
      <trkpt lat="39.2075" lon="-1.71684">
        <ele>662.197924</ele>
        <time>2022-02-23T16:00:45.476Z</time>
      </trkpt>
      <trkpt lat="39.20746" lon="-1.71676">
        <ele>662.281487</ele>
        <time>2022-02-23T16:00:47.551Z</time>
      </trkpt>
      <trkpt lat="39.20717" lon="-1.71582">
        <ele>663.003673</ele>
        <time>2022-02-23T16:01:09.189Z</time>
      </trkpt>
      <trkpt lat="39.2068" lon="-1.71495">
        <ele>663.502221</ele>
        <time>2022-02-23T16:01:29.036Z</time>
      </trkpt>
      <trkpt lat="39.20585" lon="-1.71371">
        <ele>664.32211</ele>
        <time>2022-02-23T16:02:01.460Z</time>
      </trkpt>
      <trkpt lat="39.20566" lon="-1.71336">
        <ele>664.504694</ele>
        <time>2022-02-23T16:02:09.650Z</time>
      </trkpt>
      <trkpt lat="39.20541" lon="-1.71273">
        <ele>664.808139</ele>
        <time>2022-02-23T16:02:23.642Z</time>
      </trkpt>
      <trkpt lat="39.20516" lon="-1.71231">
        <ele>665.083319</ele>
        <time>2022-02-23T16:02:34.375Z</time>
      </trkpt>
      <trkpt lat="39.20469" lon="-1.71182">
        <ele>665.617298</ele>
        <time>2022-02-23T16:02:50.499Z</time>
      </trkpt>
      <trkpt lat="39.20419" lon="-1.71109">
        <ele>666.283843</ele>
        <time>2022-02-23T16:03:10.740Z</time>
      </trkpt>
      <trkpt lat="39.2029" lon="-1.71035">
        <ele>667.492067</ele>
        <time>2022-02-23T16:03:48.161Z</time>
      </trkpt>
      <trkpt lat="39.20262" lon="-1.71005">
        <ele>667.805627</ele>
        <time>2022-02-23T16:03:57.941Z</time>
      </trkpt>
      <trkpt lat="39.20193" lon="-1.70905">
        <ele>668.526877</ele>
        <time>2022-02-23T16:04:25.451Z</time>
      </trkpt>
      <trkpt lat="39.20053" lon="-1.70779">
        <ele>669.454077</ele>
        <time>2022-02-23T16:05:07.471Z</time>
      </trkpt>
      <trkpt lat="39.19968" lon="-1.7072">
        <ele>669.842499</ele>
        <time>2022-02-23T16:05:30.685Z</time>
      </trkpt>
      <trkpt lat="39.19928" lon="-1.7066">
        <ele>670.113234</ele>
        <time>2022-02-23T16:05:45.296Z</time>
      </trkpt>
      <trkpt lat="39.1984" lon="-1.70585">
        <ele>670.60829</ele>
        <time>2022-02-23T16:06:11.389Z</time>
      </trkpt>
      <trkpt lat="39.19798" lon="-1.70509">
        <ele>670.851829</ele>
        <time>2022-02-23T16:06:29.424Z</time>
      </trkpt>
      <trkpt lat="39.19703" lon="-1.70439">
        <ele>671.091998</ele>
        <time>2022-02-23T16:06:54.800Z</time>
      </trkpt>
      <trkpt lat="39.1966" lon="-1.70426">
        <ele>671.144785</ele>
        <time>2022-02-23T16:07:04.663Z</time>
      </trkpt>
      <trkpt lat="39.19576" lon="-1.70424">
        <ele>671.015602</ele>
        <time>2022-02-23T16:07:23.109Z</time>
      </trkpt>
      <trkpt lat="39.1947" lon="-1.70379">
        <ele>670.877141</ele>
        <time>2022-02-23T16:07:47.070Z</time>
      </trkpt>
      <trkpt lat="39.19405" lon="-1.70364">
        <ele>670.851171</ele>
        <time>2022-02-23T16:08:01.515Z</time>
      </trkpt>
      <trkpt lat="39.1938" lon="-1.7035">
        <ele>670.840506</ele>
        <time>2022-02-23T16:08:07.580Z</time>
      </trkpt>
      <trkpt lat="39.19315" lon="-1.70299">
        <ele>670.889227</ele>
        <time>2022-02-23T16:08:25.170Z</time>
      </trkpt>
      <trkpt lat="39.19221" lon="-1.70244">
        <ele>671.312008</ele>
        <time>2022-02-23T16:08:50.354Z</time>
      </trkpt>
      <trkpt lat="39.19158" lon="-1.70226">
        <ele>671.576709</ele>
        <time>2022-02-23T16:09:06.266Z</time>
      </trkpt>
      <trkpt lat="39.19069" lon="-1.70179">
        <ele>672.012636</ele>
        <time>2022-02-23T16:09:30.154Z</time>
      </trkpt>
      <trkpt lat="39.18932" lon="-1.70139">
        <ele>672.298227</ele>
        <time>2022-02-23T16:10:04.159Z</time>
      </trkpt>
      <trkpt lat="39.18868" lon="-1.70078">
        <ele>672.211533</ele>
        <time>2022-02-23T16:10:21.443Z</time>
      </trkpt>
      <trkpt lat="39.18733" lon="-1.69965">
        <ele>671.452007</ele>
        <time>2022-02-23T16:10:54.139Z</time>
      </trkpt>
      <trkpt lat="39.18628" lon="-1.69834">
        <ele>671.255007</ele>
        <time>2022-02-23T16:11:25.332Z</time>
      </trkpt>
      <trkpt lat="39.18604" lon="-1.69811">
        <ele>671.301845</ele>
        <time>2022-02-23T16:11:32.698Z</time>
      </trkpt>
      <trkpt lat="39.18564" lon="-1.6979">
        <ele>671.368753</ele>
        <time>2022-02-23T16:11:43.569Z</time>
      </trkpt>
      <trkpt lat="39.18496" lon="-1.69771">
        <ele>671.906006</ele>
        <time>2022-02-23T16:12:02.022Z</time>
      </trkpt>
      <trkpt lat="39.18423" lon="-1.69704">
        <ele>672.797523</ele>
        <time>2022-02-23T16:12:26.836Z</time>
      </trkpt>
      <trkpt lat="39.18321" lon="-1.69651">
        <ele>673.918381</ele>
        <time>2022-02-23T16:12:57.168Z</time>
      </trkpt>
      <trkpt lat="39.18082" lon="-1.69429">
        <ele>677.019665</ele>
        <time>2022-02-23T16:14:17.882Z</time>
      </trkpt>
      <trkpt lat="39.17974" lon="-1.69318">
        <ele>678.761154</ele>
        <time>2022-02-23T16:14:56.188Z</time>
      </trkpt>
      <trkpt lat="39.17789" lon="-1.69195">
        <ele>682.320683</ele>
        <time>2022-02-23T16:16:01.231Z</time>
      </trkpt>
      <trkpt lat="39.17672" lon="-1.69133">
        <ele>684.36358</ele>
        <time>2022-02-23T16:16:41.409Z</time>
      </trkpt>
      <trkpt lat="39.17639" lon="-1.69122">
        <ele>684.920649</ele>
        <time>2022-02-23T16:16:51.546Z</time>
      </trkpt>
      <trkpt lat="39.17608" lon="-1.69121">
        <ele>685.364235</ele>
        <time>2022-02-23T16:17:00.006Z</time>
      </trkpt>
      <trkpt lat="39.17514" lon="-1.6916">
        <ele>685.986781</ele>
        <time>2022-02-23T16:17:25.449Z</time>
      </trkpt>
      <trkpt lat="39.17409" lon="-1.69172">
        <ele>686.844667</ele>
        <time>2022-02-23T16:17:50.337Z</time>
      </trkpt>
      <trkpt lat="39.17368" lon="-1.69168">
        <ele>687.37716</ele>
        <time>2022-02-23T16:18:01.194Z</time>
      </trkpt>
      <trkpt lat="39.17283" lon="-1.69141">
        <ele>688.510853</ele>
        <time>2022-02-23T16:18:27.274Z</time>
      </trkpt>
      <trkpt lat="39.17251" lon="-1.69134">
        <ele>689.042346</ele>
        <time>2022-02-23T16:18:38.065Z</time>
      </trkpt>
      <trkpt lat="39.17082" lon="-1.69122">
        <ele>693.144296</ele>
        <time>2022-02-23T16:19:37.992Z</time>
      </trkpt>
      <trkpt lat="39.16964" lon="-1.6915">
        <ele>695.148297</ele>
        <time>2022-02-23T16:20:16.151Z</time>
      </trkpt>
      <trkpt lat="39.16897" lon="-1.69135">
        <ele>696.166809</ele>
        <time>2022-02-23T16:20:34.750Z</time>
      </trkpt>
      <trkpt lat="39.16867" lon="-1.69122">
        <ele>696.272058</ele>
        <time>2022-02-23T16:20:43.090Z</time>
      </trkpt>
      <trkpt lat="39.16854" lon="-1.69111">
        <ele>696.32687</ele>
        <time>2022-02-23T16:20:47.186Z</time>
      </trkpt>
      <trkpt lat="39.16798" lon="-1.69012">
        <ele>696.64227</ele>
        <time>2022-02-23T16:21:09.186Z</time>
      </trkpt>
      <trkpt lat="39.1678" lon="-1.68989">
        <ele>696.728774</ele>
        <time>2022-02-23T16:21:15.018Z</time>
      </trkpt>
      <trkpt lat="39.16738" lon="-1.68967">
        <ele>696.552444</ele>
        <time>2022-02-23T16:21:24.726Z</time>
      </trkpt>
      <trkpt lat="39.1667" lon="-1.6895">
        <ele>696.236281</ele>
        <time>2022-02-23T16:21:39.289Z</time>
      </trkpt>
      <trkpt lat="39.16599" lon="-1.68909">
        <ele>695.851458</ele>
        <time>2022-02-23T16:21:55.071Z</time>
      </trkpt>
      <trkpt lat="39.16564" lon="-1.68887">
        <ele>695.504438</ele>
        <time>2022-02-23T16:22:03.129Z</time>
      </trkpt>
      <trkpt lat="39.16471" lon="-1.68804">
        <ele>694.50452</ele>
        <time>2022-02-23T16:22:25.832Z</time>
      </trkpt>
      <trkpt lat="39.16441" lon="-1.68783">
        <ele>694.107976</ele>
        <time>2022-02-23T16:22:32.591Z</time>
      </trkpt>
      <trkpt lat="39.16404" lon="-1.68769">
        <ele>693.526995</ele>
        <time>2022-02-23T16:22:40.033Z</time>
      </trkpt>
      <trkpt lat="39.16322" lon="-1.68754">
        <ele>692.258025</ele>
        <time>2022-02-23T16:22:55.840Z</time>
      </trkpt>
      <trkpt lat="39.16301" lon="-1.68744">
        <ele>691.914893</ele>
        <time>2022-02-23T16:23:00.017Z</time>
      </trkpt>
      <trkpt lat="39.16134" lon="-1.68608">
        <ele>688.396833</ele>
        <time>2022-02-23T16:23:36.406Z</time>
      </trkpt>
      <trkpt lat="39.16102" lon="-1.68576">
        <ele>688.020649</ele>
        <time>2022-02-23T16:23:44.259Z</time>
      </trkpt>
      <trkpt lat="39.16045" lon="-1.68491">
        <ele>687.286368</ele>
        <time>2022-02-23T16:24:01.883Z</time>
      </trkpt>
      <trkpt lat="39.16026" lon="-1.68475">
        <ele>687.094087</ele>
        <time>2022-02-23T16:24:06.584Z</time>
      </trkpt>
      <trkpt lat="39.15977" lon="-1.68453">
        <ele>686.683702</ele>
        <time>2022-02-23T16:24:17.692Z</time>
      </trkpt>
      <trkpt lat="39.1592" lon="-1.68442">
        <ele>686.282013</ele>
        <time>2022-02-23T16:24:30.054Z</time>
      </trkpt>
      <trkpt lat="39.15732" lon="-1.68457">
        <ele>683.986625</ele>
        <time>2022-02-23T16:25:07.727Z</time>
      </trkpt>
      <trkpt lat="39.15712" lon="-1.6845">
        <ele>683.61517</ele>
        <time>2022-02-23T16:25:11.384Z</time>
      </trkpt>
      <trkpt lat="39.15696" lon="-1.68432">
        <ele>683.213768</ele>
        <time>2022-02-23T16:25:15.351Z</time>
      </trkpt>
      <trkpt lat="39.15675" lon="-1.68397">
        <ele>682.582638</ele>
        <time>2022-02-23T16:25:21.432Z</time>
      </trkpt>
      <trkpt lat="39.15598" lon="-1.68238">
        <ele>676.58641</ele>
        <time>2022-02-23T16:25:46.113Z</time>
      </trkpt>
      <trkpt lat="39.15564" lon="-1.68143">
        <ele>672.112155</ele>
        <time>2022-02-23T16:25:58.327Z</time>
      </trkpt>
      <trkpt lat="39.15543" lon="-1.68112">
        <ele>669.735913</ele>
        <time>2022-02-23T16:26:03.106Z</time>
      </trkpt>
      <trkpt lat="39.15515" lon="-1.68074">
        <ele>666.744163</ele>
        <time>2022-02-23T16:26:09.069Z</time>
      </trkpt>
      <trkpt lat="39.15488" lon="-1.67987">
        <ele>661.348585</ele>
        <time>2022-02-23T16:26:19.703Z</time>
      </trkpt>
      <trkpt lat="39.15455" lon="-1.67917">
        <ele>657.836548</ele>
        <time>2022-02-23T16:26:29.077Z</time>
      </trkpt>
      <trkpt lat="39.15435" lon="-1.67908">
        <ele>656.710601</ele>
        <time>2022-02-23T16:26:32.427Z</time>
      </trkpt>
      <trkpt lat="39.1538" lon="-1.67908">
        <ele>653.817668</ele>
        <time>2022-02-23T16:26:41.386Z</time>
      </trkpt>
      <trkpt lat="39.15271" lon="-1.67917">
        <ele>649.122605</ele>
        <time>2022-02-23T16:27:00.168Z</time>
      </trkpt>
      <trkpt lat="39.15224" lon="-1.67939">
        <ele>647.339156</ele>
        <time>2022-02-23T16:27:08.672Z</time>
      </trkpt>
      <trkpt lat="39.1518" lon="-1.67948">
        <ele>645.752695</ele>
        <time>2022-02-23T16:27:16.125Z</time>
      </trkpt>
      <trkpt lat="39.15088" lon="-1.67944">
        <ele>640.913664</ele>
        <time>2022-02-23T16:27:30.958Z</time>
      </trkpt>
      <trkpt lat="39.15019" lon="-1.67927">
        <ele>636.830519</ele>
        <time>2022-02-23T16:27:41.528Z</time>
      </trkpt>
      <trkpt lat="39.14996" lon="-1.67937">
        <ele>635.373557</ele>
        <time>2022-02-23T16:27:45.209Z</time>
      </trkpt>
      <trkpt lat="39.1496" lon="-1.67967">
        <ele>632.785088</ele>
        <time>2022-02-23T16:27:51.641Z</time>
      </trkpt>
      <trkpt lat="39.1494" lon="-1.67971">
        <ele>631.559756</ele>
        <time>2022-02-23T16:27:54.695Z</time>
      </trkpt>
      <trkpt lat="39.14911" lon="-1.67964">
        <ele>629.730994</ele>
        <time>2022-02-23T16:27:59.226Z</time>
      </trkpt>
      <trkpt lat="39.149" lon="-1.67953">
        <ele>628.848005</ele>
        <time>2022-02-23T16:28:03.060Z</time>
      </trkpt>
      <trkpt lat="39.14854" lon="-1.67943">
        <ele>625.97823</ele>
        <time>2022-02-23T16:28:16.139Z</time>
      </trkpt>
      <trkpt lat="39.14744" lon="-1.67852">
        <ele>619.656643</ele>
        <time>2022-02-23T16:28:53.290Z</time>
      </trkpt>
      <trkpt lat="39.14703" lon="-1.6783">
        <ele>617.80275</ele>
        <time>2022-02-23T16:29:07.156Z</time>
      </trkpt>
      <trkpt lat="39.14572" lon="-1.67789">
        <ele>612.573319</ele>
        <time>2022-02-23T16:29:48.818Z</time>
      </trkpt>
      <trkpt lat="39.14534" lon="-1.67762">
        <ele>610.942894</ele>
        <time>2022-02-23T16:30:01.781Z</time>
      </trkpt>
      <trkpt lat="39.14512" lon="-1.67733">
        <ele>609.786116</ele>
        <time>2022-02-23T16:30:10.998Z</time>
      </trkpt>
      <trkpt lat="39.14463" lon="-1.67646">
        <ele>606.499305</ele>
        <time>2022-02-23T16:30:24.588Z</time>
      </trkpt>
      <trkpt lat="39.1444" lon="-1.67633">
        <ele>605.484363</ele>
        <time>2022-02-23T16:30:28.734Z</time>
      </trkpt>
      <trkpt lat="39.14371" lon="-1.67629">
        <ele>602.732094</ele>
        <time>2022-02-23T16:30:39.977Z</time>
      </trkpt>
      <trkpt lat="39.14348" lon="-1.67628">
        <ele>601.936402</ele>
        <time>2022-02-23T16:30:43.874Z</time>
      </trkpt>
      <trkpt lat="39.1434" lon="-1.67619">
        <ele>601.92488</ele>
        <time>2022-02-23T16:30:45.598Z</time>
      </trkpt>
      <trkpt lat="39.1432" lon="-1.6762">
        <ele>601.902735</ele>
        <time>2022-02-23T16:30:49.104Z</time>
      </trkpt>
      <trkpt lat="39.14254" lon="-1.67634">
        <ele>601.829164</ele>
        <time>2022-02-23T16:31:01.626Z</time>
      </trkpt>
      <trkpt lat="39.14238" lon="-1.67632">
        <ele>601.811803</ele>
        <time>2022-02-23T16:31:05.169Z</time>
      </trkpt>
      <trkpt lat="39.14207" lon="-1.67598">
        <ele>601.766947</ele>
        <time>2022-02-23T16:31:17.302Z</time>
      </trkpt>
      <trkpt lat="39.14176" lon="-1.67542">
        <ele>603.610457</ele>
        <time>2022-02-23T16:31:41.987Z</time>
      </trkpt>
      <trkpt lat="39.14168" lon="-1.67506">
        <ele>605.393039</ele>
        <time>2022-02-23T16:31:57.221Z</time>
      </trkpt>
      <trkpt lat="39.14164" lon="-1.67439">
        <ele>608.564883</ele>
        <time>2022-02-23T16:32:24.144Z</time>
      </trkpt>
      <trkpt lat="39.14159" lon="-1.67413">
        <ele>609.841733</ele>
        <time>2022-02-23T16:32:34.977Z</time>
      </trkpt>
      <trkpt lat="39.14137" lon="-1.67361">
        <ele>612.682161</ele>
        <time>2022-02-23T16:33:02.372Z</time>
      </trkpt>
      <trkpt lat="39.14085" lon="-1.67375">
        <ele>617.3447</ele>
        <time>2022-02-23T16:33:39.302Z</time>
      </trkpt>
      <trkpt lat="39.14081" lon="-1.67389">
        <ele>618.376069</ele>
        <time>2022-02-23T16:33:47.825Z</time>
      </trkpt>
      <trkpt lat="39.14085" lon="-1.67422">
        <ele>620.670186</ele>
        <time>2022-02-23T16:34:06.843Z</time>
      </trkpt>
      <trkpt lat="39.14085" lon="-1.67425">
        <ele>620.919534</ele>
        <time>2022-02-23T16:34:08.591Z</time>
      </trkpt>
      <trkpt lat="39.14061" lon="-1.67439">
        <ele>623.295634</ele>
        <time>2022-02-23T16:34:27.897Z</time>
      </trkpt>
      <trkpt lat="39.14042" lon="-1.67461">
        <ele>625.580044</ele>
        <time>2022-02-23T16:34:43.552Z</time>
      </trkpt>
      <trkpt lat="39.13984" lon="-1.67476">
        <ele>631.151753</ele>
        <time>2022-02-23T16:35:20.633Z</time>
      </trkpt>
      <trkpt lat="39.13937" lon="-1.6749">
        <ele>636.160044</ele>
        <time>2022-02-23T16:35:57.202Z</time>
      </trkpt>
      <trkpt lat="39.13915" lon="-1.67522">
        <ele>639.537832</ele>
        <time>2022-02-23T16:36:24.220Z</time>
      </trkpt>
      <trkpt lat="39.1391" lon="-1.67524">
        <ele>640.165676</ele>
        <time>2022-02-23T16:36:28.668Z</time>
      </trkpt>
      <trkpt lat="39.13813" lon="-1.67496">
        <ele>649.738453</ele>
        <time>2022-02-23T16:37:45.255Z</time>
      </trkpt>
      <trkpt lat="39.13762" lon="-1.67512">
        <ele>653.936153</ele>
        <time>2022-02-23T16:38:19.118Z</time>
      </trkpt>
      <trkpt lat="39.13721" lon="-1.67504">
        <ele>657.305556</ele>
        <time>2022-02-23T16:38:47.639Z</time>
      </trkpt>
      <trkpt lat="39.13718" lon="-1.67523">
        <ele>658.552347</ele>
        <time>2022-02-23T16:38:56.477Z</time>
      </trkpt>
      <trkpt lat="39.13707" lon="-1.67538">
        <ele>659.870603</ele>
        <time>2022-02-23T16:39:05.608Z</time>
      </trkpt>
      <trkpt lat="39.13678" lon="-1.67539">
        <ele>661.92768</ele>
        <time>2022-02-23T16:39:19.338Z</time>
      </trkpt>
      <trkpt lat="39.13679" lon="-1.67543">
        <ele>662.005067</ele>
        <time>2022-02-23T16:39:20.736Z</time>
      </trkpt>
      <trkpt lat="39.13662" lon="-1.6754">
        <ele>662.389094</ele>
        <time>2022-02-23T16:39:27.791Z</time>
      </trkpt>
      <trkpt lat="39.13661" lon="-1.67544">
        <ele>662.465129</ele>
        <time>2022-02-23T16:39:29.213Z</time>
      </trkpt>
      <trkpt lat="39.13644" lon="-1.67587">
        <ele>663.33387</ele>
        <time>2022-02-23T16:39:43.840Z</time>
      </trkpt>
      <trkpt lat="39.13621" lon="-1.67589">
        <ele>663.8849</ele>
        <time>2022-02-23T16:39:52.706Z</time>
      </trkpt>
      <trkpt lat="39.13617" lon="-1.67585">
        <ele>663.998278</ele>
        <time>2022-02-23T16:39:54.065Z</time>
      </trkpt>
      <trkpt lat="39.13614" lon="-1.67585">
        <ele>664.071271</ele>
        <time>2022-02-23T16:39:54.910Z</time>
      </trkpt>
      <trkpt lat="39.13609" lon="-1.6764">
        <ele>665.076696</ele>
        <time>2022-02-23T16:40:08.213Z</time>
      </trkpt>
      <trkpt lat="39.13604" lon="-1.67646">
        <ele>665.245866</ele>
        <time>2022-02-23T16:40:10.026Z</time>
      </trkpt>
      <trkpt lat="39.1358" lon="-1.67642">
        <ele>665.811518</ele>
        <time>2022-02-23T16:40:16.562Z</time>
      </trkpt>
      <trkpt lat="39.13571" lon="-1.67628">
        <ele>666.011248</ele>
        <time>2022-02-23T16:40:19.783Z</time>
      </trkpt>
      <trkpt lat="39.13569" lon="-1.6766">
        <ele>665.730437</ele>
        <time>2022-02-23T16:40:25.520Z</time>
      </trkpt>
      <trkpt lat="39.13565" lon="-1.67669">
        <ele>665.645654</ele>
        <time>2022-02-23T16:40:27.062Z</time>
      </trkpt>
      <trkpt lat="39.13557" lon="-1.67667">
        <ele>665.556963</ele>
        <time>2022-02-23T16:40:28.746Z</time>
      </trkpt>
      <trkpt lat="39.13539" lon="-1.67664">
        <ele>665.353654</ele>
        <time>2022-02-23T16:40:32.578Z</time>
      </trkpt>
      <trkpt lat="39.13528" lon="-1.67662">
        <ele>665.229587</ele>
        <time>2022-02-23T16:40:34.755Z</time>
      </trkpt>
      <trkpt lat="39.13459" lon="-1.67658">
        <ele>664.466763</ele>
        <time>2022-02-23T16:40:48.356Z</time>
      </trkpt>
      <trkpt lat="39.1345" lon="-1.67661">
        <ele>664.356884</ele>
        <time>2022-02-23T16:40:50.250Z</time>
      </trkpt>
      <trkpt lat="39.13404" lon="-1.67698">
        <ele>663.674895</ele>
        <time>2022-02-23T16:41:00.800Z</time>
      </trkpt>
      <trkpt lat="39.13399" lon="-1.67704">
        <ele>663.575595</ele>
        <time>2022-02-23T16:41:02.167Z</time>
      </trkpt>
      <trkpt lat="39.13382" lon="-1.67722">
        <ele>663.26026</ele>
        <time>2022-02-23T16:41:06.519Z</time>
      </trkpt>
      <trkpt lat="39.13339" lon="-1.67766">
        <ele>662.475624</ele>
        <time>2022-02-23T16:41:17.410Z</time>
      </trkpt>
      <trkpt lat="39.13308" lon="-1.67798">
        <ele>661.906864</ele>
        <time>2022-02-23T16:41:25.463Z</time>
      </trkpt>
      <trkpt lat="39.1327" lon="-1.67837">
        <ele>661.346178</ele>
        <time>2022-02-23T16:41:35.460Z</time>
      </trkpt>
      <trkpt lat="39.13219" lon="-1.67851">
        <ele>660.983691</ele>
        <time>2022-02-23T16:41:46.158Z</time>
      </trkpt>
      <trkpt lat="39.13146" lon="-1.67869">
        <ele>660.459548</ele>
        <time>2022-02-23T16:42:02.336Z</time>
      </trkpt>
      <trkpt lat="39.13096" lon="-1.67881">
        <ele>660.220772</ele>
        <time>2022-02-23T16:42:13.651Z</time>
      </trkpt>
      <trkpt lat="39.13096" lon="-1.67891">
        <ele>660.223511</ele>
        <time>2022-02-23T16:42:15.561Z</time>
      </trkpt>
      <trkpt lat="39.13049" lon="-1.67927">
        <ele>660.242106</ele>
        <time>2022-02-23T16:42:27.466Z</time>
      </trkpt>
      <trkpt lat="39.12949" lon="-1.67984">
        <ele>660.256767</ele>
        <time>2022-02-23T16:42:53.668Z</time>
      </trkpt>
      <trkpt lat="39.12803" lon="-1.68009">
        <ele>659.907093</ele>
        <time>2022-02-23T16:43:25.954Z</time>
      </trkpt>
      <trkpt lat="39.12749" lon="-1.68042">
        <ele>659.358026</ele>
        <time>2022-02-23T16:43:37.941Z</time>
      </trkpt>
      <trkpt lat="39.12573" lon="-1.68172">
        <ele>656.841059</ele>
        <time>2022-02-23T16:44:16.152Z</time>
      </trkpt>
      <trkpt lat="39.12456" lon="-1.68214">
        <ele>655.731365</ele>
        <time>2022-02-23T16:44:40.808Z</time>
      </trkpt>
      <trkpt lat="39.12038" lon="-1.68352">
        <ele>656.356487</ele>
        <time>2022-02-23T16:46:22.746Z</time>
      </trkpt>
      <trkpt lat="39.11843" lon="-1.68385">
        <ele>656.317614</ele>
        <time>2022-02-23T16:47:03.828Z</time>
      </trkpt>
      <trkpt lat="39.11784" lon="-1.68388">
        <ele>656.431053</ele>
        <time>2022-02-23T16:47:17.558Z</time>
      </trkpt>
      <trkpt lat="39.11614" lon="-1.68391">
        <ele>659.105955</ele>
        <time>2022-02-23T16:48:10.155Z</time>
      </trkpt>
      <trkpt lat="39.11426" lon="-1.68463">
        <ele>663.488912</ele>
        <time>2022-02-23T16:49:20.014Z</time>
      </trkpt>
      <trkpt lat="39.11369" lon="-1.6848">
        <ele>664.355551</ele>
        <time>2022-02-23T16:49:36.893Z</time>
      </trkpt>
      <trkpt lat="39.11348" lon="-1.6848">
        <ele>664.517059</ele>
        <time>2022-02-23T16:49:42.163Z</time>
      </trkpt>
      <trkpt lat="39.11202" lon="-1.68452">
        <ele>665.744102</ele>
        <time>2022-02-23T16:50:18.064Z</time>
      </trkpt>
      <trkpt lat="39.11055" lon="-1.68425">
        <ele>667.388448</ele>
        <time>2022-02-23T16:50:59.822Z</time>
      </trkpt>
      <trkpt lat="39.10908" lon="-1.68396">
        <ele>669.892288</ele>
        <time>2022-02-23T16:51:46.505Z</time>
      </trkpt>
      <trkpt lat="39.10824" lon="-1.68353">
        <ele>671.079436</ele>
        <time>2022-02-23T16:52:14.283Z</time>
      </trkpt>
      <trkpt lat="39.10788" lon="-1.68357">
        <ele>671.440087</ele>
        <time>2022-02-23T16:52:24.627Z</time>
      </trkpt>
      <trkpt lat="39.10758" lon="-1.68377">
        <ele>671.769368</ele>
        <time>2022-02-23T16:52:33.626Z</time>
      </trkpt>
      <trkpt lat="39.10741" lon="-1.68396">
        <ele>671.994256</ele>
        <time>2022-02-23T16:52:39.560Z</time>
      </trkpt>
      <trkpt lat="39.10722" lon="-1.68416">
        <ele>672.240206</ele>
        <time>2022-02-23T16:52:45.800Z</time>
      </trkpt>
      <trkpt lat="39.10454" lon="-1.68545">
        <ele>671.752535</ele>
        <time>2022-02-23T16:53:46.736Z</time>
      </trkpt>
      <trkpt lat="39.10408" lon="-1.68584">
        <ele>671.650189</ele>
        <time>2022-02-23T16:53:58.586Z</time>
      </trkpt>
      <trkpt lat="39.10384" lon="-1.68612">
        <ele>671.592345</ele>
        <time>2022-02-23T16:54:06.063Z</time>
      </trkpt>
      <trkpt lat="39.10353" lon="-1.68662">
        <ele>671.851955</ele>
        <time>2022-02-23T16:54:17.976Z</time>
      </trkpt>
      <trkpt lat="39.10337" lon="-1.68702">
        <ele>672.035544</ele>
        <time>2022-02-23T16:54:26.651Z</time>
      </trkpt>
      <trkpt lat="39.10316" lon="-1.68787">
        <ele>672.400601</ele>
        <time>2022-02-23T16:54:44.671Z</time>
      </trkpt>
      <trkpt lat="39.10236" lon="-1.69437">
        <ele>675.77839</ele>
        <time>2022-02-23T16:56:53.527Z</time>
      </trkpt>
      <trkpt lat="39.10201" lon="-1.69704">
        <ele>678.381189</ele>
        <time>2022-02-23T16:57:56.109Z</time>
      </trkpt>
      <trkpt lat="39.10194" lon="-1.6973">
        <ele>678.662614</ele>
        <time>2022-02-23T16:58:01.760Z</time>
      </trkpt>
      <trkpt lat="39.10162" lon="-1.6979">
        <ele>678.714412</ele>
        <time>2022-02-23T16:58:16.861Z</time>
      </trkpt>
      <trkpt lat="39.09381" lon="-1.70858">
        <ele>678.760541</ele>
        <time>2022-02-23T17:02:28.348Z</time>
      </trkpt>
      <trkpt lat="39.08917" lon="-1.71496">
        <ele>678.959165</ele>
        <time>2022-02-23T17:05:02.451Z</time>
      </trkpt>
      <trkpt lat="39.08399" lon="-1.72195">
        <ele>675.78247</ele>
        <time>2022-02-23T17:07:40.463Z</time>
      </trkpt>
      <trkpt lat="39.08323" lon="-1.72329">
        <ele>674.864754</ele>
        <time>2022-02-23T17:08:05.825Z</time>
      </trkpt>
      <trkpt lat="39.08271" lon="-1.72394">
        <ele>674.383251</ele>
        <time>2022-02-23T17:08:20.243Z</time>
      </trkpt>
      <trkpt lat="39.08213" lon="-1.72456">
        <ele>674.119707</ele>
        <time>2022-02-23T17:08:36.539Z</time>
      </trkpt>
      <trkpt lat="39.08027" lon="-1.72703">
        <ele>675.410034</ele>
        <time>2022-02-23T17:09:46.184Z</time>
      </trkpt>
      <trkpt lat="39.07725" lon="-1.73106">
        <ele>674.867728</ele>
        <time>2022-02-23T17:11:21.174Z</time>
      </trkpt>
      <trkpt lat="39.07711" lon="-1.73138">
        <ele>674.37027</ele>
        <time>2022-02-23T17:11:26.768Z</time>
      </trkpt>
      <trkpt lat="39.07567" lon="-1.73601">
        <ele>667.344432</ele>
        <time>2022-02-23T17:12:37.268Z</time>
      </trkpt>
      <trkpt lat="39.07551" lon="-1.73641">
        <ele>666.919539</ele>
        <time>2022-02-23T17:12:44.211Z</time>
      </trkpt>
      <trkpt lat="39.07535" lon="-1.73657">
        <ele>666.686964</ele>
        <time>2022-02-23T17:12:48.124Z</time>
      </trkpt>
      <trkpt lat="39.07426" lon="-1.73703">
        <ele>665.964908</ele>
        <time>2022-02-23T17:13:12.297Z</time>
      </trkpt>
      <trkpt lat="39.07395" lon="-1.73726">
        <ele>666.017406</ele>
        <time>2022-02-23T17:13:20.369Z</time>
      </trkpt>
      <trkpt lat="39.07032" lon="-1.74272">
        <ele>667.0171</ele>
        <time>2022-02-23T17:15:30.593Z</time>
      </trkpt>
      <trkpt lat="39.06974" lon="-1.74338">
        <ele>667.273208</ele>
        <time>2022-02-23T17:15:49.867Z</time>
      </trkpt>
      <trkpt lat="39.06924" lon="-1.74367">
        <ele>667.635471</ele>
        <time>2022-02-23T17:16:03.308Z</time>
      </trkpt>
      <trkpt lat="39.06902" lon="-1.74372">
        <ele>667.781324</ele>
        <time>2022-02-23T17:16:08.813Z</time>
      </trkpt>
      <trkpt lat="39.06893" lon="-1.74367">
        <ele>667.848516</ele>
        <time>2022-02-23T17:16:11.257Z</time>
      </trkpt>
      <trkpt lat="39.06892" lon="-1.74366">
        <ele>667.854182</ele>
        <time>2022-02-23T17:16:11.464Z</time>
      </trkpt>
      <trkpt lat="39.06891" lon="-1.74366">
        <ele>667.857824</ele>
        <time>2022-02-23T17:16:11.583Z</time>
      </trkpt>
      <trkpt lat="39.06875" lon="-1.74356">
        <ele>667.977564</ele>
        <time>2022-02-23T17:16:16.198Z</time>
      </trkpt>
      <trkpt lat="39.06873" lon="-1.74355">
        <ele>667.992346</ele>
        <time>2022-02-23T17:16:16.762Z</time>
      </trkpt>
      <trkpt lat="39.06859" lon="-1.74353">
        <ele>668.088526</ele>
        <time>2022-02-23T17:16:20.467Z</time>
      </trkpt>
      <trkpt lat="39.06797" lon="-1.74401">
        <ele>668.603296</ele>
        <time>2022-02-23T17:16:39.955Z</time>
      </trkpt>
      <trkpt lat="39.06751" lon="-1.74425">
        <ele>669.046006</ele>
        <time>2022-02-23T17:16:53.316Z</time>
      </trkpt>
      <trkpt lat="39.06692" lon="-1.74427">
        <ele>669.576215</ele>
        <time>2022-02-23T17:17:09.085Z</time>
      </trkpt>
      <trkpt lat="39.06638" lon="-1.74427">
        <ele>670.056163</ele>
        <time>2022-02-23T17:17:23.353Z</time>
      </trkpt>
      <trkpt lat="39.0646" lon="-1.74427">
        <ele>671.411694</ele>
        <time>2022-02-23T17:18:09.515Z</time>
      </trkpt>
      <trkpt lat="39.06402" lon="-1.74427">
        <ele>672.135045</ele>
        <time>2022-02-23T17:18:24.764Z</time>
      </trkpt>
      <trkpt lat="39.06282" lon="-1.74427">
        <ele>673.67025</ele>
        <time>2022-02-23T17:18:59.440Z</time>
      </trkpt>
      <trkpt lat="39.06225" lon="-1.74427">
        <ele>675.167184</ele>
        <time>2022-02-23T17:19:18.791Z</time>
      </trkpt>
      <trkpt lat="39.05983" lon="-1.74421">
        <ele>682.450925</ele>
        <time>2022-02-23T17:20:49.931Z</time>
      </trkpt>
      <trkpt lat="39.05944" lon="-1.74413">
        <ele>683.791404</ele>
        <time>2022-02-23T17:21:05.879Z</time>
      </trkpt>
      <trkpt lat="39.05893" lon="-1.7437">
        <ele>685.868127</ele>
        <time>2022-02-23T17:21:30.788Z</time>
      </trkpt>
      <trkpt lat="39.05856" lon="-1.74358">
        <ele>687.197327</ele>
        <time>2022-02-23T17:21:46.987Z</time>
      </trkpt>
      <trkpt lat="39.05686" lon="-1.74373">
        <ele>691.607703</ele>
        <time>2022-02-23T17:22:53.074Z</time>
      </trkpt>
      <trkpt lat="39.05483" lon="-1.74437">
        <ele>692.26676</ele>
        <time>2022-02-23T17:23:38.196Z</time>
      </trkpt>
      <trkpt lat="39.05432" lon="-1.74436">
        <ele>691.960404</ele>
        <time>2022-02-23T17:23:48.209Z</time>
      </trkpt>
      <trkpt lat="39.05372" lon="-1.74455">
        <ele>691.55041</ele>
        <time>2022-02-23T17:24:00.606Z</time>
      </trkpt>
      <trkpt lat="39.05338" lon="-1.7448">
        <ele>691.258628</ele>
        <time>2022-02-23T17:24:08.611Z</time>
      </trkpt>
      <trkpt lat="39.05118" lon="-1.74774">
        <ele>689.073007</ele>
        <time>2022-02-23T17:25:13.465Z</time>
      </trkpt>
      <trkpt lat="39.04878" lon="-1.75103">
        <ele>687.355836</ele>
        <time>2022-02-23T17:26:27.376Z</time>
      </trkpt>
      <trkpt lat="39.04507" lon="-1.7561">
        <ele>684.016147</ele>
        <time>2022-02-23T17:28:19.039Z</time>
      </trkpt>
      <trkpt lat="39.04105" lon="-1.76165">
        <ele>679.329984</ele>
        <time>2022-02-23T17:30:17.436Z</time>
      </trkpt>
      <trkpt lat="39.03042" lon="-1.77715">
        <ele>677.726732</ele>
        <time>2022-02-23T17:36:11.729Z</time>
      </trkpt>
      <trkpt lat="39.02321" lon="-1.78764">
        <ele>675.734147</ele>
        <time>2022-02-23T17:40:07.327Z</time>
      </trkpt>
      <trkpt lat="39.02311" lon="-1.78782">
        <ele>675.735941</ele>
        <time>2022-02-23T17:40:11.140Z</time>
      </trkpt>
      <trkpt lat="39.02309" lon="-1.78803">
        <ele>675.737683</ele>
        <time>2022-02-23T17:40:14.794Z</time>
      </trkpt>
      <trkpt lat="39.02291" lon="-1.78834">
        <ele>675.740876</ele>
        <time>2022-02-23T17:40:21.637Z</time>
      </trkpt>
      <trkpt lat="39.02254" lon="-1.78882">
        <ele>675.746533</ele>
        <time>2022-02-23T17:40:33.907Z</time>
      </trkpt>
      <trkpt lat="39.02232" lon="-1.78889">
        <ele>675.794507</ele>
        <time>2022-02-23T17:40:39.143Z</time>
      </trkpt>
      <trkpt lat="39.01276" lon="-1.80284">
        <ele>679.308999</ele>
        <time>2022-02-23T17:46:18.902Z</time>
      </trkpt>
      <trkpt lat="39.01095" lon="-1.80545">
        <ele>679.466262</ele>
        <time>2022-02-23T17:47:18.766Z</time>
      </trkpt>
      <trkpt lat="39.00688" lon="-1.81139">
        <ele>681.485582</ele>
        <time>2022-02-23T17:49:46.822Z</time>
      </trkpt>
      <trkpt lat="39.00616" lon="-1.81216">
        <ele>681.75917</ele>
        <time>2022-02-23T17:50:09.204Z</time>
      </trkpt>
      <trkpt lat="39.0052" lon="-1.81288">
        <ele>681.842806</ele>
        <time>2022-02-23T17:50:35.384Z</time>
      </trkpt>
      <trkpt lat="39.00493" lon="-1.81318">
        <ele>681.721521</ele>
        <time>2022-02-23T17:50:43.466Z</time>
      </trkpt>
      <trkpt lat="39.00173" lon="-1.82257">
        <ele>679.013028</ele>
        <time>2022-02-23T17:53:31.980Z</time>
      </trkpt>
      <trkpt lat="39.00175" lon="-1.82281">
        <ele>678.952854</ele>
        <time>2022-02-23T17:53:36.028Z</time>
      </trkpt>
      <trkpt lat="39.00171" lon="-1.82298">
        <ele>678.930853</ele>
        <time>2022-02-23T17:53:39.012Z</time>
      </trkpt>
      <trkpt lat="39.00168" lon="-1.8231">
        <ele>678.958754</ele>
        <time>2022-02-23T17:53:41.063Z</time>
      </trkpt>
      <trkpt lat="39.00144" lon="-1.82333">
        <ele>679.048316</ele>
        <time>2022-02-23T17:53:47.731Z</time>
      </trkpt>
      <trkpt lat="38.99965" lon="-1.82828">
        <ele>680.00074</ele>
        <time>2022-02-23T17:55:29.759Z</time>
      </trkpt>
      <trkpt lat="38.99961" lon="-1.82841">
        <ele>680.001349</ele>
        <time>2022-02-23T17:55:32.326Z</time>
      </trkpt>
      <trkpt lat="38.99969" lon="-1.82851">
        <ele>680.001949</ele>
        <time>2022-02-23T17:55:34.626Z</time>
      </trkpt>
      <trkpt lat="38.99979" lon="-1.82849">
        <ele>680.002472</ele>
        <time>2022-02-23T17:55:36.620Z</time>
      </trkpt>
      <trkpt lat="39.00019" lon="-1.82813">
        <ele>679.934638</ele>
        <time>2022-02-23T17:55:46.974Z</time>
      </trkpt>
      <trkpt lat="39.00034" lon="-1.82806">
        <ele>679.81155</ele>
        <time>2022-02-23T17:55:50.077Z</time>
      </trkpt>
      <trkpt lat="39.0004" lon="-1.82814">
        <ele>679.738819</ele>
        <time>2022-02-23T17:55:51.858Z</time>
      </trkpt>
      <trkpt lat="39.00071" lon="-1.83034">
        <ele>678.465403</ele>
        <time>2022-02-23T17:56:26.732Z</time>
      </trkpt>
      <trkpt lat="39.00069" lon="-1.83049">
        <ele>678.42342</ele>
        <time>2022-02-23T17:56:29.191Z</time>
      </trkpt>
      <trkpt lat="39.00057" lon="-1.83068">
        <ele>678.354428</ele>
        <time>2022-02-23T17:56:33.220Z</time>
      </trkpt>
      <trkpt lat="39.0004" lon="-1.83086">
        <ele>678.278654</ele>
        <time>2022-02-23T17:56:37.680Z</time>
      </trkpt>
      <trkpt lat="38.99959" lon="-1.83109">
        <ele>677.981809</ele>
        <time>2022-02-23T17:56:55.921Z</time>
      </trkpt>
      <trkpt lat="38.9988" lon="-1.83152">
        <ele>677.903281</ele>
        <time>2022-02-23T17:57:15.145Z</time>
      </trkpt>
      <trkpt lat="38.9986" lon="-1.83171">
        <ele>677.896029</ele>
        <time>2022-02-23T17:57:20.902Z</time>
      </trkpt>
      <trkpt lat="38.99847" lon="-1.83185">
        <ele>677.891146</ele>
        <time>2022-02-23T17:57:24.656Z</time>
      </trkpt>
      <trkpt lat="38.99824" lon="-1.83227">
        <ele>677.879605</ele>
        <time>2022-02-23T17:57:33.562Z</time>
      </trkpt>
      <trkpt lat="38.9975" lon="-1.83497">
        <ele>677.831583</ele>
        <time>2022-02-23T17:58:22.200Z</time>
      </trkpt>
      <trkpt lat="38.99747" lon="-1.83526">
        <ele>677.943688</ele>
        <time>2022-02-23T17:58:27.558Z</time>
      </trkpt>
      <trkpt lat="38.99733" lon="-1.83553">
        <ele>678.065889</ele>
        <time>2022-02-23T17:58:33.579Z</time>
      </trkpt>
      <trkpt lat="38.99633" lon="-1.83928">
        <ele>679.883108</ele>
        <time>2022-02-23T17:59:53.332Z</time>
      </trkpt>
      <trkpt lat="38.9963" lon="-1.8394">
        <ele>679.894805</ele>
        <time>2022-02-23T17:59:55.734Z</time>
      </trkpt>
      <trkpt lat="38.99616" lon="-1.83993">
        <ele>679.94637</ele>
        <time>2022-02-23T18:00:05.814Z</time>
      </trkpt>
      <trkpt lat="38.99613" lon="-1.84005">
        <ele>679.95798</ele>
        <time>2022-02-23T18:00:07.982Z</time>
      </trkpt>
      <trkpt lat="38.99617" lon="-1.84026">
        <ele>679.977948</ele>
        <time>2022-02-23T18:00:11.911Z</time>
      </trkpt>
      <trkpt lat="38.99651" lon="-1.84054">
        <ele>680.024841</ele>
        <time>2022-02-23T18:00:20.688Z</time>
      </trkpt>
      <trkpt lat="38.99654" lon="-1.84067">
        <ele>680.037402</ele>
        <time>2022-02-23T18:00:22.967Z</time>
      </trkpt>
      <trkpt lat="38.99595" lon="-1.84184">
        <ele>680.317837</ele>
        <time>2022-02-23T18:00:46.660Z</time>
      </trkpt>
      <trkpt lat="38.99581" lon="-1.8418">
        <ele>680.365247</ele>
        <time>2022-02-23T18:00:49.806Z</time>
      </trkpt>
      <trkpt lat="38.99479" lon="-1.84098">
        <ele>681.025855</ele>
        <time>2022-02-23T18:01:20.007Z</time>
      </trkpt>
      <trkpt lat="38.99455" lon="-1.84113">
        <ele>681.385754</ele>
        <time>2022-02-23T18:01:27.776Z</time>
      </trkpt>
      <trkpt lat="38.99447" lon="-1.84119">
        <ele>681.516491</ele>
        <time>2022-02-23T18:01:30.773Z</time>
      </trkpt>
      <trkpt lat="38.99433" lon="-1.8415">
        <ele>681.910967</ele>
        <time>2022-02-23T18:01:39.932Z</time>
      </trkpt>
      <trkpt lat="38.99397" lon="-1.84212">
        <ele>682.736032</ele>
        <time>2022-02-23T18:01:58.856Z</time>
      </trkpt>
      <trkpt lat="38.99376" lon="-1.8425">
        <ele>683.215562</ele>
        <time>2022-02-23T18:02:09.795Z</time>
      </trkpt>
      <trkpt lat="38.99377" lon="-1.84265">
        <ele>683.300689</ele>
        <time>2022-02-23T18:02:13.099Z</time>
      </trkpt>
      <trkpt lat="38.99353" lon="-1.84308">
        <ele>683.586289</ele>
        <time>2022-02-23T18:02:25.249Z</time>
      </trkpt>
      <trkpt lat="38.99302" lon="-1.84392">
        <ele>684.172485</ele>
        <time>2022-02-23T18:02:47.963Z</time>
      </trkpt>
      <trkpt lat="38.99294" lon="-1.84411">
        <ele>684.291216</ele>
        <time>2022-02-23T18:02:51.723Z</time>
      </trkpt>
      <trkpt lat="38.99285" lon="-1.84447">
        <ele>684.503864</ele>
        <time>2022-02-23T18:02:57.943Z</time>
      </trkpt>
      <trkpt lat="38.99284" lon="-1.84451">
        <ele>684.530451</ele>
        <time>2022-02-23T18:02:58.738Z</time>
      </trkpt>
      <trkpt lat="38.99268" lon="-1.84448">
        <ele>684.656966</ele>
        <time>2022-02-23T18:03:02.157Z</time>
      </trkpt>
      <trkpt lat="38.99248" lon="-1.84465">
        <ele>684.855999</ele>
        <time>2022-02-23T18:03:07.665Z</time>
      </trkpt>
      <trkpt lat="38.99219" lon="-1.84493">
        <ele>685.153697</ele>
        <time>2022-02-23T18:03:16.830Z</time>
      </trkpt>
      <trkpt lat="38.99203" lon="-1.84508">
        <ele>685.323009</ele>
        <time>2022-02-23T18:03:22.106Z</time>
      </trkpt>
      <trkpt lat="38.99181" lon="-1.84537">
        <ele>685.578606</ele>
        <time>2022-02-23T18:03:31.266Z</time>
      </trkpt>
      <trkpt lat="38.99184" lon="-1.84542">
        <ele>685.625708</ele>
        <time>2022-02-23T18:03:33.225Z</time>
      </trkpt>
      <trkpt lat="38.99239" lon="-1.84622">
        <ele>687.072737</ele>
        <time>2022-02-23T18:04:05.452Z</time>
      </trkpt>
      <trkpt lat="38.99324" lon="-1.84749">
        <ele>690.461457</ele>
        <time>2022-02-23T18:05:04.339Z</time>
      </trkpt>
      <trkpt lat="38.99359" lon="-1.84803">
        <ele>691.103436</ele>
        <time>2022-02-23T18:05:25.101Z</time>
      </trkpt>
      <trkpt lat="38.99358" lon="-1.84804">
        <ele>691.123427</ele>
        <time>2022-02-23T18:05:25.770Z</time>
      </trkpt>
      <trkpt lat="38.99355" lon="-1.84807">
        <ele>691.152015</ele>
        <time>2022-02-23T18:05:26.872Z</time>
      </trkpt>
      <trkpt lat="38.99379" lon="-1.84836">
        <ele>691.488329</ele>
        <time>2022-02-23T18:05:38.239Z</time>
      </trkpt>
      <trkpt lat="38.99399" lon="-1.84862">
        <ele>691.77574</ele>
        <time>2022-02-23T18:05:47.592Z</time>
      </trkpt>
      <trkpt lat="38.99402" lon="-1.84858">
        <ele>691.824313</ele>
        <time>2022-02-23T18:05:49.135Z</time>
      </trkpt>
      <trkpt lat="38.99408" lon="-1.84852">
        <ele>691.896275</ele>
        <time>2022-02-23T18:05:51.519Z</time>
      </trkpt>
      <trkpt lat="38.99413" lon="-1.84855">
        <ele>691.956312</ele>
        <time>2022-02-23T18:05:53.334Z</time>
      </trkpt>
      <trkpt lat="38.99422" lon="-1.8485">
        <ele>692.056271</ele>
        <time>2022-02-23T18:05:56.071Z</time>
      </trkpt>
      <trkpt lat="38.99433" lon="-1.84854">
        <ele>692.173129</ele>
        <time>2022-02-23T18:05:59.872Z</time>
      </trkpt>
      <trkpt lat="38.99479" lon="-1.84913">
        <ele>692.25284</ele>
        <time>2022-02-23T18:06:18.602Z</time>
      </trkpt>
      <trkpt lat="38.9949" lon="-1.84934">
        <ele>692.154349</ele>
        <time>2022-02-23T18:06:24.034Z</time>
      </trkpt>
      <trkpt lat="38.99488" lon="-1.84946">
        <ele>692.10441</ele>
        <time>2022-02-23T18:06:26.629Z</time>
      </trkpt>
      <trkpt lat="38.9951" lon="-1.84978">
        <ele>691.939798</ele>
        <time>2022-02-23T18:06:35.564Z</time>
      </trkpt>
      <trkpt lat="38.99505" lon="-1.84991">
        <ele>691.884246</ele>
        <time>2022-02-23T18:06:38.537Z</time>
      </trkpt>
      <trkpt lat="38.9951" lon="-1.84998">
        <ele>691.846172</ele>
        <time>2022-02-23T18:06:40.667Z</time>
      </trkpt>
      <trkpt lat="38.99573" lon="-1.85112">
        <ele>691.109811</ele>
        <time>2022-02-23T18:07:10.587Z</time>
      </trkpt>
      <trkpt lat="38.996" lon="-1.85159">
        <ele>690.703915</ele>
        <time>2022-02-23T18:07:22.805Z</time>
      </trkpt>
      <trkpt lat="38.99611" lon="-1.85177">
        <ele>690.546993</ele>
        <time>2022-02-23T18:07:27.494Z</time>
      </trkpt>
      <trkpt lat="38.99637" lon="-1.85189">
        <ele>690.297641</ele>
        <time>2022-02-23T18:07:34.933Z</time>
      </trkpt>
      <trkpt lat="38.99671" lon="-1.85197">
        <ele>689.987673</ele>
        <time>2022-02-23T18:07:44.151Z</time>
      </trkpt>
      <trkpt lat="38.99676" lon="-1.85198">
        <ele>689.943445</ele>
        <time>2022-02-23T18:07:45.490Z</time>
      </trkpt>
      <trkpt lat="38.99702" lon="-1.85198">
        <ele>689.715495</ele>
        <time>2022-02-23T18:07:52.451Z</time>
      </trkpt>
      <trkpt lat="38.99705" lon="-1.85201">
        <ele>689.676881</ele>
        <time>2022-02-23T18:07:53.317Z</time>
      </trkpt>
      <trkpt lat="38.99724" lon="-1.85221">
        <ele>689.467486</ele>
        <time>2022-02-23T18:07:58.277Z</time>
      </trkpt>
      <trkpt lat="38.99727" lon="-1.85227">
        <ele>689.420008</ele>
        <time>2022-02-23T18:07:59.405Z</time>
      </trkpt>
      <trkpt lat="38.99742" lon="-1.85249">
        <ele>689.224795</ele>
        <time>2022-02-23T18:08:04.005Z</time>
      </trkpt>
      <trkpt lat="38.9982" lon="-1.85298">
        <ele>688.463814</ele>
        <time>2022-02-23T18:08:22.904Z</time>
      </trkpt>
      <trkpt lat="38.99854" lon="-1.85326">
        <ele>688.106723</ele>
        <time>2022-02-23T18:08:31.746Z</time>
      </trkpt>
      <trkpt lat="38.99939" lon="-1.85409">
        <ele>687.140519</ele>
        <time>2022-02-23T18:08:53.860Z</time>
      </trkpt>
      <trkpt lat="38.99947" lon="-1.85409">
        <ele>687.074452</ele>
        <time>2022-02-23T18:08:55.397Z</time>
      </trkpt>
      <trkpt lat="38.99952" lon="-1.85401">
        <ele>686.999763</ele>
        <time>2022-02-23T18:08:57.224Z</time>
      </trkpt>
      <trkpt lat="38.99958" lon="-1.85403">
        <ele>686.949521</ele>
        <time>2022-02-23T18:08:58.653Z</time>
      </trkpt>
      <trkpt lat="38.99965" lon="-1.85407">
        <ele>686.876084</ele>
        <time>2022-02-23T18:09:00.156Z</time>
      </trkpt>
      <trkpt lat="38.99975" lon="-1.85439">
        <ele>686.646332</ele>
        <time>2022-02-23T18:09:06.028Z</time>
      </trkpt>
      <trkpt lat="38.99988" lon="-1.85453">
        <ele>686.51942</ele>
        <time>2022-02-23T18:09:09.220Z</time>
      </trkpt>
      <trkpt lat="38.99983" lon="-1.85458">
        <ele>686.46795</ele>
        <time>2022-02-23T18:09:10.620Z</time>
      </trkpt>
      <trkpt lat="38.9998" lon="-1.85462">
        <ele>686.435734</ele>
        <time>2022-02-23T18:09:11.546Z</time>
      </trkpt>
      <trkpt lat="38.99969" lon="-1.85469">
        <ele>686.339549</ele>
        <time>2022-02-23T18:09:14.186Z</time>
      </trkpt>
      <trkpt lat="38.99973" lon="-1.85537">
        <ele>685.933019</ele>
        <time>2022-02-23T18:09:25.005Z</time>
      </trkpt>
      <trkpt lat="38.99974" lon="-1.85543">
        <ele>685.89559</ele>
        <time>2022-02-23T18:09:26.094Z</time>
      </trkpt>
      <trkpt lat="38.99983" lon="-1.85679">
        <ele>685.450703</ele>
        <time>2022-02-23T18:09:49.875Z</time>
      </trkpt>
      <trkpt lat="38.99992" lon="-1.85797">
        <ele>685.665728</ele>
        <time>2022-02-23T18:10:13.026Z</time>
      </trkpt>
      <trkpt lat="38.99993" lon="-1.85809">
        <ele>685.687454</ele>
        <time>2022-02-23T18:10:15.319Z</time>
      </trkpt>
      <trkpt lat="38.99994" lon="-1.85823">
        <ele>685.713887</ele>
        <time>2022-02-23T18:10:18.200Z</time>
      </trkpt>
      <trkpt lat="38.99997" lon="-1.85862">
        <ele>685.784559</ele>
        <time>2022-02-23T18:10:25.884Z</time>
      </trkpt>
      <trkpt lat="38.99998" lon="-1.85876">
        <ele>685.766383</ele>
        <time>2022-02-23T18:10:28.792Z</time>
      </trkpt>
      <trkpt lat="38.99999" lon="-1.8589">
        <ele>685.744718</ele>
        <time>2022-02-23T18:10:31.739Z</time>
      </trkpt>
      <trkpt lat="39.00005" lon="-1.85976">
        <ele>685.61224</ele>
        <time>2022-02-23T18:10:47.919Z</time>
      </trkpt>
      <trkpt lat="39.00005" lon="-1.86035">
        <ele>685.522796</ele>
        <time>2022-02-23T18:10:57.963Z</time>
      </trkpt>
      <trkpt lat="39.00001" lon="-1.86035">
        <ele>685.514469</ele>
        <time>2022-02-23T18:10:58.842Z</time>
      </trkpt>
      <trkpt lat="38.99994" lon="-1.8604">
        <ele>685.498804</ele>
        <time>2022-02-23T18:11:00.580Z</time>
      </trkpt>
      <trkpt lat="38.99995" lon="-1.86054">
        <ele>685.477779</ele>
        <time>2022-02-23T18:11:02.922Z</time>
      </trkpt>
      <trkpt lat="38.99986" lon="-1.86093">
        <ele>685.342667</ele>
        <time>2022-02-23T18:11:09.629Z</time>
      </trkpt>
      <trkpt lat="38.99989" lon="-1.86097">
        <ele>685.296654</ele>
        <time>2022-02-23T18:11:10.507Z</time>
      </trkpt>
      <trkpt lat="39.00059" lon="-1.86181">
        <ele>684.266703</ele>
        <time>2022-02-23T18:11:29.736Z</time>
      </trkpt>
      <trkpt lat="39.00069" lon="-1.86194">
        <ele>684.11647</ele>
        <time>2022-02-23T18:11:32.641Z</time>
      </trkpt>
      <trkpt lat="39.00089" lon="-1.86217">
        <ele>683.833409</ele>
        <time>2022-02-23T18:11:38.123Z</time>
      </trkpt>
      <trkpt lat="39.00126" lon="-1.86263">
        <ele>683.489969</ele>
        <time>2022-02-23T18:11:49.019Z</time>
      </trkpt>
      <trkpt lat="39.00138" lon="-1.86277">
        <ele>683.482781</ele>
        <time>2022-02-23T18:11:52.564Z</time>
      </trkpt>
      <trkpt lat="39.00182" lon="-1.8633">
        <ele>683.456501</ele>
        <time>2022-02-23T18:12:05.987Z</time>
      </trkpt>
      <trkpt lat="39.00199" lon="-1.86349">
        <ele>683.44671</ele>
        <time>2022-02-23T18:12:11.175Z</time>
      </trkpt>
      <trkpt lat="39.0023" lon="-1.86385">
        <ele>683.42877</ele>
        <time>2022-02-23T18:12:21.315Z</time>
      </trkpt>
      <trkpt lat="39.00271" lon="-1.86436">
        <ele>683.521451</ele>
        <time>2022-02-23T18:12:38.740Z</time>
      </trkpt>
      <trkpt lat="39.00276" lon="-1.86441">
        <ele>683.537098</ele>
        <time>2022-02-23T18:12:40.311Z</time>
      </trkpt>
      <trkpt lat="39.00314" lon="-1.8649">
        <ele>683.67751</ele>
        <time>2022-02-23T18:12:53.893Z</time>
      </trkpt>
      <trkpt lat="39.00318" lon="-1.86494">
        <ele>683.691347</ele>
        <time>2022-02-23T18:12:55.285Z</time>
      </trkpt>
      <trkpt lat="39.0032" lon="-1.86491">
        <ele>683.701095</ele>
        <time>2022-02-23T18:12:56.253Z</time>
      </trkpt>
      <trkpt lat="39.00323" lon="-1.86494">
        <ele>683.710465</ele>
        <time>2022-02-23T18:12:57.062Z</time>
      </trkpt>
      <trkpt lat="39.00364" lon="-1.86544">
        <ele>683.857853</ele>
        <time>2022-02-23T18:13:09.518Z</time>
      </trkpt>
      <trkpt lat="39.0037" lon="-1.86541">
        <ele>683.874966</ele>
        <time>2022-02-23T18:13:11.084Z</time>
      </trkpt>
      <trkpt lat="39.00375" lon="-1.86539">
        <ele>683.888305</ele>
        <time>2022-02-23T18:13:12.282Z</time>
      </trkpt>
      <trkpt lat="39.00376" lon="-1.86541">
        <ele>683.875113</ele>
        <time>2022-02-23T18:13:12.697Z</time>
      </trkpt>
      <trkpt lat="39.00384" lon="-1.86556">
        <ele>683.723179</ele>
        <time>2022-02-23T18:13:15.824Z</time>
      </trkpt>
      <trkpt lat="39.00389" lon="-1.86566">
        <ele>683.628984</ele>
        <time>2022-02-23T18:13:17.796Z</time>
      </trkpt>
      <trkpt lat="39.00395" lon="-1.86576">
        <ele>683.525628</ele>
        <time>2022-02-23T18:13:20.100Z</time>
      </trkpt>
      <trkpt lat="39.00391" lon="-1.86582">
        <ele>683.456383</ele>
        <time>2022-02-23T18:13:21.581Z</time>
      </trkpt>
      <trkpt lat="39.00383" lon="-1.86597">
        <ele>683.306777</ele>
        <time>2022-02-23T18:13:24.604Z</time>
      </trkpt>
      <trkpt lat="39.00347" lon="-1.86645">
        <ele>682.765718</ele>
        <time>2022-02-23T18:13:35.444Z</time>
      </trkpt>
      <trkpt lat="39.00344" lon="-1.86649">
        <ele>682.726527</ele>
        <time>2022-02-23T18:13:36.200Z</time>
      </trkpt>
      <trkpt lat="39.00339" lon="-1.8666">
        <ele>682.617459</ele>
        <time>2022-02-23T18:13:38.248Z</time>
      </trkpt>
      <trkpt lat="39.00315" lon="-1.86749">
        <ele>681.925421</ele>
        <time>2022-02-23T18:13:52.298Z</time>
      </trkpt>
      <trkpt lat="39.00288" lon="-1.86858">
        <ele>681.407834</ele>
        <time>2022-02-23T18:14:10.907Z</time>
      </trkpt>
      <trkpt lat="39.00257" lon="-1.86986">
        <ele>681.207953</ele>
        <time>2022-02-23T18:14:36.486Z</time>
      </trkpt>
      <trkpt lat="39.00249" lon="-1.86983">
        <ele>681.280873</ele>
        <time>2022-02-23T18:14:38.709Z</time>
      </trkpt>
      <trkpt lat="39.0024" lon="-1.86979">
        <ele>681.353793</ele>
        <time>2022-02-23T18:14:41.254Z</time>
      </trkpt>
      <trkpt lat="39.00233" lon="-1.87008">
        <ele>681.555154</ele>
        <time>2022-02-23T18:14:47.667Z</time>
      </trkpt>
      <trkpt lat="39.00229" lon="-1.87021">
        <ele>681.645385</ele>
        <time>2022-02-23T18:14:50.887Z</time>
      </trkpt>
      <trkpt lat="39.00219" lon="-1.87063">
        <ele>681.93044</ele>
        <time>2022-02-23T18:15:00.605Z</time>
      </trkpt>
      <trkpt lat="39.00208" lon="-1.87111">
        <ele>682.256718</ele>
        <time>2022-02-23T18:15:11.822Z</time>
      </trkpt>
      <trkpt lat="39.00204" lon="-1.87126">
        <ele>682.364269</ele>
        <time>2022-02-23T18:15:15.489Z</time>
      </trkpt>
      <trkpt lat="39.00193" lon="-1.8717">
        <ele>682.610287</ele>
        <time>2022-02-23T18:15:25.866Z</time>
      </trkpt>
      <trkpt lat="39.00149" lon="-1.87348">
        <ele>683.456061</ele>
        <time>2022-02-23T18:16:03.595Z</time>
      </trkpt>
      <trkpt lat="39.00108" lon="-1.87517">
        <ele>683.359005</ele>
        <time>2022-02-23T18:16:35.858Z</time>
      </trkpt>
      <trkpt lat="39.001" lon="-1.87551">
        <ele>683.320784</ele>
        <time>2022-02-23T18:16:42.023Z</time>
      </trkpt>
      <trkpt lat="39.00089" lon="-1.87561">
        <ele>683.303377</ele>
        <time>2022-02-23T18:16:44.675Z</time>
      </trkpt>
      <trkpt lat="39.00087" lon="-1.87563">
        <ele>683.299394</ele>
        <time>2022-02-23T18:16:45.265Z</time>
      </trkpt>
      <trkpt lat="39.00087" lon="-1.87565">
        <ele>683.297576</ele>
        <time>2022-02-23T18:16:45.554Z</time>
      </trkpt>
      <trkpt lat="39.0009" lon="-1.87582">
        <ele>683.246273</ele>
        <time>2022-02-23T18:16:48.539Z</time>
      </trkpt>
      <trkpt lat="39.00077" lon="-1.87632">
        <ele>682.811414</ele>
        <time>2022-02-23T18:16:56.951Z</time>
      </trkpt>
      <trkpt lat="39.00076" lon="-1.87636">
        <ele>682.770627</ele>
        <time>2022-02-23T18:16:57.702Z</time>
      </trkpt>
      <trkpt lat="39.00065" lon="-1.87669">
        <ele>682.470359</ele>
        <time>2022-02-23T18:17:03.428Z</time>
      </trkpt>
      <trkpt lat="39.00049" lon="-1.87681">
        <ele>682.274785</ele>
        <time>2022-02-23T18:17:07.074Z</time>
      </trkpt>
      <trkpt lat="39.00039" lon="-1.8771">
        <ele>682.009535</ele>
        <time>2022-02-23T18:17:12.082Z</time>
      </trkpt>
      <trkpt lat="39.00048" lon="-1.87757">
        <ele>681.60109</ele>
        <time>2022-02-23T18:17:19.687Z</time>
      </trkpt>
      <trkpt lat="39.00043" lon="-1.87777">
        <ele>681.428228</ele>
        <time>2022-02-23T18:17:22.877Z</time>
      </trkpt>
      <trkpt lat="38.99733" lon="-1.88883">
        <ele>677.07399</ele>
        <time>2022-02-23T18:20:43.792Z</time>
      </trkpt>
      <trkpt lat="38.99716" lon="-1.88943">
        <ele>676.839119</ele>
        <time>2022-02-23T18:20:54.581Z</time>
      </trkpt>
      <trkpt lat="38.99694" lon="-1.88952">
        <ele>676.731449</ele>
        <time>2022-02-23T18:20:59.499Z</time>
      </trkpt>
      <trkpt lat="38.99688" lon="-1.88995">
        <ele>676.573374</ele>
        <time>2022-02-23T18:21:06.727Z</time>
      </trkpt>
      <trkpt lat="38.99673" lon="-1.8904">
        <ele>676.393705</ele>
        <time>2022-02-23T18:21:15.071Z</time>
      </trkpt>
      <trkpt lat="38.99661" lon="-1.89101">
        <ele>676.236044</ele>
        <time>2022-02-23T18:21:26.049Z</time>
      </trkpt>
      <trkpt lat="38.99661" lon="-1.89145">
        <ele>676.191562</ele>
        <time>2022-02-23T18:21:33.721Z</time>
      </trkpt>
      <trkpt lat="38.99679" lon="-1.89156">
        <ele>676.165937</ele>
        <time>2022-02-23T18:21:38.109Z</time>
      </trkpt>
      <trkpt lat="38.99645" lon="-1.89257">
        <ele>676.054997</ele>
        <time>2022-02-23T18:21:57.757Z</time>
      </trkpt>
      <trkpt lat="38.99563" lon="-1.89355">
        <ele>676.155734</ele>
        <time>2022-02-23T18:22:24.537Z</time>
      </trkpt>
      <trkpt lat="38.99536" lon="-1.89435">
        <ele>676.247853</ele>
        <time>2022-02-23T18:22:40.513Z</time>
      </trkpt>
      <trkpt lat="38.99383" lon="-1.90037">
        <ele>677.439651</ele>
        <time>2022-02-23T18:24:41.512Z</time>
      </trkpt>
      <trkpt lat="38.99307" lon="-1.9031">
        <ele>677.302102</ele>
        <time>2022-02-23T18:25:33.107Z</time>
      </trkpt>
      <trkpt lat="38.99201" lon="-1.90593">
        <ele>676.657965</ele>
        <time>2022-02-23T18:26:27.139Z</time>
      </trkpt>
      <trkpt lat="38.98977" lon="-1.91064">
        <ele>676.997603</ele>
        <time>2022-02-23T18:28:10.307Z</time>
      </trkpt>
      <trkpt lat="38.98914" lon="-1.91185">
        <ele>676.828613</ele>
        <time>2022-02-23T18:28:35.637Z</time>
      </trkpt>
      <trkpt lat="38.9891" lon="-1.91193">
        <ele>676.797903</ele>
        <time>2022-02-23T18:28:37.380Z</time>
      </trkpt>
      <trkpt lat="38.98903" lon="-1.91205">
        <ele>676.7537</ele>
        <time>2022-02-23T18:28:39.881Z</time>
      </trkpt>
      <trkpt lat="38.9889" lon="-1.91192">
        <ele>676.692855</ele>
        <time>2022-02-23T18:28:43.218Z</time>
      </trkpt>
      <trkpt lat="38.98759" lon="-1.91348">
        <ele>676.496753</ele>
        <time>2022-02-23T18:29:22.821Z</time>
      </trkpt>
      <trkpt lat="38.98582" lon="-1.9173">
        <ele>678.163544</ele>
        <time>2022-02-23T18:30:55.215Z</time>
      </trkpt>
      <trkpt lat="38.98534" lon="-1.91831">
        <ele>678.376191</ele>
        <time>2022-02-23T18:31:16.404Z</time>
      </trkpt>
      <trkpt lat="38.98388" lon="-1.92148">
        <ele>678.067731</ele>
        <time>2022-02-23T18:32:21.421Z</time>
      </trkpt>
      <trkpt lat="38.98293" lon="-1.92348">
        <ele>678.113157</ele>
        <time>2022-02-23T18:33:04.781Z</time>
      </trkpt>
      <trkpt lat="38.98235" lon="-1.92482">
        <ele>678.122692</ele>
        <time>2022-02-23T18:33:32.253Z</time>
      </trkpt>
      <trkpt lat="38.98148" lon="-1.92671">
        <ele>677.771695</ele>
        <time>2022-02-23T18:34:10.651Z</time>
      </trkpt>
      <trkpt lat="38.97951" lon="-1.93203">
        <ele>676.502657</ele>
        <time>2022-02-23T18:35:52.737Z</time>
      </trkpt>
      <trkpt lat="38.97921" lon="-1.93351">
        <ele>676.915767</ele>
        <time>2022-02-23T18:36:20.968Z</time>
      </trkpt>
      <trkpt lat="38.97876" lon="-1.93671">
        <ele>679.633371</ele>
        <time>2022-02-23T18:37:36.132Z</time>
      </trkpt>
      <trkpt lat="38.97876" lon="-1.93744">
        <ele>680.284276</ele>
        <time>2022-02-23T18:37:52.479Z</time>
      </trkpt>
      <trkpt lat="38.97893" lon="-1.93789">
        <ele>680.425163</ele>
        <time>2022-02-23T18:38:03.072Z</time>
      </trkpt>
      <trkpt lat="38.97933" lon="-1.93843">
        <ele>680.633898</ele>
        <time>2022-02-23T18:38:17.797Z</time>
      </trkpt>
      <trkpt lat="38.9796" lon="-1.93922">
        <ele>680.877169</ele>
        <time>2022-02-23T18:38:33.449Z</time>
      </trkpt>
      <trkpt lat="38.97966" lon="-1.9434">
        <ele>680.214915</ele>
        <time>2022-02-23T18:39:46.226Z</time>
      </trkpt>
      <trkpt lat="38.97985" lon="-1.94437">
        <ele>680.156285</ele>
        <time>2022-02-23T18:40:04.052Z</time>
      </trkpt>
      <trkpt lat="38.97955" lon="-1.9483">
        <ele>680.455059</ele>
        <time>2022-02-23T18:41:17.580Z</time>
      </trkpt>
      <trkpt lat="38.97965" lon="-1.94893">
        <ele>680.479119</ele>
        <time>2022-02-23T18:41:29.159Z</time>
      </trkpt>
      <trkpt lat="38.97963" lon="-1.94922">
        <ele>680.480927</ele>
        <time>2022-02-23T18:41:34.275Z</time>
      </trkpt>
      <trkpt lat="38.97973" lon="-1.95008">
        <ele>680.486457</ele>
        <time>2022-02-23T18:41:49.819Z</time>
      </trkpt>
      <trkpt lat="38.97966" lon="-1.95193">
        <ele>680.698658</ele>
        <time>2022-02-23T18:42:23.805Z</time>
      </trkpt>
      <trkpt lat="38.97688" lon="-1.95538">
        <ele>681.611206</ele>
        <time>2022-02-23T18:43:55.654Z</time>
      </trkpt>
      <trkpt lat="38.97682" lon="-1.95545">
        <ele>681.626979</ele>
        <time>2022-02-23T18:43:57.446Z</time>
      </trkpt>
      <trkpt lat="38.97679" lon="-1.9555">
        <ele>681.637038</ele>
        <time>2022-02-23T18:43:58.603Z</time>
      </trkpt>
      <trkpt lat="38.9753" lon="-1.9573">
        <ele>681.840285</ele>
        <time>2022-02-23T18:44:43.742Z</time>
      </trkpt>
      <trkpt lat="38.96921" lon="-1.96475">
        <ele>684.67258</ele>
        <time>2022-02-23T18:48:06.440Z</time>
      </trkpt>
      <trkpt lat="38.96668" lon="-1.96789">
        <ele>685.176478</ele>
        <time>2022-02-23T18:49:25.868Z</time>
      </trkpt>
      <trkpt lat="38.96064" lon="-1.97529">
        <ele>686.776084</ele>
        <time>2022-02-23T18:52:39.335Z</time>
      </trkpt>
      <trkpt lat="38.95937" lon="-1.97675">
        <ele>687.46772</ele>
        <time>2022-02-23T18:53:21.224Z</time>
      </trkpt>
      <trkpt lat="38.95874" lon="-1.97732">
        <ele>687.607684</ele>
        <time>2022-02-23T18:53:40.035Z</time>
      </trkpt>
      <trkpt lat="38.95737" lon="-1.9782">
        <ele>687.613407</ele>
        <time>2022-02-23T18:54:14.211Z</time>
      </trkpt>
      <trkpt lat="38.95639" lon="-1.97865">
        <ele>687.293787</ele>
        <time>2022-02-23T18:54:35.870Z</time>
      </trkpt>
      <trkpt lat="38.95515" lon="-1.97899">
        <ele>687.105382</ele>
        <time>2022-02-23T18:55:02.814Z</time>
      </trkpt>
      <trkpt lat="38.95459" lon="-1.9791">
        <ele>687.037231</ele>
        <time>2022-02-23T18:55:15.812Z</time>
      </trkpt>
      <trkpt lat="38.95324" lon="-1.97908">
        <ele>687.362944</ele>
        <time>2022-02-23T18:55:48.528Z</time>
      </trkpt>
      <trkpt lat="38.94726" lon="-1.97856">
        <ele>687.914907</ele>
        <time>2022-02-23T18:58:04.635Z</time>
      </trkpt>
      <trkpt lat="38.94691" lon="-1.97852">
        <ele>687.818541</ele>
        <time>2022-02-23T18:58:12.104Z</time>
      </trkpt>
      <trkpt lat="38.9462" lon="-1.97846">
        <ele>687.60905</ele>
        <time>2022-02-23T18:58:27.312Z</time>
      </trkpt>
      <trkpt lat="38.94504" lon="-1.97857">
        <ele>687.301353</ele>
        <time>2022-02-23T18:58:51.958Z</time>
      </trkpt>
      <trkpt lat="38.94422" lon="-1.9788">
        <ele>687.124711</ele>
        <time>2022-02-23T18:59:10.103Z</time>
      </trkpt>
      <trkpt lat="38.94326" lon="-1.97922">
        <ele>687.005971</ele>
        <time>2022-02-23T18:59:32.478Z</time>
      </trkpt>
      <trkpt lat="38.94222" lon="-1.97992">
        <ele>687.000698</ele>
        <time>2022-02-23T18:59:58.983Z</time>
      </trkpt>
      <trkpt lat="38.94161" lon="-1.98048">
        <ele>687.02021</ele>
        <time>2022-02-23T19:00:15.457Z</time>
      </trkpt>
      <trkpt lat="38.94079" lon="-1.98144">
        <ele>687.058526</ele>
        <time>2022-02-23T19:00:40.168Z</time>
      </trkpt>
      <trkpt lat="38.93691" lon="-1.98615">
        <ele>688.260239</ele>
        <time>2022-02-23T19:02:44.748Z</time>
      </trkpt>
      <trkpt lat="38.9331" lon="-1.99081">
        <ele>690.333715</ele>
        <time>2022-02-23T19:04:53.166Z</time>
      </trkpt>
      <trkpt lat="38.92973" lon="-1.99491">
        <ele>690.397217</ele>
        <time>2022-02-23T19:06:35.614Z</time>
      </trkpt>
      <trkpt lat="38.92745" lon="-1.99768">
        <ele>691.370832</ele>
        <time>2022-02-23T19:07:51.019Z</time>
      </trkpt>
      <trkpt lat="38.92524" lon="-2.00039">
        <ele>692.356226</ele>
        <time>2022-02-23T19:09:03.830Z</time>
      </trkpt>
      <trkpt lat="38.92293" lon="-2.00321">
        <ele>693.838886</ele>
        <time>2022-02-23T19:10:21.924Z</time>
      </trkpt>
      <trkpt lat="38.91957" lon="-2.00729">
        <ele>696.113519</ele>
        <time>2022-02-23T19:12:17.838Z</time>
      </trkpt>
      <trkpt lat="38.91939" lon="-2.00774">
        <ele>696.073469</ele>
        <time>2022-02-23T19:12:26.783Z</time>
      </trkpt>
      <trkpt lat="38.91632" lon="-2.01135">
        <ele>695.735685</ele>
        <time>2022-02-23T19:13:56.596Z</time>
      </trkpt>
      <trkpt lat="38.91618" lon="-2.01142">
        <ele>695.730279</ele>
        <time>2022-02-23T19:13:59.817Z</time>
      </trkpt>
      <trkpt lat="38.91605" lon="-2.01159">
        <ele>695.723329</ele>
        <time>2022-02-23T19:14:04.370Z</time>
      </trkpt>
      <trkpt lat="38.9148" lon="-2.01308">
        <ele>696.331376</ele>
        <time>2022-02-23T19:14:46.427Z</time>
      </trkpt>
      <trkpt lat="38.91362" lon="-2.01477">
        <ele>696.737544</ele>
        <time>2022-02-23T19:15:27.803Z</time>
      </trkpt>
      <trkpt lat="38.91322" lon="-2.01552">
        <ele>696.951214</ele>
        <time>2022-02-23T19:15:43.635Z</time>
      </trkpt>
      <trkpt lat="38.91279" lon="-2.01664">
        <ele>697.304266</ele>
        <time>2022-02-23T19:16:06.320Z</time>
      </trkpt>
      <trkpt lat="38.91149" lon="-2.02068">
        <ele>699.660193</ele>
        <time>2022-02-23T19:17:35.783Z</time>
      </trkpt>
      <trkpt lat="38.90431" lon="-2.04379">
        <ele>708.658847</ele>
        <time>2022-02-23T19:25:30.596Z</time>
      </trkpt>
      <trkpt lat="38.90429" lon="-2.04383">
        <ele>708.680329</ele>
        <time>2022-02-23T19:25:31.617Z</time>
      </trkpt>
      <trkpt lat="38.9042" lon="-2.04412">
        <ele>708.807739</ele>
        <time>2022-02-23T19:25:37.796Z</time>
      </trkpt>
      <trkpt lat="38.89965" lon="-2.05864">
        <ele>715.431186</ele>
        <time>2022-02-23T19:30:52.553Z</time>
      </trkpt>
      <trkpt lat="38.89641" lon="-2.06902">
        <ele>721.830479</ele>
        <time>2022-02-23T19:34:46.930Z</time>
      </trkpt>
      <trkpt lat="38.88874" lon="-2.09339">
        <ele>738.530801</ele>
        <time>2022-02-23T19:44:03.981Z</time>
      </trkpt>
      <trkpt lat="38.88377" lon="-2.10942">
        <ele>750.213429</ele>
        <time>2022-02-23T19:50:14.723Z</time>
      </trkpt>
      <trkpt lat="38.88345" lon="-2.11045">
        <ele>750.289845</ele>
        <time>2022-02-23T19:50:35.706Z</time>
      </trkpt>
      <trkpt lat="38.88369" lon="-2.11071">
        <ele>750.317756</ele>
        <time>2022-02-23T19:50:47.372Z</time>
      </trkpt>
      <trkpt lat="38.88538" lon="-2.11251">
        <ele>749.750556</ele>
        <time>2022-02-23T19:52:06.327Z</time>
      </trkpt>
      <trkpt lat="38.89018" lon="-2.11767">
        <ele>748.619147</ele>
        <time>2022-02-23T19:55:54.409Z</time>
      </trkpt>
      <trkpt lat="38.89043" lon="-2.11828">
        <ele>748.731739</ele>
        <time>2022-02-23T19:56:15.063Z</time>
      </trkpt>
      <trkpt lat="38.8901" lon="-2.11897">
        <ele>748.928305</ele>
        <time>2022-02-23T19:56:40.004Z</time>
      </trkpt>
      <trkpt lat="38.88689" lon="-2.12245">
        <ele>752.371065</ele>
        <time>2022-02-23T19:59:35.689Z</time>
      </trkpt>
      <trkpt lat="38.88678" lon="-2.12283">
        <ele>752.484556</ele>
        <time>2022-02-23T19:59:47.635Z</time>
      </trkpt>
      <trkpt lat="38.88739" lon="-2.12315">
        <ele>752.715747</ele>
        <time>2022-02-23T20:00:11.869Z</time>
      </trkpt>
      <trkpt lat="38.88799" lon="-2.12379">
        <ele>752.817495</ele>
        <time>2022-02-23T20:00:40.476Z</time>
      </trkpt>
      <trkpt lat="38.88825" lon="-2.12407">
        <ele>752.846963</ele>
        <time>2022-02-23T20:00:52.761Z</time>
      </trkpt>
      <trkpt lat="38.88869" lon="-2.12506">
        <ele>752.962559</ele>
        <time>2022-02-23T20:01:26.901Z</time>
      </trkpt>
      <trkpt lat="38.88732" lon="-2.12841">
        <ele>754.610895</ele>
        <time>2022-02-23T20:02:41.369Z</time>
      </trkpt>
      <trkpt lat="38.88266" lon="-2.13799">
        <ele>759.744543</ele>
        <time>2022-02-23T20:06:23.013Z</time>
      </trkpt>
      <trkpt lat="38.88246" lon="-2.1385">
        <ele>759.943943</ele>
        <time>2022-02-23T20:06:34.164Z</time>
      </trkpt>
      <trkpt lat="38.88233" lon="-2.13892">
        <ele>760.076984</ele>
        <time>2022-02-23T20:06:42.699Z</time>
      </trkpt>
      <trkpt lat="38.88218" lon="-2.1395">
        <ele>759.905502</ele>
        <time>2022-02-23T20:06:53.200Z</time>
      </trkpt>
      <trkpt lat="38.88169" lon="-2.14157">
        <ele>759.350273</ele>
        <time>2022-02-23T20:07:27.907Z</time>
      </trkpt>
      <trkpt lat="38.88153" lon="-2.14225">
        <ele>759.228564</ele>
        <time>2022-02-23T20:07:39.359Z</time>
      </trkpt>
      <trkpt lat="38.88144" lon="-2.14262">
        <ele>759.160749</ele>
        <time>2022-02-23T20:07:46.089Z</time>
      </trkpt>
      <trkpt lat="38.88123" lon="-2.14352">
        <ele>759.106776</ele>
        <time>2022-02-23T20:08:03.227Z</time>
      </trkpt>
      <trkpt lat="38.88117" lon="-2.14369">
        <ele>759.162414</ele>
        <time>2022-02-23T20:08:06.921Z</time>
      </trkpt>
      <trkpt lat="38.88113" lon="-2.1438">
        <ele>759.197799</ele>
        <time>2022-02-23T20:08:09.405Z</time>
      </trkpt>
      <trkpt lat="38.88092" lon="-2.1443">
        <ele>759.362182</ele>
        <time>2022-02-23T20:08:20.663Z</time>
      </trkpt>
      <trkpt lat="38.88023" lon="-2.14555">
        <ele>759.752493</ele>
        <time>2022-02-23T20:08:48.885Z</time>
      </trkpt>
      <trkpt lat="38.8801" lon="-2.14581">
        <ele>759.79084</ele>
        <time>2022-02-23T20:08:54.297Z</time>
      </trkpt>
      <trkpt lat="38.87958" lon="-2.14673">
        <ele>759.933111</ele>
        <time>2022-02-23T20:09:14.217Z</time>
      </trkpt>
      <trkpt lat="38.87941" lon="-2.14705">
        <ele>759.981193</ele>
        <time>2022-02-23T20:09:21.018Z</time>
      </trkpt>
      <trkpt lat="38.87864" lon="-2.14846">
        <ele>760.730199</ele>
        <time>2022-02-23T20:09:53.451Z</time>
      </trkpt>
      <trkpt lat="38.87859" lon="-2.14859">
        <ele>760.801836</ele>
        <time>2022-02-23T20:09:56.724Z</time>
      </trkpt>
      <trkpt lat="38.87857" lon="-2.14862">
        <ele>760.816609</ele>
        <time>2022-02-23T20:09:57.397Z</time>
      </trkpt>
      <trkpt lat="38.87829" lon="-2.14943">
        <ele>761.380358</ele>
        <time>2022-02-23T20:10:16.254Z</time>
      </trkpt>
      <trkpt lat="38.87822" lon="-2.14992">
        <ele>761.837212</ele>
        <time>2022-02-23T20:10:27.310Z</time>
      </trkpt>
      <trkpt lat="38.87822" lon="-2.15015">
        <ele>762.055717</ele>
        <time>2022-02-23T20:10:32.379Z</time>
      </trkpt>
      <trkpt lat="38.87823" lon="-2.15077">
        <ele>762.624479</ele>
        <time>2022-02-23T20:10:46.280Z</time>
      </trkpt>
      <trkpt lat="38.87826" lon="-2.15131">
        <ele>763.126713</ele>
        <time>2022-02-23T20:10:58.336Z</time>
      </trkpt>
      <trkpt lat="38.87834" lon="-2.153">
        <ele>764.678702</ele>
        <time>2022-02-23T20:11:36.045Z</time>
      </trkpt>
      <trkpt lat="38.87841" lon="-2.15411">
        <ele>765.555188</ele>
        <time>2022-02-23T20:11:59.413Z</time>
      </trkpt>
      <trkpt lat="38.87858" lon="-2.155">
        <ele>766.06451</ele>
        <time>2022-02-23T20:12:18.021Z</time>
      </trkpt>
      <trkpt lat="38.87888" lon="-2.15583">
        <ele>766.568692</ele>
        <time>2022-02-23T20:12:35.895Z</time>
      </trkpt>
      <trkpt lat="38.88071" lon="-2.15982">
        <ele>768.383314</ele>
        <time>2022-02-23T20:14:04.491Z</time>
      </trkpt>
      <trkpt lat="38.88089" lon="-2.16043">
        <ele>768.902772</ele>
        <time>2022-02-23T20:14:17.816Z</time>
      </trkpt>
      <trkpt lat="38.88107" lon="-2.16135">
        <ele>769.681145</ele>
        <time>2022-02-23T20:14:37.810Z</time>
      </trkpt>
      <trkpt lat="38.88127" lon="-2.16221">
        <ele>770.487883</ele>
        <time>2022-02-23T20:14:58.267Z</time>
      </trkpt>
      <trkpt lat="38.88235" lon="-2.16544">
        <ele>775.280205</ele>
        <time>2022-02-23T20:16:22.661Z</time>
      </trkpt>
      <trkpt lat="38.88249" lon="-2.16587">
        <ele>775.959497</ele>
        <time>2022-02-23T20:16:34.485Z</time>
      </trkpt>
      <trkpt lat="38.88243" lon="-2.16602">
        <ele>776.212025</ele>
        <time>2022-02-23T20:16:40.494Z</time>
      </trkpt>
      <trkpt lat="38.88225" lon="-2.16616">
        <ele>776.610407</ele>
        <time>2022-02-23T20:16:51.066Z</time>
      </trkpt>
      <trkpt lat="38.88205" lon="-2.16623">
        <ele>777.050392</ele>
        <time>2022-02-23T20:17:00.439Z</time>
      </trkpt>
      <trkpt lat="38.88179" lon="-2.16617">
        <ele>777.661492</ele>
        <time>2022-02-23T20:17:13.630Z</time>
      </trkpt>
      <trkpt lat="38.88182" lon="-2.17069">
        <ele>784.627924</ele>
        <time>2022-02-23T20:19:15.920Z</time>
      </trkpt>
      <trkpt lat="38.88227" lon="-2.17489">
        <ele>783.025172</ele>
        <time>2022-02-23T20:20:24.073Z</time>
      </trkpt>
      <trkpt lat="38.88268" lon="-2.17858">
        <ele>787.269127</ele>
        <time>2022-02-23T20:21:59.888Z</time>
      </trkpt>
      <trkpt lat="38.88264" lon="-2.17957">
        <ele>788.249799</ele>
        <time>2022-02-23T20:22:18.845Z</time>
      </trkpt>
      <trkpt lat="38.88255" lon="-2.18015">
        <ele>788.710498</ele>
        <time>2022-02-23T20:22:30.176Z</time>
      </trkpt>
      <trkpt lat="38.88236" lon="-2.1808">
        <ele>789.255373</ele>
        <time>2022-02-23T20:22:43.222Z</time>
      </trkpt>
      <trkpt lat="38.88085" lon="-2.1855">
        <ele>796.507555</ele>
        <time>2022-02-23T20:24:58.906Z</time>
      </trkpt>
      <trkpt lat="38.88073" lon="-2.18608">
        <ele>797.020471</ele>
        <time>2022-02-23T20:25:11.168Z</time>
      </trkpt>
      <trkpt lat="38.88039" lon="-2.18873">
        <ele>796.092155</ele>
        <time>2022-02-23T20:25:56.377Z</time>
      </trkpt>
      <trkpt lat="38.88015" lon="-2.18982">
        <ele>795.208452</ele>
        <time>2022-02-23T20:26:14.984Z</time>
      </trkpt>
      <trkpt lat="38.8798" lon="-2.19057">
        <ele>794.342114</ele>
        <time>2022-02-23T20:26:28.617Z</time>
      </trkpt>
      <trkpt lat="38.87942" lon="-2.19124">
        <ele>793.102996</ele>
        <time>2022-02-23T20:26:40.902Z</time>
      </trkpt>
      <trkpt lat="38.87848" lon="-2.19264">
        <ele>791.481011</ele>
        <time>2022-02-23T20:27:08.433Z</time>
      </trkpt>
      <trkpt lat="38.87808" lon="-2.19342">
        <ele>791.795081</ele>
        <time>2022-02-23T20:27:25.634Z</time>
      </trkpt>
      <trkpt lat="38.87769" lon="-2.19461">
        <ele>793.604928</ele>
        <time>2022-02-23T20:28:03.387Z</time>
      </trkpt>
      <trkpt lat="38.87729" lon="-2.19603">
        <ele>797.94687</ele>
        <time>2022-02-23T20:28:56.483Z</time>
      </trkpt>
      <trkpt lat="38.87701" lon="-2.19683">
        <ele>799.052605</ele>
        <time>2022-02-23T20:29:24.149Z</time>
      </trkpt>
      <trkpt lat="38.87675" lon="-2.19737">
        <ele>799.436478</ele>
        <time>2022-02-23T20:29:38.660Z</time>
      </trkpt>
      <trkpt lat="38.87617" lon="-2.19821">
        <ele>800.049714</ele>
        <time>2022-02-23T20:29:56.599Z</time>
      </trkpt>
      <trkpt lat="38.87585" lon="-2.19855">
        <ele>799.832333</ele>
        <time>2022-02-23T20:30:04.648Z</time>
      </trkpt>
      <trkpt lat="38.87568" lon="-2.19867">
        <ele>799.731899</ele>
        <time>2022-02-23T20:30:08.127Z</time>
      </trkpt>
      <trkpt lat="38.87481" lon="-2.19915">
        <ele>799.236701</ele>
        <time>2022-02-23T20:30:28.118Z</time>
      </trkpt>
      <trkpt lat="38.87181" lon="-2.20019">
        <ele>805.906362</ele>
        <time>2022-02-23T20:32:28.599Z</time>
      </trkpt>
      <trkpt lat="38.87056" lon="-2.20063">
        <ele>805.203635</ele>
        <time>2022-02-23T20:32:55.579Z</time>
      </trkpt>
      <trkpt lat="38.86906" lon="-2.20108">
        <ele>801.524838</ele>
        <time>2022-02-23T20:33:21.955Z</time>
      </trkpt>
      <trkpt lat="38.86581" lon="-2.20216">
        <ele>799.756296</ele>
        <time>2022-02-23T20:34:42.197Z</time>
      </trkpt>
      <trkpt lat="38.86454" lon="-2.20246">
        <ele>797.024577</ele>
        <time>2022-02-23T20:35:06.820Z</time>
      </trkpt>
      <trkpt lat="38.86448" lon="-2.20253">
        <ele>796.851514</ele>
        <time>2022-02-23T20:35:08.085Z</time>
      </trkpt>
      <trkpt lat="38.86442" lon="-2.20358">
        <ele>795.041051</ele>
        <time>2022-02-23T20:35:22.829Z</time>
      </trkpt>
      <trkpt lat="38.86429" lon="-2.2037">
        <ele>794.673071</ele>
        <time>2022-02-23T20:35:25.899Z</time>
      </trkpt>
      <trkpt lat="38.86429" lon="-2.20382">
        <ele>794.465734</ele>
        <time>2022-02-23T20:35:27.347Z</time>
      </trkpt>
      <trkpt lat="38.86428" lon="-2.20471">
        <ele>792.878029</ele>
        <time>2022-02-23T20:35:40.375Z</time>
      </trkpt>
      <trkpt lat="38.86432" lon="-2.20503">
        <ele>792.30377</ele>
        <time>2022-02-23T20:35:45.683Z</time>
      </trkpt>
      <trkpt lat="38.86332" lon="-2.2054">
        <ele>792.396392</ele>
        <time>2022-02-23T20:36:11.106Z</time>
      </trkpt>
      <trkpt lat="38.86282" lon="-2.20553">
        <ele>792.551631</ele>
        <time>2022-02-23T20:36:24.773Z</time>
      </trkpt>
      <trkpt lat="38.86228" lon="-2.20549">
        <ele>792.831593</ele>
        <time>2022-02-23T20:36:39.194Z</time>
      </trkpt>
      <trkpt lat="38.86167" lon="-2.20535">
        <ele>793.36403</ele>
        <time>2022-02-23T20:36:56.051Z</time>
      </trkpt>
      <trkpt lat="38.86119" lon="-2.20546">
        <ele>793.781626</ele>
        <time>2022-02-23T20:37:09.278Z</time>
      </trkpt>
      <trkpt lat="38.86076" lon="-2.20567">
        <ele>794.178375</ele>
        <time>2022-02-23T20:37:22.152Z</time>
      </trkpt>
      <trkpt lat="38.85994" lon="-2.20642">
        <ele>795.489991</ele>
        <time>2022-02-23T20:37:51.304Z</time>
      </trkpt>
      <trkpt lat="38.85984" lon="-2.20655">
        <ele>795.675422</ele>
        <time>2022-02-23T20:37:55.815Z</time>
      </trkpt>
      <trkpt lat="38.8598" lon="-2.20691">
        <ele>796.038954</ele>
        <time>2022-02-23T20:38:04.431Z</time>
      </trkpt>
      <trkpt lat="38.85997" lon="-2.20805">
        <ele>797.232745</ele>
        <time>2022-02-23T20:38:32.488Z</time>
      </trkpt>
      <trkpt lat="38.86009" lon="-2.2084">
        <ele>797.629241</ele>
        <time>2022-02-23T20:38:41.902Z</time>
      </trkpt>
      <trkpt lat="38.86058" lon="-2.20957">
        <ele>798.958528</ele>
        <time>2022-02-23T20:39:11.886Z</time>
      </trkpt>
      <trkpt lat="38.86071" lon="-2.2101">
        <ele>799.218396</ele>
        <time>2022-02-23T20:39:23.906Z</time>
      </trkpt>
      <trkpt lat="38.86075" lon="-2.21049">
        <ele>799.404006</ele>
        <time>2022-02-23T20:39:31.410Z</time>
      </trkpt>
      <trkpt lat="38.86073" lon="-2.21085">
        <ele>799.568145</ele>
        <time>2022-02-23T20:39:37.968Z</time>
      </trkpt>
      <trkpt lat="38.86049" lon="-2.21189">
        <ele>800.194851</ele>
        <time>2022-02-23T20:39:59.086Z</time>
      </trkpt>
      <trkpt lat="38.86041" lon="-2.21215">
        <ele>800.580328</ele>
        <time>2022-02-23T20:40:05.148Z</time>
      </trkpt>
      <trkpt lat="38.85998" lon="-2.21295">
        <ele>801.906193</ele>
        <time>2022-02-23T20:40:28.502Z</time>
      </trkpt>
      <trkpt lat="38.85923" lon="-2.21416">
        <ele>804.829484</ele>
        <time>2022-02-23T20:41:11.788Z</time>
      </trkpt>
      <trkpt lat="38.85894" lon="-2.21482">
        <ele>806.868814</ele>
        <time>2022-02-23T20:41:39.206Z</time>
      </trkpt>
      <trkpt lat="38.85869" lon="-2.21509">
        <ele>808.004223</ele>
        <time>2022-02-23T20:41:54.039Z</time>
      </trkpt>
      <trkpt lat="38.85857" lon="-2.21535">
        <ele>808.808344</ele>
        <time>2022-02-23T20:42:03.342Z</time>
      </trkpt>
      <trkpt lat="38.85817" lon="-2.2158">
        <ele>809.595008</ele>
        <time>2022-02-23T20:42:21.709Z</time>
      </trkpt>
      <trkpt lat="38.85779" lon="-2.21622">
        <ele>809.925116</ele>
        <time>2022-02-23T20:42:36.726Z</time>
      </trkpt>
      <trkpt lat="38.85731" lon="-2.21663">
        <ele>810.308363</ele>
        <time>2022-02-23T20:42:50.733Z</time>
      </trkpt>
      <trkpt lat="38.85707" lon="-2.21709">
        <ele>810.363867</ele>
        <time>2022-02-23T20:42:59.788Z</time>
      </trkpt>
      <trkpt lat="38.85682" lon="-2.218">
        <ele>808.794127</ele>
        <time>2022-02-23T20:43:13.491Z</time>
      </trkpt>
      <trkpt lat="38.85671" lon="-2.21872">
        <ele>807.590205</ele>
        <time>2022-02-23T20:43:24.069Z</time>
      </trkpt>
      <trkpt lat="38.85665" lon="-2.21958">
        <ele>806.948625</ele>
        <time>2022-02-23T20:43:37.126Z</time>
      </trkpt>
      <trkpt lat="38.85637" lon="-2.22086">
        <ele>807.623964</ele>
        <time>2022-02-23T20:44:00.119Z</time>
      </trkpt>
      <trkpt lat="38.85631" lon="-2.2209">
        <ele>807.671234</ele>
        <time>2022-02-23T20:44:01.845Z</time>
      </trkpt>
      <trkpt lat="38.85446" lon="-2.22087">
        <ele>814.589392</ele>
        <time>2022-02-23T20:45:27.588Z</time>
      </trkpt>
      <trkpt lat="38.85436" lon="-2.22087">
        <ele>815.062124</ele>
        <time>2022-02-23T20:45:32.473Z</time>
      </trkpt>
      <trkpt lat="38.85379" lon="-2.22084">
        <ele>817.192185</ele>
        <time>2022-02-23T20:46:02.410Z</time>
      </trkpt>
      <trkpt lat="38.85361" lon="-2.22098">
        <ele>817.835842</ele>
        <time>2022-02-23T20:46:11.117Z</time>
      </trkpt>
      <trkpt lat="38.8535" lon="-2.22119">
        <ele>818.423454</ele>
        <time>2022-02-23T20:46:20.924Z</time>
      </trkpt>
      <trkpt lat="38.85326" lon="-2.22178">
        <ele>819.960427</ele>
        <time>2022-02-23T20:46:40.335Z</time>
      </trkpt>
      <trkpt lat="38.85296" lon="-2.2223">
        <ele>821.488013</ele>
        <time>2022-02-23T20:46:57.887Z</time>
      </trkpt>
      <trkpt lat="38.85252" lon="-2.22284">
        <ele>821.051788</ele>
        <time>2022-02-23T20:47:09.885Z</time>
      </trkpt>
      <trkpt lat="38.85197" lon="-2.22333">
        <ele>820.302842</ele>
        <time>2022-02-23T20:47:22.229Z</time>
      </trkpt>
      <trkpt lat="38.85146" lon="-2.22362">
        <ele>819.668858</ele>
        <time>2022-02-23T20:47:33.549Z</time>
      </trkpt>
      <trkpt lat="38.84784" lon="-2.22476">
        <ele>821.520528</ele>
        <time>2022-02-23T20:49:11.294Z</time>
      </trkpt>
      <trkpt lat="38.84738" lon="-2.22496">
        <ele>821.891674</ele>
        <time>2022-02-23T20:49:25.246Z</time>
      </trkpt>
      <trkpt lat="38.84691" lon="-2.2252">
        <ele>822.280623</ele>
        <time>2022-02-23T20:49:38.998Z</time>
      </trkpt>
      <trkpt lat="38.84672" lon="-2.22485">
        <ele>822.534202</ele>
        <time>2022-02-23T20:49:47.320Z</time>
      </trkpt>
      <trkpt lat="38.84654" lon="-2.22502">
        <ele>822.704462</ele>
        <time>2022-02-23T20:49:52.714Z</time>
      </trkpt>
      <trkpt lat="38.84639" lon="-2.22537">
        <ele>822.981185</ele>
        <time>2022-02-23T20:50:00.634Z</time>
      </trkpt>
      <trkpt lat="38.8464" lon="-2.22553">
        <ele>823.099601</ele>
        <time>2022-02-23T20:50:03.891Z</time>
      </trkpt>
      <trkpt lat="38.84651" lon="-2.22583">
        <ele>823.357769</ele>
        <time>2022-02-23T20:50:11.933Z</time>
      </trkpt>
      <trkpt lat="38.8465" lon="-2.22596">
        <ele>823.465717</ele>
        <time>2022-02-23T20:50:15.993Z</time>
      </trkpt>
      <trkpt lat="38.84644" lon="-2.2261">
        <ele>823.587554</ele>
        <time>2022-02-23T20:50:20.322Z</time>
      </trkpt>
      <trkpt lat="38.84595" lon="-2.22668">
        <ele>824.246083</ele>
        <time>2022-02-23T20:50:40.444Z</time>
      </trkpt>
      <trkpt lat="38.84562" lon="-2.22678">
        <ele>824.582807</ele>
        <time>2022-02-23T20:50:48.691Z</time>
      </trkpt>
      <trkpt lat="38.8454" lon="-2.22677">
        <ele>824.400538</ele>
        <time>2022-02-23T20:50:53.509Z</time>
      </trkpt>
      <trkpt lat="38.84526" lon="-2.22665">
        <ele>824.230695</ele>
        <time>2022-02-23T20:50:58.392Z</time>
      </trkpt>
      <trkpt lat="38.84194" lon="-2.22982">
        <ele>820.595495</ele>
        <time>2022-02-23T20:52:22.661Z</time>
      </trkpt>
      <trkpt lat="38.84184" lon="-2.22992">
        <ele>820.550514</ele>
        <time>2022-02-23T20:52:25.348Z</time>
      </trkpt>
      <trkpt lat="38.84001" lon="-2.23165">
        <ele>822.037476</ele>
        <time>2022-02-23T20:53:26.345Z</time>
      </trkpt>
      <trkpt lat="38.83915" lon="-2.23265">
        <ele>825.110175</ele>
        <time>2022-02-23T20:54:09.025Z</time>
      </trkpt>
      <trkpt lat="38.83755" lon="-2.23497">
        <ele>833.076924</ele>
        <time>2022-02-23T20:55:50.926Z</time>
      </trkpt>
      <trkpt lat="38.8374" lon="-2.2355">
        <ele>834.228697</ele>
        <time>2022-02-23T20:56:06.132Z</time>
      </trkpt>
      <trkpt lat="38.83699" lon="-2.23617">
        <ele>834.745438</ele>
        <time>2022-02-23T20:56:26.129Z</time>
      </trkpt>
      <trkpt lat="38.83606" lon="-2.23753">
        <ele>835.496138</ele>
        <time>2022-02-23T20:56:58.261Z</time>
      </trkpt>
      <trkpt lat="38.83581" lon="-2.23787">
        <ele>835.465016</ele>
        <time>2022-02-23T20:57:06.305Z</time>
      </trkpt>
      <trkpt lat="38.83536" lon="-2.23828">
        <ele>835.41871</ele>
        <time>2022-02-23T20:57:18.459Z</time>
      </trkpt>
      <trkpt lat="38.83495" lon="-2.23877">
        <ele>835.55368</ele>
        <time>2022-02-23T20:57:32.074Z</time>
      </trkpt>
      <trkpt lat="38.83461" lon="-2.23911">
        <ele>836.564691</ele>
        <time>2022-02-23T20:57:44.170Z</time>
      </trkpt>
      <trkpt lat="38.8344" lon="-2.23925">
        <ele>837.119833</ele>
        <time>2022-02-23T20:57:51.079Z</time>
      </trkpt>
      <trkpt lat="38.83002" lon="-2.24211">
        <ele>849.470763</ele>
        <time>2022-02-23T21:00:52.831Z</time>
      </trkpt>
      <trkpt lat="38.82904" lon="-2.24289">
        <ele>852.488133</ele>
        <time>2022-02-23T21:01:35.935Z</time>
      </trkpt>
      <trkpt lat="38.82876" lon="-2.2432">
        <ele>853.449448</ele>
        <time>2022-02-23T21:01:48.471Z</time>
      </trkpt>
      <trkpt lat="38.82811" lon="-2.2442">
        <ele>854.449973</ele>
        <time>2022-02-23T21:02:21.209Z</time>
      </trkpt>
      <trkpt lat="38.82752" lon="-2.24541">
        <ele>854.518554</ele>
        <time>2022-02-23T21:02:47.796Z</time>
      </trkpt>
      <trkpt lat="38.8273" lon="-2.2462">
        <ele>853.043865</ele>
        <time>2022-02-23T21:02:59.684Z</time>
      </trkpt>
      <trkpt lat="38.82716" lon="-2.24696">
        <ele>851.683824</ele>
        <time>2022-02-23T21:03:10.695Z</time>
      </trkpt>
      <trkpt lat="38.82708" lon="-2.2477">
        <ele>850.887245</ele>
        <time>2022-02-23T21:03:20.955Z</time>
      </trkpt>
      <trkpt lat="38.82689" lon="-2.2511">
        <ele>850.420727</ele>
        <time>2022-02-23T21:04:21.756Z</time>
      </trkpt>
      <trkpt lat="38.82686" lon="-2.25216">
        <ele>850.937084</ele>
        <time>2022-02-23T21:04:50.521Z</time>
      </trkpt>
      <trkpt lat="38.82672" lon="-2.25317">
        <ele>851.399966</ele>
        <time>2022-02-23T21:05:14.496Z</time>
      </trkpt>
      <trkpt lat="38.82653" lon="-2.25391">
        <ele>851.751141</ele>
        <time>2022-02-23T21:05:28.316Z</time>
      </trkpt>
      <trkpt lat="38.82519" lon="-2.25843">
        <ele>846.300311</ele>
        <time>2022-02-23T21:06:41.039Z</time>
      </trkpt>
      <trkpt lat="38.8249" lon="-2.25971">
        <ele>848.86908</ele>
        <time>2022-02-23T21:07:19.982Z</time>
      </trkpt>
      <trkpt lat="38.8248" lon="-2.26039">
        <ele>850.19258</ele>
        <time>2022-02-23T21:07:42.717Z</time>
      </trkpt>
      <trkpt lat="38.8248" lon="-2.26106">
        <ele>851.273905</ele>
        <time>2022-02-23T21:08:04.024Z</time>
      </trkpt>
      <trkpt lat="38.82521" lon="-2.26596">
        <ele>857.894839</ele>
        <time>2022-02-23T21:09:58.415Z</time>
      </trkpt>
      <trkpt lat="38.82524" lon="-2.2665">
        <ele>858.985584</ele>
        <time>2022-02-23T21:10:14.415Z</time>
      </trkpt>
      <trkpt lat="38.82521" lon="-2.26741">
        <ele>860.825666</ele>
        <time>2022-02-23T21:10:42.226Z</time>
      </trkpt>
      <trkpt lat="38.82507" lon="-2.268">
        <ele>862.086874</ele>
        <time>2022-02-23T21:11:02.072Z</time>
      </trkpt>
      <trkpt lat="38.82488" lon="-2.2685">
        <ele>863.232578</ele>
        <time>2022-02-23T21:11:18.806Z</time>
      </trkpt>
      <trkpt lat="38.82465" lon="-2.26897">
        <ele>864.391536</ele>
        <time>2022-02-23T21:11:33.992Z</time>
      </trkpt>
      <trkpt lat="38.82439" lon="-2.26938">
        <ele>865.47291</ele>
        <time>2022-02-23T21:11:47.940Z</time>
      </trkpt>
      <trkpt lat="38.82414" lon="-2.26969">
        <ele>866.151731</ele>
        <time>2022-02-23T21:11:59.760Z</time>
      </trkpt>
      <trkpt lat="38.82198" lon="-2.27171">
        <ele>868.520259</ele>
        <time>2022-02-23T21:13:18.504Z</time>
      </trkpt>
      <trkpt lat="38.82078" lon="-2.27266">
        <ele>866.824601</ele>
        <time>2022-02-23T21:13:46.469Z</time>
      </trkpt>
      <trkpt lat="38.81747" lon="-2.27455">
        <ele>859.590102</ele>
        <time>2022-02-23T21:14:51.618Z</time>
      </trkpt>
      <trkpt lat="38.8172" lon="-2.27469">
        <ele>860.067858</ele>
        <time>2022-02-23T21:15:01.240Z</time>
      </trkpt>
      <trkpt lat="38.81648" lon="-2.27518">
        <ele>861.59913</ele>
        <time>2022-02-23T21:15:40.207Z</time>
      </trkpt>
      <trkpt lat="38.81623" lon="-2.27543">
        <ele>864.47481</ele>
        <time>2022-02-23T21:15:59.666Z</time>
      </trkpt>
      <trkpt lat="38.81599" lon="-2.27576">
        <ele>867.667595</ele>
        <time>2022-02-23T21:16:24.342Z</time>
      </trkpt>
      <trkpt lat="38.81567" lon="-2.27641">
        <ele>873.139045</ele>
        <time>2022-02-23T21:17:11.580Z</time>
      </trkpt>
      <trkpt lat="38.8153" lon="-2.27731">
        <ele>878.890685</ele>
        <time>2022-02-23T21:18:10.052Z</time>
      </trkpt>
      <trkpt lat="38.81514" lon="-2.2778">
        <ele>880.55924</ele>
        <time>2022-02-23T21:18:32.567Z</time>
      </trkpt>
      <trkpt lat="38.81499" lon="-2.27854">
        <ele>882.950031</ele>
        <time>2022-02-23T21:18:56.939Z</time>
      </trkpt>
      <trkpt lat="38.81498" lon="-2.27927">
        <ele>884.873009</ele>
        <time>2022-02-23T21:19:09.528Z</time>
      </trkpt>
      <trkpt lat="38.81516" lon="-2.28136">
        <ele>882.152558</ele>
        <time>2022-02-23T21:19:39.618Z</time>
      </trkpt>
      <trkpt lat="38.81516" lon="-2.2819">
        <ele>883.48784</ele>
        <time>2022-02-23T21:19:51.252Z</time>
      </trkpt>
      <trkpt lat="38.81512" lon="-2.28231">
        <ele>884.975412</ele>
        <time>2022-02-23T21:20:03.354Z</time>
      </trkpt>
      <trkpt lat="38.81498" lon="-2.28291">
        <ele>887.215</ele>
        <time>2022-02-23T21:20:26.735Z</time>
      </trkpt>
      <trkpt lat="38.81465" lon="-2.28382">
        <ele>891.230138</ele>
        <time>2022-02-23T21:21:16.266Z</time>
      </trkpt>
      <trkpt lat="38.81403" lon="-2.28513">
        <ele>900.331581</ele>
        <time>2022-02-23T21:22:37.646Z</time>
      </trkpt>
      <trkpt lat="38.81255" lon="-2.28703">
        <ele>910.320079</ele>
        <time>2022-02-23T21:24:19.270Z</time>
      </trkpt>
      <trkpt lat="38.81209" lon="-2.28783">
        <ele>909.502519</ele>
        <time>2022-02-23T21:24:34.337Z</time>
      </trkpt>
      <trkpt lat="38.81192" lon="-2.28824">
        <ele>908.540458</ele>
        <time>2022-02-23T21:24:40.765Z</time>
      </trkpt>
      <trkpt lat="38.81168" lon="-2.28927">
        <ele>906.317792</ele>
        <time>2022-02-23T21:24:54.899Z</time>
      </trkpt>
      <trkpt lat="38.81162" lon="-2.28982">
        <ele>904.902504</ele>
        <time>2022-02-23T21:25:02.806Z</time>
      </trkpt>
      <trkpt lat="38.81143" lon="-2.29275">
        <ele>895.568116</ele>
        <time>2022-02-23T21:25:43.950Z</time>
      </trkpt>
      <trkpt lat="38.81094" lon="-2.29515">
        <ele>884.808168</ele>
        <time>2022-02-23T21:26:16.457Z</time>
      </trkpt>
      <trkpt lat="38.81065" lon="-2.29651">
        <ele>879.99557</ele>
        <time>2022-02-23T21:26:37.057Z</time>
      </trkpt>
      <trkpt lat="38.81031" lon="-2.29759">
        <ele>878.874318</ele>
        <time>2022-02-23T21:26:58.745Z</time>
      </trkpt>
      <trkpt lat="38.81028" lon="-2.29769">
        <ele>878.773477</ele>
        <time>2022-02-23T21:27:00.524Z</time>
      </trkpt>
      <trkpt lat="38.81001" lon="-2.29845">
        <ele>878.346915</ele>
        <time>2022-02-23T21:27:15.841Z</time>
      </trkpt>
      <trkpt lat="38.80983" lon="-2.29894">
        <ele>878.67687</ele>
        <time>2022-02-23T21:27:25.454Z</time>
      </trkpt>
      <trkpt lat="38.80936" lon="-2.30032">
        <ele>879.589206</ele>
        <time>2022-02-23T21:28:01.238Z</time>
      </trkpt>
      <trkpt lat="38.80919" lon="-2.30111">
        <ele>881.959903</ele>
        <time>2022-02-23T21:28:27.115Z</time>
      </trkpt>
      <trkpt lat="38.80914" lon="-2.30155">
        <ele>883.275796</ele>
        <time>2022-02-23T21:28:41.810Z</time>
      </trkpt>
      <trkpt lat="38.80915" lon="-2.30257">
        <ele>886.297742</ele>
        <time>2022-02-23T21:29:18.077Z</time>
      </trkpt>
      <trkpt lat="38.80942" lon="-2.30485">
        <ele>896.393779</ele>
        <time>2022-02-23T21:31:01.757Z</time>
      </trkpt>
      <trkpt lat="38.80943" lon="-2.30615">
        <ele>896.157875</ele>
        <time>2022-02-23T21:31:34.541Z</time>
      </trkpt>
      <trkpt lat="38.8094" lon="-2.30646">
        <ele>896.048061</ele>
        <time>2022-02-23T21:31:39.749Z</time>
      </trkpt>
      <trkpt lat="38.80939" lon="-2.3066">
        <ele>895.99871</ele>
        <time>2022-02-23T21:31:41.952Z</time>
      </trkpt>
      <trkpt lat="38.80919" lon="-2.30857">
        <ele>891.190593</ele>
        <time>2022-02-23T21:32:08.973Z</time>
      </trkpt>
      <trkpt lat="38.80912" lon="-2.30979">
        <ele>888.669121</ele>
        <time>2022-02-23T21:32:27.683Z</time>
      </trkpt>
      <trkpt lat="38.80913" lon="-2.31022">
        <ele>889.414426</ele>
        <time>2022-02-23T21:32:37.106Z</time>
      </trkpt>
      <trkpt lat="38.80949" lon="-2.3134">
        <ele>897.144703</ele>
        <time>2022-02-23T21:34:31.271Z</time>
      </trkpt>
      <trkpt lat="38.80957" lon="-2.31417">
        <ele>899.399265</ele>
        <time>2022-02-23T21:34:56.904Z</time>
      </trkpt>
      <trkpt lat="38.80992" lon="-2.31729">
        <ele>905.971043</ele>
        <time>2022-02-23T21:36:28.646Z</time>
      </trkpt>
      <trkpt lat="38.80992" lon="-2.31817">
        <ele>907.768488</ele>
        <time>2022-02-23T21:36:50.827Z</time>
      </trkpt>
      <trkpt lat="38.80979" lon="-2.3192">
        <ele>911.161383</ele>
        <time>2022-02-23T21:37:28.162Z</time>
      </trkpt>
      <trkpt lat="38.80948" lon="-2.32018">
        <ele>915.622205</ele>
        <time>2022-02-23T21:38:11.631Z</time>
      </trkpt>
      <trkpt lat="38.80919" lon="-2.32084">
        <ele>918.808071</ele>
        <time>2022-02-23T21:38:46.089Z</time>
      </trkpt>
      <trkpt lat="38.80837" lon="-2.32213">
        <ele>925.426346</ele>
        <time>2022-02-23T21:39:57.384Z</time>
      </trkpt>
      <trkpt lat="38.80679" lon="-2.32418">
        <ele>930.557407</ele>
        <time>2022-02-23T21:41:09.104Z</time>
      </trkpt>
      <trkpt lat="38.80627" lon="-2.32479">
        <ele>929.596626</ele>
        <time>2022-02-23T21:41:24.348Z</time>
      </trkpt>
      <trkpt lat="38.80521" lon="-2.32609">
        <ele>926.618438</ele>
        <time>2022-02-23T21:41:52.154Z</time>
      </trkpt>
      <trkpt lat="38.8048" lon="-2.32648">
        <ele>924.62043</ele>
        <time>2022-02-23T21:42:00.894Z</time>
      </trkpt>
      <trkpt lat="38.80363" lon="-2.32717">
        <ele>918.699568</ele>
        <time>2022-02-23T21:42:22.790Z</time>
      </trkpt>
      <trkpt lat="38.80221" lon="-2.32782">
        <ele>909.660075</ele>
        <time>2022-02-23T21:42:46.551Z</time>
      </trkpt>
      <trkpt lat="38.80206" lon="-2.32793">
        <ele>908.961342</ele>
        <time>2022-02-23T21:42:49.261Z</time>
      </trkpt>
      <trkpt lat="38.80165" lon="-2.32813">
        <ele>907.203384</ele>
        <time>2022-02-23T21:42:56.496Z</time>
      </trkpt>
      <trkpt lat="38.80084" lon="-2.32863">
        <ele>903.643243</ele>
        <time>2022-02-23T21:43:11.998Z</time>
      </trkpt>
      <trkpt lat="38.8005" lon="-2.32894">
        <ele>902.965986</ele>
        <time>2022-02-23T21:43:21.055Z</time>
      </trkpt>
      <trkpt lat="38.79988" lon="-2.32981">
        <ele>903.65986</ele>
        <time>2022-02-23T21:43:49.461Z</time>
      </trkpt>
      <trkpt lat="38.7996" lon="-2.33046">
        <ele>904.101366</ele>
        <time>2022-02-23T21:44:08.674Z</time>
      </trkpt>
      <trkpt lat="38.79816" lon="-2.33462">
        <ele>904.172588</ele>
        <time>2022-02-23T21:45:31.028Z</time>
      </trkpt>
      <trkpt lat="38.79789" lon="-2.33564">
        <ele>904.057854</ele>
        <time>2022-02-23T21:45:47.709Z</time>
      </trkpt>
      <trkpt lat="38.79784" lon="-2.3361">
        <ele>904.015023</ele>
        <time>2022-02-23T21:45:55.511Z</time>
      </trkpt>
      <trkpt lat="38.79783" lon="-2.33656">
        <ele>903.972876</ele>
        <time>2022-02-23T21:46:03.764Z</time>
      </trkpt>
      <trkpt lat="38.79783" lon="-2.33705">
        <ele>903.961104</ele>
        <time>2022-02-23T21:46:13.715Z</time>
      </trkpt>
      <trkpt lat="38.79797" lon="-2.33898">
        <ele>909.493749</ele>
        <time>2022-02-23T21:47:16.264Z</time>
      </trkpt>
      <trkpt lat="38.79801" lon="-2.33956">
        <ele>911.078685</ele>
        <time>2022-02-23T21:47:42.089Z</time>
      </trkpt>
      <trkpt lat="38.79815" lon="-2.34161">
        <ele>916.370807</ele>
        <time>2022-02-23T21:48:49.771Z</time>
      </trkpt>
      <trkpt lat="38.79832" lon="-2.34427">
        <ele>912.64824</ele>
        <time>2022-02-23T21:49:28.142Z</time>
      </trkpt>
      <trkpt lat="38.79857" lon="-2.34576">
        <ele>910.698413</ele>
        <time>2022-02-23T21:49:50.947Z</time>
      </trkpt>
      <trkpt lat="38.79892" lon="-2.34663">
        <ele>910.287512</ele>
        <time>2022-02-23T21:50:08.787Z</time>
      </trkpt>
      <trkpt lat="38.79903" lon="-2.34701">
        <ele>910.413149</ele>
        <time>2022-02-23T21:50:16.429Z</time>
      </trkpt>
      <trkpt lat="38.79917" lon="-2.34932">
        <ele>911.732341</ele>
        <time>2022-02-23T21:51:05.153Z</time>
      </trkpt>
      <trkpt lat="38.79919" lon="-2.34953">
        <ele>911.927014</ele>
        <time>2022-02-23T21:51:10.179Z</time>
      </trkpt>
      <trkpt lat="38.79919" lon="-2.35051">
        <ele>912.86382</ele>
        <time>2022-02-23T21:51:34.300Z</time>
      </trkpt>
      <trkpt lat="38.79908" lon="-2.35139">
        <ele>913.063286</ele>
        <time>2022-02-23T21:51:55.107Z</time>
      </trkpt>
      <trkpt lat="38.79605" lon="-2.36048">
        <ele>913.993951</ele>
        <time>2022-02-23T21:54:52.482Z</time>
      </trkpt>
      <trkpt lat="38.79446" lon="-2.36919">
        <ele>921.584295</ele>
        <time>2022-02-23T21:58:11.518Z</time>
      </trkpt>
      <trkpt lat="38.79421" lon="-2.37007">
        <ele>922.873074</ele>
        <time>2022-02-23T21:58:38.210Z</time>
      </trkpt>
      <trkpt lat="38.79376" lon="-2.37095">
        <ele>923.451205</ele>
        <time>2022-02-23T21:59:04.996Z</time>
      </trkpt>
      <trkpt lat="38.79354" lon="-2.37127">
        <ele>923.556813</ele>
        <time>2022-02-23T21:59:14.647Z</time>
      </trkpt>
      <trkpt lat="38.79317" lon="-2.37164">
        <ele>923.708136</ele>
        <time>2022-02-23T21:59:25.735Z</time>
      </trkpt>
      <trkpt lat="38.79112" lon="-2.3732">
        <ele>921.514181</ele>
        <time>2022-02-23T22:00:16.059Z</time>
      </trkpt>
      <trkpt lat="38.79062" lon="-2.37375">
        <ele>922.435434</ele>
        <time>2022-02-23T22:00:35.853Z</time>
      </trkpt>
      <trkpt lat="38.78935" lon="-2.37546">
        <ele>924.722496</ele>
        <time>2022-02-23T22:01:45.439Z</time>
      </trkpt>
      <trkpt lat="38.78882" lon="-2.376">
        <ele>925.435575</ele>
        <time>2022-02-23T22:02:03.682Z</time>
      </trkpt>
      <trkpt lat="38.78814" lon="-2.37646">
        <ele>924.652096</ele>
        <time>2022-02-23T22:02:19.784Z</time>
      </trkpt>
      <trkpt lat="38.78597" lon="-2.37752">
        <ele>922.886459</ele>
        <time>2022-02-23T22:03:07.184Z</time>
      </trkpt>
      <trkpt lat="38.78532" lon="-2.378">
        <ele>923.388516</ele>
        <time>2022-02-23T22:03:40.278Z</time>
      </trkpt>
      <trkpt lat="38.78495" lon="-2.37843">
        <ele>926.243773</ele>
        <time>2022-02-23T22:04:08.160Z</time>
      </trkpt>
      <trkpt lat="38.78483" lon="-2.3786">
        <ele>927.256403</ele>
        <time>2022-02-23T22:04:18.378Z</time>
      </trkpt>
      <trkpt lat="38.78443" lon="-2.37925">
        <ele>930.901678</ele>
        <time>2022-02-23T22:04:56.694Z</time>
      </trkpt>
      <trkpt lat="38.78422" lon="-2.37974">
        <ele>933.394884</ele>
        <time>2022-02-23T22:05:21.603Z</time>
      </trkpt>
      <trkpt lat="38.783" lon="-2.38268">
        <ele>939.553944</ele>
        <time>2022-02-23T22:06:50.773Z</time>
      </trkpt>
      <trkpt lat="38.78155" lon="-2.38655">
        <ele>942.331114</ele>
        <time>2022-02-23T22:08:21.695Z</time>
      </trkpt>
      <trkpt lat="38.78127" lon="-2.38711">
        <ele>942.358339</ele>
        <time>2022-02-23T22:08:31.989Z</time>
      </trkpt>
      <trkpt lat="38.78049" lon="-2.3881">
        <ele>942.669606</ele>
        <time>2022-02-23T22:09:01.491Z</time>
      </trkpt>
      <trkpt lat="38.77985" lon="-2.38864">
        <ele>943.288864</ele>
        <time>2022-02-23T22:09:23.543Z</time>
      </trkpt>
      <trkpt lat="38.77942" lon="-2.38892">
        <ele>943.678418</ele>
        <time>2022-02-23T22:09:38.570Z</time>
      </trkpt>
      <trkpt lat="38.77872" lon="-2.3893">
        <ele>942.815461</ele>
        <time>2022-02-23T22:10:00.158Z</time>
      </trkpt>
      <trkpt lat="38.7766" lon="-2.3904">
        <ele>937.731344</ele>
        <time>2022-02-23T22:10:44.113Z</time>
      </trkpt>
      <trkpt lat="38.77609" lon="-2.39072">
        <ele>936.228345</ele>
        <time>2022-02-23T22:10:55.748Z</time>
      </trkpt>
      <trkpt lat="38.77573" lon="-2.39102">
        <ele>935.894046</ele>
        <time>2022-02-23T22:11:04.897Z</time>
      </trkpt>
      <trkpt lat="38.77523" lon="-2.39164">
        <ele>936.396868</ele>
        <time>2022-02-23T22:11:22.248Z</time>
      </trkpt>
      <trkpt lat="38.77498" lon="-2.39204">
        <ele>936.680577</ele>
        <time>2022-02-23T22:11:34.689Z</time>
      </trkpt>
      <trkpt lat="38.77475" lon="-2.39254">
        <ele>937.006015</ele>
        <time>2022-02-23T22:11:51.120Z</time>
      </trkpt>
      <trkpt lat="38.7745" lon="-2.39328">
        <ele>939.202237</ele>
        <time>2022-02-23T22:12:16.388Z</time>
      </trkpt>
      <trkpt lat="38.77435" lon="-2.39414">
        <ele>941.638627</ele>
        <time>2022-02-23T22:12:47.088Z</time>
      </trkpt>
      <trkpt lat="38.77426" lon="-2.39633">
        <ele>947.158317</ele>
        <time>2022-02-23T22:14:03.831Z</time>
      </trkpt>
      <trkpt lat="38.77412" lon="-2.39738">
        <ele>948.963249</ele>
        <time>2022-02-23T22:14:31.333Z</time>
      </trkpt>
      <trkpt lat="38.77274" lon="-2.40181">
        <ele>948.563353</ele>
        <time>2022-02-23T22:15:58.520Z</time>
      </trkpt>
      <trkpt lat="38.77252" lon="-2.40303">
        <ele>949.49914</ele>
        <time>2022-02-23T22:16:28.218Z</time>
      </trkpt>
      <trkpt lat="38.77102" lon="-2.41485">
        <ele>965.463296</ele>
        <time>2022-02-23T22:21:41.851Z</time>
      </trkpt>
      <trkpt lat="38.77097" lon="-2.41597">
        <ele>966.570034</ele>
        <time>2022-02-23T22:22:08.664Z</time>
      </trkpt>
      <trkpt lat="38.77101" lon="-2.41906">
        <ele>968.897033</ele>
        <time>2022-02-23T22:23:21.124Z</time>
      </trkpt>
      <trkpt lat="38.77106" lon="-2.42287">
        <ele>968.596961</ele>
        <time>2022-02-23T22:24:34.681Z</time>
      </trkpt>
      <trkpt lat="38.7711" lon="-2.42568">
        <ele>968.251007</ele>
        <time>2022-02-23T22:25:21.318Z</time>
      </trkpt>
      <trkpt lat="38.77116" lon="-2.42779">
        <ele>972.615116</ele>
        <time>2022-02-23T22:26:35.921Z</time>
      </trkpt>
      <trkpt lat="38.77129" lon="-2.42854">
        <ele>975.038875</ele>
        <time>2022-02-23T22:27:04.981Z</time>
      </trkpt>
      <trkpt lat="38.7715" lon="-2.42921">
        <ele>976.830359</ele>
        <time>2022-02-23T22:27:28.470Z</time>
      </trkpt>
      <trkpt lat="38.77165" lon="-2.42962">
        <ele>977.769883</ele>
        <time>2022-02-23T22:27:41.525Z</time>
      </trkpt>
      <trkpt lat="38.77201" lon="-2.43031">
        <ele>979.489121</ele>
        <time>2022-02-23T22:28:03.802Z</time>
      </trkpt>
      <trkpt lat="38.77406" lon="-2.43356">
        <ele>987.279484</ele>
        <time>2022-02-23T22:30:06.524Z</time>
      </trkpt>
      <trkpt lat="38.77453" lon="-2.43453">
        <ele>988.927605</ele>
        <time>2022-02-23T22:30:34.530Z</time>
      </trkpt>
      <trkpt lat="38.77482" lon="-2.43547">
        <ele>989.643694</ele>
        <time>2022-02-23T22:30:56.606Z</time>
      </trkpt>
      <trkpt lat="38.77494" lon="-2.43612">
        <ele>990.116891</ele>
        <time>2022-02-23T22:31:11.270Z</time>
      </trkpt>
      <trkpt lat="38.77501" lon="-2.43681">
        <ele>990.694351</ele>
        <time>2022-02-23T22:31:27.345Z</time>
      </trkpt>
      <trkpt lat="38.77497" lon="-2.43789">
        <ele>991.969646</ele>
        <time>2022-02-23T22:31:54.363Z</time>
      </trkpt>
      <trkpt lat="38.77489" lon="-2.43845">
        <ele>992.644889</ele>
        <time>2022-02-23T22:32:09.426Z</time>
      </trkpt>
      <trkpt lat="38.7747" lon="-2.4392">
        <ele>993.449284</ele>
        <time>2022-02-23T22:32:30.087Z</time>
      </trkpt>
      <trkpt lat="38.77429" lon="-2.44024">
        <ele>994.373741</ele>
        <time>2022-02-23T22:32:58.877Z</time>
      </trkpt>
      <trkpt lat="38.76955" lon="-2.44871">
        <ele>996.826126</ele>
        <time>2022-02-23T22:36:28.413Z</time>
      </trkpt>
      <trkpt lat="38.76895" lon="-2.44988">
        <ele>997.376079</ele>
        <time>2022-02-23T22:36:59.046Z</time>
      </trkpt>
      <trkpt lat="38.76771" lon="-2.45273">
        <ele>998.783297</ele>
        <time>2022-02-23T22:38:07.909Z</time>
      </trkpt>
      <trkpt lat="38.76515" lon="-2.45867">
        <ele>1003.486448</ele>
        <time>2022-02-23T22:40:43.672Z</time>
      </trkpt>
      <trkpt lat="38.76452" lon="-2.45981">
        <ele>1004.209999</ele>
        <time>2022-02-23T22:41:13.252Z</time>
      </trkpt>
      <trkpt lat="38.76236" lon="-2.46267">
        <ele>1007.19632</ele>
        <time>2022-02-23T22:42:40.774Z</time>
      </trkpt>
      <trkpt lat="38.76025" lon="-2.46545">
        <ele>1014.554156</ele>
        <time>2022-02-23T22:44:36.078Z</time>
      </trkpt>
      <trkpt lat="38.75955" lon="-2.46632">
        <ele>1017.431889</ele>
        <time>2022-02-23T22:45:16.519Z</time>
      </trkpt>
      <trkpt lat="38.75915" lon="-2.46674">
        <ele>1018.966891</ele>
        <time>2022-02-23T22:45:37.065Z</time>
      </trkpt>
      <trkpt lat="38.75819" lon="-2.46753">
        <ele>1020.858024</ele>
        <time>2022-02-23T22:46:16.703Z</time>
      </trkpt>
      <trkpt lat="38.75315" lon="-2.4704">
        <ele>1026.295292</ele>
        <time>2022-02-23T22:48:52.709Z</time>
      </trkpt>
      <trkpt lat="38.75215" lon="-2.47097">
        <ele>1028.91801</ele>
        <time>2022-02-23T22:49:34.166Z</time>
      </trkpt>
      <trkpt lat="38.74997" lon="-2.47216">
        <ele>1036.727737</ele>
        <time>2022-02-23T22:51:19.917Z</time>
      </trkpt>
      <trkpt lat="38.74923" lon="-2.47235">
        <ele>1038.920453</ele>
        <time>2022-02-23T22:51:46.184Z</time>
      </trkpt>
      <trkpt lat="38.74846" lon="-2.47232">
        <ele>1039.213697</ele>
        <time>2022-02-23T22:52:07.213Z</time>
      </trkpt>
      <trkpt lat="38.74773" lon="-2.4721">
        <ele>1039.501354</ele>
        <time>2022-02-23T22:52:25.359Z</time>
      </trkpt>
      <trkpt lat="38.74693" lon="-2.47161">
        <ele>1040.097184</ele>
        <time>2022-02-23T22:52:47.789Z</time>
      </trkpt>
      <trkpt lat="38.74514" lon="-2.46992">
        <ele>1041.858538</ele>
        <time>2022-02-23T22:53:55.791Z</time>
      </trkpt>
      <trkpt lat="38.74459" lon="-2.46942">
        <ele>1042.399099</ele>
        <time>2022-02-23T22:54:14.154Z</time>
      </trkpt>
      <trkpt lat="38.7444" lon="-2.46937">
        <ele>1042.433079</ele>
        <time>2022-02-23T22:54:18.800Z</time>
      </trkpt>
      <trkpt lat="38.74404" lon="-2.46947">
        <ele>1042.409805</ele>
        <time>2022-02-23T22:54:27.821Z</time>
      </trkpt>
      <trkpt lat="38.74301" lon="-2.469">
        <ele>1042.340016</ele>
        <time>2022-02-23T22:54:53.707Z</time>
      </trkpt>
      <trkpt lat="38.73796" lon="-2.46808">
        <ele>1045.251854</ele>
        <time>2022-02-23T22:57:13.409Z</time>
      </trkpt>
      <trkpt lat="38.73781" lon="-2.468">
        <ele>1045.389677</ele>
        <time>2022-02-23T22:57:18.595Z</time>
      </trkpt>
      <trkpt lat="38.7378" lon="-2.46787">
        <ele>1045.474534</ele>
        <time>2022-02-23T22:57:21.982Z</time>
      </trkpt>
      <trkpt lat="38.73782" lon="-2.4677">
        <ele>1045.596091</ele>
        <time>2022-02-23T22:57:26.608Z</time>
      </trkpt>
      <trkpt lat="38.73779" lon="-2.46738">
        <ele>1045.782607</ele>
        <time>2022-02-23T22:57:35.314Z</time>
      </trkpt>
      <trkpt lat="38.73765" lon="-2.4672">
        <ele>1045.919015</ele>
        <time>2022-02-23T22:57:42.143Z</time>
      </trkpt>
      <trkpt lat="38.73627" lon="-2.46645">
        <ele>1046.829274</ele>
        <time>2022-02-23T22:58:23.869Z</time>
      </trkpt>
      <trkpt lat="38.73596" lon="-2.46654">
        <ele>1046.399459</ele>
        <time>2022-02-23T22:58:30.749Z</time>
      </trkpt>
      <trkpt lat="38.73531" lon="-2.46694">
        <ele>1045.404947</ele>
        <time>2022-02-23T22:58:46.076Z</time>
      </trkpt>
      <trkpt lat="38.73486" lon="-2.46708">
        <ele>1044.765435</ele>
        <time>2022-02-23T22:58:55.620Z</time>
      </trkpt>
      <trkpt lat="38.73402" lon="-2.46694">
        <ele>1043.053978</ele>
        <time>2022-02-23T22:59:13.268Z</time>
      </trkpt>
      <trkpt lat="38.73335" lon="-2.46661">
        <ele>1041.407244</ele>
        <time>2022-02-23T22:59:27.871Z</time>
      </trkpt>
      <trkpt lat="38.73285" lon="-2.4666">
        <ele>1040.21433</ele>
        <time>2022-02-23T22:59:37.951Z</time>
      </trkpt>
      <trkpt lat="38.73252" lon="-2.46687">
        <ele>1038.750382</ele>
        <time>2022-02-23T22:59:45.438Z</time>
      </trkpt>
      <trkpt lat="38.73236" lon="-2.46714">
        <ele>1037.734345</ele>
        <time>2022-02-23T22:59:50.575Z</time>
      </trkpt>
      <trkpt lat="38.7323" lon="-2.46734">
        <ele>1037.088545</ele>
        <time>2022-02-23T22:59:53.894Z</time>
      </trkpt>
      <trkpt lat="38.73213" lon="-2.46787">
        <ele>1035.409643</ele>
        <time>2022-02-23T23:00:02.390Z</time>
      </trkpt>
      <trkpt lat="38.73181" lon="-2.46815">
        <ele>1033.945279</ele>
        <time>2022-02-23T23:00:09.477Z</time>
      </trkpt>
      <trkpt lat="38.73131" lon="-2.46872">
        <ele>1030.799198</ele>
        <time>2022-02-23T23:00:21.169Z</time>
      </trkpt>
      <trkpt lat="38.731" lon="-2.46924">
        <ele>1028.313282</ele>
        <time>2022-02-23T23:00:30.106Z</time>
      </trkpt>
      <trkpt lat="38.73064" lon="-2.47001">
        <ele>1024.843542</ele>
        <time>2022-02-23T23:00:42.772Z</time>
      </trkpt>
      <trkpt lat="38.72895" lon="-2.47403">
        <ele>1016.089168</ele>
        <time>2022-02-23T23:01:53.232Z</time>
      </trkpt>
      <trkpt lat="38.72802" lon="-2.4761">
        <ele>1020.752349</ele>
        <time>2022-02-23T23:03:12.358Z</time>
      </trkpt>
      <trkpt lat="38.7276" lon="-2.47668">
        <ele>1020.631972</ele>
        <time>2022-02-23T23:03:34.517Z</time>
      </trkpt>
      <trkpt lat="38.72701" lon="-2.47724">
        <ele>1020.449504</ele>
        <time>2022-02-23T23:03:50.894Z</time>
      </trkpt>
      <trkpt lat="38.72655" lon="-2.47752">
        <ele>1020.076153</ele>
        <time>2022-02-23T23:04:00.913Z</time>
      </trkpt>
      <trkpt lat="38.72336" lon="-2.47915">
        <ele>1005.140314</ele>
        <time>2022-02-23T23:05:02.192Z</time>
      </trkpt>
      <trkpt lat="38.72276" lon="-2.47959">
        <ele>1005.875855</ele>
        <time>2022-02-23T23:05:28.749Z</time>
      </trkpt>
      <trkpt lat="38.72248" lon="-2.47992">
        <ele>1006.651886</ele>
        <time>2022-02-23T23:05:45.206Z</time>
      </trkpt>
      <trkpt lat="38.72219" lon="-2.48031">
        <ele>1007.500668</ele>
        <time>2022-02-23T23:06:04.191Z</time>
      </trkpt>
      <trkpt lat="38.72202" lon="-2.48065">
        <ele>1008.143905</ele>
        <time>2022-02-23T23:06:19.447Z</time>
      </trkpt>
      <trkpt lat="38.71919" lon="-2.48825">
        <ele>999.638897</ele>
        <time>2022-02-23T23:08:31.770Z</time>
      </trkpt>
      <trkpt lat="38.71884" lon="-2.48903">
        <ele>998.065751</ele>
        <time>2022-02-23T23:08:44.978Z</time>
      </trkpt>
      <trkpt lat="38.71848" lon="-2.48968">
        <ele>996.945686</ele>
        <time>2022-02-23T23:08:56.988Z</time>
      </trkpt>
      <trkpt lat="38.71794" lon="-2.4904">
        <ele>995.565268</ele>
        <time>2022-02-23T23:09:13.201Z</time>
      </trkpt>
      <trkpt lat="38.71729" lon="-2.49106">
        <ele>994.791443</ele>
        <time>2022-02-23T23:09:35.273Z</time>
      </trkpt>
      <trkpt lat="38.71639" lon="-2.4917">
        <ele>994.72432</ele>
        <time>2022-02-23T23:10:04.875Z</time>
      </trkpt>
      <trkpt lat="38.7126" lon="-2.49406">
        <ele>987.905908</ele>
        <time>2022-02-23T23:11:26.263Z</time>
      </trkpt>
      <trkpt lat="38.7123" lon="-2.49431">
        <ele>987.678483</ele>
        <time>2022-02-23T23:11:33.572Z</time>
      </trkpt>
      <trkpt lat="38.71172" lon="-2.49497">
        <ele>987.17954</ele>
        <time>2022-02-23T23:11:50.819Z</time>
      </trkpt>
      <trkpt lat="38.71006" lon="-2.49789">
        <ele>990.000622</ele>
        <time>2022-02-23T23:13:25.727Z</time>
      </trkpt>
      <trkpt lat="38.7095" lon="-2.49861">
        <ele>990.163744</ele>
        <time>2022-02-23T23:13:45.145Z</time>
      </trkpt>
      <trkpt lat="38.70915" lon="-2.49892">
        <ele>990.188069</ele>
        <time>2022-02-23T23:13:54.384Z</time>
      </trkpt>
      <trkpt lat="38.70658" lon="-2.50083">
        <ele>984.455923</ele>
        <time>2022-02-23T23:14:56.075Z</time>
      </trkpt>
      <trkpt lat="38.70595" lon="-2.50128">
        <ele>982.856201</ele>
        <time>2022-02-23T23:15:10.753Z</time>
      </trkpt>
      <trkpt lat="38.7055" lon="-2.50152">
        <ele>981.724301</ele>
        <time>2022-02-23T23:15:19.946Z</time>
      </trkpt>
      <trkpt lat="38.70507" lon="-2.5017">
        <ele>980.668145</ele>
        <time>2022-02-23T23:15:27.830Z</time>
      </trkpt>
      <trkpt lat="38.70428" lon="-2.50177">
        <ele>978.834598</ele>
        <time>2022-02-23T23:15:45.497Z</time>
      </trkpt>
      <trkpt lat="38.70357" lon="-2.50168">
        <ele>977.396046</ele>
        <time>2022-02-23T23:16:00.085Z</time>
      </trkpt>
      <trkpt lat="38.7029" lon="-2.50142">
        <ele>975.993087</ele>
        <time>2022-02-23T23:16:14.508Z</time>
      </trkpt>
      <trkpt lat="38.70209" lon="-2.50081">
        <ele>970.967777</ele>
        <time>2022-02-23T23:16:31.844Z</time>
      </trkpt>
      <trkpt lat="38.70167" lon="-2.50028">
        <ele>966.684339</ele>
        <time>2022-02-23T23:16:41.074Z</time>
      </trkpt>
      <trkpt lat="38.70137" lon="-2.49977">
        <ele>963.110159</ele>
        <time>2022-02-23T23:16:48.256Z</time>
      </trkpt>
      <trkpt lat="38.70092" lon="-2.49871">
        <ele>955.001645</ele>
        <time>2022-02-23T23:17:02.270Z</time>
      </trkpt>
      <trkpt lat="38.70083" lon="-2.49834">
        <ele>952.379657</ele>
        <time>2022-02-23T23:17:06.839Z</time>
      </trkpt>
      <trkpt lat="38.70032" lon="-2.49863">
        <ele>947.490708</ele>
        <time>2022-02-23T23:17:22.049Z</time>
      </trkpt>
      <trkpt lat="38.69975" lon="-2.49874">
        <ele>942.951075</ele>
        <time>2022-02-23T23:17:37.951Z</time>
      </trkpt>
      <trkpt lat="38.69957" lon="-2.49888">
        <ele>941.394065</ele>
        <time>2022-02-23T23:17:43.528Z</time>
      </trkpt>
      <trkpt lat="38.69939" lon="-2.49941">
        <ele>937.966883</ele>
        <time>2022-02-23T23:17:56.081Z</time>
      </trkpt>
      <trkpt lat="38.6982" lon="-2.50064">
        <ele>924.666513</ele>
        <time>2022-02-23T23:18:36.290Z</time>
      </trkpt>
      <trkpt lat="38.69816" lon="-2.50087">
        <ele>922.920034</ele>
        <time>2022-02-23T23:18:40.931Z</time>
      </trkpt>
      <trkpt lat="38.69821" lon="-2.50117">
        <ele>920.628581</ele>
        <time>2022-02-23T23:18:47.196Z</time>
      </trkpt>
      <trkpt lat="38.6981" lon="-2.50128">
        <ele>919.294541</ele>
        <time>2022-02-23T23:18:50.715Z</time>
      </trkpt>
      <trkpt lat="38.69767" lon="-2.50149">
        <ele>915.156316</ele>
        <time>2022-02-23T23:19:02.570Z</time>
      </trkpt>
      <trkpt lat="38.69707" lon="-2.5019">
        <ele>910.069829</ele>
        <time>2022-02-23T23:19:20.358Z</time>
      </trkpt>
      <trkpt lat="38.69685" lon="-2.50185">
        <ele>908.365456</ele>
        <time>2022-02-23T23:19:26.498Z</time>
      </trkpt>
      <trkpt lat="38.69655" lon="-2.50141">
        <ele>904.918484</ele>
        <time>2022-02-23T23:19:39.100Z</time>
      </trkpt>
      <trkpt lat="38.69618" lon="-2.50128">
        <ele>902.245704</ele>
        <time>2022-02-23T23:19:49.749Z</time>
      </trkpt>
      <trkpt lat="38.6955" lon="-2.5012">
        <ele>899.715745</ele>
        <time>2022-02-23T23:20:09.502Z</time>
      </trkpt>
      <trkpt lat="38.69523" lon="-2.5013">
        <ele>898.684665</ele>
        <time>2022-02-23T23:20:17.981Z</time>
      </trkpt>
      <trkpt lat="38.69429" lon="-2.50198">
        <ele>895.415663</ele>
        <time>2022-02-23T23:20:52.548Z</time>
      </trkpt>
      <trkpt lat="38.69382" lon="-2.50239">
        <ele>894.745407</ele>
        <time>2022-02-23T23:21:12.095Z</time>
      </trkpt>
      <trkpt lat="38.69336" lon="-2.50327">
        <ele>893.767693</ele>
        <time>2022-02-23T23:21:41.186Z</time>
      </trkpt>
      <trkpt lat="38.69304" lon="-2.50323">
        <ele>893.307806</ele>
        <time>2022-02-23T23:21:52.601Z</time>
      </trkpt>
      <trkpt lat="38.69279" lon="-2.5033">
        <ele>892.917586</ele>
        <time>2022-02-23T23:22:01.354Z</time>
      </trkpt>
      <trkpt lat="38.69263" lon="-2.50327">
        <ele>892.678836</ele>
        <time>2022-02-23T23:22:06.641Z</time>
      </trkpt>
      <trkpt lat="38.69235" lon="-2.50335">
        <ele>892.234744</ele>
        <time>2022-02-23T23:22:16.353Z</time>
      </trkpt>
      <trkpt lat="38.69216" lon="-2.50351">
        <ele>891.883533</ele>
        <time>2022-02-23T23:22:24.034Z</time>
      </trkpt>
      <trkpt lat="38.69198" lon="-2.50385">
        <ele>891.398019</ele>
        <time>2022-02-23T23:22:34.625Z</time>
      </trkpt>
      <trkpt lat="38.69195" lon="-2.50392">
        <ele>891.301519</ele>
        <time>2022-02-23T23:22:35.865Z</time>
      </trkpt>
      <trkpt lat="38.69169" lon="-2.50383">
        <ele>890.90036</ele>
        <time>2022-02-23T23:22:40.964Z</time>
      </trkpt>
      <trkpt lat="38.69154" lon="-2.50402">
        <ele>890.148026</ele>
        <time>2022-02-23T23:22:44.981Z</time>
      </trkpt>
      <trkpt lat="38.69124" lon="-2.50386">
        <ele>888.977059</ele>
        <time>2022-02-23T23:22:50.813Z</time>
      </trkpt>
      <trkpt lat="38.69123" lon="-2.50391">
        <ele>888.836856</ele>
        <time>2022-02-23T23:22:51.510Z</time>
      </trkpt>
      <trkpt lat="38.69078" lon="-2.50532">
        <ele>884.550411</ele>
        <time>2022-02-23T23:23:11.988Z</time>
      </trkpt>
      <trkpt lat="38.69059" lon="-2.50512">
        <ele>883.608299</ele>
        <time>2022-02-23T23:23:15.910Z</time>
      </trkpt>
      <trkpt lat="38.6897" lon="-2.50664">
        <ele>877.802322</ele>
        <time>2022-02-23T23:24:00.307Z</time>
      </trkpt>
      <trkpt lat="38.6895" lon="-2.50675">
        <ele>877.115285</ele>
        <time>2022-02-23T23:24:07.069Z</time>
      </trkpt>
      <trkpt lat="38.68904" lon="-2.50656">
        <ele>875.926008</ele>
        <time>2022-02-23T23:24:22.018Z</time>
      </trkpt>
      <trkpt lat="38.68889" lon="-2.5066">
        <ele>875.543088</ele>
        <time>2022-02-23T23:24:26.915Z</time>
      </trkpt>
      <trkpt lat="38.68866" lon="-2.50707">
        <ele>874.454465</ele>
        <time>2022-02-23T23:24:40.904Z</time>
      </trkpt>
      <trkpt lat="38.68853" lon="-2.50752">
        <ele>873.516103</ele>
        <time>2022-02-23T23:24:53.146Z</time>
      </trkpt>
      <trkpt lat="38.68834" lon="-2.50793">
        <ele>872.642388</ele>
        <time>2022-02-23T23:25:05.235Z</time>
      </trkpt>
      <trkpt lat="38.68827" lon="-2.5083">
        <ele>872.006878</ele>
        <time>2022-02-23T23:25:14.800Z</time>
      </trkpt>
      <trkpt lat="38.68789" lon="-2.50913">
        <ele>870.360256</ele>
        <time>2022-02-23T23:25:39.303Z</time>
      </trkpt>
      <trkpt lat="38.6876" lon="-2.50953">
        <ele>869.448567</ele>
        <time>2022-02-23T23:25:52.674Z</time>
      </trkpt>
      <trkpt lat="38.68668" lon="-2.51036">
        <ele>866.801647</ele>
        <time>2022-02-23T23:26:28.714Z</time>
      </trkpt>
      <trkpt lat="38.68623" lon="-2.51113">
        <ele>865.017423</ele>
        <time>2022-02-23T23:26:52.521Z</time>
      </trkpt>
      <trkpt lat="38.6861" lon="-2.51151">
        <ele>864.307981</ele>
        <time>2022-02-23T23:27:03.040Z</time>
      </trkpt>
      <trkpt lat="38.68605" lon="-2.5119">
        <ele>863.691432</ele>
        <time>2022-02-23T23:27:12.851Z</time>
      </trkpt>
      <trkpt lat="38.68588" lon="-2.5122">
        <ele>863.111133</ele>
        <time>2022-02-23T23:27:22.163Z</time>
      </trkpt>
      <trkpt lat="38.68563" lon="-2.5125">
        <ele>862.417473</ele>
        <time>2022-02-23T23:27:33.352Z</time>
      </trkpt>
      <trkpt lat="38.68548" lon="-2.51282">
        <ele>861.825883</ele>
        <time>2022-02-23T23:27:42.951Z</time>
      </trkpt>
      <trkpt lat="38.68526" lon="-2.51315">
        <ele>861.154603</ele>
        <time>2022-02-23T23:27:53.925Z</time>
      </trkpt>
      <trkpt lat="38.6851" lon="-2.51358">
        <ele>860.723575</ele>
        <time>2022-02-23T23:28:06.588Z</time>
      </trkpt>
      <trkpt lat="38.68506" lon="-2.51382">
        <ele>860.527111</ele>
        <time>2022-02-23T23:28:12.782Z</time>
      </trkpt>
      <trkpt lat="38.68551" lon="-2.51483">
        <ele>859.555719</ele>
        <time>2022-02-23T23:28:43.932Z</time>
      </trkpt>
      <trkpt lat="38.68406" lon="-2.51407">
        <ele>859.62941</ele>
        <time>2022-02-23T23:29:40.802Z</time>
      </trkpt>
      <trkpt lat="38.68274" lon="-2.51362">
        <ele>861.662864</ele>
        <time>2022-02-23T23:30:42.952Z</time>
      </trkpt>
      <trkpt lat="38.68151" lon="-2.51227">
        <ele>865.743653</ele>
        <time>2022-02-23T23:32:06.739Z</time>
      </trkpt>
      <trkpt lat="38.68068" lon="-2.51163">
        <ele>868.434248</ele>
        <time>2022-02-23T23:32:56.524Z</time>
      </trkpt>
      <trkpt lat="38.68018" lon="-2.51116">
        <ele>869.917608</ele>
        <time>2022-02-23T23:33:27.214Z</time>
      </trkpt>
      <trkpt lat="38.67918" lon="-2.51062">
        <ele>872.250363</ele>
        <time>2022-02-23T23:34:19.308Z</time>
      </trkpt>
      <trkpt lat="38.67888" lon="-2.51015">
        <ele>872.985799</ele>
        <time>2022-02-23T23:34:41.162Z</time>
      </trkpt>
      <trkpt lat="38.67839" lon="-2.50972">
        <ele>873.203744</ele>
        <time>2022-02-23T23:35:06.666Z</time>
      </trkpt>
      <trkpt lat="38.67816" lon="-2.5097">
        <ele>873.290363</ele>
        <time>2022-02-23T23:35:16.320Z</time>
      </trkpt>
      <trkpt lat="38.6771" lon="-2.5094">
        <ele>873.006582</ele>
        <time>2022-02-23T23:35:54.559Z</time>
      </trkpt>
      <trkpt lat="38.67684" lon="-2.50982">
        <ele>872.089093</ele>
        <time>2022-02-23T23:36:08.385Z</time>
      </trkpt>
      <trkpt lat="38.67643" lon="-2.50968">
        <ele>871.173886</ele>
        <time>2022-02-23T23:36:15.856Z</time>
      </trkpt>
      <trkpt lat="38.67639" lon="-2.50967">
        <ele>871.086719</ele>
        <time>2022-02-23T23:36:16.537Z</time>
      </trkpt>
      <trkpt lat="38.67428" lon="-2.50909">
        <ele>865.486414</ele>
        <time>2022-02-23T23:36:53.612Z</time>
      </trkpt>
      <trkpt lat="38.67417" lon="-2.50908">
        <ele>865.177853</ele>
        <time>2022-02-23T23:36:55.671Z</time>
      </trkpt>
      <trkpt lat="38.67392" lon="-2.5092">
        <ele>864.552454</ele>
        <time>2022-02-23T23:37:00.590Z</time>
      </trkpt>
      <trkpt lat="38.67351" lon="-2.51069">
        <ele>862.825818</ele>
        <time>2022-02-23T23:37:24.327Z</time>
      </trkpt>
      <trkpt lat="38.67333" lon="-2.51114">
        <ele>862.264706</ele>
        <time>2022-02-23T23:37:32.273Z</time>
      </trkpt>
      <trkpt lat="38.67318" lon="-2.51146">
        <ele>861.899415</ele>
        <time>2022-02-23T23:37:37.968Z</time>
      </trkpt>
      <trkpt lat="38.67243" lon="-2.51257">
        <ele>860.500717</ele>
        <time>2022-02-23T23:38:00.492Z</time>
      </trkpt>
      <trkpt lat="38.6721" lon="-2.51315">
        <ele>859.804945</ele>
        <time>2022-02-23T23:38:11.224Z</time>
      </trkpt>
      <trkpt lat="38.66817" lon="-2.52123">
        <ele>849.790626</ele>
        <time>2022-02-23T23:40:34.070Z</time>
      </trkpt>
      <trkpt lat="38.66517" lon="-2.52753">
        <ele>844.482074</ele>
        <time>2022-02-23T23:42:29.827Z</time>
      </trkpt>
      <trkpt lat="38.66502" lon="-2.52819">
        <ele>843.991397</ele>
        <time>2022-02-23T23:42:40.765Z</time>
      </trkpt>
      <trkpt lat="38.66493" lon="-2.52888">
        <ele>843.487912</ele>
        <time>2022-02-23T23:42:51.867Z</time>
      </trkpt>
      <trkpt lat="38.66431" lon="-2.5358">
        <ele>836.156226</ele>
        <time>2022-02-23T23:44:36.396Z</time>
      </trkpt>
      <trkpt lat="38.6643" lon="-2.53669">
        <ele>835.335951</ele>
        <time>2022-02-23T23:44:50.000Z</time>
      </trkpt>
      <trkpt lat="38.66433" lon="-2.53738">
        <ele>834.703408</ele>
        <time>2022-02-23T23:45:00.599Z</time>
      </trkpt>
      <trkpt lat="38.66448" lon="-2.54298">
        <ele>829.314231</ele>
        <time>2022-02-23T23:46:26.180Z</time>
      </trkpt>
      <trkpt lat="38.66449" lon="-2.54563">
        <ele>825.752411</ele>
        <time>2022-02-23T23:47:03.908Z</time>
      </trkpt>
      <trkpt lat="38.66429" lon="-2.54645">
        <ele>824.893256</ele>
        <time>2022-02-23T23:47:17.007Z</time>
      </trkpt>
      <trkpt lat="38.66357" lon="-2.54755">
        <ele>824.234672</ele>
        <time>2022-02-23T23:47:40.298Z</time>
      </trkpt>
      <trkpt lat="38.66312" lon="-2.54817">
        <ele>824.366705</ele>
        <time>2022-02-23T23:47:55.860Z</time>
      </trkpt>
      <trkpt lat="38.66196" lon="-2.54973">
        <ele>825.601137</ele>
        <time>2022-02-23T23:48:39.912Z</time>
      </trkpt>
      <trkpt lat="38.66024" lon="-2.55163">
        <ele>828.465123</ele>
        <time>2022-02-23T23:49:46.739Z</time>
      </trkpt>
      <trkpt lat="38.66021" lon="-2.55165">
        <ele>828.510615</ele>
        <time>2022-02-23T23:49:47.750Z</time>
      </trkpt>
      <trkpt lat="38.65876" lon="-2.55328">
        <ele>830.274028</ele>
        <time>2022-02-23T23:50:41.106Z</time>
      </trkpt>
      <trkpt lat="38.65745" lon="-2.55561">
        <ele>829.264952</ele>
        <time>2022-02-23T23:51:27.748Z</time>
      </trkpt>
      <trkpt lat="38.6569" lon="-2.55662">
        <ele>828.276874</ele>
        <time>2022-02-23T23:51:46.476Z</time>
      </trkpt>
      <trkpt lat="38.65673" lon="-2.55685">
        <ele>828.019269</ele>
        <time>2022-02-23T23:51:51.331Z</time>
      </trkpt>
      <trkpt lat="38.65441" lon="-2.55942">
        <ele>825.119627</ele>
        <time>2022-02-23T23:52:51.933Z</time>
      </trkpt>
      <trkpt lat="38.65401" lon="-2.5598">
        <ele>824.755038</ele>
        <time>2022-02-23T23:53:02.451Z</time>
      </trkpt>
      <trkpt lat="38.64758" lon="-2.56461">
        <ele>822.283746</ele>
        <time>2022-02-23T23:55:43.033Z</time>
      </trkpt>
      <trkpt lat="38.64721" lon="-2.56491">
        <ele>821.580222</ele>
        <time>2022-02-23T23:55:50.850Z</time>
      </trkpt>
      <trkpt lat="38.64679" lon="-2.56522">
        <ele>820.765216</ele>
        <time>2022-02-23T23:55:59.620Z</time>
      </trkpt>
      <trkpt lat="38.64636" lon="-2.56554">
        <ele>819.930463</ele>
        <time>2022-02-23T23:56:08.776Z</time>
      </trkpt>
      <trkpt lat="38.646" lon="-2.56573">
        <ele>819.282704</ele>
        <time>2022-02-23T23:56:15.921Z</time>
      </trkpt>
      <trkpt lat="38.64596" lon="-2.56575">
        <ele>819.266451</ele>
        <time>2022-02-23T23:56:16.835Z</time>
      </trkpt>
      <trkpt lat="38.64586" lon="-2.56577">
        <ele>819.29507</ele>
        <time>2022-02-23T23:56:18.705Z</time>
      </trkpt>
      <trkpt lat="38.64578" lon="-2.5658">
        <ele>819.320939</ele>
        <time>2022-02-23T23:56:20.452Z</time>
      </trkpt>
      <trkpt lat="38.64561" lon="-2.56584">
        <ele>819.37263</ele>
        <time>2022-02-23T23:56:24.114Z</time>
      </trkpt>
      <trkpt lat="38.6448" lon="-2.56596">
        <ele>819.618579</ele>
        <time>2022-02-23T23:56:44.608Z</time>
      </trkpt>
      <trkpt lat="38.64463" lon="-2.56597">
        <ele>819.671033</ele>
        <time>2022-02-23T23:56:49.456Z</time>
      </trkpt>
      <trkpt lat="38.63845" lon="-2.56662">
        <ele>825.988616</ele>
        <time>2022-02-23T23:59:43.068Z</time>
      </trkpt>
      <trkpt lat="38.62906" lon="-2.56721">
        <ele>828.487091</ele>
        <time>2022-02-24T00:03:21.113Z</time>
      </trkpt>
      <trkpt lat="38.62853" lon="-2.56724">
        <ele>828.779861</ele>
        <time>2022-02-24T00:03:35.095Z</time>
      </trkpt>
      <trkpt lat="38.62677" lon="-2.56737">
        <ele>829.486878</ele>
        <time>2022-02-24T00:04:20.708Z</time>
      </trkpt>
      <trkpt lat="38.62651" lon="-2.56737">
        <ele>829.578236</ele>
        <time>2022-02-24T00:04:26.400Z</time>
      </trkpt>
      <trkpt lat="38.62649" lon="-2.56737">
        <ele>829.585161</ele>
        <time>2022-02-24T00:04:26.866Z</time>
      </trkpt>
      <trkpt lat="38.62647" lon="-2.56737">
        <ele>829.590378</ele>
        <time>2022-02-24T00:04:27.167Z</time>
      </trkpt>
      <trkpt lat="38.6264" lon="-2.56737">
        <ele>829.61737</ele>
        <time>2022-02-24T00:04:28.797Z</time>
      </trkpt>
      <trkpt lat="38.62613" lon="-2.56738">
        <ele>829.498046</ele>
        <time>2022-02-24T00:04:34.379Z</time>
      </trkpt>
      <trkpt lat="38.62617" lon="-2.56782">
        <ele>829.027935</ele>
        <time>2022-02-24T00:04:46.411Z</time>
      </trkpt>
      <trkpt lat="38.6263" lon="-2.56822">
        <ele>828.567077</ele>
        <time>2022-02-24T00:04:58.048Z</time>
      </trkpt>
      <trkpt lat="38.62675" lon="-2.56891">
        <ele>827.596009</ele>
        <time>2022-02-24T00:05:21.128Z</time>
      </trkpt>
      <trkpt lat="38.62697" lon="-2.56935">
        <ele>827.205062</ele>
        <time>2022-02-24T00:05:34.121Z</time>
      </trkpt>
      <trkpt lat="38.62702" lon="-2.56966">
        <ele>827.204653</ele>
        <time>2022-02-24T00:05:42.516Z</time>
      </trkpt>
      <trkpt lat="38.62762" lon="-2.56968">
        <ele>827.203662</ele>
        <time>2022-02-24T00:06:03.470Z</time>
      </trkpt>
      <trkpt lat="38.62763" lon="-2.56995">
        <ele>827.203313</ele>
        <time>2022-02-24T00:06:11.005Z</time>
      </trkpt>
      <trkpt lat="38.62273" lon="-2.57033">
        <ele>835.31681</ele>
        <time>2022-02-24T00:08:58.122Z</time>
      </trkpt>
      <trkpt lat="38.62017" lon="-2.57044">
        <ele>834.861365</ele>
        <time>2022-02-24T00:09:53.916Z</time>
      </trkpt>
      <trkpt lat="38.61911" lon="-2.57043">
        <ele>833.280259</ele>
        <time>2022-02-24T00:10:15.320Z</time>
      </trkpt>
      <trkpt lat="38.619" lon="-2.57052">
        <ele>833.02446</ele>
        <time>2022-02-24T00:10:18.016Z</time>
      </trkpt>
      <trkpt lat="38.61884" lon="-2.57076">
        <ele>832.566321</ele>
        <time>2022-02-24T00:10:22.772Z</time>
      </trkpt>
      <trkpt lat="38.61829" lon="-2.57152">
        <ele>830.932654</ele>
        <time>2022-02-24T00:10:37.809Z</time>
      </trkpt>
      <trkpt lat="38.61751" lon="-2.57274">
        <ele>827.061876</ele>
        <time>2022-02-24T00:10:59.715Z</time>
      </trkpt>
      <trkpt lat="38.6171" lon="-2.57365">
        <ele>824.737217</ele>
        <time>2022-02-24T00:11:14.429Z</time>
      </trkpt>
      <trkpt lat="38.61661" lon="-2.57523">
        <ele>821.495788</ele>
        <time>2022-02-24T00:11:39.395Z</time>
      </trkpt>
      <trkpt lat="38.61601" lon="-2.57773">
        <ele>818.636405</ele>
        <time>2022-02-24T00:12:20.561Z</time>
      </trkpt>
      <trkpt lat="38.61589" lon="-2.5785">
        <ele>818.324972</ele>
        <time>2022-02-24T00:12:33.682Z</time>
      </trkpt>
      <trkpt lat="38.61585" lon="-2.57906">
        <ele>818.098501</ele>
        <time>2022-02-24T00:12:43.530Z</time>
      </trkpt>
      <trkpt lat="38.6159" lon="-2.57992">
        <ele>817.742664</ele>
        <time>2022-02-24T00:12:58.903Z</time>
      </trkpt>
      <trkpt lat="38.61594" lon="-2.58038">
        <ele>817.490784</ele>
        <time>2022-02-24T00:13:07.136Z</time>
      </trkpt>
      <trkpt lat="38.61628" lon="-2.58222">
        <ele>816.343651</ele>
        <time>2022-02-24T00:13:38.327Z</time>
      </trkpt>
      <trkpt lat="38.61634" lon="-2.58298">
        <ele>815.24183</ele>
        <time>2022-02-24T00:13:50.110Z</time>
      </trkpt>
      <trkpt lat="38.61633" lon="-2.58342">
        <ele>814.608045</ele>
        <time>2022-02-24T00:13:56.836Z</time>
      </trkpt>
      <trkpt lat="38.6163" lon="-2.58385">
        <ele>813.978578</ele>
        <time>2022-02-24T00:14:03.423Z</time>
      </trkpt>
      <trkpt lat="38.61627" lon="-2.58416">
        <ele>813.535679</ele>
        <time>2022-02-24T00:14:07.979Z</time>
      </trkpt>
      <trkpt lat="38.61622" lon="-2.58439">
        <ele>813.194901</ele>
        <time>2022-02-24T00:14:11.417Z</time>
      </trkpt>
      <trkpt lat="38.61619" lon="-2.58452">
        <ele>812.992433</ele>
        <time>2022-02-24T00:14:13.501Z</time>
      </trkpt>
      <trkpt lat="38.61596" lon="-2.58527">
        <ele>811.86732</ele>
        <time>2022-02-24T00:14:24.853Z</time>
      </trkpt>
      <trkpt lat="38.61567" lon="-2.58583">
        <ele>810.9301</ele>
        <time>2022-02-24T00:14:35.028Z</time>
      </trkpt>
      <trkpt lat="38.61525" lon="-2.58644">
        <ele>810.050883</ele>
        <time>2022-02-24T00:14:48.423Z</time>
      </trkpt>
      <trkpt lat="38.61501" lon="-2.58674">
        <ele>810.245867</ele>
        <time>2022-02-24T00:14:55.944Z</time>
      </trkpt>
      <trkpt lat="38.61371" lon="-2.5879">
        <ele>811.505867</ele>
        <time>2022-02-24T00:15:40.245Z</time>
      </trkpt>
      <trkpt lat="38.61289" lon="-2.58873">
        <ele>813.606378</ele>
        <time>2022-02-24T00:16:15.740Z</time>
      </trkpt>
      <trkpt lat="38.61238" lon="-2.5896">
        <ele>815.387213</ele>
        <time>2022-02-24T00:16:45.658Z</time>
      </trkpt>
      <trkpt lat="38.61218" lon="-2.59019">
        <ele>816.50386</ele>
        <time>2022-02-24T00:17:03.474Z</time>
      </trkpt>
      <trkpt lat="38.61196" lon="-2.59137">
        <ele>818.637553</ele>
        <time>2022-02-24T00:17:36.665Z</time>
      </trkpt>
      <trkpt lat="38.61195" lon="-2.592">
        <ele>818.974036</ele>
        <time>2022-02-24T00:17:51.339Z</time>
      </trkpt>
      <trkpt lat="38.61204" lon="-2.59281">
        <ele>819.387186</ele>
        <time>2022-02-24T00:18:09.011Z</time>
      </trkpt>
      <trkpt lat="38.6127" lon="-2.59686">
        <ele>818.967532</ele>
        <time>2022-02-24T00:19:20.744Z</time>
      </trkpt>
      <trkpt lat="38.61278" lon="-2.59783">
        <ele>818.751519</ele>
        <time>2022-02-24T00:19:37.993Z</time>
      </trkpt>
      <trkpt lat="38.61277" lon="-2.59856">
        <ele>818.549502</ele>
        <time>2022-02-24T00:19:50.733Z</time>
      </trkpt>
      <trkpt lat="38.61267" lon="-2.59949">
        <ele>818.241187</ele>
        <time>2022-02-24T00:20:06.880Z</time>
      </trkpt>
      <trkpt lat="38.61248" lon="-2.60026">
        <ele>817.974286</ele>
        <time>2022-02-24T00:20:20.603Z</time>
      </trkpt>
      <trkpt lat="38.61202" lon="-2.60157">
        <ele>817.481502</ele>
        <time>2022-02-24T00:20:45.016Z</time>
      </trkpt>
      <trkpt lat="38.60698" lon="-2.6108">
        <ele>814.294183</ele>
        <time>2022-02-24T00:24:00.686Z</time>
      </trkpt>
      <trkpt lat="38.60642" lon="-2.61173">
        <ele>813.857822</ele>
        <time>2022-02-24T00:24:20.706Z</time>
      </trkpt>
      <trkpt lat="38.60292" lon="-2.61613">
        <ele>809.277036</ele>
        <time>2022-02-24T00:26:02.993Z</time>
      </trkpt>
      <trkpt lat="38.60035" lon="-2.61925">
        <ele>805.440779</ele>
        <time>2022-02-24T00:27:16.797Z</time>
      </trkpt>
      <trkpt lat="38.59935" lon="-2.62035">
        <ele>803.037331</ele>
        <time>2022-02-24T00:27:42.885Z</time>
      </trkpt>
      <trkpt lat="38.59627" lon="-2.62281">
        <ele>794.793071</ele>
        <time>2022-02-24T00:28:49.092Z</time>
      </trkpt>
      <trkpt lat="38.59598" lon="-2.62307">
        <ele>794.603541</ele>
        <time>2022-02-24T00:28:57.690Z</time>
      </trkpt>
      <trkpt lat="38.59521" lon="-2.62376">
        <ele>794.333034</ele>
        <time>2022-02-24T00:29:24.768Z</time>
      </trkpt>
      <trkpt lat="38.59481" lon="-2.6242">
        <ele>794.706766</ele>
        <time>2022-02-24T00:29:41.919Z</time>
      </trkpt>
      <trkpt lat="38.59314" lon="-2.62671">
        <ele>795.467885</ele>
        <time>2022-02-24T00:30:43.657Z</time>
      </trkpt>
      <trkpt lat="38.5925" lon="-2.6275">
        <ele>795.316069</ele>
        <time>2022-02-24T00:31:02.850Z</time>
      </trkpt>
      <trkpt lat="38.59166" lon="-2.62817">
        <ele>795.061987</ele>
        <time>2022-02-24T00:31:25.001Z</time>
      </trkpt>
      <trkpt lat="38.59112" lon="-2.62848">
        <ele>795.248378</ele>
        <time>2022-02-24T00:31:38.662Z</time>
      </trkpt>
      <trkpt lat="38.58804" lon="-2.62987">
        <ele>797.842959</ele>
        <time>2022-02-24T00:33:08.630Z</time>
      </trkpt>
      <trkpt lat="38.5869" lon="-2.63034">
        <ele>799.005911</ele>
        <time>2022-02-24T00:33:43.165Z</time>
      </trkpt>
      <trkpt lat="38.58576" lon="-2.63092">
        <ele>800.000344</ele>
        <time>2022-02-24T00:34:16.752Z</time>
      </trkpt>
      <trkpt lat="38.58482" lon="-2.63173">
        <ele>800.780049</ele>
        <time>2022-02-24T00:34:46.219Z</time>
      </trkpt>
      <trkpt lat="38.58412" lon="-2.63255">
        <ele>801.319349</ele>
        <time>2022-02-24T00:35:10.817Z</time>
      </trkpt>
      <trkpt lat="38.58367" lon="-2.63336">
        <ele>801.761385</ele>
        <time>2022-02-24T00:35:31.343Z</time>
      </trkpt>
      <trkpt lat="38.5821" lon="-2.63747">
        <ele>803.087447</ele>
        <time>2022-02-24T00:37:02.785Z</time>
      </trkpt>
      <trkpt lat="38.58182" lon="-2.63805">
        <ele>802.272828</ele>
        <time>2022-02-24T00:37:13.993Z</time>
      </trkpt>
      <trkpt lat="38.58141" lon="-2.63862">
        <ele>801.147379</ele>
        <time>2022-02-24T00:37:25.620Z</time>
      </trkpt>
      <trkpt lat="38.58091" lon="-2.63912">
        <ele>799.960633</ele>
        <time>2022-02-24T00:37:37.097Z</time>
      </trkpt>
      <trkpt lat="38.58044" lon="-2.63945">
        <ele>799.267401</ele>
        <time>2022-02-24T00:37:46.921Z</time>
      </trkpt>
      <trkpt lat="38.58001" lon="-2.63967">
        <ele>798.736798</ele>
        <time>2022-02-24T00:37:55.864Z</time>
      </trkpt>
      <trkpt lat="38.57904" lon="-2.63989">
        <ele>797.828853</ele>
        <time>2022-02-24T00:38:17.821Z</time>
      </trkpt>
      <trkpt lat="38.57691" lon="-2.64015">
        <ele>799.569911</ele>
        <time>2022-02-24T00:39:31.217Z</time>
      </trkpt>
      <trkpt lat="38.57629" lon="-2.64038">
        <ele>797.676917</ele>
        <time>2022-02-24T00:39:43.486Z</time>
      </trkpt>
      <trkpt lat="38.57584" lon="-2.64059">
        <ele>796.236689</ele>
        <time>2022-02-24T00:39:51.385Z</time>
      </trkpt>
      <trkpt lat="38.57509" lon="-2.64127">
        <ele>791.022095</ele>
        <time>2022-02-24T00:40:05.497Z</time>
      </trkpt>
      <trkpt lat="38.57477" lon="-2.64175">
        <ele>787.724145</ele>
        <time>2022-02-24T00:40:12.864Z</time>
      </trkpt>
      <trkpt lat="38.57395" lon="-2.64298">
        <ele>783.036144</ele>
        <time>2022-02-24T00:40:34.507Z</time>
      </trkpt>
      <trkpt lat="38.57361" lon="-2.64346">
        <ele>782.789472</ele>
        <time>2022-02-24T00:40:49.579Z</time>
      </trkpt>
      <trkpt lat="38.57312" lon="-2.6442">
        <ele>782.380481</ele>
        <time>2022-02-24T00:41:15.141Z</time>
      </trkpt>
      <trkpt lat="38.57289" lon="-2.64463">
        <ele>782.030301</ele>
        <time>2022-02-24T00:41:29.389Z</time>
      </trkpt>
      <trkpt lat="38.57176" lon="-2.64842">
        <ele>777.601813</ele>
        <time>2022-02-24T00:42:29.749Z</time>
      </trkpt>
      <trkpt lat="38.57116" lon="-2.65032">
        <ele>778.847683</ele>
        <time>2022-02-24T00:43:10.688Z</time>
      </trkpt>
      <trkpt lat="38.57007" lon="-2.65376">
        <ele>789.820143</ele>
        <time>2022-02-24T00:45:23.275Z</time>
      </trkpt>
      <trkpt lat="38.56892" lon="-2.65678">
        <ele>796.987202</ele>
        <time>2022-02-24T00:46:57.230Z</time>
      </trkpt>
      <trkpt lat="38.56855" lon="-2.65753">
        <ele>797.512418</ele>
        <time>2022-02-24T00:47:17.096Z</time>
      </trkpt>
      <trkpt lat="38.56816" lon="-2.65821">
        <ele>798.011905</ele>
        <time>2022-02-24T00:47:34.528Z</time>
      </trkpt>
      <trkpt lat="38.56725" lon="-2.65944">
        <ele>797.509976</ele>
        <time>2022-02-24T00:48:04.401Z</time>
      </trkpt>
      <trkpt lat="38.56624" lon="-2.66033">
        <ele>796.004376</ele>
        <time>2022-02-24T00:48:28.497Z</time>
      </trkpt>
      <trkpt lat="38.56544" lon="-2.66088">
        <ele>794.126238</ele>
        <time>2022-02-24T00:48:45.588Z</time>
      </trkpt>
      <trkpt lat="38.56498" lon="-2.66111">
        <ele>793.109317</ele>
        <time>2022-02-24T00:48:54.843Z</time>
      </trkpt>
      <trkpt lat="38.55943" lon="-2.66304">
        <ele>784.236117</ele>
        <time>2022-02-24T00:50:49.120Z</time>
      </trkpt>
      <trkpt lat="38.55847" lon="-2.66321">
        <ele>782.996631</ele>
        <time>2022-02-24T00:51:09.413Z</time>
      </trkpt>
      <trkpt lat="38.55775" lon="-2.66327">
        <ele>781.935058</ele>
        <time>2022-02-24T00:51:23.918Z</time>
      </trkpt>
      <trkpt lat="38.55767" lon="-2.66327">
        <ele>781.757897</ele>
        <time>2022-02-24T00:51:25.529Z</time>
      </trkpt>
      <trkpt lat="38.55397" lon="-2.66355">
        <ele>773.91027</ele>
        <time>2022-02-24T00:52:34.850Z</time>
      </trkpt>
      <trkpt lat="38.55314" lon="-2.66381">
        <ele>773.457455</ele>
        <time>2022-02-24T00:52:53.288Z</time>
      </trkpt>
      <trkpt lat="38.55284" lon="-2.66398">
        <ele>773.28569</ele>
        <time>2022-02-24T00:53:01.502Z</time>
      </trkpt>
      <trkpt lat="38.55233" lon="-2.66439">
        <ele>773.713428</ele>
        <time>2022-02-24T00:53:18.716Z</time>
      </trkpt>
      <trkpt lat="38.55197" lon="-2.66472">
        <ele>774.475988</ele>
        <time>2022-02-24T00:53:32.542Z</time>
      </trkpt>
      <trkpt lat="38.54849" lon="-2.66782">
        <ele>781.175236</ele>
        <time>2022-02-24T00:55:50.497Z</time>
      </trkpt>
      <trkpt lat="38.54768" lon="-2.66825">
        <ele>780.729606</ele>
        <time>2022-02-24T00:56:10.311Z</time>
      </trkpt>
      <trkpt lat="38.54308" lon="-2.67025">
        <ele>771.093304</ele>
        <time>2022-02-24T00:57:42.206Z</time>
      </trkpt>
      <trkpt lat="38.54243" lon="-2.67073">
        <ele>770.386378</ele>
        <time>2022-02-24T00:57:57.262Z</time>
      </trkpt>
      <trkpt lat="38.54197" lon="-2.67118">
        <ele>769.880523</ele>
        <time>2022-02-24T00:58:09.593Z</time>
      </trkpt>
      <trkpt lat="38.54171" lon="-2.67144">
        <ele>769.597689</ele>
        <time>2022-02-24T00:58:16.886Z</time>
      </trkpt>
      <trkpt lat="38.53935" lon="-2.67382">
        <ele>770.681237</ele>
        <time>2022-02-24T00:59:34.363Z</time>
      </trkpt>
      <trkpt lat="38.52986" lon="-2.68348">
        <ele>773.406786</ele>
        <time>2022-02-24T01:04:31.369Z</time>
      </trkpt>
      <trkpt lat="38.52939" lon="-2.68388">
        <ele>773.004843</ele>
        <time>2022-02-24T01:04:43.092Z</time>
      </trkpt>
      <trkpt lat="38.52859" lon="-2.68428">
        <ele>772.314158</ele>
        <time>2022-02-24T01:05:00.424Z</time>
      </trkpt>
      <trkpt lat="38.52772" lon="-2.68444">
        <ele>771.31018</ele>
        <time>2022-02-24T01:05:18.182Z</time>
      </trkpt>
      <trkpt lat="38.52723" lon="-2.68447">
        <ele>770.758196</ele>
        <time>2022-02-24T01:05:28.194Z</time>
      </trkpt>
      <trkpt lat="38.52504" lon="-2.6846">
        <ele>769.433863</ele>
        <time>2022-02-24T01:06:16.192Z</time>
      </trkpt>
      <trkpt lat="38.52452" lon="-2.68479">
        <ele>769.021268</ele>
        <time>2022-02-24T01:06:27.973Z</time>
      </trkpt>
      <trkpt lat="38.5239" lon="-2.68508">
        <ele>768.513991</ele>
        <time>2022-02-24T01:06:42.165Z</time>
      </trkpt>
      <trkpt lat="38.52298" lon="-2.68571">
        <ele>766.793121</ele>
        <time>2022-02-24T01:07:03.315Z</time>
      </trkpt>
      <trkpt lat="38.52195" lon="-2.68651">
        <ele>763.995783</ele>
        <time>2022-02-24T01:07:25.569Z</time>
      </trkpt>
      <trkpt lat="38.52174" lon="-2.68668">
        <ele>763.106913</ele>
        <time>2022-02-24T01:07:30.004Z</time>
      </trkpt>
      <trkpt lat="38.51987" lon="-2.68813">
        <ele>755.957477</ele>
        <time>2022-02-24T01:08:08.314Z</time>
      </trkpt>
      <trkpt lat="38.51894" lon="-2.6888">
        <ele>753.092833</ele>
        <time>2022-02-24T01:08:28.168Z</time>
      </trkpt>
      <trkpt lat="38.51737" lon="-2.68981">
        <ele>752.144207</ele>
        <time>2022-02-24T01:09:05.501Z</time>
      </trkpt>
      <trkpt lat="38.51698" lon="-2.69005">
        <ele>753.075366</ele>
        <time>2022-02-24T01:09:18.598Z</time>
      </trkpt>
      <trkpt lat="38.51515" lon="-2.69125">
        <ele>759.798874</ele>
        <time>2022-02-24T01:10:47.655Z</time>
      </trkpt>
      <trkpt lat="38.5149" lon="-2.69145">
        <ele>760.768138</ele>
        <time>2022-02-24T01:11:00.552Z</time>
      </trkpt>
      <trkpt lat="38.51428" lon="-2.69202">
        <ele>763.310705</ele>
        <time>2022-02-24T01:11:31.395Z</time>
      </trkpt>
      <trkpt lat="38.5105" lon="-2.69577">
        <ele>769.673167</ele>
        <time>2022-02-24T01:13:50.720Z</time>
      </trkpt>
      <trkpt lat="38.50944" lon="-2.69667">
        <ele>771.259099</ele>
        <time>2022-02-24T01:14:27.229Z</time>
      </trkpt>
      <trkpt lat="38.50787" lon="-2.69768">
        <ele>773.588776</ele>
        <time>2022-02-24T01:15:21.257Z</time>
      </trkpt>
      <trkpt lat="38.50624" lon="-2.69843">
        <ele>775.511254</ele>
        <time>2022-02-24T01:16:10.321Z</time>
      </trkpt>
      <trkpt lat="38.50483" lon="-2.69886">
        <ele>776.969299</ele>
        <time>2022-02-24T01:16:50.814Z</time>
      </trkpt>
      <trkpt lat="38.50126" lon="-2.69971">
        <ele>781.814346</ele>
        <time>2022-02-24T01:18:37.835Z</time>
      </trkpt>
      <trkpt lat="38.49502" lon="-2.70121">
        <ele>796.705159</ele>
        <time>2022-02-24T01:22:24.300Z</time>
      </trkpt>
      <trkpt lat="38.49442" lon="-2.70126">
        <ele>797.790592</ele>
        <time>2022-02-24T01:22:41.709Z</time>
      </trkpt>
      <trkpt lat="38.49389" lon="-2.70123">
        <ele>798.170386</ele>
        <time>2022-02-24T01:22:55.912Z</time>
      </trkpt>
      <trkpt lat="38.49321" lon="-2.70103">
        <ele>798.276106</ele>
        <time>2022-02-24T01:23:12.769Z</time>
      </trkpt>
      <trkpt lat="38.4928" lon="-2.70081">
        <ele>798.34138</ele>
        <time>2022-02-24T01:23:22.801Z</time>
      </trkpt>
      <trkpt lat="38.48345" lon="-2.69521">
        <ele>795.096977</ele>
        <time>2022-02-24T01:27:12.677Z</time>
      </trkpt>
      <trkpt lat="38.48261" lon="-2.69486">
        <ele>794.669746</ele>
        <time>2022-02-24T01:27:32.668Z</time>
      </trkpt>
      <trkpt lat="38.48223" lon="-2.69477">
        <ele>794.111639</ele>
        <time>2022-02-24T01:27:40.835Z</time>
      </trkpt>
      <trkpt lat="38.48185" lon="-2.69474">
        <ele>793.545674</ele>
        <time>2022-02-24T01:27:48.713Z</time>
      </trkpt>
      <trkpt lat="38.48092" lon="-2.6949">
        <ele>792.144272</ele>
        <time>2022-02-24T01:28:06.758Z</time>
      </trkpt>
      <trkpt lat="38.48032" lon="-2.6952">
        <ele>789.872761</ele>
        <time>2022-02-24T01:28:18.322Z</time>
      </trkpt>
      <trkpt lat="38.47975" lon="-2.69559">
        <ele>787.571619</ele>
        <time>2022-02-24T01:28:29.510Z</time>
      </trkpt>
      <trkpt lat="38.47843" lon="-2.69712">
        <ele>782.292226</ele>
        <time>2022-02-24T01:29:00.446Z</time>
      </trkpt>
      <trkpt lat="38.47306" lon="-2.70349">
        <ele>779.404126</ele>
        <time>2022-02-24T01:31:43.895Z</time>
      </trkpt>
      <trkpt lat="38.46968" lon="-2.70742">
        <ele>786.536715</ele>
        <time>2022-02-24T01:34:14.369Z</time>
      </trkpt>
      <trkpt lat="38.46686" lon="-2.71086">
        <ele>787.375019</ele>
        <time>2022-02-24T01:35:46.401Z</time>
      </trkpt>
      <trkpt lat="38.45759" lon="-2.71944">
        <ele>775.760211</ele>
        <time>2022-02-24T01:39:43.122Z</time>
      </trkpt>
      <trkpt lat="38.45713" lon="-2.71987">
        <ele>775.486956</ele>
        <time>2022-02-24T01:39:54.733Z</time>
      </trkpt>
      <trkpt lat="38.45538" lon="-2.72149">
        <ele>774.965844</ele>
        <time>2022-02-24T01:40:47.035Z</time>
      </trkpt>
      <trkpt lat="38.4517" lon="-2.72487">
        <ele>771.501851</ele>
        <time>2022-02-24T01:42:23.960Z</time>
      </trkpt>
      <trkpt lat="38.45129" lon="-2.72533">
        <ele>769.76836</ele>
        <time>2022-02-24T01:42:33.914Z</time>
      </trkpt>
      <trkpt lat="38.45032" lon="-2.72661">
        <ele>764.178112</ele>
        <time>2022-02-24T01:42:57.357Z</time>
      </trkpt>
      <trkpt lat="38.44946" lon="-2.72809">
        <ele>760.800123</ele>
        <time>2022-02-24T01:43:22.706Z</time>
      </trkpt>
      <trkpt lat="38.44731" lon="-2.73216">
        <ele>765.21384</ele>
        <time>2022-02-24T01:45:27.831Z</time>
      </trkpt>
      <trkpt lat="38.44699" lon="-2.73258">
        <ele>764.602211</ele>
        <time>2022-02-24T01:45:38.153Z</time>
      </trkpt>
      <trkpt lat="38.44611" lon="-2.73344">
        <ele>761.87593</ele>
        <time>2022-02-24T01:45:58.516Z</time>
      </trkpt>
      <trkpt lat="38.44431" lon="-2.73496">
        <ele>753.071769</ele>
        <time>2022-02-24T01:46:34.806Z</time>
      </trkpt>
      <trkpt lat="38.44364" lon="-2.73561">
        <ele>751.820416</ele>
        <time>2022-02-24T01:46:50.497Z</time>
      </trkpt>
      <trkpt lat="38.44323" lon="-2.73609">
        <ele>750.982868</ele>
        <time>2022-02-24T01:47:02.458Z</time>
      </trkpt>
      <trkpt lat="38.44266" lon="-2.73693">
        <ele>750.541968</ele>
        <time>2022-02-24T01:47:24.541Z</time>
      </trkpt>
      <trkpt lat="38.44228" lon="-2.73773">
        <ele>750.791945</ele>
        <time>2022-02-24T01:47:43.408Z</time>
      </trkpt>
      <trkpt lat="38.4413" lon="-2.74034">
        <ele>751.076083</ele>
        <time>2022-02-24T01:48:37.735Z</time>
      </trkpt>
      <trkpt lat="38.43736" lon="-2.74972">
        <ele>746.001713</ele>
        <time>2022-02-24T01:51:37.191Z</time>
      </trkpt>
      <trkpt lat="38.43644" lon="-2.75207">
        <ele>743.694658</ele>
        <time>2022-02-24T01:52:21.641Z</time>
      </trkpt>
      <trkpt lat="38.43534" lon="-2.75486">
        <ele>737.038898</ele>
        <time>2022-02-24T01:53:05.718Z</time>
      </trkpt>
      <trkpt lat="38.4346" lon="-2.7564">
        <ele>732.838088</ele>
        <time>2022-02-24T01:53:31.230Z</time>
      </trkpt>
      <trkpt lat="38.43392" lon="-2.7574">
        <ele>729.988476</ele>
        <time>2022-02-24T01:53:50.390Z</time>
      </trkpt>
      <trkpt lat="38.43306" lon="-2.75833">
        <ele>726.938119</ele>
        <time>2022-02-24T01:54:11.086Z</time>
      </trkpt>
      <trkpt lat="38.43048" lon="-2.76076">
        <ele>717.920048</ele>
        <time>2022-02-24T01:55:09.404Z</time>
      </trkpt>
      <trkpt lat="38.42978" lon="-2.76148">
        <ele>715.619938</ele>
        <time>2022-02-24T01:55:26.505Z</time>
      </trkpt>
      <trkpt lat="38.42567" lon="-2.7664">
        <ele>702.11404</ele>
        <time>2022-02-24T01:57:11.532Z</time>
      </trkpt>
      <trkpt lat="38.42513" lon="-2.76689">
        <ele>700.792255</ele>
        <time>2022-02-24T01:57:24.496Z</time>
      </trkpt>
      <trkpt lat="38.4247" lon="-2.76713">
        <ele>700.036962</ele>
        <time>2022-02-24T01:57:33.850Z</time>
      </trkpt>
      <trkpt lat="38.42387" lon="-2.76735">
        <ele>699.187303</ele>
        <time>2022-02-24T01:57:51.379Z</time>
      </trkpt>
      <trkpt lat="38.42336" lon="-2.7673">
        <ele>698.673181</ele>
        <time>2022-02-24T01:58:02.163Z</time>
      </trkpt>
      <trkpt lat="38.42044" lon="-2.76644">
        <ele>696.958336</ele>
        <time>2022-02-24T01:59:07.449Z</time>
      </trkpt>
      <trkpt lat="38.41979" lon="-2.76634">
        <ele>696.652173</ele>
        <time>2022-02-24T01:59:22.793Z</time>
      </trkpt>
      <trkpt lat="38.41887" lon="-2.76643">
        <ele>694.205813</ele>
        <time>2022-02-24T01:59:41.761Z</time>
      </trkpt>
      <trkpt lat="38.41822" lon="-2.76664">
        <ele>692.04905</ele>
        <time>2022-02-24T01:59:53.404Z</time>
      </trkpt>
      <trkpt lat="38.41758" lon="-2.76707">
        <ele>688.878755</ele>
        <time>2022-02-24T02:00:05.122Z</time>
      </trkpt>
      <trkpt lat="38.41687" lon="-2.76788">
        <ele>683.32223</ele>
        <time>2022-02-24T02:00:20.185Z</time>
      </trkpt>
      <trkpt lat="38.41655" lon="-2.76841">
        <ele>680.291548</ele>
        <time>2022-02-24T02:00:28.754Z</time>
      </trkpt>
      <trkpt lat="38.41631" lon="-2.76899">
        <ele>680.375456</ele>
        <time>2022-02-24T02:00:37.737Z</time>
      </trkpt>
      <trkpt lat="38.41461" lon="-2.77552">
        <ele>681.802184</ele>
        <time>2022-02-24T02:03:12.912Z</time>
      </trkpt>
      <trkpt lat="38.41309" lon="-2.78163">
        <ele>667.941091</ele>
        <time>2022-02-24T02:04:43.127Z</time>
      </trkpt>
      <trkpt lat="38.41274" lon="-2.78271">
        <ele>665.352712</ele>
        <time>2022-02-24T02:04:59.529Z</time>
      </trkpt>
      <trkpt lat="38.41248" lon="-2.78316">
        <ele>664.117886</ele>
        <time>2022-02-24T02:05:07.516Z</time>
      </trkpt>
      <trkpt lat="38.41203" lon="-2.7837">
        <ele>663.013655</ele>
        <time>2022-02-24T02:05:19.205Z</time>
      </trkpt>
      <trkpt lat="38.41125" lon="-2.78421">
        <ele>662.435252</ele>
        <time>2022-02-24T02:05:36.928Z</time>
      </trkpt>
      <trkpt lat="38.41084" lon="-2.78434">
        <ele>662.156329</ele>
        <time>2022-02-24T02:05:48.201Z</time>
      </trkpt>
      <trkpt lat="38.41029" lon="-2.78438">
        <ele>662.306131</ele>
        <time>2022-02-24T02:06:05.476Z</time>
      </trkpt>
      <trkpt lat="38.40993" lon="-2.78434">
        <ele>662.603081</ele>
        <time>2022-02-24T02:06:17.485Z</time>
      </trkpt>
      <trkpt lat="38.40945" lon="-2.78418">
        <ele>663.003621</ele>
        <time>2022-02-24T02:06:33.931Z</time>
      </trkpt>
      <trkpt lat="38.40455" lon="-2.78045">
        <ele>659.23818</ele>
        <time>2022-02-24T02:08:33.527Z</time>
      </trkpt>
      <trkpt lat="38.40246" lon="-2.77892">
        <ele>658.965163</ele>
        <time>2022-02-24T02:09:30.461Z</time>
      </trkpt>
      <trkpt lat="38.40143" lon="-2.77841">
        <ele>658.454323</ele>
        <time>2022-02-24T02:09:55.203Z</time>
      </trkpt>
      <trkpt lat="38.4007" lon="-2.77821">
        <ele>657.640994</ele>
        <time>2022-02-24T02:10:10.457Z</time>
      </trkpt>
      <trkpt lat="38.39714" lon="-2.77766">
        <ele>651.56456</ele>
        <time>2022-02-24T02:11:19.735Z</time>
      </trkpt>
      <trkpt lat="38.39657" lon="-2.77762">
        <ele>651.152044</ele>
        <time>2022-02-24T02:11:32.064Z</time>
      </trkpt>
      <trkpt lat="38.39597" lon="-2.77766">
        <ele>650.711815</ele>
        <time>2022-02-24T02:11:45.746Z</time>
      </trkpt>
      <trkpt lat="38.39541" lon="-2.77782">
        <ele>650.138444</ele>
        <time>2022-02-24T02:11:58.779Z</time>
      </trkpt>
      <trkpt lat="38.39501" lon="-2.778">
        <ele>649.62927</ele>
        <time>2022-02-24T02:12:08.021Z</time>
      </trkpt>
      <trkpt lat="38.39466" lon="-2.77824">
        <ele>649.147766</ele>
        <time>2022-02-24T02:12:16.231Z</time>
      </trkpt>
      <trkpt lat="38.39388" lon="-2.77895">
        <ele>647.86201</ele>
        <time>2022-02-24T02:12:34.233Z</time>
      </trkpt>
      <trkpt lat="38.39272" lon="-2.78009">
        <ele>645.468985</ele>
        <time>2022-02-24T02:13:22.261Z</time>
      </trkpt>
      <trkpt lat="38.39144" lon="-2.78183">
        <ele>645.59539</ele>
        <time>2022-02-24T02:14:36.443Z</time>
      </trkpt>
      <trkpt lat="38.39132" lon="-2.78192">
        <ele>645.392146</ele>
        <time>2022-02-24T02:14:41.493Z</time>
      </trkpt>
      <trkpt lat="38.39117" lon="-2.78191">
        <ele>645.170501</ele>
        <time>2022-02-24T02:14:46.727Z</time>
      </trkpt>
      <trkpt lat="38.39066" lon="-2.78155">
        <ele>644.288854</ele>
        <time>2022-02-24T02:15:07.274Z</time>
      </trkpt>
      <trkpt lat="38.3909" lon="-2.78105">
        <ele>643.590316</ele>
        <time>2022-02-24T02:15:16.074Z</time>
      </trkpt>
      <trkpt lat="38.39092" lon="-2.78079">
        <ele>643.292668</ele>
        <time>2022-02-24T02:15:19.613Z</time>
      </trkpt>
      <trkpt lat="38.39063" lon="-2.77965">
        <ele>639.265789</ele>
        <time>2022-02-24T02:15:35.100Z</time>
      </trkpt>
      <trkpt lat="38.3905" lon="-2.7794">
        <ele>638.04906</ele>
        <time>2022-02-24T02:15:38.862Z</time>
      </trkpt>
      <trkpt lat="38.38857" lon="-2.77672">
        <ele>620.592122</ele>
        <time>2022-02-24T02:16:22.162Z</time>
      </trkpt>
      <trkpt lat="38.3879" lon="-2.77593">
        <ele>614.685968</ele>
        <time>2022-02-24T02:16:35.963Z</time>
      </trkpt>
      <trkpt lat="38.38741" lon="-2.77544">
        <ele>610.672459</ele>
        <time>2022-02-24T02:16:45.414Z</time>
      </trkpt>
      <trkpt lat="38.38661" lon="-2.77483">
        <ele>606.212331</ele>
        <time>2022-02-24T02:16:59.878Z</time>
      </trkpt>
      <trkpt lat="38.38613" lon="-2.77434">
        <ele>603.383865</ele>
        <time>2022-02-24T02:17:09.587Z</time>
      </trkpt>
      <trkpt lat="38.38575" lon="-2.77417">
        <ele>601.914103</ele>
        <time>2022-02-24T02:17:16.780Z</time>
      </trkpt>
      <trkpt lat="38.38566" lon="-2.77403">
        <ele>601.942891</ele>
        <time>2022-02-24T02:17:19.447Z</time>
      </trkpt>
      <trkpt lat="38.38553" lon="-2.77357">
        <ele>602.025554</ele>
        <time>2022-02-24T02:17:27.407Z</time>
      </trkpt>
      <trkpt lat="38.38531" lon="-2.77342">
        <ele>602.079822</ele>
        <time>2022-02-24T02:17:32.846Z</time>
      </trkpt>
      <trkpt lat="38.38461" lon="-2.77314">
        <ele>602.234928</ele>
        <time>2022-02-24T02:17:53.476Z</time>
      </trkpt>
      <trkpt lat="38.38426" lon="-2.77317">
        <ele>602.746512</ele>
        <time>2022-02-24T02:18:04.953Z</time>
      </trkpt>
      <trkpt lat="38.38415" lon="-2.77326">
        <ele>603.17729</ele>
        <time>2022-02-24T02:18:09.913Z</time>
      </trkpt>
      <trkpt lat="38.38407" lon="-2.77364">
        <ele>604.176217</ele>
        <time>2022-02-24T02:18:21.843Z</time>
      </trkpt>
      <trkpt lat="38.38391" lon="-2.77381">
        <ele>604.840248</ele>
        <time>2022-02-24T02:18:30.944Z</time>
      </trkpt>
      <trkpt lat="38.38345" lon="-2.77411">
        <ele>606.517889</ele>
        <time>2022-02-24T02:18:53.151Z</time>
      </trkpt>
      <trkpt lat="38.38329" lon="-2.77406">
        <ele>607.06161</ele>
        <time>2022-02-24T02:19:00.121Z</time>
      </trkpt>
      <trkpt lat="38.38234" lon="-2.77194">
        <ele>610.894718</ele>
        <time>2022-02-24T02:20:07.871Z</time>
      </trkpt>
      <trkpt lat="38.3822" lon="-2.77179">
        <ele>611.226486</ele>
        <time>2022-02-24T02:20:11.501Z</time>
      </trkpt>
      <trkpt lat="38.38163" lon="-2.77138">
        <ele>608.742761</ele>
        <time>2022-02-24T02:20:22.978Z</time>
      </trkpt>
      <trkpt lat="38.38126" lon="-2.77078">
        <ele>606.327485</ele>
        <time>2022-02-24T02:20:32.617Z</time>
      </trkpt>
      <trkpt lat="38.38111" lon="-2.77045">
        <ele>605.142337</ele>
        <time>2022-02-24T02:20:37.121Z</time>
      </trkpt>
      <trkpt lat="38.38068" lon="-2.77027">
        <ele>603.315433</ele>
        <time>2022-02-24T02:20:44.078Z</time>
      </trkpt>
      <trkpt lat="38.38049" lon="-2.77026">
        <ele>602.554279</ele>
        <time>2022-02-24T02:20:46.949Z</time>
      </trkpt>
      <trkpt lat="38.38034" lon="-2.7701">
        <ele>601.752927</ele>
        <time>2022-02-24T02:20:49.994Z</time>
      </trkpt>
      <trkpt lat="38.38021" lon="-2.76984">
        <ele>600.739312</ele>
        <time>2022-02-24T02:20:53.921Z</time>
      </trkpt>
      <trkpt lat="38.38017" lon="-2.76963">
        <ele>600.054555</ele>
        <time>2022-02-24T02:20:56.614Z</time>
      </trkpt>
      <trkpt lat="38.38017" lon="-2.76925">
        <ele>598.8164</ele>
        <time>2022-02-24T02:21:01.600Z</time>
      </trkpt>
      <trkpt lat="38.38019" lon="-2.76909">
        <ele>598.311199</ele>
        <time>2022-02-24T02:21:03.781Z</time>
      </trkpt>
      <trkpt lat="38.38043" lon="-2.76869">
        <ele>596.713725</ele>
        <time>2022-02-24T02:21:10.864Z</time>
      </trkpt>
      <trkpt lat="38.3804" lon="-2.76849">
        <ele>596.851175</ele>
        <time>2022-02-24T02:21:13.846Z</time>
      </trkpt>
      <trkpt lat="38.38008" lon="-2.76819">
        <ele>597.202635</ele>
        <time>2022-02-24T02:21:22.461Z</time>
      </trkpt>
      <trkpt lat="38.37992" lon="-2.76792">
        <ele>597.428578</ele>
        <time>2022-02-24T02:21:28.668Z</time>
      </trkpt>
      <trkpt lat="38.37725" lon="-2.76598">
        <ele>602.884982</ele>
        <time>2022-02-24T02:23:14.585Z</time>
      </trkpt>
      <trkpt lat="38.37693" lon="-2.76587">
        <ele>603.233767</ele>
        <time>2022-02-24T02:23:24.439Z</time>
      </trkpt>
      <trkpt lat="38.37668" lon="-2.76585">
        <ele>603.4992</ele>
        <time>2022-02-24T02:23:31.417Z</time>
      </trkpt>
      <trkpt lat="38.37633" lon="-2.76604">
        <ele>603.912622</ele>
        <time>2022-02-24T02:23:41.544Z</time>
      </trkpt>
      <trkpt lat="38.37598" lon="-2.76613">
        <ele>604.286218</ele>
        <time>2022-02-24T02:23:49.833Z</time>
      </trkpt>
      <trkpt lat="38.37578" lon="-2.76608">
        <ele>604.474933</ele>
        <time>2022-02-24T02:23:54.437Z</time>
      </trkpt>
      <trkpt lat="38.37451" lon="-2.76536">
        <ele>604.23424</ele>
        <time>2022-02-24T02:24:24.226Z</time>
      </trkpt>
      <trkpt lat="38.37032" lon="-2.75989">
        <ele>602.708924</ele>
        <time>2022-02-24T02:26:35.590Z</time>
      </trkpt>
      <trkpt lat="38.36989" lon="-2.7596">
        <ele>601.533167</ele>
        <time>2022-02-24T02:26:44.306Z</time>
      </trkpt>
      <trkpt lat="38.3688" lon="-2.75824">
        <ele>597.96651</ele>
        <time>2022-02-24T02:27:10.261Z</time>
      </trkpt>
      <trkpt lat="38.36826" lon="-2.75648">
        <ele>595.01626</ele>
        <time>2022-02-24T02:27:37.349Z</time>
      </trkpt>
      <trkpt lat="38.36699" lon="-2.75475">
        <ele>594.360082</ele>
        <time>2022-02-24T02:28:21.854Z</time>
      </trkpt>
      <trkpt lat="38.36656" lon="-2.75461">
        <ele>593.279034</ele>
        <time>2022-02-24T02:28:31.020Z</time>
      </trkpt>
      <trkpt lat="38.36634" lon="-2.75444">
        <ele>592.675979</ele>
        <time>2022-02-24T02:28:35.734Z</time>
      </trkpt>
      <trkpt lat="38.36564" lon="-2.75423">
        <ele>590.951622</ele>
        <time>2022-02-24T02:28:47.828Z</time>
      </trkpt>
      <trkpt lat="38.36434" lon="-2.75321">
        <ele>584.418962</ele>
        <time>2022-02-24T02:29:12.111Z</time>
      </trkpt>
      <trkpt lat="38.36414" lon="-2.75318">
        <ele>583.490179</ele>
        <time>2022-02-24T02:29:15.366Z</time>
      </trkpt>
      <trkpt lat="38.36397" lon="-2.75303">
        <ele>582.574146</ele>
        <time>2022-02-24T02:29:18.610Z</time>
      </trkpt>
      <trkpt lat="38.36369" lon="-2.75241">
        <ele>581.391137</ele>
        <time>2022-02-24T02:29:28.305Z</time>
      </trkpt>
      <trkpt lat="38.36374" lon="-2.75163">
        <ele>580.330458</ele>
        <time>2022-02-24T02:29:39.862Z</time>
      </trkpt>
      <trkpt lat="38.36359" lon="-2.75143">
        <ele>579.945642</ele>
        <time>2022-02-24T02:29:44.493Z</time>
      </trkpt>
      <trkpt lat="38.36345" lon="-2.75132">
        <ele>579.662668</ele>
        <time>2022-02-24T02:29:47.941Z</time>
      </trkpt>
      <trkpt lat="38.36299" lon="-2.75032">
        <ele>578.780233</ele>
        <time>2022-02-24T02:30:07.453Z</time>
      </trkpt>
      <trkpt lat="38.36142" lon="-2.74884">
        <ele>577.614277</ele>
        <time>2022-02-24T02:30:47.662Z</time>
      </trkpt>
      <trkpt lat="38.36096" lon="-2.74824">
        <ele>577.191847</ele>
        <time>2022-02-24T02:31:00.992Z</time>
      </trkpt>
      <trkpt lat="38.3608" lon="-2.74796">
        <ele>577.017815</ele>
        <time>2022-02-24T02:31:06.505Z</time>
      </trkpt>
      <trkpt lat="38.36061" lon="-2.74738">
        <ele>576.902305</ele>
        <time>2022-02-24T02:31:16.774Z</time>
      </trkpt>
      <trkpt lat="38.36056" lon="-2.74735">
        <ele>576.896529</ele>
        <time>2022-02-24T02:31:17.799Z</time>
      </trkpt>
      <trkpt lat="38.36056" lon="-2.74732">
        <ele>576.893716</ele>
        <time>2022-02-24T02:31:18.385Z</time>
      </trkpt>
      <trkpt lat="38.36045" lon="-2.74516">
        <ele>576.791014</ele>
        <time>2022-02-24T02:31:58.620Z</time>
      </trkpt>
      <trkpt lat="38.36043" lon="-2.74495">
        <ele>576.810619</ele>
        <time>2022-02-24T02:32:02.473Z</time>
      </trkpt>
      <trkpt lat="38.36037" lon="-2.74496">
        <ele>576.817073</ele>
        <time>2022-02-24T02:32:03.637Z</time>
      </trkpt>
      <trkpt lat="38.36033" lon="-2.74476">
        <ele>576.837011</ele>
        <time>2022-02-24T02:32:07.734Z</time>
      </trkpt>
      <trkpt lat="38.36024" lon="-2.74453">
        <ele>576.861398</ele>
        <time>2022-02-24T02:32:12.212Z</time>
      </trkpt>
      <trkpt lat="38.36014" lon="-2.74436">
        <ele>576.880453</ele>
        <time>2022-02-24T02:32:16.119Z</time>
      </trkpt>
      <trkpt lat="38.3596" lon="-2.74377">
        <ele>576.967691</ele>
        <time>2022-02-24T02:32:32.915Z</time>
      </trkpt>
      <trkpt lat="38.35952" lon="-2.74368">
        <ele>576.985253</ele>
        <time>2022-02-24T02:32:35.404Z</time>
      </trkpt>
      <trkpt lat="38.35947" lon="-2.74375">
        <ele>576.997547</ele>
        <time>2022-02-24T02:32:36.988Z</time>
      </trkpt>
      <trkpt lat="38.35867" lon="-2.74292">
        <ele>577.170032</ele>
        <time>2022-02-24T02:33:00.228Z</time>
      </trkpt>
      <trkpt lat="38.35846" lon="-2.74273">
        <ele>577.213064</ele>
        <time>2022-02-24T02:33:06.313Z</time>
      </trkpt>
      <trkpt lat="38.35807" lon="-2.7424">
        <ele>577.591433</ele>
        <time>2022-02-24T02:33:19.015Z</time>
      </trkpt>
      <trkpt lat="38.35791" lon="-2.74229">
        <ele>577.967749</ele>
        <time>2022-02-24T02:33:24.486Z</time>
      </trkpt>
      <trkpt lat="38.35747" lon="-2.74198">
        <ele>578.979492</ele>
        <time>2022-02-24T02:33:40.305Z</time>
      </trkpt>
      <trkpt lat="38.35641" lon="-2.74124">
        <ele>581.860156</ele>
        <time>2022-02-24T02:34:24.026Z</time>
      </trkpt>
      <trkpt lat="38.35625" lon="-2.74119">
        <ele>582.477767</ele>
        <time>2022-02-24T02:34:30.919Z</time>
      </trkpt>
      <trkpt lat="38.35612" lon="-2.74103">
        <ele>583.153733</ele>
        <time>2022-02-24T02:34:38.294Z</time>
      </trkpt>
      <trkpt lat="38.35611" lon="-2.74094">
        <ele>583.41727</ele>
        <time>2022-02-24T02:34:41.353Z</time>
      </trkpt>
      <trkpt lat="38.35572" lon="-2.74077">
        <ele>584.982367</ele>
        <time>2022-02-24T02:34:58.347Z</time>
      </trkpt>
      <trkpt lat="38.35489" lon="-2.74049">
        <ele>588.302008</ele>
        <time>2022-02-24T02:35:36.681Z</time>
      </trkpt>
      <trkpt lat="38.35433" lon="-2.74032">
        <ele>590.728323</ele>
        <time>2022-02-24T02:36:01.099Z</time>
      </trkpt>
      <trkpt lat="38.35438" lon="-2.74003">
        <ele>591.735743</ele>
        <time>2022-02-24T02:36:12.716Z</time>
      </trkpt>
      <trkpt lat="38.35423" lon="-2.73989">
        <ele>592.520165</ele>
        <time>2022-02-24T02:36:20.792Z</time>
      </trkpt>
      <trkpt lat="38.35396" lon="-2.7394">
        <ele>594.520503</ele>
        <time>2022-02-24T02:36:42.389Z</time>
      </trkpt>
      <trkpt lat="38.3535" lon="-2.73877">
        <ele>596.222361</ele>
        <time>2022-02-24T02:37:09.931Z</time>
      </trkpt>
      <trkpt lat="38.35336" lon="-2.7385">
        <ele>596.679772</ele>
        <time>2022-02-24T02:37:19.034Z</time>
      </trkpt>
      <trkpt lat="38.35323" lon="-2.73818">
        <ele>597.199989</ele>
        <time>2022-02-24T02:37:28.247Z</time>
      </trkpt>
      <trkpt lat="38.35268" lon="-2.73787">
        <ele>598.300912</ele>
        <time>2022-02-24T02:37:43.827Z</time>
      </trkpt>
      <trkpt lat="38.35246" lon="-2.73768">
        <ele>598.682693</ele>
        <time>2022-02-24T02:37:49.876Z</time>
      </trkpt>
      <trkpt lat="38.35211" lon="-2.73744">
        <ele>599.002589</ele>
        <time>2022-02-24T02:37:59.213Z</time>
      </trkpt>
      <trkpt lat="38.35175" lon="-2.73732">
        <ele>599.300734</ele>
        <time>2022-02-24T02:38:07.448Z</time>
      </trkpt>
      <trkpt lat="38.35152" lon="-2.7373">
        <ele>599.48447</ele>
        <time>2022-02-24T02:38:12.323Z</time>
      </trkpt>
      <trkpt lat="38.35153" lon="-2.73715">
        <ele>599.579618</ele>
        <time>2022-02-24T02:38:18.678Z</time>
      </trkpt>
      <trkpt lat="38.3513" lon="-2.73707">
        <ele>599.771121</ele>
        <time>2022-02-24T02:38:25.435Z</time>
      </trkpt>
      <trkpt lat="38.35133" lon="-2.73686">
        <ele>599.904376</ele>
        <time>2022-02-24T02:38:32.697Z</time>
      </trkpt>
      <trkpt lat="38.3512" lon="-2.73679">
        <ele>600.016009</ele>
        <time>2022-02-24T02:38:36.394Z</time>
      </trkpt>
      <trkpt lat="38.35105" lon="-2.7367">
        <ele>600.007149</ele>
        <time>2022-02-24T02:38:44.580Z</time>
      </trkpt>
      <trkpt lat="38.3509" lon="-2.73662">
        <ele>599.964282</ele>
        <time>2022-02-24T02:38:48.299Z</time>
      </trkpt>
      <trkpt lat="38.35114" lon="-2.73569">
        <ele>599.761271</ele>
        <time>2022-02-24T02:39:05.996Z</time>
      </trkpt>
      <trkpt lat="38.3511" lon="-2.73567">
        <ele>599.751481</ele>
        <time>2022-02-24T02:39:06.681Z</time>
      </trkpt>
      <trkpt lat="38.3509" lon="-2.7355">
        <ele>599.687532</ele>
        <time>2022-02-24T02:39:11.992Z</time>
      </trkpt>
      <trkpt lat="38.35089" lon="-2.73543">
        <ele>599.670631</ele>
        <time>2022-02-24T02:39:13.379Z</time>
      </trkpt>
      <trkpt lat="38.35083" lon="-2.73514">
        <ele>599.609605</ele>
        <time>2022-02-24T02:39:18.218Z</time>
      </trkpt>
      <trkpt lat="38.35048" lon="-2.73526">
        <ele>598.574185</ele>
        <time>2022-02-24T02:39:24.872Z</time>
      </trkpt>
      <trkpt lat="38.35038" lon="-2.73519">
        <ele>597.977392</ele>
        <time>2022-02-24T02:39:26.859Z</time>
      </trkpt>
      <trkpt lat="38.35023" lon="-2.73507">
        <ele>597.104104</ele>
        <time>2022-02-24T02:39:29.588Z</time>
      </trkpt>
      <trkpt lat="38.34984" lon="-2.73493">
        <ele>595.0363</ele>
        <time>2022-02-24T02:39:35.941Z</time>
      </trkpt>
      <trkpt lat="38.34941" lon="-2.7346">
        <ele>592.517582</ele>
        <time>2022-02-24T02:39:43.444Z</time>
      </trkpt>
      <trkpt lat="38.34901" lon="-2.73458">
        <ele>590.534556</ele>
        <time>2022-02-24T02:39:49.439Z</time>
      </trkpt>
      <trkpt lat="38.34863" lon="-2.73456">
        <ele>589.637094</ele>
        <time>2022-02-24T02:39:55.828Z</time>
      </trkpt>
      <trkpt lat="38.34841" lon="-2.73447">
        <ele>589.087974</ele>
        <time>2022-02-24T02:40:00.060Z</time>
      </trkpt>
      <trkpt lat="38.34762" lon="-2.73374">
        <ele>586.79248</ele>
        <time>2022-02-24T02:40:18.007Z</time>
      </trkpt>
      <trkpt lat="38.34757" lon="-2.73368">
        <ele>586.635403</ele>
        <time>2022-02-24T02:40:19.813Z</time>
      </trkpt>
      <trkpt lat="38.34672" lon="-2.73283">
        <ele>586.327123</ele>
        <time>2022-02-24T02:40:45.430Z</time>
      </trkpt>
      <trkpt lat="38.34626" lon="-2.73233">
        <ele>586.342728</ele>
        <time>2022-02-24T02:40:59.452Z</time>
      </trkpt>
      <trkpt lat="38.34555" lon="-2.73113">
        <ele>586.204621</ele>
        <time>2022-02-24T02:41:25.150Z</time>
      </trkpt>
      <trkpt lat="38.34364" lon="-2.7296">
        <ele>585.822061</ele>
        <time>2022-02-24T02:42:13.808Z</time>
      </trkpt>
      <trkpt lat="38.3425" lon="-2.72827">
        <ele>586.112314</ele>
        <time>2022-02-24T02:42:48.454Z</time>
      </trkpt>
      <trkpt lat="38.34219" lon="-2.72761">
        <ele>586.308668</ele>
        <time>2022-02-24T02:43:03.696Z</time>
      </trkpt>
      <trkpt lat="38.34111" lon="-2.72474">
        <ele>589.077366</ele>
        <time>2022-02-24T02:44:14.695Z</time>
      </trkpt>
      <trkpt lat="38.34103" lon="-2.72414">
        <ele>589.573286</ele>
        <time>2022-02-24T02:44:28.259Z</time>
      </trkpt>
      <trkpt lat="38.34107" lon="-2.72319">
        <ele>590.326867</ele>
        <time>2022-02-24T02:44:48.043Z</time>
      </trkpt>
      <trkpt lat="38.34104" lon="-2.72282">
        <ele>590.467013</ele>
        <time>2022-02-24T02:44:55.161Z</time>
      </trkpt>
      <trkpt lat="38.34097" lon="-2.7225">
        <ele>590.593179</ele>
        <time>2022-02-24T02:45:01.431Z</time>
      </trkpt>
      <trkpt lat="38.3404" lon="-2.72109">
        <ele>591.209979</ele>
        <time>2022-02-24T02:45:31.275Z</time>
      </trkpt>
      <trkpt lat="38.34028" lon="-2.7206">
        <ele>591.49132</ele>
        <time>2022-02-24T02:45:41.672Z</time>
      </trkpt>
      <trkpt lat="38.34028" lon="-2.72027">
        <ele>591.680214</ele>
        <time>2022-02-24T02:45:48.620Z</time>
      </trkpt>
      <trkpt lat="38.34045" lon="-2.71926">
        <ele>592.256355</ele>
        <time>2022-02-24T02:46:10.219Z</time>
      </trkpt>
      <trkpt lat="38.34039" lon="-2.7188">
        <ele>592.44978</ele>
        <time>2022-02-24T02:46:19.680Z</time>
      </trkpt>
      <trkpt lat="38.34013" lon="-2.71807">
        <ele>592.452857</ele>
        <time>2022-02-24T02:46:35.029Z</time>
      </trkpt>
      <trkpt lat="38.33921" lon="-2.71709">
        <ele>592.382037</ele>
        <time>2022-02-24T02:47:00.660Z</time>
      </trkpt>
      <trkpt lat="38.33904" lon="-2.71672">
        <ele>592.178144</ele>
        <time>2022-02-24T02:47:07.494Z</time>
      </trkpt>
      <trkpt lat="38.33899" lon="-2.71636">
        <ele>592.004831</ele>
        <time>2022-02-24T02:47:13.309Z</time>
      </trkpt>
      <trkpt lat="38.33902" lon="-2.71604">
        <ele>591.855454</ele>
        <time>2022-02-24T02:47:18.329Z</time>
      </trkpt>
      <trkpt lat="38.33911" lon="-2.71569">
        <ele>591.677274</ele>
        <time>2022-02-24T02:47:24.340Z</time>
      </trkpt>
      <trkpt lat="38.3403" lon="-2.71314">
        <ele>590.50623</ele>
        <time>2022-02-24T02:48:13.218Z</time>
      </trkpt>
      <trkpt lat="38.34055" lon="-2.71253">
        <ele>590.202635</ele>
        <time>2022-02-24T02:48:24.418Z</time>
      </trkpt>
      <trkpt lat="38.34064" lon="-2.71203">
        <ele>589.969266</ele>
        <time>2022-02-24T02:48:32.745Z</time>
      </trkpt>
      <trkpt lat="38.34065" lon="-2.7118">
        <ele>589.866482</ele>
        <time>2022-02-24T02:48:36.326Z</time>
      </trkpt>
      <trkpt lat="38.34081" lon="-2.71121">
        <ele>589.585592</ele>
        <time>2022-02-24T02:48:46.605Z</time>
      </trkpt>
      <trkpt lat="38.34078" lon="-2.71103">
        <ele>589.504674</ele>
        <time>2022-02-24T02:48:49.461Z</time>
      </trkpt>
      <trkpt lat="38.34073" lon="-2.71096">
        <ele>589.521731</ele>
        <time>2022-02-24T02:48:50.940Z</time>
      </trkpt>
      <trkpt lat="38.34045" lon="-2.71081">
        <ele>589.723692</ele>
        <time>2022-02-24T02:48:57.218Z</time>
      </trkpt>
      <trkpt lat="38.34018" lon="-2.7107">
        <ele>589.917898</ele>
        <time>2022-02-24T02:49:03.510Z</time>
      </trkpt>
      <trkpt lat="38.33969" lon="-2.7104">
        <ele>590.283553</ele>
        <time>2022-02-24T02:49:16.704Z</time>
      </trkpt>
      <trkpt lat="38.33948" lon="-2.71021">
        <ele>590.459267</ele>
        <time>2022-02-24T02:49:23.789Z</time>
      </trkpt>
      <trkpt lat="38.33929" lon="-2.70992">
        <ele>590.65432</ele>
        <time>2022-02-24T02:49:32.509Z</time>
      </trkpt>
      <trkpt lat="38.3386" lon="-2.70759">
        <ele>596.339933</ele>
        <time>2022-02-24T02:50:47.040Z</time>
      </trkpt>
      <trkpt lat="38.33839" lon="-2.7072">
        <ele>597.364944</ele>
        <time>2022-02-24T02:51:01.963Z</time>
      </trkpt>
      <trkpt lat="38.33814" lon="-2.70685">
        <ele>598.399169</ele>
        <time>2022-02-24T02:51:16.652Z</time>
      </trkpt>
      <trkpt lat="38.33697" lon="-2.70594">
        <ele>601.530734</ele>
        <time>2022-02-24T02:52:02.713Z</time>
      </trkpt>
      <trkpt lat="38.33484" lon="-2.70446">
        <ele>604.132653</ele>
        <time>2022-02-24T02:53:06.170Z</time>
      </trkpt>
      <trkpt lat="38.33398" lon="-2.70374">
        <ele>605.25869</ele>
        <time>2022-02-24T02:53:34.425Z</time>
      </trkpt>
      <trkpt lat="38.33241" lon="-2.70165">
        <ele>609.054274</ele>
        <time>2022-02-24T02:54:44.778Z</time>
      </trkpt>
      <trkpt lat="38.3315" lon="-2.70067">
        <ele>611.34266</ele>
        <time>2022-02-24T02:55:22.202Z</time>
      </trkpt>
      <trkpt lat="38.33101" lon="-2.70031">
        <ele>612.843608</ele>
        <time>2022-02-24T02:55:41.092Z</time>
      </trkpt>
      <trkpt lat="38.33042" lon="-2.70001">
        <ele>614.495855</ele>
        <time>2022-02-24T02:56:04.382Z</time>
      </trkpt>
      <trkpt lat="38.32944" lon="-2.69986">
        <ele>616.635675</ele>
        <time>2022-02-24T02:56:41.238Z</time>
      </trkpt>
      <trkpt lat="38.32903" lon="-2.69987">
        <ele>617.360679</ele>
        <time>2022-02-24T02:56:55.795Z</time>
      </trkpt>
      <trkpt lat="38.32701" lon="-2.69996">
        <ele>619.008692</ele>
        <time>2022-02-24T02:57:46.666Z</time>
      </trkpt>
      <trkpt lat="38.32453" lon="-2.69932">
        <ele>618.127655</ele>
        <time>2022-02-24T02:58:38.195Z</time>
      </trkpt>
      <trkpt lat="38.32238" lon="-2.69819">
        <ele>620.792682</ele>
        <time>2022-02-24T02:59:44.952Z</time>
      </trkpt>
      <trkpt lat="38.31806" lon="-2.69769">
        <ele>627.57387</ele>
        <time>2022-02-24T03:01:57.495Z</time>
      </trkpt>
      <trkpt lat="38.31562" lon="-2.69782">
        <ele>629.730347</ele>
        <time>2022-02-24T03:03:04.460Z</time>
      </trkpt>
      <trkpt lat="38.31509" lon="-2.69787">
        <ele>629.292143</ele>
        <time>2022-02-24T03:03:14.902Z</time>
      </trkpt>
      <trkpt lat="38.31491" lon="-2.69796">
        <ele>629.129731</ele>
        <time>2022-02-24T03:03:18.592Z</time>
      </trkpt>
      <trkpt lat="38.31491" lon="-2.69853">
        <ele>628.762173</ele>
        <time>2022-02-24T03:03:27.125Z</time>
      </trkpt>
      <trkpt lat="38.31497" lon="-2.6992">
        <ele>628.432963</ele>
        <time>2022-02-24T03:03:37.354Z</time>
      </trkpt>
      <trkpt lat="38.31489" lon="-2.69938">
        <ele>628.499951</ele>
        <time>2022-02-24T03:03:40.659Z</time>
      </trkpt>
      <trkpt lat="38.31446" lon="-2.69953">
        <ele>628.675225</ele>
        <time>2022-02-24T03:03:49.552Z</time>
      </trkpt>
      <trkpt lat="38.31354" lon="-2.69979">
        <ele>629.046938</ele>
        <time>2022-02-24T03:04:15.571Z</time>
      </trkpt>
      <trkpt lat="38.31295" lon="-2.69982">
        <ele>630.013942</ele>
        <time>2022-02-24T03:04:35.251Z</time>
      </trkpt>
      <trkpt lat="38.31163" lon="-2.70032">
        <ele>632.820167</ele>
        <time>2022-02-24T03:05:21.029Z</time>
      </trkpt>
      <trkpt lat="38.31017" lon="-2.70199">
        <ele>636.387741</ele>
        <time>2022-02-24T03:06:22.335Z</time>
      </trkpt>
      <trkpt lat="38.30981" lon="-2.7023">
        <ele>637.029638</ele>
        <time>2022-02-24T03:06:35.693Z</time>
      </trkpt>
      <trkpt lat="38.30758" lon="-2.7036">
        <ele>640.26105</ele>
        <time>2022-02-24T03:07:46.540Z</time>
      </trkpt>
      <trkpt lat="38.30694" lon="-2.70428">
        <ele>641.463871</ele>
        <time>2022-02-24T03:08:08.648Z</time>
      </trkpt>
      <trkpt lat="38.30596" lon="-2.70468">
        <ele>643.344915</ele>
        <time>2022-02-24T03:08:39.084Z</time>
      </trkpt>
      <trkpt lat="38.30534" lon="-2.70473">
        <ele>644.904227</ele>
        <time>2022-02-24T03:09:01.328Z</time>
      </trkpt>
      <trkpt lat="38.30479" lon="-2.70478">
        <ele>647.453557</ele>
        <time>2022-02-24T03:09:24.562Z</time>
      </trkpt>
      <trkpt lat="38.30455" lon="-2.70488">
        <ele>648.594355</ele>
        <time>2022-02-24T03:09:35.666Z</time>
      </trkpt>
      <trkpt lat="38.30177" lon="-2.707">
        <ele>665.506404</ele>
        <time>2022-02-24T03:12:20.523Z</time>
      </trkpt>
      <trkpt lat="38.2989" lon="-2.70914">
        <ele>678.908624</ele>
        <time>2022-02-24T03:14:42.640Z</time>
      </trkpt>
      <trkpt lat="38.29743" lon="-2.7104">
        <ele>682.293579</ele>
        <time>2022-02-24T03:15:35.374Z</time>
      </trkpt>
      <trkpt lat="38.29665" lon="-2.71084">
        <ele>683.214797</ele>
        <time>2022-02-24T03:15:58.247Z</time>
      </trkpt>
      <trkpt lat="38.2964" lon="-2.71109">
        <ele>683.556075</ele>
        <time>2022-02-24T03:16:07.011Z</time>
      </trkpt>
      <trkpt lat="38.29599" lon="-2.71174">
        <ele>683.847377</ele>
        <time>2022-02-24T03:16:25.030Z</time>
      </trkpt>
      <trkpt lat="38.29581" lon="-2.71187">
        <ele>683.811525</ele>
        <time>2022-02-24T03:16:30.718Z</time>
      </trkpt>
      <trkpt lat="38.2955" lon="-2.71187">
        <ele>683.759956</ele>
        <time>2022-02-24T03:16:38.057Z</time>
      </trkpt>
      <trkpt lat="38.29471" lon="-2.71151">
        <ele>683.616832</ele>
        <time>2022-02-24T03:16:55.392Z</time>
      </trkpt>
      <trkpt lat="38.29437" lon="-2.7115">
        <ele>683.120959</ele>
        <time>2022-02-24T03:17:01.701Z</time>
      </trkpt>
      <trkpt lat="38.29285" lon="-2.71234">
        <ele>679.776868</ele>
        <time>2022-02-24T03:17:31.061Z</time>
      </trkpt>
      <trkpt lat="38.29244" lon="-2.71267">
        <ele>679.878904</ele>
        <time>2022-02-24T03:17:40.326Z</time>
      </trkpt>
      <trkpt lat="38.29071" lon="-2.71467">
        <ele>682.783989</ele>
        <time>2022-02-24T03:18:47.591Z</time>
      </trkpt>
      <trkpt lat="38.29019" lon="-2.71519">
        <ele>684.389952</ele>
        <time>2022-02-24T03:19:15.554Z</time>
      </trkpt>
      <trkpt lat="38.28925" lon="-2.71565">
        <ele>687.99887</ele>
        <time>2022-02-24T03:19:59.959Z</time>
      </trkpt>
      <trkpt lat="38.28887" lon="-2.71577">
        <ele>689.416595</ele>
        <time>2022-02-24T03:20:16.938Z</time>
      </trkpt>
      <trkpt lat="38.28706" lon="-2.71566">
        <ele>692.453512</ele>
        <time>2022-02-24T03:21:14.742Z</time>
      </trkpt>
      <trkpt lat="38.28689" lon="-2.7156">
        <ele>692.640911</ele>
        <time>2022-02-24T03:21:18.268Z</time>
      </trkpt>
      <trkpt lat="38.28565" lon="-2.71512">
        <ele>691.605072</ele>
        <time>2022-02-24T03:21:42.346Z</time>
      </trkpt>
      <trkpt lat="38.28478" lon="-2.71543">
        <ele>690.89922</ele>
        <time>2022-02-24T03:21:59.947Z</time>
      </trkpt>
      <trkpt lat="38.28417" lon="-2.71537">
        <ele>691.7002</ele>
        <time>2022-02-24T03:22:15.297Z</time>
      </trkpt>
      <trkpt lat="38.28242" lon="-2.71566">
        <ele>694.862589</ele>
        <time>2022-02-24T03:23:15.703Z</time>
      </trkpt>
      <trkpt lat="38.28173" lon="-2.71547">
        <ele>696.60693</ele>
        <time>2022-02-24T03:23:40.980Z</time>
      </trkpt>
      <trkpt lat="38.28135" lon="-2.71545">
        <ele>697.531092</ele>
        <time>2022-02-24T03:23:54.213Z</time>
      </trkpt>
      <trkpt lat="38.28079" lon="-2.71554">
        <ele>698.586511</ele>
        <time>2022-02-24T03:24:13.100Z</time>
      </trkpt>
      <trkpt lat="38.28042" lon="-2.71578">
        <ele>699.355007</ele>
        <time>2022-02-24T03:24:26.063Z</time>
      </trkpt>
      <trkpt lat="38.27976" lon="-2.71673">
        <ele>701.11006</ele>
        <time>2022-02-24T03:24:56.088Z</time>
      </trkpt>
      <trkpt lat="38.2793" lon="-2.7171">
        <ele>701.846168</ele>
        <time>2022-02-24T03:25:11.640Z</time>
      </trkpt>
      <trkpt lat="38.27831" lon="-2.71767">
        <ele>703.325254</ele>
        <time>2022-02-24T03:25:42.737Z</time>
      </trkpt>
      <trkpt lat="38.27752" lon="-2.71828">
        <ele>704.589877</ele>
        <time>2022-02-24T03:26:09.685Z</time>
      </trkpt>
      <trkpt lat="38.27505" lon="-2.71978">
        <ele>708.507637</ele>
        <time>2022-02-24T03:27:29.057Z</time>
      </trkpt>
      <trkpt lat="38.27485" lon="-2.7199">
        <ele>708.974548</ele>
        <time>2022-02-24T03:27:35.972Z</time>
      </trkpt>
      <trkpt lat="38.27415" lon="-2.72026">
        <ele>710.598035</ele>
        <time>2022-02-24T03:28:01.099Z</time>
      </trkpt>
      <trkpt lat="38.27239" lon="-2.72096">
        <ele>714.553911</ele>
        <time>2022-02-24T03:29:05.017Z</time>
      </trkpt>
      <trkpt lat="38.27108" lon="-2.7214">
        <ele>716.92676</ele>
        <time>2022-02-24T03:29:45.907Z</time>
      </trkpt>
      <trkpt lat="38.26992" lon="-2.7219">
        <ele>718.717691</ele>
        <time>2022-02-24T03:30:19.962Z</time>
      </trkpt>
      <trkpt lat="38.26967" lon="-2.72194">
        <ele>719.292001</ele>
        <time>2022-02-24T03:30:28.001Z</time>
      </trkpt>
      <trkpt lat="38.26876" lon="-2.72186">
        <ele>721.295345</ele>
        <time>2022-02-24T03:30:57.359Z</time>
      </trkpt>
      <trkpt lat="38.26813" lon="-2.72202">
        <ele>722.850343</ele>
        <time>2022-02-24T03:31:21.290Z</time>
      </trkpt>
      <trkpt lat="38.26766" lon="-2.7219">
        <ele>724.43852</ele>
        <time>2022-02-24T03:31:40.010Z</time>
      </trkpt>
      <trkpt lat="38.26673" lon="-2.72143">
        <ele>727.747145</ele>
        <time>2022-02-24T03:32:20.501Z</time>
      </trkpt>
      <trkpt lat="38.26668" lon="-2.7214">
        <ele>727.925195</ele>
        <time>2022-02-24T03:32:22.580Z</time>
      </trkpt>
      <trkpt lat="38.26618" lon="-2.72113">
        <ele>729.248059</ele>
        <time>2022-02-24T03:32:43.325Z</time>
      </trkpt>
      <trkpt lat="38.26536" lon="-2.72052">
        <ele>731.189926</ele>
        <time>2022-02-24T03:33:14.554Z</time>
      </trkpt>
      <trkpt lat="38.26462" lon="-2.72012">
        <ele>732.412972</ele>
        <time>2022-02-24T03:33:35.736Z</time>
      </trkpt>
      <trkpt lat="38.26424" lon="-2.72002">
        <ele>732.704087</ele>
        <time>2022-02-24T03:33:45.155Z</time>
      </trkpt>
      <trkpt lat="38.26393" lon="-2.72018">
        <ele>732.963636</ele>
        <time>2022-02-24T03:33:53.656Z</time>
      </trkpt>
      <trkpt lat="38.2634" lon="-2.72067">
        <ele>733.46062</ele>
        <time>2022-02-24T03:34:10.472Z</time>
      </trkpt>
      <trkpt lat="38.2632" lon="-2.72076">
        <ele>733.727097</ele>
        <time>2022-02-24T03:34:16.247Z</time>
      </trkpt>
      <trkpt lat="38.26226" lon="-2.721">
        <ele>735.181677</ele>
        <time>2022-02-24T03:34:44.408Z</time>
      </trkpt>
      <trkpt lat="38.26039" lon="-2.72119">
        <ele>738.316159</ele>
        <time>2022-02-24T03:35:43.911Z</time>
      </trkpt>
      <trkpt lat="38.25971" lon="-2.72103">
        <ele>739.466113</ele>
        <time>2022-02-24T03:36:04.622Z</time>
      </trkpt>
      <trkpt lat="38.25942" lon="-2.72114">
        <ele>739.718011</ele>
        <time>2022-02-24T03:36:13.550Z</time>
      </trkpt>
      <trkpt lat="38.25898" lon="-2.7214">
        <ele>740.11102</ele>
        <time>2022-02-24T03:36:26.843Z</time>
      </trkpt>
      <trkpt lat="38.25834" lon="-2.72154">
        <ele>740.639106</ele>
        <time>2022-02-24T03:36:42.975Z</time>
      </trkpt>
      <trkpt lat="38.25789" lon="-2.72182">
        <ele>740.946147</ele>
        <time>2022-02-24T03:36:54.781Z</time>
      </trkpt>
      <trkpt lat="38.25734" lon="-2.72218">
        <ele>741.150235</ele>
        <time>2022-02-24T03:37:09.165Z</time>
      </trkpt>
      <trkpt lat="38.25696" lon="-2.72238">
        <ele>741.28602</ele>
        <time>2022-02-24T03:37:18.292Z</time>
      </trkpt>
      <trkpt lat="38.25557" lon="-2.72287">
        <ele>742.859534</ele>
        <time>2022-02-24T03:37:55.068Z</time>
      </trkpt>
      <trkpt lat="38.25254" lon="-2.72395">
        <ele>750.015832</ele>
        <time>2022-02-24T03:39:44.515Z</time>
      </trkpt>
      <trkpt lat="38.25162" lon="-2.72439">
        <ele>752.681679</ele>
        <time>2022-02-24T03:40:20.869Z</time>
      </trkpt>
      <trkpt lat="38.25151" lon="-2.72444">
        <ele>753.007381</ele>
        <time>2022-02-24T03:40:25.203Z</time>
      </trkpt>
      <trkpt lat="38.25129" lon="-2.72456">
        <ele>753.656263</ele>
        <time>2022-02-24T03:40:33.757Z</time>
      </trkpt>
      <trkpt lat="38.25124" lon="-2.72458">
        <ele>753.787343</ele>
        <time>2022-02-24T03:40:35.542Z</time>
      </trkpt>
      <trkpt lat="38.25096" lon="-2.72474">
        <ele>754.400149</ele>
        <time>2022-02-24T03:40:46.241Z</time>
      </trkpt>
      <trkpt lat="38.25027" lon="-2.72509">
        <ele>755.875349</ele>
        <time>2022-02-24T03:41:09.978Z</time>
      </trkpt>
      <trkpt lat="38.2501" lon="-2.72515">
        <ele>756.222088</ele>
        <time>2022-02-24T03:41:15.217Z</time>
      </trkpt>
      <trkpt lat="38.24951" lon="-2.72539">
        <ele>757.427419</ele>
        <time>2022-02-24T03:41:34.617Z</time>
      </trkpt>
      <trkpt lat="38.24907" lon="-2.72544">
        <ele>758.063228</ele>
        <time>2022-02-24T03:41:47.902Z</time>
      </trkpt>
      <trkpt lat="38.24855" lon="-2.72547">
        <ele>758.817338</ele>
        <time>2022-02-24T03:42:02.585Z</time>
      </trkpt>
      <trkpt lat="38.2485" lon="-2.72548">
        <ele>758.891368</ele>
        <time>2022-02-24T03:42:04.047Z</time>
      </trkpt>
      <trkpt lat="38.24827" lon="-2.72555">
        <ele>759.229733</ele>
        <time>2022-02-24T03:42:10.590Z</time>
      </trkpt>
      <trkpt lat="38.24805" lon="-2.72562">
        <ele>759.558203</ele>
        <time>2022-02-24T03:42:17.148Z</time>
      </trkpt>
      <trkpt lat="38.24779" lon="-2.72567">
        <ele>759.94077</ele>
        <time>2022-02-24T03:42:25.196Z</time>
      </trkpt>
      <trkpt lat="38.2473" lon="-2.72567">
        <ele>760.254074</ele>
        <time>2022-02-24T03:42:40.266Z</time>
      </trkpt>
      <trkpt lat="38.24712" lon="-2.72575">
        <ele>760.37645</ele>
        <time>2022-02-24T03:42:45.945Z</time>
      </trkpt>
      <trkpt lat="38.24712" lon="-2.72586">
        <ele>760.429573</ele>
        <time>2022-02-24T03:42:48.395Z</time>
      </trkpt>
      <trkpt lat="38.24707" lon="-2.72591">
        <ele>760.469837</ele>
        <time>2022-02-24T03:42:50.203Z</time>
      </trkpt>
      <trkpt lat="38.24696" lon="-2.72585">
        <ele>760.55129</ele>
        <time>2022-02-24T03:42:53.784Z</time>
      </trkpt>
      <trkpt lat="38.24685" lon="-2.72592">
        <ele>760.629112</ele>
        <time>2022-02-24T03:42:57.027Z</time>
      </trkpt>
      <trkpt lat="38.24653" lon="-2.72567">
        <ele>760.868655</ele>
        <time>2022-02-24T03:43:06.093Z</time>
      </trkpt>
      <trkpt lat="38.24625" lon="-2.72621">
        <ele>760.682481</ele>
        <time>2022-02-24T03:43:16.945Z</time>
      </trkpt>
      <trkpt lat="38.24628" lon="-2.72629">
        <ele>760.524176</ele>
        <time>2022-02-24T03:43:18.244Z</time>
      </trkpt>
      <trkpt lat="38.24602" lon="-2.72644">
        <ele>759.816848</ele>
        <time>2022-02-24T03:43:24.005Z</time>
      </trkpt>
      <trkpt lat="38.24587" lon="-2.72653">
        <ele>759.425126</ele>
        <time>2022-02-24T03:43:27.190Z</time>
      </trkpt>
      <trkpt lat="38.2454" lon="-2.72683">
        <ele>758.107433</ele>
        <time>2022-02-24T03:43:37.203Z</time>
      </trkpt>
      <trkpt lat="38.24473" lon="-2.72726">
        <ele>755.830971</ele>
        <time>2022-02-24T03:43:50.082Z</time>
      </trkpt>
      <trkpt lat="38.24445" lon="-2.72752">
        <ele>753.971397</ele>
        <time>2022-02-24T03:43:56.087Z</time>
      </trkpt>
      <trkpt lat="38.24445" lon="-2.7276">
        <ele>753.644424</ele>
        <time>2022-02-24T03:43:57.070Z</time>
      </trkpt>
      <trkpt lat="38.24349" lon="-2.72786">
        <ele>748.456951</ele>
        <time>2022-02-24T03:44:12.314Z</time>
      </trkpt>
      <trkpt lat="38.24291" lon="-2.72784">
        <ele>744.673627</ele>
        <time>2022-02-24T03:44:21.137Z</time>
      </trkpt>
      <trkpt lat="38.24269" lon="-2.72785">
        <ele>743.077196</ele>
        <time>2022-02-24T03:44:24.464Z</time>
      </trkpt>
      <trkpt lat="38.24259" lon="-2.72791">
        <ele>742.28783</ele>
        <time>2022-02-24T03:44:26.028Z</time>
      </trkpt>
      <trkpt lat="38.2425" lon="-2.72797">
        <ele>741.539051</ele>
        <time>2022-02-24T03:44:27.494Z</time>
      </trkpt>
      <trkpt lat="38.24237" lon="-2.72818">
        <ele>739.969658</ele>
        <time>2022-02-24T03:44:30.760Z</time>
      </trkpt>
      <trkpt lat="38.24218" lon="-2.72898">
        <ele>735.180146</ele>
        <time>2022-02-24T03:44:40.360Z</time>
      </trkpt>
      <trkpt lat="38.24202" lon="-2.72919">
        <ele>733.538756</ele>
        <time>2022-02-24T03:44:43.679Z</time>
      </trkpt>
      <trkpt lat="38.2411" lon="-2.72951">
        <ele>727.668045</ele>
        <time>2022-02-24T03:44:58.040Z</time>
      </trkpt>
      <trkpt lat="38.24091" lon="-2.72949">
        <ele>726.531167</ele>
        <time>2022-02-24T03:45:00.943Z</time>
      </trkpt>
      <trkpt lat="38.2407" lon="-2.72927">
        <ele>724.834772</ele>
        <time>2022-02-24T03:45:05.305Z</time>
      </trkpt>
      <trkpt lat="38.24059" lon="-2.72848">
        <ele>721.114401</ele>
        <time>2022-02-24T03:45:15.641Z</time>
      </trkpt>
      <trkpt lat="38.24041" lon="-2.72831">
        <ele>719.840859</ele>
        <time>2022-02-24T03:45:19.257Z</time>
      </trkpt>
      <trkpt lat="38.23976" lon="-2.72813">
        <ele>716.03695</ele>
        <time>2022-02-24T03:45:29.744Z</time>
      </trkpt>
      <trkpt lat="38.23947" lon="-2.72811">
        <ele>714.377502</ele>
        <time>2022-02-24T03:45:34.210Z</time>
      </trkpt>
      <trkpt lat="38.23791" lon="-2.72854">
        <ele>703.25016</ele>
        <time>2022-02-24T03:45:57.734Z</time>
      </trkpt>
      <trkpt lat="38.23756" lon="-2.72881">
        <ele>700.253473</ele>
        <time>2022-02-24T03:46:03.807Z</time>
      </trkpt>
      <trkpt lat="38.23732" lon="-2.72888">
        <ele>698.9494</ele>
        <time>2022-02-24T03:46:07.570Z</time>
      </trkpt>
      <trkpt lat="38.23655" lon="-2.72856">
        <ele>695.885053</ele>
        <time>2022-02-24T03:46:20.642Z</time>
      </trkpt>
      <trkpt lat="38.23608" lon="-2.72856">
        <ele>694.097886</ele>
        <time>2022-02-24T03:46:29.061Z</time>
      </trkpt>
      <trkpt lat="38.23538" lon="-2.72829">
        <ele>691.891703</ele>
        <time>2022-02-24T03:46:42.702Z</time>
      </trkpt>
      <trkpt lat="38.2341" lon="-2.72834">
        <ele>689.156702</ele>
        <time>2022-02-24T03:47:05.842Z</time>
      </trkpt>
      <trkpt lat="38.23368" lon="-2.72819">
        <ele>688.141306</ele>
        <time>2022-02-24T03:47:13.749Z</time>
      </trkpt>
      <trkpt lat="38.2333" lon="-2.72794">
        <ele>687.096123</ele>
        <time>2022-02-24T03:47:21.499Z</time>
      </trkpt>
      <trkpt lat="38.23228" lon="-2.72704">
        <ele>684.075274</ele>
        <time>2022-02-24T03:47:43.391Z</time>
      </trkpt>
      <trkpt lat="38.23099" lon="-2.72499">
        <ele>679.230373</ele>
        <time>2022-02-24T03:48:19.915Z</time>
      </trkpt>
      <trkpt lat="38.23086" lon="-2.7249">
        <ele>679.016797</ele>
        <time>2022-02-24T03:48:22.571Z</time>
      </trkpt>
      <trkpt lat="38.23067" lon="-2.72484">
        <ele>678.718731</ele>
        <time>2022-02-24T03:48:26.395Z</time>
      </trkpt>
      <trkpt lat="38.2305" lon="-2.72491">
        <ele>678.458374</ele>
        <time>2022-02-24T03:48:29.700Z</time>
      </trkpt>
      <trkpt lat="38.22973" lon="-2.72551">
        <ele>677.162702</ele>
        <time>2022-02-24T03:48:47.762Z</time>
      </trkpt>
      <trkpt lat="38.22959" lon="-2.72575">
        <ele>677.105173</ele>
        <time>2022-02-24T03:48:52.685Z</time>
      </trkpt>
      <trkpt lat="38.22949" lon="-2.72611">
        <ele>677.032184</ele>
        <time>2022-02-24T03:48:59.038Z</time>
      </trkpt>
      <trkpt lat="38.22833" lon="-2.72719">
        <ele>676.58321</ele>
        <time>2022-02-24T03:49:30.887Z</time>
      </trkpt>
      <trkpt lat="38.228" lon="-2.72735">
        <ele>676.324822</ele>
        <time>2022-02-24T03:49:38.802Z</time>
      </trkpt>
      <trkpt lat="38.2278" lon="-2.72744">
        <ele>676.170058</ele>
        <time>2022-02-24T03:49:43.864Z</time>
      </trkpt>
      <trkpt lat="38.22718" lon="-2.72757">
        <ele>675.717838</ele>
        <time>2022-02-24T03:49:56.495Z</time>
      </trkpt>
      <trkpt lat="38.22654" lon="-2.72793">
        <ele>674.530957</ele>
        <time>2022-02-24T03:50:09.722Z</time>
      </trkpt>
      <trkpt lat="38.22435" lon="-2.72952">
        <ele>667.189681</ele>
        <time>2022-02-24T03:50:52.249Z</time>
      </trkpt>
      <trkpt lat="38.22364" lon="-2.72969">
        <ele>665.186912</ele>
        <time>2022-02-24T03:51:05.313Z</time>
      </trkpt>
      <trkpt lat="38.22284" lon="-2.72962">
        <ele>663.835657</ele>
        <time>2022-02-24T03:51:21.041Z</time>
      </trkpt>
      <trkpt lat="38.22176" lon="-2.72999">
        <ele>661.966817</ele>
        <time>2022-02-24T03:51:42.421Z</time>
      </trkpt>
      <trkpt lat="38.22144" lon="-2.72999">
        <ele>660.952531</ele>
        <time>2022-02-24T03:51:48.015Z</time>
      </trkpt>
      <trkpt lat="38.22122" lon="-2.73001">
        <ele>660.217914</ele>
        <time>2022-02-24T03:51:51.876Z</time>
      </trkpt>
      <trkpt lat="38.22089" lon="-2.73017">
        <ele>659.094004</ele>
        <time>2022-02-24T03:51:57.834Z</time>
      </trkpt>
      <trkpt lat="38.2205" lon="-2.73026">
        <ele>657.837014</ele>
        <time>2022-02-24T03:52:04.389Z</time>
      </trkpt>
      <trkpt lat="38.22033" lon="-2.73038">
        <ele>657.220261</ele>
        <time>2022-02-24T03:52:07.605Z</time>
      </trkpt>
      <trkpt lat="38.22029" lon="-2.73034">
        <ele>657.044643</ele>
        <time>2022-02-24T03:52:08.464Z</time>
      </trkpt>
      <trkpt lat="38.21952" lon="-2.7304">
        <ele>655.272791</ele>
        <time>2022-02-24T03:52:21.927Z</time>
      </trkpt>
      <trkpt lat="38.21878" lon="-2.73029">
        <ele>653.770227</ele>
        <time>2022-02-24T03:52:36.346Z</time>
      </trkpt>
      <trkpt lat="38.21753" lon="-2.72991">
        <ele>652.817807</ele>
        <time>2022-02-24T03:53:05.995Z</time>
      </trkpt>
      <trkpt lat="38.2174" lon="-2.72992">
        <ele>652.818196</ele>
        <time>2022-02-24T03:53:12.866Z</time>
      </trkpt>
      <trkpt lat="38.21735" lon="-2.72999">
        <ele>652.818439</ele>
        <time>2022-02-24T03:53:14.195Z</time>
      </trkpt>
      <trkpt lat="38.21717" lon="-2.7305">
        <ele>652.819824</ele>
        <time>2022-02-24T03:53:24.279Z</time>
      </trkpt>
      <trkpt lat="38.21702" lon="-2.73067">
        <ele>652.820451</ele>
        <time>2022-02-24T03:53:30.680Z</time>
      </trkpt>
      <trkpt lat="38.2169" lon="-2.73072">
        <ele>652.820859</ele>
        <time>2022-02-24T03:53:32.905Z</time>
      </trkpt>
      <trkpt lat="38.21608" lon="-2.73072">
        <ele>651.338355</ele>
        <time>2022-02-24T03:53:49.973Z</time>
      </trkpt>
      <trkpt lat="38.21565" lon="-2.73056">
        <ele>650.521723</ele>
        <time>2022-02-24T03:53:58.025Z</time>
      </trkpt>
      <trkpt lat="38.21544" lon="-2.73044">
        <ele>650.08209</ele>
        <time>2022-02-24T03:54:02.456Z</time>
      </trkpt>
      <trkpt lat="38.21502" lon="-2.73044">
        <ele>649.473864</ele>
        <time>2022-02-24T03:54:10.112Z</time>
      </trkpt>
      <trkpt lat="38.21452" lon="-2.73062">
        <ele>649.368554</ele>
        <time>2022-02-24T03:54:19.989Z</time>
      </trkpt>
      <trkpt lat="38.21437" lon="-2.73074">
        <ele>649.333474</ele>
        <time>2022-02-24T03:54:23.417Z</time>
      </trkpt>
      <trkpt lat="38.21419" lon="-2.731">
        <ele>649.277499</ele>
        <time>2022-02-24T03:54:29.675Z</time>
      </trkpt>
      <trkpt lat="38.21403" lon="-2.73108">
        <ele>649.24387</ele>
        <time>2022-02-24T03:54:34.519Z</time>
      </trkpt>
      <trkpt lat="38.21388" lon="-2.73109">
        <ele>649.211934</ele>
        <time>2022-02-24T03:54:39.333Z</time>
      </trkpt>
      <trkpt lat="38.21378" lon="-2.73104">
        <ele>649.190878</ele>
        <time>2022-02-24T03:54:42.867Z</time>
      </trkpt>
      <trkpt lat="38.21347" lon="-2.73056">
        <ele>649.543842</ele>
        <time>2022-02-24T03:54:59.844Z</time>
      </trkpt>
      <trkpt lat="38.21322" lon="-2.73024">
        <ele>650.346562</ele>
        <time>2022-02-24T03:55:12.292Z</time>
      </trkpt>
      <trkpt lat="38.21311" lon="-2.73017">
        <ele>650.614482</ele>
        <time>2022-02-24T03:55:16.526Z</time>
      </trkpt>
      <trkpt lat="38.21241" lon="-2.73028">
        <ele>652.21141</ele>
        <time>2022-02-24T03:55:41.688Z</time>
      </trkpt>
      <trkpt lat="38.21106" lon="-2.73072">
        <ele>654.347041</ele>
        <time>2022-02-24T03:56:28.408Z</time>
      </trkpt>
      <trkpt lat="38.20989" lon="-2.73083">
        <ele>655.472281</ele>
        <time>2022-02-24T03:56:56.624Z</time>
      </trkpt>
      <trkpt lat="38.20972" lon="-2.73098">
        <ele>655.542047</ele>
        <time>2022-02-24T03:57:01.790Z</time>
      </trkpt>
      <trkpt lat="38.20904" lon="-2.73086">
        <ele>655.76908</ele>
        <time>2022-02-24T03:57:18.860Z</time>
      </trkpt>
      <trkpt lat="38.20863" lon="-2.73071">
        <ele>655.90998</ele>
        <time>2022-02-24T03:57:29.634Z</time>
      </trkpt>
      <trkpt lat="38.20531" lon="-2.73044">
        <ele>656.939271</ele>
        <time>2022-02-24T03:58:53.711Z</time>
      </trkpt>
      <trkpt lat="38.20505" lon="-2.73069">
        <ele>656.992059</ele>
        <time>2022-02-24T03:59:01.186Z</time>
      </trkpt>
      <trkpt lat="38.20338" lon="-2.73118">
        <ele>655.508777</ele>
        <time>2022-02-24T03:59:36.866Z</time>
      </trkpt>
      <trkpt lat="38.20161" lon="-2.731">
        <ele>652.931265</ele>
        <time>2022-02-24T04:00:12.946Z</time>
      </trkpt>
      <trkpt lat="38.20127" lon="-2.73088">
        <ele>652.1584</ele>
        <time>2022-02-24T04:00:19.527Z</time>
      </trkpt>
      <trkpt lat="38.20092" lon="-2.73066">
        <ele>650.992772</ele>
        <time>2022-02-24T04:00:26.555Z</time>
      </trkpt>
      <trkpt lat="38.19977" lon="-2.73169">
        <ele>647.093946</ele>
        <time>2022-02-24T04:00:51.789Z</time>
      </trkpt>
      <trkpt lat="38.19928" lon="-2.73173">
        <ele>646.603917</ele>
        <time>2022-02-24T04:01:00.630Z</time>
      </trkpt>
      <trkpt lat="38.19896" lon="-2.73144">
        <ele>646.203412</ele>
        <time>2022-02-24T04:01:08.504Z</time>
      </trkpt>
      <trkpt lat="38.19894" lon="-2.73096">
        <ele>645.820181</ele>
        <time>2022-02-24T04:01:16.926Z</time>
      </trkpt>
      <trkpt lat="38.19939" lon="-2.7293">
        <ele>648.396402</ele>
        <time>2022-02-24T04:02:02.656Z</time>
      </trkpt>
      <trkpt lat="38.19939" lon="-2.72793">
        <ele>652.112402</ele>
        <time>2022-02-24T04:02:49.965Z</time>
      </trkpt>
      <trkpt lat="38.19964" lon="-2.72666">
        <ele>657.184086</ele>
        <time>2022-02-24T04:03:39.979Z</time>
      </trkpt>
      <trkpt lat="38.19937" lon="-2.72636">
        <ele>658.926229</ele>
        <time>2022-02-24T04:03:57.286Z</time>
      </trkpt>
      <trkpt lat="38.19918" lon="-2.72638">
        <ele>659.855658</ele>
        <time>2022-02-24T04:04:07.303Z</time>
      </trkpt>
      <trkpt lat="38.19859" lon="-2.7271">
        <ele>663.287489</ele>
        <time>2022-02-24T04:04:48.231Z</time>
      </trkpt>
      <trkpt lat="38.19798" lon="-2.72868">
        <ele>667.697096</ele>
        <time>2022-02-24T04:05:42.355Z</time>
      </trkpt>
      <trkpt lat="38.19756" lon="-2.72921">
        <ele>668.404019</ele>
        <time>2022-02-24T04:06:00.446Z</time>
      </trkpt>
      <trkpt lat="38.19726" lon="-2.7297">
        <ele>668.987749</ele>
        <time>2022-02-24T04:06:12.098Z</time>
      </trkpt>
      <trkpt lat="38.19691" lon="-2.73053">
        <ele>668.625273</ele>
        <time>2022-02-24T04:06:27.557Z</time>
      </trkpt>
      <trkpt lat="38.19621" lon="-2.73097">
        <ele>667.529976</ele>
        <time>2022-02-24T04:06:43.409Z</time>
      </trkpt>
      <trkpt lat="38.19574" lon="-2.73102">
        <ele>666.863332</ele>
        <time>2022-02-24T04:06:52.681Z</time>
      </trkpt>
      <trkpt lat="38.19565" lon="-2.73107">
        <ele>666.777071</ele>
        <time>2022-02-24T04:06:54.893Z</time>
      </trkpt>
      <trkpt lat="38.19568" lon="-2.73123">
        <ele>666.811142</ele>
        <time>2022-02-24T04:06:56.998Z</time>
      </trkpt>
      <trkpt lat="38.19598" lon="-2.73153">
        <ele>666.909389</ele>
        <time>2022-02-24T04:07:03.862Z</time>
      </trkpt>
      <trkpt lat="38.19611" lon="-2.73178">
        <ele>666.969707</ele>
        <time>2022-02-24T04:07:11.130Z</time>
      </trkpt>
      <trkpt lat="38.19601" lon="-2.73201">
        <ele>667.023489</ele>
        <time>2022-02-24T04:07:14.905Z</time>
      </trkpt>
      <trkpt lat="38.19611" lon="-2.73218">
        <ele>667.065306</ele>
        <time>2022-02-24T04:07:23.355Z</time>
      </trkpt>
      <trkpt lat="38.1965" lon="-2.7322">
        <ele>667.164401</ele>
        <time>2022-02-24T04:07:35.746Z</time>
      </trkpt>
      <trkpt lat="38.19659" lon="-2.73234">
        <ele>667.200677</ele>
        <time>2022-02-24T04:07:38.174Z</time>
      </trkpt>
      <trkpt lat="38.19609" lon="-2.73236">
        <ele>669.70301</ele>
        <time>2022-02-24T04:08:09.044Z</time>
      </trkpt>
      <trkpt lat="38.19585" lon="-2.73274">
        <ele>672.152792</ele>
        <time>2022-02-24T04:08:33.498Z</time>
      </trkpt>
      <trkpt lat="38.1953" lon="-2.73313">
        <ele>676.229999</ele>
        <time>2022-02-24T04:09:17.740Z</time>
      </trkpt>
      <trkpt lat="38.1948" lon="-2.73314">
        <ele>679.538752</ele>
        <time>2022-02-24T04:10:03.853Z</time>
      </trkpt>
      <trkpt lat="38.19396" lon="-2.7334">
        <ele>686.014593</ele>
        <time>2022-02-24T04:11:13.227Z</time>
      </trkpt>
      <trkpt lat="38.19289" lon="-2.73309">
        <ele>693.423234</ele>
        <time>2022-02-24T04:12:27.863Z</time>
      </trkpt>
      <trkpt lat="38.19213" lon="-2.73305">
        <ele>696.63653</ele>
        <time>2022-02-24T04:13:09.010Z</time>
      </trkpt>
      <trkpt lat="38.19184" lon="-2.73287">
        <ele>698.020304</ele>
        <time>2022-02-24T04:13:26.483Z</time>
      </trkpt>
      <trkpt lat="38.19166" lon="-2.7329">
        <ele>698.786206</ele>
        <time>2022-02-24T04:13:36.643Z</time>
      </trkpt>
      <trkpt lat="38.19104" lon="-2.73254">
        <ele>702.913104</ele>
        <time>2022-02-24T04:14:16.580Z</time>
      </trkpt>
      <trkpt lat="38.19086" lon="-2.73264">
        <ele>704.371864</ele>
        <time>2022-02-24T04:14:28.779Z</time>
      </trkpt>
      <trkpt lat="38.19039" lon="-2.73259">
        <ele>707.789777</ele>
        <time>2022-02-24T04:15:03.416Z</time>
      </trkpt>
      <trkpt lat="38.18936" lon="-2.73263">
        <ele>716.71302</ele>
        <time>2022-02-24T04:16:30.902Z</time>
      </trkpt>
      <trkpt lat="38.18909" lon="-2.73204">
        <ele>722.929442</ele>
        <time>2022-02-24T04:17:16.288Z</time>
      </trkpt>
      <trkpt lat="38.18889" lon="-2.73103">
        <ele>732.403834</ele>
        <time>2022-02-24T04:18:26.123Z</time>
      </trkpt>
      <trkpt lat="38.18876" lon="-2.7306">
        <ele>736.49143</ele>
        <time>2022-02-24T04:18:57.670Z</time>
      </trkpt>
      <trkpt lat="38.18867" lon="-2.73041">
        <ele>738.335429</ele>
        <time>2022-02-24T04:19:11.930Z</time>
      </trkpt>
      <trkpt lat="38.18836" lon="-2.73004">
        <ele>742.939166</ele>
        <time>2022-02-24T04:19:41.846Z</time>
      </trkpt>
      <trkpt lat="38.18796" lon="-2.7292">
        <ele>751.371101</ele>
        <time>2022-02-24T04:20:43.388Z</time>
      </trkpt>
      <trkpt lat="38.18821" lon="-2.72875">
        <ele>755.73164</ele>
        <time>2022-02-24T04:21:14.588Z</time>
      </trkpt>
      <trkpt lat="38.18833" lon="-2.72861">
        <ele>757.356135</ele>
        <time>2022-02-24T04:21:27.471Z</time>
      </trkpt>
      <trkpt lat="38.18838" lon="-2.72846">
        <ele>758.528531</ele>
        <time>2022-02-24T04:21:33.924Z</time>
      </trkpt>
      <trkpt lat="38.18835" lon="-2.7281">
        <ele>761.259862</ele>
        <time>2022-02-24T04:21:53.327Z</time>
      </trkpt>
      <trkpt lat="38.18822" lon="-2.72809">
        <ele>762.499983</ele>
        <time>2022-02-24T04:21:59.061Z</time>
      </trkpt>
      <trkpt lat="38.1877" lon="-2.72799">
        <ele>767.542287</ele>
        <time>2022-02-24T04:22:34.852Z</time>
      </trkpt>
      <trkpt lat="38.18678" lon="-2.72733">
        <ele>779.155974</ele>
        <time>2022-02-24T04:24:01.158Z</time>
      </trkpt>
      <trkpt lat="38.18663" lon="-2.72731">
        <ele>780.972134</ele>
        <time>2022-02-24T04:24:11.457Z</time>
      </trkpt>
      <trkpt lat="38.18643" lon="-2.72737">
        <ele>783.303084</ele>
        <time>2022-02-24T04:24:29.783Z</time>
      </trkpt>
      <trkpt lat="38.1863" lon="-2.72751">
        <ele>785.358155</ele>
        <time>2022-02-24T04:24:41.398Z</time>
      </trkpt>
      <trkpt lat="38.18608" lon="-2.72805">
        <ele>790.931666</ele>
        <time>2022-02-24T04:25:20.978Z</time>
      </trkpt>
      <trkpt lat="38.18598" lon="-2.72811">
        <ele>792.38831</ele>
        <time>2022-02-24T04:25:29.881Z</time>
      </trkpt>
      <trkpt lat="38.18588" lon="-2.72809">
        <ele>793.902572</ele>
        <time>2022-02-24T04:25:36.409Z</time>
      </trkpt>
      <trkpt lat="38.18578" lon="-2.72796">
        <ele>796.226612</ele>
        <time>2022-02-24T04:25:51.589Z</time>
      </trkpt>
      <trkpt lat="38.18573" lon="-2.72717">
        <ele>806.11393</ele>
        <time>2022-02-24T04:26:50.214Z</time>
      </trkpt>
      <trkpt lat="38.1856" lon="-2.72702">
        <ele>808.872529</ele>
        <time>2022-02-24T04:27:07.809Z</time>
      </trkpt>
      <trkpt lat="38.18547" lon="-2.727">
        <ele>810.954169</ele>
        <time>2022-02-24T04:27:19.978Z</time>
      </trkpt>
      <trkpt lat="38.18474" lon="-2.72729">
        <ele>823.585674</ele>
        <time>2022-02-24T04:28:52.220Z</time>
      </trkpt>
      <trkpt lat="38.18381" lon="-2.72719">
        <ele>841.035383</ele>
        <time>2022-02-24T04:30:43.911Z</time>
      </trkpt>
      <trkpt lat="38.18351" lon="-2.72722">
        <ele>846.710695</ele>
        <time>2022-02-24T04:31:22.284Z</time>
      </trkpt>
      <trkpt lat="38.18324" lon="-2.72736">
        <ele>852.316894</ele>
        <time>2022-02-24T04:31:54.362Z</time>
      </trkpt>
      <trkpt lat="38.18269" lon="-2.72789">
        <ele>860.343057</ele>
        <time>2022-02-24T04:33:04.817Z</time>
      </trkpt>
      <trkpt lat="38.18246" lon="-2.72792">
        <ele>862.776931</ele>
        <time>2022-02-24T04:33:25.873Z</time>
      </trkpt>
      <trkpt lat="38.18236" lon="-2.72785">
        <ele>863.918991</ele>
        <time>2022-02-24T04:33:34.963Z</time>
      </trkpt>
      <trkpt lat="38.18231" lon="-2.72773">
        <ele>865.10266</ele>
        <time>2022-02-24T04:33:46.154Z</time>
      </trkpt>
      <trkpt lat="38.18231" lon="-2.72755">
        <ele>866.552153</ele>
        <time>2022-02-24T04:33:52.134Z</time>
      </trkpt>
      <trkpt lat="38.18238" lon="-2.72741">
        <ele>867.888597</ele>
        <time>2022-02-24T04:33:56.692Z</time>
      </trkpt>
      <trkpt lat="38.18283" lon="-2.72705">
        <ele>873.228203</ele>
        <time>2022-02-24T04:34:19.852Z</time>
      </trkpt>
      <trkpt lat="38.18351" lon="-2.7267">
        <ele>876.636646</ele>
        <time>2022-02-24T04:34:47.282Z</time>
      </trkpt>
      <trkpt lat="38.18362" lon="-2.72659">
        <ele>877.256803</ele>
        <time>2022-02-24T04:34:51.103Z</time>
      </trkpt>
      <trkpt lat="38.18366" lon="-2.72643">
        <ele>877.858397</ele>
        <time>2022-02-24T04:34:56.895Z</time>
      </trkpt>
      <trkpt lat="38.18365" lon="-2.72628">
        <ele>878.433245</ele>
        <time>2022-02-24T04:35:02.398Z</time>
      </trkpt>
      <trkpt lat="38.18353" lon="-2.72612">
        <ele>879.20137</ele>
        <time>2022-02-24T04:35:10.381Z</time>
      </trkpt>
      <trkpt lat="38.18342" lon="-2.7261">
        <ele>879.724882</ele>
        <time>2022-02-24T04:35:16.330Z</time>
      </trkpt>
      <trkpt lat="38.18327" lon="-2.72618">
        <ele>880.453545</ele>
        <time>2022-02-24T04:35:24.089Z</time>
      </trkpt>
      <trkpt lat="38.18291" lon="-2.72658">
        <ele>884.27553</ele>
        <time>2022-02-24T04:35:52.873Z</time>
      </trkpt>
      <trkpt lat="38.18268" lon="-2.72669">
        <ele>886.739751</ele>
        <time>2022-02-24T04:36:09.837Z</time>
      </trkpt>
      <trkpt lat="38.18185" lon="-2.72666">
        <ele>895.014556</ele>
        <time>2022-02-24T04:37:11.690Z</time>
      </trkpt>
      <trkpt lat="38.18089" lon="-2.72684">
        <ele>905.230172</ele>
        <time>2022-02-24T04:38:32.012Z</time>
      </trkpt>
      <trkpt lat="38.1808" lon="-2.72694">
        <ele>906.509851</ele>
        <time>2022-02-24T04:38:41.573Z</time>
      </trkpt>
      <trkpt lat="38.18078" lon="-2.72708">
        <ele>907.763392</ele>
        <time>2022-02-24T04:38:52.226Z</time>
      </trkpt>
      <trkpt lat="38.18081" lon="-2.72758">
        <ele>912.15091</ele>
        <time>2022-02-24T04:39:22.998Z</time>
      </trkpt>
      <trkpt lat="38.18078" lon="-2.72773">
        <ele>913.514694</ele>
        <time>2022-02-24T04:39:30.659Z</time>
      </trkpt>
      <trkpt lat="38.18068" lon="-2.72787">
        <ele>915.146771</ele>
        <time>2022-02-24T04:39:40.856Z</time>
      </trkpt>
      <trkpt lat="38.18056" lon="-2.72789">
        <ele>916.486146</ele>
        <time>2022-02-24T04:39:49.747Z</time>
      </trkpt>
      <trkpt lat="38.18042" lon="-2.72781">
        <ele>918.200275</ele>
        <time>2022-02-24T04:40:02.249Z</time>
      </trkpt>
      <trkpt lat="38.18035" lon="-2.7276">
        <ele>920.080392</ele>
        <time>2022-02-24T04:40:14.701Z</time>
      </trkpt>
      <trkpt lat="38.1805" lon="-2.72625">
        <ele>931.092567</ele>
        <time>2022-02-24T04:41:28.843Z</time>
      </trkpt>
      <trkpt lat="38.18042" lon="-2.72606">
        <ele>932.816524</ele>
        <time>2022-02-24T04:41:43.484Z</time>
      </trkpt>
      <trkpt lat="38.18028" lon="-2.726">
        <ele>934.293813</ele>
        <time>2022-02-24T04:41:55.257Z</time>
      </trkpt>
      <trkpt lat="38.17979" lon="-2.72622">
        <ele>939.942455</ele>
        <time>2022-02-24T04:42:35.302Z</time>
      </trkpt>
      <trkpt lat="38.17937" lon="-2.72616">
        <ele>944.807447</ele>
        <time>2022-02-24T04:43:09.397Z</time>
      </trkpt>
      <trkpt lat="38.17916" lon="-2.72621">
        <ele>947.305889</ele>
        <time>2022-02-24T04:43:25.095Z</time>
      </trkpt>
      <trkpt lat="38.17889" lon="-2.7262">
        <ele>950.44412</ele>
        <time>2022-02-24T04:43:50.151Z</time>
      </trkpt>
      <trkpt lat="38.1784" lon="-2.72659">
        <ele>957.127746</ele>
        <time>2022-02-24T04:44:33.735Z</time>
      </trkpt>
      <trkpt lat="38.17805" lon="-2.72669">
        <ele>961.430048</ele>
        <time>2022-02-24T04:45:04.319Z</time>
      </trkpt>
      <trkpt lat="38.17787" lon="-2.727">
        <ele>965.020254</ele>
        <time>2022-02-24T04:45:28.788Z</time>
      </trkpt>
      <trkpt lat="38.17773" lon="-2.72714">
        <ele>967.195202</ele>
        <time>2022-02-24T04:45:44.738Z</time>
      </trkpt>
      <trkpt lat="38.17702" lon="-2.72723">
        <ele>975.713219</ele>
        <time>2022-02-24T04:46:39.632Z</time>
      </trkpt>
      <trkpt lat="38.17648" lon="-2.72747">
        <ele>982.786215</ele>
        <time>2022-02-24T04:47:28.823Z</time>
      </trkpt>
      <trkpt lat="38.17615" lon="-2.72747">
        <ele>987.189481</ele>
        <time>2022-02-24T04:48:00.853Z</time>
      </trkpt>
      <trkpt lat="38.17603" lon="-2.72772">
        <ele>990.170396</ele>
        <time>2022-02-24T04:48:21.973Z</time>
      </trkpt>
      <trkpt lat="38.176" lon="-2.72809">
        <ele>994.115438</ele>
        <time>2022-02-24T04:48:50.523Z</time>
      </trkpt>
      <trkpt lat="38.17589" lon="-2.72821">
        <ele>996.087815</ele>
        <time>2022-02-24T04:49:04.844Z</time>
      </trkpt>
      <trkpt lat="38.17472" lon="-2.7284">
        <ele>1009.186937</ele>
        <time>2022-02-24T04:50:41.670Z</time>
      </trkpt>
      <trkpt lat="38.17448" lon="-2.7287">
        <ele>1012.2237</ele>
        <time>2022-02-24T04:51:04.661Z</time>
      </trkpt>
      <trkpt lat="38.17438" lon="-2.72876">
        <ele>1013.225163</ele>
        <time>2022-02-24T04:51:11.233Z</time>
      </trkpt>
      <trkpt lat="38.17417" lon="-2.72866">
        <ele>1015.167776</ele>
        <time>2022-02-24T04:51:22.683Z</time>
      </trkpt>
      <trkpt lat="38.17412" lon="-2.72855">
        <ele>1016.086808</ele>
        <time>2022-02-24T04:51:27.963Z</time>
      </trkpt>
      <trkpt lat="38.17413" lon="-2.72835">
        <ele>1017.521735</ele>
        <time>2022-02-24T04:51:39.912Z</time>
      </trkpt>
      <trkpt lat="38.17444" lon="-2.72806">
        <ele>1020.742941</ele>
        <time>2022-02-24T04:52:01.392Z</time>
      </trkpt>
      <trkpt lat="38.17461" lon="-2.72777">
        <ele>1022.709648</ele>
        <time>2022-02-24T04:52:15.605Z</time>
      </trkpt>
      <trkpt lat="38.17489" lon="-2.72768">
        <ele>1024.688599</ele>
        <time>2022-02-24T04:52:27.236Z</time>
      </trkpt>
      <trkpt lat="38.17519" lon="-2.72772">
        <ele>1026.753339</ele>
        <time>2022-02-24T04:52:40.313Z</time>
      </trkpt>
      <trkpt lat="38.17533" lon="-2.7276">
        <ele>1027.868593</ele>
        <time>2022-02-24T04:52:51.707Z</time>
      </trkpt>
      <trkpt lat="38.17534" lon="-2.72731">
        <ele>1029.419115</ele>
        <time>2022-02-24T04:53:03.094Z</time>
      </trkpt>
      <trkpt lat="38.17515" lon="-2.72698">
        <ele>1031.607148</ele>
        <time>2022-02-24T04:53:22.074Z</time>
      </trkpt>
      <trkpt lat="38.17511" lon="-2.72677">
        <ele>1033.257952</ele>
        <time>2022-02-24T04:53:36.112Z</time>
      </trkpt>
      <trkpt lat="38.17523" lon="-2.7262">
        <ele>1039.03621</ele>
        <time>2022-02-24T04:54:12.231Z</time>
      </trkpt>
      <trkpt lat="38.17527" lon="-2.72557">
        <ele>1045.224433</ele>
        <time>2022-02-24T04:55:00.652Z</time>
      </trkpt>
      <trkpt lat="38.17541" lon="-2.72542">
        <ele>1047.508777</ele>
        <time>2022-02-24T04:55:16.125Z</time>
      </trkpt>
      <trkpt lat="38.17565" lon="-2.72534">
        <ele>1050.587027</ele>
        <time>2022-02-24T04:55:38.071Z</time>
      </trkpt>
      <trkpt lat="38.17576" lon="-2.72516">
        <ele>1052.801008</ele>
        <time>2022-02-24T04:55:53.869Z</time>
      </trkpt>
      <trkpt lat="38.1758" lon="-2.72452">
        <ele>1058.390918</ele>
        <time>2022-02-24T04:56:38.262Z</time>
      </trkpt>
      <trkpt lat="38.17577" lon="-2.72382">
        <ele>1064.181416</ele>
        <time>2022-02-24T04:57:22.601Z</time>
      </trkpt>
      <trkpt lat="38.17582" lon="-2.72337">
        <ele>1067.931543</ele>
        <time>2022-02-24T04:57:49.207Z</time>
      </trkpt>
      <trkpt lat="38.17599" lon="-2.72312">
        <ele>1070.612805</ele>
        <time>2022-02-24T04:58:07.514Z</time>
      </trkpt>
      <trkpt lat="38.17646" lon="-2.72307">
        <ele>1074.196448</ele>
        <time>2022-02-24T04:58:34.949Z</time>
      </trkpt>
      <trkpt lat="38.17659" lon="-2.723">
        <ele>1074.687184</ele>
        <time>2022-02-24T04:58:42.098Z</time>
      </trkpt>
      <trkpt lat="38.17672" lon="-2.72283">
        <ele>1075.364527</ele>
        <time>2022-02-24T04:58:51.032Z</time>
      </trkpt>
      <trkpt lat="38.17676" lon="-2.72256">
        <ele>1076.131016</ele>
        <time>2022-02-24T04:59:00.597Z</time>
      </trkpt>
      <trkpt lat="38.17655" lon="-2.72179">
        <ele>1078.415306</ele>
        <time>2022-02-24T04:59:22.516Z</time>
      </trkpt>
      <trkpt lat="38.17658" lon="-2.72141">
        <ele>1079.508952</ele>
        <time>2022-02-24T04:59:31.369Z</time>
      </trkpt>
      <trkpt lat="38.17669" lon="-2.72117">
        <ele>1079.854438</ele>
        <time>2022-02-24T04:59:37.452Z</time>
      </trkpt>
      <trkpt lat="38.17722" lon="-2.7206">
        <ele>1079.255797</ele>
        <time>2022-02-24T04:59:52.523Z</time>
      </trkpt>
      <trkpt lat="38.17736" lon="-2.72033">
        <ele>1079.036974</ele>
        <time>2022-02-24T04:59:57.473Z</time>
      </trkpt>
      <trkpt lat="38.17748" lon="-2.71994">
        <ele>1078.756287</ele>
        <time>2022-02-24T05:00:03.660Z</time>
      </trkpt>
      <trkpt lat="38.17749" lon="-2.71951">
        <ele>1078.46818</ele>
        <time>2022-02-24T05:00:09.817Z</time>
      </trkpt>
      <trkpt lat="38.17742" lon="-2.7191">
        <ele>1078.180043</ele>
        <time>2022-02-24T05:00:15.625Z</time>
      </trkpt>
      <trkpt lat="38.17735" lon="-2.71892">
        <ele>1078.037106</ele>
        <time>2022-02-24T05:00:18.436Z</time>
      </trkpt>
      <trkpt lat="38.17719" lon="-2.71873">
        <ele>1077.838664</ele>
        <time>2022-02-24T05:00:22.366Z</time>
      </trkpt>
      <trkpt lat="38.17666" lon="-2.71776">
        <ele>1077.011933</ele>
        <time>2022-02-24T05:00:40.274Z</time>
      </trkpt>
      <trkpt lat="38.17653" lon="-2.71733">
        <ele>1077.489712</ele>
        <time>2022-02-24T05:00:50.613Z</time>
      </trkpt>
      <trkpt lat="38.17628" lon="-2.71665">
        <ele>1081.290412</ele>
        <time>2022-02-24T05:01:16.075Z</time>
      </trkpt>
      <trkpt lat="38.17598" lon="-2.71618">
        <ele>1084.347691</ele>
        <time>2022-02-24T05:01:41.974Z</time>
      </trkpt>
      <trkpt lat="38.17542" lon="-2.7155">
        <ele>1089.891046</ele>
        <time>2022-02-24T05:02:38.836Z</time>
      </trkpt>
      <trkpt lat="38.17497" lon="-2.7152">
        <ele>1095.066134</ele>
        <time>2022-02-24T05:03:21.066Z</time>
      </trkpt>
      <trkpt lat="38.17464" lon="-2.71506">
        <ele>1098.554155</ele>
        <time>2022-02-24T05:03:49.871Z</time>
      </trkpt>
      <trkpt lat="38.17379" lon="-2.71489">
        <ele>1106.669133</ele>
        <time>2022-02-24T05:04:48.473Z</time>
      </trkpt>
      <trkpt lat="38.1734" lon="-2.71443">
        <ele>1108.3295</ele>
        <time>2022-02-24T05:05:15.616Z</time>
      </trkpt>
      <trkpt lat="38.17332" lon="-2.71439">
        <ele>1108.624736</ele>
        <time>2022-02-24T05:05:20.059Z</time>
      </trkpt>
      <trkpt lat="38.17323" lon="-2.71439">
        <ele>1108.907437</ele>
        <time>2022-02-24T05:05:23.542Z</time>
      </trkpt>
      <trkpt lat="38.17308" lon="-2.7145">
        <ele>1109.456297</ele>
        <time>2022-02-24T05:05:29.379Z</time>
      </trkpt>
      <trkpt lat="38.17277" lon="-2.71536">
        <ele>1111.794821</ele>
        <time>2022-02-24T05:05:49.170Z</time>
      </trkpt>
      <trkpt lat="38.17269" lon="-2.71544">
        <ele>1112.089575</ele>
        <time>2022-02-24T05:05:51.218Z</time>
      </trkpt>
      <trkpt lat="38.17251" lon="-2.7155">
        <ele>1111.542997</ele>
        <time>2022-02-24T05:05:55.016Z</time>
      </trkpt>
      <trkpt lat="38.17202" lon="-2.71548">
        <ele>1110.143851</ele>
        <time>2022-02-24T05:06:03.766Z</time>
      </trkpt>
      <trkpt lat="38.17189" lon="-2.71531">
        <ele>1109.624633</ele>
        <time>2022-02-24T05:06:06.907Z</time>
      </trkpt>
      <trkpt lat="38.17171" lon="-2.71487">
        <ele>1108.505041</ele>
        <time>2022-02-24T05:06:13.514Z</time>
      </trkpt>
      <trkpt lat="38.17146" lon="-2.71445">
        <ele>1107.294597</ele>
        <time>2022-02-24T05:06:20.357Z</time>
      </trkpt>
      <trkpt lat="38.17137" lon="-2.71342">
        <ele>1103.068326</ele>
        <time>2022-02-24T05:06:33.293Z</time>
      </trkpt>
      <trkpt lat="38.17138" lon="-2.71292">
        <ele>1100.813692</ele>
        <time>2022-02-24T05:06:39.702Z</time>
      </trkpt>
      <trkpt lat="38.17126" lon="-2.71274">
        <ele>1099.773342</ele>
        <time>2022-02-24T05:06:42.603Z</time>
      </trkpt>
      <trkpt lat="38.17084" lon="-2.71236">
        <ele>1096.853041</ele>
        <time>2022-02-24T05:06:50.400Z</time>
      </trkpt>
      <trkpt lat="38.17064" lon="-2.71235">
        <ele>1094.996576</ele>
        <time>2022-02-24T05:06:53.353Z</time>
      </trkpt>
      <trkpt lat="38.17055" lon="-2.71241">
        <ele>1093.987557</ele>
        <time>2022-02-24T05:06:54.856Z</time>
      </trkpt>
      <trkpt lat="38.16985" lon="-2.71332">
        <ele>1084.06954</ele>
        <time>2022-02-24T05:07:08.844Z</time>
      </trkpt>
      <trkpt lat="38.16966" lon="-2.71331">
        <ele>1082.277082</ele>
        <time>2022-02-24T05:07:11.422Z</time>
      </trkpt>
      <trkpt lat="38.16951" lon="-2.71317">
        <ele>1080.408029</ele>
        <time>2022-02-24T05:07:14.153Z</time>
      </trkpt>
      <trkpt lat="38.16943" lon="-2.71296">
        <ele>1078.770507</ele>
        <time>2022-02-24T05:07:16.896Z</time>
      </trkpt>
      <trkpt lat="38.16943" lon="-2.71284">
        <ele>1078.278963</ele>
        <time>2022-02-24T05:07:18.156Z</time>
      </trkpt>
      <trkpt lat="38.16961" lon="-2.7125">
        <ele>1076.575309</ele>
        <time>2022-02-24T05:07:22.835Z</time>
      </trkpt>
      <trkpt lat="38.17077" lon="-2.71115">
        <ele>1069.720374</ele>
        <time>2022-02-24T05:07:48.540Z</time>
      </trkpt>
      <trkpt lat="38.17118" lon="-2.70995">
        <ele>1070.655164</ele>
        <time>2022-02-24T05:08:21.124Z</time>
      </trkpt>
      <trkpt lat="38.17117" lon="-2.70974">
        <ele>1070.804902</ele>
        <time>2022-02-24T05:08:27.109Z</time>
      </trkpt>
      <trkpt lat="38.17105" lon="-2.70959">
        <ele>1070.957485</ele>
        <time>2022-02-24T05:08:32.357Z</time>
      </trkpt>
      <trkpt lat="38.17095" lon="-2.70956">
        <ele>1071.049912</ele>
        <time>2022-02-24T05:08:36.106Z</time>
      </trkpt>
      <trkpt lat="38.17074" lon="-2.70963">
        <ele>1071.402137</ele>
        <time>2022-02-24T05:08:44.279Z</time>
      </trkpt>
      <trkpt lat="38.17029" lon="-2.70989">
        <ele>1072.487928</ele>
        <time>2022-02-24T05:09:02.351Z</time>
      </trkpt>
      <trkpt lat="38.17003" lon="-2.70992">
        <ele>1073.044682</ele>
        <time>2022-02-24T05:09:10.894Z</time>
      </trkpt>
      <trkpt lat="38.16982" lon="-2.70984">
        <ele>1073.526911</ele>
        <time>2022-02-24T05:09:18.465Z</time>
      </trkpt>
      <trkpt lat="38.16975" lon="-2.70975">
        <ele>1073.748733</ele>
        <time>2022-02-24T05:09:21.393Z</time>
      </trkpt>
      <trkpt lat="38.16956" lon="-2.70919">
        <ele>1074.792415</ele>
        <time>2022-02-24T05:09:36.389Z</time>
      </trkpt>
      <trkpt lat="38.16909" lon="-2.70859">
        <ele>1074.929528</ele>
        <time>2022-02-24T05:09:56.846Z</time>
      </trkpt>
      <trkpt lat="38.16889" lon="-2.70796">
        <ele>1074.800334</ele>
        <time>2022-02-24T05:10:10.737Z</time>
      </trkpt>
      <trkpt lat="38.16847" lon="-2.70752">
        <ele>1074.66788</ele>
        <time>2022-02-24T05:10:20.847Z</time>
      </trkpt>
      <trkpt lat="38.16843" lon="-2.70742">
        <ele>1074.645822</ele>
        <time>2022-02-24T05:10:22.391Z</time>
      </trkpt>
      <trkpt lat="38.16842" lon="-2.7073">
        <ele>1074.606982</ele>
        <time>2022-02-24T05:10:24.009Z</time>
      </trkpt>
      <trkpt lat="38.16849" lon="-2.70706">
        <ele>1074.177738</ele>
        <time>2022-02-24T05:10:27.352Z</time>
      </trkpt>
      <trkpt lat="38.16897" lon="-2.70603">
        <ele>1072.164865</ele>
        <time>2022-02-24T05:10:43.319Z</time>
      </trkpt>
      <trkpt lat="38.16917" lon="-2.70508">
        <ele>1070.910121</ele>
        <time>2022-02-24T05:10:59.072Z</time>
      </trkpt>
      <trkpt lat="38.16933" lon="-2.70457">
        <ele>1071.37144</ele>
        <time>2022-02-24T05:11:09.692Z</time>
      </trkpt>
      <trkpt lat="38.16997" lon="-2.70347">
        <ele>1072.52486</ele>
        <time>2022-02-24T05:11:40.862Z</time>
      </trkpt>
      <trkpt lat="38.17003" lon="-2.70314">
        <ele>1073.001524</ele>
        <time>2022-02-24T05:11:50.608Z</time>
      </trkpt>
      <trkpt lat="38.16993" lon="-2.70297">
        <ele>1073.477286</ele>
        <time>2022-02-24T05:11:56.517Z</time>
      </trkpt>
      <trkpt lat="38.16983" lon="-2.70292">
        <ele>1073.79069</ele>
        <time>2022-02-24T05:12:00.204Z</time>
      </trkpt>
      <trkpt lat="38.16925" lon="-2.70288">
        <ele>1075.48364</ele>
        <time>2022-02-24T05:12:21.312Z</time>
      </trkpt>
      <trkpt lat="38.16902" lon="-2.70281">
        <ele>1076.178923</ele>
        <time>2022-02-24T05:12:30.102Z</time>
      </trkpt>
      <trkpt lat="38.16853" lon="-2.70246">
        <ele>1077.817582</ele>
        <time>2022-02-24T05:12:51.329Z</time>
      </trkpt>
      <trkpt lat="38.16831" lon="-2.70217">
        <ele>1079.497378</ele>
        <time>2022-02-24T05:13:04.027Z</time>
      </trkpt>
      <trkpt lat="38.16782" lon="-2.70121">
        <ele>1084.547511</ele>
        <time>2022-02-24T05:13:44.107Z</time>
      </trkpt>
      <trkpt lat="38.16727" lon="-2.70068">
        <ele>1088.716839</ele>
        <time>2022-02-24T05:14:26.648Z</time>
      </trkpt>
      <trkpt lat="38.16708" lon="-2.70021">
        <ele>1092.849188</ele>
        <time>2022-02-24T05:14:55.795Z</time>
      </trkpt>
      <trkpt lat="38.16655" lon="-2.69819">
        <ele>1108.842332</ele>
        <time>2022-02-24T05:17:00.780Z</time>
      </trkpt>
      <trkpt lat="38.16656" lon="-2.69773">
        <ele>1111.945343</ele>
        <time>2022-02-24T05:17:26.441Z</time>
      </trkpt>
      <trkpt lat="38.16689" lon="-2.69696">
        <ele>1117.728951</ele>
        <time>2022-02-24T05:18:08.150Z</time>
      </trkpt>
      <trkpt lat="38.1669" lon="-2.69684">
        <ele>1118.507774</ele>
        <time>2022-02-24T05:18:12.986Z</time>
      </trkpt>
      <trkpt lat="38.16681" lon="-2.69666">
        <ele>1119.955721</ele>
        <time>2022-02-24T05:18:22.338Z</time>
      </trkpt>
      <trkpt lat="38.16671" lon="-2.69662">
        <ele>1120.812583</ele>
        <time>2022-02-24T05:18:28.038Z</time>
      </trkpt>
      <trkpt lat="38.16634" lon="-2.69667">
        <ele>1124.534767</ele>
        <time>2022-02-24T05:18:49.290Z</time>
      </trkpt>
      <trkpt lat="38.16625" lon="-2.69662">
        <ele>1125.451671</ele>
        <time>2022-02-24T05:18:54.793Z</time>
      </trkpt>
      <trkpt lat="38.16594" lon="-2.69625">
        <ele>1129.66248</ele>
        <time>2022-02-24T05:19:22.575Z</time>
      </trkpt>
      <trkpt lat="38.1657" lon="-2.69575">
        <ele>1134.190959</ele>
        <time>2022-02-24T05:19:57.359Z</time>
      </trkpt>
      <trkpt lat="38.16532" lon="-2.69423">
        <ele>1148.685731</ele>
        <time>2022-02-24T05:21:46.953Z</time>
      </trkpt>
      <trkpt lat="38.16519" lon="-2.69401">
        <ele>1151.43423</ele>
        <time>2022-02-24T05:22:07.357Z</time>
      </trkpt>
      <trkpt lat="38.16469" lon="-2.69342">
        <ele>1160.084144</ele>
        <time>2022-02-24T05:23:07.530Z</time>
      </trkpt>
      <trkpt lat="38.16438" lon="-2.69278">
        <ele>1165.65891</ele>
        <time>2022-02-24T05:23:49.854Z</time>
      </trkpt>
      <trkpt lat="38.16432" lon="-2.69254">
        <ele>1167.439411</ele>
        <time>2022-02-24T05:24:03.373Z</time>
      </trkpt>
      <trkpt lat="38.1644" lon="-2.69215">
        <ele>1170.200394</ele>
        <time>2022-02-24T05:24:22.156Z</time>
      </trkpt>
      <trkpt lat="38.16495" lon="-2.69159">
        <ele>1176.455835</ele>
        <time>2022-02-24T05:25:03.565Z</time>
      </trkpt>
      <trkpt lat="38.16558" lon="-2.69017">
        <ele>1189.196331</ele>
        <time>2022-02-24T05:26:29.946Z</time>
      </trkpt>
      <trkpt lat="38.16749" lon="-2.68763">
        <ele>1219.753522</ele>
        <time>2022-02-24T05:30:22.059Z</time>
      </trkpt>
      <trkpt lat="38.16758" lon="-2.68742">
        <ele>1221.160135</ele>
        <time>2022-02-24T05:30:34.368Z</time>
      </trkpt>
      <trkpt lat="38.16757" lon="-2.6872">
        <ele>1222.454837</ele>
        <time>2022-02-24T05:30:45.785Z</time>
      </trkpt>
      <trkpt lat="38.16744" lon="-2.68704">
        <ele>1223.780714</ele>
        <time>2022-02-24T05:30:56.507Z</time>
      </trkpt>
      <trkpt lat="38.16733" lon="-2.68702">
        <ele>1224.593037</ele>
        <time>2022-02-24T05:31:03.119Z</time>
      </trkpt>
      <trkpt lat="38.16713" lon="-2.68711">
        <ele>1226.199354</ele>
        <time>2022-02-24T05:31:15.105Z</time>
      </trkpt>
      <trkpt lat="38.16687" lon="-2.68748">
        <ele>1229.031549</ele>
        <time>2022-02-24T05:31:34.294Z</time>
      </trkpt>
      <trkpt lat="38.1663" lon="-2.68784">
        <ele>1230.146689</ele>
        <time>2022-02-24T05:31:57.699Z</time>
      </trkpt>
      <trkpt lat="38.16554" lon="-2.68846">
        <ele>1229.395625</ele>
        <time>2022-02-24T05:32:14.967Z</time>
      </trkpt>
      <trkpt lat="38.16545" lon="-2.68863">
        <ele>1229.259541</ele>
        <time>2022-02-24T05:32:18.140Z</time>
      </trkpt>
      <trkpt lat="38.16527" lon="-2.68873">
        <ele>1229.097805</ele>
        <time>2022-02-24T05:32:21.245Z</time>
      </trkpt>
      <trkpt lat="38.16423" lon="-2.68969">
        <ele>1223.5692</ele>
        <time>2022-02-24T05:32:41.388Z</time>
      </trkpt>
      <trkpt lat="38.16404" lon="-2.68993">
        <ele>1222.320143</ele>
        <time>2022-02-24T05:32:45.555Z</time>
      </trkpt>
      <trkpt lat="38.16386" lon="-2.68999">
        <ele>1221.46069</ele>
        <time>2022-02-24T05:32:48.469Z</time>
      </trkpt>
      <trkpt lat="38.16373" lon="-2.68993">
        <ele>1220.833747</ele>
        <time>2022-02-24T05:32:50.857Z</time>
      </trkpt>
      <trkpt lat="38.16368" lon="-2.68975">
        <ele>1221.09433</ele>
        <time>2022-02-24T05:32:53.379Z</time>
      </trkpt>
      <trkpt lat="38.16371" lon="-2.68945">
        <ele>1221.78965</ele>
        <time>2022-02-24T05:32:57.708Z</time>
      </trkpt>
      <trkpt lat="38.16368" lon="-2.6893">
        <ele>1222.143249</ele>
        <time>2022-02-24T05:33:00.049Z</time>
      </trkpt>
      <trkpt lat="38.16341" lon="-2.6889">
        <ele>1223.324923</ele>
        <time>2022-02-24T05:33:10.513Z</time>
      </trkpt>
      <trkpt lat="38.16314" lon="-2.68778">
        <ele>1226.110025</ele>
        <time>2022-02-24T05:34:04.444Z</time>
      </trkpt>
      <trkpt lat="38.1629" lon="-2.68727">
        <ele>1229.927456</ele>
        <time>2022-02-24T05:34:34.578Z</time>
      </trkpt>
      <trkpt lat="38.16272" lon="-2.68691">
        <ele>1232.641827</ele>
        <time>2022-02-24T05:34:56.480Z</time>
      </trkpt>
      <trkpt lat="38.16251" lon="-2.68688">
        <ele>1234.399082</ele>
        <time>2022-02-24T05:35:11.910Z</time>
      </trkpt>
      <trkpt lat="38.1623" lon="-2.68703">
        <ele>1236.423852</ele>
        <time>2022-02-24T05:35:27.377Z</time>
      </trkpt>
      <trkpt lat="38.16169" lon="-2.68712">
        <ele>1241.140117</ele>
        <time>2022-02-24T05:36:06.008Z</time>
      </trkpt>
      <trkpt lat="38.16115" lon="-2.68831">
        <ele>1247.108023</ele>
        <time>2022-02-24T05:37:02.568Z</time>
      </trkpt>
      <trkpt lat="38.16106" lon="-2.68871">
        <ele>1248.945816</ele>
        <time>2022-02-24T05:37:16.107Z</time>
      </trkpt>
      <trkpt lat="38.16092" lon="-2.6889">
        <ele>1250.065662</ele>
        <time>2022-02-24T05:37:24.284Z</time>
      </trkpt>
      <trkpt lat="38.16082" lon="-2.68895">
        <ele>1250.624305</ele>
        <time>2022-02-24T05:37:28.756Z</time>
      </trkpt>
      <trkpt lat="38.16048" lon="-2.68893">
        <ele>1252.020677</ele>
        <time>2022-02-24T05:37:42.419Z</time>
      </trkpt>
      <trkpt lat="38.16026" lon="-2.68883">
        <ele>1253.013246</ele>
        <time>2022-02-24T05:37:52.073Z</time>
      </trkpt>
      <trkpt lat="38.15975" lon="-2.68843">
        <ele>1255.467179</ele>
        <time>2022-02-24T05:38:16.546Z</time>
      </trkpt>
      <trkpt lat="38.15957" lon="-2.68836">
        <ele>1256.236149</ele>
        <time>2022-02-24T05:38:24.233Z</time>
      </trkpt>
      <trkpt lat="38.15941" lon="-2.68842">
        <ele>1256.92988</ele>
        <time>2022-02-24T05:38:31.082Z</time>
      </trkpt>
      <trkpt lat="38.15912" lon="-2.6887">
        <ele>1258.980327</ele>
        <time>2022-02-24T05:38:47.545Z</time>
      </trkpt>
      <trkpt lat="38.15849" lon="-2.68879">
        <ele>1264.854358</ele>
        <time>2022-02-24T05:39:22.948Z</time>
      </trkpt>
      <trkpt lat="38.1581" lon="-2.689">
        <ele>1268.686745</ele>
        <time>2022-02-24T05:39:56.851Z</time>
      </trkpt>
      <trkpt lat="38.15792" lon="-2.68894">
        <ele>1270.382694</ele>
        <time>2022-02-24T05:40:11.918Z</time>
      </trkpt>
      <trkpt lat="38.15739" lon="-2.68814">
        <ele>1278.255179</ele>
        <time>2022-02-24T05:41:18.710Z</time>
      </trkpt>
      <trkpt lat="38.15735" lon="-2.68807">
        <ele>1278.915526</ele>
        <time>2022-02-24T05:41:23.334Z</time>
      </trkpt>
      <trkpt lat="38.15722" lon="-2.68768">
        <ele>1282.251774</ele>
        <time>2022-02-24T05:41:48.841Z</time>
      </trkpt>
      <trkpt lat="38.15707" lon="-2.68759">
        <ele>1283.870938</ele>
        <time>2022-02-24T05:42:00.386Z</time>
      </trkpt>
      <trkpt lat="38.15692" lon="-2.68765">
        <ele>1285.513833</ele>
        <time>2022-02-24T05:42:13.757Z</time>
      </trkpt>
      <trkpt lat="38.15661" lon="-2.68845">
        <ele>1292.506291</ele>
        <time>2022-02-24T05:43:02.959Z</time>
      </trkpt>
      <trkpt lat="38.15659" lon="-2.68858">
        <ele>1292.897464</ele>
        <time>2022-02-24T05:43:08.682Z</time>
      </trkpt>
      <trkpt lat="38.1567" lon="-2.68909">
        <ele>1294.484849</ele>
        <time>2022-02-24T05:43:30.057Z</time>
      </trkpt>
      <trkpt lat="38.15665" lon="-2.69089">
        <ele>1299.66766</ele>
        <time>2022-02-24T05:44:16.366Z</time>
      </trkpt>
      <trkpt lat="38.15675" lon="-2.69159">
        <ele>1300.967206</ele>
        <time>2022-02-24T05:44:35.605Z</time>
      </trkpt>
      <trkpt lat="38.15673" lon="-2.69171">
        <ele>1301.193167</ele>
        <time>2022-02-24T05:44:39.063Z</time>
      </trkpt>
      <trkpt lat="38.1566" lon="-2.6919">
        <ele>1301.651933</ele>
        <time>2022-02-24T05:44:45.675Z</time>
      </trkpt>
      <trkpt lat="38.15637" lon="-2.69217">
        <ele>1302.392223</ele>
        <time>2022-02-24T05:44:56.540Z</time>
      </trkpt>
      <trkpt lat="38.15616" lon="-2.69229">
        <ele>1302.917774</ele>
        <time>2022-02-24T05:45:04.368Z</time>
      </trkpt>
      <trkpt lat="38.15557" lon="-2.69238">
        <ele>1305.285074</ele>
        <time>2022-02-24T05:45:23.274Z</time>
      </trkpt>
      <trkpt lat="38.15536" lon="-2.69225">
        <ele>1306.496566</ele>
        <time>2022-02-24T05:45:30.849Z</time>
      </trkpt>
      <trkpt lat="38.15522" lon="-2.69201">
        <ele>1307.763989</ele>
        <time>2022-02-24T05:45:41.793Z</time>
      </trkpt>
      <trkpt lat="38.15513" lon="-2.69172">
        <ele>1309.050051</ele>
        <time>2022-02-24T05:45:54.593Z</time>
      </trkpt>
      <trkpt lat="38.15508" lon="-2.69142">
        <ele>1310.3515</ele>
        <time>2022-02-24T05:46:07.873Z</time>
      </trkpt>
      <trkpt lat="38.15509" lon="-2.69103">
        <ele>1311.992813</ele>
        <time>2022-02-24T05:46:26.916Z</time>
      </trkpt>
      <trkpt lat="38.15501" lon="-2.69084">
        <ele>1312.887387</ele>
        <time>2022-02-24T05:46:38.137Z</time>
      </trkpt>
      <trkpt lat="38.15486" lon="-2.69062">
        <ele>1314.413188</ele>
        <time>2022-02-24T05:46:52.886Z</time>
      </trkpt>
      <trkpt lat="38.15446" lon="-2.69029">
        <ele>1317.63292</ele>
        <time>2022-02-24T05:47:23.444Z</time>
      </trkpt>
      <trkpt lat="38.15388" lon="-2.68925">
        <ele>1324.499126</ele>
        <time>2022-02-24T05:48:19.690Z</time>
      </trkpt>
      <trkpt lat="38.15357" lon="-2.6892">
        <ele>1325.77493</ele>
        <time>2022-02-24T05:48:35.219Z</time>
      </trkpt>
      <trkpt lat="38.15337" lon="-2.68933">
        <ele>1326.22649</ele>
        <time>2022-02-24T05:48:43.374Z</time>
      </trkpt>
      <trkpt lat="38.15313" lon="-2.68959">
        <ele>1326.864005</ele>
        <time>2022-02-24T05:48:52.099Z</time>
      </trkpt>
      <trkpt lat="38.15254" lon="-2.68968">
        <ele>1328.03721</ele>
        <time>2022-02-24T05:49:07.518Z</time>
      </trkpt>
      <trkpt lat="38.15168" lon="-2.68969">
        <ele>1331.702757</ele>
        <time>2022-02-24T05:49:29.252Z</time>
      </trkpt>
      <trkpt lat="38.15149" lon="-2.68961">
        <ele>1333.147085</ele>
        <time>2022-02-24T05:49:35.528Z</time>
      </trkpt>
      <trkpt lat="38.15142" lon="-2.68952">
        <ele>1333.819675</ele>
        <time>2022-02-24T05:49:39.789Z</time>
      </trkpt>
      <trkpt lat="38.15128" lon="-2.68909">
        <ele>1336.480828</ele>
        <time>2022-02-24T05:49:57.621Z</time>
      </trkpt>
      <trkpt lat="38.15113" lon="-2.68895">
        <ele>1337.796091</ele>
        <time>2022-02-24T05:50:07.424Z</time>
      </trkpt>
      <trkpt lat="38.15069" lon="-2.6887">
        <ele>1341.221593</ele>
        <time>2022-02-24T05:50:50.089Z</time>
      </trkpt>
      <trkpt lat="38.15059" lon="-2.68852">
        <ele>1343.289142</ele>
        <time>2022-02-24T05:51:08.912Z</time>
      </trkpt>
      <trkpt lat="38.15057" lon="-2.6883">
        <ele>1346.206679</ele>
        <time>2022-02-24T05:51:27.170Z</time>
      </trkpt>
      <trkpt lat="38.15064" lon="-2.68809">
        <ele>1349.136152</ele>
        <time>2022-02-24T05:51:47.842Z</time>
      </trkpt>
      <trkpt lat="38.15094" lon="-2.68765">
        <ele>1356.927975</ele>
        <time>2022-02-24T05:52:40.225Z</time>
      </trkpt>
      <trkpt lat="38.15111" lon="-2.68717">
        <ele>1363.828387</ele>
        <time>2022-02-24T05:53:24.861Z</time>
      </trkpt>
      <trkpt lat="38.15115" lon="-2.68694">
        <ele>1366.956437</ele>
        <time>2022-02-24T05:53:45.729Z</time>
      </trkpt>
      <trkpt lat="38.1511" lon="-2.68649">
        <ele>1372.674849</ele>
        <time>2022-02-24T05:54:24.187Z</time>
      </trkpt>
      <trkpt lat="38.15115" lon="-2.68601">
        <ele>1377.199838</ele>
        <time>2022-02-24T05:55:01.530Z</time>
      </trkpt>
      <trkpt lat="38.15112" lon="-2.6859">
        <ele>1378.321064</ele>
        <time>2022-02-24T05:55:10.904Z</time>
      </trkpt>
      <trkpt lat="38.15098" lon="-2.68574">
        <ele>1380.545647</ele>
        <time>2022-02-24T05:55:30.108Z</time>
      </trkpt>
      <trkpt lat="38.15078" lon="-2.68572">
        <ele>1382.8452</ele>
        <time>2022-02-24T05:55:48.258Z</time>
      </trkpt>
      <trkpt lat="38.14993" lon="-2.68625">
        <ele>1393.862335</ele>
        <time>2022-02-24T05:56:48.774Z</time>
      </trkpt>
      <trkpt lat="38.14966" lon="-2.68623">
        <ele>1395.979426</ele>
        <time>2022-02-24T05:57:03.959Z</time>
      </trkpt>
      <trkpt lat="38.14948" lon="-2.68612">
        <ele>1397.608592</ele>
        <time>2022-02-24T05:57:14.013Z</time>
      </trkpt>
      <trkpt lat="38.14936" lon="-2.68591">
        <ele>1399.246168</ele>
        <time>2022-02-24T05:57:26.508Z</time>
      </trkpt>
      <trkpt lat="38.14925" lon="-2.68525">
        <ele>1403.419872</ele>
        <time>2022-02-24T05:58:00.453Z</time>
      </trkpt>
      <trkpt lat="38.14918" lon="-2.68516">
        <ele>1404.244856</ele>
        <time>2022-02-24T05:58:07.845Z</time>
      </trkpt>
      <trkpt lat="38.14898" lon="-2.68507">
        <ele>1405.933825</ele>
        <time>2022-02-24T05:58:22.095Z</time>
      </trkpt>
      <trkpt lat="38.14845" lon="-2.68524">
        <ele>1410.11005</ele>
        <time>2022-02-24T05:58:56.511Z</time>
      </trkpt>
      <trkpt lat="38.14836" lon="-2.68522">
        <ele>1410.854545</ele>
        <time>2022-02-24T05:59:02.146Z</time>
      </trkpt>
      <trkpt lat="38.14772" lon="-2.68475">
        <ele>1416.430768</ele>
        <time>2022-02-24T05:59:42.363Z</time>
      </trkpt>
      <trkpt lat="38.14762" lon="-2.68474">
        <ele>1417.201217</ele>
        <time>2022-02-24T05:59:48.085Z</time>
      </trkpt>
      <trkpt lat="38.14732" lon="-2.68496">
        <ele>1419.772345</ele>
        <time>2022-02-24T06:00:09.142Z</time>
      </trkpt>
      <trkpt lat="38.14653" lon="-2.68522">
        <ele>1426.445339</ele>
        <time>2022-02-24T06:01:02.924Z</time>
      </trkpt>
      <trkpt lat="38.14544" lon="-2.68503">
        <ele>1435.702471</ele>
        <time>2022-02-24T06:02:13.630Z</time>
      </trkpt>
      <trkpt lat="38.14483" lon="-2.68479">
        <ele>1439.896374</ele>
        <time>2022-02-24T06:02:54.125Z</time>
      </trkpt>
      <trkpt lat="38.14456" lon="-2.68476">
        <ele>1441.646511</ele>
        <time>2022-02-24T06:03:10.635Z</time>
      </trkpt>
      <trkpt lat="38.14416" lon="-2.68501">
        <ele>1444.532617</ele>
        <time>2022-02-24T06:03:36.232Z</time>
      </trkpt>
      <trkpt lat="38.14305" lon="-2.68532">
        <ele>1449.099535</ele>
        <time>2022-02-24T06:04:22.075Z</time>
      </trkpt>
      <trkpt lat="38.14263" lon="-2.68535">
        <ele>1449.901966</ele>
        <time>2022-02-24T06:04:35.293Z</time>
      </trkpt>
      <trkpt lat="38.14243" lon="-2.68559">
        <ele>1450.431003</ele>
        <time>2022-02-24T06:04:43.354Z</time>
      </trkpt>
      <trkpt lat="38.14167" lon="-2.68624">
        <ele>1450.436108</ele>
        <time>2022-02-24T06:05:04.046Z</time>
      </trkpt>
      <trkpt lat="38.14134" lon="-2.68639">
        <ele>1449.684027</ele>
        <time>2022-02-24T06:05:10.934Z</time>
      </trkpt>
      <trkpt lat="38.14018" lon="-2.68666">
        <ele>1446.774515</ele>
        <time>2022-02-24T06:05:30.785Z</time>
      </trkpt>
      <trkpt lat="38.13993" lon="-2.68671">
        <ele>1445.68015</ele>
        <time>2022-02-24T06:05:35.008Z</time>
      </trkpt>
      <trkpt lat="38.13969" lon="-2.68664">
        <ele>1444.595877</ele>
        <time>2022-02-24T06:05:38.908Z</time>
      </trkpt>
      <trkpt lat="38.13958" lon="-2.68646">
        <ele>1443.808969</ele>
        <time>2022-02-24T06:05:41.866Z</time>
      </trkpt>
      <trkpt lat="38.13946" lon="-2.68583">
        <ele>1441.584725</ele>
        <time>2022-02-24T06:05:50.191Z</time>
      </trkpt>
      <trkpt lat="38.13902" lon="-2.68547">
        <ele>1439.212169</ele>
        <time>2022-02-24T06:05:58.673Z</time>
      </trkpt>
      <trkpt lat="38.13861" lon="-2.68522">
        <ele>1436.72834</ele>
        <time>2022-02-24T06:06:05.530Z</time>
      </trkpt>
      <trkpt lat="38.13823" lon="-2.68516">
        <ele>1434.592576</ele>
        <time>2022-02-24T06:06:11.475Z</time>
      </trkpt>
      <trkpt lat="38.1359" lon="-2.68572">
        <ele>1423.607101</ele>
        <time>2022-02-24T06:06:48.434Z</time>
      </trkpt>
      <trkpt lat="38.13381" lon="-2.68651">
        <ele>1425.115641</ele>
        <time>2022-02-24T06:07:52.366Z</time>
      </trkpt>
      <trkpt lat="38.133" lon="-2.68689">
        <ele>1427.918737</ele>
        <time>2022-02-24T06:08:32.688Z</time>
      </trkpt>
      <trkpt lat="38.13215" lon="-2.68737">
        <ele>1430.738434</ele>
        <time>2022-02-24T06:09:10.571Z</time>
      </trkpt>
      <trkpt lat="38.12964" lon="-2.68868">
        <ele>1426.532073</ele>
        <time>2022-02-24T06:10:02.308Z</time>
      </trkpt>
      <trkpt lat="38.12782" lon="-2.69001">
        <ele>1418.131139</ele>
        <time>2022-02-24T06:10:35.929Z</time>
      </trkpt>
      <trkpt lat="38.1273" lon="-2.69029">
        <ele>1415.54686</ele>
        <time>2022-02-24T06:10:45.046Z</time>
      </trkpt>
      <trkpt lat="38.12727" lon="-2.69044">
        <ele>1415.067323</ele>
        <time>2022-02-24T06:10:46.981Z</time>
      </trkpt>
      <trkpt lat="38.1269" lon="-2.69066">
        <ele>1413.38057</ele>
        <time>2022-02-24T06:10:54.072Z</time>
      </trkpt>
      <trkpt lat="38.12633" lon="-2.69111">
        <ele>1410.651166</ele>
        <time>2022-02-24T06:11:05.616Z</time>
      </trkpt>
      <trkpt lat="38.12611" lon="-2.69116">
        <ele>1409.717956</ele>
        <time>2022-02-24T06:11:09.645Z</time>
      </trkpt>
      <trkpt lat="38.125" lon="-2.69124">
        <ele>1405.785973</ele>
        <time>2022-02-24T06:11:42.747Z</time>
      </trkpt>
      <trkpt lat="38.12305" lon="-2.69066">
        <ele>1400.218872</ele>
        <time>2022-02-24T06:12:45.295Z</time>
      </trkpt>
      <trkpt lat="38.12266" lon="-2.69063">
        <ele>1399.362755</ele>
        <time>2022-02-24T06:12:58.060Z</time>
      </trkpt>
      <trkpt lat="38.12184" lon="-2.69038">
        <ele>1398.031645</ele>
        <time>2022-02-24T06:13:26.686Z</time>
      </trkpt>
      <trkpt lat="38.12089" lon="-2.69023">
        <ele>1397.161891</ele>
        <time>2022-02-24T06:13:59.997Z</time>
      </trkpt>
      <trkpt lat="38.11974" lon="-2.69019">
        <ele>1396.829096</ele>
        <time>2022-02-24T06:14:40.733Z</time>
      </trkpt>
      <trkpt lat="38.11947" lon="-2.69028">
        <ele>1396.853158</ele>
        <time>2022-02-24T06:14:50.931Z</time>
      </trkpt>
      <trkpt lat="38.11934" lon="-2.69027">
        <ele>1396.863602</ele>
        <time>2022-02-24T06:14:55.532Z</time>
      </trkpt>
      <trkpt lat="38.11904" lon="-2.69034">
        <ele>1396.890143</ele>
        <time>2022-02-24T06:15:07.846Z</time>
      </trkpt>
      <trkpt lat="38.11878" lon="-2.69047">
        <ele>1396.914006</ele>
        <time>2022-02-24T06:15:19.220Z</time>
      </trkpt>
      <trkpt lat="38.11868" lon="-2.69054">
        <ele>1396.9771</ele>
        <time>2022-02-24T06:15:24.163Z</time>
      </trkpt>
      <trkpt lat="38.11852" lon="-2.69081">
        <ele>1397.501807</ele>
        <time>2022-02-24T06:15:36.065Z</time>
      </trkpt>
      <trkpt lat="38.1184" lon="-2.69085">
        <ele>1397.74029</ele>
        <time>2022-02-24T06:15:41.599Z</time>
      </trkpt>
      <trkpt lat="38.11762" lon="-2.69073">
        <ele>1399.28805</ele>
        <time>2022-02-24T06:16:20.868Z</time>
      </trkpt>
      <trkpt lat="38.11684" lon="-2.69119">
        <ele>1400.316787</ele>
        <time>2022-02-24T06:17:02.015Z</time>
      </trkpt>
      <trkpt lat="38.11667" lon="-2.69121">
        <ele>1400.238366</ele>
        <time>2022-02-24T06:17:09.138Z</time>
      </trkpt>
      <trkpt lat="38.11653" lon="-2.69114">
        <ele>1400.166603</ele>
        <time>2022-02-24T06:17:15.444Z</time>
      </trkpt>
      <trkpt lat="38.11637" lon="-2.69102">
        <ele>1400.077639</ele>
        <time>2022-02-24T06:17:22.706Z</time>
      </trkpt>
      <trkpt lat="38.11615" lon="-2.6907">
        <ele>1399.92248</ele>
        <time>2022-02-24T06:17:34.498Z</time>
      </trkpt>
      <trkpt lat="38.11593" lon="-2.69051">
        <ele>1399.792874</ele>
        <time>2022-02-24T06:17:43.804Z</time>
      </trkpt>
      <trkpt lat="38.11579" lon="-2.69025">
        <ele>1399.673786</ele>
        <time>2022-02-24T06:17:52.051Z</time>
      </trkpt>
      <trkpt lat="38.11575" lon="-2.6901">
        <ele>1399.617302</ele>
        <time>2022-02-24T06:17:55.829Z</time>
      </trkpt>
      <trkpt lat="38.11574" lon="-2.68949">
        <ele>1397.426072</ele>
        <time>2022-02-24T06:18:10.209Z</time>
      </trkpt>
      <trkpt lat="38.11584" lon="-2.68865">
        <ele>1394.041198</ele>
        <time>2022-02-24T06:18:28.733Z</time>
      </trkpt>
      <trkpt lat="38.11555" lon="-2.68823">
        <ele>1391.82377</ele>
        <time>2022-02-24T06:18:40.852Z</time>
      </trkpt>
      <trkpt lat="38.11533" lon="-2.68765">
        <ele>1389.866062</ele>
        <time>2022-02-24T06:18:55.395Z</time>
      </trkpt>
      <trkpt lat="38.11515" lon="-2.68739">
        <ele>1389.162005</ele>
        <time>2022-02-24T06:19:03.615Z</time>
      </trkpt>
      <trkpt lat="38.11469" lon="-2.68727">
        <ele>1387.962125</ele>
        <time>2022-02-24T06:19:18.172Z</time>
      </trkpt>
      <trkpt lat="38.11453" lon="-2.68715">
        <ele>1387.474697</ele>
        <time>2022-02-24T06:19:24.210Z</time>
      </trkpt>
      <trkpt lat="38.11442" lon="-2.68741">
        <ele>1386.874552</ele>
        <time>2022-02-24T06:19:28.657Z</time>
      </trkpt>
      <trkpt lat="38.11408" lon="-2.68798">
        <ele>1386.047659</ele>
        <time>2022-02-24T06:19:48.823Z</time>
      </trkpt>
      <trkpt lat="38.11365" lon="-2.68829">
        <ele>1386.59457</ele>
        <time>2022-02-24T06:20:11.797Z</time>
      </trkpt>
      <trkpt lat="38.11352" lon="-2.68829">
        <ele>1386.745555</ele>
        <time>2022-02-24T06:20:18.105Z</time>
      </trkpt>
      <trkpt lat="38.11325" lon="-2.68844">
        <ele>1387.063214</ele>
        <time>2022-02-24T06:20:32.282Z</time>
      </trkpt>
      <trkpt lat="38.11307" lon="-2.68859">
        <ele>1387.303907</ele>
        <time>2022-02-24T06:20:42.369Z</time>
      </trkpt>
      <trkpt lat="38.11292" lon="-2.68892">
        <ele>1387.633322</ele>
        <time>2022-02-24T06:20:55.363Z</time>
      </trkpt>
      <trkpt lat="38.11228" lon="-2.68977">
        <ele>1387.604265</ele>
        <time>2022-02-24T06:21:30.950Z</time>
      </trkpt>
      <trkpt lat="38.11205" lon="-2.69023">
        <ele>1387.455867</ele>
        <time>2022-02-24T06:21:46.094Z</time>
      </trkpt>
      <trkpt lat="38.11157" lon="-2.69078">
        <ele>1387.232592</ele>
        <time>2022-02-24T06:22:08.090Z</time>
      </trkpt>
      <trkpt lat="38.11128" lon="-2.69092">
        <ele>1386.889686</ele>
        <time>2022-02-24T06:22:18.691Z</time>
      </trkpt>
      <trkpt lat="38.11093" lon="-2.69136">
        <ele>1386.351758</ele>
        <time>2022-02-24T06:22:35.326Z</time>
      </trkpt>
      <trkpt lat="38.11065" lon="-2.69161">
        <ele>1385.971717</ele>
        <time>2022-02-24T06:22:47.106Z</time>
      </trkpt>
      <trkpt lat="38.11047" lon="-2.69193">
        <ele>1385.63539</ele>
        <time>2022-02-24T06:22:57.676Z</time>
      </trkpt>
      <trkpt lat="38.10989" lon="-2.6922">
        <ele>1385.140064</ele>
        <time>2022-02-24T06:23:19.300Z</time>
      </trkpt>
      <trkpt lat="38.10971" lon="-2.69244">
        <ele>1385.023231</ele>
        <time>2022-02-24T06:23:28.635Z</time>
      </trkpt>
      <trkpt lat="38.10901" lon="-2.69313">
        <ele>1384.632439</ele>
        <time>2022-02-24T06:24:00.527Z</time>
      </trkpt>
      <trkpt lat="38.1087" lon="-2.6935">
        <ele>1384.489953</ele>
        <time>2022-02-24T06:24:15.979Z</time>
      </trkpt>
      <trkpt lat="38.10842" lon="-2.69363">
        <ele>1384.624967</ele>
        <time>2022-02-24T06:24:27.048Z</time>
      </trkpt>
      <trkpt lat="38.10825" lon="-2.69434">
        <ele>1384.885979</ele>
        <time>2022-02-24T06:24:48.767Z</time>
      </trkpt>
      <trkpt lat="38.10813" lon="-2.69452">
        <ele>1384.969042</ele>
        <time>2022-02-24T06:24:56.233Z</time>
      </trkpt>
      <trkpt lat="38.10787" lon="-2.69474">
        <ele>1385.109023</ele>
        <time>2022-02-24T06:25:08.916Z</time>
      </trkpt>
      <trkpt lat="38.10745" lon="-2.69495">
        <ele>1385.635774</ele>
        <time>2022-02-24T06:25:27.869Z</time>
      </trkpt>
      <trkpt lat="38.10731" lon="-2.69497">
        <ele>1386.184276</ele>
        <time>2022-02-24T06:25:33.873Z</time>
      </trkpt>
      <trkpt lat="38.10709" lon="-2.69487">
        <ele>1387.06568</ele>
        <time>2022-02-24T06:25:44.145Z</time>
      </trkpt>
      <trkpt lat="38.10667" lon="-2.69457">
        <ele>1388.959382</ele>
        <time>2022-02-24T06:26:10.766Z</time>
      </trkpt>
      <trkpt lat="38.1064" lon="-2.69416">
        <ele>1390.588468</ele>
        <time>2022-02-24T06:26:35.745Z</time>
      </trkpt>
      <trkpt lat="38.10625" lon="-2.69422">
        <ele>1391.200083</ele>
        <time>2022-02-24T06:26:46.008Z</time>
      </trkpt>
      <trkpt lat="38.10601" lon="-2.69448">
        <ele>1392.481148</ele>
        <time>2022-02-24T06:27:07.564Z</time>
      </trkpt>
      <trkpt lat="38.10568" lon="-2.6947">
        <ele>1394.967962</ele>
        <time>2022-02-24T06:27:35.292Z</time>
      </trkpt>
      <trkpt lat="38.10558" lon="-2.69472">
        <ele>1395.614189</ele>
        <time>2022-02-24T06:27:43.441Z</time>
      </trkpt>
      <trkpt lat="38.1054" lon="-2.69461">
        <ele>1396.928042</ele>
        <time>2022-02-24T06:27:56.902Z</time>
      </trkpt>
      <trkpt lat="38.10533" lon="-2.69431">
        <ele>1398.500545</ele>
        <time>2022-02-24T06:28:14.909Z</time>
      </trkpt>
      <trkpt lat="38.10507" lon="-2.69437">
        <ele>1400.208723</ele>
        <time>2022-02-24T06:28:33.095Z</time>
      </trkpt>
      <trkpt lat="38.10501" lon="-2.69447">
        <ele>1400.858838</ele>
        <time>2022-02-24T06:28:40.032Z</time>
      </trkpt>
      <trkpt lat="38.10488" lon="-2.695">
        <ele>1403.700143</ele>
        <time>2022-02-24T06:29:10.452Z</time>
      </trkpt>
      <trkpt lat="38.10464" lon="-2.69523">
        <ele>1404.763536</ele>
        <time>2022-02-24T06:29:30.726Z</time>
      </trkpt>
      <trkpt lat="38.10441" lon="-2.69534">
        <ele>1405.520624</ele>
        <time>2022-02-24T06:29:44.793Z</time>
      </trkpt>
      <trkpt lat="38.10407" lon="-2.69568">
        <ele>1406.832391</ele>
        <time>2022-02-24T06:30:09.710Z</time>
      </trkpt>
      <trkpt lat="38.10389" lon="-2.696">
        <ele>1407.765969</ele>
        <time>2022-02-24T06:30:24.164Z</time>
      </trkpt>
      <trkpt lat="38.10345" lon="-2.69632">
        <ele>1409.312648</ele>
        <time>2022-02-24T06:30:45.582Z</time>
      </trkpt>
      <trkpt lat="38.10324" lon="-2.69633">
        <ele>1409.202996</ele>
        <time>2022-02-24T06:30:54.034Z</time>
      </trkpt>
      <trkpt lat="38.10237" lon="-2.69683">
        <ele>1407.605535</ele>
        <time>2022-02-24T06:31:27.142Z</time>
      </trkpt>
      <trkpt lat="38.10202" lon="-2.69658">
        <ele>1406.946419</ele>
        <time>2022-02-24T06:31:39.135Z</time>
      </trkpt>
      <trkpt lat="38.10173" lon="-2.69654">
        <ele>1406.435471</ele>
        <time>2022-02-24T06:31:48.008Z</time>
      </trkpt>
      <trkpt lat="38.10166" lon="-2.69647">
        <ele>1406.082741</ele>
        <time>2022-02-24T06:31:50.791Z</time>
      </trkpt>
      <trkpt lat="38.10158" lon="-2.69636">
        <ele>1405.653912</ele>
        <time>2022-02-24T06:31:54.236Z</time>
      </trkpt>
      <trkpt lat="38.10155" lon="-2.69586">
        <ele>1404.146194</ele>
        <time>2022-02-24T06:32:05.960Z</time>
      </trkpt>
      <trkpt lat="38.10153" lon="-2.69578">
        <ele>1403.889291</ele>
        <time>2022-02-24T06:32:07.016Z</time>
      </trkpt>
      <trkpt lat="38.10131" lon="-2.6957">
        <ele>1402.993493</ele>
        <time>2022-02-24T06:32:10.909Z</time>
      </trkpt>
      <trkpt lat="38.10109" lon="-2.69547">
        <ele>1401.893875</ele>
        <time>2022-02-24T06:32:15.554Z</time>
      </trkpt>
      <trkpt lat="38.10065" lon="-2.69583">
        <ele>1399.853124</ele>
        <time>2022-02-24T06:32:24.171Z</time>
      </trkpt>
      <trkpt lat="38.10024" lon="-2.69587">
        <ele>1399.121292</ele>
        <time>2022-02-24T06:32:30.956Z</time>
      </trkpt>
      <trkpt lat="38.0992" lon="-2.69635">
        <ele>1397.713295</ele>
        <time>2022-02-24T06:32:53.125Z</time>
      </trkpt>
      <trkpt lat="38.09779" lon="-2.69772">
        <ele>1398.603418</ele>
        <time>2022-02-24T06:33:37.874Z</time>
      </trkpt>
      <trkpt lat="38.09768" lon="-2.69778">
        <ele>1398.718438</ele>
        <time>2022-02-24T06:33:41.720Z</time>
      </trkpt>
      <trkpt lat="38.09717" lon="-2.69809">
        <ele>1400.135717</ele>
        <time>2022-02-24T06:34:00.121Z</time>
      </trkpt>
      <trkpt lat="38.0965" lon="-2.69837">
        <ele>1402.852625</ele>
        <time>2022-02-24T06:34:26.309Z</time>
      </trkpt>
      <trkpt lat="38.0952" lon="-2.69868">
        <ele>1408.664021</ele>
        <time>2022-02-24T06:35:32.002Z</time>
      </trkpt>
      <trkpt lat="38.09487" lon="-2.69872">
        <ele>1410.442249</ele>
        <time>2022-02-24T06:35:49.441Z</time>
      </trkpt>
      <trkpt lat="38.09454" lon="-2.6988">
        <ele>1412.214843</ele>
        <time>2022-02-24T06:36:06.258Z</time>
      </trkpt>
      <trkpt lat="38.09358" lon="-2.69926">
        <ele>1417.36974</ele>
        <time>2022-02-24T06:36:52.817Z</time>
      </trkpt>
      <trkpt lat="38.09349" lon="-2.69938">
        <ele>1417.998651</ele>
        <time>2022-02-24T06:36:58.095Z</time>
      </trkpt>
      <trkpt lat="38.09285" lon="-2.70061">
        <ele>1423.57661</ele>
        <time>2022-02-24T06:37:49.673Z</time>
      </trkpt>
      <trkpt lat="38.09267" lon="-2.70058">
        <ele>1424.601447</ele>
        <time>2022-02-24T06:37:58.786Z</time>
      </trkpt>
      <trkpt lat="38.09223" lon="-2.70034">
        <ele>1427.684752</ele>
        <time>2022-02-24T06:38:27.245Z</time>
      </trkpt>
      <trkpt lat="38.09201" lon="-2.70016">
        <ele>1429.363615</ele>
        <time>2022-02-24T06:38:40.114Z</time>
      </trkpt>
      <trkpt lat="38.09178" lon="-2.70007">
        <ele>1430.972631</ele>
        <time>2022-02-24T06:38:56.329Z</time>
      </trkpt>
      <trkpt lat="38.09141" lon="-2.69999">
        <ele>1433.38383</ele>
        <time>2022-02-24T06:39:16.426Z</time>
      </trkpt>
      <trkpt lat="38.09139" lon="-2.70005">
        <ele>1433.73355</ele>
        <time>2022-02-24T06:39:18.191Z</time>
      </trkpt>
      <trkpt lat="38.09176" lon="-2.70022">
        <ele>1436.210701</ele>
        <time>2022-02-24T06:39:45.106Z</time>
      </trkpt>
      <trkpt lat="38.09198" lon="-2.70045">
        <ele>1437.923499</ele>
        <time>2022-02-24T06:40:07.883Z</time>
      </trkpt>
      <trkpt lat="38.09217" lon="-2.70089">
        <ele>1440.325946</ele>
        <time>2022-02-24T06:40:35.201Z</time>
      </trkpt>
      <trkpt lat="38.09215" lon="-2.70108">
        <ele>1441.230956</ele>
        <time>2022-02-24T06:40:45.001Z</time>
      </trkpt>
      <trkpt lat="38.09201" lon="-2.70114">
        <ele>1442.143732</ele>
        <time>2022-02-24T06:40:55.146Z</time>
      </trkpt>
      <trkpt lat="38.09196" lon="-2.70111">
        <ele>1442.482127</ele>
        <time>2022-02-24T06:40:57.076Z</time>
      </trkpt>
      <trkpt lat="38.09185" lon="-2.70081">
        <ele>1444.056793</ele>
        <time>2022-02-24T06:41:12.113Z</time>
      </trkpt>
      <trkpt lat="38.09175" lon="-2.7007">
        <ele>1444.826911</ele>
        <time>2022-02-24T06:41:19.242Z</time>
      </trkpt>
      <trkpt lat="38.0916" lon="-2.70063">
        <ele>1445.795462</ele>
        <time>2022-02-24T06:41:30.487Z</time>
      </trkpt>
      <trkpt lat="38.09107" lon="-2.70048">
        <ele>1450.363607</ele>
        <time>2022-02-24T06:42:09.982Z</time>
      </trkpt>
      <trkpt lat="38.09085" lon="-2.70051">
        <ele>1452.353924</ele>
        <time>2022-02-24T06:42:28.984Z</time>
      </trkpt>
      <trkpt lat="38.09062" lon="-2.70063">
        <ele>1454.553594</ele>
        <time>2022-02-24T06:42:48.370Z</time>
      </trkpt>
      <trkpt lat="38.09028" lon="-2.70113">
        <ele>1459.269407</ele>
        <time>2022-02-24T06:43:33.816Z</time>
      </trkpt>
      <trkpt lat="38.09014" lon="-2.70167">
        <ele>1463.44777</ele>
        <time>2022-02-24T06:44:14.038Z</time>
      </trkpt>
      <trkpt lat="38.08955" lon="-2.70234">
        <ele>1472.297263</ele>
        <time>2022-02-24T06:45:29.917Z</time>
      </trkpt>
      <trkpt lat="38.08911" lon="-2.70235">
        <ele>1477.197013</ele>
        <time>2022-02-24T06:46:10.402Z</time>
      </trkpt>
      <trkpt lat="38.08834" lon="-2.70201">
        <ele>1486.183632</ele>
        <time>2022-02-24T06:47:26.366Z</time>
      </trkpt>
      <trkpt lat="38.08762" lon="-2.70116">
        <ele>1496.502954</ele>
        <time>2022-02-24T06:48:56.809Z</time>
      </trkpt>
      <trkpt lat="38.0865" lon="-2.70136">
        <ele>1507.195406</ele>
        <time>2022-02-24T06:50:31.474Z</time>
      </trkpt>
      <trkpt lat="38.08631" lon="-2.70153">
        <ele>1509.187713</ele>
        <time>2022-02-24T06:50:51.354Z</time>
      </trkpt>
      <trkpt lat="38.08603" lon="-2.70143">
        <ele>1511.712258</ele>
        <time>2022-02-24T06:51:13.065Z</time>
      </trkpt>
      <trkpt lat="38.08568" lon="-2.70102">
        <ele>1515.83378</ele>
        <time>2022-02-24T06:51:49.603Z</time>
      </trkpt>
      <trkpt lat="38.08554" lon="-2.70054">
        <ele>1519.006284</ele>
        <time>2022-02-24T06:52:21.472Z</time>
      </trkpt>
      <trkpt lat="38.08534" lon="-2.70014">
        <ele>1521.614134</ele>
        <time>2022-02-24T06:52:51.699Z</time>
      </trkpt>
      <trkpt lat="38.08456" lon="-2.69949">
        <ele>1528.100201</ele>
        <time>2022-02-24T06:53:55.871Z</time>
      </trkpt>
      <trkpt lat="38.0839" lon="-2.69944">
        <ele>1531.842871</ele>
        <time>2022-02-24T06:54:40.702Z</time>
      </trkpt>
      <trkpt lat="38.0837" lon="-2.69935">
        <ele>1532.825199</ele>
        <time>2022-02-24T06:54:53.639Z</time>
      </trkpt>
      <trkpt lat="38.08332" lon="-2.6988">
        <ele>1535.521373</ele>
        <time>2022-02-24T06:55:28.743Z</time>
      </trkpt>
      <trkpt lat="38.0831" lon="-2.69859">
        <ele>1536.81552</ele>
        <time>2022-02-24T06:55:44.457Z</time>
      </trkpt>
      <trkpt lat="38.08202" lon="-2.69837">
        <ele>1541.439114</ele>
        <time>2022-02-24T06:56:42.450Z</time>
      </trkpt>
      <trkpt lat="38.08128" lon="-2.69793">
        <ele>1544.744658</ele>
        <time>2022-02-24T06:57:29.543Z</time>
      </trkpt>
      <trkpt lat="38.08077" lon="-2.69699">
        <ele>1549.635158</ele>
        <time>2022-02-24T06:58:27.955Z</time>
      </trkpt>
      <trkpt lat="38.08029" lon="-2.69643">
        <ele>1553.460201</ele>
        <time>2022-02-24T06:59:12.631Z</time>
      </trkpt>
      <trkpt lat="38.07938" lon="-2.69561">
        <ele>1559.999335</ele>
        <time>2022-02-24T07:00:29.395Z</time>
      </trkpt>
      <trkpt lat="38.07925" lon="-2.69541">
        <ele>1561.137428</ele>
        <time>2022-02-24T07:00:42.514Z</time>
      </trkpt>
      <trkpt lat="38.07909" lon="-2.69459">
        <ele>1565.006271</ele>
        <time>2022-02-24T07:01:25.371Z</time>
      </trkpt>
      <trkpt lat="38.07882" lon="-2.69403">
        <ele>1567.936147</ele>
        <time>2022-02-24T07:01:58.441Z</time>
      </trkpt>
      <trkpt lat="38.07844" lon="-2.69377">
        <ele>1570.33536</ele>
        <time>2022-02-24T07:02:25.797Z</time>
      </trkpt>
      <trkpt lat="38.07727" lon="-2.69354">
        <ele>1577.008537</ele>
        <time>2022-02-24T07:03:44.325Z</time>
      </trkpt>
      <trkpt lat="38.07674" lon="-2.69318">
        <ele>1580.238957</ele>
        <time>2022-02-24T07:04:23.768Z</time>
      </trkpt>
      <trkpt lat="38.07635" lon="-2.69274">
        <ele>1583.032807</ele>
        <time>2022-02-24T07:04:57.610Z</time>
      </trkpt>
      <trkpt lat="38.07616" lon="-2.69242">
        <ele>1584.749576</ele>
        <time>2022-02-24T07:05:17.763Z</time>
      </trkpt>
      <trkpt lat="38.07594" lon="-2.69183">
        <ele>1587.259366</ele>
        <time>2022-02-24T07:05:48.747Z</time>
      </trkpt>
      <trkpt lat="38.0758" lon="-2.69164">
        <ele>1588.115709</ele>
        <time>2022-02-24T07:06:00.827Z</time>
      </trkpt>
      <trkpt lat="38.07549" lon="-2.69128">
        <ele>1589.865965</ele>
        <time>2022-02-24T07:06:25.224Z</time>
      </trkpt>
      <trkpt lat="38.07468" lon="-2.6908">
        <ele>1593.569855</ele>
        <time>2022-02-24T07:07:15.637Z</time>
      </trkpt>
      <trkpt lat="38.07458" lon="-2.69057">
        <ele>1594.333336</ele>
        <time>2022-02-24T07:07:27.507Z</time>
      </trkpt>
      <trkpt lat="38.0743" lon="-2.69016">
        <ele>1595.795427</ele>
        <time>2022-02-24T07:07:51.753Z</time>
      </trkpt>
      <trkpt lat="38.07392" lon="-2.68971">
        <ele>1597.576112</ele>
        <time>2022-02-24T07:08:19.888Z</time>
      </trkpt>
      <trkpt lat="38.07349" lon="-2.68924">
        <ele>1599.52603</ele>
        <time>2022-02-24T07:08:50.537Z</time>
      </trkpt>
      <trkpt lat="38.07275" lon="-2.68859">
        <ele>1600.664555</ele>
        <time>2022-02-24T07:09:35.008Z</time>
      </trkpt>
      <trkpt lat="38.07216" lon="-2.68793">
        <ele>1601.300344</ele>
        <time>2022-02-24T07:10:05.199Z</time>
      </trkpt>
      <trkpt lat="38.07196" lon="-2.68778">
        <ele>1601.483026</ele>
        <time>2022-02-24T07:10:12.965Z</time>
      </trkpt>
      <trkpt lat="38.0714" lon="-2.68681">
        <ele>1600.323771</ele>
        <time>2022-02-24T07:10:43.752Z</time>
      </trkpt>
      <trkpt lat="38.07049" lon="-2.68671">
        <ele>1599.167356</ele>
        <time>2022-02-24T07:11:14.019Z</time>
      </trkpt>
      <trkpt lat="38.06929" lon="-2.68586">
        <ele>1600.744776</ele>
        <time>2022-02-24T07:12:11.338Z</time>
      </trkpt>
      <trkpt lat="38.06818" lon="-2.6853">
        <ele>1603.308656</ele>
        <time>2022-02-24T07:13:14.179Z</time>
      </trkpt>
      <trkpt lat="38.06805" lon="-2.68513">
        <ele>1603.795946</ele>
        <time>2022-02-24T07:13:24.650Z</time>
      </trkpt>
      <trkpt lat="38.06778" lon="-2.68498">
        <ele>1604.580233</ele>
        <time>2022-02-24T07:13:39.877Z</time>
      </trkpt>
      <trkpt lat="38.06727" lon="-2.68447">
        <ele>1605.9794</ele>
        <time>2022-02-24T07:14:10.265Z</time>
      </trkpt>
      <trkpt lat="38.067" lon="-2.68464">
        <ele>1605.960431</ele>
        <time>2022-02-24T07:14:22.875Z</time>
      </trkpt>
      <trkpt lat="38.06693" lon="-2.68473">
        <ele>1605.954325</ele>
        <time>2022-02-24T07:14:28.695Z</time>
      </trkpt>
      <trkpt lat="38.06695" lon="-2.6849">
        <ele>1605.945751</ele>
        <time>2022-02-24T07:14:33.569Z</time>
      </trkpt>
      <trkpt lat="38.06717" lon="-2.68537">
        <ele>1605.918556</ele>
        <time>2022-02-24T07:14:48.999Z</time>
      </trkpt>
      <trkpt lat="38.06727" lon="-2.68575">
        <ele>1605.898857</ele>
        <time>2022-02-24T07:14:59.690Z</time>
      </trkpt>
      <trkpt lat="38.06726" lon="-2.68605">
        <ele>1605.883799</ele>
        <time>2022-02-24T07:15:08.126Z</time>
      </trkpt>
      <trkpt lat="38.06718" lon="-2.68633">
        <ele>1605.740103</ele>
        <time>2022-02-24T07:15:15.773Z</time>
      </trkpt>
      <trkpt lat="38.06685" lon="-2.68692">
        <ele>1604.681345</ele>
        <time>2022-02-24T07:15:34.272Z</time>
      </trkpt>
      <trkpt lat="38.06667" lon="-2.68715">
        <ele>1604.194454</ele>
        <time>2022-02-24T07:15:42.702Z</time>
      </trkpt>
      <trkpt lat="38.06593" lon="-2.68779">
        <ele>1602.524877</ele>
        <time>2022-02-24T07:16:11.666Z</time>
      </trkpt>
      <trkpt lat="38.06571" lon="-2.68805">
        <ele>1602.270388</ele>
        <time>2022-02-24T07:16:21.433Z</time>
      </trkpt>
      <trkpt lat="38.06562" lon="-2.68819">
        <ele>1602.149817</ele>
        <time>2022-02-24T07:16:26.235Z</time>
      </trkpt>
      <trkpt lat="38.06545" lon="-2.68876">
        <ele>1601.74964</ele>
        <time>2022-02-24T07:16:42.700Z</time>
      </trkpt>
      <trkpt lat="38.06529" lon="-2.68906">
        <ele>1601.509706</ele>
        <time>2022-02-24T07:16:52.853Z</time>
      </trkpt>
      <trkpt lat="38.06482" lon="-2.68938">
        <ele>1601.064674</ele>
        <time>2022-02-24T07:17:12.276Z</time>
      </trkpt>
      <trkpt lat="38.06448" lon="-2.68953">
        <ele>1601.191773</ele>
        <time>2022-02-24T07:17:25.679Z</time>
      </trkpt>
      <trkpt lat="38.06433" lon="-2.68957">
        <ele>1601.291255</ele>
        <time>2022-02-24T07:17:31.510Z</time>
      </trkpt>
      <trkpt lat="38.0639" lon="-2.68951">
        <ele>1601.569634</ele>
        <time>2022-02-24T07:17:48.535Z</time>
      </trkpt>
      <trkpt lat="38.06388" lon="-2.68995">
        <ele>1601.791218</ele>
        <time>2022-02-24T07:18:02.759Z</time>
      </trkpt>
      <trkpt lat="38.06372" lon="-2.69046">
        <ele>1602.073373</ele>
        <time>2022-02-24T07:18:21.297Z</time>
      </trkpt>
      <trkpt lat="38.06331" lon="-2.69071">
        <ele>1602.537059</ele>
        <time>2022-02-24T07:18:40.620Z</time>
      </trkpt>
      <trkpt lat="38.06302" lon="-2.6914">
        <ele>1603.285448</ele>
        <time>2022-02-24T07:19:06.989Z</time>
      </trkpt>
      <trkpt lat="38.06274" lon="-2.69165">
        <ele>1603.7042</ele>
        <time>2022-02-24T07:19:21.923Z</time>
      </trkpt>
      <trkpt lat="38.06231" lon="-2.69216">
        <ele>1604.415715</ele>
        <time>2022-02-24T07:19:47.732Z</time>
      </trkpt>
      <trkpt lat="38.06184" lon="-2.69246">
        <ele>1604.995546</ele>
        <time>2022-02-24T07:20:10.571Z</time>
      </trkpt>
      <trkpt lat="38.06157" lon="-2.6928">
        <ele>1605.422177</ele>
        <time>2022-02-24T07:20:26.987Z</time>
      </trkpt>
      <trkpt lat="38.06093" lon="-2.69307">
        <ele>1606.168934</ele>
        <time>2022-02-24T07:20:54.875Z</time>
      </trkpt>
      <trkpt lat="38.06055" lon="-2.69335">
        <ele>1606.677605</ele>
        <time>2022-02-24T07:21:13.514Z</time>
      </trkpt>
      <trkpt lat="38.05992" lon="-2.69406">
        <ele>1607.646035</ele>
        <time>2022-02-24T07:21:48.647Z</time>
      </trkpt>
      <trkpt lat="38.05918" lon="-2.69441">
        <ele>1608.639144</ele>
        <time>2022-02-24T07:22:23.255Z</time>
      </trkpt>
      <trkpt lat="38.05862" lon="-2.69486">
        <ele>1609.970481</ele>
        <time>2022-02-24T07:22:54.067Z</time>
      </trkpt>
      <trkpt lat="38.05841" lon="-2.69511">
        <ele>1610.550134</ele>
        <time>2022-02-24T07:23:07.840Z</time>
      </trkpt>
      <trkpt lat="38.05814" lon="-2.69526">
        <ele>1611.138781</ele>
        <time>2022-02-24T07:23:22.003Z</time>
      </trkpt>
      <trkpt lat="38.05724" lon="-2.69599">
        <ele>1613.814834</ele>
        <time>2022-02-24T07:24:13.725Z</time>
      </trkpt>
      <trkpt lat="38.05672" lon="-2.69618">
        <ele>1615.373887</ele>
        <time>2022-02-24T07:24:41.366Z</time>
      </trkpt>
      <trkpt lat="38.05648" lon="-2.69641">
        <ele>1616.240316</ele>
        <time>2022-02-24T07:24:57.109Z</time>
      </trkpt>
      <trkpt lat="38.0561" lon="-2.69648">
        <ele>1617.40939</ele>
        <time>2022-02-24T07:25:17.969Z</time>
      </trkpt>
      <trkpt lat="38.05491" lon="-2.69708">
        <ele>1622.693838</ele>
        <time>2022-02-24T07:26:31.267Z</time>
      </trkpt>
      <trkpt lat="38.05448" lon="-2.6972">
        <ele>1624.505714</ele>
        <time>2022-02-24T07:26:57.645Z</time>
      </trkpt>
      <trkpt lat="38.05397" lon="-2.69774">
        <ele>1628.609107</ele>
        <time>2022-02-24T07:27:37.920Z</time>
      </trkpt>
      <trkpt lat="38.05369" lon="-2.6979">
        <ele>1630.559762</ele>
        <time>2022-02-24T07:27:59.075Z</time>
      </trkpt>
      <trkpt lat="38.05346" lon="-2.6979">
        <ele>1632.023937</ele>
        <time>2022-02-24T07:28:16.158Z</time>
      </trkpt>
      <trkpt lat="38.05295" lon="-2.69746">
        <ele>1635.915116</ele>
        <time>2022-02-24T07:29:01.431Z</time>
      </trkpt>
      <trkpt lat="38.0527" lon="-2.69737">
        <ele>1638.507235</ele>
        <time>2022-02-24T07:29:21.610Z</time>
      </trkpt>
      <trkpt lat="38.05253" lon="-2.6972">
        <ele>1640.653001</ele>
        <time>2022-02-24T07:29:39.175Z</time>
      </trkpt>
      <trkpt lat="38.05216" lon="-2.69698">
        <ele>1644.705055</ele>
        <time>2022-02-24T07:30:12.865Z</time>
      </trkpt>
      <trkpt lat="38.05153" lon="-2.69686">
        <ele>1651.172264</ele>
        <time>2022-02-24T07:31:11.128Z</time>
      </trkpt>
      <trkpt lat="38.05067" lon="-2.6965">
        <ele>1661.663829</ele>
        <time>2022-02-24T07:32:41.666Z</time>
      </trkpt>
      <trkpt lat="38.05035" lon="-2.69653">
        <ele>1665.737204</ele>
        <time>2022-02-24T07:33:14.204Z</time>
      </trkpt>
      <trkpt lat="38.0499" lon="-2.69666">
        <ele>1671.397384</ele>
        <time>2022-02-24T07:34:00.015Z</time>
      </trkpt>
      <trkpt lat="38.04937" lon="-2.69697">
        <ele>1678.372801</ele>
        <time>2022-02-24T07:34:59.199Z</time>
      </trkpt>
      <trkpt lat="38.04898" lon="-2.69736">
        <ele>1683.588473</ele>
        <time>2022-02-24T07:35:46.898Z</time>
      </trkpt>
      <trkpt lat="38.04854" lon="-2.69753">
        <ele>1688.44354</ele>
        <time>2022-02-24T07:36:29.873Z</time>
      </trkpt>
      <trkpt lat="38.04763" lon="-2.69871">
        <ele>1699.379377</ele>
        <time>2022-02-24T07:38:12.657Z</time>
      </trkpt>
      <trkpt lat="38.04725" lon="-2.69893">
        <ele>1701.998602</ele>
        <time>2022-02-24T07:38:41.538Z</time>
      </trkpt>
      <trkpt lat="38.04683" lon="-2.69942">
        <ele>1705.607117</ele>
        <time>2022-02-24T07:39:17.691Z</time>
      </trkpt>
      <trkpt lat="38.04648" lon="-2.69969">
        <ele>1706.948562</ele>
        <time>2022-02-24T07:39:40.456Z</time>
      </trkpt>
      <trkpt lat="38.04583" lon="-2.70042">
        <ele>1707.944694</ele>
        <time>2022-02-24T07:40:20.355Z</time>
      </trkpt>
      <trkpt lat="38.04523" lon="-2.7008">
        <ele>1708.713602</ele>
        <time>2022-02-24T07:40:45.025Z</time>
      </trkpt>
      <trkpt lat="38.04487" lon="-2.70113">
        <ele>1706.31489</ele>
        <time>2022-02-24T07:40:58.995Z</time>
      </trkpt>
      <trkpt lat="38.04468" lon="-2.70122">
        <ele>1705.146377</ele>
        <time>2022-02-24T07:41:04.946Z</time>
      </trkpt>
      <trkpt lat="38.04425" lon="-2.7016">
        <ele>1702.069448</ele>
        <time>2022-02-24T07:41:19.897Z</time>
      </trkpt>
      <trkpt lat="38.04419" lon="-2.70197">
        <ele>1700.329083</ele>
        <time>2022-02-24T07:41:27.767Z</time>
      </trkpt>
      <trkpt lat="38.04392" lon="-2.70229">
        <ele>1698.125739</ele>
        <time>2022-02-24T07:41:37.283Z</time>
      </trkpt>
      <trkpt lat="38.04361" lon="-2.70315">
        <ele>1690.783033</ele>
        <time>2022-02-24T07:41:56.357Z</time>
      </trkpt>
      <trkpt lat="38.04353" lon="-2.70374">
        <ele>1686.172776</ele>
        <time>2022-02-24T07:42:08.225Z</time>
      </trkpt>
      <trkpt lat="38.04352" lon="-2.70449">
        <ele>1680.475861</ele>
        <time>2022-02-24T07:42:23.706Z</time>
      </trkpt>
      <trkpt lat="38.04353" lon="-2.70455">
        <ele>1680.286633</ele>
        <time>2022-02-24T07:42:24.987Z</time>
      </trkpt>
      <trkpt lat="38.04358" lon="-2.70495">
        <ele>1679.071057</ele>
        <time>2022-02-24T07:42:33.608Z</time>
      </trkpt>
      <trkpt lat="38.04371" lon="-2.70533">
        <ele>1677.826505</ele>
        <time>2022-02-24T07:42:42.640Z</time>
      </trkpt>
      <trkpt lat="38.04359" lon="-2.706">
        <ele>1675.771221</ele>
        <time>2022-02-24T07:42:59.362Z</time>
      </trkpt>
      <trkpt lat="38.04253" lon="-2.70701">
        <ele>1675.996126</ele>
        <time>2022-02-24T07:43:52.743Z</time>
      </trkpt>
      <trkpt lat="38.04226" lon="-2.70789">
        <ele>1678.150223</ele>
        <time>2022-02-24T07:44:34.859Z</time>
      </trkpt>
      <trkpt lat="38.04185" lon="-2.70842">
        <ele>1680.873708</ele>
        <time>2022-02-24T07:45:14.033Z</time>
      </trkpt>
      <trkpt lat="38.04175" lon="-2.70892">
        <ele>1683.421142</ele>
        <time>2022-02-24T07:45:43.394Z</time>
      </trkpt>
      <trkpt lat="38.04138" lon="-2.70975">
        <ele>1688.096547</ele>
        <time>2022-02-24T07:46:36.615Z</time>
      </trkpt>
      <trkpt lat="38.04082" lon="-2.71026">
        <ele>1691.522081</ele>
        <time>2022-02-24T07:47:21.896Z</time>
      </trkpt>
      <trkpt lat="38.04036" lon="-2.71055">
        <ele>1693.510947</ele>
        <time>2022-02-24T07:47:52.803Z</time>
      </trkpt>
      <trkpt lat="38.04029" lon="-2.71065">
        <ele>1693.943071</ele>
        <time>2022-02-24T07:47:59.223Z</time>
      </trkpt>
      <trkpt lat="38.04035" lon="-2.71117">
        <ele>1695.547</ele>
        <time>2022-02-24T07:48:20.971Z</time>
      </trkpt>
      <trkpt lat="38.04032" lon="-2.71149">
        <ele>1696.547752</ele>
        <time>2022-02-24T07:48:33.482Z</time>
      </trkpt>
      <trkpt lat="38.04017" lon="-2.71176">
        <ele>1697.199648</ele>
        <time>2022-02-24T07:48:45.522Z</time>
      </trkpt>
      <trkpt lat="38.03992" lon="-2.71195">
        <ele>1697.399481</ele>
        <time>2022-02-24T07:48:58.284Z</time>
      </trkpt>
      <trkpt lat="38.03986" lon="-2.7121">
        <ele>1697.491122</ele>
        <time>2022-02-24T07:49:03.676Z</time>
      </trkpt>
      <trkpt lat="38.03987" lon="-2.71246">
        <ele>1697.689654</ele>
        <time>2022-02-24T07:49:15.282Z</time>
      </trkpt>
      <trkpt lat="38.03998" lon="-2.71297">
        <ele>1697.972014</ele>
        <time>2022-02-24T07:49:30.781Z</time>
      </trkpt>
      <trkpt lat="38.03997" lon="-2.71317">
        <ele>1698.085331</ele>
        <time>2022-02-24T07:49:37.017Z</time>
      </trkpt>
      <trkpt lat="38.03993" lon="-2.71327">
        <ele>1698.143384</ele>
        <time>2022-02-24T07:49:40.210Z</time>
      </trkpt>
      <trkpt lat="38.03966" lon="-2.71351">
        <ele>1698.358013</ele>
        <time>2022-02-24T07:49:52.426Z</time>
      </trkpt>
      <trkpt lat="38.03954" lon="-2.71383">
        <ele>1698.190643</ele>
        <time>2022-02-24T07:50:02.786Z</time>
      </trkpt>
      <trkpt lat="38.03943" lon="-2.71435">
        <ele>1697.938208</ele>
        <time>2022-02-24T07:50:18.056Z</time>
      </trkpt>
      <trkpt lat="38.03938" lon="-2.71501">
        <ele>1697.627738</ele>
        <time>2022-02-24T07:50:36.467Z</time>
      </trkpt>
      <trkpt lat="38.03929" lon="-2.71526">
        <ele>1697.500188</ele>
        <time>2022-02-24T07:50:44.066Z</time>
      </trkpt>
      <trkpt lat="38.03915" lon="-2.71556">
        <ele>1697.331729</ele>
        <time>2022-02-24T07:50:54.182Z</time>
      </trkpt>
      <trkpt lat="38.0389" lon="-2.71577">
        <ele>1696.803363</ele>
        <time>2022-02-24T07:51:04.239Z</time>
      </trkpt>
      <trkpt lat="38.03861" lon="-2.71594">
        <ele>1696.134536</ele>
        <time>2022-02-24T07:51:14.248Z</time>
      </trkpt>
      <trkpt lat="38.03833" lon="-2.71601">
        <ele>1695.532685</ele>
        <time>2022-02-24T07:51:23.329Z</time>
      </trkpt>
      <trkpt lat="38.03776" lon="-2.71629">
        <ele>1694.227596</ele>
        <time>2022-02-24T07:51:43.044Z</time>
      </trkpt>
      <trkpt lat="38.03766" lon="-2.71699">
        <ele>1693.204955</ele>
        <time>2022-02-24T07:52:00.558Z</time>
      </trkpt>
      <trkpt lat="38.03748" lon="-2.71715">
        <ele>1692.909845</ele>
        <time>2022-02-24T07:52:07.804Z</time>
      </trkpt>
      <trkpt lat="38.03684" lon="-2.7174">
        <ele>1692.024312</ele>
        <time>2022-02-24T07:52:29.413Z</time>
      </trkpt>
      <trkpt lat="38.03609" lon="-2.71807">
        <ele>1691.600305</ele>
        <time>2022-02-24T07:53:02.476Z</time>
      </trkpt>
      <trkpt lat="38.0357" lon="-2.71834">
        <ele>1692.646928</ele>
        <time>2022-02-24T07:53:24.022Z</time>
      </trkpt>
      <trkpt lat="38.0353" lon="-2.71852">
        <ele>1693.646981</ele>
        <time>2022-02-24T07:53:45.860Z</time>
      </trkpt>
      <trkpt lat="38.03463" lon="-2.71902">
        <ele>1695.489226</ele>
        <time>2022-02-24T07:54:28.368Z</time>
      </trkpt>
      <trkpt lat="38.03349" lon="-2.71966">
        <ele>1698.778359</ele>
        <time>2022-02-24T07:55:33.873Z</time>
      </trkpt>
      <trkpt lat="38.03307" lon="-2.72001">
        <ele>1700.097824</ele>
        <time>2022-02-24T07:55:56.522Z</time>
      </trkpt>
      <trkpt lat="38.03301" lon="-2.72012">
        <ele>1700.176416</ele>
        <time>2022-02-24T07:56:00.766Z</time>
      </trkpt>
      <trkpt lat="38.033" lon="-2.7203">
        <ele>1700.291254</ele>
        <time>2022-02-24T07:56:07.388Z</time>
      </trkpt>
      <trkpt lat="38.03319" lon="-2.72063">
        <ele>1700.538785</ele>
        <time>2022-02-24T07:56:20.676Z</time>
      </trkpt>
      <trkpt lat="38.03319" lon="-2.72083">
        <ele>1700.657296</ele>
        <time>2022-02-24T07:56:26.926Z</time>
      </trkpt>
      <trkpt lat="38.03296" lon="-2.72136">
        <ele>1701.031316</ele>
        <time>2022-02-24T07:56:46.232Z</time>
      </trkpt>
      <trkpt lat="38.03272" lon="-2.7218">
        <ele>1701.362289</ele>
        <time>2022-02-24T07:57:03.014Z</time>
      </trkpt>
      <trkpt lat="38.03256" lon="-2.72236">
        <ele>1701.534393</ele>
        <time>2022-02-24T07:57:20.470Z</time>
      </trkpt>
      <trkpt lat="38.03225" lon="-2.72297">
        <ele>1701.621691</ele>
        <time>2022-02-24T07:57:42.256Z</time>
      </trkpt>
      <trkpt lat="38.03219" lon="-2.72308">
        <ele>1701.63848</ele>
        <time>2022-02-24T07:57:46.714Z</time>
      </trkpt>
      <trkpt lat="38.03097" lon="-2.72557">
        <ele>1701.867399</ele>
        <time>2022-02-24T07:59:11.862Z</time>
      </trkpt>
      <trkpt lat="38.03066" lon="-2.72576">
        <ele>1701.908525</ele>
        <time>2022-02-24T07:59:25.221Z</time>
      </trkpt>
      <trkpt lat="38.0306" lon="-2.72588">
        <ele>1701.97063</ele>
        <time>2022-02-24T07:59:29.946Z</time>
      </trkpt>
      <trkpt lat="38.03062" lon="-2.72612">
        <ele>1702.070408</ele>
        <time>2022-02-24T07:59:37.472Z</time>
      </trkpt>
      <trkpt lat="38.03077" lon="-2.72638">
        <ele>1702.20301</ele>
        <time>2022-02-24T07:59:47.591Z</time>
      </trkpt>
      <trkpt lat="38.03084" lon="-2.72663">
        <ele>1702.313936</ele>
        <time>2022-02-24T07:59:56.220Z</time>
      </trkpt>
      <trkpt lat="38.03077" lon="-2.72728">
        <ele>1702.583802</ele>
        <time>2022-02-24T08:00:17.221Z</time>
      </trkpt>
      <trkpt lat="38.03068" lon="-2.72754">
        <ele>1702.700466</ele>
        <time>2022-02-24T08:00:26.287Z</time>
      </trkpt>
      <trkpt lat="38.02991" lon="-2.72874">
        <ele>1703.123151</ele>
        <time>2022-02-24T08:01:13.330Z</time>
      </trkpt>
      <trkpt lat="38.02932" lon="-2.72929">
        <ele>1703.345585</ele>
        <time>2022-02-24T08:01:40.504Z</time>
      </trkpt>
      <trkpt lat="38.02914" lon="-2.72995">
        <ele>1704.314742</ele>
        <time>2022-02-24T08:02:02.224Z</time>
      </trkpt>
      <trkpt lat="38.0284" lon="-2.73118">
        <ele>1706.824925</ele>
        <time>2022-02-24T08:03:01.681Z</time>
      </trkpt>
      <trkpt lat="38.02827" lon="-2.73154">
        <ele>1707.990487</ele>
        <time>2022-02-24T08:03:18.508Z</time>
      </trkpt>
      <trkpt lat="38.02813" lon="-2.73169">
        <ele>1708.887577</ele>
        <time>2022-02-24T08:03:29.855Z</time>
      </trkpt>
      <trkpt lat="38.02722" lon="-2.73172">
        <ele>1713.364287</ele>
        <time>2022-02-24T08:04:26.056Z</time>
      </trkpt>
      <trkpt lat="38.02692" lon="-2.7318">
        <ele>1714.862137</ele>
        <time>2022-02-24T08:04:47.316Z</time>
      </trkpt>
      <trkpt lat="38.02591" lon="-2.73254">
        <ele>1721.69235</ele>
        <time>2022-02-24T08:06:05.042Z</time>
      </trkpt>
      <trkpt lat="38.02564" lon="-2.73267">
        <ele>1723.398838</ele>
        <time>2022-02-24T08:06:24.738Z</time>
      </trkpt>
      <trkpt lat="38.02509" lon="-2.73278">
        <ele>1726.790956</ele>
        <time>2022-02-24T08:07:03.214Z</time>
      </trkpt>
      <trkpt lat="38.02465" lon="-2.73271">
        <ele>1729.331697</ele>
        <time>2022-02-24T08:07:32.781Z</time>
      </trkpt>
      <trkpt lat="38.02404" lon="-2.733">
        <ele>1733.00884</ele>
        <time>2022-02-24T08:08:15.260Z</time>
      </trkpt>
      <trkpt lat="38.02366" lon="-2.73341">
        <ele>1735.848992</ele>
        <time>2022-02-24T08:08:47.254Z</time>
      </trkpt>
      <trkpt lat="38.02342" lon="-2.7335">
        <ele>1737.246852</ele>
        <time>2022-02-24T08:09:03.491Z</time>
      </trkpt>
      <trkpt lat="38.02253" lon="-2.73347">
        <ele>1741.505505</ele>
        <time>2022-02-24T08:10:00.300Z</time>
      </trkpt>
      <trkpt lat="38.02213" lon="-2.73329">
        <ele>1743.576463</ele>
        <time>2022-02-24T08:10:26.823Z</time>
      </trkpt>
      <trkpt lat="38.02184" lon="-2.73329">
        <ele>1744.941403</ele>
        <time>2022-02-24T08:10:43.648Z</time>
      </trkpt>
      <trkpt lat="38.02167" lon="-2.73347">
        <ele>1745.911294</ele>
        <time>2022-02-24T08:10:56.061Z</time>
      </trkpt>
      <trkpt lat="38.02155" lon="-2.73387">
        <ele>1747.047679</ele>
        <time>2022-02-24T08:11:13.232Z</time>
      </trkpt>
      <trkpt lat="38.02139" lon="-2.7342">
        <ele>1748.10949</ele>
        <time>2022-02-24T08:11:28.843Z</time>
      </trkpt>
      <trkpt lat="38.02123" lon="-2.73483">
        <ele>1749.863053</ele>
        <time>2022-02-24T08:11:54.979Z</time>
      </trkpt>
      <trkpt lat="38.02118" lon="-2.73537">
        <ele>1751.328486</ele>
        <time>2022-02-24T08:12:17.017Z</time>
      </trkpt>
      <trkpt lat="38.02107" lon="-2.73549">
        <ele>1751.932086</ele>
        <time>2022-02-24T08:12:25.882Z</time>
      </trkpt>
      <trkpt lat="38.02081" lon="-2.73559">
        <ele>1753.898082</ele>
        <time>2022-02-24T08:12:43.297Z</time>
      </trkpt>
      <trkpt lat="38.02049" lon="-2.73602">
        <ele>1757.247493</ele>
        <time>2022-02-24T08:13:15.520Z</time>
      </trkpt>
      <trkpt lat="38.01995" lon="-2.73622">
        <ele>1761.31868</ele>
        <time>2022-02-24T08:13:59.748Z</time>
      </trkpt>
      <trkpt lat="38.01959" lon="-2.73651">
        <ele>1764.434339</ele>
        <time>2022-02-24T08:14:37.923Z</time>
      </trkpt>
      <trkpt lat="38.0187" lon="-2.73768">
        <ele>1772.096605</ele>
        <time>2022-02-24T08:16:15.312Z</time>
      </trkpt>
      <trkpt lat="38.01861" lon="-2.73796">
        <ele>1773.539836</ele>
        <time>2022-02-24T08:16:29.718Z</time>
      </trkpt>
      <trkpt lat="38.01841" lon="-2.73813">
        <ele>1774.936549</ele>
        <time>2022-02-24T08:16:40.617Z</time>
      </trkpt>
      <trkpt lat="38.018" lon="-2.73835">
        <ele>1774.234197</ele>
        <time>2022-02-24T08:16:57.888Z</time>
      </trkpt>
      <trkpt lat="38.01787" lon="-2.73849">
        <ele>1773.628527</ele>
        <time>2022-02-24T08:17:03.664Z</time>
      </trkpt>
      <trkpt lat="38.01739" lon="-2.73932">
        <ele>1770.812004</ele>
        <time>2022-02-24T08:17:27.489Z</time>
      </trkpt>
      <trkpt lat="38.01693" lon="-2.73983">
        <ele>1768.143587</ele>
        <time>2022-02-24T08:17:44.141Z</time>
      </trkpt>
      <trkpt lat="38.01625" lon="-2.74027">
        <ele>1762.65869</ele>
        <time>2022-02-24T08:18:04.632Z</time>
      </trkpt>
      <trkpt lat="38.01591" lon="-2.74019">
        <ele>1760.227762</ele>
        <time>2022-02-24T08:18:13.844Z</time>
      </trkpt>
      <trkpt lat="38.01571" lon="-2.74027">
        <ele>1758.739058</ele>
        <time>2022-02-24T08:18:19.487Z</time>
      </trkpt>
      <trkpt lat="38.01565" lon="-2.74025">
        <ele>1758.239414</ele>
        <time>2022-02-24T08:18:21.323Z</time>
      </trkpt>
      <trkpt lat="38.01531" lon="-2.73974">
        <ele>1755.055618</ele>
        <time>2022-02-24T08:18:36.182Z</time>
      </trkpt>
      <trkpt lat="38.01532" lon="-2.73956">
        <ele>1754.346957</ele>
        <time>2022-02-24T08:18:40.076Z</time>
      </trkpt>
      <trkpt lat="38.01546" lon="-2.73912">
        <ele>1752.485466</ele>
        <time>2022-02-24T08:18:50.536Z</time>
      </trkpt>
      <trkpt lat="38.01542" lon="-2.73905">
        <ele>1752.160485</ele>
        <time>2022-02-24T08:18:52.349Z</time>
      </trkpt>
      <trkpt lat="38.01511" lon="-2.73884">
        <ele>1750.401459</ele>
        <time>2022-02-24T08:19:02.247Z</time>
      </trkpt>
      <trkpt lat="38.01477" lon="-2.73874">
        <ele>1748.61947</ele>
        <time>2022-02-24T08:19:13.466Z</time>
      </trkpt>
      <trkpt lat="38.01446" lon="-2.73885">
        <ele>1747.053717</ele>
        <time>2022-02-24T08:19:23.464Z</time>
      </trkpt>
      <trkpt lat="38.01432" lon="-2.73852">
        <ele>1745.787778</ele>
        <time>2022-02-24T08:19:32.337Z</time>
      </trkpt>
      <trkpt lat="38.01291" lon="-2.73697">
        <ele>1738.390022</ele>
        <time>2022-02-24T08:20:26.555Z</time>
      </trkpt>
      <trkpt lat="38.01282" lon="-2.73691">
        <ele>1738.10253</ele>
        <time>2022-02-24T08:20:29.966Z</time>
      </trkpt>
      <trkpt lat="38.01259" lon="-2.7369">
        <ele>1737.484239</ele>
        <time>2022-02-24T08:20:36.800Z</time>
      </trkpt>
      <trkpt lat="38.01232" lon="-2.73733">
        <ele>1736.331936</ele>
        <time>2022-02-24T08:20:50.482Z</time>
      </trkpt>
      <trkpt lat="38.01182" lon="-2.73762">
        <ele>1734.836819</ele>
        <time>2022-02-24T08:21:09.155Z</time>
      </trkpt>
      <trkpt lat="38.01123" lon="-2.73822">
        <ele>1734.915399</ele>
        <time>2022-02-24T08:21:36.928Z</time>
      </trkpt>
      <trkpt lat="38.0107" lon="-2.73862">
        <ele>1735.080086</ele>
        <time>2022-02-24T08:22:03.004Z</time>
      </trkpt>
      <trkpt lat="38.01042" lon="-2.73866">
        <ele>1735.15505</ele>
        <time>2022-02-24T08:22:14.675Z</time>
      </trkpt>
      <trkpt lat="38.01026" lon="-2.73877">
        <ele>1735.204142</ele>
        <time>2022-02-24T08:22:22.164Z</time>
      </trkpt>
      <trkpt lat="38.00988" lon="-2.7393">
        <ele>1734.444501</ele>
        <time>2022-02-24T08:22:43.624Z</time>
      </trkpt>
      <trkpt lat="38.0096" lon="-2.73958">
        <ele>1733.961904</ele>
        <time>2022-02-24T08:22:56.000Z</time>
      </trkpt>
      <trkpt lat="38.00953" lon="-2.73979">
        <ele>1733.717311</ele>
        <time>2022-02-24T08:23:01.940Z</time>
      </trkpt>
      <trkpt lat="38.00927" lon="-2.74002">
        <ele>1733.287614</ele>
        <time>2022-02-24T08:23:12.052Z</time>
      </trkpt>
      <trkpt lat="38.00873" lon="-2.74035">
        <ele>1731.762707</ele>
        <time>2022-02-24T08:23:30.617Z</time>
      </trkpt>
      <trkpt lat="38.00831" lon="-2.74051">
        <ele>1729.7018</ele>
        <time>2022-02-24T08:23:43.758Z</time>
      </trkpt>
      <trkpt lat="38.00805" lon="-2.74069">
        <ele>1728.337124</ele>
        <time>2022-02-24T08:23:52.163Z</time>
      </trkpt>
      <trkpt lat="38.00734" lon="-2.74103">
        <ele>1724.796286</ele>
        <time>2022-02-24T08:24:13.610Z</time>
      </trkpt>
      <trkpt lat="38.00683" lon="-2.74134">
        <ele>1722.308821</ele>
        <time>2022-02-24T08:24:29.810Z</time>
      </trkpt>
      <trkpt lat="38.00662" lon="-2.74153">
        <ele>1721.207054</ele>
        <time>2022-02-24T08:24:37.118Z</time>
      </trkpt>
      <trkpt lat="38.00559" lon="-2.74207">
        <ele>1716.515933</ele>
        <time>2022-02-24T08:25:10.456Z</time>
      </trkpt>
      <trkpt lat="38.00467" lon="-2.74238">
        <ele>1714.583764</ele>
        <time>2022-02-24T08:25:40.993Z</time>
      </trkpt>
      <trkpt lat="38.00422" lon="-2.74266">
        <ele>1713.552951</ele>
        <time>2022-02-24T08:25:58.007Z</time>
      </trkpt>
      <trkpt lat="38.00377" lon="-2.74281">
        <ele>1712.814284</ele>
        <time>2022-02-24T08:26:13.700Z</time>
      </trkpt>
      <trkpt lat="38.00332" lon="-2.74311">
        <ele>1712.393661</ele>
        <time>2022-02-24T08:26:31.351Z</time>
      </trkpt>
      <trkpt lat="38.00274" lon="-2.74332">
        <ele>1711.891354</ele>
        <time>2022-02-24T08:26:52.758Z</time>
      </trkpt>
      <trkpt lat="38.00164" lon="-2.7444">
        <ele>1711.140593</ele>
        <time>2022-02-24T08:27:41.688Z</time>
      </trkpt>
      <trkpt lat="38.0009" lon="-2.74484">
        <ele>1710.834602</ele>
        <time>2022-02-24T08:28:11.112Z</time>
      </trkpt>
      <trkpt lat="37.99995" lon="-2.746">
        <ele>1711.485593</ele>
        <time>2022-02-24T08:29:02.806Z</time>
      </trkpt>
      <trkpt lat="37.99894" lon="-2.74673">
        <ele>1712.251814</ele>
        <time>2022-02-24T08:29:52.464Z</time>
      </trkpt>
      <trkpt lat="37.99882" lon="-2.74675">
        <ele>1712.337964</ele>
        <time>2022-02-24T08:29:57.331Z</time>
      </trkpt>
      <trkpt lat="37.99862" lon="-2.74663">
        <ele>1712.504001</ele>
        <time>2022-02-24T08:30:06.691Z</time>
      </trkpt>
      <trkpt lat="37.99846" lon="-2.74661">
        <ele>1712.618635</ele>
        <time>2022-02-24T08:30:13.084Z</time>
      </trkpt>
      <trkpt lat="37.99835" lon="-2.74671">
        <ele>1712.721102</ele>
        <time>2022-02-24T08:30:18.774Z</time>
      </trkpt>
      <trkpt lat="37.99818" lon="-2.74698">
        <ele>1712.923242</ele>
        <time>2022-02-24T08:30:29.669Z</time>
      </trkpt>
      <trkpt lat="37.99773" lon="-2.74723">
        <ele>1713.145476</ele>
        <time>2022-02-24T08:30:48.617Z</time>
      </trkpt>
      <trkpt lat="37.99751" lon="-2.74731">
        <ele>1713.122209</ele>
        <time>2022-02-24T08:30:56.965Z</time>
      </trkpt>
      <trkpt lat="37.99693" lon="-2.74734">
        <ele>1713.063049</ele>
        <time>2022-02-24T08:31:17.886Z</time>
      </trkpt>
      <trkpt lat="37.99659" lon="-2.74749">
        <ele>1713.025649</ele>
        <time>2022-02-24T08:31:31.081Z</time>
      </trkpt>
      <trkpt lat="37.99646" lon="-2.74761">
        <ele>1713.009474</ele>
        <time>2022-02-24T08:31:36.829Z</time>
      </trkpt>
      <trkpt lat="37.99642" lon="-2.74796">
        <ele>1712.981192</ele>
        <time>2022-02-24T08:31:46.919Z</time>
      </trkpt>
      <trkpt lat="37.99627" lon="-2.74808">
        <ele>1713.056911</ele>
        <time>2022-02-24T08:31:53.406Z</time>
      </trkpt>
      <trkpt lat="37.99608" lon="-2.74811">
        <ele>1713.156175</ele>
        <time>2022-02-24T08:32:00.447Z</time>
      </trkpt>
      <trkpt lat="37.99567" lon="-2.74802">
        <ele>1713.374183</ele>
        <time>2022-02-24T08:32:16.218Z</time>
      </trkpt>
      <trkpt lat="37.99501" lon="-2.74832">
        <ele>1713.741476</ele>
        <time>2022-02-24T08:32:44.136Z</time>
      </trkpt>
      <trkpt lat="37.9947" lon="-2.74852">
        <ele>1713.939552</ele>
        <time>2022-02-24T08:32:58.827Z</time>
      </trkpt>
      <trkpt lat="37.99434" lon="-2.74863">
        <ele>1714.822983</ele>
        <time>2022-02-24T08:33:15.528Z</time>
      </trkpt>
      <trkpt lat="37.99414" lon="-2.7489">
        <ele>1715.507912</ele>
        <time>2022-02-24T08:33:29.286Z</time>
      </trkpt>
      <trkpt lat="37.99377" lon="-2.74881">
        <ele>1716.406169</ele>
        <time>2022-02-24T08:33:48.217Z</time>
      </trkpt>
      <trkpt lat="37.99351" lon="-2.74893">
        <ele>1717.043989</ele>
        <time>2022-02-24T08:34:02.175Z</time>
      </trkpt>
      <trkpt lat="37.99322" lon="-2.74894">
        <ele>1717.7369</ele>
        <time>2022-02-24T08:34:17.708Z</time>
      </trkpt>
      <trkpt lat="37.99284" lon="-2.74908">
        <ele>1718.533615</ele>
        <time>2022-02-24T08:34:38.955Z</time>
      </trkpt>
      <trkpt lat="37.99239" lon="-2.74896">
        <ele>1719.345138</ele>
        <time>2022-02-24T08:35:03.862Z</time>
      </trkpt>
      <trkpt lat="37.99182" lon="-2.74939">
        <ele>1720.495003</ele>
        <time>2022-02-24T08:35:34.788Z</time>
      </trkpt>
      <trkpt lat="37.99128" lon="-2.74911">
        <ele>1720.88579</ele>
        <time>2022-02-24T08:35:57.151Z</time>
      </trkpt>
      <trkpt lat="37.99095" lon="-2.74905">
        <ele>1719.757782</ele>
        <time>2022-02-24T08:36:08.098Z</time>
      </trkpt>
      <trkpt lat="37.99039" lon="-2.74872">
        <ele>1717.677267</ele>
        <time>2022-02-24T08:36:26.951Z</time>
      </trkpt>
      <trkpt lat="37.98989" lon="-2.74872">
        <ele>1715.950985</ele>
        <time>2022-02-24T08:36:41.678Z</time>
      </trkpt>
      <trkpt lat="37.9896" lon="-2.74891">
        <ele>1714.526517</ele>
        <time>2022-02-24T08:36:50.631Z</time>
      </trkpt>
      <trkpt lat="37.98947" lon="-2.74923">
        <ele>1712.591115</ele>
        <time>2022-02-24T08:36:58.484Z</time>
      </trkpt>
      <trkpt lat="37.98858" lon="-2.74972">
        <ele>1706.047682</ele>
        <time>2022-02-24T08:37:25.091Z</time>
      </trkpt>
      <trkpt lat="37.98827" lon="-2.75001">
        <ele>1703.456708</ele>
        <time>2022-02-24T08:37:35.588Z</time>
      </trkpt>
      <trkpt lat="37.9876" lon="-2.75014">
        <ele>1698.665658</ele>
        <time>2022-02-24T08:37:54.011Z</time>
      </trkpt>
      <trkpt lat="37.98696" lon="-2.75018">
        <ele>1694.153074</ele>
        <time>2022-02-24T08:38:11.309Z</time>
      </trkpt>
      <trkpt lat="37.98661" lon="-2.75033">
        <ele>1691.59295</ele>
        <time>2022-02-24T08:38:21.200Z</time>
      </trkpt>
      <trkpt lat="37.98559" lon="-2.75124">
        <ele>1684.774293</ele>
        <time>2022-02-24T08:38:56.406Z</time>
      </trkpt>
      <trkpt lat="37.98517" lon="-2.75146">
        <ele>1682.429926</ele>
        <time>2022-02-24T08:39:09.681Z</time>
      </trkpt>
      <trkpt lat="37.98476" lon="-2.75206">
        <ele>1680.320637</ele>
        <time>2022-02-24T08:39:28.752Z</time>
      </trkpt>
      <trkpt lat="37.98448" lon="-2.75224">
        <ele>1679.653748</ele>
        <time>2022-02-24T08:39:38.810Z</time>
      </trkpt>
      <trkpt lat="37.98391" lon="-2.75249">
        <ele>1678.387206</ele>
        <time>2022-02-24T08:39:58.672Z</time>
      </trkpt>
      <trkpt lat="37.98309" lon="-2.75318">
        <ele>1676.699253</ele>
        <time>2022-02-24T08:40:32.445Z</time>
      </trkpt>
      <trkpt lat="37.98281" lon="-2.75331">
        <ele>1676.312954</ele>
        <time>2022-02-24T08:40:42.827Z</time>
      </trkpt>
      <trkpt lat="37.98251" lon="-2.75353">
        <ele>1675.868813</ele>
        <time>2022-02-24T08:40:54.627Z</time>
      </trkpt>
      <trkpt lat="37.98211" lon="-2.75354">
        <ele>1675.345502</ele>
        <time>2022-02-24T08:41:08.302Z</time>
      </trkpt>
      <trkpt lat="37.98188" lon="-2.75362">
        <ele>1675.047826</ele>
        <time>2022-02-24T08:41:15.960Z</time>
      </trkpt>
      <trkpt lat="37.98162" lon="-2.7536">
        <ele>1674.56439</ele>
        <time>2022-02-24T08:41:24.509Z</time>
      </trkpt>
      <trkpt lat="37.98087" lon="-2.75393">
        <ele>1672.981355</ele>
        <time>2022-02-24T08:41:50.410Z</time>
      </trkpt>
      <trkpt lat="37.98035" lon="-2.75433">
        <ele>1671.776757</ele>
        <time>2022-02-24T08:42:09.779Z</time>
      </trkpt>
      <trkpt lat="37.97924" lon="-2.75551">
        <ele>1669.864788</ele>
        <time>2022-02-24T08:42:57.959Z</time>
      </trkpt>
      <trkpt lat="37.97886" lon="-2.75585">
        <ele>1669.29963</ele>
        <time>2022-02-24T08:43:14.714Z</time>
      </trkpt>
      <trkpt lat="37.97837" lon="-2.75581">
        <ele>1669.209843</ele>
        <time>2022-02-24T08:43:33.002Z</time>
      </trkpt>
      <trkpt lat="37.97755" lon="-2.75607">
        <ele>1669.192502</ele>
        <time>2022-02-24T08:44:05.441Z</time>
      </trkpt>
      <trkpt lat="37.97725" lon="-2.75602">
        <ele>1669.186191</ele>
        <time>2022-02-24T08:44:16.930Z</time>
      </trkpt>
      <trkpt lat="37.97708" lon="-2.75617">
        <ele>1669.181967</ele>
        <time>2022-02-24T08:44:24.484Z</time>
      </trkpt>
      <trkpt lat="37.97686" lon="-2.75628">
        <ele>1668.95404</ele>
        <time>2022-02-24T08:44:32.947Z</time>
      </trkpt>
      <trkpt lat="37.97674" lon="-2.75652">
        <ele>1668.717922</ele>
        <time>2022-02-24T08:44:40.913Z</time>
      </trkpt>
      <trkpt lat="37.97577" lon="-2.757">
        <ele>1667.628909</ele>
        <time>2022-02-24T08:45:15.763Z</time>
      </trkpt>
      <trkpt lat="37.97568" lon="-2.757">
        <ele>1667.527977</ele>
        <time>2022-02-24T08:45:19.191Z</time>
      </trkpt>
      <trkpt lat="37.97531" lon="-2.75684">
        <ele>1667.085669</ele>
        <time>2022-02-24T08:45:32.375Z</time>
      </trkpt>
      <trkpt lat="37.9747" lon="-2.75704">
        <ele>1666.277682</ele>
        <time>2022-02-24T08:45:53.345Z</time>
      </trkpt>
      <trkpt lat="37.97459" lon="-2.75707">
        <ele>1666.129904</ele>
        <time>2022-02-24T08:45:57.965Z</time>
      </trkpt>
      <trkpt lat="37.97441" lon="-2.75699">
        <ele>1665.879094</ele>
        <time>2022-02-24T08:46:04.287Z</time>
      </trkpt>
      <trkpt lat="37.97356" lon="-2.75649">
        <ele>1664.453717</ele>
        <time>2022-02-24T08:46:36.029Z</time>
      </trkpt>
      <trkpt lat="37.97296" lon="-2.75686">
        <ele>1662.936376</ele>
        <time>2022-02-24T08:46:58.715Z</time>
      </trkpt>
      <trkpt lat="37.97232" lon="-2.75679">
        <ele>1661.48243</ele>
        <time>2022-02-24T08:47:18.405Z</time>
      </trkpt>
      <trkpt lat="37.97165" lon="-2.75658">
        <ele>1659.619218</ele>
        <time>2022-02-24T08:47:39.474Z</time>
      </trkpt>
      <trkpt lat="37.97126" lon="-2.75666">
        <ele>1658.456607</ele>
        <time>2022-02-24T08:47:51.610Z</time>
      </trkpt>
      <trkpt lat="37.9711" lon="-2.75667">
        <ele>1657.995095</ele>
        <time>2022-02-24T08:47:56.264Z</time>
      </trkpt>
      <trkpt lat="37.97084" lon="-2.75648">
        <ele>1657.130265</ele>
        <time>2022-02-24T08:48:05.467Z</time>
      </trkpt>
      <trkpt lat="37.97039" lon="-2.75661">
        <ele>1655.764306</ele>
        <time>2022-02-24T08:48:20.222Z</time>
      </trkpt>
      <trkpt lat="37.96999" lon="-2.75646">
        <ele>1655.272909</ele>
        <time>2022-02-24T08:48:33.908Z</time>
      </trkpt>
      <trkpt lat="37.96989" lon="-2.75633">
        <ele>1655.142459</ele>
        <time>2022-02-24T08:48:38.730Z</time>
      </trkpt>
      <trkpt lat="37.96993" lon="-2.75607">
        <ele>1654.946522</ele>
        <time>2022-02-24T08:48:46.120Z</time>
      </trkpt>
      <trkpt lat="37.96986" lon="-2.7557">
        <ele>1654.663614</ele>
        <time>2022-02-24T08:48:57.401Z</time>
      </trkpt>
      <trkpt lat="37.96988" lon="-2.75559">
        <ele>1654.580399</ele>
        <time>2022-02-24T08:49:00.848Z</time>
      </trkpt>
      <trkpt lat="37.96981" lon="-2.75525">
        <ele>1654.32167</ele>
        <time>2022-02-24T08:49:10.701Z</time>
      </trkpt>
      <trkpt lat="37.96952" lon="-2.75497">
        <ele>1653.984517</ele>
        <time>2022-02-24T08:49:23.309Z</time>
      </trkpt>
      <trkpt lat="37.96928" lon="-2.75447">
        <ele>1653.452023</ele>
        <time>2022-02-24T08:49:39.532Z</time>
      </trkpt>
      <trkpt lat="37.96824" lon="-2.75394">
        <ele>1652.152635</ele>
        <time>2022-02-24T08:50:17.769Z</time>
      </trkpt>
      <trkpt lat="37.96781" lon="-2.75382">
        <ele>1651.637312</ele>
        <time>2022-02-24T08:50:32.163Z</time>
      </trkpt>
      <trkpt lat="37.9677" lon="-2.75382">
        <ele>1651.490833</ele>
        <time>2022-02-24T08:50:36.060Z</time>
      </trkpt>
      <trkpt lat="37.96738" lon="-2.75396">
        <ele>1651.073358</ele>
        <time>2022-02-24T08:50:47.270Z</time>
      </trkpt>
      <trkpt lat="37.96726" lon="-2.75394">
        <ele>1650.927115</ele>
        <time>2022-02-24T08:50:51.229Z</time>
      </trkpt>
      <trkpt lat="37.96692" lon="-2.75359">
        <ele>1650.392462</ele>
        <time>2022-02-24T08:51:06.075Z</time>
      </trkpt>
      <trkpt lat="37.96683" lon="-2.75342">
        <ele>1650.193691</ele>
        <time>2022-02-24T08:51:11.738Z</time>
      </trkpt>
      <trkpt lat="37.96661" lon="-2.75336">
        <ele>1649.907167</ele>
        <time>2022-02-24T08:51:19.864Z</time>
      </trkpt>
      <trkpt lat="37.96647" lon="-2.75339">
        <ele>1649.734136</ele>
        <time>2022-02-24T08:51:24.791Z</time>
      </trkpt>
      <trkpt lat="37.96618" lon="-2.75364">
        <ele>1649.292294</ele>
        <time>2022-02-24T08:51:37.053Z</time>
      </trkpt>
      <trkpt lat="37.96559" lon="-2.75402">
        <ele>1648.447629</ele>
        <time>2022-02-24T08:52:00.171Z</time>
      </trkpt>
      <trkpt lat="37.96515" lon="-2.7542">
        <ele>1647.865475</ele>
        <time>2022-02-24T08:52:15.660Z</time>
      </trkpt>
      <trkpt lat="37.96497" lon="-2.75435">
        <ele>1647.590841</ele>
        <time>2022-02-24T08:52:22.785Z</time>
      </trkpt>
      <trkpt lat="37.96487" lon="-2.75437">
        <ele>1647.467789</ele>
        <time>2022-02-24T08:52:25.949Z</time>
      </trkpt>
      <trkpt lat="37.96466" lon="-2.75428">
        <ele>1646.879841</ele>
        <time>2022-02-24T08:52:33.278Z</time>
      </trkpt>
      <trkpt lat="37.96439" lon="-2.75428">
        <ele>1645.896122</ele>
        <time>2022-02-24T08:52:41.998Z</time>
      </trkpt>
      <trkpt lat="37.96404" lon="-2.75436">
        <ele>1644.608333</ele>
        <time>2022-02-24T08:52:53.084Z</time>
      </trkpt>
      <trkpt lat="37.96369" lon="-2.75458">
        <ele>1643.204029</ele>
        <time>2022-02-24T08:53:04.654Z</time>
      </trkpt>
      <trkpt lat="37.96309" lon="-2.75472">
        <ele>1640.989013</ele>
        <time>2022-02-24T08:53:22.581Z</time>
      </trkpt>
      <trkpt lat="37.96271" lon="-2.7549">
        <ele>1638.991487</ele>
        <time>2022-02-24T08:53:34.173Z</time>
      </trkpt>
      <trkpt lat="37.96227" lon="-2.75492">
        <ele>1636.769432</ele>
        <time>2022-02-24T08:53:46.482Z</time>
      </trkpt>
      <trkpt lat="37.96182" lon="-2.75505">
        <ele>1634.431377</ele>
        <time>2022-02-24T08:53:59.599Z</time>
      </trkpt>
      <trkpt lat="37.96116" lon="-2.75513">
        <ele>1631.357224</ele>
        <time>2022-02-24T08:54:18.760Z</time>
      </trkpt>
      <trkpt lat="37.96084" lon="-2.75535">
        <ele>1630.37756</ele>
        <time>2022-02-24T08:54:29.657Z</time>
      </trkpt>
      <trkpt lat="37.96003" lon="-2.7556">
        <ele>1628.158702</ele>
        <time>2022-02-24T08:54:56.035Z</time>
      </trkpt>
      <trkpt lat="37.95982" lon="-2.75562">
        <ele>1627.6172</ele>
        <time>2022-02-24T08:55:02.823Z</time>
      </trkpt>
      <trkpt lat="37.95942" lon="-2.75582">
        <ele>1626.918141</ele>
        <time>2022-02-24T08:55:18.114Z</time>
      </trkpt>
      <trkpt lat="37.95872" lon="-2.75606">
        <ele>1626.965935</ele>
        <time>2022-02-24T08:55:44.890Z</time>
      </trkpt>
      <trkpt lat="37.95803" lon="-2.75623">
        <ele>1627.012413</ele>
        <time>2022-02-24T08:56:12.815Z</time>
      </trkpt>
      <trkpt lat="37.9571" lon="-2.75666">
        <ele>1627.427736</ele>
        <time>2022-02-24T08:56:52.459Z</time>
      </trkpt>
      <trkpt lat="37.95671" lon="-2.75652">
        <ele>1627.630624</ele>
        <time>2022-02-24T08:57:07.914Z</time>
      </trkpt>
      <trkpt lat="37.95639" lon="-2.75655">
        <ele>1627.797327</ele>
        <time>2022-02-24T08:57:20.771Z</time>
      </trkpt>
      <trkpt lat="37.95603" lon="-2.75648">
        <ele>1628.025989</ele>
        <time>2022-02-24T08:57:35.451Z</time>
      </trkpt>
      <trkpt lat="37.9558" lon="-2.75634">
        <ele>1628.282442</ele>
        <time>2022-02-24T08:57:45.578Z</time>
      </trkpt>
      <trkpt lat="37.95546" lon="-2.75599">
        <ele>1628.728112</ele>
        <time>2022-02-24T08:58:02.908Z</time>
      </trkpt>
      <trkpt lat="37.95536" lon="-2.75599">
        <ele>1628.832653</ele>
        <time>2022-02-24T08:58:08.006Z</time>
      </trkpt>
      <trkpt lat="37.9551" lon="-2.75613">
        <ele>1629.119658</ele>
        <time>2022-02-24T08:58:19.025Z</time>
      </trkpt>
      <trkpt lat="37.95469" lon="-2.75615">
        <ele>1629.544735</ele>
        <time>2022-02-24T08:58:37.364Z</time>
      </trkpt>
      <trkpt lat="37.95409" lon="-2.75655">
        <ele>1630.64214</ele>
        <time>2022-02-24T08:59:07.770Z</time>
      </trkpt>
      <trkpt lat="37.95372" lon="-2.75656">
        <ele>1631.364675</ele>
        <time>2022-02-24T08:59:25.175Z</time>
      </trkpt>
      <trkpt lat="37.95317" lon="-2.75671">
        <ele>1632.437994</ele>
        <time>2022-02-24T08:59:51.050Z</time>
      </trkpt>
      <trkpt lat="37.95283" lon="-2.75699">
        <ele>1633.232358</ele>
        <time>2022-02-24T09:00:11.364Z</time>
      </trkpt>
      <trkpt lat="37.95229" lon="-2.75779">
        <ele>1634.960357</ele>
        <time>2022-02-24T09:00:52.247Z</time>
      </trkpt>
      <trkpt lat="37.95213" lon="-2.75788">
        <ele>1635.328638</ele>
        <time>2022-02-24T09:01:01.174Z</time>
      </trkpt>
      <trkpt lat="37.95204" lon="-2.7581">
        <ele>1635.738956</ele>
        <time>2022-02-24T09:01:10.101Z</time>
      </trkpt>
      <trkpt lat="37.95172" lon="-2.75848">
        <ele>1636.640587</ele>
        <time>2022-02-24T09:01:30.098Z</time>
      </trkpt>
      <trkpt lat="37.95126" lon="-2.75934">
        <ele>1636.997033</ele>
        <time>2022-02-24T09:02:07.000Z</time>
      </trkpt>
      <trkpt lat="37.95122" lon="-2.75951">
        <ele>1636.992709</ele>
        <time>2022-02-24T09:02:12.088Z</time>
      </trkpt>
      <trkpt lat="37.95122" lon="-2.75998">
        <ele>1636.98041</ele>
        <time>2022-02-24T09:02:25.729Z</time>
      </trkpt>
      <trkpt lat="37.95102" lon="-2.761">
        <ele>1636.52501</ele>
        <time>2022-02-24T09:02:53.412Z</time>
      </trkpt>
      <trkpt lat="37.951" lon="-2.76169">
        <ele>1635.235234</ele>
        <time>2022-02-24T09:03:11.024Z</time>
      </trkpt>
      <trkpt lat="37.95095" lon="-2.76243">
        <ele>1633.852172</ele>
        <time>2022-02-24T09:03:29.441Z</time>
      </trkpt>
      <trkpt lat="37.95084" lon="-2.76296">
        <ele>1632.809846</ele>
        <time>2022-02-24T09:03:43.126Z</time>
      </trkpt>
      <trkpt lat="37.95059" lon="-2.76348">
        <ele>1631.56048</ele>
        <time>2022-02-24T09:03:57.736Z</time>
      </trkpt>
      <trkpt lat="37.95046" lon="-2.76412">
        <ele>1630.16994</ele>
        <time>2022-02-24T09:04:13.979Z</time>
      </trkpt>
      <trkpt lat="37.95006" lon="-2.76527">
        <ele>1627.707921</ele>
        <time>2022-02-24T09:04:45.731Z</time>
      </trkpt>
      <trkpt lat="37.94992" lon="-2.76631">
        <ele>1626.505722</ele>
        <time>2022-02-24T09:05:13.123Z</time>
      </trkpt>
      <trkpt lat="37.94912" lon="-2.76819">
        <ele>1624.362778</ele>
        <time>2022-02-24T09:06:11.854Z</time>
      </trkpt>
      <trkpt lat="37.94877" lon="-2.76916">
        <ele>1623.425595</ele>
        <time>2022-02-24T09:06:40.699Z</time>
      </trkpt>
      <trkpt lat="37.94847" lon="-2.77031">
        <ele>1621.25937</ele>
        <time>2022-02-24T09:07:11.924Z</time>
      </trkpt>
      <trkpt lat="37.94845" lon="-2.77053">
        <ele>1620.831761</ele>
        <time>2022-02-24T09:07:17.288Z</time>
      </trkpt>
      <trkpt lat="37.94859" lon="-2.77134">
        <ele>1619.2637</ele>
        <time>2022-02-24T09:07:37.592Z</time>
      </trkpt>
      <trkpt lat="37.94867" lon="-2.77216">
        <ele>1617.323262</ele>
        <time>2022-02-24T09:07:57.748Z</time>
      </trkpt>
      <trkpt lat="37.94883" lon="-2.77285">
        <ele>1615.58856</ele>
        <time>2022-02-24T09:08:14.994Z</time>
      </trkpt>
      <trkpt lat="37.94882" lon="-2.77324">
        <ele>1614.647207</ele>
        <time>2022-02-24T09:08:24.503Z</time>
      </trkpt>
      <trkpt lat="37.94861" lon="-2.774">
        <ele>1612.900812</ele>
        <time>2022-02-24T09:08:44.143Z</time>
      </trkpt>
      <trkpt lat="37.94858" lon="-2.77586">
        <ele>1609.6204</ele>
        <time>2022-02-24T09:09:31.369Z</time>
      </trkpt>
      <trkpt lat="37.94868" lon="-2.77632">
        <ele>1609.362836</ele>
        <time>2022-02-24T09:09:44.052Z</time>
      </trkpt>
      <trkpt lat="37.94883" lon="-2.77665">
        <ele>1609.295635</ele>
        <time>2022-02-24T09:09:54.285Z</time>
      </trkpt>
      <trkpt lat="37.94887" lon="-2.77715">
        <ele>1609.206989</ele>
        <time>2022-02-24T09:10:08.413Z</time>
      </trkpt>
      <trkpt lat="37.94864" lon="-2.77837">
        <ele>1608.965686</ele>
        <time>2022-02-24T09:10:49.738Z</time>
      </trkpt>
      <trkpt lat="37.94845" lon="-2.77879">
        <ele>1608.844151</ele>
        <time>2022-02-24T09:11:05.868Z</time>
      </trkpt>
      <trkpt lat="37.94825" lon="-2.77966">
        <ele>1608.618261</ele>
        <time>2022-02-24T09:11:32.445Z</time>
      </trkpt>
      <trkpt lat="37.94798" lon="-2.78021">
        <ele>1608.453224</ele>
        <time>2022-02-24T09:11:50.153Z</time>
      </trkpt>
      <trkpt lat="37.94754" lon="-2.78147">
        <ele>1603.761432</ele>
        <time>2022-02-24T09:12:22.890Z</time>
      </trkpt>
      <trkpt lat="37.94681" lon="-2.7842">
        <ele>1591.361837</ele>
        <time>2022-02-24T09:13:26.132Z</time>
      </trkpt>
      <trkpt lat="37.94658" lon="-2.78483">
        <ele>1588.674496</ele>
        <time>2022-02-24T09:13:42.010Z</time>
      </trkpt>
      <trkpt lat="37.94645" lon="-2.78542">
        <ele>1586.659265</ele>
        <time>2022-02-24T09:13:56.311Z</time>
      </trkpt>
      <trkpt lat="37.94657" lon="-2.78598">
        <ele>1584.753752</ele>
        <time>2022-02-24T09:14:09.946Z</time>
      </trkpt>
      <trkpt lat="37.94643" lon="-2.78625">
        <ele>1583.714488</ele>
        <time>2022-02-24T09:14:17.650Z</time>
      </trkpt>
      <trkpt lat="37.94622" lon="-2.78688">
        <ele>1581.747864</ele>
        <time>2022-02-24T09:14:34.360Z</time>
      </trkpt>
      <trkpt lat="37.9462" lon="-2.78722">
        <ele>1580.92327</ele>
        <time>2022-02-24T09:14:42.546Z</time>
      </trkpt>
      <trkpt lat="37.94629" lon="-2.78764">
        <ele>1579.888478</ele>
        <time>2022-02-24T09:14:52.957Z</time>
      </trkpt>
      <trkpt lat="37.94625" lon="-2.78806">
        <ele>1578.86782</ele>
        <time>2022-02-24T09:15:03.262Z</time>
      </trkpt>
      <trkpt lat="37.94631" lon="-2.7884">
        <ele>1578.041109</ele>
        <time>2022-02-24T09:15:11.708Z</time>
      </trkpt>
      <trkpt lat="37.94623" lon="-2.78865">
        <ele>1577.409181</ele>
        <time>2022-02-24T09:15:18.213Z</time>
      </trkpt>
      <trkpt lat="37.94603" lon="-2.78903">
        <ele>1576.661236</ele>
        <time>2022-02-24T09:15:29.713Z</time>
      </trkpt>
      <trkpt lat="37.9459" lon="-2.78921">
        <ele>1576.365283</ele>
        <time>2022-02-24T09:15:36.345Z</time>
      </trkpt>
      <trkpt lat="37.94531" lon="-2.78964">
        <ele>1575.318509</ele>
        <time>2022-02-24T09:15:59.532Z</time>
      </trkpt>
      <trkpt lat="37.94489" lon="-2.79006">
        <ele>1574.499509</ele>
        <time>2022-02-24T09:16:17.484Z</time>
      </trkpt>
      <trkpt lat="37.94405" lon="-2.79051">
        <ele>1573.489071</ele>
        <time>2022-02-24T09:16:48.645Z</time>
      </trkpt>
      <trkpt lat="37.94318" lon="-2.79087">
        <ele>1572.54749</ele>
        <time>2022-02-24T09:17:19.958Z</time>
      </trkpt>
      <trkpt lat="37.94228" lon="-2.7916">
        <ele>1572.731962</ele>
        <time>2022-02-24T09:17:58.792Z</time>
      </trkpt>
      <trkpt lat="37.9412" lon="-2.79227">
        <ele>1573.366686</ele>
        <time>2022-02-24T09:18:50.456Z</time>
      </trkpt>
      <trkpt lat="37.94024" lon="-2.79305">
        <ele>1574.516645</ele>
        <time>2022-02-24T09:19:40.438Z</time>
      </trkpt>
      <trkpt lat="37.9396" lon="-2.79348">
        <ele>1574.41945</ele>
        <time>2022-02-24T09:20:07.534Z</time>
      </trkpt>
      <trkpt lat="37.93919" lon="-2.79402">
        <ele>1573.812754</ele>
        <time>2022-02-24T09:20:27.894Z</time>
      </trkpt>
      <trkpt lat="37.93912" lon="-2.79419">
        <ele>1573.655547</ele>
        <time>2022-02-24T09:20:33.062Z</time>
      </trkpt>
      <trkpt lat="37.93906" lon="-2.79465">
        <ele>1573.277353</ele>
        <time>2022-02-24T09:20:45.223Z</time>
      </trkpt>
      <trkpt lat="37.93886" lon="-2.79506">
        <ele>1572.797256</ele>
        <time>2022-02-24T09:20:57.717Z</time>
      </trkpt>
      <trkpt lat="37.93872" lon="-2.7957">
        <ele>1571.815674</ele>
        <time>2022-02-24T09:21:14.690Z</time>
      </trkpt>
      <trkpt lat="37.93797" lon="-2.79715">
        <ele>1569.26725</ele>
        <time>2022-02-24T09:21:59.402Z</time>
      </trkpt>
      <trkpt lat="37.93777" lon="-2.79775">
        <ele>1568.35624</ele>
        <time>2022-02-24T09:22:16.352Z</time>
      </trkpt>
      <trkpt lat="37.93775" lon="-2.79818">
        <ele>1567.747068</ele>
        <time>2022-02-24T09:22:27.594Z</time>
      </trkpt>
      <trkpt lat="37.93789" lon="-2.79903">
        <ele>1566.533875</ele>
        <time>2022-02-24T09:22:50.045Z</time>
      </trkpt>
      <trkpt lat="37.93772" lon="-2.80009">
        <ele>1565.492719</ele>
        <time>2022-02-24T09:23:18.425Z</time>
      </trkpt>
      <trkpt lat="37.93773" lon="-2.80028">
        <ele>1565.31819</ele>
        <time>2022-02-24T09:23:23.431Z</time>
      </trkpt>
      <trkpt lat="37.93764" lon="-2.80057">
        <ele>1565.03218</ele>
        <time>2022-02-24T09:23:31.761Z</time>
      </trkpt>
      <trkpt lat="37.93771" lon="-2.80129">
        <ele>1564.369285</ele>
        <time>2022-02-24T09:23:51.732Z</time>
      </trkpt>
      <trkpt lat="37.9376" lon="-2.80172">
        <ele>1564.645742</ele>
        <time>2022-02-24T09:24:05.107Z</time>
      </trkpt>
      <trkpt lat="37.93744" lon="-2.80196">
        <ele>1564.910123</ele>
        <time>2022-02-24T09:24:14.938Z</time>
      </trkpt>
      <trkpt lat="37.937" lon="-2.80238">
        <ele>1565.484786</ele>
        <time>2022-02-24T09:24:37.766Z</time>
      </trkpt>
      <trkpt lat="37.93668" lon="-2.80258">
        <ele>1565.867094</ele>
        <time>2022-02-24T09:24:53.976Z</time>
      </trkpt>
      <trkpt lat="37.93638" lon="-2.80301">
        <ele>1566.547247</ele>
        <time>2022-02-24T09:25:15.608Z</time>
      </trkpt>
      <trkpt lat="37.9361" lon="-2.80329">
        <ele>1567.563723</ele>
        <time>2022-02-24T09:25:33.786Z</time>
      </trkpt>
      <trkpt lat="37.93566" lon="-2.8039">
        <ele>1569.397604</ele>
        <time>2022-02-24T09:26:07.560Z</time>
      </trkpt>
      <trkpt lat="37.93544" lon="-2.80434">
        <ele>1570.560363</ele>
        <time>2022-02-24T09:26:29.350Z</time>
      </trkpt>
      <trkpt lat="37.93461" lon="-2.80545">
        <ele>1573.98929</ele>
        <time>2022-02-24T09:27:32.431Z</time>
      </trkpt>
      <trkpt lat="37.9345" lon="-2.80556">
        <ele>1574.384103</ele>
        <time>2022-02-24T09:27:39.483Z</time>
      </trkpt>
      <trkpt lat="37.93363" lon="-2.80604">
        <ele>1577.043094</ele>
        <time>2022-02-24T09:28:26.749Z</time>
      </trkpt>
      <trkpt lat="37.9328" lon="-2.8064">
        <ele>1579.366729</ele>
        <time>2022-02-24T09:29:11.148Z</time>
      </trkpt>
      <trkpt lat="37.93248" lon="-2.80669">
        <ele>1580.396683</ele>
        <time>2022-02-24T09:29:30.847Z</time>
      </trkpt>
      <trkpt lat="37.9318" lon="-2.80705">
        <ele>1582.293225</ele>
        <time>2022-02-24T09:30:07.515Z</time>
      </trkpt>
      <trkpt lat="37.93132" lon="-2.80743">
        <ele>1583.743438</ele>
        <time>2022-02-24T09:30:35.939Z</time>
      </trkpt>
      <trkpt lat="37.93084" lon="-2.80741">
        <ele>1584.992464</ele>
        <time>2022-02-24T09:31:00.405Z</time>
      </trkpt>
      <trkpt lat="37.93038" lon="-2.80746">
        <ele>1586.14347</ele>
        <time>2022-02-24T09:31:23.304Z</time>
      </trkpt>
      <trkpt lat="37.92998" lon="-2.80741">
        <ele>1587.067399</ele>
        <time>2022-02-24T09:31:42.527Z</time>
      </trkpt>
      <trkpt lat="37.92945" lon="-2.80788">
        <ele>1588.575201</ele>
        <time>2022-02-24T09:32:13.542Z</time>
      </trkpt>
      <trkpt lat="37.92928" lon="-2.80795">
        <ele>1588.985346</ele>
        <time>2022-02-24T09:32:22.058Z</time>
      </trkpt>
      <trkpt lat="37.92881" lon="-2.80794">
        <ele>1590.102482</ele>
        <time>2022-02-24T09:32:44.819Z</time>
      </trkpt>
      <trkpt lat="37.92835" lon="-2.8085">
        <ele>1591.967156</ele>
        <time>2022-02-24T09:33:16.878Z</time>
      </trkpt>
      <trkpt lat="37.92815" lon="-2.80867">
        <ele>1592.683979</ele>
        <time>2022-02-24T09:33:29.425Z</time>
      </trkpt>
      <trkpt lat="37.92654" lon="-2.80901">
        <ele>1598.034461</ele>
        <time>2022-02-24T09:34:56.348Z</time>
      </trkpt>
      <trkpt lat="37.92549" lon="-2.80987">
        <ele>1602.680998</ele>
        <time>2022-02-24T09:36:07.832Z</time>
      </trkpt>
      <trkpt lat="37.92541" lon="-2.81034">
        <ele>1604.139788</ele>
        <time>2022-02-24T09:36:29.645Z</time>
      </trkpt>
      <trkpt lat="37.92514" lon="-2.81062">
        <ele>1605.470985</ele>
        <time>2022-02-24T09:36:49.026Z</time>
      </trkpt>
      <trkpt lat="37.92499" lon="-2.8111">
        <ele>1607.029524</ele>
        <time>2022-02-24T09:37:11.547Z</time>
      </trkpt>
      <trkpt lat="37.92475" lon="-2.81147">
        <ele>1608.487492</ele>
        <time>2022-02-24T09:37:32.525Z</time>
      </trkpt>
      <trkpt lat="37.9247" lon="-2.81164">
        <ele>1609.058264</ele>
        <time>2022-02-24T09:37:40.410Z</time>
      </trkpt>
      <trkpt lat="37.92473" lon="-2.81182">
        <ele>1609.658683</ele>
        <time>2022-02-24T09:37:48.358Z</time>
      </trkpt>
      <trkpt lat="37.92471" lon="-2.81197">
        <ele>1610.171736</ele>
        <time>2022-02-24T09:37:55.390Z</time>
      </trkpt>
      <trkpt lat="37.92443" lon="-2.81206">
        <ele>1611.376516</ele>
        <time>2022-02-24T09:38:11.707Z</time>
      </trkpt>
      <trkpt lat="37.92404" lon="-2.81234">
        <ele>1613.258986</ele>
        <time>2022-02-24T09:38:37.885Z</time>
      </trkpt>
      <trkpt lat="37.92391" lon="-2.813">
        <ele>1615.497041</ele>
        <time>2022-02-24T09:39:09.416Z</time>
      </trkpt>
      <trkpt lat="37.92352" lon="-2.81353">
        <ele>1617.95856</ele>
        <time>2022-02-24T09:39:44.379Z</time>
      </trkpt>
      <trkpt lat="37.92281" lon="-2.81507">
        <ele>1624.143675</ele>
        <time>2022-02-24T09:41:08.497Z</time>
      </trkpt>
      <trkpt lat="37.92252" lon="-2.8154">
        <ele>1625.306558</ele>
        <time>2022-02-24T09:41:28.823Z</time>
      </trkpt>
      <trkpt lat="37.92234" lon="-2.81606">
        <ele>1626.973254</ele>
        <time>2022-02-24T09:41:57.029Z</time>
      </trkpt>
      <trkpt lat="37.92233" lon="-2.81626">
        <ele>1627.436114</ele>
        <time>2022-02-24T09:42:04.937Z</time>
      </trkpt>
      <trkpt lat="37.92243" lon="-2.81664">
        <ele>1628.391839</ele>
        <time>2022-02-24T09:42:20.829Z</time>
      </trkpt>
      <trkpt lat="37.92273" lon="-2.81716">
        <ele>1629.990647</ele>
        <time>2022-02-24T09:42:46.453Z</time>
      </trkpt>
      <trkpt lat="37.92283" lon="-2.81778">
        <ele>1631.884078</ele>
        <time>2022-02-24T09:43:12.491Z</time>
      </trkpt>
      <trkpt lat="37.92298" lon="-2.81829">
        <ele>1633.530928</ele>
        <time>2022-02-24T09:43:36.221Z</time>
      </trkpt>
      <trkpt lat="37.92303" lon="-2.81867">
        <ele>1634.691147</ele>
        <time>2022-02-24T09:43:54.310Z</time>
      </trkpt>
      <trkpt lat="37.92329" lon="-2.81895">
        <ele>1635.968386</ele>
        <time>2022-02-24T09:44:14.702Z</time>
      </trkpt>
      <trkpt lat="37.92339" lon="-2.81927">
        <ele>1637.047696</ele>
        <time>2022-02-24T09:44:31.331Z</time>
      </trkpt>
      <trkpt lat="37.92312" lon="-2.82007">
        <ele>1639.849046</ele>
        <time>2022-02-24T09:45:13.605Z</time>
      </trkpt>
      <trkpt lat="37.92315" lon="-2.82022">
        <ele>1640.33328</ele>
        <time>2022-02-24T09:45:20.901Z</time>
      </trkpt>
      <trkpt lat="37.92332" lon="-2.8205">
        <ele>1641.484862</ele>
        <time>2022-02-24T09:45:36.733Z</time>
      </trkpt>
      <trkpt lat="37.92349" lon="-2.82132">
        <ele>1643.610777</ele>
        <time>2022-02-24T09:46:12.787Z</time>
      </trkpt>
      <trkpt lat="37.92348" lon="-2.82147">
        <ele>1643.498069</ele>
        <time>2022-02-24T09:46:18.796Z</time>
      </trkpt>
      <trkpt lat="37.92332" lon="-2.82186">
        <ele>1643.162651</ele>
        <time>2022-02-24T09:46:35.399Z</time>
      </trkpt>
      <trkpt lat="37.92333" lon="-2.82199">
        <ele>1643.061404</ele>
        <time>2022-02-24T09:46:39.843Z</time>
      </trkpt>
      <trkpt lat="37.92339" lon="-2.82214">
        <ele>1642.934663</ele>
        <time>2022-02-24T09:46:44.847Z</time>
      </trkpt>
      <trkpt lat="37.92357" lon="-2.82236">
        <ele>1642.695806</ele>
        <time>2022-02-24T09:46:53.399Z</time>
      </trkpt>
      <trkpt lat="37.92358" lon="-2.82246">
        <ele>1642.619034</ele>
        <time>2022-02-24T09:46:55.981Z</time>
      </trkpt>
      <trkpt lat="37.9235" lon="-2.82281">
        <ele>1642.342287</ele>
        <time>2022-02-24T09:47:04.938Z</time>
      </trkpt>
      <trkpt lat="37.92328" lon="-2.82343">
        <ele>1640.474157</ele>
        <time>2022-02-24T09:47:20.501Z</time>
      </trkpt>
      <trkpt lat="37.923" lon="-2.82373">
        <ele>1637.230792</ele>
        <time>2022-02-24T09:47:30.614Z</time>
      </trkpt>
      <trkpt lat="37.92292" lon="-2.82388">
        <ele>1636.035417</ele>
        <time>2022-02-24T09:47:34.174Z</time>
      </trkpt>
      <trkpt lat="37.92286" lon="-2.82431">
        <ele>1633.038963</ele>
        <time>2022-02-24T09:47:43.091Z</time>
      </trkpt>
      <trkpt lat="37.92297" lon="-2.82492">
        <ele>1628.763899</ele>
        <time>2022-02-24T09:47:55.702Z</time>
      </trkpt>
      <trkpt lat="37.92288" lon="-2.82537">
        <ele>1625.590283</ele>
        <time>2022-02-24T09:48:04.963Z</time>
      </trkpt>
      <trkpt lat="37.92272" lon="-2.82587">
        <ele>1621.961983</ele>
        <time>2022-02-24T09:48:15.701Z</time>
      </trkpt>
      <trkpt lat="37.92193" lon="-2.82689">
        <ele>1612.257454</ele>
        <time>2022-02-24T09:48:45.751Z</time>
      </trkpt>
      <trkpt lat="37.9217" lon="-2.8271">
        <ele>1610.178144</ele>
        <time>2022-02-24T09:48:53.700Z</time>
      </trkpt>
      <trkpt lat="37.92119" lon="-2.82738">
        <ele>1607.011474</ele>
        <time>2022-02-24T09:49:09.781Z</time>
      </trkpt>
      <trkpt lat="37.92075" lon="-2.82733">
        <ele>1604.507172</ele>
        <time>2022-02-24T09:49:22.252Z</time>
      </trkpt>
      <trkpt lat="37.92054" lon="-2.8274">
        <ele>1603.27939</ele>
        <time>2022-02-24T09:49:28.486Z</time>
      </trkpt>
      <trkpt lat="37.92025" lon="-2.82741">
        <ele>1601.657536</ele>
        <time>2022-02-24T09:49:36.674Z</time>
      </trkpt>
      <trkpt lat="37.91991" lon="-2.82717">
        <ele>1599.494848</ele>
        <time>2022-02-24T09:49:47.790Z</time>
      </trkpt>
      <trkpt lat="37.91975" lon="-2.8269">
        <ele>1598.073526</ele>
        <time>2022-02-24T09:49:55.067Z</time>
      </trkpt>
      <trkpt lat="37.91966" lon="-2.82684">
        <ele>1597.492407</ele>
        <time>2022-02-24T09:49:58.144Z</time>
      </trkpt>
      <trkpt lat="37.91959" lon="-2.82687">
        <ele>1597.085658</ele>
        <time>2022-02-24T09:50:00.227Z</time>
      </trkpt>
      <trkpt lat="37.91951" lon="-2.82697">
        <ele>1596.482733</ele>
        <time>2022-02-24T09:50:03.293Z</time>
      </trkpt>
      <trkpt lat="37.9192" lon="-2.82772">
        <ele>1592.832226</ele>
        <time>2022-02-24T09:50:22.347Z</time>
      </trkpt>
      <trkpt lat="37.91878" lon="-2.8278">
        <ele>1590.671328</ele>
        <time>2022-02-24T09:50:34.175Z</time>
      </trkpt>
      <trkpt lat="37.91808" lon="-2.82805">
        <ele>1587.919842</ele>
        <time>2022-02-24T09:50:55.690Z</time>
      </trkpt>
      <trkpt lat="37.9178" lon="-2.82821">
        <ele>1586.768562</ele>
        <time>2022-02-24T09:51:04.983Z</time>
      </trkpt>
      <trkpt lat="37.91756" lon="-2.82848">
        <ele>1585.562053</ele>
        <time>2022-02-24T09:51:14.864Z</time>
      </trkpt>
      <trkpt lat="37.91703" lon="-2.82866">
        <ele>1584.079352</ele>
        <time>2022-02-24T09:51:32.030Z</time>
      </trkpt>
      <trkpt lat="37.91676" lon="-2.82883">
        <ele>1583.903362</ele>
        <time>2022-02-24T09:51:41.906Z</time>
      </trkpt>
      <trkpt lat="37.91652" lon="-2.82924">
        <ele>1583.671757</ele>
        <time>2022-02-24T09:51:55.441Z</time>
      </trkpt>
      <trkpt lat="37.91619" lon="-2.82946">
        <ele>1583.457754</ele>
        <time>2022-02-24T09:52:09.527Z</time>
      </trkpt>
      <trkpt lat="37.91614" lon="-2.82969">
        <ele>1583.347887</ele>
        <time>2022-02-24T09:52:17.258Z</time>
      </trkpt>
      <trkpt lat="37.91613" lon="-2.8301">
        <ele>1583.16056</ele>
        <time>2022-02-24T09:52:31.305Z</time>
      </trkpt>
      <trkpt lat="37.91622" lon="-2.83135">
        <ele>1585.330259</ele>
        <time>2022-02-24T09:53:16.835Z</time>
      </trkpt>
      <trkpt lat="37.91613" lon="-2.832">
        <ele>1586.523785</ele>
        <time>2022-02-24T09:53:41.720Z</time>
      </trkpt>
      <trkpt lat="37.91623" lon="-2.83219">
        <ele>1586.935813</ele>
        <time>2022-02-24T09:53:51.291Z</time>
      </trkpt>
      <trkpt lat="37.91647" lon="-2.83236">
        <ele>1587.90874</ele>
        <time>2022-02-24T09:54:06.813Z</time>
      </trkpt>
      <trkpt lat="37.91657" lon="-2.83312">
        <ele>1590.772944</ele>
        <time>2022-02-24T09:54:43.924Z</time>
      </trkpt>
      <trkpt lat="37.91665" lon="-2.83328">
        <ele>1591.471741</ele>
        <time>2022-02-24T09:54:53.869Z</time>
      </trkpt>
      <trkpt lat="37.91679" lon="-2.83337">
        <ele>1592.19182</ele>
        <time>2022-02-24T09:55:03.910Z</time>
      </trkpt>
      <trkpt lat="37.91816" lon="-2.83304">
        <ele>1596.373282</ele>
        <time>2022-02-24T09:56:30.274Z</time>
      </trkpt>
      <trkpt lat="37.91842" lon="-2.83306">
        <ele>1596.635631</ele>
        <time>2022-02-24T09:56:40.967Z</time>
      </trkpt>
      <trkpt lat="37.91847" lon="-2.83311">
        <ele>1596.70562</ele>
        <time>2022-02-24T09:56:44.403Z</time>
      </trkpt>
      <trkpt lat="37.91884" lon="-2.83451">
        <ele>1596.580002</ele>
        <time>2022-02-24T09:57:22.437Z</time>
      </trkpt>
      <trkpt lat="37.9189" lon="-2.83463">
        <ele>1596.262549</ele>
        <time>2022-02-24T09:57:25.613Z</time>
      </trkpt>
      <trkpt lat="37.91927" lon="-2.83495">
        <ele>1595.010561</ele>
        <time>2022-02-24T09:57:38.843Z</time>
      </trkpt>
      <trkpt lat="37.9196" lon="-2.83506">
        <ele>1594.077111</ele>
        <time>2022-02-24T09:57:48.822Z</time>
      </trkpt>
      <trkpt lat="37.91976" lon="-2.83504">
        <ele>1593.603448</ele>
        <time>2022-02-24T09:57:54.409Z</time>
      </trkpt>
      <trkpt lat="37.92014" lon="-2.83544">
        <ele>1592.088556</ele>
        <time>2022-02-24T09:58:10.393Z</time>
      </trkpt>
      <trkpt lat="37.92047" lon="-2.83555">
        <ele>1590.626438</ele>
        <time>2022-02-24T09:58:22.584Z</time>
      </trkpt>
      <trkpt lat="37.92059" lon="-2.83554">
        <ele>1590.117927</ele>
        <time>2022-02-24T09:58:26.468Z</time>
      </trkpt>
      <trkpt lat="37.92088" lon="-2.83532">
        <ele>1588.628283</ele>
        <time>2022-02-24T09:58:38.155Z</time>
      </trkpt>
      <trkpt lat="37.92114" lon="-2.83523">
        <ele>1587.470419</ele>
        <time>2022-02-24T09:58:46.424Z</time>
      </trkpt>
      <trkpt lat="37.92151" lon="-2.83529">
        <ele>1585.868532</ele>
        <time>2022-02-24T09:58:56.815Z</time>
      </trkpt>
      <trkpt lat="37.92167" lon="-2.8355">
        <ele>1584.862358</ele>
        <time>2022-02-24T09:59:02.695Z</time>
      </trkpt>
      <trkpt lat="37.92196" lon="-2.8366">
        <ele>1576.544071</ele>
        <time>2022-02-24T09:59:26.038Z</time>
      </trkpt>
      <trkpt lat="37.92179" lon="-2.83701">
        <ele>1573.168472</ele>
        <time>2022-02-24T09:59:35.409Z</time>
      </trkpt>
      <trkpt lat="37.92182" lon="-2.83725">
        <ele>1571.423136</ele>
        <time>2022-02-24T09:59:40.130Z</time>
      </trkpt>
      <trkpt lat="37.92206" lon="-2.83745">
        <ele>1568.756783</ele>
        <time>2022-02-24T09:59:47.982Z</time>
      </trkpt>
      <trkpt lat="37.92213" lon="-2.83769">
        <ele>1567.928557</ele>
        <time>2022-02-24T09:59:53.620Z</time>
      </trkpt>
      <trkpt lat="37.92226" lon="-2.83784">
        <ele>1567.612031</ele>
        <time>2022-02-24T09:59:58.451Z</time>
      </trkpt>
      <trkpt lat="37.92258" lon="-2.83787">
        <ele>1567.00462</ele>
        <time>2022-02-24T10:00:08.424Z</time>
      </trkpt>
      <trkpt lat="37.92276" lon="-2.83782">
        <ele>1566.650543</ele>
        <time>2022-02-24T10:00:14.573Z</time>
      </trkpt>
      <trkpt lat="37.92314" lon="-2.8375">
        <ele>1565.801233</ele>
        <time>2022-02-24T10:00:31.258Z</time>
      </trkpt>
      <trkpt lat="37.92328" lon="-2.8375">
        <ele>1565.529869</ele>
        <time>2022-02-24T10:00:38.808Z</time>
      </trkpt>
      <trkpt lat="37.92365" lon="-2.83782">
        <ele>1564.612785</ele>
        <time>2022-02-24T10:00:57.962Z</time>
      </trkpt>
      <trkpt lat="37.92415" lon="-2.83814">
        <ele>1562.76304</ele>
        <time>2022-02-24T10:01:19.099Z</time>
      </trkpt>
      <trkpt lat="37.92433" lon="-2.83835">
        <ele>1561.958414</ele>
        <time>2022-02-24T10:01:26.854Z</time>
      </trkpt>
      <trkpt lat="37.92438" lon="-2.83852">
        <ele>1561.501437</ele>
        <time>2022-02-24T10:01:31.054Z</time>
      </trkpt>
      <trkpt lat="37.92434" lon="-2.83935">
        <ele>1559.350575</ele>
        <time>2022-02-24T10:01:50.151Z</time>
      </trkpt>
      <trkpt lat="37.92449" lon="-2.83982">
        <ele>1556.306228</ele>
        <time>2022-02-24T10:02:00.467Z</time>
      </trkpt>
      <trkpt lat="37.92461" lon="-2.84">
        <ele>1554.382791</ele>
        <time>2022-02-24T10:02:05.333Z</time>
      </trkpt>
      <trkpt lat="37.92487" lon="-2.84012">
        <ele>1551.576874</ele>
        <time>2022-02-24T10:02:12.450Z</time>
      </trkpt>
      <trkpt lat="37.92503" lon="-2.84028">
        <ele>1549.561041</ele>
        <time>2022-02-24T10:02:17.752Z</time>
      </trkpt>
      <trkpt lat="37.92506" lon="-2.84081">
        <ele>1545.364504</ele>
        <time>2022-02-24T10:02:28.318Z</time>
      </trkpt>
      <trkpt lat="37.92484" lon="-2.84105">
        <ele>1542.480786</ele>
        <time>2022-02-24T10:02:35.513Z</time>
      </trkpt>
      <trkpt lat="37.92447" lon="-2.84113">
        <ele>1538.808599</ele>
        <time>2022-02-24T10:02:45.084Z</time>
      </trkpt>
      <trkpt lat="37.9237" lon="-2.84161">
        <ele>1530.749608</ele>
        <time>2022-02-24T10:03:06.850Z</time>
      </trkpt>
      <trkpt lat="37.92337" lon="-2.84234">
        <ele>1524.518516</ele>
        <time>2022-02-24T10:03:24.583Z</time>
      </trkpt>
      <trkpt lat="37.92322" lon="-2.84251">
        <ele>1523.347888</ele>
        <time>2022-02-24T10:03:30.062Z</time>
      </trkpt>
      <trkpt lat="37.92252" lon="-2.84298">
        <ele>1520.02563</ele>
        <time>2022-02-24T10:03:53.060Z</time>
      </trkpt>
      <trkpt lat="37.92221" lon="-2.84304">
        <ele>1518.695131</ele>
        <time>2022-02-24T10:04:02.919Z</time>
      </trkpt>
      <trkpt lat="37.92201" lon="-2.84321">
        <ele>1517.670471</ele>
        <time>2022-02-24T10:04:10.676Z</time>
      </trkpt>
      <trkpt lat="37.92158" lon="-2.84312">
        <ele>1516.057723</ele>
        <time>2022-02-24T10:04:24.382Z</time>
      </trkpt>
      <trkpt lat="37.9207" lon="-2.84326">
        <ele>1513.733433</ele>
        <time>2022-02-24T10:04:52.435Z</time>
      </trkpt>
      <trkpt lat="37.92056" lon="-2.84337">
        <ele>1513.301675</ele>
        <time>2022-02-24T10:04:57.536Z</time>
      </trkpt>
      <trkpt lat="37.92028" lon="-2.8433">
        <ele>1512.544821</ele>
        <time>2022-02-24T10:05:06.459Z</time>
      </trkpt>
      <trkpt lat="37.91994" lon="-2.84342">
        <ele>1511.662874</ele>
        <time>2022-02-24T10:05:17.554Z</time>
      </trkpt>
      <trkpt lat="37.91962" lon="-2.84338">
        <ele>1511.530075</ele>
        <time>2022-02-24T10:05:27.814Z</time>
      </trkpt>
      <trkpt lat="37.91879" lon="-2.84353">
        <ele>1511.182255</ele>
        <time>2022-02-24T10:05:57.250Z</time>
      </trkpt>
      <trkpt lat="37.91817" lon="-2.84375">
        <ele>1510.976659</ele>
        <time>2022-02-24T10:06:24.186Z</time>
      </trkpt>
      <trkpt lat="37.91771" lon="-2.84408">
        <ele>1512.272975</ele>
        <time>2022-02-24T10:06:49.137Z</time>
      </trkpt>
      <trkpt lat="37.91655" lon="-2.84425">
        <ele>1515.109284</ele>
        <time>2022-02-24T10:07:49.821Z</time>
      </trkpt>
      <trkpt lat="37.91648" lon="-2.84438">
        <ele>1515.363831</ele>
        <time>2022-02-24T10:07:56.603Z</time>
      </trkpt>
      <trkpt lat="37.91647" lon="-2.8445">
        <ele>1515.4611</ele>
        <time>2022-02-24T10:08:01.609Z</time>
      </trkpt>
      <trkpt lat="37.91657" lon="-2.84505">
        <ele>1515.903183</ele>
        <time>2022-02-24T10:08:22.873Z</time>
      </trkpt>
      <trkpt lat="37.91653" lon="-2.84517">
        <ele>1516.007291</ele>
        <time>2022-02-24T10:08:27.723Z</time>
      </trkpt>
      <trkpt lat="37.91641" lon="-2.84531">
        <ele>1516.170427</ele>
        <time>2022-02-24T10:08:34.286Z</time>
      </trkpt>
      <trkpt lat="37.91604" lon="-2.84546">
        <ele>1516.551366</ele>
        <time>2022-02-24T10:08:48.996Z</time>
      </trkpt>
      <trkpt lat="37.91552" lon="-2.84546">
        <ele>1517.072856</ele>
        <time>2022-02-24T10:09:08.289Z</time>
      </trkpt>
      <trkpt lat="37.91542" lon="-2.84542">
        <ele>1517.065694</ele>
        <time>2022-02-24T10:09:12.170Z</time>
      </trkpt>
      <trkpt lat="37.91522" lon="-2.84522">
        <ele>1516.876121</ele>
        <time>2022-02-24T10:09:21.313Z</time>
      </trkpt>
      <trkpt lat="37.91511" lon="-2.84519">
        <ele>1516.785519</ele>
        <time>2022-02-24T10:09:25.332Z</time>
      </trkpt>
      <trkpt lat="37.91466" lon="-2.84551">
        <ele>1516.397603</ele>
        <time>2022-02-24T10:09:43.215Z</time>
      </trkpt>
      <trkpt lat="37.91447" lon="-2.84578">
        <ele>1516.182899</ele>
        <time>2022-02-24T10:09:53.091Z</time>
      </trkpt>
      <trkpt lat="37.91433" lon="-2.8459">
        <ele>1516.051345</ele>
        <time>2022-02-24T10:09:59.326Z</time>
      </trkpt>
      <trkpt lat="37.91388" lon="-2.84617">
        <ele>1515.60786</ele>
        <time>2022-02-24T10:10:15.972Z</time>
      </trkpt>
      <trkpt lat="37.91304" lon="-2.84613">
        <ele>1514.406277</ele>
        <time>2022-02-24T10:10:46.058Z</time>
      </trkpt>
      <trkpt lat="37.91255" lon="-2.8459">
        <ele>1513.661525</ele>
        <time>2022-02-24T10:11:03.510Z</time>
      </trkpt>
      <trkpt lat="37.91228" lon="-2.84597">
        <ele>1513.264547</ele>
        <time>2022-02-24T10:11:12.446Z</time>
      </trkpt>
      <trkpt lat="37.91181" lon="-2.84567">
        <ele>1511.567756</ele>
        <time>2022-02-24T10:11:28.345Z</time>
      </trkpt>
      <trkpt lat="37.91159" lon="-2.84569">
        <ele>1510.80993</ele>
        <time>2022-02-24T10:11:34.828Z</time>
      </trkpt>
      <trkpt lat="37.91119" lon="-2.84598">
        <ele>1509.205644</ele>
        <time>2022-02-24T10:11:48.457Z</time>
      </trkpt>
      <trkpt lat="37.91025" lon="-2.84639">
        <ele>1506.638992</ele>
        <time>2022-02-24T10:12:18.886Z</time>
      </trkpt>
      <trkpt lat="37.91003" lon="-2.84666">
        <ele>1506.347636</ele>
        <time>2022-02-24T10:12:28.924Z</time>
      </trkpt>
      <trkpt lat="37.90971" lon="-2.84682">
        <ele>1506.016735</ele>
        <time>2022-02-24T10:12:41.136Z</time>
      </trkpt>
      <trkpt lat="37.90924" lon="-2.8473">
        <ele>1505.44121</ele>
        <time>2022-02-24T10:13:05.100Z</time>
      </trkpt>
      <trkpt lat="37.90921" lon="-2.84741">
        <ele>1505.352857</ele>
        <time>2022-02-24T10:13:09.127Z</time>
      </trkpt>
      <trkpt lat="37.90901" lon="-2.84752">
        <ele>1505.125666</ele>
        <time>2022-02-24T10:13:18.641Z</time>
      </trkpt>
      <trkpt lat="37.90776" lon="-2.84737">
        <ele>1503.644538</ele>
        <time>2022-02-24T10:14:03.727Z</time>
      </trkpt>
      <trkpt lat="37.90749" lon="-2.8472">
        <ele>1503.294072</ele>
        <time>2022-02-24T10:14:12.952Z</time>
      </trkpt>
      <trkpt lat="37.90718" lon="-2.84736">
        <ele>1502.079033</ele>
        <time>2022-02-24T10:14:22.876Z</time>
      </trkpt>
      <trkpt lat="37.90663" lon="-2.84748">
        <ele>1499.179437</ele>
        <time>2022-02-24T10:14:39.036Z</time>
      </trkpt>
      <trkpt lat="37.90625" lon="-2.84762">
        <ele>1497.128389</ele>
        <time>2022-02-24T10:14:50.187Z</time>
      </trkpt>
      <trkpt lat="37.90605" lon="-2.84778">
        <ele>1495.888319</ele>
        <time>2022-02-24T10:14:56.773Z</time>
      </trkpt>
      <trkpt lat="37.90592" lon="-2.84781">
        <ele>1495.178045</ele>
        <time>2022-02-24T10:15:00.530Z</time>
      </trkpt>
      <trkpt lat="37.9058" lon="-2.84775">
        <ele>1494.536985</ele>
        <time>2022-02-24T10:15:03.919Z</time>
      </trkpt>
      <trkpt lat="37.90527" lon="-2.8469">
        <ele>1490.009789</ele>
        <time>2022-02-24T10:15:27.967Z</time>
      </trkpt>
      <trkpt lat="37.9051" lon="-2.84682">
        <ele>1489.03645</ele>
        <time>2022-02-24T10:15:33.222Z</time>
      </trkpt>
      <trkpt lat="37.90498" lon="-2.84687">
        <ele>1488.373198</ele>
        <time>2022-02-24T10:15:36.833Z</time>
      </trkpt>
      <trkpt lat="37.90447" lon="-2.84733">
        <ele>1485.080925</ele>
        <time>2022-02-24T10:15:54.876Z</time>
      </trkpt>
      <trkpt lat="37.90411" lon="-2.84752">
        <ele>1483.612514</ele>
        <time>2022-02-24T10:16:06.083Z</time>
      </trkpt>
      <trkpt lat="37.90327" lon="-2.84779">
        <ele>1481.264254</ele>
        <time>2022-02-24T10:16:31.707Z</time>
      </trkpt>
      <trkpt lat="37.90299" lon="-2.84775">
        <ele>1480.481401</ele>
        <time>2022-02-24T10:16:40.591Z</time>
      </trkpt>
      <trkpt lat="37.90132" lon="-2.84857">
        <ele>1481.786735</ele>
        <time>2022-02-24T10:17:58.918Z</time>
      </trkpt>
      <trkpt lat="37.90095" lon="-2.84882">
        <ele>1482.529159</ele>
        <time>2022-02-24T10:18:23.029Z</time>
      </trkpt>
      <trkpt lat="37.90077" lon="-2.84863">
        <ele>1482.332212</ele>
        <time>2022-02-24T10:18:35.842Z</time>
      </trkpt>
      <trkpt lat="37.9004" lon="-2.8486">
        <ele>1481.995405</ele>
        <time>2022-02-24T10:18:54.606Z</time>
      </trkpt>
      <trkpt lat="37.90033" lon="-2.84855">
        <ele>1481.916971</ele>
        <time>2022-02-24T10:18:58.769Z</time>
      </trkpt>
      <trkpt lat="37.9002" lon="-2.84843">
        <ele>1481.771768</ele>
        <time>2022-02-24T10:19:05.941Z</time>
      </trkpt>
      <trkpt lat="37.90016" lon="-2.8482">
        <ele>1481.605176</ele>
        <time>2022-02-24T10:19:13.365Z</time>
      </trkpt>
      <trkpt lat="37.90026" lon="-2.84767">
        <ele>1481.211661</ele>
        <time>2022-02-24T10:19:29.673Z</time>
      </trkpt>
      <trkpt lat="37.90029" lon="-2.84699">
        <ele>1478.282411</ele>
        <time>2022-02-24T10:19:44.094Z</time>
      </trkpt>
      <trkpt lat="37.90039" lon="-2.84676">
        <ele>1475.539231</ele>
        <time>2022-02-24T10:19:49.233Z</time>
      </trkpt>
      <trkpt lat="37.90033" lon="-2.84634">
        <ele>1471.182449</ele>
        <time>2022-02-24T10:19:57.518Z</time>
      </trkpt>
      <trkpt lat="37.90039" lon="-2.84592">
        <ele>1466.880786</ele>
        <time>2022-02-24T10:20:05.553Z</time>
      </trkpt>
      <trkpt lat="37.90035" lon="-2.84562">
        <ele>1463.741794</ele>
        <time>2022-02-24T10:20:11.616Z</time>
      </trkpt>
      <trkpt lat="37.9004" lon="-2.8455">
        <ele>1462.273842</ele>
        <time>2022-02-24T10:20:14.245Z</time>
      </trkpt>
      <trkpt lat="37.90121" lon="-2.84445">
        <ele>1445.245981</ele>
        <time>2022-02-24T10:20:42.294Z</time>
      </trkpt>
      <trkpt lat="37.90124" lon="-2.8443">
        <ele>1443.421716</ele>
        <time>2022-02-24T10:20:45.268Z</time>
      </trkpt>
      <trkpt lat="37.90115" lon="-2.84416">
        <ele>1441.262926</ele>
        <time>2022-02-24T10:20:48.480Z</time>
      </trkpt>
      <trkpt lat="37.90099" lon="-2.84412">
        <ele>1438.704737</ele>
        <time>2022-02-24T10:20:52.452Z</time>
      </trkpt>
      <trkpt lat="37.90075" lon="-2.84449">
        <ele>1432.781053</ele>
        <time>2022-02-24T10:21:01.736Z</time>
      </trkpt>
      <trkpt lat="37.9005" lon="-2.84441">
        <ele>1428.457607</ele>
        <time>2022-02-24T10:21:08.047Z</time>
      </trkpt>
      <trkpt lat="37.90031" lon="-2.84422">
        <ele>1423.796124</ele>
        <time>2022-02-24T10:21:13.746Z</time>
      </trkpt>
      <trkpt lat="37.90019" lon="-2.84392">
        <ele>1418.607484</ele>
        <time>2022-02-24T10:21:20.059Z</time>
      </trkpt>
      <trkpt lat="37.90008" lon="-2.8438">
        <ele>1415.730825</ele>
        <time>2022-02-24T10:21:23.511Z</time>
      </trkpt>
      <trkpt lat="37.90003" lon="-2.84344">
        <ele>1410.111032</ele>
        <time>2022-02-24T10:21:30.306Z</time>
      </trkpt>
      <trkpt lat="37.89945" lon="-2.84316">
        <ele>1398.09544</ele>
        <time>2022-02-24T10:21:44.525Z</time>
      </trkpt>
      <trkpt lat="37.8993" lon="-2.84315">
        <ele>1395.041581</ele>
        <time>2022-02-24T10:21:48.137Z</time>
      </trkpt>
      <trkpt lat="37.89799" lon="-2.84322">
        <ele>1368.146521</ele>
        <time>2022-02-24T10:22:18.336Z</time>
      </trkpt>
      <trkpt lat="37.89725" lon="-2.84357">
        <ele>1354.362113</ele>
        <time>2022-02-24T10:22:37.121Z</time>
      </trkpt>
      <trkpt lat="37.89672" lon="-2.84353">
        <ele>1348.191924</ele>
        <time>2022-02-24T10:22:50.323Z</time>
      </trkpt>
      <trkpt lat="37.89637" lon="-2.84368">
        <ele>1343.935478</ele>
        <time>2022-02-24T10:22:59.908Z</time>
      </trkpt>
      <trkpt lat="37.89574" lon="-2.8443">
        <ele>1335.280695</ele>
        <time>2022-02-24T10:23:20.689Z</time>
      </trkpt>
      <trkpt lat="37.89567" lon="-2.84427">
        <ele>1334.622436</ele>
        <time>2022-02-24T10:23:22.706Z</time>
      </trkpt>
      <trkpt lat="37.89569" lon="-2.84411">
        <ele>1333.541928</ele>
        <time>2022-02-24T10:23:26.064Z</time>
      </trkpt>
      <trkpt lat="37.89588" lon="-2.84356">
        <ele>1329.497853</ele>
        <time>2022-02-24T10:23:38.919Z</time>
      </trkpt>
      <trkpt lat="37.89584" lon="-2.843">
        <ele>1325.731084</ele>
        <time>2022-02-24T10:23:50.807Z</time>
      </trkpt>
      <trkpt lat="37.89593" lon="-2.84278">
        <ele>1324.086068</ele>
        <time>2022-02-24T10:23:55.947Z</time>
      </trkpt>
      <trkpt lat="37.89652" lon="-2.84221">
        <ele>1317.849082</ele>
        <time>2022-02-24T10:24:15.124Z</time>
      </trkpt>
      <trkpt lat="37.89689" lon="-2.84215">
        <ele>1314.680564</ele>
        <time>2022-02-24T10:24:24.821Z</time>
      </trkpt>
      <trkpt lat="37.89704" lon="-2.84166">
        <ele>1311.214589</ele>
        <time>2022-02-24T10:24:35.513Z</time>
      </trkpt>
      <trkpt lat="37.8973" lon="-2.84115">
        <ele>1307.12398</ele>
        <time>2022-02-24T10:24:48.544Z</time>
      </trkpt>
      <trkpt lat="37.89746" lon="-2.84101">
        <ele>1305.981953</ele>
        <time>2022-02-24T10:24:53.947Z</time>
      </trkpt>
      <trkpt lat="37.89746" lon="-2.8408">
        <ele>1305.458371</ele>
        <time>2022-02-24T10:24:58.615Z</time>
      </trkpt>
      <trkpt lat="37.89765" lon="-2.84055">
        <ele>1304.542556</ele>
        <time>2022-02-24T10:25:06.833Z</time>
      </trkpt>
      <trkpt lat="37.89776" lon="-2.84027">
        <ele>1303.738804</ele>
        <time>2022-02-24T10:25:14.290Z</time>
      </trkpt>
      <trkpt lat="37.898" lon="-2.84016">
        <ele>1302.914636</ele>
        <time>2022-02-24T10:25:22.028Z</time>
      </trkpt>
      <trkpt lat="37.89829" lon="-2.84022">
        <ele>1301.936098</ele>
        <time>2022-02-24T10:25:31.486Z</time>
      </trkpt>
      <trkpt lat="37.8987" lon="-2.83969">
        <ele>1300.362484</ele>
        <time>2022-02-24T10:25:51.155Z</time>
      </trkpt>
      <trkpt lat="37.89865" lon="-2.83961">
        <ele>1300.344048</ele>
        <time>2022-02-24T10:25:54.038Z</time>
      </trkpt>
      <trkpt lat="37.89768" lon="-2.83957">
        <ele>1300.126179</ele>
        <time>2022-02-24T10:26:31.281Z</time>
      </trkpt>
      <trkpt lat="37.89758" lon="-2.83963">
        <ele>1300.101461</ele>
        <time>2022-02-24T10:26:35.383Z</time>
      </trkpt>
      <trkpt lat="37.89739" lon="-2.84008">
        <ele>1300.010091</ele>
        <time>2022-02-24T10:26:50.360Z</time>
      </trkpt>
      <trkpt lat="37.89709" lon="-2.84021">
        <ele>1299.693285</ele>
        <time>2022-02-24T10:27:01.738Z</time>
      </trkpt>
      <trkpt lat="37.89669" lon="-2.84072">
        <ele>1298.831147</ele>
        <time>2022-02-24T10:27:21.556Z</time>
      </trkpt>
      <trkpt lat="37.896" lon="-2.84101">
        <ele>1297.733161</ele>
        <time>2022-02-24T10:27:45.365Z</time>
      </trkpt>
      <trkpt lat="37.89562" lon="-2.84128">
        <ele>1296.926445</ele>
        <time>2022-02-24T10:27:59.000Z</time>
      </trkpt>
      <trkpt lat="37.89547" lon="-2.8415">
        <ele>1296.292196</ele>
        <time>2022-02-24T10:28:06.214Z</time>
      </trkpt>
      <trkpt lat="37.89528" lon="-2.84167">
        <ele>1295.671042</ele>
        <time>2022-02-24T10:28:13.191Z</time>
      </trkpt>
      <trkpt lat="37.89487" lon="-2.84189">
        <ele>1294.462235</ele>
        <time>2022-02-24T10:28:26.971Z</time>
      </trkpt>
      <trkpt lat="37.89453" lon="-2.84287">
        <ele>1292.130004</ele>
        <time>2022-02-24T10:28:53.919Z</time>
      </trkpt>
      <trkpt lat="37.89424" lon="-2.84306">
        <ele>1291.127177</ele>
        <time>2022-02-24T10:29:04.750Z</time>
      </trkpt>
      <trkpt lat="37.89401" lon="-2.84357">
        <ele>1289.725913</ele>
        <time>2022-02-24T10:29:19.210Z</time>
      </trkpt>
      <trkpt lat="37.89357" lon="-2.84395">
        <ele>1288.109992</ele>
        <time>2022-02-24T10:29:35.290Z</time>
      </trkpt>
      <trkpt lat="37.89325" lon="-2.84431">
        <ele>1286.747133</ele>
        <time>2022-02-24T10:29:48.398Z</time>
      </trkpt>
      <trkpt lat="37.89311" lon="-2.84458">
        <ele>1285.652705</ele>
        <time>2022-02-24T10:29:55.890Z</time>
      </trkpt>
      <trkpt lat="37.89291" lon="-2.84517">
        <ele>1283.426313</ele>
        <time>2022-02-24T10:30:11.035Z</time>
      </trkpt>
      <trkpt lat="37.8928" lon="-2.84535">
        <ele>1282.613774</ele>
        <time>2022-02-24T10:30:16.512Z</time>
      </trkpt>
      <trkpt lat="37.89211" lon="-2.84604">
        <ele>1278.752168</ele>
        <time>2022-02-24T10:30:41.699Z</time>
      </trkpt>
      <trkpt lat="37.8921" lon="-2.84618">
        <ele>1278.251746</ele>
        <time>2022-02-24T10:30:44.931Z</time>
      </trkpt>
      <trkpt lat="37.89224" lon="-2.84654">
        <ele>1276.859714</ele>
        <time>2022-02-24T10:30:54.045Z</time>
      </trkpt>
      <trkpt lat="37.89224" lon="-2.84716">
        <ele>1274.71406</ele>
        <time>2022-02-24T10:31:08.556Z</time>
      </trkpt>
      <trkpt lat="37.89216" lon="-2.84737">
        <ele>1273.902527</ele>
        <time>2022-02-24T10:31:14.108Z</time>
      </trkpt>
      <trkpt lat="37.89183" lon="-2.84762">
        <ele>1272.178406</ele>
        <time>2022-02-24T10:31:25.679Z</time>
      </trkpt>
      <trkpt lat="37.89145" lon="-2.848">
        <ele>1270.023396</ele>
        <time>2022-02-24T10:31:39.867Z</time>
      </trkpt>
      <trkpt lat="37.89121" lon="-2.84813">
        <ele>1268.850477</ele>
        <time>2022-02-24T10:31:47.382Z</time>
      </trkpt>
      <trkpt lat="37.89109" lon="-2.8484">
        <ele>1267.762218</ele>
        <time>2022-02-24T10:31:54.337Z</time>
      </trkpt>
      <trkpt lat="37.89109" lon="-2.84869">
        <ele>1266.706225</ele>
        <time>2022-02-24T10:32:00.986Z</time>
      </trkpt>
      <trkpt lat="37.89101" lon="-2.84873">
        <ele>1266.295112</ele>
        <time>2022-02-24T10:32:03.633Z</time>
      </trkpt>
      <trkpt lat="37.89087" lon="-2.84871">
        <ele>1265.663932</ele>
        <time>2022-02-24T10:32:07.635Z</time>
      </trkpt>
      <trkpt lat="37.89067" lon="-2.84887">
        <ele>1264.560427</ele>
        <time>2022-02-24T10:32:14.837Z</time>
      </trkpt>
      <trkpt lat="37.89057" lon="-2.84907">
        <ele>1263.739902</ele>
        <time>2022-02-24T10:32:20.150Z</time>
      </trkpt>
      <trkpt lat="37.89052" lon="-2.84937">
        <ele>1262.733283</ele>
        <time>2022-02-24T10:32:27.603Z</time>
      </trkpt>
      <trkpt lat="37.8902" lon="-2.84982">
        <ele>1261.384825</ele>
        <time>2022-02-24T10:32:42.142Z</time>
      </trkpt>
      <trkpt lat="37.89" lon="-2.84998">
        <ele>1260.720233</ele>
        <time>2022-02-24T10:32:49.394Z</time>
      </trkpt>
      <trkpt lat="37.88958" lon="-2.85011">
        <ele>1259.526659</ele>
        <time>2022-02-24T10:33:02.690Z</time>
      </trkpt>
      <trkpt lat="37.88904" lon="-2.85049">
        <ele>1257.82409</ele>
        <time>2022-02-24T10:33:22.838Z</time>
      </trkpt>
      <trkpt lat="37.88884" lon="-2.85056">
        <ele>1257.472514</ele>
        <time>2022-02-24T10:33:30.084Z</time>
      </trkpt>
      <trkpt lat="37.88845" lon="-2.85088">
        <ele>1256.712043</ele>
        <time>2022-02-24T10:33:46.148Z</time>
      </trkpt>
      <trkpt lat="37.88795" lon="-2.8514">
        <ele>1255.644767</ele>
        <time>2022-02-24T10:34:07.958Z</time>
      </trkpt>
      <trkpt lat="37.88751" lon="-2.8521">
        <ele>1254.103335</ele>
        <time>2022-02-24T10:34:30.570Z</time>
      </trkpt>
      <trkpt lat="37.88712" lon="-2.85253">
        <ele>1252.46602</ele>
        <time>2022-02-24T10:34:46.696Z</time>
      </trkpt>
      <trkpt lat="37.88692" lon="-2.85265">
        <ele>1251.747306</ele>
        <time>2022-02-24T10:34:53.613Z</time>
      </trkpt>
      <trkpt lat="37.88631" lon="-2.85274">
        <ele>1249.806085</ele>
        <time>2022-02-24T10:35:12.005Z</time>
      </trkpt>
      <trkpt lat="37.88574" lon="-2.85245">
        <ele>1247.910094</ele>
        <time>2022-02-24T10:35:30.278Z</time>
      </trkpt>
      <trkpt lat="37.88521" lon="-2.85291">
        <ele>1245.925532</ele>
        <time>2022-02-24T10:35:49.929Z</time>
      </trkpt>
      <trkpt lat="37.88491" lon="-2.85323">
        <ele>1244.728774</ele>
        <time>2022-02-24T10:36:02.057Z</time>
      </trkpt>
      <trkpt lat="37.88481" lon="-2.85333">
        <ele>1244.331161</ele>
        <time>2022-02-24T10:36:06.121Z</time>
      </trkpt>
      <trkpt lat="37.88449" lon="-2.85356">
        <ele>1243.535497</ele>
        <time>2022-02-24T10:36:18.002Z</time>
      </trkpt>
      <trkpt lat="37.8843" lon="-2.85381">
        <ele>1243.305806</ele>
        <time>2022-02-24T10:36:27.256Z</time>
      </trkpt>
      <trkpt lat="37.8841" lon="-2.85393">
        <ele>1243.122019</ele>
        <time>2022-02-24T10:36:34.816Z</time>
      </trkpt>
      <trkpt lat="37.88375" lon="-2.85397">
        <ele>1242.83592</ele>
        <time>2022-02-24T10:36:47.017Z</time>
      </trkpt>
      <trkpt lat="37.88334" lon="-2.85417">
        <ele>1242.46497</ele>
        <time>2022-02-24T10:37:03.214Z</time>
      </trkpt>
      <trkpt lat="37.88292" lon="-2.85422">
        <ele>1242.109369</ele>
        <time>2022-02-24T10:37:18.914Z</time>
      </trkpt>
      <trkpt lat="37.88257" lon="-2.85432">
        <ele>1241.757522</ele>
        <time>2022-02-24T10:37:32.389Z</time>
      </trkpt>
      <trkpt lat="37.882" lon="-2.85428">
        <ele>1241.195603</ele>
        <time>2022-02-24T10:37:53.184Z</time>
      </trkpt>
      <trkpt lat="37.8818" lon="-2.8544">
        <ele>1240.981196</ele>
        <time>2022-02-24T10:38:00.917Z</time>
      </trkpt>
      <trkpt lat="37.88139" lon="-2.85481">
        <ele>1240.469339</ele>
        <time>2022-02-24T10:38:18.066Z</time>
      </trkpt>
      <trkpt lat="37.88061" lon="-2.85488">
        <ele>1237.328363</ele>
        <time>2022-02-24T10:38:42.059Z</time>
      </trkpt>
      <trkpt lat="37.88034" lon="-2.85515">
        <ele>1235.868272</ele>
        <time>2022-02-24T10:38:51.974Z</time>
      </trkpt>
      <trkpt lat="37.88009" lon="-2.85558">
        <ele>1234.050554</ele>
        <time>2022-02-24T10:39:04.017Z</time>
      </trkpt>
      <trkpt lat="37.87955" lon="-2.85582">
        <ele>1231.716646</ele>
        <time>2022-02-24T10:39:20.317Z</time>
      </trkpt>
      <trkpt lat="37.87905" lon="-2.85568">
        <ele>1229.733342</ele>
        <time>2022-02-24T10:39:35.115Z</time>
      </trkpt>
      <trkpt lat="37.87879" lon="-2.85545">
        <ele>1228.535362</ele>
        <time>2022-02-24T10:39:44.322Z</time>
      </trkpt>
      <trkpt lat="37.87866" lon="-2.8554">
        <ele>1227.98508</ele>
        <time>2022-02-24T10:39:48.675Z</time>
      </trkpt>
      <trkpt lat="37.87815" lon="-2.85545">
        <ele>1226.037444</ele>
        <time>2022-02-24T10:40:04.688Z</time>
      </trkpt>
      <trkpt lat="37.87755" lon="-2.85528">
        <ele>1225.171971</ele>
        <time>2022-02-24T10:40:24.789Z</time>
      </trkpt>
      <trkpt lat="37.87662" lon="-2.85543">
        <ele>1224.153142</ele>
        <time>2022-02-24T10:40:58.343Z</time>
      </trkpt>
      <trkpt lat="37.87616" lon="-2.85566">
        <ele>1223.514275</ele>
        <time>2022-02-24T10:41:16.187Z</time>
      </trkpt>
      <trkpt lat="37.87586" lon="-2.85617">
        <ele>1222.676715</ele>
        <time>2022-02-24T10:41:33.741Z</time>
      </trkpt>
      <trkpt lat="37.87552" lon="-2.85654">
        <ele>1221.944039</ele>
        <time>2022-02-24T10:41:48.337Z</time>
      </trkpt>
      <trkpt lat="37.87518" lon="-2.8568">
        <ele>1221.276265</ele>
        <time>2022-02-24T10:42:01.186Z</time>
      </trkpt>
      <trkpt lat="37.87503" lon="-2.85698">
        <ele>1220.933695</ele>
        <time>2022-02-24T10:42:07.717Z</time>
      </trkpt>
      <trkpt lat="37.87435" lon="-2.85817">
        <ele>1216.865934</ele>
        <time>2022-02-24T10:42:43.450Z</time>
      </trkpt>
      <trkpt lat="37.87416" lon="-2.85829">
        <ele>1216.059885</ele>
        <time>2022-02-24T10:42:50.134Z</time>
      </trkpt>
      <trkpt lat="37.87372" lon="-2.8584">
        <ele>1214.442245</ele>
        <time>2022-02-24T10:43:03.124Z</time>
      </trkpt>
      <trkpt lat="37.87345" lon="-2.85866">
        <ele>1212.372947</ele>
        <time>2022-02-24T10:43:12.692Z</time>
      </trkpt>
      <trkpt lat="37.87331" lon="-2.85894">
        <ele>1210.673255</ele>
        <time>2022-02-24T10:43:20.132Z</time>
      </trkpt>
      <trkpt lat="37.87334" lon="-2.85984">
        <ele>1206.08349</ele>
        <time>2022-02-24T10:43:39.812Z</time>
      </trkpt>
      <trkpt lat="37.8733" lon="-2.8601">
        <ele>1204.728108</ele>
        <time>2022-02-24T10:43:45.427Z</time>
      </trkpt>
      <trkpt lat="37.87325" lon="-2.86023">
        <ele>1204.021456</ele>
        <time>2022-02-24T10:43:48.513Z</time>
      </trkpt>
      <trkpt lat="37.87274" lon="-2.86089">
        <ele>1199.169726</ele>
        <time>2022-02-24T10:44:07.993Z</time>
      </trkpt>
      <trkpt lat="37.87268" lon="-2.86107">
        <ele>1198.109968</ele>
        <time>2022-02-24T10:44:12.115Z</time>
      </trkpt>
      <trkpt lat="37.87269" lon="-2.8615">
        <ele>1195.815159</ele>
        <time>2022-02-24T10:44:21.175Z</time>
      </trkpt>
      <trkpt lat="37.87289" lon="-2.86226">
        <ele>1191.536556</ele>
        <time>2022-02-24T10:44:38.715Z</time>
      </trkpt>
      <trkpt lat="37.87288" lon="-2.86269">
        <ele>1189.76995</ele>
        <time>2022-02-24T10:44:48.823Z</time>
      </trkpt>
      <trkpt lat="37.87284" lon="-2.86286">
        <ele>1189.238893</ele>
        <time>2022-02-24T10:44:52.938Z</time>
      </trkpt>
      <trkpt lat="37.87275" lon="-2.86299">
        <ele>1188.71548</ele>
        <time>2022-02-24T10:44:57.016Z</time>
      </trkpt>
      <trkpt lat="37.87219" lon="-2.86348">
        <ele>1186.092799</ele>
        <time>2022-02-24T10:45:18.140Z</time>
      </trkpt>
      <trkpt lat="37.87207" lon="-2.86383">
        <ele>1184.937475</ele>
        <time>2022-02-24T10:45:27.282Z</time>
      </trkpt>
      <trkpt lat="37.87216" lon="-2.86437">
        <ele>1183.194242</ele>
        <time>2022-02-24T10:45:40.388Z</time>
      </trkpt>
      <trkpt lat="37.87253" lon="-2.86498">
        <ele>1180.528675</ele>
        <time>2022-02-24T10:45:58.487Z</time>
      </trkpt>
      <trkpt lat="37.87265" lon="-2.86557">
        <ele>1178.409793</ele>
        <time>2022-02-24T10:46:12.510Z</time>
      </trkpt>
      <trkpt lat="37.87291" lon="-2.86629">
        <ele>1175.685662</ele>
        <time>2022-02-24T10:46:30.381Z</time>
      </trkpt>
      <trkpt lat="37.87293" lon="-2.86665">
        <ele>1174.896622</ele>
        <time>2022-02-24T10:46:38.642Z</time>
      </trkpt>
      <trkpt lat="37.87307" lon="-2.86713">
        <ele>1173.773784</ele>
        <time>2022-02-24T10:46:50.491Z</time>
      </trkpt>
      <trkpt lat="37.87304" lon="-2.86763">
        <ele>1172.672701</ele>
        <time>2022-02-24T10:47:02.881Z</time>
      </trkpt>
      <trkpt lat="37.87289" lon="-2.86806">
        <ele>1171.650889</ele>
        <time>2022-02-24T10:47:15.205Z</time>
      </trkpt>
      <trkpt lat="37.87237" lon="-2.86873">
        <ele>1170.539967</ele>
        <time>2022-02-24T10:47:42.141Z</time>
      </trkpt>
      <trkpt lat="37.87211" lon="-2.86958">
        <ele>1170.241629</ele>
        <time>2022-02-24T10:48:08.602Z</time>
      </trkpt>
      <trkpt lat="37.87159" lon="-2.86982">
        <ele>1170.011336</ele>
        <time>2022-02-24T10:48:28.928Z</time>
      </trkpt>
      <trkpt lat="37.87142" lon="-2.86998">
        <ele>1169.710378</ele>
        <time>2022-02-24T10:48:36.399Z</time>
      </trkpt>
      <trkpt lat="37.87113" lon="-2.87066">
        <ele>1168.064337</ele>
        <time>2022-02-24T10:48:56.483Z</time>
      </trkpt>
      <trkpt lat="37.87106" lon="-2.87092">
        <ele>1167.458693</ele>
        <time>2022-02-24T10:49:03.446Z</time>
      </trkpt>
      <trkpt lat="37.87087" lon="-2.87117">
        <ele>1166.734177</ele>
        <time>2022-02-24T10:49:11.587Z</time>
      </trkpt>
      <trkpt lat="37.87088" lon="-2.87174">
        <ele>1165.51433</ele>
        <time>2022-02-24T10:49:24.943Z</time>
      </trkpt>
      <trkpt lat="37.87111" lon="-2.87228">
        <ele>1163.855177</ele>
        <time>2022-02-24T10:49:39.279Z</time>
      </trkpt>
      <trkpt lat="37.87105" lon="-2.87246">
        <ele>1163.27876</ele>
        <time>2022-02-24T10:49:43.851Z</time>
      </trkpt>
      <trkpt lat="37.87109" lon="-2.87287">
        <ele>1162.064102</ele>
        <time>2022-02-24T10:49:53.562Z</time>
      </trkpt>
      <trkpt lat="37.87104" lon="-2.87322">
        <ele>1161.013227</ele>
        <time>2022-02-24T10:50:01.978Z</time>
      </trkpt>
      <trkpt lat="37.87136" lon="-2.87374">
        <ele>1159.043531</ele>
        <time>2022-02-24T10:50:17.855Z</time>
      </trkpt>
      <trkpt lat="37.87144" lon="-2.8742">
        <ele>1157.614058</ele>
        <time>2022-02-24T10:50:29.324Z</time>
      </trkpt>
      <trkpt lat="37.8716" lon="-2.87452">
        <ele>1156.439059</ele>
        <time>2022-02-24T10:50:38.512Z</time>
      </trkpt>
      <trkpt lat="37.87163" lon="-2.87472">
        <ele>1155.820272</ele>
        <time>2022-02-24T10:50:43.375Z</time>
      </trkpt>
      <trkpt lat="37.8716" lon="-2.87494">
        <ele>1155.125437</ele>
        <time>2022-02-24T10:50:48.733Z</time>
      </trkpt>
      <trkpt lat="37.87137" lon="-2.87514">
        <ele>1154.00679</ele>
        <time>2022-02-24T10:50:57.365Z</time>
      </trkpt>
      <trkpt lat="37.87123" lon="-2.87547">
        <ele>1152.831575</ele>
        <time>2022-02-24T10:51:06.358Z</time>
      </trkpt>
      <trkpt lat="37.87109" lon="-2.87561">
        <ele>1152.172098</ele>
        <time>2022-02-24T10:51:11.309Z</time>
      </trkpt>
      <trkpt lat="37.87104" lon="-2.8758">
        <ele>1151.54624</ele>
        <time>2022-02-24T10:51:16.006Z</time>
      </trkpt>
      <trkpt lat="37.87099" lon="-2.87647">
        <ele>1148.49786</ele>
        <time>2022-02-24T10:51:31.163Z</time>
      </trkpt>
      <trkpt lat="37.87077" lon="-2.87711">
        <ele>1145.23649</ele>
        <time>2022-02-24T10:51:46.281Z</time>
      </trkpt>
      <trkpt lat="37.87081" lon="-2.87832">
        <ele>1139.985193</ele>
        <time>2022-02-24T10:52:12.516Z</time>
      </trkpt>
      <trkpt lat="37.87074" lon="-2.87861">
        <ele>1139.18263</ele>
        <time>2022-02-24T10:52:19.447Z</time>
      </trkpt>
      <trkpt lat="37.87063" lon="-2.87886">
        <ele>1138.427787</ele>
        <time>2022-02-24T10:52:25.975Z</time>
      </trkpt>
      <trkpt lat="37.87048" lon="-2.87901">
        <ele>1137.793726</ele>
        <time>2022-02-24T10:52:31.701Z</time>
      </trkpt>
      <trkpt lat="37.87035" lon="-2.87902">
        <ele>1137.353577</ele>
        <time>2022-02-24T10:52:35.639Z</time>
      </trkpt>
      <trkpt lat="37.87009" lon="-2.87921">
        <ele>1136.33413</ele>
        <time>2022-02-24T10:52:44.849Z</time>
      </trkpt>
      <trkpt lat="37.86989" lon="-2.87926">
        <ele>1135.648432</ele>
        <time>2022-02-24T10:52:51.254Z</time>
      </trkpt>
      <trkpt lat="37.8697" lon="-2.87949">
        <ele>1134.786155</ele>
        <time>2022-02-24T10:53:00.774Z</time>
      </trkpt>
      <trkpt lat="37.8694" lon="-2.87997">
        <ele>1135.943107</ele>
        <time>2022-02-24T10:53:21.424Z</time>
      </trkpt>
      <trkpt lat="37.86934" lon="-2.88021">
        <ele>1136.62093</ele>
        <time>2022-02-24T10:53:33.324Z</time>
      </trkpt>
      <trkpt lat="37.86937" lon="-2.88035">
        <ele>1137.004165</ele>
        <time>2022-02-24T10:53:37.811Z</time>
      </trkpt>
      <trkpt lat="37.86834" lon="-2.88142">
        <ele>1141.833287</ele>
        <time>2022-02-24T10:55:00.850Z</time>
      </trkpt>
      <trkpt lat="37.86789" lon="-2.88202">
        <ele>1144.797544</ele>
        <time>2022-02-24T10:55:40.166Z</time>
      </trkpt>
      <trkpt lat="37.86727" lon="-2.88253">
        <ele>1148.176826</ele>
        <time>2022-02-24T10:56:24.448Z</time>
      </trkpt>
      <trkpt lat="37.86708" lon="-2.88304">
        <ele>1150.190541</ele>
        <time>2022-02-24T10:56:49.826Z</time>
      </trkpt>
      <trkpt lat="37.8667" lon="-2.88344">
        <ele>1152.443417</ele>
        <time>2022-02-24T10:57:18.035Z</time>
      </trkpt>
      <trkpt lat="37.86654" lon="-2.88408">
        <ele>1154.887768</ele>
        <time>2022-02-24T10:57:51.007Z</time>
      </trkpt>
      <trkpt lat="37.86655" lon="-2.88493">
        <ele>1158.252596</ele>
        <time>2022-02-24T10:58:31.224Z</time>
      </trkpt>
      <trkpt lat="37.86648" lon="-2.88513">
        <ele>1159.313054</ele>
        <time>2022-02-24T10:58:42.738Z</time>
      </trkpt>
      <trkpt lat="37.86632" lon="-2.88538">
        <ele>1160.878761</ele>
        <time>2022-02-24T10:58:59.650Z</time>
      </trkpt>
      <trkpt lat="37.86623" lon="-2.88535">
        <ele>1161.40535</ele>
        <time>2022-02-24T10:59:05.691Z</time>
      </trkpt>
      <trkpt lat="37.86612" lon="-2.8851">
        <ele>1162.795288</ele>
        <time>2022-02-24T10:59:20.931Z</time>
      </trkpt>
      <trkpt lat="37.86618" lon="-2.88475">
        <ele>1164.527666</ele>
        <time>2022-02-24T10:59:40.276Z</time>
      </trkpt>
      <trkpt lat="37.86612" lon="-2.88468">
        <ele>1165.043729</ele>
        <time>2022-02-24T10:59:46.548Z</time>
      </trkpt>
      <trkpt lat="37.86599" lon="-2.88469">
        <ele>1165.850269</ele>
        <time>2022-02-24T10:59:56.119Z</time>
      </trkpt>
      <trkpt lat="37.86572" lon="-2.88499">
        <ele>1168.060309</ele>
        <time>2022-02-24T11:00:22.065Z</time>
      </trkpt>
      <trkpt lat="37.86554" lon="-2.88529">
        <ele>1169.889201</ele>
        <time>2022-02-24T11:00:43.442Z</time>
      </trkpt>
      <trkpt lat="37.8654" lon="-2.88539">
        <ele>1170.87205</ele>
        <time>2022-02-24T11:00:54.549Z</time>
      </trkpt>
      <trkpt lat="37.86492" lon="-2.88567">
        <ele>1174.160909</ele>
        <time>2022-02-24T11:01:32.586Z</time>
      </trkpt>
      <trkpt lat="37.86394" lon="-2.88607">
        <ele>1179.612909</ele>
        <time>2022-02-24T11:02:40.911Z</time>
      </trkpt>
      <trkpt lat="37.86326" lon="-2.88655">
        <ele>1181.304525</ele>
        <time>2022-02-24T11:03:19.421Z</time>
      </trkpt>
      <trkpt lat="37.86294" lon="-2.88686">
        <ele>1182.187227</ele>
        <time>2022-02-24T11:03:36.064Z</time>
      </trkpt>
      <trkpt lat="37.86238" lon="-2.88728">
        <ele>1183.075254</ele>
        <time>2022-02-24T11:04:00.116Z</time>
      </trkpt>
      <trkpt lat="37.86211" lon="-2.88734">
        <ele>1183.107791</ele>
        <time>2022-02-24T11:04:10.161Z</time>
      </trkpt>
      <trkpt lat="37.86173" lon="-2.88734">
        <ele>1183.152133</ele>
        <time>2022-02-24T11:04:23.870Z</time>
      </trkpt>
      <trkpt lat="37.86129" lon="-2.8875">
        <ele>1183.206653</ele>
        <time>2022-02-24T11:04:41.304Z</time>
      </trkpt>
      <trkpt lat="37.86094" lon="-2.8874">
        <ele>1183.249573</ele>
        <time>2022-02-24T11:04:55.637Z</time>
      </trkpt>
      <trkpt lat="37.86058" lon="-2.88744">
        <ele>1183.214683</ele>
        <time>2022-02-24T11:05:10.017Z</time>
      </trkpt>
      <trkpt lat="37.86001" lon="-2.88794">
        <ele>1183.112804</ele>
        <time>2022-02-24T11:05:34.932Z</time>
      </trkpt>
      <trkpt lat="37.85966" lon="-2.88836">
        <ele>1183.041623</ele>
        <time>2022-02-24T11:05:51.901Z</time>
      </trkpt>
      <trkpt lat="37.85929" lon="-2.88893">
        <ele>1183.677182</ele>
        <time>2022-02-24T11:06:12.421Z</time>
      </trkpt>
      <trkpt lat="37.85857" lon="-2.88976">
        <ele>1186.400755</ele>
        <time>2022-02-24T11:06:57.024Z</time>
      </trkpt>
      <trkpt lat="37.85834" lon="-2.88979">
        <ele>1187.062202</ele>
        <time>2022-02-24T11:07:10.629Z</time>
      </trkpt>
      <trkpt lat="37.85718" lon="-2.8897">
        <ele>1194.807326</ele>
        <time>2022-02-24T11:08:35.756Z</time>
      </trkpt>
      <trkpt lat="37.85689" lon="-2.88958">
        <ele>1197.329707</ele>
        <time>2022-02-24T11:09:01.106Z</time>
      </trkpt>
      <trkpt lat="37.85659" lon="-2.88939">
        <ele>1200.169224</ele>
        <time>2022-02-24T11:09:30.995Z</time>
      </trkpt>
      <trkpt lat="37.85612" lon="-2.88928">
        <ele>1204.017747</ele>
        <time>2022-02-24T11:10:11.697Z</time>
      </trkpt>
      <trkpt lat="37.85535" lon="-2.88937">
        <ele>1209.936301</ele>
        <time>2022-02-24T11:11:13.930Z</time>
      </trkpt>
      <trkpt lat="37.85499" lon="-2.88934">
        <ele>1212.708484</ele>
        <time>2022-02-24T11:11:39.971Z</time>
      </trkpt>
      <trkpt lat="37.85402" lon="-2.88982">
        <ele>1219.314742</ele>
        <time>2022-02-24T11:12:49.883Z</time>
      </trkpt>
      <trkpt lat="37.8538" lon="-2.89002">
        <ele>1220.599773</ele>
        <time>2022-02-24T11:13:06.265Z</time>
      </trkpt>
      <trkpt lat="37.85349" lon="-2.89019">
        <ele>1222.262802</ele>
        <time>2022-02-24T11:13:26.798Z</time>
      </trkpt>
      <trkpt lat="37.85311" lon="-2.89027">
        <ele>1224.177815</ele>
        <time>2022-02-24T11:13:49.578Z</time>
      </trkpt>
      <trkpt lat="37.85292" lon="-2.89038">
        <ele>1225.189289</ele>
        <time>2022-02-24T11:14:01.594Z</time>
      </trkpt>
      <trkpt lat="37.85259" lon="-2.89041">
        <ele>1226.735441</ele>
        <time>2022-02-24T11:14:19.993Z</time>
      </trkpt>
      <trkpt lat="37.85236" lon="-2.89054">
        <ele>1227.928062</ele>
        <time>2022-02-24T11:14:34.045Z</time>
      </trkpt>
      <trkpt lat="37.85215" lon="-2.89054">
        <ele>1228.864222</ele>
        <time>2022-02-24T11:14:45.675Z</time>
      </trkpt>
      <trkpt lat="37.85189" lon="-2.89066">
        <ele>1230.16786</ele>
        <time>2022-02-24T11:15:02.954Z</time>
      </trkpt>
      <trkpt lat="37.85109" lon="-2.89121">
        <ele>1234.565712</ele>
        <time>2022-02-24T11:15:59.858Z</time>
      </trkpt>
      <trkpt lat="37.85085" lon="-2.89129">
        <ele>1236.096148</ele>
        <time>2022-02-24T11:16:16.071Z</time>
      </trkpt>
      <trkpt lat="37.85072" lon="-2.89128">
        <ele>1236.877059</ele>
        <time>2022-02-24T11:16:24.763Z</time>
      </trkpt>
      <trkpt lat="37.85049" lon="-2.89141">
        <ele>1238.459186</ele>
        <time>2022-02-24T11:16:41.803Z</time>
      </trkpt>
      <trkpt lat="37.84971" lon="-2.89144">
        <ele>1243.282914</ele>
        <time>2022-02-24T11:17:36.389Z</time>
      </trkpt>
      <trkpt lat="37.84945" lon="-2.89136">
        <ele>1244.889836</ele>
        <time>2022-02-24T11:17:55.051Z</time>
      </trkpt>
      <trkpt lat="37.84895" lon="-2.89145">
        <ele>1247.80245</ele>
        <time>2022-02-24T11:18:31.243Z</time>
      </trkpt>
      <trkpt lat="37.84858" lon="-2.89166">
        <ele>1250.141452</ele>
        <time>2022-02-24T11:18:58.131Z</time>
      </trkpt>
      <trkpt lat="37.84832" lon="-2.89195">
        <ele>1252.10435</ele>
        <time>2022-02-24T11:19:19.761Z</time>
      </trkpt>
      <trkpt lat="37.84821" lon="-2.89216">
        <ele>1253.271493</ele>
        <time>2022-02-24T11:19:32.318Z</time>
      </trkpt>
      <trkpt lat="37.84778" lon="-2.8923">
        <ele>1255.780701</ele>
        <time>2022-02-24T11:19:59.563Z</time>
      </trkpt>
      <trkpt lat="37.84755" lon="-2.89258">
        <ele>1257.537831</ele>
        <time>2022-02-24T11:20:19.633Z</time>
      </trkpt>
      <trkpt lat="37.84741" lon="-2.89263">
        <ele>1258.336736</ele>
        <time>2022-02-24T11:20:28.974Z</time>
      </trkpt>
      <trkpt lat="37.84738" lon="-2.89287">
        <ele>1259.401576</ele>
        <time>2022-02-24T11:20:41.357Z</time>
      </trkpt>
      <trkpt lat="37.84729" lon="-2.89303">
        <ele>1260.254953</ele>
        <time>2022-02-24T11:20:51.675Z</time>
      </trkpt>
      <trkpt lat="37.84691" lon="-2.8934">
        <ele>1262.92965</ele>
        <time>2022-02-24T11:21:23.747Z</time>
      </trkpt>
      <trkpt lat="37.84657" lon="-2.89355">
        <ele>1264.928998</ele>
        <time>2022-02-24T11:21:47.693Z</time>
      </trkpt>
      <trkpt lat="37.84604" lon="-2.89363">
        <ele>1267.075638</ele>
        <time>2022-02-24T11:22:21.845Z</time>
      </trkpt>
      <trkpt lat="37.84583" lon="-2.89372">
        <ele>1267.956941</ele>
        <time>2022-02-24T11:22:36.310Z</time>
      </trkpt>
      <trkpt lat="37.84562" lon="-2.89391">
        <ele>1268.957265</ele>
        <time>2022-02-24T11:22:51.433Z</time>
      </trkpt>
      <trkpt lat="37.8454" lon="-2.89417">
        <ele>1270.121278</ele>
        <time>2022-02-24T11:23:07.908Z</time>
      </trkpt>
      <trkpt lat="37.84494" lon="-2.89507">
        <ele>1272.752971</ele>
        <time>2022-02-24T11:23:47.312Z</time>
      </trkpt>
      <trkpt lat="37.84472" lon="-2.89534">
        <ele>1273.28619</ele>
        <time>2022-02-24T11:24:00.565Z</time>
      </trkpt>
      <trkpt lat="37.84441" lon="-2.8959">
        <ele>1274.208265</ele>
        <time>2022-02-24T11:24:22.828Z</time>
      </trkpt>
      <trkpt lat="37.84424" lon="-2.89612">
        <ele>1274.618919</ele>
        <time>2022-02-24T11:24:32.914Z</time>
      </trkpt>
      <trkpt lat="37.84097" lon="-2.8972">
        <ele>1282.996471</ele>
        <time>2022-02-24T11:27:27.594Z</time>
      </trkpt>
      <trkpt lat="37.83966" lon="-2.89752">
        <ele>1283.47203</ele>
        <time>2022-02-24T11:28:22.519Z</time>
      </trkpt>
      <trkpt lat="37.83921" lon="-2.89757">
        <ele>1282.903608</ele>
        <time>2022-02-24T11:28:37.803Z</time>
      </trkpt>
      <trkpt lat="37.83851" lon="-2.89753">
        <ele>1281.740846</ele>
        <time>2022-02-24T11:28:59.919Z</time>
      </trkpt>
      <trkpt lat="37.83801" lon="-2.89746">
        <ele>1278.802021</ele>
        <time>2022-02-24T11:29:14.299Z</time>
      </trkpt>
      <trkpt lat="37.83719" lon="-2.89725">
        <ele>1273.892528</ele>
        <time>2022-02-24T11:29:37.155Z</time>
      </trkpt>
      <trkpt lat="37.83705" lon="-2.89717">
        <ele>1272.981713</ele>
        <time>2022-02-24T11:29:41.411Z</time>
      </trkpt>
      <trkpt lat="37.83638" lon="-2.89717">
        <ele>1269.301708</ele>
        <time>2022-02-24T11:29:59.649Z</time>
      </trkpt>
      <trkpt lat="37.83622" lon="-2.89682">
        <ele>1267.627947</ele>
        <time>2022-02-24T11:30:08.541Z</time>
      </trkpt>
      <trkpt lat="37.8361" lon="-2.89672">
        <ele>1266.853554</ele>
        <time>2022-02-24T11:30:12.742Z</time>
      </trkpt>
      <trkpt lat="37.83591" lon="-2.89662">
        <ele>1265.773106</ele>
        <time>2022-02-24T11:30:18.553Z</time>
      </trkpt>
      <trkpt lat="37.8357" lon="-2.89664">
        <ele>1264.656219</ele>
        <time>2022-02-24T11:30:24.719Z</time>
      </trkpt>
      <trkpt lat="37.83563" lon="-2.89679">
        <ele>1263.931572</ele>
        <time>2022-02-24T11:30:28.639Z</time>
      </trkpt>
      <trkpt lat="37.83566" lon="-2.89694">
        <ele>1263.276299</ele>
        <time>2022-02-24T11:30:32.298Z</time>
      </trkpt>
      <trkpt lat="37.83586" lon="-2.89714">
        <ele>1261.983903</ele>
        <time>2022-02-24T11:30:39.958Z</time>
      </trkpt>
      <trkpt lat="37.83634" lon="-2.89791">
        <ele>1259.319569</ele>
        <time>2022-02-24T11:31:05.167Z</time>
      </trkpt>
      <trkpt lat="37.8363" lon="-2.89803">
        <ele>1258.948845</ele>
        <time>2022-02-24T11:31:08.608Z</time>
      </trkpt>
      <trkpt lat="37.83619" lon="-2.89806">
        <ele>1258.585919</ele>
        <time>2022-02-24T11:31:12.011Z</time>
      </trkpt>
      <trkpt lat="37.83601" lon="-2.89806">
        <ele>1257.963897</ele>
        <time>2022-02-24T11:31:17.574Z</time>
      </trkpt>
      <trkpt lat="37.83533" lon="-2.89776">
        <ele>1255.091851</ele>
        <time>2022-02-24T11:31:38.497Z</time>
      </trkpt>
      <trkpt lat="37.83505" lon="-2.89761">
        <ele>1252.969583</ele>
        <time>2022-02-24T11:31:47.083Z</time>
      </trkpt>
      <trkpt lat="37.83477" lon="-2.89733">
        <ele>1250.424293</ele>
        <time>2022-02-24T11:31:57.081Z</time>
      </trkpt>
      <trkpt lat="37.83442" lon="-2.89743">
        <ele>1247.885693</ele>
        <time>2022-02-24T11:32:06.811Z</time>
      </trkpt>
      <trkpt lat="37.8342" lon="-2.89732">
        <ele>1246.206413</ele>
        <time>2022-02-24T11:32:13.210Z</time>
      </trkpt>
      <trkpt lat="37.83355" lon="-2.89724">
        <ele>1241.687197</ele>
        <time>2022-02-24T11:32:30.086Z</time>
      </trkpt>
      <trkpt lat="37.83341" lon="-2.89734">
        <ele>1240.528634</ele>
        <time>2022-02-24T11:32:34.384Z</time>
      </trkpt>
      <trkpt lat="37.83318" lon="-2.8972">
        <ele>1238.762633</ele>
        <time>2022-02-24T11:32:41.175Z</time>
      </trkpt>
      <trkpt lat="37.83232" lon="-2.89703">
        <ele>1232.636408</ele>
        <time>2022-02-24T11:33:05.851Z</time>
      </trkpt>
      <trkpt lat="37.83103" lon="-2.8972">
        <ele>1223.0797</ele>
        <time>2022-02-24T11:33:41.538Z</time>
      </trkpt>
      <trkpt lat="37.82974" lon="-2.89798">
        <ele>1210.728373</ele>
        <time>2022-02-24T11:34:19.080Z</time>
      </trkpt>
      <trkpt lat="37.82895" lon="-2.89833">
        <ele>1202.276526</ele>
        <time>2022-02-24T11:34:40.699Z</time>
      </trkpt>
      <trkpt lat="37.82848" lon="-2.89851">
        <ele>1196.762895</ele>
        <time>2022-02-24T11:34:52.962Z</time>
      </trkpt>
      <trkpt lat="37.82796" lon="-2.89844">
        <ele>1189.987817</ele>
        <time>2022-02-24T11:35:05.783Z</time>
      </trkpt>
      <trkpt lat="37.82767" lon="-2.89851">
        <ele>1186.063108</ele>
        <time>2022-02-24T11:35:13.229Z</time>
      </trkpt>
      <trkpt lat="37.8274" lon="-2.89871">
        <ele>1181.994461</ele>
        <time>2022-02-24T11:35:20.867Z</time>
      </trkpt>
      <trkpt lat="37.82716" lon="-2.89877">
        <ele>1178.688725</ele>
        <time>2022-02-24T11:35:27.171Z</time>
      </trkpt>
      <trkpt lat="37.82654" lon="-2.89914">
        <ele>1168.26013</ele>
        <time>2022-02-24T11:35:43.507Z</time>
      </trkpt>
      <trkpt lat="37.82624" lon="-2.89913">
        <ele>1163.354338</ele>
        <time>2022-02-24T11:35:50.513Z</time>
      </trkpt>
      <trkpt lat="37.82575" lon="-2.89899">
        <ele>1155.072653</ele>
        <time>2022-02-24T11:36:02.397Z</time>
      </trkpt>
      <trkpt lat="37.82565" lon="-2.89904">
        <ele>1153.40978</ele>
        <time>2022-02-24T11:36:04.918Z</time>
      </trkpt>
      <trkpt lat="37.82568" lon="-2.89917">
        <ele>1151.684546</ele>
        <time>2022-02-24T11:36:07.578Z</time>
      </trkpt>
      <trkpt lat="37.82578" lon="-2.89928">
        <ele>1149.480273</ele>
        <time>2022-02-24T11:36:10.736Z</time>
      </trkpt>
      <trkpt lat="37.82578" lon="-2.89943">
        <ele>1147.494273</ele>
        <time>2022-02-24T11:36:13.747Z</time>
      </trkpt>
      <trkpt lat="37.82569" lon="-2.89958">
        <ele>1145.175583</ele>
        <time>2022-02-24T11:36:17.424Z</time>
      </trkpt>
      <trkpt lat="37.82554" lon="-2.89954">
        <ele>1143.148028</ele>
        <time>2022-02-24T11:36:21.058Z</time>
      </trkpt>
      <trkpt lat="37.82532" lon="-2.89965">
        <ele>1139.952367</ele>
        <time>2022-02-24T11:36:26.921Z</time>
      </trkpt>
      <trkpt lat="37.82447" lon="-2.89973">
        <ele>1128.684551</ele>
        <time>2022-02-24T11:36:47.468Z</time>
      </trkpt>
      <trkpt lat="37.82377" lon="-2.89989">
        <ele>1119.479594</ele>
        <time>2022-02-24T11:37:05.598Z</time>
      </trkpt>
      <trkpt lat="37.82315" lon="-2.90009">
        <ele>1111.968679</ele>
        <time>2022-02-24T11:37:21.747Z</time>
      </trkpt>
      <trkpt lat="37.82289" lon="-2.90022">
        <ele>1108.744928</ele>
        <time>2022-02-24T11:37:28.592Z</time>
      </trkpt>
      <trkpt lat="37.82258" lon="-2.9005">
        <ele>1104.230804</ele>
        <time>2022-02-24T11:37:38.150Z</time>
      </trkpt>
      <trkpt lat="37.8224" lon="-2.90055">
        <ele>1102.048096</ele>
        <time>2022-02-24T11:37:42.758Z</time>
      </trkpt>
      <trkpt lat="37.82134" lon="-2.90062">
        <ele>1092.318698</ele>
        <time>2022-02-24T11:38:09.639Z</time>
      </trkpt>
      <trkpt lat="37.82045" lon="-2.90057">
        <ele>1084.3762</ele>
        <time>2022-02-24T11:38:34.296Z</time>
      </trkpt>
      <trkpt lat="37.81896" lon="-2.90068">
        <ele>1073.220726</ele>
        <time>2022-02-24T11:39:15.781Z</time>
      </trkpt>
      <trkpt lat="37.81894" lon="-2.90105">
        <ele>1070.87323</ele>
        <time>2022-02-24T11:39:23.211Z</time>
      </trkpt>
      <trkpt lat="37.81877" lon="-2.90118">
        <ele>1067.738159</ele>
        <time>2022-02-24T11:39:28.203Z</time>
      </trkpt>
      <trkpt lat="37.81828" lon="-2.90133">
        <ele>1059.884749</ele>
        <time>2022-02-24T11:39:40.585Z</time>
      </trkpt>
      <trkpt lat="37.81698" lon="-2.9019">
        <ele>1037.100404</ele>
        <time>2022-02-24T11:40:13.039Z</time>
      </trkpt>
      <trkpt lat="37.81668" lon="-2.90197">
        <ele>1030.771882</ele>
        <time>2022-02-24T11:40:20.144Z</time>
      </trkpt>
      <trkpt lat="37.81637" lon="-2.90215">
        <ele>1023.728441</ele>
        <time>2022-02-24T11:40:28.042Z</time>
      </trkpt>
      <trkpt lat="37.81604" lon="-2.90223">
        <ele>1016.897534</ele>
        <time>2022-02-24T11:40:35.704Z</time>
      </trkpt>
      <trkpt lat="37.81537" lon="-2.90237">
        <ele>1004.080924</ele>
        <time>2022-02-24T11:40:51.458Z</time>
      </trkpt>
      <trkpt lat="37.81459" lon="-2.90292">
        <ele>991.575807</ele>
        <time>2022-02-24T11:41:12.722Z</time>
      </trkpt>
      <trkpt lat="37.814" lon="-2.903">
        <ele>983.184012</ele>
        <time>2022-02-24T11:41:28.068Z</time>
      </trkpt>
      <trkpt lat="37.81362" lon="-2.90318">
        <ele>980.388866</ele>
        <time>2022-02-24T11:41:39.010Z</time>
      </trkpt>
      <trkpt lat="37.81317" lon="-2.90357">
        <ele>978.669573</ele>
        <time>2022-02-24T11:41:55.859Z</time>
      </trkpt>
      <trkpt lat="37.81304" lon="-2.90351">
        <ele>978.236006</ele>
        <time>2022-02-24T11:42:00.179Z</time>
      </trkpt>
      <trkpt lat="37.81309" lon="-2.90306">
        <ele>977.129245</ele>
        <time>2022-02-24T11:42:12.318Z</time>
      </trkpt>
      <trkpt lat="37.81304" lon="-2.90295">
        <ele>976.821327</ele>
        <time>2022-02-24T11:42:15.975Z</time>
      </trkpt>
      <trkpt lat="37.81295" lon="-2.9029">
        <ele>976.518387</ele>
        <time>2022-02-24T11:42:19.986Z</time>
      </trkpt>
      <trkpt lat="37.81272" lon="-2.90292">
        <ele>975.788386</ele>
        <time>2022-02-24T11:42:28.296Z</time>
      </trkpt>
      <trkpt lat="37.81252" lon="-2.90309">
        <ele>975.978687</ele>
        <time>2022-02-24T11:42:37.640Z</time>
      </trkpt>
      <trkpt lat="37.81241" lon="-2.90312">
        <ele>976.219158</ele>
        <time>2022-02-24T11:42:41.652Z</time>
      </trkpt>
      <trkpt lat="37.81232" lon="-2.9031">
        <ele>976.406404</ele>
        <time>2022-02-24T11:42:44.901Z</time>
      </trkpt>
      <trkpt lat="37.81217" lon="-2.90279">
        <ele>977.022758</ele>
        <time>2022-02-24T11:42:54.977Z</time>
      </trkpt>
      <trkpt lat="37.81212" lon="-2.90279">
        <ele>977.131942</ele>
        <time>2022-02-24T11:42:56.804Z</time>
      </trkpt>
      <trkpt lat="37.81123" lon="-2.90348">
        <ele>979.317345</ele>
        <time>2022-02-24T11:43:52.834Z</time>
      </trkpt>
      <trkpt lat="37.81012" lon="-2.90379">
        <ele>986.054208</ele>
        <time>2022-02-24T11:45:08.419Z</time>
      </trkpt>
      <trkpt lat="37.80951" lon="-2.90404">
        <ele>989.847823</ele>
        <time>2022-02-24T11:45:54.068Z</time>
      </trkpt>
      <trkpt lat="37.80941" lon="-2.90415">
        <ele>990.603913</ele>
        <time>2022-02-24T11:46:04.947Z</time>
      </trkpt>
      <trkpt lat="37.80937" lon="-2.90434">
        <ele>991.341607</ele>
        <time>2022-02-24T11:46:16.737Z</time>
      </trkpt>
      <trkpt lat="37.80928" lon="-2.90449">
        <ele>992.103162</ele>
        <time>2022-02-24T11:46:28.785Z</time>
      </trkpt>
      <trkpt lat="37.80914" lon="-2.90454">
        <ele>992.817016</ele>
        <time>2022-02-24T11:46:36.936Z</time>
      </trkpt>
      <trkpt lat="37.80893" lon="-2.90448">
        <ele>993.916205</ele>
        <time>2022-02-24T11:46:52.527Z</time>
      </trkpt>
      <trkpt lat="37.80881" lon="-2.9045">
        <ele>994.493638</ele>
        <time>2022-02-24T11:46:57.923Z</time>
      </trkpt>
      <trkpt lat="37.80832" lon="-2.90475">
        <ele>997.131049</ele>
        <time>2022-02-24T11:47:27.816Z</time>
      </trkpt>
      <trkpt lat="37.80789" lon="-2.90483">
        <ele>999.256559</ele>
        <time>2022-02-24T11:47:51.480Z</time>
      </trkpt>
      <trkpt lat="37.80777" lon="-2.90481">
        <ele>999.827691</ele>
        <time>2022-02-24T11:47:56.482Z</time>
      </trkpt>
      <trkpt lat="37.80719" lon="-2.90443">
        <ele>1002.862089</ele>
        <time>2022-02-24T11:48:36.877Z</time>
      </trkpt>
      <trkpt lat="37.80702" lon="-2.90442">
        <ele>1003.645838</ele>
        <time>2022-02-24T11:48:46.148Z</time>
      </trkpt>
      <trkpt lat="37.80687" lon="-2.9046">
        <ele>1004.615112</ele>
        <time>2022-02-24T11:48:59.723Z</time>
      </trkpt>
      <trkpt lat="37.80679" lon="-2.90478">
        <ele>1005.359479</ele>
        <time>2022-02-24T11:49:09.059Z</time>
      </trkpt>
      <trkpt lat="37.80678" lon="-2.90513">
        <ele>1006.644293</ele>
        <time>2022-02-24T11:49:24.379Z</time>
      </trkpt>
      <trkpt lat="37.80686" lon="-2.90586">
        <ele>1010.230308</ele>
        <time>2022-02-24T11:49:59.703Z</time>
      </trkpt>
      <trkpt lat="37.80668" lon="-2.90648">
        <ele>1013.735024</ele>
        <time>2022-02-24T11:50:33.887Z</time>
      </trkpt>
      <trkpt lat="37.80647" lon="-2.90691">
        <ele>1016.461163</ele>
        <time>2022-02-24T11:51:01.920Z</time>
      </trkpt>
      <trkpt lat="37.80616" lon="-2.90798">
        <ele>1021.713993</ele>
        <time>2022-02-24T11:51:58.374Z</time>
      </trkpt>
      <trkpt lat="37.80614" lon="-2.9082">
        <ele>1022.529017</ele>
        <time>2022-02-24T11:52:07.444Z</time>
      </trkpt>
      <trkpt lat="37.80625" lon="-2.90872">
        <ele>1024.570697</ele>
        <time>2022-02-24T11:52:31.236Z</time>
      </trkpt>
      <trkpt lat="37.8062" lon="-2.90885">
        <ele>1025.151246</ele>
        <time>2022-02-24T11:52:38.392Z</time>
      </trkpt>
      <trkpt lat="37.80601" lon="-2.90905">
        <ele>1026.302004</ele>
        <time>2022-02-24T11:52:49.865Z</time>
      </trkpt>
      <trkpt lat="37.8059" lon="-2.90906">
        <ele>1026.856291</ele>
        <time>2022-02-24T11:52:56.113Z</time>
      </trkpt>
      <trkpt lat="37.8058" lon="-2.909">
        <ele>1027.365647</ele>
        <time>2022-02-24T11:53:00.694Z</time>
      </trkpt>
      <trkpt lat="37.80558" lon="-2.90862">
        <ele>1028.189834</ele>
        <time>2022-02-24T11:53:16.291Z</time>
      </trkpt>
      <trkpt lat="37.80545" lon="-2.90827">
        <ele>1028.063941</ele>
        <time>2022-02-24T11:53:26.843Z</time>
      </trkpt>
      <trkpt lat="37.80513" lon="-2.90812">
        <ele>1027.919997</ele>
        <time>2022-02-24T11:53:37.437Z</time>
      </trkpt>
      <trkpt lat="37.80508" lon="-2.90801">
        <ele>1027.878899</ele>
        <time>2022-02-24T11:53:40.177Z</time>
      </trkpt>
      <trkpt lat="37.8051" lon="-2.90737">
        <ele>1027.66558</ele>
        <time>2022-02-24T11:53:53.629Z</time>
      </trkpt>
      <trkpt lat="37.80546" lon="-2.90663">
        <ele>1025.680453</ele>
        <time>2022-02-24T11:54:09.680Z</time>
      </trkpt>
      <trkpt lat="37.80543" lon="-2.90646">
        <ele>1024.928249</ele>
        <time>2022-02-24T11:54:12.569Z</time>
      </trkpt>
      <trkpt lat="37.80531" lon="-2.90634">
        <ele>1024.08122</ele>
        <time>2022-02-24T11:54:15.874Z</time>
      </trkpt>
      <trkpt lat="37.80515" lon="-2.90628">
        <ele>1023.097614</ele>
        <time>2022-02-24T11:54:19.608Z</time>
      </trkpt>
      <trkpt lat="37.80442" lon="-2.90625">
        <ele>1018.985927</ele>
        <time>2022-02-24T11:54:34.654Z</time>
      </trkpt>
      <trkpt lat="37.80318" lon="-2.90638">
        <ele>1010.743371</ele>
        <time>2022-02-24T11:55:00.285Z</time>
      </trkpt>
      <trkpt lat="37.80305" lon="-2.90635">
        <ele>1009.870277</ele>
        <time>2022-02-24T11:55:02.871Z</time>
      </trkpt>
      <trkpt lat="37.80286" lon="-2.90626">
        <ele>1008.454739</ele>
        <time>2022-02-24T11:55:07.201Z</time>
      </trkpt>
      <trkpt lat="37.80222" lon="-2.90588">
        <ele>1004.248626</ele>
        <time>2022-02-24T11:55:22.164Z</time>
      </trkpt>
      <trkpt lat="37.80208" lon="-2.90586">
        <ele>1003.73985</ele>
        <time>2022-02-24T11:55:25.177Z</time>
      </trkpt>
      <trkpt lat="37.80184" lon="-2.90586">
        <ele>1002.885085</ele>
        <time>2022-02-24T11:55:30.437Z</time>
      </trkpt>
      <trkpt lat="37.8012" lon="-2.90604">
        <ele>1000.522317</ele>
        <time>2022-02-24T11:55:45.503Z</time>
      </trkpt>
      <trkpt lat="37.80048" lon="-2.90627">
        <ele>998.337524</ele>
        <time>2022-02-24T11:56:04.278Z</time>
      </trkpt>
      <trkpt lat="37.79953" lon="-2.9064">
        <ele>997.547869</ele>
        <time>2022-02-24T11:56:30.566Z</time>
      </trkpt>
      <trkpt lat="37.79914" lon="-2.90661">
        <ele>997.201993</ele>
        <time>2022-02-24T11:56:42.417Z</time>
      </trkpt>
      <trkpt lat="37.79899" lon="-2.90663">
        <ele>997.082773</ele>
        <time>2022-02-24T11:56:46.538Z</time>
      </trkpt>
      <trkpt lat="37.79858" lon="-2.90675">
        <ele>996.938611</ele>
        <time>2022-02-24T11:56:58.302Z</time>
      </trkpt>
      <trkpt lat="37.79701" lon="-2.90695">
        <ele>996.658109</ele>
        <time>2022-02-24T11:57:43.890Z</time>
      </trkpt>
      <trkpt lat="37.79668" lon="-2.90707">
        <ele>996.684896</ele>
        <time>2022-02-24T11:57:54.005Z</time>
      </trkpt>
      <trkpt lat="37.79588" lon="-2.90718">
        <ele>996.7482</ele>
        <time>2022-02-24T11:58:18.183Z</time>
      </trkpt>
      <trkpt lat="37.79451" lon="-2.90778">
        <ele>996.62212</ele>
        <time>2022-02-24T11:59:01.140Z</time>
      </trkpt>
      <trkpt lat="37.79411" lon="-2.90791">
        <ele>996.545845</ele>
        <time>2022-02-24T11:59:12.555Z</time>
      </trkpt>
      <trkpt lat="37.79205" lon="-2.90819">
        <ele>995.843565</ele>
        <time>2022-02-24T12:00:10.691Z</time>
      </trkpt>
      <trkpt lat="37.79031" lon="-2.90804">
        <ele>995.725955</ele>
        <time>2022-02-24T12:01:01.831Z</time>
      </trkpt>
      <trkpt lat="37.78984" lon="-2.9083">
        <ele>995.649785</ele>
        <time>2022-02-24T12:01:17.122Z</time>
      </trkpt>
      <trkpt lat="37.78947" lon="-2.90851">
        <ele>995.53831</ele>
        <time>2022-02-24T12:01:28.923Z</time>
      </trkpt>
      <trkpt lat="37.7889" lon="-2.90884">
        <ele>995.363456</ele>
        <time>2022-02-24T12:01:46.860Z</time>
      </trkpt>
      <trkpt lat="37.78841" lon="-2.90903">
        <ele>995.2227</ele>
        <time>2022-02-24T12:02:01.018Z</time>
      </trkpt>
      <trkpt lat="37.7866" lon="-2.90938">
        <ele>993.827234</ele>
        <time>2022-02-24T12:02:50.526Z</time>
      </trkpt>
      <trkpt lat="37.78545" lon="-2.90976">
        <ele>994.087785</ele>
        <time>2022-02-24T12:03:24.085Z</time>
      </trkpt>
      <trkpt lat="37.7843" lon="-2.91065">
        <ele>996.307962</ele>
        <time>2022-02-24T12:04:14.098Z</time>
      </trkpt>
      <trkpt lat="37.78346" lon="-2.91142">
        <ele>999.147627</ele>
        <time>2022-02-24T12:05:02.485Z</time>
      </trkpt>
      <trkpt lat="37.78234" lon="-2.91193">
        <ele>1003.578739</ele>
        <time>2022-02-24T12:06:02.205Z</time>
      </trkpt>
      <trkpt lat="37.78225" lon="-2.91202">
        <ele>1004.01121</ele>
        <time>2022-02-24T12:06:07.581Z</time>
      </trkpt>
      <trkpt lat="37.78182" lon="-2.91218">
        <ele>1005.691676</ele>
        <time>2022-02-24T12:06:28.794Z</time>
      </trkpt>
      <trkpt lat="37.78132" lon="-2.91282">
        <ele>1007.144304</ele>
        <time>2022-02-24T12:06:59.634Z</time>
      </trkpt>
      <trkpt lat="37.78094" lon="-2.91322">
        <ele>1008.088559</ele>
        <time>2022-02-24T12:07:18.978Z</time>
      </trkpt>
      <trkpt lat="37.78092" lon="-2.91334">
        <ele>1008.280088</ele>
        <time>2022-02-24T12:07:22.573Z</time>
      </trkpt>
      <trkpt lat="37.78083" lon="-2.91342">
        <ele>1008.493949</ele>
        <time>2022-02-24T12:07:26.587Z</time>
      </trkpt>
      <trkpt lat="37.78069" lon="-2.91343">
        <ele>1008.773975</ele>
        <time>2022-02-24T12:07:31.464Z</time>
      </trkpt>
      <trkpt lat="37.78036" lon="-2.91317">
        <ele>1009.171716</ele>
        <time>2022-02-24T12:07:43.675Z</time>
      </trkpt>
      <trkpt lat="37.78002" lon="-2.91321">
        <ele>1008.618767</ele>
        <time>2022-02-24T12:07:54.002Z</time>
      </trkpt>
      <trkpt lat="37.77968" lon="-2.91347">
        <ele>1007.981434</ele>
        <time>2022-02-24T12:08:04.843Z</time>
      </trkpt>
      <trkpt lat="37.77951" lon="-2.91371">
        <ele>1007.575237</ele>
        <time>2022-02-24T12:08:11.191Z</time>
      </trkpt>
      <trkpt lat="37.77924" lon="-2.91406">
        <ele>1006.957487</ele>
        <time>2022-02-24T12:08:20.479Z</time>
      </trkpt>
      <trkpt lat="37.77884" lon="-2.91433">
        <ele>1005.941226</ele>
        <time>2022-02-24T12:08:31.051Z</time>
      </trkpt>
      <trkpt lat="37.77767" lon="-2.91495">
        <ele>1001.369091</ele>
        <time>2022-02-24T12:08:59.756Z</time>
      </trkpt>
      <trkpt lat="37.77762" lon="-2.9151">
        <ele>1000.917848</ele>
        <time>2022-02-24T12:09:02.637Z</time>
      </trkpt>
      <trkpt lat="37.77763" lon="-2.91527">
        <ele>1000.418438</ele>
        <time>2022-02-24T12:09:05.889Z</time>
      </trkpt>
      <trkpt lat="37.77772" lon="-2.91545">
        <ele>999.995322</ele>
        <time>2022-02-24T12:09:09.646Z</time>
      </trkpt>
      <trkpt lat="37.77803" lon="-2.91572">
        <ele>1000.230647</ele>
        <time>2022-02-24T12:09:18.763Z</time>
      </trkpt>
      <trkpt lat="37.77808" lon="-2.91591">
        <ele>1000.333458</ele>
        <time>2022-02-24T12:09:23.246Z</time>
      </trkpt>
      <trkpt lat="37.77808" lon="-2.91613">
        <ele>1000.445209</ele>
        <time>2022-02-24T12:09:28.302Z</time>
      </trkpt>
      <trkpt lat="37.77781" lon="-2.91627">
        <ele>1000.632189</ele>
        <time>2022-02-24T12:09:38.977Z</time>
      </trkpt>
      <trkpt lat="37.77729" lon="-2.91631">
        <ele>1000.961027</ele>
        <time>2022-02-24T12:10:00.679Z</time>
      </trkpt>
      <trkpt lat="37.77699" lon="-2.91644">
        <ele>1001.394098</ele>
        <time>2022-02-24T12:10:15.166Z</time>
      </trkpt>
      <trkpt lat="37.7764" lon="-2.91657">
        <ele>1003.449164</ele>
        <time>2022-02-24T12:10:43.616Z</time>
      </trkpt>
      <trkpt lat="37.77583" lon="-2.91706">
        <ele>1005.84663</ele>
        <time>2022-02-24T12:11:17.572Z</time>
      </trkpt>
      <trkpt lat="37.77452" lon="-2.91791">
        <ele>1010.206661</ele>
        <time>2022-02-24T12:12:22.554Z</time>
      </trkpt>
      <trkpt lat="37.77428" lon="-2.91819">
        <ele>1011.110655</ele>
        <time>2022-02-24T12:12:35.479Z</time>
      </trkpt>
      <trkpt lat="37.77339" lon="-2.9187">
        <ele>1013.895431</ele>
        <time>2022-02-24T12:13:16.297Z</time>
      </trkpt>
      <trkpt lat="37.77327" lon="-2.91886">
        <ele>1014.393974</ele>
        <time>2022-02-24T12:13:24.075Z</time>
      </trkpt>
      <trkpt lat="37.77322" lon="-2.91905">
        <ele>1014.851787</ele>
        <time>2022-02-24T12:13:30.827Z</time>
      </trkpt>
      <trkpt lat="37.77324" lon="-2.91924">
        <ele>1015.307382</ele>
        <time>2022-02-24T12:13:38.035Z</time>
      </trkpt>
      <trkpt lat="37.77344" lon="-2.91963">
        <ele>1016.382288</ele>
        <time>2022-02-24T12:13:54.334Z</time>
      </trkpt>
      <trkpt lat="37.77366" lon="-2.92039">
        <ele>1017.936655</ele>
        <time>2022-02-24T12:14:24.646Z</time>
      </trkpt>
      <trkpt lat="37.77385" lon="-2.92074">
        <ele>1018.473063</ele>
        <time>2022-02-24T12:14:38.603Z</time>
      </trkpt>
      <trkpt lat="37.77428" lon="-2.92124">
        <ele>1019.414204</ele>
        <time>2022-02-24T12:15:01.624Z</time>
      </trkpt>
      <trkpt lat="37.7743" lon="-2.92138">
        <ele>1019.598791</ele>
        <time>2022-02-24T12:15:05.141Z</time>
      </trkpt>
      <trkpt lat="37.77416" lon="-2.92158">
        <ele>1019.936421</ele>
        <time>2022-02-24T12:15:12.568Z</time>
      </trkpt>
      <trkpt lat="37.77383" lon="-2.92143">
        <ele>1020.372662</ele>
        <time>2022-02-24T12:15:25.510Z</time>
      </trkpt>
      <trkpt lat="37.77345" lon="-2.92097">
        <ele>1019.235385</ele>
        <time>2022-02-24T12:15:43.250Z</time>
      </trkpt>
      <trkpt lat="37.77302" lon="-2.92033">
        <ele>1017.797246</ele>
        <time>2022-02-24T12:16:04.534Z</time>
      </trkpt>
      <trkpt lat="37.77262" lon="-2.92015">
        <ele>1016.877051</ele>
        <time>2022-02-24T12:16:17.190Z</time>
      </trkpt>
      <trkpt lat="37.77214" lon="-2.92001">
        <ele>1015.588148</ele>
        <time>2022-02-24T12:16:32.239Z</time>
      </trkpt>
      <trkpt lat="37.77142" lon="-2.91937">
        <ele>1013.13628</ele>
        <time>2022-02-24T12:16:59.449Z</time>
      </trkpt>
      <trkpt lat="37.77118" lon="-2.91924">
        <ele>1012.416186</ele>
        <time>2022-02-24T12:17:07.675Z</time>
      </trkpt>
      <trkpt lat="37.77089" lon="-2.91889">
        <ele>1011.416768</ele>
        <time>2022-02-24T12:17:20.693Z</time>
      </trkpt>
      <trkpt lat="37.76966" lon="-2.9171">
        <ele>1009.156593</ele>
        <time>2022-02-24T12:18:24.970Z</time>
      </trkpt>
      <trkpt lat="37.7678" lon="-2.91443">
        <ele>1006.847588</ele>
        <time>2022-02-24T12:20:04.679Z</time>
      </trkpt>
      <trkpt lat="37.7645" lon="-2.91042">
        <ele>998.5697</ele>
        <time>2022-02-24T12:22:34.449Z</time>
      </trkpt>
      <trkpt lat="37.76398" lon="-2.90982">
        <ele>996.80479</ele>
        <time>2022-02-24T12:22:57.354Z</time>
      </trkpt>
      <trkpt lat="37.76344" lon="-2.90956">
        <ele>995.346826</ele>
        <time>2022-02-24T12:23:15.979Z</time>
      </trkpt>
      <trkpt lat="37.76187" lon="-2.90883">
        <ele>989.341222</ele>
        <time>2022-02-24T12:24:04.861Z</time>
      </trkpt>
      <trkpt lat="37.76135" lon="-2.90865">
        <ele>988.63468</ele>
        <time>2022-02-24T12:24:22.009Z</time>
      </trkpt>
      <trkpt lat="37.76114" lon="-2.90857">
        <ele>988.948274</ele>
        <time>2022-02-24T12:24:29.356Z</time>
      </trkpt>
      <trkpt lat="37.76085" lon="-2.91053">
        <ele>991.703604</ele>
        <time>2022-02-24T12:25:25.753Z</time>
      </trkpt>
      <trkpt lat="37.7606" lon="-2.91103">
        <ele>993.375981</ele>
        <time>2022-02-24T12:25:50.780Z</time>
      </trkpt>
      <trkpt lat="37.75983" lon="-2.91239">
        <ele>997.158591</ele>
        <time>2022-02-24T12:26:43.990Z</time>
      </trkpt>
      <trkpt lat="37.75884" lon="-2.91389">
        <ele>996.152411</ele>
        <time>2022-02-24T12:27:13.264Z</time>
      </trkpt>
      <trkpt lat="37.75838" lon="-2.91457">
        <ele>994.658908</ele>
        <time>2022-02-24T12:27:25.990Z</time>
      </trkpt>
      <trkpt lat="37.75829" lon="-2.91471">
        <ele>994.330051</ele>
        <time>2022-02-24T12:27:28.624Z</time>
      </trkpt>
      <trkpt lat="37.75808" lon="-2.91501">
        <ele>993.650035</ele>
        <time>2022-02-24T12:27:34.217Z</time>
      </trkpt>
      <trkpt lat="37.75799" lon="-2.91513">
        <ele>993.368691</ele>
        <time>2022-02-24T12:27:36.491Z</time>
      </trkpt>
      <trkpt lat="37.75778" lon="-2.91534">
        <ele>992.787305</ele>
        <time>2022-02-24T12:27:41.206Z</time>
      </trkpt>
      <trkpt lat="37.75756" lon="-2.91548">
        <ele>992.237464</ele>
        <time>2022-02-24T12:27:45.717Z</time>
      </trkpt>
      <trkpt lat="37.75132" lon="-2.91679">
        <ele>983.12515</ele>
        <time>2022-02-24T12:29:46.945Z</time>
      </trkpt>
      <trkpt lat="37.74972" lon="-2.91713">
        <ele>981.253188</ele>
        <time>2022-02-24T12:30:18.209Z</time>
      </trkpt>
      <trkpt lat="37.74671" lon="-2.91777">
        <ele>979.387733</ele>
        <time>2022-02-24T12:31:21.714Z</time>
      </trkpt>
      <trkpt lat="37.74252" lon="-2.91864">
        <ele>979.697385</ele>
        <time>2022-02-24T12:32:57.601Z</time>
      </trkpt>
      <trkpt lat="37.74092" lon="-2.91898">
        <ele>980.929638</ele>
        <time>2022-02-24T12:33:37.610Z</time>
      </trkpt>
      <trkpt lat="37.74085" lon="-2.91899">
        <ele>981.020208</ele>
        <time>2022-02-24T12:33:39.525Z</time>
      </trkpt>
      <trkpt lat="37.73847" lon="-2.91949">
        <ele>984.683814</ele>
        <time>2022-02-24T12:34:57.235Z</time>
      </trkpt>
      <trkpt lat="37.73701" lon="-2.91981">
        <ele>985.051538</ele>
        <time>2022-02-24T12:35:34.690Z</time>
      </trkpt>
      <trkpt lat="37.73685" lon="-2.91984">
        <ele>984.998284</ele>
        <time>2022-02-24T12:35:38.122Z</time>
      </trkpt>
      <trkpt lat="37.73004" lon="-2.92128">
        <ele>972.25971</ele>
        <time>2022-02-24T12:37:45.392Z</time>
      </trkpt>
      <trkpt lat="37.7292" lon="-2.92146">
        <ele>970.286141</ele>
        <time>2022-02-24T12:38:00.075Z</time>
      </trkpt>
      <trkpt lat="37.71766" lon="-2.92387">
        <ele>949.248146</ele>
        <time>2022-02-24T12:41:38.089Z</time>
      </trkpt>
      <trkpt lat="37.71508" lon="-2.92442">
        <ele>943.679812</ele>
        <time>2022-02-24T12:42:25.872Z</time>
      </trkpt>
      <trkpt lat="37.71463" lon="-2.92448">
        <ele>942.236327</ele>
        <time>2022-02-24T12:42:33.843Z</time>
      </trkpt>
      <trkpt lat="37.71314" lon="-2.92455">
        <ele>937.035596</ele>
        <time>2022-02-24T12:42:58.823Z</time>
      </trkpt>
      <trkpt lat="37.70867" lon="-2.92446">
        <ele>916.451144</ele>
        <time>2022-02-24T12:44:10.473Z</time>
      </trkpt>
      <trkpt lat="37.7086" lon="-2.92543">
        <ele>913.045612</ele>
        <time>2022-02-24T12:44:23.436Z</time>
      </trkpt>
      <trkpt lat="37.70856" lon="-2.92733">
        <ele>908.043629</ele>
        <time>2022-02-24T12:44:50.185Z</time>
      </trkpt>
      <trkpt lat="37.70871" lon="-2.92896">
        <ele>903.397812</ele>
        <time>2022-02-24T12:45:14.408Z</time>
      </trkpt>
      <trkpt lat="37.70853" lon="-2.92973">
        <ele>901.047581</ele>
        <time>2022-02-24T12:45:25.174Z</time>
      </trkpt>
      <trkpt lat="37.7084" lon="-2.93015">
        <ele>899.52718</ele>
        <time>2022-02-24T12:45:31.134Z</time>
      </trkpt>
      <trkpt lat="37.70825" lon="-2.93036">
        <ele>898.184874</ele>
        <time>2022-02-24T12:45:34.660Z</time>
      </trkpt>
      <trkpt lat="37.70808" lon="-2.9306">
        <ele>896.607956</ele>
        <time>2022-02-24T12:45:38.929Z</time>
      </trkpt>
      <trkpt lat="37.70808" lon="-2.9307">
        <ele>896.125674</ele>
        <time>2022-02-24T12:45:40.148Z</time>
      </trkpt>
      <trkpt lat="37.7079" lon="-2.93113">
        <ele>893.74157</ele>
        <time>2022-02-24T12:45:46.337Z</time>
      </trkpt>
      <trkpt lat="37.7078" lon="-2.93125">
        <ele>892.90853</ele>
        <time>2022-02-24T12:45:48.498Z</time>
      </trkpt>
      <trkpt lat="37.70765" lon="-2.93133">
        <ele>891.892385</ele>
        <time>2022-02-24T12:45:51.042Z</time>
      </trkpt>
      <trkpt lat="37.70734" lon="-2.93152">
        <ele>889.751032</ele>
        <time>2022-02-24T12:45:56.513Z</time>
      </trkpt>
      <trkpt lat="37.7072" lon="-2.93174">
        <ele>888.42054</ele>
        <time>2022-02-24T12:46:00.054Z</time>
      </trkpt>
      <trkpt lat="37.70709" lon="-2.93208">
        <ele>886.727699</ele>
        <time>2022-02-24T12:46:04.744Z</time>
      </trkpt>
      <trkpt lat="37.70706" lon="-2.93253">
        <ele>884.669358</ele>
        <time>2022-02-24T12:46:10.598Z</time>
      </trkpt>
      <trkpt lat="37.70705" lon="-2.93279">
        <ele>883.463277</ele>
        <time>2022-02-24T12:46:14.032Z</time>
      </trkpt>
      <trkpt lat="37.70657" lon="-2.93295">
        <ele>880.580403</ele>
        <time>2022-02-24T12:46:22.328Z</time>
      </trkpt>
      <trkpt lat="37.70627" lon="-2.93303">
        <ele>878.805384</ele>
        <time>2022-02-24T12:46:27.334Z</time>
      </trkpt>
      <trkpt lat="37.70561" lon="-2.93335">
        <ele>874.027809</ele>
        <time>2022-02-24T12:46:38.768Z</time>
      </trkpt>
      <trkpt lat="37.70553" lon="-2.93339">
        <ele>873.498858</ele>
        <time>2022-02-24T12:46:40.040Z</time>
      </trkpt>
      <trkpt lat="37.70523" lon="-2.93366">
        <ele>870.961954</ele>
        <time>2022-02-24T12:46:46.069Z</time>
      </trkpt>
      <trkpt lat="37.70484" lon="-2.93444">
        <ele>865.986588</ele>
        <time>2022-02-24T12:46:57.354Z</time>
      </trkpt>
      <trkpt lat="37.70464" lon="-2.93492">
        <ele>862.857687</ele>
        <time>2022-02-24T12:47:03.941Z</time>
      </trkpt>
      <trkpt lat="37.70436" lon="-2.93493">
        <ele>860.825584</ele>
        <time>2022-02-24T12:47:08.243Z</time>
      </trkpt>
      <trkpt lat="37.70423" lon="-2.93529">
        <ele>858.589947</ele>
        <time>2022-02-24T12:47:13.045Z</time>
      </trkpt>
      <trkpt lat="37.70415" lon="-2.93528">
        <ele>858.006796</ele>
        <time>2022-02-24T12:47:14.268Z</time>
      </trkpt>
      <trkpt lat="37.70408" lon="-2.93546">
        <ele>856.865995</ele>
        <time>2022-02-24T12:47:16.780Z</time>
      </trkpt>
      <trkpt lat="37.70388" lon="-2.93545">
        <ele>855.399776</ele>
        <time>2022-02-24T12:47:19.983Z</time>
      </trkpt>
      <trkpt lat="37.70383" lon="-2.93563">
        <ele>854.286816</ele>
        <time>2022-02-24T12:47:22.466Z</time>
      </trkpt>
      <trkpt lat="37.70366" lon="-2.93603">
        <ele>852.441259</ele>
        <time>2022-02-24T12:47:28.290Z</time>
      </trkpt>
      <trkpt lat="37.70326" lon="-2.93662">
        <ele>850.086435</ele>
        <time>2022-02-24T12:47:38.349Z</time>
      </trkpt>
      <trkpt lat="37.70307" lon="-2.93692">
        <ele>848.906116</ele>
        <time>2022-02-24T12:47:43.520Z</time>
      </trkpt>
      <trkpt lat="37.70273" lon="-2.9375">
        <ele>846.680805</ele>
        <time>2022-02-24T12:47:53.870Z</time>
      </trkpt>
      <trkpt lat="37.70245" lon="-2.93797">
        <ele>845.999927</ele>
        <time>2022-02-24T12:48:02.953Z</time>
      </trkpt>
      <trkpt lat="37.70242" lon="-2.93796">
        <ele>845.967285</ele>
        <time>2022-02-24T12:48:03.665Z</time>
      </trkpt>
      <trkpt lat="37.70214" lon="-2.93848">
        <ele>845.485619</ele>
        <time>2022-02-24T12:48:13.597Z</time>
      </trkpt>
      <trkpt lat="37.70207" lon="-2.93906">
        <ele>845.035715</ele>
        <time>2022-02-24T12:48:22.820Z</time>
      </trkpt>
      <trkpt lat="37.70187" lon="-2.93947">
        <ele>844.673029</ele>
        <time>2022-02-24T12:48:30.607Z</time>
      </trkpt>
      <trkpt lat="37.70152" lon="-2.93995">
        <ele>844.324231</ele>
        <time>2022-02-24T12:48:42.020Z</time>
      </trkpt>
      <trkpt lat="37.70122" lon="-2.94019">
        <ele>844.096768</ele>
        <time>2022-02-24T12:48:49.644Z</time>
      </trkpt>
      <trkpt lat="37.70048" lon="-2.94061">
        <ele>843.572359</ele>
        <time>2022-02-24T12:49:06.144Z</time>
      </trkpt>
      <trkpt lat="37.69934" lon="-2.94113">
        <ele>842.26771</ele>
        <time>2022-02-24T12:49:29.771Z</time>
      </trkpt>
      <trkpt lat="37.69869" lon="-2.94134">
        <ele>841.502327</ele>
        <time>2022-02-24T12:49:42.844Z</time>
      </trkpt>
      <trkpt lat="37.69846" lon="-2.94136">
        <ele>841.191515</ele>
        <time>2022-02-24T12:49:47.355Z</time>
      </trkpt>
      <trkpt lat="37.69781" lon="-2.94145">
        <ele>840.237629</ele>
        <time>2022-02-24T12:50:00.182Z</time>
      </trkpt>
      <trkpt lat="37.69764" lon="-2.9415">
        <ele>839.976817</ele>
        <time>2022-02-24T12:50:03.655Z</time>
      </trkpt>
      <trkpt lat="37.69627" lon="-2.94193">
        <ele>837.355652</ele>
        <time>2022-02-24T12:50:29.997Z</time>
      </trkpt>
      <trkpt lat="37.69614" lon="-2.94218">
        <ele>836.791676</ele>
        <time>2022-02-24T12:50:34.114Z</time>
      </trkpt>
      <trkpt lat="37.69611" lon="-2.94234">
        <ele>836.472261</ele>
        <time>2022-02-24T12:50:36.496Z</time>
      </trkpt>
      <trkpt lat="37.69601" lon="-2.9425">
        <ele>836.080799</ele>
        <time>2022-02-24T12:50:39.292Z</time>
      </trkpt>
      <trkpt lat="37.69586" lon="-2.94257">
        <ele>835.68991</ele>
        <time>2022-02-24T12:50:42.199Z</time>
      </trkpt>
      <trkpt lat="37.6957" lon="-2.94253">
        <ele>835.296549</ele>
        <time>2022-02-24T12:50:44.982Z</time>
      </trkpt>
      <trkpt lat="37.69557" lon="-2.94238">
        <ele>834.869429</ele>
        <time>2022-02-24T12:50:48.092Z</time>
      </trkpt>
      <trkpt lat="37.69499" lon="-2.94284">
        <ele>833.096907</ele>
        <time>2022-02-24T12:50:59.828Z</time>
      </trkpt>
      <trkpt lat="37.69406" lon="-2.94354">
        <ele>830.235456</ele>
        <time>2022-02-24T12:51:18.821Z</time>
      </trkpt>
      <trkpt lat="37.69352" lon="-2.94385">
        <ele>829.110199</ele>
        <time>2022-02-24T12:51:29.554Z</time>
      </trkpt>
      <trkpt lat="37.69105" lon="-2.94483">
        <ele>825.783408</ele>
        <time>2022-02-24T12:52:20.242Z</time>
      </trkpt>
      <trkpt lat="37.68994" lon="-2.94532">
        <ele>824.794853</ele>
        <time>2022-02-24T12:52:44.006Z</time>
      </trkpt>
      <trkpt lat="37.68948" lon="-2.94561">
        <ele>824.470802</ele>
        <time>2022-02-24T12:52:54.680Z</time>
      </trkpt>
      <trkpt lat="37.68897" lon="-2.94602">
        <ele>824.095954</ele>
        <time>2022-02-24T12:53:07.134Z</time>
      </trkpt>
      <trkpt lat="37.68851" lon="-2.94654">
        <ele>823.809686</ele>
        <time>2022-02-24T12:53:19.985Z</time>
      </trkpt>
      <trkpt lat="37.68842" lon="-2.94644">
        <ele>823.759765</ele>
        <time>2022-02-24T12:53:22.620Z</time>
      </trkpt>
      <trkpt lat="37.68592" lon="-2.94851">
        <ele>822.576741</ele>
        <time>2022-02-24T12:54:28.955Z</time>
      </trkpt>
      <trkpt lat="37.68312" lon="-2.94977">
        <ele>821.788449</ele>
        <time>2022-02-24T12:55:34.082Z</time>
      </trkpt>
      <trkpt lat="37.68237" lon="-2.94986">
        <ele>821.960362</ele>
        <time>2022-02-24T12:55:54.553Z</time>
      </trkpt>
      <trkpt lat="37.6819" lon="-2.94992">
        <ele>822.524782</ele>
        <time>2022-02-24T12:56:08.344Z</time>
      </trkpt>
      <trkpt lat="37.6807" lon="-2.95038">
        <ele>824.019988</ele>
        <time>2022-02-24T12:56:46.082Z</time>
      </trkpt>
      <trkpt lat="37.68016" lon="-2.95037">
        <ele>824.525418</ele>
        <time>2022-02-24T12:57:01.616Z</time>
      </trkpt>
      <trkpt lat="37.67831" lon="-2.95143">
        <ele>825.915815</ele>
        <time>2022-02-24T12:57:56.509Z</time>
      </trkpt>
      <trkpt lat="37.67767" lon="-2.95161">
        <ele>826.126184</ele>
        <time>2022-02-24T12:58:12.322Z</time>
      </trkpt>
      <trkpt lat="37.67706" lon="-2.95178">
        <ele>825.969655</ele>
        <time>2022-02-24T12:58:26.441Z</time>
      </trkpt>
      <trkpt lat="37.67471" lon="-2.9532">
        <ele>823.5058</ele>
        <time>2022-02-24T12:59:20.361Z</time>
      </trkpt>
      <trkpt lat="37.6719" lon="-2.95284">
        <ele>820.87012</ele>
        <time>2022-02-24T13:00:18.816Z</time>
      </trkpt>
      <trkpt lat="37.66985" lon="-2.9528">
        <ele>820.580505</ele>
        <time>2022-02-24T13:01:06.106Z</time>
      </trkpt>
      <trkpt lat="37.66879" lon="-2.9529">
        <ele>820.712019</ele>
        <time>2022-02-24T13:01:32.462Z</time>
      </trkpt>
      <trkpt lat="37.66408" lon="-2.95241">
        <ele>820.562511</ele>
        <time>2022-02-24T13:03:20.710Z</time>
      </trkpt>
      <trkpt lat="37.66391" lon="-2.95313">
        <ele>820.6101</ele>
        <time>2022-02-24T13:03:34.535Z</time>
      </trkpt>
      <trkpt lat="37.66378" lon="-2.95336">
        <ele>820.629389</ele>
        <time>2022-02-24T13:03:39.982Z</time>
      </trkpt>
      <trkpt lat="37.66242" lon="-2.95396">
        <ele>821.167464</ele>
        <time>2022-02-24T13:04:15.066Z</time>
      </trkpt>
      <trkpt lat="37.66221" lon="-2.9541">
        <ele>821.256696</ele>
        <time>2022-02-24T13:04:20.902Z</time>
      </trkpt>
      <trkpt lat="37.6616" lon="-2.95463">
        <ele>821.199032</ele>
        <time>2022-02-24T13:04:38.457Z</time>
      </trkpt>
      <trkpt lat="37.66131" lon="-2.955">
        <ele>821.132248</ele>
        <time>2022-02-24T13:04:47.436Z</time>
      </trkpt>
      <trkpt lat="37.66106" lon="-2.95544">
        <ele>821.063983</ele>
        <time>2022-02-24T13:04:56.256Z</time>
      </trkpt>
      <trkpt lat="37.66098" lon="-2.95563">
        <ele>821.036011</ele>
        <time>2022-02-24T13:04:59.781Z</time>
      </trkpt>
      <trkpt lat="37.66092" lon="-2.95598">
        <ele>820.944865</ele>
        <time>2022-02-24T13:05:05.580Z</time>
      </trkpt>
      <trkpt lat="37.66094" lon="-2.9581">
        <ele>820.072711</ele>
        <time>2022-02-24T13:05:40.352Z</time>
      </trkpt>
      <trkpt lat="37.66087" lon="-2.95869">
        <ele>820.275435</ele>
        <time>2022-02-24T13:05:50.620Z</time>
      </trkpt>
      <trkpt lat="37.65941" lon="-2.9606">
        <ele>821.99953</ele>
        <time>2022-02-24T13:06:45.118Z</time>
      </trkpt>
      <trkpt lat="37.65928" lon="-2.96063">
        <ele>822.193319</ele>
        <time>2022-02-24T13:06:49.089Z</time>
      </trkpt>
      <trkpt lat="37.65875" lon="-2.9615">
        <ele>823.490913</ele>
        <time>2022-02-24T13:07:17.008Z</time>
      </trkpt>
      <trkpt lat="37.65703" lon="-2.96346">
        <ele>829.255027</ele>
        <time>2022-02-24T13:08:40.139Z</time>
      </trkpt>
      <trkpt lat="37.65634" lon="-2.96395">
        <ele>830.904021</ele>
        <time>2022-02-24T13:09:06.005Z</time>
      </trkpt>
      <trkpt lat="37.65595" lon="-2.96432">
        <ele>831.909946</ele>
        <time>2022-02-24T13:09:20.611Z</time>
      </trkpt>
      <trkpt lat="37.65565" lon="-2.96444">
        <ele>832.395379</ele>
        <time>2022-02-24T13:09:29.706Z</time>
      </trkpt>
      <trkpt lat="37.65502" lon="-2.9645">
        <ele>833.330072</ele>
        <time>2022-02-24T13:09:47.784Z</time>
      </trkpt>
      <trkpt lat="37.65456" lon="-2.96436">
        <ele>834.016435</ele>
        <time>2022-02-24T13:10:01.958Z</time>
      </trkpt>
      <trkpt lat="37.65392" lon="-2.96449">
        <ele>834.938649</ele>
        <time>2022-02-24T13:10:21.622Z</time>
      </trkpt>
      <trkpt lat="37.65379" lon="-2.96462">
        <ele>835.165386</ele>
        <time>2022-02-24T13:10:26.740Z</time>
      </trkpt>
      <trkpt lat="37.65355" lon="-2.96496">
        <ele>835.646481</ele>
        <time>2022-02-24T13:10:37.440Z</time>
      </trkpt>
      <trkpt lat="37.65211" lon="-2.96581">
        <ele>837.539364</ele>
        <time>2022-02-24T13:11:22.235Z</time>
      </trkpt>
      <trkpt lat="37.65182" lon="-2.96611">
        <ele>837.891799</ele>
        <time>2022-02-24T13:11:32.107Z</time>
      </trkpt>
      <trkpt lat="37.65075" lon="-2.9665">
        <ele>838.898612</ele>
        <time>2022-02-24T13:12:01.360Z</time>
      </trkpt>
      <trkpt lat="37.65067" lon="-2.96659">
        <ele>838.982365</ele>
        <time>2022-02-24T13:12:04.035Z</time>
      </trkpt>
      <trkpt lat="37.6499" lon="-2.96718">
        <ele>839.690407</ele>
        <time>2022-02-24T13:12:27.473Z</time>
      </trkpt>
      <trkpt lat="37.64909" lon="-2.96764">
        <ele>840.353982</ele>
        <time>2022-02-24T13:12:51.114Z</time>
      </trkpt>
      <trkpt lat="37.64782" lon="-2.968">
        <ele>841.234814</ele>
        <time>2022-02-24T13:13:24.229Z</time>
      </trkpt>
      <trkpt lat="37.64705" lon="-2.96842">
        <ele>841.485204</ele>
        <time>2022-02-24T13:13:45.049Z</time>
      </trkpt>
      <trkpt lat="37.64629" lon="-2.96873">
        <ele>841.662169</ele>
        <time>2022-02-24T13:14:03.589Z</time>
      </trkpt>
      <trkpt lat="37.64573" lon="-2.96907">
        <ele>841.477456</ele>
        <time>2022-02-24T13:14:17.153Z</time>
      </trkpt>
      <trkpt lat="37.64232" lon="-2.9707">
        <ele>837.711663</ele>
        <time>2022-02-24T13:15:29.498Z</time>
      </trkpt>
      <trkpt lat="37.64194" lon="-2.97094">
        <ele>836.895966</ele>
        <time>2022-02-24T13:15:37.466Z</time>
      </trkpt>
      <trkpt lat="37.64124" lon="-2.97199">
        <ele>834.717754</ele>
        <time>2022-02-24T13:15:57.021Z</time>
      </trkpt>
      <trkpt lat="37.64012" lon="-2.97235">
        <ele>831.3985</ele>
        <time>2022-02-24T13:16:17.004Z</time>
      </trkpt>
      <trkpt lat="37.63918" lon="-2.97313">
        <ele>828.543538</ele>
        <time>2022-02-24T13:16:36.458Z</time>
      </trkpt>
      <trkpt lat="37.63808" lon="-2.9743">
        <ele>825.610805</ele>
        <time>2022-02-24T13:17:02.928Z</time>
      </trkpt>
      <trkpt lat="37.63776" lon="-2.97459">
        <ele>825.19326</ele>
        <time>2022-02-24T13:17:16.692Z</time>
      </trkpt>
      <trkpt lat="37.63765" lon="-2.97494">
        <ele>824.884858</ele>
        <time>2022-02-24T13:17:27.000Z</time>
      </trkpt>
      <trkpt lat="37.63768" lon="-2.9751">
        <ele>824.753626</ele>
        <time>2022-02-24T13:17:31.465Z</time>
      </trkpt>
      <trkpt lat="37.63843" lon="-2.97576">
        <ele>823.550606</ele>
        <time>2022-02-24T13:18:03.970Z</time>
      </trkpt>
      <trkpt lat="37.63846" lon="-2.97587">
        <ele>823.293499</ele>
        <time>2022-02-24T13:18:07.181Z</time>
      </trkpt>
      <trkpt lat="37.63869" lon="-2.97698">
        <ele>820.754613</ele>
        <time>2022-02-24T13:18:38.113Z</time>
      </trkpt>
      <trkpt lat="37.63873" lon="-2.97936">
        <ele>810.471365</ele>
        <time>2022-02-24T13:19:31.009Z</time>
      </trkpt>
      <trkpt lat="37.63955" lon="-2.98079">
        <ele>799.467085</ele>
        <time>2022-02-24T13:20:07.498Z</time>
      </trkpt>
      <trkpt lat="37.64053" lon="-2.98149">
        <ele>790.293859</ele>
        <time>2022-02-24T13:20:37.156Z</time>
      </trkpt>
      <trkpt lat="37.64035" lon="-2.98232">
        <ele>786.357022</ele>
        <time>2022-02-24T13:20:56.762Z</time>
      </trkpt>
      <trkpt lat="37.64111" lon="-2.9842">
        <ele>776.925692</ele>
        <time>2022-02-24T13:21:44.556Z</time>
      </trkpt>
      <trkpt lat="37.641" lon="-2.98537">
        <ele>771.874187</ele>
        <time>2022-02-24T13:22:11.031Z</time>
      </trkpt>
      <trkpt lat="37.64055" lon="-2.98552">
        <ele>768.688364</ele>
        <time>2022-02-24T13:22:24.350Z</time>
      </trkpt>
      <trkpt lat="37.6406" lon="-2.98607">
        <ele>765.351936</ele>
        <time>2022-02-24T13:22:37.026Z</time>
      </trkpt>
      <trkpt lat="37.64134" lon="-2.98755">
        <ele>753.872466</ele>
        <time>2022-02-24T13:23:13.326Z</time>
      </trkpt>
      <trkpt lat="37.64141" lon="-2.98781">
        <ele>751.623064</ele>
        <time>2022-02-24T13:23:18.828Z</time>
      </trkpt>
      <trkpt lat="37.6417" lon="-2.98906">
        <ele>740.853437</ele>
        <time>2022-02-24T13:23:45.054Z</time>
      </trkpt>
      <trkpt lat="37.64168" lon="-2.98986">
        <ele>735.525472</ele>
        <time>2022-02-24T13:24:01.110Z</time>
      </trkpt>
      <trkpt lat="37.64159" lon="-2.99009">
        <ele>734.00751</ele>
        <time>2022-02-24T13:24:06.330Z</time>
      </trkpt>
      <trkpt lat="37.64137" lon="-2.99025">
        <ele>732.108583</ele>
        <time>2022-02-24T13:24:12.946Z</time>
      </trkpt>
      <trkpt lat="37.64133" lon="-2.99008">
        <ele>731.075486</ele>
        <time>2022-02-24T13:24:16.931Z</time>
      </trkpt>
      <trkpt lat="37.64113" lon="-2.98985">
        <ele>729.018036</ele>
        <time>2022-02-24T13:24:24.702Z</time>
      </trkpt>
      <trkpt lat="37.641" lon="-2.98989">
        <ele>728.027053</ele>
        <time>2022-02-24T13:24:28.692Z</time>
      </trkpt>
      <trkpt lat="37.64094" lon="-2.99007">
        <ele>726.856444</ele>
        <time>2022-02-24T13:24:33.170Z</time>
      </trkpt>
      <trkpt lat="37.64104" lon="-2.99028">
        <ele>725.427775</ele>
        <time>2022-02-24T13:24:38.915Z</time>
      </trkpt>
      <trkpt lat="37.64096" lon="-2.9905">
        <ele>724.130637</ele>
        <time>2022-02-24T13:24:44.116Z</time>
      </trkpt>
      <trkpt lat="37.64134" lon="-2.99092">
        <ele>720.572798</ele>
        <time>2022-02-24T13:24:59.138Z</time>
      </trkpt>
      <trkpt lat="37.64125" lon="-2.99123">
        <ele>718.75785</ele>
        <time>2022-02-24T13:25:06.369Z</time>
      </trkpt>
      <trkpt lat="37.64191" lon="-2.99164">
        <ele>713.636318</ele>
        <time>2022-02-24T13:25:26.010Z</time>
      </trkpt>
      <trkpt lat="37.64186" lon="-2.99203">
        <ele>710.391518</ele>
        <time>2022-02-24T13:25:34.234Z</time>
      </trkpt>
      <trkpt lat="37.6425" lon="-2.99268">
        <ele>700.052282</ele>
        <time>2022-02-24T13:25:54.576Z</time>
      </trkpt>
      <trkpt lat="37.64252" lon="-2.99407">
        <ele>685.830227</ele>
        <time>2022-02-24T13:26:21.385Z</time>
      </trkpt>
      <trkpt lat="37.64217" lon="-2.9948">
        <ele>676.654134</ele>
        <time>2022-02-24T13:26:38.109Z</time>
      </trkpt>
      <trkpt lat="37.64217" lon="-2.99648">
        <ele>658.585166</ele>
        <time>2022-02-24T13:27:10.631Z</time>
      </trkpt>
      <trkpt lat="37.6406" lon="-2.99786">
        <ele>634.716332</ele>
        <time>2022-02-24T13:27:57.526Z</time>
      </trkpt>
      <trkpt lat="37.64" lon="-2.99794">
        <ele>628.755698</ele>
        <time>2022-02-24T13:28:12.778Z</time>
      </trkpt>
      <trkpt lat="37.63913" lon="-2.99772">
        <ele>621.009671</ele>
        <time>2022-02-24T13:28:37.711Z</time>
      </trkpt>
      <trkpt lat="37.63877" lon="-2.99799">
        <ele>618.359222</ele>
        <time>2022-02-24T13:28:50.467Z</time>
      </trkpt>
      <trkpt lat="37.63892" lon="-2.99861">
        <ele>615.138275</ele>
        <time>2022-02-24T13:29:04.897Z</time>
      </trkpt>
      <trkpt lat="37.63941" lon="-2.99885">
        <ele>611.839212</ele>
        <time>2022-02-24T13:29:18.983Z</time>
      </trkpt>
      <trkpt lat="37.63915" lon="-3.00001">
        <ele>605.835701</ele>
        <time>2022-02-24T13:29:44.180Z</time>
      </trkpt>
      <trkpt lat="37.63957" lon="-3.00068">
        <ele>601.595918</ele>
        <time>2022-02-24T13:30:02.882Z</time>
      </trkpt>
      <trkpt lat="37.64087" lon="-3.00066">
        <ele>596.837904</ele>
        <time>2022-02-24T13:30:45.798Z</time>
      </trkpt>
      <trkpt lat="37.64132" lon="-3.00022">
        <ele>595.026063</ele>
        <time>2022-02-24T13:31:04.985Z</time>
      </trkpt>
      <trkpt lat="37.64146" lon="-3.00024">
        <ele>594.452872</ele>
        <time>2022-02-24T13:31:08.918Z</time>
      </trkpt>
      <trkpt lat="37.64083" lon="-3.00115">
        <ele>583.361021</ele>
        <time>2022-02-24T13:31:33.614Z</time>
      </trkpt>
      <trkpt lat="37.64006" lon="-3.00167">
        <ele>573.14244</ele>
        <time>2022-02-24T13:31:54.732Z</time>
      </trkpt>
      <trkpt lat="37.63927" lon="-3.00154">
        <ele>562.480247</ele>
        <time>2022-02-24T13:32:13.711Z</time>
      </trkpt>
      <trkpt lat="37.63904" lon="-3.00126">
        <ele>558.185886</ele>
        <time>2022-02-24T13:32:21.381Z</time>
      </trkpt>
      <trkpt lat="37.63833" lon="-3.00098">
        <ele>549.029409</ele>
        <time>2022-02-24T13:32:40.342Z</time>
      </trkpt>
      <trkpt lat="37.6381" lon="-3.00129">
        <ele>547.128177</ele>
        <time>2022-02-24T13:32:49.514Z</time>
      </trkpt>
      <trkpt lat="37.6381" lon="-3.00157">
        <ele>545.913701</ele>
        <time>2022-02-24T13:32:55.436Z</time>
      </trkpt>
      <trkpt lat="37.63795" lon="-3.00229">
        <ele>542.563505</ele>
        <time>2022-02-24T13:33:12.576Z</time>
      </trkpt>
      <trkpt lat="37.63776" lon="-3.00246">
        <ele>541.259079</ele>
        <time>2022-02-24T13:33:19.413Z</time>
      </trkpt>
      <trkpt lat="37.63736" lon="-3.00258">
        <ele>539.374363</ele>
        <time>2022-02-24T13:33:31.733Z</time>
      </trkpt>
      <trkpt lat="37.63648" lon="-3.00336">
        <ele>538.237129</ele>
        <time>2022-02-24T13:34:09.985Z</time>
      </trkpt>
      <trkpt lat="37.63586" lon="-3.0037">
        <ele>537.53002</ele>
        <time>2022-02-24T13:34:34.804Z</time>
      </trkpt>
      <trkpt lat="37.63391" lon="-3.00601">
        <ele>534.137558</ele>
        <time>2022-02-24T13:36:06.073Z</time>
      </trkpt>
      <trkpt lat="37.63326" lon="-3.00648">
        <ele>532.799316</ele>
        <time>2022-02-24T13:36:30.096Z</time>
      </trkpt>
      <trkpt lat="37.63362" lon="-3.00739">
        <ele>531.251005</ele>
        <time>2022-02-24T13:36:55.715Z</time>
      </trkpt>
      <trkpt lat="37.63364" lon="-3.00754">
        <ele>531.010324</ele>
        <time>2022-02-24T13:36:59.735Z</time>
      </trkpt>
      <trkpt lat="37.6335" lon="-3.00833">
        <ele>529.766557</ele>
        <time>2022-02-24T13:37:20.438Z</time>
      </trkpt>
      <trkpt lat="37.63331" lon="-3.00897">
        <ele>529.084337</ele>
        <time>2022-02-24T13:37:38.616Z</time>
      </trkpt>
      <trkpt lat="37.63208" lon="-3.01038">
        <ele>529.081873</ele>
        <time>2022-02-24T13:38:42.858Z</time>
      </trkpt>
      <trkpt lat="37.63163" lon="-3.01076">
        <ele>529.15367</ele>
        <time>2022-02-24T13:39:03.899Z</time>
      </trkpt>
      <trkpt lat="37.63145" lon="-3.01082">
        <ele>529.179596</ele>
        <time>2022-02-24T13:39:11.297Z</time>
      </trkpt>
      <trkpt lat="37.6312" lon="-3.01082">
        <ele>529.213075</ele>
        <time>2022-02-24T13:39:20.801Z</time>
      </trkpt>
      <trkpt lat="37.63027" lon="-3.01043">
        <ele>529.343817</ele>
        <time>2022-02-24T13:39:56.820Z</time>
      </trkpt>
      <trkpt lat="37.62969" lon="-3.00986">
        <ele>529.44267</ele>
        <time>2022-02-24T13:40:23.651Z</time>
      </trkpt>
      <trkpt lat="37.62957" lon="-3.00993">
        <ele>529.459769</ele>
        <time>2022-02-24T13:40:28.320Z</time>
      </trkpt>
      <trkpt lat="37.62923" lon="-3.01071">
        <ele>529.555297</ele>
        <time>2022-02-24T13:40:55.923Z</time>
      </trkpt>
      <trkpt lat="37.629" lon="-3.01189">
        <ele>530.689754</ele>
        <time>2022-02-24T13:41:36.258Z</time>
      </trkpt>
      <trkpt lat="37.62909" lon="-3.01226">
        <ele>531.053424</ele>
        <time>2022-02-24T13:41:49.780Z</time>
      </trkpt>
      <trkpt lat="37.62901" lon="-3.0124">
        <ele>531.213114</ele>
        <time>2022-02-24T13:41:55.698Z</time>
      </trkpt>
      <trkpt lat="37.62881" lon="-3.01247">
        <ele>531.452734</ele>
        <time>2022-02-24T13:42:04.931Z</time>
      </trkpt>
      <trkpt lat="37.62844" lon="-3.0122">
        <ele>532.091951</ele>
        <time>2022-02-24T13:42:24.593Z</time>
      </trkpt>
      <trkpt lat="37.62791" lon="-3.0122">
        <ele>533.02526</ele>
        <time>2022-02-24T13:42:49.615Z</time>
      </trkpt>
      <trkpt lat="37.62764" lon="-3.01226">
        <ele>533.520593</ele>
        <time>2022-02-24T13:43:02.988Z</time>
      </trkpt>
      <trkpt lat="37.62594" lon="-3.01222">
        <ele>535.85415</ele>
        <time>2022-02-24T13:44:18.599Z</time>
      </trkpt>
      <trkpt lat="37.62515" lon="-3.0127">
        <ele>536.770606</ele>
        <time>2022-02-24T13:44:54.273Z</time>
      </trkpt>
      <trkpt lat="37.62493" lon="-3.01273">
        <ele>536.72064</ele>
        <time>2022-02-24T13:45:03.026Z</time>
      </trkpt>
      <trkpt lat="37.62461" lon="-3.01259">
        <ele>536.646346</ele>
        <time>2022-02-24T13:45:15.372Z</time>
      </trkpt>
      <trkpt lat="37.62342" lon="-3.01139">
        <ele>536.194785</ele>
        <time>2022-02-24T13:46:09.940Z</time>
      </trkpt>
      <trkpt lat="37.62299" lon="-3.01115">
        <ele>535.911226</ele>
        <time>2022-02-24T13:46:26.055Z</time>
      </trkpt>
      <trkpt lat="37.6228" lon="-3.01113">
        <ele>535.797087</ele>
        <time>2022-02-24T13:46:32.567Z</time>
      </trkpt>
      <trkpt lat="37.62124" lon="-3.01135">
        <ele>535.45831</ele>
        <time>2022-02-24T13:47:29.010Z</time>
      </trkpt>
      <trkpt lat="37.62045" lon="-3.01136">
        <ele>535.649928</ele>
        <time>2022-02-24T13:47:59.879Z</time>
      </trkpt>
      <trkpt lat="37.62022" lon="-3.01143">
        <ele>535.707286</ele>
        <time>2022-02-24T13:48:09.735Z</time>
      </trkpt>
      <trkpt lat="37.61999" lon="-3.01152">
        <ele>535.991351</ele>
        <time>2022-02-24T13:48:20.244Z</time>
      </trkpt>
      <trkpt lat="37.61949" lon="-3.01234">
        <ele>537.135439</ele>
        <time>2022-02-24T13:48:56.608Z</time>
      </trkpt>
      <trkpt lat="37.61925" lon="-3.01251">
        <ele>537.519784</ele>
        <time>2022-02-24T13:49:09.150Z</time>
      </trkpt>
      <trkpt lat="37.61898" lon="-3.01262">
        <ele>537.919045</ele>
        <time>2022-02-24T13:49:22.039Z</time>
      </trkpt>
      <trkpt lat="37.61844" lon="-3.01268">
        <ele>538.56362</ele>
        <time>2022-02-24T13:49:45.855Z</time>
      </trkpt>
      <trkpt lat="37.61783" lon="-3.01266">
        <ele>539.206606</ele>
        <time>2022-02-24T13:50:12.273Z</time>
      </trkpt>
      <trkpt lat="37.61603" lon="-3.01226">
        <ele>540.952458</ele>
        <time>2022-02-24T13:51:26.793Z</time>
      </trkpt>
      <trkpt lat="37.61488" lon="-3.01244">
        <ele>542.200516</ele>
        <time>2022-02-24T13:52:15.501Z</time>
      </trkpt>
      <trkpt lat="37.61418" lon="-3.01247">
        <ele>543.371462</ele>
        <time>2022-02-24T13:52:45.492Z</time>
      </trkpt>
      <trkpt lat="37.61382" lon="-3.01263">
        <ele>544.011216</ele>
        <time>2022-02-24T13:53:02.872Z</time>
      </trkpt>
      <trkpt lat="37.6136" lon="-3.01251">
        <ele>544.399828</ele>
        <time>2022-02-24T13:53:13.608Z</time>
      </trkpt>
      <trkpt lat="37.61334" lon="-3.01222">
        <ele>545.745077</ele>
        <time>2022-02-24T13:53:29.819Z</time>
      </trkpt>
      <trkpt lat="37.61308" lon="-3.01247">
        <ele>547.755168</ele>
        <time>2022-02-24T13:53:50.073Z</time>
      </trkpt>
      <trkpt lat="37.61286" lon="-3.01296">
        <ele>550.446622</ele>
        <time>2022-02-24T13:54:19.926Z</time>
      </trkpt>
      <trkpt lat="37.61285" lon="-3.01318">
        <ele>551.524203</ele>
        <time>2022-02-24T13:54:33.524Z</time>
      </trkpt>
      <trkpt lat="37.61298" lon="-3.01382">
        <ele>554.677605</ele>
        <time>2022-02-24T13:55:12.044Z</time>
      </trkpt>
      <trkpt lat="37.61296" lon="-3.01395">
        <ele>555.324083</ele>
        <time>2022-02-24T13:55:22.606Z</time>
      </trkpt>
      <trkpt lat="37.6126" lon="-3.01459">
        <ele>559.618367</ele>
        <time>2022-02-24T13:56:10.398Z</time>
      </trkpt>
      <trkpt lat="37.61244" lon="-3.01545">
        <ele>564.542996</ele>
        <time>2022-02-24T13:57:03.180Z</time>
      </trkpt>
      <trkpt lat="37.61248" lon="-3.01639">
        <ele>568.698719</ele>
        <time>2022-02-24T13:57:52.015Z</time>
      </trkpt>
      <trkpt lat="37.61246" lon="-3.01718">
        <ele>570.207883</ele>
        <time>2022-02-24T13:58:24.446Z</time>
      </trkpt>
      <trkpt lat="37.6125" lon="-3.01866">
        <ele>572.537876</ele>
        <time>2022-02-24T13:59:12.856Z</time>
      </trkpt>
      <trkpt lat="37.61237" lon="-3.01908">
        <ele>572.628769</ele>
        <time>2022-02-24T13:59:27.254Z</time>
      </trkpt>
      <trkpt lat="37.61235" lon="-3.01934">
        <ele>572.681344</ele>
        <time>2022-02-24T13:59:35.624Z</time>
      </trkpt>
      <trkpt lat="37.61237" lon="-3.0196">
        <ele>572.733505</ele>
        <time>2022-02-24T13:59:43.960Z</time>
      </trkpt>
      <trkpt lat="37.61284" lon="-3.0203">
        <ele>572.916507</ele>
        <time>2022-02-24T14:00:12.756Z</time>
      </trkpt>
      <trkpt lat="37.61294" lon="-3.02069">
        <ele>572.264037</ele>
        <time>2022-02-24T14:00:23.486Z</time>
      </trkpt>
      <trkpt lat="37.61348" lon="-3.02105">
        <ele>570.660235</ele>
        <time>2022-02-24T14:00:43.108Z</time>
      </trkpt>
      <trkpt lat="37.61371" lon="-3.02131">
        <ele>569.87076</ele>
        <time>2022-02-24T14:00:52.754Z</time>
      </trkpt>
      <trkpt lat="37.61393" lon="-3.02146">
        <ele>569.204842</ele>
        <time>2022-02-24T14:01:00.069Z</time>
      </trkpt>
      <trkpt lat="37.61392" lon="-3.02158">
        <ele>568.947878</ele>
        <time>2022-02-24T14:01:04.166Z</time>
      </trkpt>
      <trkpt lat="37.61376" lon="-3.02165">
        <ele>568.489791</ele>
        <time>2022-02-24T14:01:08.903Z</time>
      </trkpt>
      <trkpt lat="37.61344" lon="-3.02152">
        <ele>567.195043</ele>
        <time>2022-02-24T14:01:18.924Z</time>
      </trkpt>
      <trkpt lat="37.61308" lon="-3.02161">
        <ele>565.509208</ele>
        <time>2022-02-24T14:01:29.856Z</time>
      </trkpt>
      <trkpt lat="37.61257" lon="-3.02116">
        <ele>562.640941</ele>
        <time>2022-02-24T14:01:47.870Z</time>
      </trkpt>
      <trkpt lat="37.61224" lon="-3.02027">
        <ele>559.025681</ele>
        <time>2022-02-24T14:02:10.407Z</time>
      </trkpt>
      <trkpt lat="37.61212" lon="-3.02011">
        <ele>558.218369</ele>
        <time>2022-02-24T14:02:15.415Z</time>
      </trkpt>
      <trkpt lat="37.61186" lon="-3.01992">
        <ele>556.784686</ele>
        <time>2022-02-24T14:02:24.243Z</time>
      </trkpt>
      <trkpt lat="37.61106" lon="-3.01954">
        <ele>552.731143</ele>
        <time>2022-02-24T14:02:49.109Z</time>
      </trkpt>
      <trkpt lat="37.61092" lon="-3.01935">
        <ele>551.751026</ele>
        <time>2022-02-24T14:02:55.018Z</time>
      </trkpt>
      <trkpt lat="37.61088" lon="-3.01893">
        <ele>550.426777</ele>
        <time>2022-02-24T14:03:04.567Z</time>
      </trkpt>
      <trkpt lat="37.61071" lon="-3.01869">
        <ele>549.462526</ele>
        <time>2022-02-24T14:03:12.018Z</time>
      </trkpt>
      <trkpt lat="37.6105" lon="-3.01786">
        <ele>546.855439</ele>
        <time>2022-02-24T14:03:32.554Z</time>
      </trkpt>
      <trkpt lat="37.61035" lon="-3.01767">
        <ele>546.042044</ele>
        <time>2022-02-24T14:03:39.034Z</time>
      </trkpt>
      <trkpt lat="37.60978" lon="-3.01722">
        <ele>544.576985</ele>
        <time>2022-02-24T14:04:00.167Z</time>
      </trkpt>
      <trkpt lat="37.60962" lon="-3.01627">
        <ele>544.486955</ele>
        <time>2022-02-24T14:04:26.401Z</time>
      </trkpt>
      <trkpt lat="37.60826" lon="-3.01585">
        <ele>547.062793</ele>
        <time>2022-02-24T14:05:34.545Z</time>
      </trkpt>
      <trkpt lat="37.60758" lon="-3.01535">
        <ele>550.232586</ele>
        <time>2022-02-24T14:06:23.427Z</time>
      </trkpt>
      <trkpt lat="37.60673" lon="-3.01505">
        <ele>553.78784</ele>
        <time>2022-02-24T14:07:18.999Z</time>
      </trkpt>
      <trkpt lat="37.60641" lon="-3.01504">
        <ele>555.101791</ele>
        <time>2022-02-24T14:07:38.805Z</time>
      </trkpt>
      <trkpt lat="37.60598" lon="-3.0147">
        <ele>557.142149</ele>
        <time>2022-02-24T14:08:08.095Z</time>
      </trkpt>
      <trkpt lat="37.6056" lon="-3.01423">
        <ele>558.952652</ele>
        <time>2022-02-24T14:08:35.331Z</time>
      </trkpt>
      <trkpt lat="37.60494" lon="-3.01355">
        <ele>559.298905</ele>
        <time>2022-02-24T14:09:11.099Z</time>
      </trkpt>
      <trkpt lat="37.60418" lon="-3.01306">
        <ele>559.630364</ele>
        <time>2022-02-24T14:09:41.698Z</time>
      </trkpt>
      <trkpt lat="37.60382" lon="-3.01269">
        <ele>558.229973</ele>
        <time>2022-02-24T14:09:56.829Z</time>
      </trkpt>
      <trkpt lat="37.60325" lon="-3.01224">
        <ele>556.203859</ele>
        <time>2022-02-24T14:10:17.410Z</time>
      </trkpt>
      <trkpt lat="37.60268" lon="-3.01195">
        <ele>554.303038</ele>
        <time>2022-02-24T14:10:35.808Z</time>
      </trkpt>
      <trkpt lat="37.6018" lon="-3.01181">
        <ele>551.039521</ele>
        <time>2022-02-24T14:11:01.747Z</time>
      </trkpt>
      <trkpt lat="37.6017" lon="-3.01183">
        <ele>550.649463</ele>
        <time>2022-02-24T14:11:04.763Z</time>
      </trkpt>
      <trkpt lat="37.60087" lon="-3.01247">
        <ele>547.377878</ele>
        <time>2022-02-24T14:11:34.467Z</time>
      </trkpt>
      <trkpt lat="37.60056" lon="-3.01261">
        <ele>547.141205</ele>
        <time>2022-02-24T14:11:45.317Z</time>
      </trkpt>
      <trkpt lat="37.59996" lon="-3.01272">
        <ele>546.714666</ele>
        <time>2022-02-24T14:12:06.171Z</time>
      </trkpt>
      <trkpt lat="37.59976" lon="-3.01281">
        <ele>546.56554</ele>
        <time>2022-02-24T14:12:13.904Z</time>
      </trkpt>
      <trkpt lat="37.59793" lon="-3.01419">
        <ele>548.337895</ele>
        <time>2022-02-24T14:13:45.595Z</time>
      </trkpt>
      <trkpt lat="37.59706" lon="-3.01435">
        <ele>550.08186</ele>
        <time>2022-02-24T14:14:27.701Z</time>
      </trkpt>
      <trkpt lat="37.59633" lon="-3.01431">
        <ele>551.676689</ele>
        <time>2022-02-24T14:15:03.523Z</time>
      </trkpt>
      <trkpt lat="37.59606" lon="-3.0144">
        <ele>552.287126</ele>
        <time>2022-02-24T14:15:17.091Z</time>
      </trkpt>
      <trkpt lat="37.59539" lon="-3.01477">
        <ele>553.662868</ele>
        <time>2022-02-24T14:15:51.829Z</time>
      </trkpt>
      <trkpt lat="37.59546" lon="-3.01506">
        <ele>554.091513</ele>
        <time>2022-02-24T14:15:59.463Z</time>
      </trkpt>
      <trkpt lat="37.59588" lon="-3.01608">
        <ele>555.769874</ele>
        <time>2022-02-24T14:16:28.023Z</time>
      </trkpt>
      <trkpt lat="37.5962" lon="-3.0165">
        <ele>556.574102</ele>
        <time>2022-02-24T14:16:42.156Z</time>
      </trkpt>
      <trkpt lat="37.59627" lon="-3.01671">
        <ele>556.888365</ele>
        <time>2022-02-24T14:16:47.674Z</time>
      </trkpt>
      <trkpt lat="37.5963" lon="-3.01716">
        <ele>557.524059</ele>
        <time>2022-02-24T14:16:59.018Z</time>
      </trkpt>
      <trkpt lat="37.59609" lon="-3.01766">
        <ele>558.302705</ele>
        <time>2022-02-24T14:17:13.409Z</time>
      </trkpt>
      <trkpt lat="37.59602" lon="-3.01794">
        <ele>558.715021</ele>
        <time>2022-02-24T14:17:21.399Z</time>
      </trkpt>
      <trkpt lat="37.59598" lon="-3.01862">
        <ele>559.722823</ele>
        <time>2022-02-24T14:17:39.491Z</time>
      </trkpt>
      <trkpt lat="37.59565" lon="-3.01968">
        <ele>561.449205</ele>
        <time>2022-02-24T14:18:09.562Z</time>
      </trkpt>
      <trkpt lat="37.59552" lon="-3.02034">
        <ele>562.445074</ele>
        <time>2022-02-24T14:18:26.737Z</time>
      </trkpt>
      <trkpt lat="37.5957" lon="-3.0214">
        <ele>563.399564</ele>
        <time>2022-02-24T14:18:52.223Z</time>
      </trkpt>
      <trkpt lat="37.59565" lon="-3.0217">
        <ele>563.663575</ele>
        <time>2022-02-24T14:18:58.716Z</time>
      </trkpt>
      <trkpt lat="37.59557" lon="-3.02195">
        <ele>563.902757</ele>
        <time>2022-02-24T14:19:04.584Z</time>
      </trkpt>
      <trkpt lat="37.59512" lon="-3.0224">
        <ele>564.582114</ele>
        <time>2022-02-24T14:19:20.074Z</time>
      </trkpt>
      <trkpt lat="37.59507" lon="-3.02251">
        <ele>564.741413</ele>
        <time>2022-02-24T14:19:22.958Z</time>
      </trkpt>
      <trkpt lat="37.59494" lon="-3.02317">
        <ele>565.525774</ele>
        <time>2022-02-24T14:19:37.230Z</time>
      </trkpt>
      <trkpt lat="37.59512" lon="-3.0238">
        <ele>566.311921</ele>
        <time>2022-02-24T14:19:53.082Z</time>
      </trkpt>
      <trkpt lat="37.59505" lon="-3.02402">
        <ele>566.593903</ele>
        <time>2022-02-24T14:19:59.174Z</time>
      </trkpt>
      <trkpt lat="37.59454" lon="-3.02473">
        <ele>568.473901</ele>
        <time>2022-02-24T14:20:26.905Z</time>
      </trkpt>
      <trkpt lat="37.59442" lon="-3.02514">
        <ele>569.596544</ele>
        <time>2022-02-24T14:20:41.431Z</time>
      </trkpt>
      <trkpt lat="37.59439" lon="-3.02671">
        <ele>573.351155</ele>
        <time>2022-02-24T14:21:32.101Z</time>
      </trkpt>
      <trkpt lat="37.59443" lon="-3.02694">
        <ele>573.752287</ele>
        <time>2022-02-24T14:21:39.716Z</time>
      </trkpt>
      <trkpt lat="37.59452" lon="-3.02713">
        <ele>574.117427</ele>
        <time>2022-02-24T14:21:46.169Z</time>
      </trkpt>
      <trkpt lat="37.5947" lon="-3.02735">
        <ele>574.643628</ele>
        <time>2022-02-24T14:21:55.143Z</time>
      </trkpt>
      <trkpt lat="37.59486" lon="-3.02773">
        <ele>575.363296</ele>
        <time>2022-02-24T14:22:06.511Z</time>
      </trkpt>
      <trkpt lat="37.59485" lon="-3.0279">
        <ele>575.662029</ele>
        <time>2022-02-24T14:22:10.835Z</time>
      </trkpt>
      <trkpt lat="37.59455" lon="-3.02876">
        <ele>576.732363</ele>
        <time>2022-02-24T14:22:30.879Z</time>
      </trkpt>
      <trkpt lat="37.59451" lon="-3.02908">
        <ele>576.809446</ele>
        <time>2022-02-24T14:22:36.955Z</time>
      </trkpt>
      <trkpt lat="37.59483" lon="-3.03095">
        <ele>577.318239</ele>
        <time>2022-02-24T14:23:13.150Z</time>
      </trkpt>
      <trkpt lat="37.59483" lon="-3.03124">
        <ele>577.43506</ele>
        <time>2022-02-24T14:23:18.802Z</time>
      </trkpt>
      <trkpt lat="37.59474" lon="-3.03146">
        <ele>577.536651</ele>
        <time>2022-02-24T14:23:23.587Z</time>
      </trkpt>
      <trkpt lat="37.59417" lon="-3.03226">
        <ele>577.976405</ele>
        <time>2022-02-24T14:23:45.373Z</time>
      </trkpt>
      <trkpt lat="37.59406" lon="-3.03252">
        <ele>578.098978</ele>
        <time>2022-02-24T14:23:51.909Z</time>
      </trkpt>
      <trkpt lat="37.59388" lon="-3.03305">
        <ele>578.583326</ele>
        <time>2022-02-24T14:24:04.913Z</time>
      </trkpt>
      <trkpt lat="37.59381" lon="-3.03342">
        <ele>578.916493</ele>
        <time>2022-02-24T14:24:13.384Z</time>
      </trkpt>
      <trkpt lat="37.59379" lon="-3.03375">
        <ele>579.213603</ele>
        <time>2022-02-24T14:24:21.066Z</time>
      </trkpt>
      <trkpt lat="37.59393" lon="-3.03424">
        <ele>579.677125</ele>
        <time>2022-02-24T14:24:33.549Z</time>
      </trkpt>
      <trkpt lat="37.5944" lon="-3.03484">
        <ele>580.282762</ele>
        <time>2022-02-24T14:24:53.182Z</time>
      </trkpt>
      <trkpt lat="37.59455" lon="-3.03514">
        <ele>580.443503</ele>
        <time>2022-02-24T14:25:01.365Z</time>
      </trkpt>
      <trkpt lat="37.59458" lon="-3.03535">
        <ele>580.543458</ele>
        <time>2022-02-24T14:25:06.324Z</time>
      </trkpt>
      <trkpt lat="37.59452" lon="-3.03556">
        <ele>580.647647</ele>
        <time>2022-02-24T14:25:11.362Z</time>
      </trkpt>
      <trkpt lat="37.5944" lon="-3.0357">
        <ele>580.74126</ele>
        <time>2022-02-24T14:25:15.638Z</time>
      </trkpt>
      <trkpt lat="37.59425" lon="-3.03579">
        <ele>580.835835</ele>
        <time>2022-02-24T14:25:19.677Z</time>
      </trkpt>
      <trkpt lat="37.59383" lon="-3.0358">
        <ele>581.082662</ele>
        <time>2022-02-24T14:25:29.527Z</time>
      </trkpt>
      <trkpt lat="37.5935" lon="-3.03601">
        <ele>581.026145</ele>
        <time>2022-02-24T14:25:37.757Z</time>
      </trkpt>
      <trkpt lat="37.59245" lon="-3.03746">
        <ele>579.915512</ele>
        <time>2022-02-24T14:26:10.649Z</time>
      </trkpt>
      <trkpt lat="37.59223" lon="-3.0379">
        <ele>579.683214</ele>
        <time>2022-02-24T14:26:19.297Z</time>
      </trkpt>
      <trkpt lat="37.59205" lon="-3.03848">
        <ele>579.412268</ele>
        <time>2022-02-24T14:26:29.829Z</time>
      </trkpt>
      <trkpt lat="37.59139" lon="-3.04109">
        <ele>578.786562</ele>
        <time>2022-02-24T14:27:17.993Z</time>
      </trkpt>
      <trkpt lat="37.59083" lon="-3.04223">
        <ele>579.452511</ele>
        <time>2022-02-24T14:27:44.051Z</time>
      </trkpt>
      <trkpt lat="37.58897" lon="-3.04727">
        <ele>585.641333</ele>
        <time>2022-02-24T14:30:02.679Z</time>
      </trkpt>
      <trkpt lat="37.58829" lon="-3.04884">
        <ele>586.389625</ele>
        <time>2022-02-24T14:30:40.062Z</time>
      </trkpt>
      <trkpt lat="37.58747" lon="-3.05224">
        <ele>585.406958</ele>
        <time>2022-02-24T14:31:40.982Z</time>
      </trkpt>
      <trkpt lat="37.58706" lon="-3.05327">
        <ele>585.13824</ele>
        <time>2022-02-24T14:32:01.359Z</time>
      </trkpt>
      <trkpt lat="37.58602" lon="-3.05552">
        <ele>584.244409</ele>
        <time>2022-02-24T14:32:47.926Z</time>
      </trkpt>
      <trkpt lat="37.58472" lon="-3.05928">
        <ele>581.523157</ele>
        <time>2022-02-24T14:33:54.557Z</time>
      </trkpt>
      <trkpt lat="37.58402" lon="-3.06193">
        <ele>582.925125</ele>
        <time>2022-02-24T14:34:50.701Z</time>
      </trkpt>
      <trkpt lat="37.5833" lon="-3.0641">
        <ele>589.099943</ele>
        <time>2022-02-24T14:36:06.840Z</time>
      </trkpt>
      <trkpt lat="37.58334" lon="-3.06495">
        <ele>592.230561</ele>
        <time>2022-02-24T14:36:40.667Z</time>
      </trkpt>
      <trkpt lat="37.58331" lon="-3.06574">
        <ele>595.611754</ele>
        <time>2022-02-24T14:37:13.360Z</time>
      </trkpt>
      <trkpt lat="37.58337" lon="-3.0668">
        <ele>600.163822</ele>
        <time>2022-02-24T14:37:55.840Z</time>
      </trkpt>
      <trkpt lat="37.58329" lon="-3.06721">
        <ele>601.42482</ele>
        <time>2022-02-24T14:38:12.905Z</time>
      </trkpt>
      <trkpt lat="37.5833" lon="-3.06752">
        <ele>602.320654</ele>
        <time>2022-02-24T14:38:24.362Z</time>
      </trkpt>
      <trkpt lat="37.58312" lon="-3.06811">
        <ele>604.205292</ele>
        <time>2022-02-24T14:38:46.431Z</time>
      </trkpt>
      <trkpt lat="37.58287" lon="-3.06859">
        <ele>605.885813</ele>
        <time>2022-02-24T14:39:03.677Z</time>
      </trkpt>
      <trkpt lat="37.58162" lon="-3.07059">
        <ele>609.430957</ele>
        <time>2022-02-24T14:40:04.003Z</time>
      </trkpt>
      <trkpt lat="37.58149" lon="-3.07103">
        <ele>610.184106</ele>
        <time>2022-02-24T14:40:15.177Z</time>
      </trkpt>
      <trkpt lat="37.58148" lon="-3.0721">
        <ele>611.916855</ele>
        <time>2022-02-24T14:40:42.062Z</time>
      </trkpt>
      <trkpt lat="37.58191" lon="-3.07546">
        <ele>618.556749</ele>
        <time>2022-02-24T14:42:23.225Z</time>
      </trkpt>
      <trkpt lat="37.58193" lon="-3.07569">
        <ele>618.795515</ele>
        <time>2022-02-24T14:42:29.231Z</time>
      </trkpt>
      <trkpt lat="37.58188" lon="-3.07578">
        <ele>618.915373</ele>
        <time>2022-02-24T14:42:33.258Z</time>
      </trkpt>
      <trkpt lat="37.58063" lon="-3.07391">
        <ele>619.484281</ele>
        <time>2022-02-24T14:43:22.090Z</time>
      </trkpt>
      <trkpt lat="37.58055" lon="-3.07369">
        <ele>619.205908</ele>
        <time>2022-02-24T14:43:25.492Z</time>
      </trkpt>
      <trkpt lat="37.58043" lon="-3.07269">
        <ele>618.01117</ele>
        <time>2022-02-24T14:43:39.674Z</time>
      </trkpt>
      <trkpt lat="37.58029" lon="-3.07204">
        <ele>616.182099</ele>
        <time>2022-02-24T14:43:48.658Z</time>
      </trkpt>
      <trkpt lat="37.58021" lon="-3.07185">
        <ele>615.54144</ele>
        <time>2022-02-24T14:43:51.324Z</time>
      </trkpt>
      <trkpt lat="37.58008" lon="-3.07177">
        <ele>614.961973</ele>
        <time>2022-02-24T14:43:53.795Z</time>
      </trkpt>
      <trkpt lat="37.57928" lon="-3.07199">
        <ele>611.798686</ele>
        <time>2022-02-24T14:44:07.077Z</time>
      </trkpt>
      <trkpt lat="37.57796" lon="-3.072">
        <ele>607.785903</ele>
        <time>2022-02-24T14:44:29.243Z</time>
      </trkpt>
      <trkpt lat="37.57617" lon="-3.07277">
        <ele>604.081215</ele>
        <time>2022-02-24T14:45:04.495Z</time>
      </trkpt>
      <trkpt lat="37.57465" lon="-3.07361">
        <ele>602.769799</ele>
        <time>2022-02-24T14:45:38.589Z</time>
      </trkpt>
      <trkpt lat="37.57443" lon="-3.07365">
        <ele>602.67534</ele>
        <time>2022-02-24T14:45:43.218Z</time>
      </trkpt>
      <trkpt lat="37.5723" lon="-3.07332">
        <ele>602.94595</ele>
        <time>2022-02-24T14:46:31.109Z</time>
      </trkpt>
      <trkpt lat="37.57063" lon="-3.07347">
        <ele>605.467717</ele>
        <time>2022-02-24T14:47:21.705Z</time>
      </trkpt>
      <trkpt lat="37.56825" lon="-3.07467">
        <ele>611.199048</ele>
        <time>2022-02-24T14:48:51.366Z</time>
      </trkpt>
      <trkpt lat="37.56745" lon="-3.07526">
        <ele>612.814441</ele>
        <time>2022-02-24T14:49:19.822Z</time>
      </trkpt>
      <trkpt lat="37.5668" lon="-3.07561">
        <ele>613.582125</ele>
        <time>2022-02-24T14:49:39.246Z</time>
      </trkpt>
      <trkpt lat="37.56625" lon="-3.07615">
        <ele>613.663601</ele>
        <time>2022-02-24T14:49:55.908Z</time>
      </trkpt>
      <trkpt lat="37.56543" lon="-3.07622">
        <ele>613.751492</ele>
        <time>2022-02-24T14:50:13.360Z</time>
      </trkpt>
      <trkpt lat="37.565" lon="-3.07633">
        <ele>613.368971</ele>
        <time>2022-02-24T14:50:22.087Z</time>
      </trkpt>
      <trkpt lat="37.56414" lon="-3.07681">
        <ele>612.538379</ele>
        <time>2022-02-24T14:50:40.354Z</time>
      </trkpt>
      <trkpt lat="37.56339" lon="-3.07706">
        <ele>612.591874</ele>
        <time>2022-02-24T14:50:56.433Z</time>
      </trkpt>
      <trkpt lat="37.56321" lon="-3.07721">
        <ele>612.839007</ele>
        <time>2022-02-24T14:51:01.536Z</time>
      </trkpt>
      <trkpt lat="37.56307" lon="-3.07747">
        <ele>613.130977</ele>
        <time>2022-02-24T14:51:08.335Z</time>
      </trkpt>
      <trkpt lat="37.56301" lon="-3.07782">
        <ele>613.456206</ele>
        <time>2022-02-24T14:51:16.468Z</time>
      </trkpt>
      <trkpt lat="37.56307" lon="-3.08017">
        <ele>617.136349</ele>
        <time>2022-02-24T14:52:21.361Z</time>
      </trkpt>
      <trkpt lat="37.56295" lon="-3.08139">
        <ele>619.27516</ele>
        <time>2022-02-24T14:52:54.851Z</time>
      </trkpt>
      <trkpt lat="37.56285" lon="-3.08172">
        <ele>619.743779</ele>
        <time>2022-02-24T14:53:03.453Z</time>
      </trkpt>
      <trkpt lat="37.56283" lon="-3.08178">
        <ele>619.832114</ele>
        <time>2022-02-24T14:53:05.126Z</time>
      </trkpt>
      <trkpt lat="37.56249" lon="-3.08245">
        <ele>620.897266</ele>
        <time>2022-02-24T14:53:23.742Z</time>
      </trkpt>
      <trkpt lat="37.56247" lon="-3.08286">
        <ele>621.461777</ele>
        <time>2022-02-24T14:53:33.552Z</time>
      </trkpt>
      <trkpt lat="37.56211" lon="-3.08456">
        <ele>623.116514</ele>
        <time>2022-02-24T14:54:12.826Z</time>
      </trkpt>
      <trkpt lat="37.56166" lon="-3.08575">
        <ele>624.419882</ele>
        <time>2022-02-24T14:54:40.829Z</time>
      </trkpt>
      <trkpt lat="37.56139" lon="-3.08624">
        <ele>625.086151</ele>
        <time>2022-02-24T14:54:54.443Z</time>
      </trkpt>
      <trkpt lat="37.56107" lon="-3.08659">
        <ele>625.680663</ele>
        <time>2022-02-24T14:55:06.832Z</time>
      </trkpt>
      <trkpt lat="37.56083" lon="-3.08672">
        <ele>626.042817</ele>
        <time>2022-02-24T14:55:14.730Z</time>
      </trkpt>
      <trkpt lat="37.56057" lon="-3.08677">
        <ele>626.555886</ele>
        <time>2022-02-24T14:55:22.960Z</time>
      </trkpt>
      <trkpt lat="37.56034" lon="-3.08684">
        <ele>627.200418</ele>
        <time>2022-02-24T14:55:30.693Z</time>
      </trkpt>
      <trkpt lat="37.55937" lon="-3.08737">
        <ele>630.111022</ele>
        <time>2022-02-24T14:56:09.498Z</time>
      </trkpt>
      <trkpt lat="37.55887" lon="-3.08759">
        <ele>631.550002</ele>
        <time>2022-02-24T14:56:29.840Z</time>
      </trkpt>
      <trkpt lat="37.55858" lon="-3.08789">
        <ele>632.580368</ele>
        <time>2022-02-24T14:56:44.670Z</time>
      </trkpt>
      <trkpt lat="37.55828" lon="-3.0883">
        <ele>633.796335</ele>
        <time>2022-02-24T14:57:02.291Z</time>
      </trkpt>
      <trkpt lat="37.55807" lon="-3.08855">
        <ele>634.561932</ele>
        <time>2022-02-24T14:57:13.333Z</time>
      </trkpt>
      <trkpt lat="37.55778" lon="-3.08865">
        <ele>635.394154</ele>
        <time>2022-02-24T14:57:24.454Z</time>
      </trkpt>
      <trkpt lat="37.5573" lon="-3.0892">
        <ele>635.191809</ele>
        <time>2022-02-24T14:57:43.214Z</time>
      </trkpt>
      <trkpt lat="37.55686" lon="-3.08983">
        <ele>633.572144</ele>
        <time>2022-02-24T14:57:55.123Z</time>
      </trkpt>
      <trkpt lat="37.55666" lon="-3.08989">
        <ele>633.095996</ele>
        <time>2022-02-24T14:57:58.236Z</time>
      </trkpt>
      <trkpt lat="37.5566" lon="-3.08996">
        <ele>632.874434</ele>
        <time>2022-02-24T14:57:59.856Z</time>
      </trkpt>
      <trkpt lat="37.55635" lon="-3.0902">
        <ele>632.119775</ele>
        <time>2022-02-24T14:58:04.884Z</time>
      </trkpt>
      <trkpt lat="37.5562" lon="-3.09005">
        <ele>631.578908</ele>
        <time>2022-02-24T14:58:07.835Z</time>
      </trkpt>
      <trkpt lat="37.55595" lon="-3.08994">
        <ele>630.293325</ele>
        <time>2022-02-24T14:58:12.040Z</time>
      </trkpt>
      <trkpt lat="37.55583" lon="-3.08973">
        <ele>629.288999</ele>
        <time>2022-02-24T14:58:17.766Z</time>
      </trkpt>
      <trkpt lat="37.55571" lon="-3.08964">
        <ele>628.605796</ele>
        <time>2022-02-24T14:58:21.959Z</time>
      </trkpt>
      <trkpt lat="37.55465" lon="-3.08964">
        <ele>623.498928</ele>
        <time>2022-02-24T14:58:52.062Z</time>
      </trkpt>
      <trkpt lat="37.55398" lon="-3.08908">
        <ele>622.565944</ele>
        <time>2022-02-24T14:59:18.315Z</time>
      </trkpt>
      <trkpt lat="37.5539" lon="-3.08907">
        <ele>622.513332</ele>
        <time>2022-02-24T14:59:20.870Z</time>
      </trkpt>
      <trkpt lat="37.5536" lon="-3.08922">
        <ele>622.270294</ele>
        <time>2022-02-24T14:59:32.899Z</time>
      </trkpt>
      <trkpt lat="37.55331" lon="-3.08952">
        <ele>621.999103</ele>
        <time>2022-02-24T14:59:47.672Z</time>
      </trkpt>
      <trkpt lat="37.55314" lon="-3.08958">
        <ele>621.869512</ele>
        <time>2022-02-24T14:59:55.229Z</time>
      </trkpt>
      <trkpt lat="37.5528" lon="-3.0896">
        <ele>622.35505</ele>
        <time>2022-02-24T15:00:10.596Z</time>
      </trkpt>
      <trkpt lat="37.55221" lon="-3.08943">
        <ele>624.016745</ele>
        <time>2022-02-24T15:00:40.252Z</time>
      </trkpt>
      <trkpt lat="37.55202" lon="-3.08922">
        <ele>624.706206</ele>
        <time>2022-02-24T15:00:53.410Z</time>
      </trkpt>
      <trkpt lat="37.55131" lon="-3.08888">
        <ele>626.853925</ele>
        <time>2022-02-24T15:01:34.677Z</time>
      </trkpt>
      <trkpt lat="37.55094" lon="-3.08878">
        <ele>628.743073</ele>
        <time>2022-02-24T15:01:56.539Z</time>
      </trkpt>
      <trkpt lat="37.55079" lon="-3.08879">
        <ele>629.484953</ele>
        <time>2022-02-24T15:02:05.194Z</time>
      </trkpt>
      <trkpt lat="37.55055" lon="-3.08895">
        <ele>630.770614</ele>
        <time>2022-02-24T15:02:20.379Z</time>
      </trkpt>
      <trkpt lat="37.55023" lon="-3.08946">
        <ele>633.32319</ele>
        <time>2022-02-24T15:02:51.128Z</time>
      </trkpt>
      <trkpt lat="37.55001" lon="-3.08949">
        <ele>634.391836</ele>
        <time>2022-02-24T15:03:05.290Z</time>
      </trkpt>
      <trkpt lat="37.54908" lon="-3.08994">
        <ele>642.349769</ele>
        <time>2022-02-24T15:04:21.042Z</time>
      </trkpt>
      <trkpt lat="37.54848" lon="-3.0903">
        <ele>648.255694</ele>
        <time>2022-02-24T15:05:18.411Z</time>
      </trkpt>
      <trkpt lat="37.54782" lon="-3.09084">
        <ele>655.926744</ele>
        <time>2022-02-24T15:06:27.888Z</time>
      </trkpt>
      <trkpt lat="37.54761" lon="-3.09141">
        <ele>661.178948</ele>
        <time>2022-02-24T15:07:13.134Z</time>
      </trkpt>
      <trkpt lat="37.54752" lon="-3.09146">
        <ele>662.225911</ele>
        <time>2022-02-24T15:07:21.979Z</time>
      </trkpt>
      <trkpt lat="37.5474" lon="-3.09144">
        <ele>663.479914</ele>
        <time>2022-02-24T15:07:33.199Z</time>
      </trkpt>
      <trkpt lat="37.54702" lon="-3.09094">
        <ele>669.32882</ele>
        <time>2022-02-24T15:08:22.927Z</time>
      </trkpt>
      <trkpt lat="37.54652" lon="-3.09068">
        <ele>675.723768</ele>
        <time>2022-02-24T15:09:10.607Z</time>
      </trkpt>
      <trkpt lat="37.54599" lon="-3.09007">
        <ele>684.525049</ele>
        <time>2022-02-24T15:10:18.788Z</time>
      </trkpt>
      <trkpt lat="37.54582" lon="-3.08998">
        <ele>686.831695</ele>
        <time>2022-02-24T15:10:38.237Z</time>
      </trkpt>
      <trkpt lat="37.5451" lon="-3.0898">
        <ele>695.95892</ele>
        <time>2022-02-24T15:11:58.590Z</time>
      </trkpt>
      <trkpt lat="37.54462" lon="-3.08947">
        <ele>703.115828</ele>
        <time>2022-02-24T15:12:59.183Z</time>
      </trkpt>
      <trkpt lat="37.54407" lon="-3.08897">
        <ele>711.863736</ele>
        <time>2022-02-24T15:14:08.145Z</time>
      </trkpt>
      <trkpt lat="37.54374" lon="-3.08881">
        <ele>716.322366</ele>
        <time>2022-02-24T15:14:41.953Z</time>
      </trkpt>
      <trkpt lat="37.54321" lon="-3.08839">
        <ele>720.821643</ele>
        <time>2022-02-24T15:15:33.927Z</time>
      </trkpt>
      <trkpt lat="37.54212" lon="-3.08789">
        <ele>729.218912</ele>
        <time>2022-02-24T15:16:51.199Z</time>
      </trkpt>
      <trkpt lat="37.54104" lon="-3.08685">
        <ele>734.738966</ele>
        <time>2022-02-24T15:18:06.862Z</time>
      </trkpt>
      <trkpt lat="37.54063" lon="-3.08656">
        <ele>736.677127</ele>
        <time>2022-02-24T15:18:33.023Z</time>
      </trkpt>
      <trkpt lat="37.53805" lon="-3.08557">
        <ele>748.785383</ele>
        <time>2022-02-24T15:21:11.819Z</time>
      </trkpt>
      <trkpt lat="37.53764" lon="-3.08555">
        <ele>750.789421</ele>
        <time>2022-02-24T15:21:39.216Z</time>
      </trkpt>
      <trkpt lat="37.53691" lon="-3.08539">
        <ele>753.883773</ele>
        <time>2022-02-24T15:22:26.840Z</time>
      </trkpt>
      <trkpt lat="37.53624" lon="-3.085">
        <ele>756.193134</ele>
        <time>2022-02-24T15:23:09.917Z</time>
      </trkpt>
      <trkpt lat="37.53592" lon="-3.08487">
        <ele>757.269903</ele>
        <time>2022-02-24T15:23:26.679Z</time>
      </trkpt>
      <trkpt lat="37.53586" lon="-3.08464">
        <ele>757.860699</ele>
        <time>2022-02-24T15:23:34.568Z</time>
      </trkpt>
      <trkpt lat="37.5359" lon="-3.08452">
        <ele>758.181816</ele>
        <time>2022-02-24T15:23:38.889Z</time>
      </trkpt>
      <trkpt lat="37.53636" lon="-3.08375">
        <ele>758.100823</ele>
        <time>2022-02-24T15:24:06.454Z</time>
      </trkpt>
      <trkpt lat="37.53659" lon="-3.08313">
        <ele>757.716506</ele>
        <time>2022-02-24T15:24:24.389Z</time>
      </trkpt>
      <trkpt lat="37.5366" lon="-3.08293">
        <ele>757.605724</ele>
        <time>2022-02-24T15:24:29.495Z</time>
      </trkpt>
      <trkpt lat="37.53629" lon="-3.08092">
        <ele>757.489679</ele>
        <time>2022-02-24T15:25:27.006Z</time>
      </trkpt>
      <trkpt lat="37.53629" lon="-3.0804">
        <ele>757.562959</ele>
        <time>2022-02-24T15:25:44.946Z</time>
      </trkpt>
      <trkpt lat="37.53639" lon="-3.0796">
        <ele>758.194548</ele>
        <time>2022-02-24T15:26:15.012Z</time>
      </trkpt>
      <trkpt lat="37.53636" lon="-3.07927">
        <ele>758.570266</ele>
        <time>2022-02-24T15:26:28.361Z</time>
      </trkpt>
      <trkpt lat="37.53622" lon="-3.07883">
        <ele>759.094608</ele>
        <time>2022-02-24T15:26:47.715Z</time>
      </trkpt>
      <trkpt lat="37.53618" lon="-3.07846">
        <ele>759.507604</ele>
        <time>2022-02-24T15:27:02.742Z</time>
      </trkpt>
      <trkpt lat="37.53625" lon="-3.0768">
        <ele>757.268071</ele>
        <time>2022-02-24T15:27:47.796Z</time>
      </trkpt>
      <trkpt lat="37.53626" lon="-3.07663">
        <ele>756.841903</ele>
        <time>2022-02-24T15:27:51.686Z</time>
      </trkpt>
      <trkpt lat="37.53624" lon="-3.07467">
        <ele>750.378441</ele>
        <time>2022-02-24T15:28:35.652Z</time>
      </trkpt>
      <trkpt lat="37.53629" lon="-3.07416">
        <ele>748.31169</ele>
        <time>2022-02-24T15:28:47.025Z</time>
      </trkpt>
      <trkpt lat="37.53637" lon="-3.07396">
        <ele>747.413189</ele>
        <time>2022-02-24T15:28:52.152Z</time>
      </trkpt>
      <trkpt lat="37.5366" lon="-3.07366">
        <ele>745.71369</ele>
        <time>2022-02-24T15:29:02.014Z</time>
      </trkpt>
      <trkpt lat="37.53668" lon="-3.07338">
        <ele>745.067086</ele>
        <time>2022-02-24T15:29:08.935Z</time>
      </trkpt>
      <trkpt lat="37.53721" lon="-3.07322">
        <ele>744.575887</ele>
        <time>2022-02-24T15:29:26.041Z</time>
      </trkpt>
      <trkpt lat="37.53736" lon="-3.07309">
        <ele>744.414196</ele>
        <time>2022-02-24T15:29:33.860Z</time>
      </trkpt>
      <trkpt lat="37.53744" lon="-3.07295">
        <ele>744.297532</ele>
        <time>2022-02-24T15:29:37.871Z</time>
      </trkpt>
      <trkpt lat="37.53761" lon="-3.07219">
        <ele>743.731917</ele>
        <time>2022-02-24T15:30:04.645Z</time>
      </trkpt>
      <trkpt lat="37.53768" lon="-3.07206">
        <ele>743.621853</ele>
        <time>2022-02-24T15:30:08.547Z</time>
      </trkpt>
      <trkpt lat="37.53783" lon="-3.0719">
        <ele>743.926664</ele>
        <time>2022-02-24T15:30:20.286Z</time>
      </trkpt>
      <trkpt lat="37.53799" lon="-3.07184">
        <ele>744.341089</ele>
        <time>2022-02-24T15:30:25.943Z</time>
      </trkpt>
      <trkpt lat="37.53828" lon="-3.07184">
        <ele>745.074125</ele>
        <time>2022-02-24T15:30:41.496Z</time>
      </trkpt>
      <trkpt lat="37.53833" lon="-3.0717">
        <ele>745.384082</ele>
        <time>2022-02-24T15:30:48.150Z</time>
      </trkpt>
      <trkpt lat="37.53801" lon="-3.07078">
        <ele>747.367913</ele>
        <time>2022-02-24T15:31:28.502Z</time>
      </trkpt>
      <trkpt lat="37.53776" lon="-3.07038">
        <ele>748.413083</ele>
        <time>2022-02-24T15:31:49.960Z</time>
      </trkpt>
      <trkpt lat="37.53773" lon="-3.0701">
        <ele>748.994543</ele>
        <time>2022-02-24T15:32:02.340Z</time>
      </trkpt>
      <trkpt lat="37.53781" lon="-3.07003">
        <ele>749.252033</ele>
        <time>2022-02-24T15:32:07.170Z</time>
      </trkpt>
      <trkpt lat="37.53793" lon="-3.07007">
        <ele>749.579624</ele>
        <time>2022-02-24T15:32:13.677Z</time>
      </trkpt>
      <trkpt lat="37.53814" lon="-3.07033">
        <ele>750.353407</ele>
        <time>2022-02-24T15:32:28.264Z</time>
      </trkpt>
      <trkpt lat="37.53884" lon="-3.07058">
        <ele>752.247449</ele>
        <time>2022-02-24T15:33:02.243Z</time>
      </trkpt>
      <trkpt lat="37.53892" lon="-3.07054">
        <ele>752.465737</ele>
        <time>2022-02-24T15:33:06.900Z</time>
      </trkpt>
      <trkpt lat="37.53894" lon="-3.0704">
        <ele>752.762767</ele>
        <time>2022-02-24T15:33:12.966Z</time>
      </trkpt>
      <trkpt lat="37.5388" lon="-3.06987">
        <ele>754.376575</ele>
        <time>2022-02-24T15:33:34.930Z</time>
      </trkpt>
      <trkpt lat="37.53837" lon="-3.0692">
        <ele>756.890668</ele>
        <time>2022-02-24T15:34:13.482Z</time>
      </trkpt>
      <trkpt lat="37.53826" lon="-3.06864">
        <ele>758.594163</ele>
        <time>2022-02-24T15:34:40.964Z</time>
      </trkpt>
      <trkpt lat="37.5382" lon="-3.06794">
        <ele>761.340968</ele>
        <time>2022-02-24T15:35:12.389Z</time>
      </trkpt>
      <trkpt lat="37.53787" lon="-3.06756">
        <ele>763.943787</ele>
        <time>2022-02-24T15:35:39.968Z</time>
      </trkpt>
      <trkpt lat="37.53729" lon="-3.06723">
        <ele>767.671912</ele>
        <time>2022-02-24T15:36:23.976Z</time>
      </trkpt>
      <trkpt lat="37.5372" lon="-3.06713">
        <ele>768.400031</ele>
        <time>2022-02-24T15:36:32.902Z</time>
      </trkpt>
      <trkpt lat="37.53716" lon="-3.067">
        <ele>769.002119</ele>
        <time>2022-02-24T15:36:39.953Z</time>
      </trkpt>
      <trkpt lat="37.53721" lon="-3.06655">
        <ele>771.77132</ele>
        <time>2022-02-24T15:37:06.716Z</time>
      </trkpt>
      <trkpt lat="37.53777" lon="-3.06529">
        <ele>782.008623</ele>
        <time>2022-02-24T15:38:40.379Z</time>
      </trkpt>
      <trkpt lat="37.53802" lon="-3.06481">
        <ele>786.066562</ele>
        <time>2022-02-24T15:39:22.811Z</time>
      </trkpt>
      <trkpt lat="37.5385" lon="-3.06408">
        <ele>792.069162</ele>
        <time>2022-02-24T15:40:25.911Z</time>
      </trkpt>
      <trkpt lat="37.5384" lon="-3.06389">
        <ele>793.502716</ele>
        <time>2022-02-24T15:40:39.547Z</time>
      </trkpt>
      <trkpt lat="37.53848" lon="-3.06365">
        <ele>795.142108</ele>
        <time>2022-02-24T15:40:54.079Z</time>
      </trkpt>
      <trkpt lat="37.53871" lon="-3.06347">
        <ele>797.233684</ele>
        <time>2022-02-24T15:41:12.063Z</time>
      </trkpt>
      <trkpt lat="37.53893" lon="-3.06276">
        <ele>801.784003</ele>
        <time>2022-02-24T15:41:53.605Z</time>
      </trkpt>
      <trkpt lat="37.53867" lon="-3.06255">
        <ele>803.854953</ele>
        <time>2022-02-24T15:42:14.770Z</time>
      </trkpt>
      <trkpt lat="37.53865" lon="-3.06214">
        <ele>806.070004</ele>
        <time>2022-02-24T15:42:38.284Z</time>
      </trkpt>
      <trkpt lat="37.53831" lon="-3.06203">
        <ele>808.399416</ele>
        <time>2022-02-24T15:43:02.318Z</time>
      </trkpt>
      <trkpt lat="37.53786" lon="-3.06165">
        <ele>812.107187</ele>
        <time>2022-02-24T15:43:41.781Z</time>
      </trkpt>
      <trkpt lat="37.53768" lon="-3.06142">
        <ele>813.996852</ele>
        <time>2022-02-24T15:44:00.267Z</time>
      </trkpt>
      <trkpt lat="37.53733" lon="-3.06124">
        <ele>816.786811</ele>
        <time>2022-02-24T15:44:28.978Z</time>
      </trkpt>
      <trkpt lat="37.53707" lon="-3.06075">
        <ele>820.26994</ele>
        <time>2022-02-24T15:45:07.267Z</time>
      </trkpt>
      <trkpt lat="37.53712" lon="-3.06052">
        <ele>821.663456</ele>
        <time>2022-02-24T15:45:21.397Z</time>
      </trkpt>
      <trkpt lat="37.53708" lon="-3.06008">
        <ele>824.278331</ele>
        <time>2022-02-24T15:45:48.213Z</time>
      </trkpt>
      <trkpt lat="37.53644" lon="-3.05973">
        <ele>827.644902</ele>
        <time>2022-02-24T15:46:34.215Z</time>
      </trkpt>
      <trkpt lat="37.53615" lon="-3.05978">
        <ele>828.744322</ele>
        <time>2022-02-24T15:46:49.931Z</time>
      </trkpt>
      <trkpt lat="37.53573" lon="-3.05939">
        <ele>830.672137</ele>
        <time>2022-02-24T15:47:16.625Z</time>
      </trkpt>
      <trkpt lat="37.53585" lon="-3.05921">
        <ele>831.383471</ele>
        <time>2022-02-24T15:47:26.191Z</time>
      </trkpt>
      <trkpt lat="37.53611" lon="-3.05929">
        <ele>832.380018</ele>
        <time>2022-02-24T15:47:39.240Z</time>
      </trkpt>
      <trkpt lat="37.53634" lon="-3.05917">
        <ele>833.031856</ele>
        <time>2022-02-24T15:47:50.732Z</time>
      </trkpt>
      <trkpt lat="37.53656" lon="-3.05919">
        <ele>833.576975</ele>
        <time>2022-02-24T15:48:00.554Z</time>
      </trkpt>
      <trkpt lat="37.53688" lon="-3.05889">
        <ele>834.553866</ele>
        <time>2022-02-24T15:48:19.105Z</time>
      </trkpt>
      <trkpt lat="37.53687" lon="-3.05865">
        <ele>835.018618</ele>
        <time>2022-02-24T15:48:28.509Z</time>
      </trkpt>
      <trkpt lat="37.53619" lon="-3.05885">
        <ele>836.751685</ele>
        <time>2022-02-24T15:49:04.259Z</time>
      </trkpt>
      <trkpt lat="37.53603" lon="-3.05867">
        <ele>837.260787</ele>
        <time>2022-02-24T15:49:15.642Z</time>
      </trkpt>
      <trkpt lat="37.53569" lon="-3.05859">
        <ele>838.10825</ele>
        <time>2022-02-24T15:49:34.384Z</time>
      </trkpt>
      <trkpt lat="37.53554" lon="-3.05897">
        <ele>838.93315</ele>
        <time>2022-02-24T15:49:52.236Z</time>
      </trkpt>
      <trkpt lat="37.5344" lon="-3.05919">
        <ele>841.162589</ele>
        <time>2022-02-24T15:50:47.236Z</time>
      </trkpt>
      <trkpt lat="37.53421" lon="-3.05906">
        <ele>840.971461</ele>
        <time>2022-02-24T15:50:56.541Z</time>
      </trkpt>
      <trkpt lat="37.53327" lon="-3.05911">
        <ele>840.154252</ele>
        <time>2022-02-24T15:51:28.103Z</time>
      </trkpt>
      <trkpt lat="37.53317" lon="-3.05899">
        <ele>840.038042</ele>
        <time>2022-02-24T15:51:32.437Z</time>
      </trkpt>
      <trkpt lat="37.53315" lon="-3.05879">
        <ele>839.897278</ele>
        <time>2022-02-24T15:51:37.503Z</time>
      </trkpt>
      <trkpt lat="37.53312" lon="-3.05862">
        <ele>839.778761</ele>
        <time>2022-02-24T15:51:41.763Z</time>
      </trkpt>
      <trkpt lat="37.53294" lon="-3.05819">
        <ele>839.046853</ele>
        <time>2022-02-24T15:51:53.933Z</time>
      </trkpt>
      <trkpt lat="37.53263" lon="-3.05799">
        <ele>838.331577</ele>
        <time>2022-02-24T15:52:05.180Z</time>
      </trkpt>
      <trkpt lat="37.53234" lon="-3.05807">
        <ele>837.744197</ele>
        <time>2022-02-24T15:52:14.579Z</time>
      </trkpt>
      <trkpt lat="37.53222" lon="-3.05763">
        <ele>836.99571</ele>
        <time>2022-02-24T15:52:26.677Z</time>
      </trkpt>
      <trkpt lat="37.53185" lon="-3.05761">
        <ele>836.253857</ele>
        <time>2022-02-24T15:52:38.775Z</time>
      </trkpt>
      <trkpt lat="37.53143" lon="-3.05737">
        <ele>835.91034</ele>
        <time>2022-02-24T15:52:54.829Z</time>
      </trkpt>
      <trkpt lat="37.5312" lon="-3.05737">
        <ele>835.79621</ele>
        <time>2022-02-24T15:53:03.029Z</time>
      </trkpt>
      <trkpt lat="37.53097" lon="-3.05709">
        <ele>835.637453</ele>
        <time>2022-02-24T15:53:14.516Z</time>
      </trkpt>
      <trkpt lat="37.53053" lon="-3.05672">
        <ele>835.372722</ele>
        <time>2022-02-24T15:53:33.634Z</time>
      </trkpt>
      <trkpt lat="37.52996" lon="-3.05656">
        <ele>835.658699</ele>
        <time>2022-02-24T15:53:55.096Z</time>
      </trkpt>
      <trkpt lat="37.52994" lon="-3.05608">
        <ele>836.322709</ele>
        <time>2022-02-24T15:54:09.623Z</time>
      </trkpt>
      <trkpt lat="37.53008" lon="-3.05522">
        <ele>837.561248</ele>
        <time>2022-02-24T15:54:38.746Z</time>
      </trkpt>
      <trkpt lat="37.52969" lon="-3.0555">
        <ele>838.355908</ele>
        <time>2022-02-24T15:55:05.788Z</time>
      </trkpt>
      <trkpt lat="37.52928" lon="-3.05561">
        <ele>840.811753</ele>
        <time>2022-02-24T15:55:32.292Z</time>
      </trkpt>
      <trkpt lat="37.52899" lon="-3.05584">
        <ele>842.861333</ele>
        <time>2022-02-24T15:55:55.402Z</time>
      </trkpt>
      <trkpt lat="37.52861" lon="-3.05603">
        <ele>845.375447</ele>
        <time>2022-02-24T15:56:25.830Z</time>
      </trkpt>
      <trkpt lat="37.52832" lon="-3.05608">
        <ele>847.118765</ele>
        <time>2022-02-24T15:56:47.052Z</time>
      </trkpt>
      <trkpt lat="37.52817" lon="-3.05616">
        <ele>848.093616</ele>
        <time>2022-02-24T15:56:58.524Z</time>
      </trkpt>
      <trkpt lat="37.52809" lon="-3.05631">
        <ele>848.96894</ele>
        <time>2022-02-24T15:57:07.751Z</time>
      </trkpt>
      <trkpt lat="37.52802" lon="-3.05674">
        <ele>849.939283</ele>
        <time>2022-02-24T15:57:30.736Z</time>
      </trkpt>
      <trkpt lat="37.52789" lon="-3.05692">
        <ele>850.368273</ele>
        <time>2022-02-24T15:57:43.742Z</time>
      </trkpt>
      <trkpt lat="37.52765" lon="-3.05686">
        <ele>850.920336</ele>
        <time>2022-02-24T15:57:58.378Z</time>
      </trkpt>
      <trkpt lat="37.52719" lon="-3.05662">
        <ele>852.057162</ele>
        <time>2022-02-24T15:58:22.585Z</time>
      </trkpt>
      <trkpt lat="37.52682" lon="-3.05655">
        <ele>852.89456</ele>
        <time>2022-02-24T15:58:35.058Z</time>
      </trkpt>
      <trkpt lat="37.52617" lon="-3.05687">
        <ele>852.141482</ele>
        <time>2022-02-24T15:58:57.210Z</time>
      </trkpt>
      <trkpt lat="37.5252" lon="-3.05708">
        <ele>849.78936</ele>
        <time>2022-02-24T15:59:27.817Z</time>
      </trkpt>
      <trkpt lat="37.52432" lon="-3.05698">
        <ele>849.31864</ele>
        <time>2022-02-24T15:59:57.099Z</time>
      </trkpt>
      <trkpt lat="37.52372" lon="-3.05667">
        <ele>849.616885</ele>
        <time>2022-02-24T16:00:20.935Z</time>
      </trkpt>
      <trkpt lat="37.52228" lon="-3.05708">
        <ele>853.261726</ele>
        <time>2022-02-24T16:01:41.194Z</time>
      </trkpt>
      <trkpt lat="37.5218" lon="-3.05713">
        <ele>855.038947</ele>
        <time>2022-02-24T16:02:09.628Z</time>
      </trkpt>
      <trkpt lat="37.52153" lon="-3.05724">
        <ele>856.099373</ele>
        <time>2022-02-24T16:02:25.591Z</time>
      </trkpt>
      <trkpt lat="37.52126" lon="-3.05744">
        <ele>857.424935</ele>
        <time>2022-02-24T16:02:43.368Z</time>
      </trkpt>
      <trkpt lat="37.52112" lon="-3.05746">
        <ele>858.059127</ele>
        <time>2022-02-24T16:02:51.790Z</time>
      </trkpt>
      <trkpt lat="37.52062" lon="-3.05722">
        <ele>860.449712</ele>
        <time>2022-02-24T16:03:20.706Z</time>
      </trkpt>
      <trkpt lat="37.52048" lon="-3.05706">
        <ele>861.281804</ele>
        <time>2022-02-24T16:03:33.220Z</time>
      </trkpt>
      <trkpt lat="37.51983" lon="-3.05655">
        <ele>864.738551</ele>
        <time>2022-02-24T16:04:20.802Z</time>
      </trkpt>
      <trkpt lat="37.51956" lon="-3.05626">
        <ele>866.685193</ele>
        <time>2022-02-24T16:04:43.037Z</time>
      </trkpt>
      <trkpt lat="37.5194" lon="-3.05624">
        <ele>867.540409</ele>
        <time>2022-02-24T16:04:52.407Z</time>
      </trkpt>
      <trkpt lat="37.51933" lon="-3.05632">
        <ele>868.044953</ele>
        <time>2022-02-24T16:04:58.504Z</time>
      </trkpt>
      <trkpt lat="37.51936" lon="-3.05657">
        <ele>869.115022</ele>
        <time>2022-02-24T16:05:11.964Z</time>
      </trkpt>
      <trkpt lat="37.51954" lon="-3.05691">
        <ele>870.909427</ele>
        <time>2022-02-24T16:05:33.079Z</time>
      </trkpt>
      <trkpt lat="37.51979" lon="-3.05768">
        <ele>874.479856</ele>
        <time>2022-02-24T16:06:16.389Z</time>
      </trkpt>
      <trkpt lat="37.51969" lon="-3.05783">
        <ele>875.161729</ele>
        <time>2022-02-24T16:06:26.569Z</time>
      </trkpt>
      <trkpt lat="37.51942" lon="-3.05793">
        <ele>876.414803</ele>
        <time>2022-02-24T16:06:47.182Z</time>
      </trkpt>
      <trkpt lat="37.51932" lon="-3.05787">
        <ele>876.885529</ele>
        <time>2022-02-24T16:06:53.098Z</time>
      </trkpt>
      <trkpt lat="37.51915" lon="-3.05788">
        <ele>877.636682</ele>
        <time>2022-02-24T16:07:01.980Z</time>
      </trkpt>
      <trkpt lat="37.51904" lon="-3.05803">
        <ele>878.340966</ele>
        <time>2022-02-24T16:07:10.584Z</time>
      </trkpt>
      <trkpt lat="37.51882" lon="-3.0581">
        <ele>879.338212</ele>
        <time>2022-02-24T16:07:22.790Z</time>
      </trkpt>
      <trkpt lat="37.51869" lon="-3.05821">
        <ele>880.020776</ele>
        <time>2022-02-24T16:07:31.478Z</time>
      </trkpt>
      <trkpt lat="37.51833" lon="-3.05806">
        <ele>881.723997</ele>
        <time>2022-02-24T16:07:53.525Z</time>
      </trkpt>
      <trkpt lat="37.51805" lon="-3.05811">
        <ele>882.815032</ele>
        <time>2022-02-24T16:08:09.434Z</time>
      </trkpt>
      <trkpt lat="37.5178" lon="-3.05808">
        <ele>883.684316</ele>
        <time>2022-02-24T16:08:23.945Z</time>
      </trkpt>
      <trkpt lat="37.51771" lon="-3.058">
        <ele>884.07978</ele>
        <time>2022-02-24T16:08:30.365Z</time>
      </trkpt>
      <trkpt lat="37.51714" lon="-3.05774">
        <ele>886.187574</ele>
        <time>2022-02-24T16:09:04.970Z</time>
      </trkpt>
      <trkpt lat="37.51692" lon="-3.05775">
        <ele>886.974391</ele>
        <time>2022-02-24T16:09:17.102Z</time>
      </trkpt>
      <trkpt lat="37.51659" lon="-3.05758">
        <ele>888.201216</ele>
        <time>2022-02-24T16:09:35.483Z</time>
      </trkpt>
      <trkpt lat="37.51612" lon="-3.05753">
        <ele>888.876605</ele>
        <time>2022-02-24T16:09:58.075Z</time>
      </trkpt>
      <trkpt lat="37.51596" lon="-3.05741">
        <ele>889.028259</ele>
        <time>2022-02-24T16:10:06.588Z</time>
      </trkpt>
      <trkpt lat="37.51568" lon="-3.05699">
        <ele>889.372958</ele>
        <time>2022-02-24T16:10:24.452Z</time>
      </trkpt>
      <trkpt lat="37.51555" lon="-3.0569">
        <ele>889.491094</ele>
        <time>2022-02-24T16:10:30.280Z</time>
      </trkpt>
      <trkpt lat="37.51437" lon="-3.0563">
        <ele>889.931646</ele>
        <time>2022-02-24T16:11:16.046Z</time>
      </trkpt>
      <trkpt lat="37.5141" lon="-3.05637">
        <ele>889.890571</ele>
        <time>2022-02-24T16:11:25.772Z</time>
      </trkpt>
      <trkpt lat="37.51382" lon="-3.05668">
        <ele>889.835127</ele>
        <time>2022-02-24T16:11:39.262Z</time>
      </trkpt>
      <trkpt lat="37.5141" lon="-3.05637">
        <ele>889.779682</ele>
        <time>2022-02-24T16:11:53.446Z</time>
      </trkpt>
      <trkpt lat="37.51437" lon="-3.0563">
        <ele>889.754585</ele>
        <time>2022-02-24T16:12:04.444Z</time>
      </trkpt>
      <trkpt lat="37.51555" lon="-3.0569">
        <ele>889.769593</ele>
        <time>2022-02-24T16:12:54.519Z</time>
      </trkpt>
      <trkpt lat="37.51568" lon="-3.05699">
        <ele>889.771342</ele>
        <time>2022-02-24T16:12:59.845Z</time>
      </trkpt>
      <trkpt lat="37.51596" lon="-3.05741">
        <ele>889.362653</ele>
        <time>2022-02-24T16:13:14.972Z</time>
      </trkpt>
      <trkpt lat="37.51612" lon="-3.05753">
        <ele>888.869163</ele>
        <time>2022-02-24T16:13:21.388Z</time>
      </trkpt>
      <trkpt lat="37.51659" lon="-3.05758">
        <ele>887.656377</ele>
        <time>2022-02-24T16:13:36.436Z</time>
      </trkpt>
      <trkpt lat="37.51692" lon="-3.05775">
        <ele>886.744257</ele>
        <time>2022-02-24T16:13:47.394Z</time>
      </trkpt>
      <trkpt lat="37.51714" lon="-3.05774">
        <ele>886.159274</ele>
        <time>2022-02-24T16:13:54.299Z</time>
      </trkpt>
      <trkpt lat="37.51771" lon="-3.058">
        <ele>884.295507</ele>
        <time>2022-02-24T16:14:12.375Z</time>
      </trkpt>
      <trkpt lat="37.5178" lon="-3.05808">
        <ele>883.837642</ele>
        <time>2022-02-24T16:14:15.792Z</time>
      </trkpt>
      <trkpt lat="37.51805" lon="-3.05811">
        <ele>882.831192</ele>
        <time>2022-02-24T16:14:23.166Z</time>
      </trkpt>
      <trkpt lat="37.51833" lon="-3.05806">
        <ele>881.718154</ele>
        <time>2022-02-24T16:14:31.373Z</time>
      </trkpt>
      <trkpt lat="37.51869" lon="-3.05821">
        <ele>880.161937</ele>
        <time>2022-02-24T16:14:42.938Z</time>
      </trkpt>
      <trkpt lat="37.51882" lon="-3.0581">
        <ele>879.538286</ele>
        <time>2022-02-24T16:14:47.571Z</time>
      </trkpt>
      <trkpt lat="37.51904" lon="-3.05803">
        <ele>878.627112</ele>
        <time>2022-02-24T16:14:54.500Z</time>
      </trkpt>
      <trkpt lat="37.51915" lon="-3.05788">
        <ele>877.983614</ele>
        <time>2022-02-24T16:14:59.368Z</time>
      </trkpt>
      <trkpt lat="37.51932" lon="-3.05787">
        <ele>877.111521</ele>
        <time>2022-02-24T16:15:04.664Z</time>
      </trkpt>
      <trkpt lat="37.51942" lon="-3.05793">
        <ele>876.545058</ele>
        <time>2022-02-24T16:15:07.881Z</time>
      </trkpt>
      <trkpt lat="37.51969" lon="-3.05783">
        <ele>875.037134</ele>
        <time>2022-02-24T16:15:15.646Z</time>
      </trkpt>
      <trkpt lat="37.51979" lon="-3.05768">
        <ele>874.21658</ele>
        <time>2022-02-24T16:15:19.986Z</time>
      </trkpt>
      <trkpt lat="37.51954" lon="-3.05691">
        <ele>870.711785</ele>
        <time>2022-02-24T16:15:38.651Z</time>
      </trkpt>
      <trkpt lat="37.51936" lon="-3.05657">
        <ele>868.957869</ele>
        <time>2022-02-24T16:15:48.083Z</time>
      </trkpt>
      <trkpt lat="37.51933" lon="-3.05632">
        <ele>867.944315</ele>
        <time>2022-02-24T16:15:53.563Z</time>
      </trkpt>
      <trkpt lat="37.5194" lon="-3.05624">
        <ele>867.487932</ele>
        <time>2022-02-24T16:15:56.201Z</time>
      </trkpt>
      <trkpt lat="37.51956" lon="-3.05626">
        <ele>866.714351</ele>
        <time>2022-02-24T16:16:00.841Z</time>
      </trkpt>
      <trkpt lat="37.51983" lon="-3.05655">
        <ele>864.953526</ele>
        <time>2022-02-24T16:16:11.185Z</time>
      </trkpt>
      <trkpt lat="37.52048" lon="-3.05706">
        <ele>861.184275</ele>
        <time>2022-02-24T16:16:33.335Z</time>
      </trkpt>
      <trkpt lat="37.52062" lon="-3.05722">
        <ele>860.273193</ele>
        <time>2022-02-24T16:16:38.507Z</time>
      </trkpt>
      <trkpt lat="37.52112" lon="-3.05746">
        <ele>858.006529</ele>
        <time>2022-02-24T16:16:54.757Z</time>
      </trkpt>
      <trkpt lat="37.52126" lon="-3.05744">
        <ele>857.442813</ele>
        <time>2022-02-24T16:16:58.924Z</time>
      </trkpt>
      <trkpt lat="37.52153" lon="-3.05724">
        <ele>856.176272</ele>
        <time>2022-02-24T16:17:08.492Z</time>
      </trkpt>
      <trkpt lat="37.5218" lon="-3.05713">
        <ele>855.045032</ele>
        <time>2022-02-24T16:17:16.981Z</time>
      </trkpt>
      <trkpt lat="37.52228" lon="-3.05708">
        <ele>853.149131</ele>
        <time>2022-02-24T16:17:30.919Z</time>
      </trkpt>
      <trkpt lat="37.52372" lon="-3.05667">
        <ele>849.460413</ele>
        <time>2022-02-24T16:18:15.852Z</time>
      </trkpt>
      <trkpt lat="37.52432" lon="-3.05698">
        <ele>848.519554</ele>
        <time>2022-02-24T16:18:40.248Z</time>
      </trkpt>
      <trkpt lat="37.5252" lon="-3.05708">
        <ele>850.212455</ele>
        <time>2022-02-24T16:19:21.063Z</time>
      </trkpt>
      <trkpt lat="37.52617" lon="-3.05687">
        <ele>851.799796</ele>
        <time>2022-02-24T16:20:12.544Z</time>
      </trkpt>
      <trkpt lat="37.52682" lon="-3.05655">
        <ele>852.12911</ele>
        <time>2022-02-24T16:20:46.968Z</time>
      </trkpt>
      <trkpt lat="37.52719" lon="-3.05662">
        <ele>852.303326</ele>
        <time>2022-02-24T16:21:03.079Z</time>
      </trkpt>
      <trkpt lat="37.52765" lon="-3.05686">
        <ele>852.539837</ele>
        <time>2022-02-24T16:21:19.163Z</time>
      </trkpt>
      <trkpt lat="37.52789" lon="-3.05692">
        <ele>851.361785</ele>
        <time>2022-02-24T16:21:26.222Z</time>
      </trkpt>
      <trkpt lat="37.52802" lon="-3.05674">
        <ele>850.31656</ele>
        <time>2022-02-24T16:21:31.489Z</time>
      </trkpt>
      <trkpt lat="37.52809" lon="-3.05631">
        <ele>848.383887</ele>
        <time>2022-02-24T16:21:41.327Z</time>
      </trkpt>
      <trkpt lat="37.52817" lon="-3.05616">
        <ele>847.582297</ele>
        <time>2022-02-24T16:21:45.452Z</time>
      </trkpt>
      <trkpt lat="37.52832" lon="-3.05608">
        <ele>846.689564</ele>
        <time>2022-02-24T16:21:49.898Z</time>
      </trkpt>
      <trkpt lat="37.52861" lon="-3.05603">
        <ele>845.093097</ele>
        <time>2022-02-24T16:21:57.691Z</time>
      </trkpt>
      <trkpt lat="37.52899" lon="-3.05584">
        <ele>842.790764</ele>
        <time>2022-02-24T16:22:09.213Z</time>
      </trkpt>
      <trkpt lat="37.52928" lon="-3.05561">
        <ele>841.680847</ele>
        <time>2022-02-24T16:22:18.769Z</time>
      </trkpt>
      <trkpt lat="37.52969" lon="-3.0555">
        <ele>840.419489</ele>
        <time>2022-02-24T16:22:30.820Z</time>
      </trkpt>
      <trkpt lat="37.53008" lon="-3.05522">
        <ele>839.06227</ele>
        <time>2022-02-24T16:22:44.311Z</time>
      </trkpt>
      <trkpt lat="37.53024" lon="-3.05513">
        <ele>838.53091</ele>
        <time>2022-02-24T16:22:51.926Z</time>
      </trkpt>
      <trkpt lat="37.53046" lon="-3.05511">
        <ele>837.857358</ele>
        <time>2022-02-24T16:22:59.833Z</time>
      </trkpt>
      <trkpt lat="37.53069" lon="-3.05529">
        <ele>837.172109</ele>
        <time>2022-02-24T16:23:11.220Z</time>
      </trkpt>
      <trkpt lat="37.53146" lon="-3.05518">
        <ele>837.141412</ele>
        <time>2022-02-24T16:23:42.012Z</time>
      </trkpt>
      <trkpt lat="37.53163" lon="-3.05509">
        <ele>837.134386</ele>
        <time>2022-02-24T16:23:50.544Z</time>
      </trkpt>
      <trkpt lat="37.53208" lon="-3.05425">
        <ele>837.103522</ele>
        <time>2022-02-24T16:24:17.948Z</time>
      </trkpt>
      <trkpt lat="37.53229" lon="-3.05353">
        <ele>837.200575</ele>
        <time>2022-02-24T16:24:39.300Z</time>
      </trkpt>
      <trkpt lat="37.53238" lon="-3.05334">
        <ele>837.229407</ele>
        <time>2022-02-24T16:24:45.810Z</time>
      </trkpt>
      <trkpt lat="37.533" lon="-3.05273">
        <ele>837.354477</ele>
        <time>2022-02-24T16:25:15.799Z</time>
      </trkpt>
      <trkpt lat="37.53361" lon="-3.05251">
        <ele>838.669924</ele>
        <time>2022-02-24T16:25:45.132Z</time>
      </trkpt>
      <trkpt lat="37.53431" lon="-3.05214">
        <ele>841.000228</ele>
        <time>2022-02-24T16:26:26.837Z</time>
      </trkpt>
      <trkpt lat="37.53481" lon="-3.05154">
        <ele>842.996721</ele>
        <time>2022-02-24T16:27:07.726Z</time>
      </trkpt>
      <trkpt lat="37.53528" lon="-3.05146">
        <ele>843.588407</ele>
        <time>2022-02-24T16:27:31.610Z</time>
      </trkpt>
      <trkpt lat="37.53568" lon="-3.05128">
        <ele>844.109485</ele>
        <time>2022-02-24T16:27:50.643Z</time>
      </trkpt>
      <trkpt lat="37.53619" lon="-3.05098">
        <ele>844.812968</ele>
        <time>2022-02-24T16:28:12.967Z</time>
      </trkpt>
      <trkpt lat="37.53741" lon="-3.0504">
        <ele>843.211616</ele>
        <time>2022-02-24T16:28:56.381Z</time>
      </trkpt>
      <trkpt lat="37.53762" lon="-3.05017">
        <ele>842.672696</ele>
        <time>2022-02-24T16:29:05.193Z</time>
      </trkpt>
      <trkpt lat="37.53791" lon="-3.05008">
        <ele>842.111412</ele>
        <time>2022-02-24T16:29:14.447Z</time>
      </trkpt>
      <trkpt lat="37.53823" lon="-3.04984">
        <ele>841.323535</ele>
        <time>2022-02-24T16:29:26.237Z</time>
      </trkpt>
      <trkpt lat="37.5385" lon="-3.04945">
        <ele>840.350895</ele>
        <time>2022-02-24T16:29:39.509Z</time>
      </trkpt>
      <trkpt lat="37.53863" lon="-3.04946">
        <ele>840.045593</ele>
        <time>2022-02-24T16:29:43.676Z</time>
      </trkpt>
      <trkpt lat="37.53866" lon="-3.04953">
        <ele>839.890366</ele>
        <time>2022-02-24T16:29:45.796Z</time>
      </trkpt>
      <trkpt lat="37.53868" lon="-3.04991">
        <ele>839.159575</ele>
        <time>2022-02-24T16:29:55.866Z</time>
      </trkpt>
      <trkpt lat="37.53872" lon="-3.05004">
        <ele>838.89923</ele>
        <time>2022-02-24T16:29:59.501Z</time>
      </trkpt>
      <trkpt lat="37.53875" lon="-3.05008">
        <ele>838.794015</ele>
        <time>2022-02-24T16:30:00.918Z</time>
      </trkpt>
      <trkpt lat="37.53888" lon="-3.05008">
        <ele>838.479228</ele>
        <time>2022-02-24T16:30:05.278Z</time>
      </trkpt>
      <trkpt lat="37.53914" lon="-3.04946">
        <ele>836.837575</ele>
        <time>2022-02-24T16:30:22.648Z</time>
      </trkpt>
      <trkpt lat="37.53926" lon="-3.04933">
        <ele>836.091731</ele>
        <time>2022-02-24T16:30:27.455Z</time>
      </trkpt>
      <trkpt lat="37.53959" lon="-3.04914">
        <ele>834.381431</ele>
        <time>2022-02-24T16:30:38.199Z</time>
      </trkpt>
      <trkpt lat="37.54058" lon="-3.04873">
        <ele>829.409145</ele>
        <time>2022-02-24T16:31:07.845Z</time>
      </trkpt>
      <trkpt lat="37.54114" lon="-3.04808">
        <ele>825.749245</ele>
        <time>2022-02-24T16:31:28.859Z</time>
      </trkpt>
      <trkpt lat="37.54139" lon="-3.04797">
        <ele>824.446802</ele>
        <time>2022-02-24T16:31:36.740Z</time>
      </trkpt>
      <trkpt lat="37.54182" lon="-3.04795">
        <ele>822.37049</ele>
        <time>2022-02-24T16:31:49.503Z</time>
      </trkpt>
      <trkpt lat="37.54209" lon="-3.04811">
        <ele>820.910581</ele>
        <time>2022-02-24T16:31:58.638Z</time>
      </trkpt>
      <trkpt lat="37.54212" lon="-3.04821">
        <ele>820.52266</ele>
        <time>2022-02-24T16:32:01.053Z</time>
      </trkpt>
      <trkpt lat="37.54204" lon="-3.04851">
        <ele>819.616711</ele>
        <time>2022-02-24T16:32:08.540Z</time>
      </trkpt>
      <trkpt lat="37.54218" lon="-3.04906">
        <ele>818.15998</ele>
        <time>2022-02-24T16:32:21.941Z</time>
      </trkpt>
      <trkpt lat="37.54222" lon="-3.04906">
        <ele>818.017518</ele>
        <time>2022-02-24T16:32:23.115Z</time>
      </trkpt>
      <trkpt lat="37.54225" lon="-3.04901">
        <ele>817.873931</ele>
        <time>2022-02-24T16:32:24.396Z</time>
      </trkpt>
      <trkpt lat="37.54217" lon="-3.04856">
        <ele>816.707181</ele>
        <time>2022-02-24T16:32:35.005Z</time>
      </trkpt>
      <trkpt lat="37.54221" lon="-3.04845">
        <ele>816.4248</ele>
        <time>2022-02-24T16:32:37.720Z</time>
      </trkpt>
      <trkpt lat="37.54236" lon="-3.04833">
        <ele>815.853075</ele>
        <time>2022-02-24T16:32:43.825Z</time>
      </trkpt>
      <trkpt lat="37.5429" lon="-3.04818">
        <ele>814.592191</ele>
        <time>2022-02-24T16:33:03.822Z</time>
      </trkpt>
      <trkpt lat="37.54315" lon="-3.04776">
        <ele>814.93639</ele>
        <time>2022-02-24T16:33:18.511Z</time>
      </trkpt>
      <trkpt lat="37.5429" lon="-3.04818">
        <ele>815.280589</ele>
        <time>2022-02-24T16:33:34.685Z</time>
      </trkpt>
      <trkpt lat="37.54236" lon="-3.04833">
        <ele>815.747486</ele>
        <time>2022-02-24T16:33:56.540Z</time>
      </trkpt>
      <trkpt lat="37.54221" lon="-3.04845">
        <ele>815.89872</ele>
        <time>2022-02-24T16:34:04.433Z</time>
      </trkpt>
      <trkpt lat="37.54217" lon="-3.04856">
        <ele>815.973415</ele>
        <time>2022-02-24T16:34:09.359Z</time>
      </trkpt>
      <trkpt lat="37.54225" lon="-3.04901">
        <ele>817.397692</ele>
        <time>2022-02-24T16:34:32.159Z</time>
      </trkpt>
      <trkpt lat="37.54222" lon="-3.04906">
        <ele>817.582255</ele>
        <time>2022-02-24T16:34:35.157Z</time>
      </trkpt>
      <trkpt lat="37.54218" lon="-3.04906">
        <ele>817.765371</ele>
        <time>2022-02-24T16:34:38.785Z</time>
      </trkpt>
      <trkpt lat="37.54204" lon="-3.04851">
        <ele>819.637809</ele>
        <time>2022-02-24T16:35:06.694Z</time>
      </trkpt>
      <trkpt lat="37.54212" lon="-3.04821">
        <ele>820.649877</ele>
        <time>2022-02-24T16:35:20.539Z</time>
      </trkpt>
      <trkpt lat="37.54209" lon="-3.04811">
        <ele>820.975494</ele>
        <time>2022-02-24T16:35:24.981Z</time>
      </trkpt>
      <trkpt lat="37.54182" lon="-3.04795">
        <ele>822.200928</ele>
        <time>2022-02-24T16:35:41.537Z</time>
      </trkpt>
      <trkpt lat="37.54139" lon="-3.04797">
        <ele>824.144169</ele>
        <time>2022-02-24T16:36:06.011Z</time>
      </trkpt>
      <trkpt lat="37.54114" lon="-3.04808">
        <ele>825.584278</ele>
        <time>2022-02-24T16:36:21.877Z</time>
      </trkpt>
      <trkpt lat="37.54058" lon="-3.04873">
        <ele>829.641282</ele>
        <time>2022-02-24T16:37:13.821Z</time>
      </trkpt>
      <trkpt lat="37.53959" lon="-3.04914">
        <ele>834.475076</ele>
        <time>2022-02-24T16:38:21.260Z</time>
      </trkpt>
      <trkpt lat="37.53926" lon="-3.04933">
        <ele>835.756844</ele>
        <time>2022-02-24T16:38:41.672Z</time>
      </trkpt>
      <trkpt lat="37.53914" lon="-3.04946">
        <ele>836.315811</ele>
        <time>2022-02-24T16:38:50.001Z</time>
      </trkpt>
      <trkpt lat="37.53888" lon="-3.05008">
        <ele>838.304353</ele>
        <time>2022-02-24T16:39:18.744Z</time>
      </trkpt>
      <trkpt lat="37.53875" lon="-3.05008">
        <ele>838.775344</ele>
        <time>2022-02-24T16:39:24.762Z</time>
      </trkpt>
      <trkpt lat="37.53872" lon="-3.05004">
        <ele>838.932769</ele>
        <time>2022-02-24T16:39:26.858Z</time>
      </trkpt>
      <trkpt lat="37.53868" lon="-3.04991">
        <ele>839.3223</ele>
        <time>2022-02-24T16:39:31.805Z</time>
      </trkpt>
      <trkpt lat="37.53866" lon="-3.04953">
        <ele>840.025389</ele>
        <time>2022-02-24T16:39:45.965Z</time>
      </trkpt>
      <trkpt lat="37.53863" lon="-3.04946">
        <ele>840.170859</ele>
        <time>2022-02-24T16:39:48.995Z</time>
      </trkpt>
      <trkpt lat="37.5385" lon="-3.04945">
        <ele>840.456969</ele>
        <time>2022-02-24T16:39:54.961Z</time>
      </trkpt>
      <trkpt lat="37.53823" lon="-3.04984">
        <ele>841.368469</ele>
        <time>2022-02-24T16:40:14.178Z</time>
      </trkpt>
      <trkpt lat="37.53791" lon="-3.05008">
        <ele>842.194636</ele>
        <time>2022-02-24T16:40:32.292Z</time>
      </trkpt>
      <trkpt lat="37.53762" lon="-3.05017">
        <ele>842.858245</ele>
        <time>2022-02-24T16:40:47.626Z</time>
      </trkpt>
      <trkpt lat="37.53741" lon="-3.0504">
        <ele>843.438402</ele>
        <time>2022-02-24T16:41:02.543Z</time>
      </trkpt>
      <trkpt lat="37.53619" lon="-3.05098">
        <ele>844.761478</ele>
        <time>2022-02-24T16:42:00.804Z</time>
      </trkpt>
      <trkpt lat="37.53568" lon="-3.05128">
        <ele>844.905824</ele>
        <time>2022-02-24T16:42:21.040Z</time>
      </trkpt>
      <trkpt lat="37.53528" lon="-3.05146">
        <ele>843.766166</ele>
        <time>2022-02-24T16:42:34.956Z</time>
      </trkpt>
      <trkpt lat="37.53481" lon="-3.05154">
        <ele>842.47208</ele>
        <time>2022-02-24T16:42:50.031Z</time>
      </trkpt>
      <trkpt lat="37.53431" lon="-3.05214">
        <ele>840.607329</ele>
        <time>2022-02-24T16:43:10.119Z</time>
      </trkpt>
      <trkpt lat="37.53361" lon="-3.05251">
        <ele>839.015982</ele>
        <time>2022-02-24T16:43:33.100Z</time>
      </trkpt>
      <trkpt lat="37.533" lon="-3.05273">
        <ele>837.729066</ele>
        <time>2022-02-24T16:43:54.280Z</time>
      </trkpt>
      <trkpt lat="37.53238" lon="-3.05334">
        <ele>836.831696</ele>
        <time>2022-02-24T16:44:22.687Z</time>
      </trkpt>
      <trkpt lat="37.53229" lon="-3.05353">
        <ele>836.897505</ele>
        <time>2022-02-24T16:44:29.700Z</time>
      </trkpt>
      <trkpt lat="37.53208" lon="-3.05425">
        <ele>837.119028</ele>
        <time>2022-02-24T16:44:54.291Z</time>
      </trkpt>
      <trkpt lat="37.53163" lon="-3.05509">
        <ele>837.411171</ele>
        <time>2022-02-24T16:45:28.653Z</time>
      </trkpt>
      <trkpt lat="37.53146" lon="-3.05518">
        <ele>837.474384</ele>
        <time>2022-02-24T16:45:34.394Z</time>
      </trkpt>
      <trkpt lat="37.53069" lon="-3.05529">
        <ele>837.750581</ele>
        <time>2022-02-24T16:46:02.221Z</time>
      </trkpt>
      <trkpt lat="37.53046" lon="-3.05511">
        <ele>837.845934</ele>
        <time>2022-02-24T16:46:11.444Z</time>
      </trkpt>
      <trkpt lat="37.53024" lon="-3.05513">
        <ele>837.925067</ele>
        <time>2022-02-24T16:46:20.436Z</time>
      </trkpt>
      <trkpt lat="37.53008" lon="-3.05522">
        <ele>837.987494</ele>
        <time>2022-02-24T16:46:26.417Z</time>
      </trkpt>
      <trkpt lat="37.52969" lon="-3.0555">
        <ele>839.780616</ele>
        <time>2022-02-24T16:46:51.742Z</time>
      </trkpt>
      <trkpt lat="37.52928" lon="-3.05561">
        <ele>841.874488</ele>
        <time>2022-02-24T16:47:17.687Z</time>
      </trkpt>
      <trkpt lat="37.52899" lon="-3.05584">
        <ele>843.57344</ele>
        <time>2022-02-24T16:47:40.056Z</time>
      </trkpt>
      <trkpt lat="37.52861" lon="-3.05603">
        <ele>845.657459</ele>
        <time>2022-02-24T16:48:08.760Z</time>
      </trkpt>
      <trkpt lat="37.52832" lon="-3.05608">
        <ele>847.083684</ele>
        <time>2022-02-24T16:48:29.982Z</time>
      </trkpt>
      <trkpt lat="37.52817" lon="-3.05616">
        <ele>847.678283</ele>
        <time>2022-02-24T16:48:41.453Z</time>
      </trkpt>
      <trkpt lat="37.52809" lon="-3.05631">
        <ele>848.212178</ele>
        <time>2022-02-24T16:48:50.680Z</time>
      </trkpt>
      <trkpt lat="37.52802" lon="-3.05674">
        <ele>849.499422</ele>
        <time>2022-02-24T16:49:13.666Z</time>
      </trkpt>
      <trkpt lat="37.52789" lon="-3.05692">
        <ele>850.195588</ele>
        <time>2022-02-24T16:49:26.672Z</time>
      </trkpt>
      <trkpt lat="37.52765" lon="-3.05686">
        <ele>851.091475</ele>
        <time>2022-02-24T16:49:41.309Z</time>
      </trkpt>
      <trkpt lat="37.52719" lon="-3.05662">
        <ele>852.936317</ele>
        <time>2022-02-24T16:50:05.515Z</time>
      </trkpt>
      <trkpt lat="37.52682" lon="-3.05655">
        <ele>853.293924</ele>
        <time>2022-02-24T16:50:17.988Z</time>
      </trkpt>
      <trkpt lat="37.52617" lon="-3.05687">
        <ele>851.814511</ele>
        <time>2022-02-24T16:50:40.140Z</time>
      </trkpt>
      <trkpt lat="37.5252" lon="-3.05708">
        <ele>849.81465</ele>
        <time>2022-02-24T16:51:10.746Z</time>
      </trkpt>
      <trkpt lat="37.52432" lon="-3.05698">
        <ele>849.392832</ele>
        <time>2022-02-24T16:51:40.029Z</time>
      </trkpt>
      <trkpt lat="37.52372" lon="-3.05667">
        <ele>849.084992</ele>
        <time>2022-02-24T16:52:03.865Z</time>
      </trkpt>
      <trkpt lat="37.52228" lon="-3.05708">
        <ele>853.350492</ele>
        <time>2022-02-24T16:53:24.124Z</time>
      </trkpt>
      <trkpt lat="37.5218" lon="-3.05713">
        <ele>854.980885</ele>
        <time>2022-02-24T16:53:52.558Z</time>
      </trkpt>
      <trkpt lat="37.52153" lon="-3.05724">
        <ele>856.149461</ele>
        <time>2022-02-24T16:54:08.521Z</time>
      </trkpt>
      <trkpt lat="37.52126" lon="-3.05744">
        <ele>857.504009</ele>
        <time>2022-02-24T16:54:26.298Z</time>
      </trkpt>
      <trkpt lat="37.52112" lon="-3.05746">
        <ele>858.106895</ele>
        <time>2022-02-24T16:54:34.720Z</time>
      </trkpt>
      <trkpt lat="37.52062" lon="-3.05722">
        <ele>860.379472</ele>
        <time>2022-02-24T16:55:03.636Z</time>
      </trkpt>
      <trkpt lat="37.52048" lon="-3.05706">
        <ele>861.170489</ele>
        <time>2022-02-24T16:55:16.150Z</time>
      </trkpt>
      <trkpt lat="37.51983" lon="-3.05655">
        <ele>864.849608</ele>
        <time>2022-02-24T16:56:03.732Z</time>
      </trkpt>
      <trkpt lat="37.51956" lon="-3.05626">
        <ele>866.759755</ele>
        <time>2022-02-24T16:56:25.967Z</time>
      </trkpt>
      <trkpt lat="37.5194" lon="-3.05624">
        <ele>867.598938</ele>
        <time>2022-02-24T16:56:35.337Z</time>
      </trkpt>
      <trkpt lat="37.51933" lon="-3.05632">
        <ele>868.094023</ele>
        <time>2022-02-24T16:56:41.434Z</time>
      </trkpt>
      <trkpt lat="37.51936" lon="-3.05657">
        <ele>869.14403</ele>
        <time>2022-02-24T16:56:54.893Z</time>
      </trkpt>
      <trkpt lat="37.51954" lon="-3.05691">
        <ele>870.904794</ele>
        <time>2022-02-24T16:57:16.008Z</time>
      </trkpt>
      <trkpt lat="37.51979" lon="-3.05768">
        <ele>874.199799</ele>
        <time>2022-02-24T16:57:59.319Z</time>
      </trkpt>
      <trkpt lat="37.51969" lon="-3.05783">
        <ele>874.933126</ele>
        <time>2022-02-24T16:58:09.498Z</time>
      </trkpt>
      <trkpt lat="37.51942" lon="-3.05793">
        <ele>876.280754</ele>
        <time>2022-02-24T16:58:30.112Z</time>
      </trkpt>
      <trkpt lat="37.51932" lon="-3.05787">
        <ele>876.787</ele>
        <time>2022-02-24T16:58:36.028Z</time>
      </trkpt>
      <trkpt lat="37.51915" lon="-3.05788">
        <ele>877.594834</ele>
        <time>2022-02-24T16:58:44.909Z</time>
      </trkpt>
      <trkpt lat="37.51904" lon="-3.05803">
        <ele>878.352263</ele>
        <time>2022-02-24T16:58:53.514Z</time>
      </trkpt>
      <trkpt lat="37.51882" lon="-3.0581">
        <ele>879.424759</ele>
        <time>2022-02-24T16:59:05.719Z</time>
      </trkpt>
      <trkpt lat="37.51869" lon="-3.05821">
        <ele>880.158827</ele>
        <time>2022-02-24T16:59:14.408Z</time>
      </trkpt>
      <trkpt lat="37.51833" lon="-3.05806">
        <ele>881.759777</ele>
        <time>2022-02-24T16:59:36.455Z</time>
      </trkpt>
      <trkpt lat="37.51805" lon="-3.05811">
        <ele>882.789808</ele>
        <time>2022-02-24T16:59:52.363Z</time>
      </trkpt>
      <trkpt lat="37.5178" lon="-3.05808">
        <ele>883.721201</ele>
        <time>2022-02-24T17:00:06.874Z</time>
      </trkpt>
      <trkpt lat="37.51771" lon="-3.058">
        <ele>884.144919</ele>
        <time>2022-02-24T17:00:13.295Z</time>
      </trkpt>
      <trkpt lat="37.51714" lon="-3.05774">
        <ele>886.40331</ele>
        <time>2022-02-24T17:00:47.900Z</time>
      </trkpt>
      <trkpt lat="37.51692" lon="-3.05775">
        <ele>887.246343</ele>
        <time>2022-02-24T17:01:00.031Z</time>
      </trkpt>
      <trkpt lat="37.51659" lon="-3.05758">
        <ele>887.976487</ele>
        <time>2022-02-24T17:01:18.412Z</time>
      </trkpt>
      <trkpt lat="37.51612" lon="-3.05753">
        <ele>888.647609</ele>
        <time>2022-02-24T17:01:41.004Z</time>
      </trkpt>
      <trkpt lat="37.51596" lon="-3.05741">
        <ele>888.920693</ele>
        <time>2022-02-24T17:01:49.518Z</time>
      </trkpt>
      <trkpt lat="37.51568" lon="-3.05699">
        <ele>889.541396</ele>
        <time>2022-02-24T17:02:07.382Z</time>
      </trkpt>
      <trkpt lat="37.51555" lon="-3.0569">
        <ele>889.754123</ele>
        <time>2022-02-24T17:02:13.210Z</time>
      </trkpt>
      <trkpt lat="37.51437" lon="-3.0563">
        <ele>890.022281</ele>
        <time>2022-02-24T17:02:59.961Z</time>
      </trkpt>
      <trkpt lat="37.5141" lon="-3.05637">
        <ele>889.976335</ele>
        <time>2022-02-24T17:03:10.043Z</time>
      </trkpt>
      <trkpt lat="37.51369" lon="-3.05681">
        <ele>889.886807</ele>
        <time>2022-02-24T17:03:29.530Z</time>
      </trkpt>
      <trkpt lat="37.51321" lon="-3.05698">
        <ele>889.224174</ele>
        <time>2022-02-24T17:03:47.295Z</time>
      </trkpt>
      <trkpt lat="37.51262" lon="-3.05681">
        <ele>888.39276</ele>
        <time>2022-02-24T17:04:08.456Z</time>
      </trkpt>
      <trkpt lat="37.51239" lon="-3.05666">
        <ele>888.045548</ele>
        <time>2022-02-24T17:04:16.917Z</time>
      </trkpt>
      <trkpt lat="37.5121" lon="-3.05589">
        <ele>886.454706</ele>
        <time>2022-02-24T17:04:38.303Z</time>
      </trkpt>
      <trkpt lat="37.51209" lon="-3.05563">
        <ele>885.542059</ele>
        <time>2022-02-24T17:04:44.663Z</time>
      </trkpt>
      <trkpt lat="37.51205" lon="-3.05556">
        <ele>885.238033</ele>
        <time>2022-02-24T17:04:46.674Z</time>
      </trkpt>
      <trkpt lat="37.51175" lon="-3.05532">
        <ele>883.643056</ele>
        <time>2022-02-24T17:04:57.355Z</time>
      </trkpt>
      <trkpt lat="37.51135" lon="-3.05489">
        <ele>881.366697</ele>
        <time>2022-02-24T17:05:12.221Z</time>
      </trkpt>
      <trkpt lat="37.51052" lon="-3.05448">
        <ele>877.17216</ele>
        <time>2022-02-24T17:05:37.675Z</time>
      </trkpt>
      <trkpt lat="37.51019" lon="-3.05422">
        <ele>875.263458</ele>
        <time>2022-02-24T17:05:48.594Z</time>
      </trkpt>
      <trkpt lat="37.5097" lon="-3.0542">
        <ele>872.818071</ele>
        <time>2022-02-24T17:06:02.774Z</time>
      </trkpt>
      <trkpt lat="37.50934" lon="-3.05391">
        <ele>870.71472</ele>
        <time>2022-02-24T17:06:15.223Z</time>
      </trkpt>
      <trkpt lat="37.50911" lon="-3.05362">
        <ele>869.935055</ele>
        <time>2022-02-24T17:06:25.199Z</time>
      </trkpt>
      <trkpt lat="37.50889" lon="-3.0536">
        <ele>869.442258</ele>
        <time>2022-02-24T17:06:32.052Z</time>
      </trkpt>
      <trkpt lat="37.50813" lon="-3.05324">
        <ele>867.637709</ele>
        <time>2022-02-24T17:06:58.643Z</time>
      </trkpt>
      <trkpt lat="37.50751" lon="-3.05322">
        <ele>866.476412</ele>
        <time>2022-02-24T17:07:20.279Z</time>
      </trkpt>
      <trkpt lat="37.50727" lon="-3.05313">
        <ele>866.256654</ele>
        <time>2022-02-24T17:07:29.101Z</time>
      </trkpt>
      <trkpt lat="37.50684" lon="-3.05256">
        <ele>865.701538</ele>
        <time>2022-02-24T17:07:50.138Z</time>
      </trkpt>
      <trkpt lat="37.50664" lon="-3.05241">
        <ele>865.496923</ele>
        <time>2022-02-24T17:07:58.321Z</time>
      </trkpt>
      <trkpt lat="37.50614" lon="-3.05219">
        <ele>865.028661</ele>
        <time>2022-02-24T17:08:17.094Z</time>
      </trkpt>
      <trkpt lat="37.50603" lon="-3.05203">
        <ele>865.025236</ele>
        <time>2022-02-24T17:08:23.487Z</time>
      </trkpt>
      <trkpt lat="37.50594" lon="-3.05163">
        <ele>865.018714</ele>
        <time>2022-02-24T17:08:35.418Z</time>
      </trkpt>
      <trkpt lat="37.50583" lon="-3.05155">
        <ele>865.016222</ele>
        <time>2022-02-24T17:08:39.308Z</time>
      </trkpt>
      <trkpt lat="37.50534" lon="-3.05184">
        <ele>865.005516</ele>
        <time>2022-02-24T17:09:00.089Z</time>
      </trkpt>
      <trkpt lat="37.50497" lon="-3.05187">
        <ele>864.998239</ele>
        <time>2022-02-24T17:09:13.944Z</time>
      </trkpt>
      <trkpt lat="37.50466" lon="-3.05209">
        <ele>865.13499</ele>
        <time>2022-02-24T17:09:28.181Z</time>
      </trkpt>
      <trkpt lat="37.50449" lon="-3.05208">
        <ele>865.384797</ele>
        <time>2022-02-24T17:09:34.365Z</time>
      </trkpt>
      <trkpt lat="37.50406" lon="-3.05182">
        <ele>866.059322</ele>
        <time>2022-02-24T17:09:58.064Z</time>
      </trkpt>
      <trkpt lat="37.50388" lon="-3.05188">
        <ele>866.331453</ele>
        <time>2022-02-24T17:10:06.885Z</time>
      </trkpt>
      <trkpt lat="37.50341" lon="-3.05188">
        <ele>866.999412</ele>
        <time>2022-02-24T17:10:27.642Z</time>
      </trkpt>
      <trkpt lat="37.50312" lon="-3.05161">
        <ele>867.514221</ele>
        <time>2022-02-24T17:10:43.208Z</time>
      </trkpt>
      <trkpt lat="37.50286" lon="-3.0512">
        <ele>868.485567</ele>
        <time>2022-02-24T17:11:01.079Z</time>
      </trkpt>
      <trkpt lat="37.50264" lon="-3.05072">
        <ele>869.562416</ele>
        <time>2022-02-24T17:11:21.228Z</time>
      </trkpt>
      <trkpt lat="37.50258" lon="-3.05069">
        <ele>869.714597</ele>
        <time>2022-02-24T17:11:24.194Z</time>
      </trkpt>
      <trkpt lat="37.50207" lon="-3.05039">
        <ele>871.07982</ele>
        <time>2022-02-24T17:11:52.850Z</time>
      </trkpt>
      <trkpt lat="37.5018" lon="-3.05012">
        <ele>871.91506</ele>
        <time>2022-02-24T17:12:11.658Z</time>
      </trkpt>
      <trkpt lat="37.50157" lon="-3.05001">
        <ele>873.334429</ele>
        <time>2022-02-24T17:12:25.869Z</time>
      </trkpt>
      <trkpt lat="37.50133" lon="-3.04968">
        <ele>875.384166</ele>
        <time>2022-02-24T17:12:47.474Z</time>
      </trkpt>
      <trkpt lat="37.50123" lon="-3.04963">
        <ele>875.989169</ele>
        <time>2022-02-24T17:12:53.864Z</time>
      </trkpt>
      <trkpt lat="37.50087" lon="-3.04965">
        <ele>878.08585</ele>
        <time>2022-02-24T17:13:17.061Z</time>
      </trkpt>
      <trkpt lat="37.50049" lon="-3.04956">
        <ele>880.326707</ele>
        <time>2022-02-24T17:13:43.608Z</time>
      </trkpt>
      <trkpt lat="37.50016" lon="-3.04956">
        <ele>882.270306</ele>
        <time>2022-02-24T17:14:08.473Z</time>
      </trkpt>
      <trkpt lat="37.49986" lon="-3.04946">
        <ele>885.563084</ele>
        <time>2022-02-24T17:14:33.683Z</time>
      </trkpt>
      <trkpt lat="37.49953" lon="-3.04892">
        <ele>891.347418</ele>
        <time>2022-02-24T17:15:18.697Z</time>
      </trkpt>
      <trkpt lat="37.49887" lon="-3.04875">
        <ele>898.663839</ele>
        <time>2022-02-24T17:16:22.832Z</time>
      </trkpt>
      <trkpt lat="37.49796" lon="-3.04916">
        <ele>910.837852</ele>
        <time>2022-02-24T17:18:08.279Z</time>
      </trkpt>
      <trkpt lat="37.49712" lon="-3.04906">
        <ele>922.192633</ele>
        <time>2022-02-24T17:19:41.206Z</time>
      </trkpt>
      <trkpt lat="37.49663" lon="-3.04912">
        <ele>927.561468</ele>
        <time>2022-02-24T17:20:27.128Z</time>
      </trkpt>
      <trkpt lat="37.49605" lon="-3.04891">
        <ele>931.929245</ele>
        <time>2022-02-24T17:21:17.367Z</time>
      </trkpt>
      <trkpt lat="37.49587" lon="-3.04874">
        <ele>933.560864</ele>
        <time>2022-02-24T17:21:32.843Z</time>
      </trkpt>
      <trkpt lat="37.49585" lon="-3.04865">
        <ele>934.061313</ele>
        <time>2022-02-24T17:21:37.336Z</time>
      </trkpt>
      <trkpt lat="37.49597" lon="-3.04851">
        <ele>935.230281</ele>
        <time>2022-02-24T17:21:47.265Z</time>
      </trkpt>
      <trkpt lat="37.49625" lon="-3.04835">
        <ele>937.492728</ele>
        <time>2022-02-24T17:22:04.559Z</time>
      </trkpt>
      <trkpt lat="37.49637" lon="-3.04821">
        <ele>938.609217</ele>
        <time>2022-02-24T17:22:13.016Z</time>
      </trkpt>
      <trkpt lat="37.49636" lon="-3.04812">
        <ele>939.115487</ele>
        <time>2022-02-24T17:22:16.988Z</time>
      </trkpt>
      <trkpt lat="37.49625" lon="-3.04799">
        <ele>939.938896</ele>
        <time>2022-02-24T17:22:25.393Z</time>
      </trkpt>
      <trkpt lat="37.49604" lon="-3.04795">
        <ele>941.147213</ele>
        <time>2022-02-24T17:22:37.779Z</time>
      </trkpt>
      <trkpt lat="37.49588" lon="-3.04809">
        <ele>942.26272</ele>
        <time>2022-02-24T17:22:49.505Z</time>
      </trkpt>
      <trkpt lat="37.49565" lon="-3.0482">
        <ele>943.628685</ele>
        <time>2022-02-24T17:23:03.688Z</time>
      </trkpt>
      <trkpt lat="37.49516" lon="-3.04803">
        <ele>946.500191</ele>
        <time>2022-02-24T17:23:36.213Z</time>
      </trkpt>
      <trkpt lat="37.49454" lon="-3.04795">
        <ele>950.371822</ele>
        <time>2022-02-24T17:24:22.825Z</time>
      </trkpt>
      <trkpt lat="37.49395" lon="-3.04776">
        <ele>955.370266</ele>
        <time>2022-02-24T17:25:14.509Z</time>
      </trkpt>
      <trkpt lat="37.49325" lon="-3.04772">
        <ele>961.115304</ele>
        <time>2022-02-24T17:26:11.156Z</time>
      </trkpt>
      <trkpt lat="37.49299" lon="-3.04735">
        <ele>964.122029</ele>
        <time>2022-02-24T17:26:39.996Z</time>
      </trkpt>
      <trkpt lat="37.49241" lon="-3.04678">
        <ele>967.112126</ele>
        <time>2022-02-24T17:27:29.530Z</time>
      </trkpt>
      <trkpt lat="37.48935" lon="-3.04505">
        <ele>976.288301</ele>
        <time>2022-02-24T17:30:08.793Z</time>
      </trkpt>
      <trkpt lat="37.48898" lon="-3.04483">
        <ele>977.289321</ele>
        <time>2022-02-24T17:30:28.199Z</time>
      </trkpt>
      <trkpt lat="37.4868" lon="-3.04243">
        <ele>984.955794</ele>
        <time>2022-02-24T17:32:57.344Z</time>
      </trkpt>
      <trkpt lat="37.48621" lon="-3.04192">
        <ele>986.264803</ele>
        <time>2022-02-24T17:33:32.166Z</time>
      </trkpt>
      <trkpt lat="37.48541" lon="-3.04141">
        <ele>987.820219</ele>
        <time>2022-02-24T17:34:11.155Z</time>
      </trkpt>
      <trkpt lat="37.48439" lon="-3.04024">
        <ele>988.630079</ele>
        <time>2022-02-24T17:35:03.452Z</time>
      </trkpt>
      <trkpt lat="37.48358" lon="-3.03971">
        <ele>989.965249</ele>
        <time>2022-02-24T17:35:42.690Z</time>
      </trkpt>
      <trkpt lat="37.48336" lon="-3.0394">
        <ele>990.633393</ele>
        <time>2022-02-24T17:35:57.801Z</time>
      </trkpt>
      <trkpt lat="37.48271" lon="-3.0388">
        <ele>992.273489</ele>
        <time>2022-02-24T17:36:37.306Z</time>
      </trkpt>
      <trkpt lat="37.48218" lon="-3.03861">
        <ele>994.01507</ele>
        <time>2022-02-24T17:37:07.061Z</time>
      </trkpt>
      <trkpt lat="37.48146" lon="-3.03814">
        <ele>996.866661</ele>
        <time>2022-02-24T17:37:52.920Z</time>
      </trkpt>
      <trkpt lat="37.48011" lon="-3.03664">
        <ele>1002.942094</ele>
        <time>2022-02-24T17:39:30.677Z</time>
      </trkpt>
      <trkpt lat="37.47898" lon="-3.0361">
        <ele>1006.548823</ele>
        <time>2022-02-24T17:40:33.746Z</time>
      </trkpt>
      <trkpt lat="37.47849" lon="-3.03597">
        <ele>1007.924681</ele>
        <time>2022-02-24T17:40:58.896Z</time>
      </trkpt>
      <trkpt lat="37.47846" lon="-3.0359">
        <ele>1008.094654</ele>
        <time>2022-02-24T17:41:02.376Z</time>
      </trkpt>
      <trkpt lat="37.47782" lon="-3.03546">
        <ele>1010.019328</ele>
        <time>2022-02-24T17:41:38.271Z</time>
      </trkpt>
      <trkpt lat="37.4775" lon="-3.03543">
        <ele>1010.738011</ele>
        <time>2022-02-24T17:41:53.459Z</time>
      </trkpt>
      <trkpt lat="37.47704" lon="-3.03538">
        <ele>1011.776674</ele>
        <time>2022-02-24T17:42:15.616Z</time>
      </trkpt>
      <trkpt lat="37.47545" lon="-3.03447">
        <ele>1015.814264</ele>
        <time>2022-02-24T17:43:39.794Z</time>
      </trkpt>
      <trkpt lat="37.47456" lon="-3.03423">
        <ele>1017.974589</ele>
        <time>2022-02-24T17:44:25.240Z</time>
      </trkpt>
      <trkpt lat="37.47424" lon="-3.03423">
        <ele>1018.606325</ele>
        <time>2022-02-24T17:44:41.232Z</time>
      </trkpt>
      <trkpt lat="37.47385" lon="-3.03432">
        <ele>1019.369234</ele>
        <time>2022-02-24T17:45:00.460Z</time>
      </trkpt>
      <trkpt lat="37.47358" lon="-3.03428">
        <ele>1019.902396</ele>
        <time>2022-02-24T17:45:13.608Z</time>
      </trkpt>
      <trkpt lat="37.47231" lon="-3.03373">
        <ele>1022.202894</ele>
        <time>2022-02-24T17:46:13.288Z</time>
      </trkpt>
      <trkpt lat="37.472" lon="-3.03353">
        <ele>1022.661981</ele>
        <time>2022-02-24T17:46:28.107Z</time>
      </trkpt>
      <trkpt lat="37.47102" lon="-3.03266">
        <ele>1024.301487</ele>
        <time>2022-02-24T17:47:20.078Z</time>
      </trkpt>
      <trkpt lat="37.46981" lon="-3.03147">
        <ele>1026.671781</ele>
        <time>2022-02-24T17:48:28.700Z</time>
      </trkpt>
      <trkpt lat="37.46951" lon="-3.03126">
        <ele>1027.513069</ele>
        <time>2022-02-24T17:48:44.572Z</time>
      </trkpt>
      <trkpt lat="37.46857" lon="-3.03081">
        <ele>1030.014958</ele>
        <time>2022-02-24T17:49:34.650Z</time>
      </trkpt>
      <trkpt lat="37.4673" lon="-3.03036">
        <ele>1033.671558</ele>
        <time>2022-02-24T17:50:44.152Z</time>
      </trkpt>
      <trkpt lat="37.46642" lon="-3.02996">
        <ele>1036.377802</ele>
        <time>2022-02-24T17:51:32.781Z</time>
      </trkpt>
      <trkpt lat="37.46566" lon="-3.02992">
        <ele>1037.632024</ele>
        <time>2022-02-24T17:52:08.529Z</time>
      </trkpt>
      <trkpt lat="37.4629" lon="-3.02924">
        <ele>1041.376792</ele>
        <time>2022-02-24T17:54:08.580Z</time>
      </trkpt>
      <trkpt lat="37.46212" lon="-3.02886">
        <ele>1042.554144</ele>
        <time>2022-02-24T17:54:45.633Z</time>
      </trkpt>
      <trkpt lat="37.46141" lon="-3.0284">
        <ele>1043.691114</ele>
        <time>2022-02-24T17:55:21.611Z</time>
      </trkpt>
      <trkpt lat="37.45935" lon="-3.0273">
        <ele>1046.460888</ele>
        <time>2022-02-24T17:56:57.553Z</time>
      </trkpt>
      <trkpt lat="37.45897" lon="-3.02699">
        <ele>1047.057772</ele>
        <time>2022-02-24T17:57:17.144Z</time>
      </trkpt>
      <trkpt lat="37.45871" lon="-3.02659">
        <ele>1047.595704</ele>
        <time>2022-02-24T17:57:35.244Z</time>
      </trkpt>
      <trkpt lat="37.45859" lon="-3.0265">
        <ele>1047.780359</ele>
        <time>2022-02-24T17:57:41.467Z</time>
      </trkpt>
      <trkpt lat="37.4581" lon="-3.02635">
        <ele>1048.44814</ele>
        <time>2022-02-24T17:58:03.686Z</time>
      </trkpt>
      <trkpt lat="37.45729" lon="-3.02599">
        <ele>1049.137436</ele>
        <time>2022-02-24T17:58:40.856Z</time>
      </trkpt>
      <trkpt lat="37.4567" lon="-3.02581">
        <ele>1049.618882</ele>
        <time>2022-02-24T17:59:05.689Z</time>
      </trkpt>
      <trkpt lat="37.45623" lon="-3.02546">
        <ele>1049.865878</ele>
        <time>2022-02-24T17:59:26.287Z</time>
      </trkpt>
      <trkpt lat="37.45565" lon="-3.02514">
        <ele>1049.754791</ele>
        <time>2022-02-24T17:59:48.912Z</time>
      </trkpt>
      <trkpt lat="37.45529" lon="-3.02474">
        <ele>1049.671277</ele>
        <time>2022-02-24T18:00:05.930Z</time>
      </trkpt>
      <trkpt lat="37.4547" lon="-3.02422">
        <ele>1049.87255</ele>
        <time>2022-02-24T18:00:32.493Z</time>
      </trkpt>
      <trkpt lat="37.454" lon="-3.02331">
        <ele>1051.112617</ele>
        <time>2022-02-24T18:01:14.522Z</time>
      </trkpt>
      <trkpt lat="37.45355" lon="-3.02284">
        <ele>1051.875497</ele>
        <time>2022-02-24T18:01:42.469Z</time>
      </trkpt>
      <trkpt lat="37.45314" lon="-3.02231">
        <ele>1053.803673</ele>
        <time>2022-02-24T18:02:13.471Z</time>
      </trkpt>
      <trkpt lat="37.45247" lon="-3.02169">
        <ele>1056.479375</ele>
        <time>2022-02-24T18:02:58.777Z</time>
      </trkpt>
      <trkpt lat="37.45192" lon="-3.02109">
        <ele>1058.999507</ele>
        <time>2022-02-24T18:03:39.003Z</time>
      </trkpt>
      <trkpt lat="37.45008" lon="-3.01996">
        <ele>1066.284981</ele>
        <time>2022-02-24T18:05:32.454Z</time>
      </trkpt>
      <trkpt lat="37.44939" lon="-3.01973">
        <ele>1068.669215</ele>
        <time>2022-02-24T18:06:11.410Z</time>
      </trkpt>
      <trkpt lat="37.44919" lon="-3.01957">
        <ele>1069.429386</ele>
        <time>2022-02-24T18:06:23.889Z</time>
      </trkpt>
      <trkpt lat="37.44916" lon="-3.01938">
        <ele>1069.944602</ele>
        <time>2022-02-24T18:06:28.873Z</time>
      </trkpt>
      <trkpt lat="37.44896" lon="-3.01921">
        <ele>1070.607295</ele>
        <time>2022-02-24T18:06:38.089Z</time>
      </trkpt>
      <trkpt lat="37.44857" lon="-3.01891">
        <ele>1071.74576</ele>
        <time>2022-02-24T18:06:53.919Z</time>
      </trkpt>
      <trkpt lat="37.44776" lon="-3.0186">
        <ele>1073.836169</ele>
        <time>2022-02-24T18:07:24.301Z</time>
      </trkpt>
      <trkpt lat="37.44772" lon="-3.01865">
        <ele>1073.978595</ele>
        <time>2022-02-24T18:07:26.177Z</time>
      </trkpt>
      <trkpt lat="37.44519" lon="-3.01752">
        <ele>1080.016089</ele>
        <time>2022-02-24T18:08:54.858Z</time>
      </trkpt>
      <trkpt lat="37.44208" lon="-3.01613">
        <ele>1087.782458</ele>
        <time>2022-02-24T18:10:48.406Z</time>
      </trkpt>
      <trkpt lat="37.43886" lon="-3.01473">
        <ele>1095.066481</ele>
        <time>2022-02-24T18:12:39.760Z</time>
      </trkpt>
      <trkpt lat="37.4305" lon="-3.01108">
        <ele>1115.594484</ele>
        <time>2022-02-24T18:17:38.822Z</time>
      </trkpt>
      <trkpt lat="37.41432" lon="-3.00391">
        <ele>1162.185462</ele>
        <time>2022-02-24T18:27:53.885Z</time>
      </trkpt>
      <trkpt lat="37.41134" lon="-3.0026">
        <ele>1170.092117</ele>
        <time>2022-02-24T18:29:46.803Z</time>
      </trkpt>
      <trkpt lat="37.40888" lon="-3.00149">
        <ele>1172.937132</ele>
        <time>2022-02-24T18:30:59.831Z</time>
      </trkpt>
      <trkpt lat="37.40879" lon="-3.00144">
        <ele>1172.993503</ele>
        <time>2022-02-24T18:31:02.035Z</time>
      </trkpt>
      <trkpt lat="37.40857" lon="-3.00159">
        <ele>1173.138448</ele>
        <time>2022-02-24T18:31:07.462Z</time>
      </trkpt>
      <trkpt lat="37.40844" lon="-3.00167">
        <ele>1173.185522</ele>
        <time>2022-02-24T18:31:10.532Z</time>
      </trkpt>
      <trkpt lat="37.40818" lon="-3.00171">
        <ele>1172.73124</ele>
        <time>2022-02-24T18:31:15.979Z</time>
      </trkpt>
      <trkpt lat="37.40745" lon="-3.00141">
        <ele>1171.400104</ele>
        <time>2022-02-24T18:31:31.317Z</time>
      </trkpt>
      <trkpt lat="37.40694" lon="-3.00107">
        <ele>1170.410623</ele>
        <time>2022-02-24T18:31:42.240Z</time>
      </trkpt>
      <trkpt lat="37.40545" lon="-3.00104">
        <ele>1165.544621</ele>
        <time>2022-02-24T18:32:09.140Z</time>
      </trkpt>
      <trkpt lat="37.40494" lon="-3.00102">
        <ele>1163.70661</ele>
        <time>2022-02-24T18:32:17.998Z</time>
      </trkpt>
      <trkpt lat="37.40489" lon="-3.00118">
        <ele>1163.013861</ele>
        <time>2022-02-24T18:32:19.955Z</time>
      </trkpt>
      <trkpt lat="37.40479" lon="-3.00131">
        <ele>1162.278706</ele>
        <time>2022-02-24T18:32:22.319Z</time>
      </trkpt>
      <trkpt lat="37.40466" lon="-3.0014">
        <ele>1161.483477</ele>
        <time>2022-02-24T18:32:24.682Z</time>
      </trkpt>
      <trkpt lat="37.40438" lon="-3.00143">
        <ele>1160.020532</ele>
        <time>2022-02-24T18:32:29.141Z</time>
      </trkpt>
      <trkpt lat="37.4029" lon="-3.00044">
        <ele>1151.676408</ele>
        <time>2022-02-24T18:32:55.234Z</time>
      </trkpt>
      <trkpt lat="37.40269" lon="-3.00034">
        <ele>1150.655538</ele>
        <time>2022-02-24T18:32:58.810Z</time>
      </trkpt>
      <trkpt lat="37.40236" lon="-3.00028">
        <ele>1149.095903</ele>
        <time>2022-02-24T18:33:04.329Z</time>
      </trkpt>
      <trkpt lat="37.4015" lon="-3.00038">
        <ele>1145.143692</ele>
        <time>2022-02-24T18:33:18.713Z</time>
      </trkpt>
      <trkpt lat="37.40095" lon="-3.00018">
        <ele>1142.460305</ele>
        <time>2022-02-24T18:33:28.251Z</time>
      </trkpt>
      <trkpt lat="37.40055" lon="-3.00014">
        <ele>1140.618239</ele>
        <time>2022-02-24T18:33:34.654Z</time>
      </trkpt>
      <trkpt lat="37.40022" lon="-3.00023">
        <ele>1139.005961</ele>
        <time>2022-02-24T18:33:40.123Z</time>
      </trkpt>
      <trkpt lat="37.39827" lon="-3.00123">
        <ele>1126.285763</ele>
        <time>2022-02-24T18:34:12.036Z</time>
      </trkpt>
      <trkpt lat="37.39795" lon="-3.0013">
        <ele>1125.438819</ele>
        <time>2022-02-24T18:34:17.025Z</time>
      </trkpt>
      <trkpt lat="37.39769" lon="-3.00114">
        <ele>1124.688016</ele>
        <time>2022-02-24T18:34:21.490Z</time>
      </trkpt>
      <trkpt lat="37.39713" lon="-3.00026">
        <ele>1122.309046</ele>
        <time>2022-02-24T18:34:37.776Z</time>
      </trkpt>
      <trkpt lat="37.39687" lon="-3.00015">
        <ele>1121.782635</ele>
        <time>2022-02-24T18:34:46.196Z</time>
      </trkpt>
      <trkpt lat="37.39663" lon="-3.00023">
        <ele>1122.565127</ele>
        <time>2022-02-24T18:34:54.887Z</time>
      </trkpt>
      <trkpt lat="37.396" lon="-3.00067">
        <ele>1124.8879</ele>
        <time>2022-02-24T18:35:22.602Z</time>
      </trkpt>
      <trkpt lat="37.39571" lon="-3.00091">
        <ele>1125.996526</ele>
        <time>2022-02-24T18:35:36.555Z</time>
      </trkpt>
      <trkpt lat="37.39563" lon="-3.00107">
        <ele>1126.459597</ele>
        <time>2022-02-24T18:35:42.688Z</time>
      </trkpt>
      <trkpt lat="37.39558" lon="-3.00131">
        <ele>1127.090895</ele>
        <time>2022-02-24T18:35:51.130Z</time>
      </trkpt>
      <trkpt lat="37.39563" lon="-3.00222">
        <ele>1130.319607</ele>
        <time>2022-02-24T18:36:26.559Z</time>
      </trkpt>
      <trkpt lat="37.39559" lon="-3.00254">
        <ele>1131.519744</ele>
        <time>2022-02-24T18:36:39.743Z</time>
      </trkpt>
      <trkpt lat="37.3955" lon="-3.00279">
        <ele>1132.524144</ele>
        <time>2022-02-24T18:36:49.270Z</time>
      </trkpt>
      <trkpt lat="37.39406" lon="-3.00511">
        <ele>1142.069847</ele>
        <time>2022-02-24T18:38:29.836Z</time>
      </trkpt>
      <trkpt lat="37.39389" lon="-3.00545">
        <ele>1142.831618</ele>
        <time>2022-02-24T18:38:41.103Z</time>
      </trkpt>
      <trkpt lat="37.39385" lon="-3.00565">
        <ele>1143.013884</ele>
        <time>2022-02-24T18:38:46.592Z</time>
      </trkpt>
      <trkpt lat="37.39388" lon="-3.00584">
        <ele>1143.184943</ele>
        <time>2022-02-24T18:38:51.596Z</time>
      </trkpt>
      <trkpt lat="37.39413" lon="-3.00615">
        <ele>1143.573772</ele>
        <time>2022-02-24T18:39:02.121Z</time>
      </trkpt>
      <trkpt lat="37.39664" lon="-3.00805">
        <ele>1144.889635</ele>
        <time>2022-02-24T18:40:07.685Z</time>
      </trkpt>
      <trkpt lat="37.3969" lon="-3.00818">
        <ele>1145.20514</ele>
        <time>2022-02-24T18:40:13.857Z</time>
      </trkpt>
      <trkpt lat="37.39735" lon="-3.00819">
        <ele>1145.713162</ele>
        <time>2022-02-24T18:40:24.404Z</time>
      </trkpt>
      <trkpt lat="37.39852" lon="-3.00794">
        <ele>1148.21703</ele>
        <time>2022-02-24T18:41:01.159Z</time>
      </trkpt>
      <trkpt lat="37.39878" lon="-3.00798">
        <ele>1149.637816</ele>
        <time>2022-02-24T18:41:13.202Z</time>
      </trkpt>
      <trkpt lat="37.39946" lon="-3.00824">
        <ele>1153.359653</ele>
        <time>2022-02-24T18:41:49.040Z</time>
      </trkpt>
      <trkpt lat="37.3999" lon="-3.00829">
        <ele>1155.746741</ele>
        <time>2022-02-24T18:42:13.374Z</time>
      </trkpt>
      <trkpt lat="37.40029" lon="-3.00845">
        <ele>1158.742861</ele>
        <time>2022-02-24T18:42:40.056Z</time>
      </trkpt>
      <trkpt lat="37.40043" lon="-3.00858">
        <ele>1160.125097</ele>
        <time>2022-02-24T18:42:51.129Z</time>
      </trkpt>
      <trkpt lat="37.4009" lon="-3.00956">
        <ele>1167.341828</ele>
        <time>2022-02-24T18:43:49.175Z</time>
      </trkpt>
      <trkpt lat="37.40111" lon="-3.00979">
        <ele>1169.607109</ele>
        <time>2022-02-24T18:44:08.624Z</time>
      </trkpt>
      <trkpt lat="37.40146" lon="-3.01013">
        <ele>1172.034498</ele>
        <time>2022-02-24T18:44:33.535Z</time>
      </trkpt>
      <trkpt lat="37.40161" lon="-3.01036">
        <ele>1173.09857</ele>
        <time>2022-02-24T18:44:46.315Z</time>
      </trkpt>
      <trkpt lat="37.40174" lon="-3.0107">
        <ele>1174.459098</ele>
        <time>2022-02-24T18:45:01.311Z</time>
      </trkpt>
      <trkpt lat="37.40177" lon="-3.01091">
        <ele>1175.232285</ele>
        <time>2022-02-24T18:45:09.663Z</time>
      </trkpt>
      <trkpt lat="37.40175" lon="-3.01143">
        <ele>1177.090531</ele>
        <time>2022-02-24T18:45:27.754Z</time>
      </trkpt>
      <trkpt lat="37.40167" lon="-3.01176">
        <ele>1178.34371</ele>
        <time>2022-02-24T18:45:36.360Z</time>
      </trkpt>
      <trkpt lat="37.40045" lon="-3.01532">
        <ele>1176.713985</ele>
        <time>2022-02-24T18:46:38.175Z</time>
      </trkpt>
      <trkpt lat="37.396" lon="-3.02835">
        <ele>1164.117842</ele>
        <time>2022-02-24T18:50:30.591Z</time>
      </trkpt>
      <trkpt lat="37.39464" lon="-3.03235">
        <ele>1154.983628</ele>
        <time>2022-02-24T18:51:33.771Z</time>
      </trkpt>
      <trkpt lat="37.39404" lon="-3.03408">
        <ele>1151.653133</ele>
        <time>2022-02-24T18:52:02.063Z</time>
      </trkpt>
      <trkpt lat="37.39321" lon="-3.03794">
        <ele>1146.84955</ele>
        <time>2022-02-24T18:53:47.244Z</time>
      </trkpt>
      <trkpt lat="37.39267" lon="-3.0393">
        <ele>1146.343206</ele>
        <time>2022-02-24T18:54:32.759Z</time>
      </trkpt>
      <trkpt lat="37.39257" lon="-3.03977">
        <ele>1146.592225</ele>
        <time>2022-02-24T18:54:48.877Z</time>
      </trkpt>
      <trkpt lat="37.3919" lon="-3.04094">
        <ele>1147.327076</ele>
        <time>2022-02-24T18:55:36.511Z</time>
      </trkpt>
      <trkpt lat="37.39137" lon="-3.04214">
        <ele>1146.46641</ele>
        <time>2022-02-24T18:56:16.304Z</time>
      </trkpt>
      <trkpt lat="37.39115" lon="-3.04243">
        <ele>1146.185907</ele>
        <time>2022-02-24T18:56:27.243Z</time>
      </trkpt>
      <trkpt lat="37.39094" lon="-3.04295">
        <ele>1145.733962</ele>
        <time>2022-02-24T18:56:42.262Z</time>
      </trkpt>
      <trkpt lat="37.39078" lon="-3.04364">
        <ele>1144.098935</ele>
        <time>2022-02-24T18:57:00.358Z</time>
      </trkpt>
      <trkpt lat="37.39076" lon="-3.04413">
        <ele>1143.006667</ele>
        <time>2022-02-24T18:57:12.191Z</time>
      </trkpt>
      <trkpt lat="37.39087" lon="-3.04444">
        <ele>1142.223161</ele>
        <time>2022-02-24T18:57:20.558Z</time>
      </trkpt>
      <trkpt lat="37.39199" lon="-3.04624">
        <ele>1137.607738</ele>
        <time>2022-02-24T18:58:16.712Z</time>
      </trkpt>
      <trkpt lat="37.39206" lon="-3.04654">
        <ele>1137.008228</ele>
        <time>2022-02-24T18:58:24.818Z</time>
      </trkpt>
      <trkpt lat="37.39182" lon="-3.0466">
        <ele>1136.416811</ele>
        <time>2022-02-24T18:58:33.285Z</time>
      </trkpt>
      <trkpt lat="37.39121" lon="-3.04572">
        <ele>1136.229206</ele>
        <time>2022-02-24T18:59:06.719Z</time>
      </trkpt>
      <trkpt lat="37.38931" lon="-3.04542">
        <ele>1136.203815</ele>
        <time>2022-02-24T19:00:21.620Z</time>
      </trkpt>
      <trkpt lat="37.38863" lon="-3.04608">
        <ele>1136.23392</ele>
        <time>2022-02-24T19:00:52.683Z</time>
      </trkpt>
      <trkpt lat="37.38795" lon="-3.04692">
        <ele>1135.762748</ele>
        <time>2022-02-24T19:01:26.314Z</time>
      </trkpt>
      <trkpt lat="37.38136" lon="-3.05533">
        <ele>1132.206526</ele>
        <time>2022-02-24T19:07:03.212Z</time>
      </trkpt>
      <trkpt lat="37.38098" lon="-3.05592">
        <ele>1132.348538</ele>
        <time>2022-02-24T19:07:27.508Z</time>
      </trkpt>
      <trkpt lat="37.38095" lon="-3.05582">
        <ele>1132.427044</ele>
        <time>2022-02-24T19:07:30.949Z</time>
      </trkpt>
      <trkpt lat="37.38074" lon="-3.05542">
        <ele>1132.773085</ele>
        <time>2022-02-24T19:07:41.424Z</time>
      </trkpt>
      <trkpt lat="37.38069" lon="-3.05531">
        <ele>1132.863957</ele>
        <time>2022-02-24T19:07:45.661Z</time>
      </trkpt>
      <trkpt lat="37.38061" lon="-3.05533">
        <ele>1132.933089</ele>
        <time>2022-02-24T19:07:49.106Z</time>
      </trkpt>
      <trkpt lat="37.38055" lon="-3.05557">
        <ele>1133.119955</ele>
        <time>2022-02-24T19:07:57.482Z</time>
      </trkpt>
      <trkpt lat="37.37986" lon="-3.05655">
        <ele>1133.997326</ele>
        <time>2022-02-24T19:08:42.171Z</time>
      </trkpt>
      <trkpt lat="37.37727" lon="-3.05987">
        <ele>1136.145697</ele>
        <time>2022-02-24T19:11:09.212Z</time>
      </trkpt>
      <trkpt lat="37.37725" lon="-3.05994">
        <ele>1136.173555</ele>
        <time>2022-02-24T19:11:11.624Z</time>
      </trkpt>
      <trkpt lat="37.37728" lon="-3.05997">
        <ele>1136.19221</ele>
        <time>2022-02-24T19:11:13.058Z</time>
      </trkpt>
      <trkpt lat="37.37505" lon="-3.06286">
        <ele>1137.60723</ele>
        <time>2022-02-24T19:12:31.203Z</time>
      </trkpt>
      <trkpt lat="37.37499" lon="-3.06295">
        <ele>1137.668435</ele>
        <time>2022-02-24T19:12:33.403Z</time>
      </trkpt>
      <trkpt lat="37.37493" lon="-3.06303">
        <ele>1137.725954</ele>
        <time>2022-02-24T19:12:35.405Z</time>
      </trkpt>
      <trkpt lat="37.37486" lon="-3.06311">
        <ele>1137.786987</ele>
        <time>2022-02-24T19:12:37.656Z</time>
      </trkpt>
      <trkpt lat="37.37453" lon="-3.06354">
        <ele>1138.104134</ele>
        <time>2022-02-24T19:12:49.622Z</time>
      </trkpt>
      <trkpt lat="37.37443" lon="-3.06366">
        <ele>1138.194522</ele>
        <time>2022-02-24T19:12:52.774Z</time>
      </trkpt>
      <trkpt lat="37.37439" lon="-3.06365">
        <ele>1138.224228</ele>
        <time>2022-02-24T19:12:53.968Z</time>
      </trkpt>
      <trkpt lat="37.37429" lon="-3.06368">
        <ele>1138.287277</ele>
        <time>2022-02-24T19:12:56.404Z</time>
      </trkpt>
      <trkpt lat="37.37425" lon="-3.0636">
        <ele>1138.334221</ele>
        <time>2022-02-24T19:12:58.431Z</time>
      </trkpt>
      <trkpt lat="37.37398" lon="-3.06378">
        <ele>1138.53662</ele>
        <time>2022-02-24T19:13:06.414Z</time>
      </trkpt>
      <trkpt lat="37.37365" lon="-3.06375">
        <ele>1138.798091</ele>
        <time>2022-02-24T19:13:15.703Z</time>
      </trkpt>
      <trkpt lat="37.37333" lon="-3.06372">
        <ele>1139.3542</ele>
        <time>2022-02-24T19:13:25.385Z</time>
      </trkpt>
      <trkpt lat="37.373" lon="-3.0638">
        <ele>1139.935097</ele>
        <time>2022-02-24T19:13:36.101Z</time>
      </trkpt>
      <trkpt lat="37.37272" lon="-3.06399">
        <ele>1140.489525</ele>
        <time>2022-02-24T19:13:46.849Z</time>
      </trkpt>
      <trkpt lat="37.37247" lon="-3.06413">
        <ele>1140.978018</ele>
        <time>2022-02-24T19:13:56.220Z</time>
      </trkpt>
      <trkpt lat="37.37198" lon="-3.06407">
        <ele>1141.837215</ele>
        <time>2022-02-24T19:14:12.310Z</time>
      </trkpt>
      <trkpt lat="37.37162" lon="-3.06405">
        <ele>1142.673873</ele>
        <time>2022-02-24T19:14:24.051Z</time>
      </trkpt>
      <trkpt lat="37.37116" lon="-3.064">
        <ele>1143.757756</ele>
        <time>2022-02-24T19:14:39.646Z</time>
      </trkpt>
      <trkpt lat="37.37068" lon="-3.06392">
        <ele>1144.908785</ele>
        <time>2022-02-24T19:14:57.023Z</time>
      </trkpt>
      <trkpt lat="37.37042" lon="-3.06392">
        <ele>1145.51989</ele>
        <time>2022-02-24T19:15:07.001Z</time>
      </trkpt>
      <trkpt lat="37.36971" lon="-3.06323">
        <ele>1147.865305</ele>
        <time>2022-02-24T19:15:39.042Z</time>
      </trkpt>
      <trkpt lat="37.36938" lon="-3.06282">
        <ele>1149.121023</ele>
        <time>2022-02-24T19:15:56.377Z</time>
      </trkpt>
      <trkpt lat="37.36887" lon="-3.06204">
        <ele>1151.252866</ele>
        <time>2022-02-24T19:16:26.247Z</time>
      </trkpt>
      <trkpt lat="37.3687" lon="-3.06189">
        <ele>1151.748067</ele>
        <time>2022-02-24T19:16:33.937Z</time>
      </trkpt>
      <trkpt lat="37.36765" lon="-3.06162">
        <ele>1154.326478</ele>
        <time>2022-02-24T19:17:10.648Z</time>
      </trkpt>
      <trkpt lat="37.36689" lon="-3.06119">
        <ele>1156.42303</ele>
        <time>2022-02-24T19:17:39.922Z</time>
      </trkpt>
      <trkpt lat="37.36632" lon="-3.06097">
        <ele>1157.939413</ele>
        <time>2022-02-24T19:18:02.130Z</time>
      </trkpt>
      <trkpt lat="37.36486" lon="-3.06074">
        <ele>1161.019862</ele>
        <time>2022-02-24T19:18:54.732Z</time>
      </trkpt>
      <trkpt lat="37.36353" lon="-3.06049">
        <ele>1162.758535</ele>
        <time>2022-02-24T19:19:33.258Z</time>
      </trkpt>
      <trkpt lat="37.36314" lon="-3.06037">
        <ele>1162.784113</ele>
        <time>2022-02-24T19:19:42.586Z</time>
      </trkpt>
      <trkpt lat="37.36219" lon="-3.05969">
        <ele>1162.853812</ele>
        <time>2022-02-24T19:20:07.383Z</time>
      </trkpt>
      <trkpt lat="37.36188" lon="-3.05963">
        <ele>1162.732474</ele>
        <time>2022-02-24T19:20:14.264Z</time>
      </trkpt>
      <trkpt lat="37.36142" lon="-3.05967">
        <ele>1162.501861</ele>
        <time>2022-02-24T19:20:24.528Z</time>
      </trkpt>
      <trkpt lat="37.36" lon="-3.06019">
        <ele>1161.942055</ele>
        <time>2022-02-24T19:20:56.318Z</time>
      </trkpt>
      <trkpt lat="37.35962" lon="-3.06026">
        <ele>1161.918487</ele>
        <time>2022-02-24T19:21:04.858Z</time>
      </trkpt>
      <trkpt lat="37.35924" lon="-3.06018">
        <ele>1161.895418</ele>
        <time>2022-02-24T19:21:13.574Z</time>
      </trkpt>
      <trkpt lat="37.35848" lon="-3.05985">
        <ele>1161.97662</ele>
        <time>2022-02-24T19:21:33.675Z</time>
      </trkpt>
      <trkpt lat="37.35825" lon="-3.05992">
        <ele>1162.145291</ele>
        <time>2022-02-24T19:21:39.927Z</time>
      </trkpt>
      <trkpt lat="37.35785" lon="-3.06018">
        <ele>1162.468213</ele>
        <time>2022-02-24T19:21:52.304Z</time>
      </trkpt>
      <trkpt lat="37.35767" lon="-3.06014">
        <ele>1162.603552</ele>
        <time>2022-02-24T19:21:57.719Z</time>
      </trkpt>
      <trkpt lat="37.35679" lon="-3.05932">
        <ele>1162.658831</ele>
        <time>2022-02-24T19:22:27.748Z</time>
      </trkpt>
      <trkpt lat="37.35652" lon="-3.05914">
        <ele>1162.188291</ele>
        <time>2022-02-24T19:22:34.651Z</time>
      </trkpt>
      <trkpt lat="37.3562" lon="-3.05904">
        <ele>1161.701317</ele>
        <time>2022-02-24T19:22:41.305Z</time>
      </trkpt>
      <trkpt lat="37.35587" lon="-3.05904">
        <ele>1161.199994</ele>
        <time>2022-02-24T19:22:47.811Z</time>
      </trkpt>
      <trkpt lat="37.35299" lon="-3.05977">
        <ele>1151.746093</ele>
        <time>2022-02-24T19:23:38.768Z</time>
      </trkpt>
      <trkpt lat="37.35232" lon="-3.06007">
        <ele>1149.763843</ele>
        <time>2022-02-24T19:23:51.826Z</time>
      </trkpt>
      <trkpt lat="37.3485" lon="-3.06241">
        <ele>1143.289708</ele>
        <time>2022-02-24T19:25:16.827Z</time>
      </trkpt>
      <trkpt lat="37.34815" lon="-3.06249">
        <ele>1143.227555</ele>
        <time>2022-02-24T19:25:24.468Z</time>
      </trkpt>
      <trkpt lat="37.34785" lon="-3.06242">
        <ele>1143.172077</ele>
        <time>2022-02-24T19:25:31.464Z</time>
      </trkpt>
      <trkpt lat="37.34632" lon="-3.06173">
        <ele>1143.821202</ele>
        <time>2022-02-24T19:26:12.338Z</time>
      </trkpt>
      <trkpt lat="37.34616" lon="-3.06173">
        <ele>1144.001389</ele>
        <time>2022-02-24T19:26:16.671Z</time>
      </trkpt>
      <trkpt lat="37.34566" lon="-3.06188">
        <ele>1144.606535</ele>
        <time>2022-02-24T19:26:32.133Z</time>
      </trkpt>
      <trkpt lat="37.34539" lon="-3.06181">
        <ele>1144.93946</ele>
        <time>2022-02-24T19:26:40.969Z</time>
      </trkpt>
      <trkpt lat="37.3453" lon="-3.06177">
        <ele>1145.046276</ele>
        <time>2022-02-24T19:26:44.014Z</time>
      </trkpt>
      <trkpt lat="37.34216" lon="-3.05962">
        <ele>1153.079448</ele>
        <time>2022-02-24T19:28:50.706Z</time>
      </trkpt>
      <trkpt lat="37.34129" lon="-3.05866">
        <ele>1153.273197</ele>
        <time>2022-02-24T19:29:20.278Z</time>
      </trkpt>
      <trkpt lat="37.34118" lon="-3.05861">
        <ele>1153.274259</ele>
        <time>2022-02-24T19:29:22.908Z</time>
      </trkpt>
      <trkpt lat="37.34103" lon="-3.05864">
        <ele>1153.275556</ele>
        <time>2022-02-24T19:29:26.053Z</time>
      </trkpt>
      <trkpt lat="37.34046" lon="-3.05905">
        <ele>1152.952934</ele>
        <time>2022-02-24T19:29:39.419Z</time>
      </trkpt>
      <trkpt lat="37.34023" lon="-3.05934">
        <ele>1152.414886</ele>
        <time>2022-02-24T19:29:45.851Z</time>
      </trkpt>
      <trkpt lat="37.3393" lon="-3.06139">
        <ele>1149.812959</ele>
        <time>2022-02-24T19:30:22.477Z</time>
      </trkpt>
      <trkpt lat="37.33906" lon="-3.0617">
        <ele>1149.533097</ele>
        <time>2022-02-24T19:30:29.485Z</time>
      </trkpt>
      <trkpt lat="37.33881" lon="-3.06191">
        <ele>1149.289031</ele>
        <time>2022-02-24T19:30:35.820Z</time>
      </trkpt>
      <trkpt lat="37.33849" lon="-3.06204">
        <ele>1149.006902</ele>
        <time>2022-02-24T19:30:43.339Z</time>
      </trkpt>
      <trkpt lat="37.33734" lon="-3.06229">
        <ele>1150.798139</ele>
        <time>2022-02-24T19:31:15.962Z</time>
      </trkpt>
      <trkpt lat="37.33672" lon="-3.06233">
        <ele>1152.078385</ele>
        <time>2022-02-24T19:31:39.450Z</time>
      </trkpt>
      <trkpt lat="37.33454" lon="-3.06147">
        <ele>1160.462249</ele>
        <time>2022-02-24T19:33:21.466Z</time>
      </trkpt>
      <trkpt lat="37.33297" lon="-3.06128">
        <ele>1164.181366</ele>
        <time>2022-02-24T19:34:14.495Z</time>
      </trkpt>
      <trkpt lat="37.33196" lon="-3.06075">
        <ele>1164.33295</ele>
        <time>2022-02-24T19:34:44.950Z</time>
      </trkpt>
      <trkpt lat="37.33169" lon="-3.06068">
        <ele>1164.370556</ele>
        <time>2022-02-24T19:34:51.051Z</time>
      </trkpt>
      <trkpt lat="37.33085" lon="-3.06081">
        <ele>1162.592321</ele>
        <time>2022-02-24T19:35:07.560Z</time>
      </trkpt>
      <trkpt lat="37.32975" lon="-3.06103">
        <ele>1158.143504</ele>
        <time>2022-02-24T19:35:26.259Z</time>
      </trkpt>
      <trkpt lat="37.32921" lon="-3.06104">
        <ele>1155.996844</ele>
        <time>2022-02-24T19:35:34.934Z</time>
      </trkpt>
      <trkpt lat="37.32853" lon="-3.06083">
        <ele>1153.159346</ele>
        <time>2022-02-24T19:35:46.704Z</time>
      </trkpt>
      <trkpt lat="37.32832" lon="-3.06102">
        <ele>1152.142346</ele>
        <time>2022-02-24T19:35:51.109Z</time>
      </trkpt>
      <trkpt lat="37.32801" lon="-3.06117">
        <ele>1150.82026</ele>
        <time>2022-02-24T19:35:57.053Z</time>
      </trkpt>
      <trkpt lat="37.32728" lon="-3.06091">
        <ele>1149.795231</ele>
        <time>2022-02-24T19:36:12.222Z</time>
      </trkpt>
      <trkpt lat="37.32668" lon="-3.06051">
        <ele>1149.547784</ele>
        <time>2022-02-24T19:36:27.594Z</time>
      </trkpt>
      <trkpt lat="37.32627" lon="-3.05991">
        <ele>1149.476083</ele>
        <time>2022-02-24T19:36:44.327Z</time>
      </trkpt>
      <trkpt lat="37.32611" lon="-3.05974">
        <ele>1149.903931</ele>
        <time>2022-02-24T19:36:50.543Z</time>
      </trkpt>
      <trkpt lat="37.32596" lon="-3.0597">
        <ele>1150.208035</ele>
        <time>2022-02-24T19:36:54.982Z</time>
      </trkpt>
      <trkpt lat="37.31993" lon="-3.05958">
        <ele>1161.266751</ele>
        <time>2022-02-24T19:40:19.057Z</time>
      </trkpt>
      <trkpt lat="37.31947" lon="-3.05955">
        <ele>1161.716124</ele>
        <time>2022-02-24T19:40:29.220Z</time>
      </trkpt>
      <trkpt lat="37.31912" lon="-3.05975">
        <ele>1161.864715</ele>
        <time>2022-02-24T19:40:37.420Z</time>
      </trkpt>
      <trkpt lat="37.3168" lon="-3.06251">
        <ele>1157.769205</ele>
        <time>2022-02-24T19:41:42.021Z</time>
      </trkpt>
      <trkpt lat="37.31662" lon="-3.06264">
        <ele>1157.486317</ele>
        <time>2022-02-24T19:41:46.067Z</time>
      </trkpt>
      <trkpt lat="37.31643" lon="-3.06271">
        <ele>1157.156672</ele>
        <time>2022-02-24T19:41:50.162Z</time>
      </trkpt>
      <trkpt lat="37.31623" lon="-3.06265">
        <ele>1156.793614</ele>
        <time>2022-02-24T19:41:53.977Z</time>
      </trkpt>
      <trkpt lat="37.31606" lon="-3.06253">
        <ele>1156.443439</ele>
        <time>2022-02-24T19:41:57.665Z</time>
      </trkpt>
      <trkpt lat="37.31526" lon="-3.06168">
        <ele>1154.541898</ele>
        <time>2022-02-24T19:42:18.011Z</time>
      </trkpt>
      <trkpt lat="37.3149" lon="-3.06128">
        <ele>1153.807786</ele>
        <time>2022-02-24T19:42:27.478Z</time>
      </trkpt>
      <trkpt lat="37.31445" lon="-3.06133">
        <ele>1153.279521</ele>
        <time>2022-02-24T19:42:36.369Z</time>
      </trkpt>
      <trkpt lat="37.30604" lon="-3.06558">
        <ele>1142.34023</ele>
        <time>2022-02-24T19:45:42.802Z</time>
      </trkpt>
      <trkpt lat="37.30571" lon="-3.06568">
        <ele>1141.755718</ele>
        <time>2022-02-24T19:45:49.433Z</time>
      </trkpt>
      <trkpt lat="37.30539" lon="-3.0657">
        <ele>1141.194825</ele>
        <time>2022-02-24T19:45:55.731Z</time>
      </trkpt>
      <trkpt lat="37.30192" lon="-3.06512">
        <ele>1133.449927</ele>
        <time>2022-02-24T19:47:00.288Z</time>
      </trkpt>
      <trkpt lat="37.2981" lon="-3.06506">
        <ele>1133.243012</ele>
        <time>2022-02-24T19:48:30.756Z</time>
      </trkpt>
      <trkpt lat="37.29789" lon="-3.06501">
        <ele>1133.335878</ele>
        <time>2022-02-24T19:48:37.559Z</time>
      </trkpt>
      <trkpt lat="37.29681" lon="-3.06437">
        <ele>1135.489609</ele>
        <time>2022-02-24T19:49:15.910Z</time>
      </trkpt>
      <trkpt lat="37.29586" lon="-3.06408">
        <ele>1137.692183</ele>
        <time>2022-02-24T19:49:49.099Z</time>
      </trkpt>
      <trkpt lat="37.29567" lon="-3.06398">
        <ele>1138.33624</ele>
        <time>2022-02-24T19:49:56.495Z</time>
      </trkpt>
      <trkpt lat="37.29548" lon="-3.06373">
        <ele>1139.171853</ele>
        <time>2022-02-24T19:50:06.525Z</time>
      </trkpt>
      <trkpt lat="37.29538" lon="-3.06344">
        <ele>1139.925849</ele>
        <time>2022-02-24T19:50:15.955Z</time>
      </trkpt>
      <trkpt lat="37.29566" lon="-3.06209">
        <ele>1143.558576</ele>
        <time>2022-02-24T19:51:02.864Z</time>
      </trkpt>
      <trkpt lat="37.29596" lon="-3.06105">
        <ele>1146.869483</ele>
        <time>2022-02-24T19:51:40.993Z</time>
      </trkpt>
      <trkpt lat="37.29659" lon="-3.05984">
        <ele>1150.586104</ele>
        <time>2022-02-24T19:52:27.177Z</time>
      </trkpt>
      <trkpt lat="37.29703" lon="-3.05861">
        <ele>1153.575223</ele>
        <time>2022-02-24T19:53:05.092Z</time>
      </trkpt>
      <trkpt lat="37.29835" lon="-3.05531">
        <ele>1159.567882</ele>
        <time>2022-02-24T19:54:49.706Z</time>
      </trkpt>
      <trkpt lat="37.29865" lon="-3.054">
        <ele>1159.892611</ele>
        <time>2022-02-24T19:55:13.923Z</time>
      </trkpt>
      <trkpt lat="37.29863" lon="-3.05375">
        <ele>1159.51006</ele>
        <time>2022-02-24T19:55:17.802Z</time>
      </trkpt>
      <trkpt lat="37.29705" lon="-3.05326">
        <ele>1156.218628</ele>
        <time>2022-02-24T19:55:48.127Z</time>
      </trkpt>
      <trkpt lat="37.29605" lon="-3.05259">
        <ele>1153.513292</ele>
        <time>2022-02-24T19:56:09.101Z</time>
      </trkpt>
      <trkpt lat="37.29589" lon="-3.05258">
        <ele>1153.117562</ele>
        <time>2022-02-24T19:56:12.300Z</time>
      </trkpt>
      <trkpt lat="37.29575" lon="-3.0527">
        <ele>1152.712665</ele>
        <time>2022-02-24T19:56:15.418Z</time>
      </trkpt>
      <trkpt lat="37.29474" lon="-3.05427">
        <ele>1149.667334</ele>
        <time>2022-02-24T19:56:46.520Z</time>
      </trkpt>
      <trkpt lat="37.29446" lon="-3.05451">
        <ele>1149.079182</ele>
        <time>2022-02-24T19:56:53.190Z</time>
      </trkpt>
      <trkpt lat="37.29365" lon="-3.05506">
        <ele>1147.650056</ele>
        <time>2022-02-24T19:57:11.694Z</time>
      </trkpt>
      <trkpt lat="37.29307" lon="-3.05574">
        <ele>1146.355494</ele>
        <time>2022-02-24T19:57:27.553Z</time>
      </trkpt>
      <trkpt lat="37.29238" lon="-3.05614">
        <ele>1144.532657</ele>
        <time>2022-02-24T19:57:41.994Z</time>
      </trkpt>
      <trkpt lat="37.29198" lon="-3.05627">
        <ele>1143.538078</ele>
        <time>2022-02-24T19:57:49.635Z</time>
      </trkpt>
      <trkpt lat="37.29079" lon="-3.05643">
        <ele>1140.312733</ele>
        <time>2022-02-24T19:58:11.475Z</time>
      </trkpt>
      <trkpt lat="37.29057" lon="-3.05657">
        <ele>1139.571709</ele>
        <time>2022-02-24T19:58:15.978Z</time>
      </trkpt>
      <trkpt lat="37.29007" lon="-3.05728">
        <ele>1137.350083</ele>
        <time>2022-02-24T19:58:29.546Z</time>
      </trkpt>
      <trkpt lat="37.28949" lon="-3.05798">
        <ele>1134.826794</ele>
        <time>2022-02-24T19:58:44.141Z</time>
      </trkpt>
      <trkpt lat="37.28664" lon="-3.0594">
        <ele>1125.026463</ele>
        <time>2022-02-24T19:59:38.918Z</time>
      </trkpt>
      <trkpt lat="37.28607" lon="-3.05966">
        <ele>1123.107571</ele>
        <time>2022-02-24T19:59:49.839Z</time>
      </trkpt>
      <trkpt lat="37.28424" lon="-3.06013">
        <ele>1117.192616</ele>
        <time>2022-02-24T20:00:23.490Z</time>
      </trkpt>
      <trkpt lat="37.28405" lon="-3.06022">
        <ele>1116.545165</ele>
        <time>2022-02-24T20:00:27.160Z</time>
      </trkpt>
      <trkpt lat="37.28293" lon="-3.06138">
        <ele>1112.166497</ele>
        <time>2022-02-24T20:00:53.115Z</time>
      </trkpt>
      <trkpt lat="37.28194" lon="-3.06193">
        <ele>1109.097674</ele>
        <time>2022-02-24T20:01:13.015Z</time>
      </trkpt>
      <trkpt lat="37.28062" lon="-3.06307">
        <ele>1104.517846</ele>
        <time>2022-02-24T20:01:42.680Z</time>
      </trkpt>
      <trkpt lat="37.27903" lon="-3.06407">
        <ele>1098.679744</ele>
        <time>2022-02-24T20:02:14.045Z</time>
      </trkpt>
      <trkpt lat="37.27796" lon="-3.06518">
        <ele>1094.600358</ele>
        <time>2022-02-24T20:02:39.192Z</time>
      </trkpt>
      <trkpt lat="37.27745" lon="-3.06559">
        <ele>1092.896053</ele>
        <time>2022-02-24T20:02:50.433Z</time>
      </trkpt>
      <trkpt lat="37.2766" lon="-3.066">
        <ele>1090.196915</ele>
        <time>2022-02-24T20:03:07.240Z</time>
      </trkpt>
      <trkpt lat="37.27618" lon="-3.06625">
        <ele>1088.813793</ele>
        <time>2022-02-24T20:03:15.580Z</time>
      </trkpt>
      <trkpt lat="37.27591" lon="-3.06655">
        <ele>1087.734788</ele>
        <time>2022-02-24T20:03:22.028Z</time>
      </trkpt>
      <trkpt lat="37.27436" lon="-3.0688">
        <ele>1080.43635</ele>
        <time>2022-02-24T20:04:04.102Z</time>
      </trkpt>
      <trkpt lat="37.27406" lon="-3.06916">
        <ele>1079.537044</ele>
        <time>2022-02-24T20:04:11.939Z</time>
      </trkpt>
      <trkpt lat="37.27326" lon="-3.06983">
        <ele>1077.435258</ele>
        <time>2022-02-24T20:04:31.070Z</time>
      </trkpt>
      <trkpt lat="37.27292" lon="-3.0702">
        <ele>1076.357726</ele>
        <time>2022-02-24T20:04:40.002Z</time>
      </trkpt>
      <trkpt lat="37.27267" lon="-3.07062">
        <ele>1075.338723</ele>
        <time>2022-02-24T20:04:48.321Z</time>
      </trkpt>
      <trkpt lat="37.27248" lon="-3.07106">
        <ele>1074.37365</ele>
        <time>2022-02-24T20:04:55.942Z</time>
      </trkpt>
      <trkpt lat="37.27201" lon="-3.07247">
        <ele>1069.35008</ele>
        <time>2022-02-24T20:05:16.994Z</time>
      </trkpt>
      <trkpt lat="37.27185" lon="-3.07265">
        <ele>1068.165567</ele>
        <time>2022-02-24T20:05:20.460Z</time>
      </trkpt>
      <trkpt lat="37.27089" lon="-3.07339">
        <ele>1061.698315</ele>
        <time>2022-02-24T20:05:38.396Z</time>
      </trkpt>
      <trkpt lat="37.27054" lon="-3.07366">
        <ele>1059.056812</ele>
        <time>2022-02-24T20:05:44.766Z</time>
      </trkpt>
      <trkpt lat="37.26986" lon="-3.07422">
        <ele>1053.751527</ele>
        <time>2022-02-24T20:05:57.654Z</time>
      </trkpt>
      <trkpt lat="37.26875" lon="-3.07525">
        <ele>1047.817659</ele>
        <time>2022-02-24T20:06:20.279Z</time>
      </trkpt>
      <trkpt lat="37.26697" lon="-3.07647">
        <ele>1046.061595</ele>
        <time>2022-02-24T20:07:01.791Z</time>
      </trkpt>
      <trkpt lat="37.2668" lon="-3.0766">
        <ele>1046.232833</ele>
        <time>2022-02-24T20:07:09.990Z</time>
      </trkpt>
      <trkpt lat="37.26671" lon="-3.07668">
        <ele>1046.326214</ele>
        <time>2022-02-24T20:07:14.393Z</time>
      </trkpt>
      <trkpt lat="37.26665" lon="-3.07674">
        <ele>1046.386895</ele>
        <time>2022-02-24T20:07:17.490Z</time>
      </trkpt>
      <trkpt lat="37.26485" lon="-3.07851">
        <ele>1058.378783</ele>
        <time>2022-02-24T20:09:20.842Z</time>
      </trkpt>
      <trkpt lat="37.26404" lon="-3.07915">
        <ele>1062.830961</ele>
        <time>2022-02-24T20:10:05.235Z</time>
      </trkpt>
      <trkpt lat="37.26381" lon="-3.07942">
        <ele>1064.299126</ele>
        <time>2022-02-24T20:10:18.652Z</time>
      </trkpt>
      <trkpt lat="37.26356" lon="-3.07996">
        <ele>1066.236228</ele>
        <time>2022-02-24T20:10:38.824Z</time>
      </trkpt>
      <trkpt lat="37.26336" lon="-3.08082">
        <ele>1068.626463</ele>
        <time>2022-02-24T20:11:07.652Z</time>
      </trkpt>
      <trkpt lat="37.26327" lon="-3.08153">
        <ele>1070.537322</ele>
        <time>2022-02-24T20:11:31.062Z</time>
      </trkpt>
      <trkpt lat="37.2628" lon="-3.08309">
        <ele>1073.39573</ele>
        <time>2022-02-24T20:12:19.042Z</time>
      </trkpt>
      <trkpt lat="37.26248" lon="-3.08377">
        <ele>1074.59183</ele>
        <time>2022-02-24T20:12:36.497Z</time>
      </trkpt>
      <trkpt lat="37.26236" lon="-3.08409">
        <ele>1074.669662</ele>
        <time>2022-02-24T20:12:43.623Z</time>
      </trkpt>
      <trkpt lat="37.26225" lon="-3.08455">
        <ele>1074.547321</ele>
        <time>2022-02-24T20:12:52.352Z</time>
      </trkpt>
      <trkpt lat="37.26221" lon="-3.08494">
        <ele>1074.447504</ele>
        <time>2022-02-24T20:12:59.109Z</time>
      </trkpt>
      <trkpt lat="37.26221" lon="-3.08547">
        <ele>1074.312346</ele>
        <time>2022-02-24T20:13:08.318Z</time>
      </trkpt>
      <trkpt lat="37.2622" lon="-3.08554">
        <ele>1074.294381</ele>
        <time>2022-02-24T20:13:09.443Z</time>
      </trkpt>
      <trkpt lat="37.26224" lon="-3.08588">
        <ele>1074.205216</ele>
        <time>2022-02-24T20:13:14.978Z</time>
      </trkpt>
      <trkpt lat="37.26235" lon="-3.08608">
        <ele>1074.043109</ele>
        <time>2022-02-24T20:13:18.703Z</time>
      </trkpt>
      <trkpt lat="37.26237" lon="-3.08622">
        <ele>1073.789003</ele>
        <time>2022-02-24T20:13:20.864Z</time>
      </trkpt>
      <trkpt lat="37.26232" lon="-3.08637">
        <ele>1073.488235</ele>
        <time>2022-02-24T20:13:23.369Z</time>
      </trkpt>
      <trkpt lat="37.26216" lon="-3.08651">
        <ele>1073.047688</ele>
        <time>2022-02-24T20:13:27.016Z</time>
      </trkpt>
      <trkpt lat="37.26213" lon="-3.08651">
        <ele>1072.995515</ele>
        <time>2022-02-24T20:13:27.453Z</time>
      </trkpt>
      <trkpt lat="37.26196" lon="-3.08697">
        <ele>1072.085351</ele>
        <time>2022-02-24T20:13:35.212Z</time>
      </trkpt>
      <trkpt lat="37.26159" lon="-3.08841">
        <ele>1068.702657</ele>
        <time>2022-02-24T20:13:57.404Z</time>
      </trkpt>
      <trkpt lat="37.26157" lon="-3.08944">
        <ele>1065.215583</ele>
        <time>2022-02-24T20:14:11.294Z</time>
      </trkpt>
      <trkpt lat="37.26144" lon="-3.09011">
        <ele>1062.849547</ele>
        <time>2022-02-24T20:14:20.585Z</time>
      </trkpt>
      <trkpt lat="37.26004" lon="-3.09379">
        <ele>1043.806524</ele>
        <time>2022-02-24T20:15:13.265Z</time>
      </trkpt>
      <trkpt lat="37.25946" lon="-3.0948">
        <ele>1037.311186</ele>
        <time>2022-02-24T20:15:28.700Z</time>
      </trkpt>
      <trkpt lat="37.2594" lon="-3.09502">
        <ele>1036.00458</ele>
        <time>2022-02-24T20:15:31.616Z</time>
      </trkpt>
      <trkpt lat="37.25921" lon="-3.09588">
        <ele>1031.15646</ele>
        <time>2022-02-24T20:15:42.635Z</time>
      </trkpt>
      <trkpt lat="37.25889" lon="-3.09646">
        <ele>1028.045668</ele>
        <time>2022-02-24T20:15:51.917Z</time>
      </trkpt>
      <trkpt lat="37.25869" lon="-3.09672">
        <ele>1027.220304</ele>
        <time>2022-02-24T20:15:56.596Z</time>
      </trkpt>
      <trkpt lat="37.25851" lon="-3.09699">
        <ele>1026.419141</ele>
        <time>2022-02-24T20:16:01.456Z</time>
      </trkpt>
      <trkpt lat="37.2585" lon="-3.09704">
        <ele>1026.290032</ele>
        <time>2022-02-24T20:16:02.213Z</time>
      </trkpt>
      <trkpt lat="37.2584" lon="-3.09701">
        <ele>1025.990675</ele>
        <time>2022-02-24T20:16:04.344Z</time>
      </trkpt>
      <trkpt lat="37.25808" lon="-3.09738">
        <ele>1024.755544</ele>
        <time>2022-02-24T20:16:12.642Z</time>
      </trkpt>
      <trkpt lat="37.25777" lon="-3.09778">
        <ele>1023.466417</ele>
        <time>2022-02-24T20:16:22.651Z</time>
      </trkpt>
      <trkpt lat="37.25766" lon="-3.09781">
        <ele>1023.241654</ele>
        <time>2022-02-24T20:16:25.073Z</time>
      </trkpt>
      <trkpt lat="37.25761" lon="-3.09779">
        <ele>1023.145941</ele>
        <time>2022-02-24T20:16:26.308Z</time>
      </trkpt>
      <trkpt lat="37.25731" lon="-3.09771">
        <ele>1022.578539</ele>
        <time>2022-02-24T20:16:33.181Z</time>
      </trkpt>
      <trkpt lat="37.25709" lon="-3.0974">
        <ele>1021.966022</ele>
        <time>2022-02-24T20:16:40.525Z</time>
      </trkpt>
      <trkpt lat="37.25691" lon="-3.09745">
        <ele>1021.631799</ele>
        <time>2022-02-24T20:16:43.950Z</time>
      </trkpt>
      <trkpt lat="37.25687" lon="-3.09745">
        <ele>1021.548593</ele>
        <time>2022-02-24T20:16:45.004Z</time>
      </trkpt>
      <trkpt lat="37.25677" lon="-3.0972">
        <ele>1021.138826</ele>
        <time>2022-02-24T20:16:49.159Z</time>
      </trkpt>
      <trkpt lat="37.25647" lon="-3.09726">
        <ele>1020.57334</ele>
        <time>2022-02-24T20:16:54.654Z</time>
      </trkpt>
      <trkpt lat="37.25649" lon="-3.09742">
        <ele>1020.344027</ele>
        <time>2022-02-24T20:16:56.718Z</time>
      </trkpt>
      <trkpt lat="37.2563" lon="-3.09761">
        <ele>1019.7133</ele>
        <time>2022-02-24T20:17:01.215Z</time>
      </trkpt>
      <trkpt lat="37.25605" lon="-3.09761">
        <ele>1018.853507</ele>
        <time>2022-02-24T20:17:05.544Z</time>
      </trkpt>
      <trkpt lat="37.2559" lon="-3.09756">
        <ele>1018.306989</ele>
        <time>2022-02-24T20:17:08.260Z</time>
      </trkpt>
      <trkpt lat="37.25564" lon="-3.0975">
        <ele>1017.414637</ele>
        <time>2022-02-24T20:17:12.732Z</time>
      </trkpt>
      <trkpt lat="37.25557" lon="-3.09759">
        <ele>1017.077466</ele>
        <time>2022-02-24T20:17:14.406Z</time>
      </trkpt>
      <trkpt lat="37.2555" lon="-3.09772">
        <ele>1016.645609</ele>
        <time>2022-02-24T20:17:16.504Z</time>
      </trkpt>
      <trkpt lat="37.25526" lon="-3.09793">
        <ele>1015.624007</ele>
        <time>2022-02-24T20:17:21.587Z</time>
      </trkpt>
      <trkpt lat="37.25479" lon="-3.09767">
        <ele>1013.952487</ele>
        <time>2022-02-24T20:17:30.544Z</time>
      </trkpt>
      <trkpt lat="37.2547" lon="-3.09762">
        <ele>1013.956233</ele>
        <time>2022-02-24T20:17:32.423Z</time>
      </trkpt>
      <trkpt lat="37.25433" lon="-3.09741">
        <ele>1013.971058</ele>
        <time>2022-02-24T20:17:40.375Z</time>
      </trkpt>
      <trkpt lat="37.25342" lon="-3.09689">
        <ele>1014.007924</ele>
        <time>2022-02-24T20:18:07.018Z</time>
      </trkpt>
      <trkpt lat="37.25268" lon="-3.09648">
        <ele>1014.713888</ele>
        <time>2022-02-24T20:18:29.763Z</time>
      </trkpt>
      <trkpt lat="37.25181" lon="-3.09599">
        <ele>1015.94205</ele>
        <time>2022-02-24T20:18:55.440Z</time>
      </trkpt>
      <trkpt lat="37.24804" lon="-3.09386">
        <ele>1025.315219</ele>
        <time>2022-02-24T20:21:14.706Z</time>
      </trkpt>
      <trkpt lat="37.24373" lon="-3.09216">
        <ele>1039.508742</ele>
        <time>2022-02-24T20:24:08.583Z</time>
      </trkpt>
      <trkpt lat="37.23717" lon="-3.08955">
        <ele>1059.53983</ele>
        <time>2022-02-24T20:28:18.669Z</time>
      </trkpt>
      <trkpt lat="37.23673" lon="-3.08918">
        <ele>1061.358862</ele>
        <time>2022-02-24T20:28:39.378Z</time>
      </trkpt>
      <trkpt lat="37.23297" lon="-3.08541">
        <ele>1081.717274</ele>
        <time>2022-02-24T20:32:16.381Z</time>
      </trkpt>
      <trkpt lat="37.2325" lon="-3.08501">
        <ele>1083.535896</ele>
        <time>2022-02-24T20:32:36.365Z</time>
      </trkpt>
      <trkpt lat="37.23139" lon="-3.08434">
        <ele>1086.19438</ele>
        <time>2022-02-24T20:33:13.499Z</time>
      </trkpt>
      <trkpt lat="37.23116" lon="-3.08412">
        <ele>1086.653942</ele>
        <time>2022-02-24T20:33:22.272Z</time>
      </trkpt>
      <trkpt lat="37.23104" lon="-3.08394">
        <ele>1086.950571</ele>
        <time>2022-02-24T20:33:27.837Z</time>
      </trkpt>
      <trkpt lat="37.23088" lon="-3.08352">
        <ele>1087.525575</ele>
        <time>2022-02-24T20:33:38.777Z</time>
      </trkpt>
      <trkpt lat="37.23084" lon="-3.08325">
        <ele>1087.855474</ele>
        <time>2022-02-24T20:33:45.452Z</time>
      </trkpt>
      <trkpt lat="37.23034" lon="-3.08299">
        <ele>1088.525173</ele>
        <time>2022-02-24T20:34:02.157Z</time>
      </trkpt>
      <trkpt lat="37.22984" lon="-3.08289">
        <ele>1089.136495</ele>
        <time>2022-02-24T20:34:16.939Z</time>
      </trkpt>
      <trkpt lat="37.22919" lon="-3.0826">
        <ele>1089.992184</ele>
        <time>2022-02-24T20:34:37.132Z</time>
      </trkpt>
      <trkpt lat="37.22815" lon="-3.0823">
        <ele>1090.453435</ele>
        <time>2022-02-24T20:35:03.847Z</time>
      </trkpt>
      <trkpt lat="37.22786" lon="-3.08231">
        <ele>1090.581837</ele>
        <time>2022-02-24T20:35:11.093Z</time>
      </trkpt>
      <trkpt lat="37.22743" lon="-3.08233">
        <ele>1090.766632</ele>
        <time>2022-02-24T20:35:21.313Z</time>
      </trkpt>
      <trkpt lat="37.22617" lon="-3.0813">
        <ele>1091.491631</ele>
        <time>2022-02-24T20:35:59.155Z</time>
      </trkpt>
      <trkpt lat="37.22559" lon="-3.08096">
        <ele>1091.957156</ele>
        <time>2022-02-24T20:36:16.491Z</time>
      </trkpt>
      <trkpt lat="37.22492" lon="-3.08045">
        <ele>1092.726459</ele>
        <time>2022-02-24T20:36:38.680Z</time>
      </trkpt>
      <trkpt lat="37.21395" lon="-3.07153">
        <ele>1107.718486</ele>
        <time>2022-02-24T20:42:56.974Z</time>
      </trkpt>
      <trkpt lat="37.21307" lon="-3.07059">
        <ele>1108.91413</ele>
        <time>2022-02-24T20:43:30.229Z</time>
      </trkpt>
      <trkpt lat="37.21227" lon="-3.06993">
        <ele>1109.842617</ele>
        <time>2022-02-24T20:43:56.661Z</time>
      </trkpt>
      <trkpt lat="37.21212" lon="-3.06981">
        <ele>1109.944739</ele>
        <time>2022-02-24T20:44:01.326Z</time>
      </trkpt>
      <trkpt lat="37.21151" lon="-3.06904">
        <ele>1110.4553</ele>
        <time>2022-02-24T20:44:24.457Z</time>
      </trkpt>
      <trkpt lat="37.2111" lon="-3.06828">
        <ele>1110.856811</ele>
        <time>2022-02-24T20:44:42.928Z</time>
      </trkpt>
      <trkpt lat="37.21083" lon="-3.06751">
        <ele>1110.988461</ele>
        <time>2022-02-24T20:44:59.213Z</time>
      </trkpt>
      <trkpt lat="37.21073" lon="-3.06747">
        <ele>1111.008729</ele>
        <time>2022-02-24T20:45:01.831Z</time>
      </trkpt>
      <trkpt lat="37.21029" lon="-3.06749">
        <ele>1111.097268</ele>
        <time>2022-02-24T20:45:12.614Z</time>
      </trkpt>
      <trkpt lat="37.2101" lon="-3.06743">
        <ele>1111.135493</ele>
        <time>2022-02-24T20:45:17.052Z</time>
      </trkpt>
      <trkpt lat="37.20976" lon="-3.0672">
        <ele>1111.19476</ele>
        <time>2022-02-24T20:45:25.945Z</time>
      </trkpt>
      <trkpt lat="37.20973" lon="-3.06707">
        <ele>1111.192249</ele>
        <time>2022-02-24T20:45:28.817Z</time>
      </trkpt>
      <trkpt lat="37.20983" lon="-3.06696">
        <ele>1111.189358</ele>
        <time>2022-02-24T20:45:31.697Z</time>
      </trkpt>
      <trkpt lat="37.21008" lon="-3.06708">
        <ele>1111.18333</ele>
        <time>2022-02-24T20:45:38.128Z</time>
      </trkpt>
      <trkpt lat="37.21031" lon="-3.06707">
        <ele>1111.178382</ele>
        <time>2022-02-24T20:45:43.232Z</time>
      </trkpt>
      <trkpt lat="37.21058" lon="-3.06699">
        <ele>1111.172197</ele>
        <time>2022-02-24T20:45:49.595Z</time>
      </trkpt>
      <trkpt lat="37.21069" lon="-3.06685">
        <ele>1111.168849</ele>
        <time>2022-02-24T20:45:53.280Z</time>
      </trkpt>
      <trkpt lat="37.21049" lon="-3.06593">
        <ele>1111.193794</ele>
        <time>2022-02-24T20:46:10.590Z</time>
      </trkpt>
      <trkpt lat="37.20989" lon="-3.06362">
        <ele>1111.762932</ele>
        <time>2022-02-24T20:46:57.909Z</time>
      </trkpt>
      <trkpt lat="37.20789" lon="-3.05382">
        <ele>1118.543625</ele>
        <time>2022-02-24T20:50:38.048Z</time>
      </trkpt>
      <trkpt lat="37.20773" lon="-3.05358">
        <ele>1118.801825</ele>
        <time>2022-02-24T20:50:45.310Z</time>
      </trkpt>
      <trkpt lat="37.20777" lon="-3.05319">
        <ele>1119.127196</ele>
        <time>2022-02-24T20:50:54.696Z</time>
      </trkpt>
      <trkpt lat="37.2072" lon="-3.05066">
        <ele>1122.327437</ele>
        <time>2022-02-24T20:52:01.293Z</time>
      </trkpt>
      <trkpt lat="37.20619" lon="-3.04972">
        <ele>1123.556212</ele>
        <time>2022-02-24T20:52:36.839Z</time>
      </trkpt>
      <trkpt lat="37.20613" lon="-3.04959">
        <ele>1123.675268</ele>
        <time>2022-02-24T20:52:39.979Z</time>
      </trkpt>
      <trkpt lat="37.20573" lon="-3.04762">
        <ele>1124.285694</ele>
        <time>2022-02-24T20:53:18.220Z</time>
      </trkpt>
      <trkpt lat="37.20581" lon="-3.0475">
        <ele>1124.326028</ele>
        <time>2022-02-24T20:53:21.422Z</time>
      </trkpt>
      <trkpt lat="37.20625" lon="-3.0474">
        <ele>1124.762198</ele>
        <time>2022-02-24T20:53:33.351Z</time>
      </trkpt>
      <trkpt lat="37.20633" lon="-3.04733">
        <ele>1124.90229</ele>
        <time>2022-02-24T20:53:36.042Z</time>
      </trkpt>
      <trkpt lat="37.2064" lon="-3.04698">
        <ele>1125.341915</ele>
        <time>2022-02-24T20:53:44.232Z</time>
      </trkpt>
      <trkpt lat="37.20629" lon="-3.04673">
        <ele>1125.682865</ele>
        <time>2022-02-24T20:53:52.645Z</time>
      </trkpt>
      <trkpt lat="37.20605" lon="-3.04648">
        <ele>1126.147815</ele>
        <time>2022-02-24T20:54:04.198Z</time>
      </trkpt>
      <trkpt lat="37.2058" lon="-3.04634">
        <ele>1126.564209</ele>
        <time>2022-02-24T20:54:14.821Z</time>
      </trkpt>
      <trkpt lat="37.20555" lon="-3.04645">
        <ele>1126.973331</ele>
        <time>2022-02-24T20:54:25.503Z</time>
      </trkpt>
      <trkpt lat="37.2055" lon="-3.04642">
        <ele>1127.05524</ele>
        <time>2022-02-24T20:54:27.781Z</time>
      </trkpt>
      <trkpt lat="37.20548" lon="-3.04629">
        <ele>1127.260224</ele>
        <time>2022-02-24T20:54:32.116Z</time>
      </trkpt>
      <trkpt lat="37.20533" lon="-3.04627">
        <ele>1127.601357</ele>
        <time>2022-02-24T20:54:37.134Z</time>
      </trkpt>
      <trkpt lat="37.20506" lon="-3.04631">
        <ele>1128.231179</ele>
        <time>2022-02-24T20:54:47.120Z</time>
      </trkpt>
      <trkpt lat="37.20346" lon="-3.04762">
        <ele>1131.969727</ele>
        <time>2022-02-24T20:55:50.734Z</time>
      </trkpt>
      <trkpt lat="37.20327" lon="-3.04778">
        <ele>1132.256616</ele>
        <time>2022-02-24T20:55:57.550Z</time>
      </trkpt>
      <trkpt lat="37.20184" lon="-3.04895">
        <ele>1133.544874</ele>
        <time>2022-02-24T20:56:40.674Z</time>
      </trkpt>
      <trkpt lat="37.2019" lon="-3.04867">
        <ele>1133.569092</ele>
        <time>2022-02-24T20:56:45.825Z</time>
      </trkpt>
      <trkpt lat="37.20207" lon="-3.04831">
        <ele>1133.604543</ele>
        <time>2022-02-24T20:56:53.328Z</time>
      </trkpt>
      <trkpt lat="37.20298" lon="-3.04758">
        <ele>1133.506771</ele>
        <time>2022-02-24T20:57:17.638Z</time>
      </trkpt>
      <trkpt lat="37.2032" lon="-3.04731">
        <ele>1133.425451</ele>
        <time>2022-02-24T20:57:24.475Z</time>
      </trkpt>
      <trkpt lat="37.20342" lon="-3.0467">
        <ele>1133.28391</ele>
        <time>2022-02-24T20:57:36.409Z</time>
      </trkpt>
      <trkpt lat="37.20478" lon="-3.04036">
        <ele>1131.915235</ele>
        <time>2022-02-24T20:59:33.450Z</time>
      </trkpt>
      <trkpt lat="37.20483" lon="-3.03975">
        <ele>1131.820476</ele>
        <time>2022-02-24T20:59:44.751Z</time>
      </trkpt>
      <trkpt lat="37.20482" lon="-3.03946">
        <ele>1131.78734</ele>
        <time>2022-02-24T20:59:50.131Z</time>
      </trkpt>
      <trkpt lat="37.20467" lon="-3.03869">
        <ele>1131.708673</ele>
        <time>2022-02-24T21:00:04.775Z</time>
      </trkpt>
      <trkpt lat="37.2041" lon="-3.03649">
        <ele>1131.270213</ele>
        <time>2022-02-24T21:00:46.379Z</time>
      </trkpt>
      <trkpt lat="37.20358" lon="-3.03436">
        <ele>1130.554176</ele>
        <time>2022-02-24T21:01:25.092Z</time>
      </trkpt>
      <trkpt lat="37.20358" lon="-3.03414">
        <ele>1130.475557</ele>
        <time>2022-02-24T21:01:28.968Z</time>
      </trkpt>
      <trkpt lat="37.20374" lon="-3.03378">
        <ele>1130.332313</ele>
        <time>2022-02-24T21:01:36.042Z</time>
      </trkpt>
      <trkpt lat="37.20318" lon="-3.03079">
        <ele>1129.889535</ele>
        <time>2022-02-24T21:02:31.319Z</time>
      </trkpt>
      <trkpt lat="37.20306" lon="-3.03068">
        <ele>1129.932727</ele>
        <time>2022-02-24T21:02:35.405Z</time>
      </trkpt>
      <trkpt lat="37.20258" lon="-3.03077">
        <ele>1130.068681</ele>
        <time>2022-02-24T21:02:47.114Z</time>
      </trkpt>
      <trkpt lat="37.20216" lon="-3.03092">
        <ele>1130.193991</ele>
        <time>2022-02-24T21:02:58.094Z</time>
      </trkpt>
      <trkpt lat="37.20208" lon="-3.03086">
        <ele>1130.220935</ele>
        <time>2022-02-24T21:03:00.961Z</time>
      </trkpt>
      <trkpt lat="37.20216" lon="-3.03076">
        <ele>1130.252311</ele>
        <time>2022-02-24T21:03:03.518Z</time>
      </trkpt>
      <trkpt lat="37.20294" lon="-3.02963">
        <ele>1130.541971</ele>
        <time>2022-02-24T21:03:33.682Z</time>
      </trkpt>
      <trkpt lat="37.2001" lon="-3.01575">
        <ele>1133.20677</ele>
        <time>2022-02-24T21:08:09.879Z</time>
      </trkpt>
      <trkpt lat="37.19979" lon="-3.01436">
        <ele>1133.863735</ele>
        <time>2022-02-24T21:08:39.720Z</time>
      </trkpt>
      <trkpt lat="37.19959" lon="-3.0138">
        <ele>1134.195709</ele>
        <time>2022-02-24T21:08:52.804Z</time>
      </trkpt>
      <trkpt lat="37.199" lon="-3.01074">
        <ele>1136.344065</ele>
        <time>2022-02-24T21:10:02.065Z</time>
      </trkpt>
      <trkpt lat="37.19894" lon="-3.01004">
        <ele>1136.932172</ele>
        <time>2022-02-24T21:10:17.334Z</time>
      </trkpt>
      <trkpt lat="37.19706" lon="-3.00091">
        <ele>1144.615876</ele>
        <time>2022-02-24T21:13:52.106Z</time>
      </trkpt>
      <trkpt lat="37.19699" lon="-3.0008">
        <ele>1144.702761</ele>
        <time>2022-02-24T21:13:54.487Z</time>
      </trkpt>
      <trkpt lat="37.19686" lon="-3.00077">
        <ele>1144.813312</ele>
        <time>2022-02-24T21:13:58.084Z</time>
      </trkpt>
      <trkpt lat="37.19655" lon="-3.00081">
        <ele>1145.068242</ele>
        <time>2022-02-24T21:14:06.009Z</time>
      </trkpt>
      <trkpt lat="37.19586" lon="-3.0007">
        <ele>1145.338198</ele>
        <time>2022-02-24T21:14:23.456Z</time>
      </trkpt>
      <trkpt lat="37.19573" lon="-3.00053">
        <ele>1145.390245</ele>
        <time>2022-02-24T21:14:29.455Z</time>
      </trkpt>
      <trkpt lat="37.19581" lon="-3.00037">
        <ele>1145.432782</ele>
        <time>2022-02-24T21:14:32.684Z</time>
      </trkpt>
      <trkpt lat="37.19644" lon="-3.00045">
        <ele>1145.605601</ele>
        <time>2022-02-24T21:14:48.330Z</time>
      </trkpt>
      <trkpt lat="37.1969" lon="-3.00032">
        <ele>1145.647102</ele>
        <time>2022-02-24T21:14:58.741Z</time>
      </trkpt>
      <trkpt lat="37.19692" lon="-3.00023">
        <ele>1145.634429</ele>
        <time>2022-02-24T21:15:01.339Z</time>
      </trkpt>
      <trkpt lat="37.19569" lon="-2.99408">
        <ele>1144.871173</ele>
        <time>2022-02-24T21:16:55.634Z</time>
      </trkpt>
      <trkpt lat="37.19447" lon="-2.98847">
        <ele>1145.7114</ele>
        <time>2022-02-24T21:18:45.213Z</time>
      </trkpt>
      <trkpt lat="37.19435" lon="-2.98819">
        <ele>1145.845461</ele>
        <time>2022-02-24T21:18:52.126Z</time>
      </trkpt>
      <trkpt lat="37.19405" lon="-2.9876">
        <ele>1146.14358</ele>
        <time>2022-02-24T21:19:08.109Z</time>
      </trkpt>
      <trkpt lat="37.19352" lon="-2.98707">
        <ele>1146.817142</ele>
        <time>2022-02-24T21:19:27.803Z</time>
      </trkpt>
      <trkpt lat="37.19304" lon="-2.9869">
        <ele>1147.311723</ele>
        <time>2022-02-24T21:19:42.616Z</time>
      </trkpt>
      <trkpt lat="37.19304" lon="-2.98669">
        <ele>1147.47901</ele>
        <time>2022-02-24T21:19:47.546Z</time>
      </trkpt>
      <trkpt lat="37.19293" lon="-2.98641">
        <ele>1147.724793</ele>
        <time>2022-02-24T21:19:54.103Z</time>
      </trkpt>
      <trkpt lat="37.19303" lon="-2.98613">
        <ele>1147.947809</ele>
        <time>2022-02-24T21:20:00.543Z</time>
      </trkpt>
      <trkpt lat="37.1931" lon="-2.98607">
        <ele>1147.922315</ele>
        <time>2022-02-24T21:20:02.478Z</time>
      </trkpt>
      <trkpt lat="37.19317" lon="-2.98579">
        <ele>1147.849064</ele>
        <time>2022-02-24T21:20:09.585Z</time>
      </trkpt>
      <trkpt lat="37.19311" lon="-2.98527">
        <ele>1147.723493</ele>
        <time>2022-02-24T21:20:21.649Z</time>
      </trkpt>
      <trkpt lat="37.19315" lon="-2.98506">
        <ele>1147.671402</ele>
        <time>2022-02-24T21:20:26.311Z</time>
      </trkpt>
      <trkpt lat="37.19302" lon="-2.98452">
        <ele>1147.534357</ele>
        <time>2022-02-24T21:20:38.991Z</time>
      </trkpt>
      <trkpt lat="37.19291" lon="-2.98441">
        <ele>1147.489914</ele>
        <time>2022-02-24T21:20:43.116Z</time>
      </trkpt>
      <trkpt lat="37.19282" lon="-2.98433">
        <ele>1147.458044</ele>
        <time>2022-02-24T21:20:45.144Z</time>
      </trkpt>
      <trkpt lat="37.19277" lon="-2.98401">
        <ele>1147.306685</ele>
        <time>2022-02-24T21:20:51.028Z</time>
      </trkpt>
      <trkpt lat="37.19347" lon="-2.9835">
        <ele>1146.447821</ele>
        <time>2022-02-24T21:21:07.289Z</time>
      </trkpt>
      <trkpt lat="37.19348" lon="-2.98344">
        <ele>1146.393174</ele>
        <time>2022-02-24T21:21:08.364Z</time>
      </trkpt>
      <trkpt lat="37.1932" lon="-2.98221">
        <ele>1145.411149</ele>
        <time>2022-02-24T21:21:29.367Z</time>
      </trkpt>
      <trkpt lat="37.19256" lon="-2.97874">
        <ele>1144.827695</ele>
        <time>2022-02-24T21:22:32.562Z</time>
      </trkpt>
      <trkpt lat="37.19064" lon="-2.96929">
        <ele>1153.616332</ele>
        <time>2022-02-24T21:26:17.682Z</time>
      </trkpt>
      <trkpt lat="37.18993" lon="-2.96598">
        <ele>1160.378369</ele>
        <time>2022-02-24T21:27:56.231Z</time>
      </trkpt>
      <trkpt lat="37.1894" lon="-2.96368">
        <ele>1165.655151</ele>
        <time>2022-02-24T21:29:05.933Z</time>
      </trkpt>
      <trkpt lat="37.18901" lon="-2.96239">
        <ele>1169.39605</ele>
        <time>2022-02-24T21:29:47.638Z</time>
      </trkpt>
      <trkpt lat="37.18866" lon="-2.96143">
        <ele>1173.205706</ele>
        <time>2022-02-24T21:30:26.258Z</time>
      </trkpt>
      <trkpt lat="37.18823" lon="-2.96054">
        <ele>1176.771812</ele>
        <time>2022-02-24T21:31:08.856Z</time>
      </trkpt>
      <trkpt lat="37.18777" lon="-2.95999">
        <ele>1179.096356</ele>
        <time>2022-02-24T21:31:41.189Z</time>
      </trkpt>
      <trkpt lat="37.18749" lon="-2.95979">
        <ele>1180.242593</ele>
        <time>2022-02-24T21:31:54.412Z</time>
      </trkpt>
      <trkpt lat="37.18717" lon="-2.95973">
        <ele>1181.431584</ele>
        <time>2022-02-24T21:32:06.360Z</time>
      </trkpt>
      <trkpt lat="37.18683" lon="-2.9592">
        <ele>1182.098225</ele>
        <time>2022-02-24T21:32:21.543Z</time>
      </trkpt>
      <trkpt lat="37.18651" lon="-2.95859">
        <ele>1180.99116</ele>
        <time>2022-02-24T21:32:33.328Z</time>
      </trkpt>
      <trkpt lat="37.18598" lon="-2.95792">
        <ele>1179.549613</ele>
        <time>2022-02-24T21:32:46.906Z</time>
      </trkpt>
      <trkpt lat="37.18593" lon="-2.95772">
        <ele>1179.236084</ele>
        <time>2022-02-24T21:32:49.633Z</time>
      </trkpt>
      <trkpt lat="37.18607" lon="-2.95713">
        <ele>1177.576535</ele>
        <time>2022-02-24T21:32:58.113Z</time>
      </trkpt>
      <trkpt lat="37.18621" lon="-2.95705">
        <ele>1177.016108</ele>
        <time>2022-02-24T21:33:00.688Z</time>
      </trkpt>
      <trkpt lat="37.1864" lon="-2.9571">
        <ele>1176.300742</ele>
        <time>2022-02-24T21:33:04.342Z</time>
      </trkpt>
      <trkpt lat="37.1866" lon="-2.95706">
        <ele>1175.556961</ele>
        <time>2022-02-24T21:33:07.810Z</time>
      </trkpt>
      <trkpt lat="37.18629" lon="-2.95673">
        <ele>1174.04063</ele>
        <time>2022-02-24T21:33:15.159Z</time>
      </trkpt>
      <trkpt lat="37.18583" lon="-2.95641">
        <ele>1172.291748</ele>
        <time>2022-02-24T21:33:24.363Z</time>
      </trkpt>
      <trkpt lat="37.18579" lon="-2.95633">
        <ele>1172.118574</ele>
        <time>2022-02-24T21:33:25.630Z</time>
      </trkpt>
      <trkpt lat="37.18572" lon="-2.95604">
        <ele>1171.574943</ele>
        <time>2022-02-24T21:33:29.925Z</time>
      </trkpt>
      <trkpt lat="37.18566" lon="-2.95598">
        <ele>1171.409868</ele>
        <time>2022-02-24T21:33:31.130Z</time>
      </trkpt>
      <trkpt lat="37.18558" lon="-2.95572">
        <ele>1170.905332</ele>
        <time>2022-02-24T21:33:34.872Z</time>
      </trkpt>
      <trkpt lat="37.18567" lon="-2.95547">
        <ele>1170.418864</ele>
        <time>2022-02-24T21:33:38.744Z</time>
      </trkpt>
      <trkpt lat="37.18566" lon="-2.95542">
        <ele>1170.322206</ele>
        <time>2022-02-24T21:33:39.555Z</time>
      </trkpt>
      <trkpt lat="37.18558" lon="-2.95529">
        <ele>1170.038504</ele>
        <time>2022-02-24T21:33:42.024Z</time>
      </trkpt>
      <trkpt lat="37.18551" lon="-2.95482">
        <ele>1169.192778</ele>
        <time>2022-02-24T21:33:49.090Z</time>
      </trkpt>
      <trkpt lat="37.18537" lon="-2.95449">
        <ele>1168.521774</ele>
        <time>2022-02-24T21:33:54.769Z</time>
      </trkpt>
      <trkpt lat="37.1836" lon="-2.9529">
        <ele>1169.73442</ele>
        <time>2022-02-24T21:34:51.101Z</time>
      </trkpt>
      <trkpt lat="37.18341" lon="-2.95281">
        <ele>1169.96607</ele>
        <time>2022-02-24T21:34:57.305Z</time>
      </trkpt>
      <trkpt lat="37.18248" lon="-2.95259">
        <ele>1171.019175</ele>
        <time>2022-02-24T21:35:24.663Z</time>
      </trkpt>
      <trkpt lat="37.18169" lon="-2.95212">
        <ele>1171.510368</ele>
        <time>2022-02-24T21:35:48.563Z</time>
      </trkpt>
      <trkpt lat="37.17914" lon="-2.95108">
        <ele>1170.303277</ele>
        <time>2022-02-24T21:36:47.255Z</time>
      </trkpt>
      <trkpt lat="37.17876" lon="-2.95099">
        <ele>1169.721392</ele>
        <time>2022-02-24T21:36:53.607Z</time>
      </trkpt>
      <trkpt lat="37.17875" lon="-2.95103">
        <ele>1169.590612</ele>
        <time>2022-02-24T21:36:54.124Z</time>
      </trkpt>
      <trkpt lat="37.17871" lon="-2.95105">
        <ele>1169.395344</ele>
        <time>2022-02-24T21:36:54.853Z</time>
      </trkpt>
      <trkpt lat="37.17867" lon="-2.95099">
        <ele>1169.144777</ele>
        <time>2022-02-24T21:36:55.811Z</time>
      </trkpt>
      <trkpt lat="37.17858" lon="-2.95101">
        <ele>1168.750234</ele>
        <time>2022-02-24T21:36:57.307Z</time>
      </trkpt>
      <trkpt lat="37.17837" lon="-2.95037">
        <ele>1166.372935</ele>
        <time>2022-02-24T21:37:06.445Z</time>
      </trkpt>
      <trkpt lat="37.17807" lon="-2.94999">
        <ele>1164.559842</ele>
        <time>2022-02-24T21:37:13.274Z</time>
      </trkpt>
      <trkpt lat="37.17769" lon="-2.94969">
        <ele>1162.631362</ele>
        <time>2022-02-24T21:37:20.708Z</time>
      </trkpt>
      <trkpt lat="37.17768" lon="-2.94967">
        <ele>1162.530985</ele>
        <time>2022-02-24T21:37:21.091Z</time>
      </trkpt>
      <trkpt lat="37.17723" lon="-2.94907">
        <ele>1163.210734</ele>
        <time>2022-02-24T21:37:33.957Z</time>
      </trkpt>
      <trkpt lat="37.17717" lon="-2.94906">
        <ele>1163.31186</ele>
        <time>2022-02-24T21:37:35.048Z</time>
      </trkpt>
      <trkpt lat="37.1771" lon="-2.94897">
        <ele>1163.479362</ele>
        <time>2022-02-24T21:37:37.844Z</time>
      </trkpt>
      <trkpt lat="37.17699" lon="-2.94882">
        <ele>1163.7547</ele>
        <time>2022-02-24T21:37:43.896Z</time>
      </trkpt>
      <trkpt lat="37.17693" lon="-2.94874">
        <ele>1163.914726</ele>
        <time>2022-02-24T21:37:46.475Z</time>
      </trkpt>
      <trkpt lat="37.1768" lon="-2.94861">
        <ele>1164.195039</ele>
        <time>2022-02-24T21:37:52.451Z</time>
      </trkpt>
      <trkpt lat="37.17673" lon="-2.94856">
        <ele>1164.323881</ele>
        <time>2022-02-24T21:37:55.713Z</time>
      </trkpt>
      <trkpt lat="37.17652" lon="-2.94837">
        <ele>1164.768923</ele>
        <time>2022-02-24T21:38:06.999Z</time>
      </trkpt>
      <trkpt lat="37.17647" lon="-2.94839">
        <ele>1164.850845</ele>
        <time>2022-02-24T21:38:09.503Z</time>
      </trkpt>
      <trkpt lat="37.17646" lon="-2.94838">
        <ele>1164.887146</ele>
        <time>2022-02-24T21:38:10.838Z</time>
      </trkpt>
      <trkpt lat="37.1764" lon="-2.94832">
        <ele>1165.007532</ele>
        <time>2022-02-24T21:38:15.566Z</time>
      </trkpt>
      <trkpt lat="37.17637" lon="-2.9483">
        <ele>1165.061875</ele>
        <time>2022-02-24T21:38:17.797Z</time>
      </trkpt>
      <trkpt lat="37.17632" lon="-2.94838">
        <ele>1165.198145</ele>
        <time>2022-02-24T21:38:21.617Z</time>
      </trkpt>
      <trkpt lat="37.17611" lon="-2.94811">
        <ele>1166.895087</ele>
        <time>2022-02-24T21:38:40.208Z</time>
      </trkpt>
      <trkpt lat="37.17616" lon="-2.94804">
        <ele>1167.385666</ele>
        <time>2022-02-24T21:38:43.943Z</time>
      </trkpt>
      <trkpt lat="37.17612" lon="-2.94779">
        <ele>1168.663056</ele>
        <time>2022-02-24T21:38:56.510Z</time>
      </trkpt>
      <trkpt lat="37.17603" lon="-2.94768">
        <ele>1169.445957</ele>
        <time>2022-02-24T21:39:04.695Z</time>
      </trkpt>
      <trkpt lat="37.17559" lon="-2.94731">
        <ele>1172.744159</ele>
        <time>2022-02-24T21:39:35.629Z</time>
      </trkpt>
      <trkpt lat="37.17549" lon="-2.94715">
        <ele>1173.805102</ele>
        <time>2022-02-24T21:39:46.187Z</time>
      </trkpt>
      <trkpt lat="37.17546" lon="-2.947">
        <ele>1174.554932</ele>
        <time>2022-02-24T21:39:51.605Z</time>
      </trkpt>
      <trkpt lat="37.17536" lon="-2.94668">
        <ele>1176.287653</ele>
        <time>2022-02-24T21:40:06.012Z</time>
      </trkpt>
      <trkpt lat="37.17528" lon="-2.94615">
        <ele>1176.834714</ele>
        <time>2022-02-24T21:40:23.584Z</time>
      </trkpt>
      <trkpt lat="37.1751" lon="-2.94555">
        <ele>1177.176936</ele>
        <time>2022-02-24T21:40:47.852Z</time>
      </trkpt>
      <trkpt lat="37.17505" lon="-2.94512">
        <ele>1177.404811</ele>
        <time>2022-02-24T21:41:00.352Z</time>
      </trkpt>
      <trkpt lat="37.1747" lon="-2.94486">
        <ele>1177.675059</ele>
        <time>2022-02-24T21:41:13.693Z</time>
      </trkpt>
      <trkpt lat="37.17473" lon="-2.94463">
        <ele>1177.633436</ele>
        <time>2022-02-24T21:41:19.140Z</time>
      </trkpt>
      <trkpt lat="37.17493" lon="-2.94432">
        <ele>1175.977052</ele>
        <time>2022-02-24T21:41:28.782Z</time>
      </trkpt>
      <trkpt lat="37.17498" lon="-2.94405">
        <ele>1174.844058</ele>
        <time>2022-02-24T21:41:35.320Z</time>
      </trkpt>
      <trkpt lat="37.17505" lon="-2.94322">
        <ele>1171.362228</ele>
        <time>2022-02-24T21:41:54.139Z</time>
      </trkpt>
      <trkpt lat="37.17564" lon="-2.94167">
        <ele>1163.288668</ele>
        <time>2022-02-24T21:42:31.627Z</time>
      </trkpt>
      <trkpt lat="37.17636" lon="-2.94049">
        <ele>1155.909394</ele>
        <time>2022-02-24T21:43:04.589Z</time>
      </trkpt>
      <trkpt lat="37.177" lon="-2.93921">
        <ele>1149.623271</ele>
        <time>2022-02-24T21:43:38.908Z</time>
      </trkpt>
      <trkpt lat="37.17699" lon="-2.93913">
        <ele>1149.312245</ele>
        <time>2022-02-24T21:43:40.504Z</time>
      </trkpt>
      <trkpt lat="37.17693" lon="-2.93906">
        <ele>1148.87908</ele>
        <time>2022-02-24T21:43:41.882Z</time>
      </trkpt>
      <trkpt lat="37.17695" lon="-2.93898">
        <ele>1148.550471</ele>
        <time>2022-02-24T21:43:42.923Z</time>
      </trkpt>
      <trkpt lat="37.17718" lon="-2.9384">
        <ele>1146.776883</ele>
        <time>2022-02-24T21:43:51.519Z</time>
      </trkpt>
      <trkpt lat="37.1772" lon="-2.93835">
        <ele>1146.653417</ele>
        <time>2022-02-24T21:43:52.306Z</time>
      </trkpt>
      <trkpt lat="37.17688" lon="-2.9382">
        <ele>1145.843403</ele>
        <time>2022-02-24T21:43:58.255Z</time>
      </trkpt>
      <trkpt lat="37.17642" lon="-2.93791">
        <ele>1144.629183</ele>
        <time>2022-02-24T21:44:07.427Z</time>
      </trkpt>
      <trkpt lat="37.17624" lon="-2.93771">
        <ele>1144.078039</ele>
        <time>2022-02-24T21:44:12.047Z</time>
      </trkpt>
      <trkpt lat="37.17606" lon="-2.93743">
        <ele>1143.403016</ele>
        <time>2022-02-24T21:44:18.132Z</time>
      </trkpt>
      <trkpt lat="37.17569" lon="-2.93702">
        <ele>1143.461985</ele>
        <time>2022-02-24T21:44:30.090Z</time>
      </trkpt>
      <trkpt lat="37.17517" lon="-2.93587">
        <ele>1143.840703</ele>
        <time>2022-02-24T21:44:56.662Z</time>
      </trkpt>
      <trkpt lat="37.17493" lon="-2.93488">
        <ele>1144.314204</ele>
        <time>2022-02-24T21:45:17.029Z</time>
      </trkpt>
      <trkpt lat="37.17481" lon="-2.93363">
        <ele>1145.011816</ele>
        <time>2022-02-24T21:45:42.947Z</time>
      </trkpt>
      <trkpt lat="37.17485" lon="-2.93248">
        <ele>1145.595652</ele>
        <time>2022-02-24T21:46:07.175Z</time>
      </trkpt>
      <trkpt lat="37.17485" lon="-2.93114">
        <ele>1146.247198</ele>
        <time>2022-02-24T21:46:34.208Z</time>
      </trkpt>
      <trkpt lat="37.17446" lon="-2.92931">
        <ele>1146.769313</ele>
        <time>2022-02-24T21:47:08.676Z</time>
      </trkpt>
      <trkpt lat="37.17336" lon="-2.92751">
        <ele>1148.340669</ele>
        <time>2022-02-24T21:47:56.519Z</time>
      </trkpt>
      <trkpt lat="37.1722" lon="-2.92585">
        <ele>1150.808269</ele>
        <time>2022-02-24T21:48:49.072Z</time>
      </trkpt>
      <trkpt lat="37.17054" lon="-2.9233">
        <ele>1154.27057</ele>
        <time>2022-02-24T21:50:07.877Z</time>
      </trkpt>
      <trkpt lat="37.17045" lon="-2.92306">
        <ele>1154.355343</ele>
        <time>2022-02-24T21:50:13.260Z</time>
      </trkpt>
      <trkpt lat="37.17008" lon="-2.92263">
        <ele>1154.555651</ele>
        <time>2022-02-24T21:50:24.992Z</time>
      </trkpt>
      <trkpt lat="37.17" lon="-2.92243">
        <ele>1154.629393</ele>
        <time>2022-02-24T21:50:29.012Z</time>
      </trkpt>
      <trkpt lat="37.17001" lon="-2.92205">
        <ele>1154.750361</ele>
        <time>2022-02-24T21:50:35.433Z</time>
      </trkpt>
      <trkpt lat="37.16991" lon="-2.92201">
        <ele>1154.791548</ele>
        <time>2022-02-24T21:50:37.649Z</time>
      </trkpt>
      <trkpt lat="37.16964" lon="-2.92191">
        <ele>1154.634647</ele>
        <time>2022-02-24T21:50:43.547Z</time>
      </trkpt>
      <trkpt lat="37.16953" lon="-2.92179">
        <ele>1154.514239</ele>
        <time>2022-02-24T21:50:46.387Z</time>
      </trkpt>
      <trkpt lat="37.16884" lon="-2.92065">
        <ele>1153.517345</ele>
        <time>2022-02-24T21:51:09.222Z</time>
      </trkpt>
      <trkpt lat="37.16869" lon="-2.92016">
        <ele>1153.063666</ele>
        <time>2022-02-24T21:51:17.636Z</time>
      </trkpt>
      <trkpt lat="37.16848" lon="-2.91982">
        <ele>1152.532838</ele>
        <time>2022-02-24T21:51:24.238Z</time>
      </trkpt>
      <trkpt lat="37.16844" lon="-2.91944">
        <ele>1152.049775</ele>
        <time>2022-02-24T21:51:30.141Z</time>
      </trkpt>
      <trkpt lat="37.16844" lon="-2.91888">
        <ele>1151.353574</ele>
        <time>2022-02-24T21:51:38.551Z</time>
      </trkpt>
      <trkpt lat="37.16867" lon="-2.91719">
        <ele>1148.429684</ele>
        <time>2022-02-24T21:52:03.566Z</time>
      </trkpt>
      <trkpt lat="37.16871" lon="-2.91586">
        <ele>1145.694251</ele>
        <time>2022-02-24T21:52:21.883Z</time>
      </trkpt>
      <trkpt lat="37.16838" lon="-2.91416">
        <ele>1141.715093</ele>
        <time>2022-02-24T21:52:46.490Z</time>
      </trkpt>
      <trkpt lat="37.16838" lon="-2.91381">
        <ele>1140.928206</ele>
        <time>2022-02-24T21:52:51.267Z</time>
      </trkpt>
      <trkpt lat="37.1685" lon="-2.91303">
        <ele>1138.666016</ele>
        <time>2022-02-24T21:53:01.906Z</time>
      </trkpt>
      <trkpt lat="37.16864" lon="-2.91262">
        <ele>1137.343876</ele>
        <time>2022-02-24T21:53:07.776Z</time>
      </trkpt>
      <trkpt lat="37.1691" lon="-2.91049">
        <ele>1131.899374</ele>
        <time>2022-02-24T21:53:37.101Z</time>
      </trkpt>
      <trkpt lat="37.16923" lon="-2.90951">
        <ele>1129.944792</ele>
        <time>2022-02-24T21:53:51.721Z</time>
      </trkpt>
      <trkpt lat="37.16936" lon="-2.90928">
        <ele>1129.56025</ele>
        <time>2022-02-24T21:53:56.327Z</time>
      </trkpt>
      <trkpt lat="37.16922" lon="-2.90855">
        <ele>1129.390786</ele>
        <time>2022-02-24T21:54:09.888Z</time>
      </trkpt>
      <trkpt lat="37.16923" lon="-2.90829">
        <ele>1129.332854</ele>
        <time>2022-02-24T21:54:14.867Z</time>
      </trkpt>
      <trkpt lat="37.16959" lon="-2.9067">
        <ele>1129.136325</ele>
        <time>2022-02-24T21:54:43.321Z</time>
      </trkpt>
      <trkpt lat="37.1696" lon="-2.90619">
        <ele>1129.196856</ele>
        <time>2022-02-24T21:54:51.711Z</time>
      </trkpt>
      <trkpt lat="37.16977" lon="-2.90597">
        <ele>1129.233321</ele>
        <time>2022-02-24T21:54:56.971Z</time>
      </trkpt>
      <trkpt lat="37.16981" lon="-2.90576">
        <ele>1129.259243</ele>
        <time>2022-02-24T21:55:00.663Z</time>
      </trkpt>
      <trkpt lat="37.16979" lon="-2.90554">
        <ele>1129.285235</ele>
        <time>2022-02-24T21:55:05.693Z</time>
      </trkpt>
      <trkpt lat="37.16967" lon="-2.90524">
        <ele>1129.325961</ele>
        <time>2022-02-24T21:55:12.773Z</time>
      </trkpt>
      <trkpt lat="37.1693" lon="-2.90468">
        <ele>1129.804886</ele>
        <time>2022-02-24T21:55:29.214Z</time>
      </trkpt>
      <trkpt lat="37.16897" lon="-2.90431">
        <ele>1130.248189</ele>
        <time>2022-02-24T21:55:41.870Z</time>
      </trkpt>
      <trkpt lat="37.16878" lon="-2.90421">
        <ele>1130.456661</ele>
        <time>2022-02-24T21:55:48.615Z</time>
      </trkpt>
      <trkpt lat="37.16862" lon="-2.90374">
        <ele>1130.868456</ele>
        <time>2022-02-24T21:55:59.847Z</time>
      </trkpt>
      <trkpt lat="37.16847" lon="-2.90294">
        <ele>1131.001048</ele>
        <time>2022-02-24T21:56:16.440Z</time>
      </trkpt>
      <trkpt lat="37.16816" lon="-2.90191">
        <ele>1130.625102</ele>
        <time>2022-02-24T21:56:34.979Z</time>
      </trkpt>
      <trkpt lat="37.16792" lon="-2.9007">
        <ele>1130.049527</ele>
        <time>2022-02-24T21:56:56.416Z</time>
      </trkpt>
      <trkpt lat="37.16787" lon="-2.89974">
        <ele>1129.454598</ele>
        <time>2022-02-24T21:57:13.223Z</time>
      </trkpt>
      <trkpt lat="37.16776" lon="-2.89976">
        <ele>1129.373379</ele>
        <time>2022-02-24T21:57:15.717Z</time>
      </trkpt>
      <trkpt lat="37.16748" lon="-2.89981">
        <ele>1129.149302</ele>
        <time>2022-02-24T21:57:21.546Z</time>
      </trkpt>
      <trkpt lat="37.1674" lon="-2.89982">
        <ele>1129.088345</ele>
        <time>2022-02-24T21:57:23.309Z</time>
      </trkpt>
      <trkpt lat="37.16727" lon="-2.89911">
        <ele>1128.094224</ele>
        <time>2022-02-24T21:57:33.950Z</time>
      </trkpt>
      <trkpt lat="37.1672" lon="-2.89833">
        <ele>1126.865985</ele>
        <time>2022-02-24T21:57:46.354Z</time>
      </trkpt>
      <trkpt lat="37.16695" lon="-2.89717">
        <ele>1124.340143</ele>
        <time>2022-02-24T21:58:03.038Z</time>
      </trkpt>
      <trkpt lat="37.16694" lon="-2.897">
        <ele>1123.698815</ele>
        <time>2022-02-24T21:58:05.455Z</time>
      </trkpt>
      <trkpt lat="37.16669" lon="-2.8965">
        <ele>1121.519289</ele>
        <time>2022-02-24T21:58:13.148Z</time>
      </trkpt>
      <trkpt lat="37.1666" lon="-2.89632">
        <ele>1120.718054</ele>
        <time>2022-02-24T21:58:15.757Z</time>
      </trkpt>
      <trkpt lat="37.16646" lon="-2.8956">
        <ele>1117.961829</ele>
        <time>2022-02-24T21:58:25.108Z</time>
      </trkpt>
      <trkpt lat="37.1665" lon="-2.89493">
        <ele>1114.695525</ele>
        <time>2022-02-24T21:58:33.280Z</time>
      </trkpt>
      <trkpt lat="37.16684" lon="-2.89385">
        <ele>1108.351454</ele>
        <time>2022-02-24T21:58:47.173Z</time>
      </trkpt>
      <trkpt lat="37.16702" lon="-2.89312">
        <ele>1104.160265</ele>
        <time>2022-02-24T21:58:56.106Z</time>
      </trkpt>
      <trkpt lat="37.16708" lon="-2.89208">
        <ele>1098.123473</ele>
        <time>2022-02-24T21:59:08.680Z</time>
      </trkpt>
      <trkpt lat="37.16697" lon="-2.89104">
        <ele>1092.125822</ele>
        <time>2022-02-24T21:59:21.042Z</time>
      </trkpt>
      <trkpt lat="37.16699" lon="-2.89045">
        <ele>1089.0087</ele>
        <time>2022-02-24T21:59:28.046Z</time>
      </trkpt>
      <trkpt lat="37.16716" lon="-2.88993">
        <ele>1086.085031</ele>
        <time>2022-02-24T21:59:34.641Z</time>
      </trkpt>
      <trkpt lat="37.16753" lon="-2.88947">
        <ele>1082.667287</ele>
        <time>2022-02-24T21:59:42.599Z</time>
      </trkpt>
      <trkpt lat="37.16798" lon="-2.88918">
        <ele>1079.689948</ele>
        <time>2022-02-24T21:59:50.466Z</time>
      </trkpt>
      <trkpt lat="37.16863" lon="-2.8891">
        <ele>1077.487273</ele>
        <time>2022-02-24T22:00:01.337Z</time>
      </trkpt>
      <trkpt lat="37.16898" lon="-2.88889">
        <ele>1076.182754</ele>
        <time>2022-02-24T22:00:08.161Z</time>
      </trkpt>
      <trkpt lat="37.16919" lon="-2.88857">
        <ele>1075.070916</ele>
        <time>2022-02-24T22:00:14.100Z</time>
      </trkpt>
      <trkpt lat="37.16944" lon="-2.88765">
        <ele>1072.619904</ele>
        <time>2022-02-24T22:00:28.005Z</time>
      </trkpt>
      <trkpt lat="37.16967" lon="-2.88716">
        <ele>1071.250161</ele>
        <time>2022-02-24T22:00:35.891Z</time>
      </trkpt>
      <trkpt lat="37.16988" lon="-2.88645">
        <ele>1069.427953</ele>
        <time>2022-02-24T22:00:46.169Z</time>
      </trkpt>
      <trkpt lat="37.1699" lon="-2.88561">
        <ele>1066.931986</ele>
        <time>2022-02-24T22:00:57.524Z</time>
      </trkpt>
      <trkpt lat="37.16939" lon="-2.88326">
        <ele>1058.325499</ele>
        <time>2022-02-24T22:01:28.863Z</time>
      </trkpt>
      <trkpt lat="37.16939" lon="-2.8825">
        <ele>1055.32709</ele>
        <time>2022-02-24T22:01:38.389Z</time>
      </trkpt>
      <trkpt lat="37.16952" lon="-2.88118">
        <ele>1050.201161</ele>
        <time>2022-02-24T22:01:55.062Z</time>
      </trkpt>
      <trkpt lat="37.16941" lon="-2.87996">
        <ele>1045.679259</ele>
        <time>2022-02-24T22:02:10.740Z</time>
      </trkpt>
      <trkpt lat="37.16941" lon="-2.87923">
        <ele>1043.119846</ele>
        <time>2022-02-24T22:02:20.220Z</time>
      </trkpt>
      <trkpt lat="37.17001" lon="-2.87609">
        <ele>1033.687368</ele>
        <time>2022-02-24T22:03:03.483Z</time>
      </trkpt>
      <trkpt lat="37.17009" lon="-2.87553">
        <ele>1032.053764</ele>
        <time>2022-02-24T22:03:11.182Z</time>
      </trkpt>
      <trkpt lat="37.17012" lon="-2.87482">
        <ele>1030.043195</ele>
        <time>2022-02-24T22:03:20.706Z</time>
      </trkpt>
      <trkpt lat="37.17002" lon="-2.87384">
        <ele>1027.36433</ele>
        <time>2022-02-24T22:03:33.679Z</time>
      </trkpt>
      <trkpt lat="37.16959" lon="-2.87229">
        <ele>1023.350262</ele>
        <time>2022-02-24T22:03:56.082Z</time>
      </trkpt>
      <trkpt lat="37.1693" lon="-2.87119">
        <ele>1021.158774</ele>
        <time>2022-02-24T22:04:12.837Z</time>
      </trkpt>
      <trkpt lat="37.16923" lon="-2.87049">
        <ele>1019.738339</ele>
        <time>2022-02-24T22:04:23.193Z</time>
      </trkpt>
      <trkpt lat="37.16929" lon="-2.86979">
        <ele>1017.96962</ele>
        <time>2022-02-24T22:04:33.686Z</time>
      </trkpt>
      <trkpt lat="37.17006" lon="-2.8657">
        <ele>1003.899721</ele>
        <time>2022-02-24T22:05:28.913Z</time>
      </trkpt>
      <trkpt lat="37.17024" lon="-2.86401">
        <ele>994.030244</ele>
        <time>2022-02-24T22:05:48.710Z</time>
      </trkpt>
      <trkpt lat="37.17013" lon="-2.86024">
        <ele>972.217572</ele>
        <time>2022-02-24T22:06:33.133Z</time>
      </trkpt>
      <trkpt lat="37.16999" lon="-2.8589">
        <ele>966.017684</ele>
        <time>2022-02-24T22:06:50.620Z</time>
      </trkpt>
      <trkpt lat="37.16988" lon="-2.85858">
        <ele>964.718591</ele>
        <time>2022-02-24T22:06:55.005Z</time>
      </trkpt>
      <trkpt lat="37.16987" lon="-2.85855">
        <ele>964.58671</ele>
        <time>2022-02-24T22:06:55.483Z</time>
      </trkpt>
      <trkpt lat="37.16929" lon="-2.8574">
        <ele>959.435943</ele>
        <time>2022-02-24T22:07:12.883Z</time>
      </trkpt>
      <trkpt lat="37.16916" lon="-2.85703">
        <ele>957.89327</ele>
        <time>2022-02-24T22:07:17.882Z</time>
      </trkpt>
      <trkpt lat="37.16914" lon="-2.85699">
        <ele>957.727125</ele>
        <time>2022-02-24T22:07:18.456Z</time>
      </trkpt>
      <trkpt lat="37.16896" lon="-2.85634">
        <ele>955.113301</ele>
        <time>2022-02-24T22:07:27.085Z</time>
      </trkpt>
      <trkpt lat="37.16888" lon="-2.85575">
        <ele>952.832743</ele>
        <time>2022-02-24T22:07:34.663Z</time>
      </trkpt>
      <trkpt lat="37.16888" lon="-2.85571">
        <ele>952.701259</ele>
        <time>2022-02-24T22:07:35.119Z</time>
      </trkpt>
      <trkpt lat="37.16878" lon="-2.85506">
        <ele>950.724864</ele>
        <time>2022-02-24T22:07:43.749Z</time>
      </trkpt>
      <trkpt lat="37.1686" lon="-2.85426">
        <ele>949.214331</ele>
        <time>2022-02-24T22:07:55.461Z</time>
      </trkpt>
      <trkpt lat="37.16765" lon="-2.85243">
        <ele>946.207762</ele>
        <time>2022-02-24T22:08:29.260Z</time>
      </trkpt>
      <trkpt lat="37.16752" lon="-2.85205">
        <ele>945.838732</ele>
        <time>2022-02-24T22:08:35.915Z</time>
      </trkpt>
      <trkpt lat="37.16735" lon="-2.85108">
        <ele>944.847657</ele>
        <time>2022-02-24T22:08:51.764Z</time>
      </trkpt>
      <trkpt lat="37.16667" lon="-2.84577">
        <ele>937.563158</ele>
        <time>2022-02-24T22:10:11.049Z</time>
      </trkpt>
      <trkpt lat="37.16662" lon="-2.84557">
        <ele>937.364827</ele>
        <time>2022-02-24T22:10:14.374Z</time>
      </trkpt>
      <trkpt lat="37.16633" lon="-2.84505">
        <ele>936.746377</ele>
        <time>2022-02-24T22:10:24.604Z</time>
      </trkpt>
      <trkpt lat="37.16526" lon="-2.84385">
        <ele>935.333719</ele>
        <time>2022-02-24T22:10:55.385Z</time>
      </trkpt>
      <trkpt lat="37.1651" lon="-2.84348">
        <ele>935.028271</ele>
        <time>2022-02-24T22:11:02.079Z</time>
      </trkpt>
      <trkpt lat="37.16498" lon="-2.84298">
        <ele>934.480377</ele>
        <time>2022-02-24T22:11:09.681Z</time>
      </trkpt>
      <trkpt lat="37.16485" lon="-2.84156">
        <ele>931.219762</ele>
        <time>2022-02-24T22:11:29.241Z</time>
      </trkpt>
      <trkpt lat="37.16484" lon="-2.84147">
        <ele>931.032553</ele>
        <time>2022-02-24T22:11:30.325Z</time>
      </trkpt>
      <trkpt lat="37.16483" lon="-2.84143">
        <ele>930.924104</ele>
        <time>2022-02-24T22:11:30.977Z</time>
      </trkpt>
      <trkpt lat="37.16472" lon="-2.8411">
        <ele>930.119923</ele>
        <time>2022-02-24T22:11:35.814Z</time>
      </trkpt>
      <trkpt lat="37.16469" lon="-2.84105">
        <ele>929.979784</ele>
        <time>2022-02-24T22:11:36.656Z</time>
      </trkpt>
      <trkpt lat="37.16454" lon="-2.84076">
        <ele>929.409859</ele>
        <time>2022-02-24T22:11:41.474Z</time>
      </trkpt>
      <trkpt lat="37.16436" lon="-2.84053">
        <ele>929.046686</ele>
        <time>2022-02-24T22:11:46.031Z</time>
      </trkpt>
      <trkpt lat="37.16395" lon="-2.84023">
        <ele>928.379589</ele>
        <time>2022-02-24T22:11:54.894Z</time>
      </trkpt>
      <trkpt lat="37.16327" lon="-2.83993">
        <ele>927.353492</ele>
        <time>2022-02-24T22:12:09.680Z</time>
      </trkpt>
      <trkpt lat="37.16285" lon="-2.83965">
        <ele>926.957943</ele>
        <time>2022-02-24T22:12:20.227Z</time>
      </trkpt>
      <trkpt lat="37.16254" lon="-2.8393">
        <ele>926.768038</ele>
        <time>2022-02-24T22:12:29.350Z</time>
      </trkpt>
      <trkpt lat="37.16233" lon="-2.83885">
        <ele>926.578394</ele>
        <time>2022-02-24T22:12:37.874Z</time>
      </trkpt>
      <trkpt lat="37.16176" lon="-2.83726">
        <ele>926.792923</ele>
        <time>2022-02-24T22:13:06.755Z</time>
      </trkpt>
      <trkpt lat="37.16163" lon="-2.83702">
        <ele>926.968767</ele>
        <time>2022-02-24T22:13:12.680Z</time>
      </trkpt>
      <trkpt lat="37.16145" lon="-2.83645">
        <ele>927.336076</ele>
        <time>2022-02-24T22:13:25.633Z</time>
      </trkpt>
      <trkpt lat="37.16119" lon="-2.83628">
        <ele>927.551551</ele>
        <time>2022-02-24T22:13:34.934Z</time>
      </trkpt>
      <trkpt lat="37.16036" lon="-2.83615">
        <ele>930.161536</ele>
        <time>2022-02-24T22:14:08.578Z</time>
      </trkpt>
      <trkpt lat="37.15961" lon="-2.83589">
        <ele>932.785211</ele>
        <time>2022-02-24T22:14:42.419Z</time>
      </trkpt>
      <trkpt lat="37.15931" lon="-2.83597">
        <ele>933.723843</ele>
        <time>2022-02-24T22:14:55.102Z</time>
      </trkpt>
      <trkpt lat="37.15928" lon="-2.83608">
        <ele>933.847058</ele>
        <time>2022-02-24T22:14:58.556Z</time>
      </trkpt>
      <trkpt lat="37.15914" lon="-2.83633">
        <ele>934.164273</ele>
        <time>2022-02-24T22:15:07.803Z</time>
      </trkpt>
      <trkpt lat="37.15899" lon="-2.83644">
        <ele>934.392494</ele>
        <time>2022-02-24T22:15:13.734Z</time>
      </trkpt>
      <trkpt lat="37.15876" lon="-2.83646">
        <ele>934.67986</ele>
        <time>2022-02-24T22:15:20.871Z</time>
      </trkpt>
      <trkpt lat="37.15862" lon="-2.8364">
        <ele>934.874963</ele>
        <time>2022-02-24T22:15:25.611Z</time>
      </trkpt>
      <trkpt lat="37.15855" lon="-2.83635">
        <ele>934.98151</ele>
        <time>2022-02-24T22:15:28.054Z</time>
      </trkpt>
      <trkpt lat="37.15843" lon="-2.83617">
        <ele>935.223887</ele>
        <time>2022-02-24T22:15:33.179Z</time>
      </trkpt>
      <trkpt lat="37.15836" lon="-2.83583">
        <ele>935.587497</ele>
        <time>2022-02-24T22:15:40.597Z</time>
      </trkpt>
      <trkpt lat="37.15824" lon="-2.83565">
        <ele>935.833674</ele>
        <time>2022-02-24T22:15:44.939Z</time>
      </trkpt>
      <trkpt lat="37.15816" lon="-2.83493">
        <ele>935.028126</ele>
        <time>2022-02-24T22:15:56.647Z</time>
      </trkpt>
      <trkpt lat="37.1577" lon="-2.83349">
        <ele>932.359113</ele>
        <time>2022-02-24T22:16:19.385Z</time>
      </trkpt>
      <trkpt lat="37.1573" lon="-2.83242">
        <ele>930.102571</ele>
        <time>2022-02-24T22:16:36.757Z</time>
      </trkpt>
      <trkpt lat="37.15705" lon="-2.8319">
        <ele>928.922895</ele>
        <time>2022-02-24T22:16:45.807Z</time>
      </trkpt>
      <trkpt lat="37.15697" lon="-2.83156">
        <ele>928.226556</ele>
        <time>2022-02-24T22:16:51.205Z</time>
      </trkpt>
      <trkpt lat="37.15598" lon="-2.82891">
        <ele>923.882168</ele>
        <time>2022-02-24T22:17:36.727Z</time>
      </trkpt>
      <trkpt lat="37.15439" lon="-2.82388">
        <ele>915.602822</ele>
        <time>2022-02-24T22:19:00.688Z</time>
      </trkpt>
      <trkpt lat="37.15399" lon="-2.82233">
        <ele>912.1917</ele>
        <time>2022-02-24T22:19:24.293Z</time>
      </trkpt>
      <trkpt lat="37.15343" lon="-2.82048">
        <ele>907.335866</ele>
        <time>2022-02-24T22:19:52.539Z</time>
      </trkpt>
      <trkpt lat="37.1533" lon="-2.81983">
        <ele>905.693468</ele>
        <time>2022-02-24T22:20:02.116Z</time>
      </trkpt>
      <trkpt lat="37.15307" lon="-2.81926">
        <ele>904.111304</ele>
        <time>2022-02-24T22:20:11.446Z</time>
      </trkpt>
      <trkpt lat="37.15301" lon="-2.81863">
        <ele>902.561145</ele>
        <time>2022-02-24T22:20:20.635Z</time>
      </trkpt>
      <trkpt lat="37.15259" lon="-2.81707">
        <ele>898.585612</ele>
        <time>2022-02-24T22:20:44.271Z</time>
      </trkpt>
      <trkpt lat="37.15251" lon="-2.81653">
        <ele>897.258518</ele>
        <time>2022-02-24T22:20:52.306Z</time>
      </trkpt>
      <trkpt lat="37.15232" lon="-2.81577">
        <ele>895.223214</ele>
        <time>2022-02-24T22:21:03.849Z</time>
      </trkpt>
      <trkpt lat="37.15223" lon="-2.81519">
        <ele>893.726658</ele>
        <time>2022-02-24T22:21:12.206Z</time>
      </trkpt>
      <trkpt lat="37.15199" lon="-2.81486">
        <ele>892.602091</ele>
        <time>2022-02-24T22:21:18.497Z</time>
      </trkpt>
      <trkpt lat="37.15196" lon="-2.81468">
        <ele>892.136242</ele>
        <time>2022-02-24T22:21:21.102Z</time>
      </trkpt>
      <trkpt lat="37.15203" lon="-2.81473">
        <ele>891.887584</ele>
        <time>2022-02-24T22:21:22.541Z</time>
      </trkpt>
      <trkpt lat="37.15207" lon="-2.81423">
        <ele>890.521892</ele>
        <time>2022-02-24T22:21:29.639Z</time>
      </trkpt>
      <trkpt lat="37.1513" lon="-2.811">
        <ele>881.103848</ele>
        <time>2022-02-24T22:22:17.006Z</time>
      </trkpt>
      <trkpt lat="37.15031" lon="-2.80767">
        <ele>871.620999</ele>
        <time>2022-02-24T22:23:07.083Z</time>
      </trkpt>
      <trkpt lat="37.14988" lon="-2.80641">
        <ele>868.885095</ele>
        <time>2022-02-24T22:23:27.516Z</time>
      </trkpt>
      <trkpt lat="37.14955" lon="-2.80567">
        <ele>867.620727</ele>
        <time>2022-02-24T22:23:41.012Z</time>
      </trkpt>
      <trkpt lat="37.14917" lon="-2.80453">
        <ele>866.165245</ele>
        <time>2022-02-24T22:24:01.139Z</time>
      </trkpt>
      <trkpt lat="37.14883" lon="-2.80368">
        <ele>864.58216</ele>
        <time>2022-02-24T22:24:16.323Z</time>
      </trkpt>
      <trkpt lat="37.14835" lon="-2.80207">
        <ele>860.806157</ele>
        <time>2022-02-24T22:24:41.055Z</time>
      </trkpt>
      <trkpt lat="37.14801" lon="-2.80034">
        <ele>856.321761</ele>
        <time>2022-02-24T22:25:05.887Z</time>
      </trkpt>
      <trkpt lat="37.14793" lon="-2.79972">
        <ele>854.869597</ele>
        <time>2022-02-24T22:25:15.067Z</time>
      </trkpt>
      <trkpt lat="37.14765" lon="-2.79886">
        <ele>854.31917</ele>
        <time>2022-02-24T22:25:30.258Z</time>
      </trkpt>
      <trkpt lat="37.14731" lon="-2.79805">
        <ele>853.780275</ele>
        <time>2022-02-24T22:25:47.634Z</time>
      </trkpt>
      <trkpt lat="37.14711" lon="-2.79778">
        <ele>853.573673</ele>
        <time>2022-02-24T22:25:54.402Z</time>
      </trkpt>
      <trkpt lat="37.14672" lon="-2.79753">
        <ele>853.633257</ele>
        <time>2022-02-24T22:26:04.279Z</time>
      </trkpt>
      <trkpt lat="37.1466" lon="-2.79732">
        <ele>853.660764</ele>
        <time>2022-02-24T22:26:08.729Z</time>
      </trkpt>
      <trkpt lat="37.14664" lon="-2.79703">
        <ele>853.692879</ele>
        <time>2022-02-24T22:26:14.224Z</time>
      </trkpt>
      <trkpt lat="37.14659" lon="-2.79676">
        <ele>853.722858</ele>
        <time>2022-02-24T22:26:19.105Z</time>
      </trkpt>
      <trkpt lat="37.14667" lon="-2.79656">
        <ele>853.746421</ele>
        <time>2022-02-24T22:26:23.108Z</time>
      </trkpt>
      <trkpt lat="37.14674" lon="-2.7965">
        <ele>853.758377</ele>
        <time>2022-02-24T22:26:25.159Z</time>
      </trkpt>
      <trkpt lat="37.14678" lon="-2.79596">
        <ele>853.804161</ele>
        <time>2022-02-24T22:26:36.889Z</time>
      </trkpt>
      <trkpt lat="37.14678" lon="-2.79587">
        <ele>853.753624</ele>
        <time>2022-02-24T22:26:39.051Z</time>
      </trkpt>
      <trkpt lat="37.14678" lon="-2.79571">
        <ele>853.667766</ele>
        <time>2022-02-24T22:26:42.635Z</time>
      </trkpt>
      <trkpt lat="37.14685" lon="-2.79492">
        <ele>853.234284</ele>
        <time>2022-02-24T22:26:57.429Z</time>
      </trkpt>
      <trkpt lat="37.14688" lon="-2.79466">
        <ele>853.093139</ele>
        <time>2022-02-24T22:27:01.766Z</time>
      </trkpt>
      <trkpt lat="37.14694" lon="-2.79422">
        <ele>852.848115</ele>
        <time>2022-02-24T22:27:08.765Z</time>
      </trkpt>
      <trkpt lat="37.14694" lon="-2.79377">
        <ele>852.60466</ele>
        <time>2022-02-24T22:27:15.364Z</time>
      </trkpt>
      <trkpt lat="37.14666" lon="-2.79165">
        <ele>847.966025</ele>
        <time>2022-02-24T22:27:44.599Z</time>
      </trkpt>
      <trkpt lat="37.14649" lon="-2.79094">
        <ele>847.683958</ele>
        <time>2022-02-24T22:27:55.534Z</time>
      </trkpt>
      <trkpt lat="37.14583" lon="-2.78937">
        <ele>847.807121</ele>
        <time>2022-02-24T22:28:33.283Z</time>
      </trkpt>
      <trkpt lat="37.14563" lon="-2.78877">
        <ele>848.182646</ele>
        <time>2022-02-24T22:28:49.467Z</time>
      </trkpt>
      <trkpt lat="37.14542" lon="-2.78814">
        <ele>848.566647</ele>
        <time>2022-02-24T22:29:04.220Z</time>
      </trkpt>
      <trkpt lat="37.14511" lon="-2.78686">
        <ele>848.769926</ele>
        <time>2022-02-24T22:29:27.958Z</time>
      </trkpt>
      <trkpt lat="37.14491" lon="-2.78561">
        <ele>848.151972</ele>
        <time>2022-02-24T22:29:48.419Z</time>
      </trkpt>
      <trkpt lat="37.14477" lon="-2.78399">
        <ele>847.771813</ele>
        <time>2022-02-24T22:30:14.869Z</time>
      </trkpt>
      <trkpt lat="37.14463" lon="-2.78172">
        <ele>848.150787</ele>
        <time>2022-02-24T22:30:59.588Z</time>
      </trkpt>
      <trkpt lat="37.14445" lon="-2.77863">
        <ele>848.372405</ele>
        <time>2022-02-24T22:32:01.958Z</time>
      </trkpt>
      <trkpt lat="37.14443" lon="-2.77842">
        <ele>848.331096</ele>
        <time>2022-02-24T22:32:04.966Z</time>
      </trkpt>
      <trkpt lat="37.14443" lon="-2.77827">
        <ele>847.773645</ele>
        <time>2022-02-24T22:32:06.911Z</time>
      </trkpt>
      <trkpt lat="37.14442" lon="-2.77803">
        <ele>846.805796</ele>
        <time>2022-02-24T22:32:10.233Z</time>
      </trkpt>
      <trkpt lat="37.14441" lon="-2.77684">
        <ele>842.153398</ele>
        <time>2022-02-24T22:32:25.253Z</time>
      </trkpt>
      <trkpt lat="37.14445" lon="-2.77541">
        <ele>835.97907</ele>
        <time>2022-02-24T22:32:42.331Z</time>
      </trkpt>
      <trkpt lat="37.14447" lon="-2.77497">
        <ele>833.908215</ele>
        <time>2022-02-24T22:32:47.697Z</time>
      </trkpt>
      <trkpt lat="37.14447" lon="-2.77489">
        <ele>833.503244</ele>
        <time>2022-02-24T22:32:48.753Z</time>
      </trkpt>
      <trkpt lat="37.14448" lon="-2.77476">
        <ele>832.88045</ele>
        <time>2022-02-24T22:32:50.398Z</time>
      </trkpt>
      <trkpt lat="37.14451" lon="-2.77427">
        <ele>830.606739</ele>
        <time>2022-02-24T22:32:56.433Z</time>
      </trkpt>
      <trkpt lat="37.14452" lon="-2.77424">
        <ele>830.451495</ele>
        <time>2022-02-24T22:32:56.852Z</time>
      </trkpt>
      <trkpt lat="37.14452" lon="-2.77419">
        <ele>830.211094</ele>
        <time>2022-02-24T22:32:57.489Z</time>
      </trkpt>
      <trkpt lat="37.14453" lon="-2.77396">
        <ele>829.145913</ele>
        <time>2022-02-24T22:33:00.365Z</time>
      </trkpt>
      <trkpt lat="37.14455" lon="-2.77364">
        <ele>828.101103</ele>
        <time>2022-02-24T22:33:04.489Z</time>
      </trkpt>
      <trkpt lat="37.14458" lon="-2.77309">
        <ele>826.450641</ele>
        <time>2022-02-24T22:33:11.759Z</time>
      </trkpt>
      <trkpt lat="37.14459" lon="-2.77297">
        <ele>826.087317</ele>
        <time>2022-02-24T22:33:13.403Z</time>
      </trkpt>
      <trkpt lat="37.14463" lon="-2.77236">
        <ele>824.288199</ele>
        <time>2022-02-24T22:33:21.607Z</time>
      </trkpt>
      <trkpt lat="37.14463" lon="-2.7722">
        <ele>823.794609</ele>
        <time>2022-02-24T22:33:23.898Z</time>
      </trkpt>
      <trkpt lat="37.14474" lon="-2.77116">
        <ele>820.683523</ele>
        <time>2022-02-24T22:33:38.273Z</time>
      </trkpt>
      <trkpt lat="37.14499" lon="-2.77029">
        <ele>817.9502</ele>
        <time>2022-02-24T22:33:50.599Z</time>
      </trkpt>
      <trkpt lat="37.14519" lon="-2.76977">
        <ele>816.224448</ele>
        <time>2022-02-24T22:33:58.209Z</time>
      </trkpt>
      <trkpt lat="37.14569" lon="-2.76888">
        <ele>812.813415</ele>
        <time>2022-02-24T22:34:12.218Z</time>
      </trkpt>
      <trkpt lat="37.14755" lon="-2.76581">
        <ele>801.532526</ele>
        <time>2022-02-24T22:35:03.441Z</time>
      </trkpt>
      <trkpt lat="37.148" lon="-2.76523">
        <ele>800.060409</ele>
        <time>2022-02-24T22:35:15.086Z</time>
      </trkpt>
      <trkpt lat="37.14944" lon="-2.76364">
        <ele>795.497668</ele>
        <time>2022-02-24T22:35:50.699Z</time>
      </trkpt>
      <trkpt lat="37.14971" lon="-2.76335">
        <ele>794.621454</ele>
        <time>2022-02-24T22:35:56.862Z</time>
      </trkpt>
      <trkpt lat="37.15004" lon="-2.76295">
        <ele>793.495083</ele>
        <time>2022-02-24T22:36:04.702Z</time>
      </trkpt>
      <trkpt lat="37.1503" lon="-2.76249">
        <ele>791.699424</ele>
        <time>2022-02-24T22:36:12.429Z</time>
      </trkpt>
      <trkpt lat="37.15041" lon="-2.76231">
        <ele>790.943918</ele>
        <time>2022-02-24T22:36:15.301Z</time>
      </trkpt>
      <trkpt lat="37.15075" lon="-2.76155">
        <ele>787.973934</ele>
        <time>2022-02-24T22:36:26.555Z</time>
      </trkpt>
      <trkpt lat="37.15098" lon="-2.76091">
        <ele>785.611806</ele>
        <time>2022-02-24T22:36:35.527Z</time>
      </trkpt>
      <trkpt lat="37.15115" lon="-2.76041">
        <ele>783.922437</ele>
        <time>2022-02-24T22:36:42.426Z</time>
      </trkpt>
      <trkpt lat="37.15128" lon="-2.75982">
        <ele>782.014642</ele>
        <time>2022-02-24T22:36:50.461Z</time>
      </trkpt>
      <trkpt lat="37.15138" lon="-2.75875">
        <ele>778.662483</ele>
        <time>2022-02-24T22:37:04.767Z</time>
      </trkpt>
      <trkpt lat="37.15121" lon="-2.75743">
        <ele>777.453864</ele>
        <time>2022-02-24T22:37:24.501Z</time>
      </trkpt>
      <trkpt lat="37.15121" lon="-2.75702">
        <ele>777.083188</ele>
        <time>2022-02-24T22:37:31.385Z</time>
      </trkpt>
      <trkpt lat="37.15129" lon="-2.75673">
        <ele>776.810501</ele>
        <time>2022-02-24T22:37:36.990Z</time>
      </trkpt>
      <trkpt lat="37.15161" lon="-2.75608">
        <ele>777.120128</ele>
        <time>2022-02-24T22:37:53.768Z</time>
      </trkpt>
      <trkpt lat="37.1517" lon="-2.75584">
        <ele>777.356054</ele>
        <time>2022-02-24T22:38:00.459Z</time>
      </trkpt>
      <trkpt lat="37.15173" lon="-2.75554">
        <ele>777.628143</ele>
        <time>2022-02-24T22:38:08.553Z</time>
      </trkpt>
      <trkpt lat="37.15169" lon="-2.75521">
        <ele>777.929562</ele>
        <time>2022-02-24T22:38:17.036Z</time>
      </trkpt>
      <trkpt lat="37.15155" lon="-2.75482">
        <ele>778.313277</ele>
        <time>2022-02-24T22:38:28.082Z</time>
      </trkpt>
      <trkpt lat="37.15105" lon="-2.75398">
        <ele>778.53027</ele>
        <time>2022-02-24T22:38:46.185Z</time>
      </trkpt>
      <trkpt lat="37.15092" lon="-2.75375">
        <ele>778.481085</ele>
        <time>2022-02-24T22:38:50.219Z</time>
      </trkpt>
      <trkpt lat="37.15072" lon="-2.75356">
        <ele>778.423782</ele>
        <time>2022-02-24T22:38:55.545Z</time>
      </trkpt>
      <trkpt lat="37.15048" lon="-2.75352">
        <ele>778.370329</ele>
        <time>2022-02-24T22:39:02.506Z</time>
      </trkpt>
      <trkpt lat="37.15026" lon="-2.75363">
        <ele>778.318696</ele>
        <time>2022-02-24T22:39:07.558Z</time>
      </trkpt>
      <trkpt lat="37.15021" lon="-2.75368">
        <ele>778.30333</ele>
        <time>2022-02-24T22:39:09.432Z</time>
      </trkpt>
      <trkpt lat="37.14955" lon="-2.75437">
        <ele>777.578081</ele>
        <time>2022-02-24T22:39:27.022Z</time>
      </trkpt>
      <trkpt lat="37.14942" lon="-2.75448">
        <ele>777.40762</ele>
        <time>2022-02-24T22:39:29.909Z</time>
      </trkpt>
      <trkpt lat="37.14922" lon="-2.7545">
        <ele>777.188387</ele>
        <time>2022-02-24T22:39:33.745Z</time>
      </trkpt>
      <trkpt lat="37.14902" lon="-2.75441">
        <ele>776.955253</ele>
        <time>2022-02-24T22:39:37.590Z</time>
      </trkpt>
      <trkpt lat="37.14864" lon="-2.75386">
        <ele>776.323866</ele>
        <time>2022-02-24T22:39:49.815Z</time>
      </trkpt>
      <trkpt lat="37.1484" lon="-2.75366">
        <ele>775.494206</ele>
        <time>2022-02-24T22:39:55.618Z</time>
      </trkpt>
      <trkpt lat="37.14529" lon="-2.7522">
        <ele>764.42691</ele>
        <time>2022-02-24T22:40:50.859Z</time>
      </trkpt>
      <trkpt lat="37.14476" lon="-2.752">
        <ele>764.111808</ele>
        <time>2022-02-24T22:41:01.049Z</time>
      </trkpt>
      <trkpt lat="37.14396" lon="-2.75148">
        <ele>763.71413</ele>
        <time>2022-02-24T22:41:20.828Z</time>
      </trkpt>
      <trkpt lat="37.14365" lon="-2.75122">
        <ele>763.560424</ele>
        <time>2022-02-24T22:41:32.930Z</time>
      </trkpt>
      <trkpt lat="37.14326" lon="-2.75075">
        <ele>763.999657</ele>
        <time>2022-02-24T22:41:48.795Z</time>
      </trkpt>
      <trkpt lat="37.14283" lon="-2.74989">
        <ele>764.661137</ele>
        <time>2022-02-24T22:42:12.169Z</time>
      </trkpt>
      <trkpt lat="37.14217" lon="-2.74817">
        <ele>763.147954</ele>
        <time>2022-02-24T22:42:43.752Z</time>
      </trkpt>
      <trkpt lat="37.14184" lon="-2.74756">
        <ele>762.123656</ele>
        <time>2022-02-24T22:42:53.722Z</time>
      </trkpt>
      <trkpt lat="37.14151" lon="-2.74717">
        <ele>760.587112</ele>
        <time>2022-02-24T22:43:01.303Z</time>
      </trkpt>
      <trkpt lat="37.14117" lon="-2.74689">
        <ele>758.959071</ele>
        <time>2022-02-24T22:43:07.855Z</time>
      </trkpt>
      <trkpt lat="37.13791" lon="-2.74465">
        <ele>745.338649</ele>
        <time>2022-02-24T22:44:08.887Z</time>
      </trkpt>
      <trkpt lat="37.13752" lon="-2.74431">
        <ele>744.202684</ele>
        <time>2022-02-24T22:44:17.808Z</time>
      </trkpt>
      <trkpt lat="37.1343" lon="-2.74053">
        <ele>742.697924</ele>
        <time>2022-02-24T22:45:55.407Z</time>
      </trkpt>
      <trkpt lat="37.13334" lon="-2.73934">
        <ele>742.083947</ele>
        <time>2022-02-24T22:46:23.200Z</time>
      </trkpt>
      <trkpt lat="37.13289" lon="-2.73866">
        <ele>742.343163</ele>
        <time>2022-02-24T22:46:38.013Z</time>
      </trkpt>
      <trkpt lat="37.13172" lon="-2.73609">
        <ele>744.135533</ele>
        <time>2022-02-24T22:47:43.277Z</time>
      </trkpt>
      <trkpt lat="37.13145" lon="-2.73499">
        <ele>744.45507</ele>
        <time>2022-02-24T22:48:08.757Z</time>
      </trkpt>
      <trkpt lat="37.13138" lon="-2.73428">
        <ele>743.766221</ele>
        <time>2022-02-24T22:48:21.483Z</time>
      </trkpt>
      <trkpt lat="37.13148" lon="-2.73187">
        <ele>740.131745</ele>
        <time>2022-02-24T22:48:55.218Z</time>
      </trkpt>
      <trkpt lat="37.13145" lon="-2.73042">
        <ele>736.892187</ele>
        <time>2022-02-24T22:49:15.921Z</time>
      </trkpt>
      <trkpt lat="37.13139" lon="-2.73041">
        <ele>736.696056</ele>
        <time>2022-02-24T22:49:18.169Z</time>
      </trkpt>
      <trkpt lat="37.13134" lon="-2.7303">
        <ele>736.34772</ele>
        <time>2022-02-24T22:49:20.002Z</time>
      </trkpt>
      <trkpt lat="37.13133" lon="-2.72966">
        <ele>734.660798</ele>
        <time>2022-02-24T22:49:28.828Z</time>
      </trkpt>
      <trkpt lat="37.13146" lon="-2.72903">
        <ele>732.933282</ele>
        <time>2022-02-24T22:49:38.128Z</time>
      </trkpt>
      <trkpt lat="37.13173" lon="-2.72842">
        <ele>730.646078</ele>
        <time>2022-02-24T22:49:47.733Z</time>
      </trkpt>
      <trkpt lat="37.13193" lon="-2.72817">
        <ele>729.279795</ele>
        <time>2022-02-24T22:49:52.386Z</time>
      </trkpt>
      <trkpt lat="37.13204" lon="-2.72778">
        <ele>727.639982</ele>
        <time>2022-02-24T22:49:57.643Z</time>
      </trkpt>
      <trkpt lat="37.13219" lon="-2.7272">
        <ele>725.237818</ele>
        <time>2022-02-24T22:50:05.223Z</time>
      </trkpt>
      <trkpt lat="37.13251" lon="-2.72606">
        <ele>720.829748</ele>
        <time>2022-02-24T22:50:20.417Z</time>
      </trkpt>
      <trkpt lat="37.13257" lon="-2.72585">
        <ele>720.048513</ele>
        <time>2022-02-24T22:50:23.349Z</time>
      </trkpt>
      <trkpt lat="37.13262" lon="-2.7257">
        <ele>719.477619</ele>
        <time>2022-02-24T22:50:25.493Z</time>
      </trkpt>
      <trkpt lat="37.13263" lon="-2.72566">
        <ele>719.315897</ele>
        <time>2022-02-24T22:50:26.090Z</time>
      </trkpt>
      <trkpt lat="37.13283" lon="-2.72507">
        <ele>717.096458</ele>
        <time>2022-02-24T22:50:34.480Z</time>
      </trkpt>
      <trkpt lat="37.13455" lon="-2.72229">
        <ele>705.887878</ele>
        <time>2022-02-24T22:51:20.519Z</time>
      </trkpt>
      <trkpt lat="37.1348" lon="-2.72147">
        <ele>703.449507</ele>
        <time>2022-02-24T22:51:32.396Z</time>
      </trkpt>
      <trkpt lat="37.13484" lon="-2.72087">
        <ele>701.766681</ele>
        <time>2022-02-24T22:51:40.735Z</time>
      </trkpt>
      <trkpt lat="37.13483" lon="-2.72054">
        <ele>701.049328</ele>
        <time>2022-02-24T22:51:45.210Z</time>
      </trkpt>
      <trkpt lat="37.13471" lon="-2.71944">
        <ele>698.638876</ele>
        <time>2022-02-24T22:52:00.773Z</time>
      </trkpt>
      <trkpt lat="37.13459" lon="-2.71825">
        <ele>696.279428</ele>
        <time>2022-02-24T22:52:17.641Z</time>
      </trkpt>
      <trkpt lat="37.13461" lon="-2.71714">
        <ele>694.60133</ele>
        <time>2022-02-24T22:52:33.932Z</time>
      </trkpt>
      <trkpt lat="37.13486" lon="-2.71374">
        <ele>690.206127</ele>
        <time>2022-02-24T22:53:26.036Z</time>
      </trkpt>
      <trkpt lat="37.13479" lon="-2.71275">
        <ele>688.739004</ele>
        <time>2022-02-24T22:53:40.484Z</time>
      </trkpt>
      <trkpt lat="37.13478" lon="-2.71253">
        <ele>688.412215</ele>
        <time>2022-02-24T22:53:43.715Z</time>
      </trkpt>
      <trkpt lat="37.13479" lon="-2.71247">
        <ele>688.332202</ele>
        <time>2022-02-24T22:53:44.512Z</time>
      </trkpt>
      <trkpt lat="37.13482" lon="-2.71224">
        <ele>687.980342</ele>
        <time>2022-02-24T22:53:47.991Z</time>
      </trkpt>
      <trkpt lat="37.13506" lon="-2.71104">
        <ele>687.243664</ele>
        <time>2022-02-24T22:54:06.491Z</time>
      </trkpt>
      <trkpt lat="37.1355" lon="-2.70767">
        <ele>688.80304</ele>
        <time>2022-02-24T22:55:15.981Z</time>
      </trkpt>
      <trkpt lat="37.13577" lon="-2.70601">
        <ele>693.200722</ele>
        <time>2022-02-24T22:56:09.122Z</time>
      </trkpt>
      <trkpt lat="37.13601" lon="-2.70503">
        <ele>696.406905</ele>
        <time>2022-02-24T22:56:44.135Z</time>
      </trkpt>
      <trkpt lat="37.13638" lon="-2.70385">
        <ele>701.743646</ele>
        <time>2022-02-24T22:57:34.453Z</time>
      </trkpt>
      <trkpt lat="37.13665" lon="-2.70284">
        <ele>705.949596</ele>
        <time>2022-02-24T22:58:17.625Z</time>
      </trkpt>
      <trkpt lat="37.13673" lon="-2.70257">
        <ele>706.863768</ele>
        <time>2022-02-24T22:58:28.702Z</time>
      </trkpt>
      <trkpt lat="37.13687" lon="-2.70211">
        <ele>708.450654</ele>
        <time>2022-02-24T22:58:46.895Z</time>
      </trkpt>
      <trkpt lat="37.1374" lon="-2.70064">
        <ele>713.066271</ele>
        <time>2022-02-24T22:59:35.735Z</time>
      </trkpt>
      <trkpt lat="37.13765" lon="-2.70015">
        <ele>714.170199</ele>
        <time>2022-02-24T22:59:47.597Z</time>
      </trkpt>
      <trkpt lat="37.14012" lon="-2.69587">
        <ele>724.996786</ele>
        <time>2022-02-24T23:02:13.857Z</time>
      </trkpt>
      <trkpt lat="37.14054" lon="-2.69511">
        <ele>727.841463</ele>
        <time>2022-02-24T23:02:46.254Z</time>
      </trkpt>
      <trkpt lat="37.14086" lon="-2.69419">
        <ele>731.640621</ele>
        <time>2022-02-24T23:03:23.982Z</time>
      </trkpt>
      <trkpt lat="37.14098" lon="-2.69323">
        <ele>735.288015</ele>
        <time>2022-02-24T23:04:02.881Z</time>
      </trkpt>
      <trkpt lat="37.14098" lon="-2.6928">
        <ele>736.810008</ele>
        <time>2022-02-24T23:04:19.997Z</time>
      </trkpt>
      <trkpt lat="37.14092" lon="-2.69238">
        <ele>738.322355</ele>
        <time>2022-02-24T23:04:36.679Z</time>
      </trkpt>
      <trkpt lat="37.14075" lon="-2.6916">
        <ele>741.211389</ele>
        <time>2022-02-24T23:05:06.336Z</time>
      </trkpt>
      <trkpt lat="37.14049" lon="-2.69096">
        <ele>742.929142</ele>
        <time>2022-02-24T23:05:29.420Z</time>
      </trkpt>
      <trkpt lat="37.13915" lon="-2.68859">
        <ele>743.891487</ele>
        <time>2022-02-24T23:06:27.076Z</time>
      </trkpt>
      <trkpt lat="37.13891" lon="-2.68806">
        <ele>743.487479</ele>
        <time>2022-02-24T23:06:36.808Z</time>
      </trkpt>
      <trkpt lat="37.13867" lon="-2.68723">
        <ele>742.742291</ele>
        <time>2022-02-24T23:06:50.632Z</time>
      </trkpt>
      <trkpt lat="37.13854" lon="-2.68655">
        <ele>741.746828</ele>
        <time>2022-02-24T23:07:01.151Z</time>
      </trkpt>
      <trkpt lat="37.13849" lon="-2.68588">
        <ele>740.77215</ele>
        <time>2022-02-24T23:07:11.539Z</time>
      </trkpt>
      <trkpt lat="37.13849" lon="-2.6845">
        <ele>740.045801</ele>
        <time>2022-02-24T23:07:33.466Z</time>
      </trkpt>
      <trkpt lat="37.13888" lon="-2.67117">
        <ele>745.365339</ele>
        <time>2022-02-24T23:12:11.522Z</time>
      </trkpt>
      <trkpt lat="37.13892" lon="-2.66968">
        <ele>746.475244</ele>
        <time>2022-02-24T23:12:44.567Z</time>
      </trkpt>
      <trkpt lat="37.13893" lon="-2.66928">
        <ele>746.815475</ele>
        <time>2022-02-24T23:12:53.773Z</time>
      </trkpt>
      <trkpt lat="37.13902" lon="-2.66449">
        <ele>752.477443</ele>
        <time>2022-02-24T23:14:49.478Z</time>
      </trkpt>
      <trkpt lat="37.13896" lon="-2.66379">
        <ele>753.827716</ele>
        <time>2022-02-24T23:15:07.803Z</time>
      </trkpt>
      <trkpt lat="37.13884" lon="-2.66315">
        <ele>755.095725</ele>
        <time>2022-02-24T23:15:26.905Z</time>
      </trkpt>
      <trkpt lat="37.13838" lon="-2.66203">
        <ele>758.567135</ele>
        <time>2022-02-24T23:16:07.440Z</time>
      </trkpt>
      <trkpt lat="37.13809" lon="-2.66165">
        <ele>760.299715</ele>
        <time>2022-02-24T23:16:26.567Z</time>
      </trkpt>
      <trkpt lat="37.13764" lon="-2.66113">
        <ele>762.796157</ele>
        <time>2022-02-24T23:16:54.882Z</time>
      </trkpt>
      <trkpt lat="37.13664" lon="-2.66018">
        <ele>768.491149</ele>
        <time>2022-02-24T23:17:52.081Z</time>
      </trkpt>
      <trkpt lat="37.13639" lon="-2.65985">
        <ele>770.149496</ele>
        <time>2022-02-24T23:18:08.621Z</time>
      </trkpt>
      <trkpt lat="37.13591" lon="-2.65885">
        <ele>774.980778</ele>
        <time>2022-02-24T23:18:52.847Z</time>
      </trkpt>
      <trkpt lat="37.13575" lon="-2.65819">
        <ele>778.023341</ele>
        <time>2022-02-24T23:19:20.798Z</time>
      </trkpt>
      <trkpt lat="37.13568" lon="-2.65759">
        <ele>780.673961</ele>
        <time>2022-02-24T23:19:46.405Z</time>
      </trkpt>
      <trkpt lat="37.13566" lon="-2.6562">
        <ele>786.197666</ele>
        <time>2022-02-24T23:20:47.349Z</time>
      </trkpt>
      <trkpt lat="37.1357" lon="-2.65541">
        <ele>789.297198</ele>
        <time>2022-02-24T23:21:16.502Z</time>
      </trkpt>
      <trkpt lat="37.13574" lon="-2.65492">
        <ele>790.175081</ele>
        <time>2022-02-24T23:21:30.514Z</time>
      </trkpt>
      <trkpt lat="37.13587" lon="-2.65436">
        <ele>789.600042</ele>
        <time>2022-02-24T23:21:42.725Z</time>
      </trkpt>
      <trkpt lat="37.1361" lon="-2.65372">
        <ele>788.910799</ele>
        <time>2022-02-24T23:21:53.705Z</time>
      </trkpt>
      <trkpt lat="37.13651" lon="-2.65305">
        <ele>787.848444</ele>
        <time>2022-02-24T23:22:05.432Z</time>
      </trkpt>
      <trkpt lat="37.13706" lon="-2.65233">
        <ele>783.975438</ele>
        <time>2022-02-24T23:22:18.621Z</time>
      </trkpt>
      <trkpt lat="37.13741" lon="-2.65174">
        <ele>781.096632</ele>
        <time>2022-02-24T23:22:28.312Z</time>
      </trkpt>
      <trkpt lat="37.13757" lon="-2.65133">
        <ele>779.30399</ele>
        <time>2022-02-24T23:22:34.375Z</time>
      </trkpt>
      <trkpt lat="37.13767" lon="-2.65088">
        <ele>777.618037</ele>
        <time>2022-02-24T23:22:40.545Z</time>
      </trkpt>
      <trkpt lat="37.13773" lon="-2.6504">
        <ele>775.835999</ele>
        <time>2022-02-24T23:22:47.142Z</time>
      </trkpt>
      <trkpt lat="37.13767" lon="-2.64959">
        <ele>772.837937</ele>
        <time>2022-02-24T23:22:58.164Z</time>
      </trkpt>
      <trkpt lat="37.13757" lon="-2.64923">
        <ele>771.429932</ele>
        <time>2022-02-24T23:23:03.355Z</time>
      </trkpt>
      <trkpt lat="37.13715" lon="-2.64826">
        <ele>768.344736</ele>
        <time>2022-02-24T23:23:18.484Z</time>
      </trkpt>
      <trkpt lat="37.13696" lon="-2.6478">
        <ele>766.944162</ele>
        <time>2022-02-24T23:23:25.792Z</time>
      </trkpt>
      <trkpt lat="37.1365" lon="-2.64563">
        <ele>762.096938</ele>
        <time>2022-02-24T23:23:59.167Z</time>
      </trkpt>
      <trkpt lat="37.13633" lon="-2.64514">
        <ele>761.08706</ele>
        <time>2022-02-24T23:24:07.408Z</time>
      </trkpt>
      <trkpt lat="37.13604" lon="-2.64453">
        <ele>759.718349</ele>
        <time>2022-02-24T23:24:18.133Z</time>
      </trkpt>
      <trkpt lat="37.1353" lon="-2.6433">
        <ele>756.690098</ele>
        <time>2022-02-24T23:24:40.991Z</time>
      </trkpt>
      <trkpt lat="37.13507" lon="-2.64303">
        <ele>755.834939</ele>
        <time>2022-02-24T23:24:46.784Z</time>
      </trkpt>
      <trkpt lat="37.13412" lon="-2.64204">
        <ele>752.194884</ele>
        <time>2022-02-24T23:25:09.294Z</time>
      </trkpt>
      <trkpt lat="37.13358" lon="-2.64161">
        <ele>750.317929</ele>
        <time>2022-02-24T23:25:20.693Z</time>
      </trkpt>
      <trkpt lat="37.13311" lon="-2.64103">
        <ele>748.436091</ele>
        <time>2022-02-24T23:25:32.460Z</time>
      </trkpt>
      <trkpt lat="37.13279" lon="-2.64173">
        <ele>746.613979</ele>
        <time>2022-02-24T23:25:43.968Z</time>
      </trkpt>
      <trkpt lat="37.12943" lon="-2.63941">
        <ele>739.699907</ele>
        <time>2022-02-24T23:26:58.510Z</time>
      </trkpt>
      <trkpt lat="37.12887" lon="-2.63892">
        <ele>740.207174</ele>
        <time>2022-02-24T23:27:14.831Z</time>
      </trkpt>
      <trkpt lat="37.12774" lon="-2.63781">
        <ele>742.346926</ele>
        <time>2022-02-24T23:27:58.511Z</time>
      </trkpt>
      <trkpt lat="37.12745" lon="-2.63757">
        <ele>743.730571</ele>
        <time>2022-02-24T23:28:13.154Z</time>
      </trkpt>
      <trkpt lat="37.12731" lon="-2.63749">
        <ele>744.347524</ele>
        <time>2022-02-24T23:28:19.926Z</time>
      </trkpt>
      <trkpt lat="37.1271" lon="-2.63747">
        <ele>745.18184</ele>
        <time>2022-02-24T23:28:29.341Z</time>
      </trkpt>
      <trkpt lat="37.12703" lon="-2.63746">
        <ele>745.454008</ele>
        <time>2022-02-24T23:28:32.330Z</time>
      </trkpt>
      <trkpt lat="37.12694" lon="-2.63735">
        <ele>745.982408</ele>
        <time>2022-02-24T23:28:38.483Z</time>
      </trkpt>
      <trkpt lat="37.12693" lon="-2.63726">
        <ele>746.255081</ele>
        <time>2022-02-24T23:28:41.961Z</time>
      </trkpt>
      <trkpt lat="37.12696" lon="-2.63716">
        <ele>746.59713</ele>
        <time>2022-02-24T23:28:45.821Z</time>
      </trkpt>
      <trkpt lat="37.12694" lon="-2.63703">
        <ele>747.023535</ele>
        <time>2022-02-24T23:28:50.891Z</time>
      </trkpt>
      <trkpt lat="37.12683" lon="-2.63686">
        <ele>747.700979</ele>
        <time>2022-02-24T23:28:59.173Z</time>
      </trkpt>
      <trkpt lat="37.12531" lon="-2.63574">
        <ele>756.097506</ele>
        <time>2022-02-24T23:30:26.593Z</time>
      </trkpt>
      <trkpt lat="37.12459" lon="-2.63512">
        <ele>757.778926</ele>
        <time>2022-02-24T23:30:57.180Z</time>
      </trkpt>
      <trkpt lat="37.12409" lon="-2.63466">
        <ele>758.399781</ele>
        <time>2022-02-24T23:31:12.821Z</time>
      </trkpt>
      <trkpt lat="37.1229" lon="-2.63331">
        <ele>757.405268</ele>
        <time>2022-02-24T23:31:44.171Z</time>
      </trkpt>
      <trkpt lat="37.12094" lon="-2.63092">
        <ele>752.41042</ele>
        <time>2022-02-24T23:32:35.090Z</time>
      </trkpt>
      <trkpt lat="37.11974" lon="-2.62946">
        <ele>747.786809</ele>
        <time>2022-02-24T23:33:03.833Z</time>
      </trkpt>
      <trkpt lat="37.119" lon="-2.6287">
        <ele>745.392425</ele>
        <time>2022-02-24T23:33:20.960Z</time>
      </trkpt>
      <trkpt lat="37.11814" lon="-2.62811">
        <ele>742.390975</ele>
        <time>2022-02-24T23:33:38.708Z</time>
      </trkpt>
      <trkpt lat="37.11762" lon="-2.62789">
        <ele>739.725675</ele>
        <time>2022-02-24T23:33:47.921Z</time>
      </trkpt>
      <trkpt lat="37.11645" lon="-2.62744">
        <ele>733.488597</ele>
        <time>2022-02-24T23:34:06.804Z</time>
      </trkpt>
      <trkpt lat="37.1161" lon="-2.6272">
        <ele>730.967375</ele>
        <time>2022-02-24T23:34:12.453Z</time>
      </trkpt>
      <trkpt lat="37.11589" lon="-2.62702">
        <ele>729.337908</ele>
        <time>2022-02-24T23:34:16.167Z</time>
      </trkpt>
      <trkpt lat="37.11551" lon="-2.62649">
        <ele>725.740064</ele>
        <time>2022-02-24T23:34:24.888Z</time>
      </trkpt>
      <trkpt lat="37.11525" lon="-2.62593">
        <ele>723.48409</ele>
        <time>2022-02-24T23:34:33.168Z</time>
      </trkpt>
      <trkpt lat="37.11493" lon="-2.62473">
        <ele>723.891332</ele>
        <time>2022-02-24T23:34:55.123Z</time>
      </trkpt>
      <trkpt lat="37.11476" lon="-2.6243">
        <ele>724.045557</ele>
        <time>2022-02-24T23:35:06.738Z</time>
      </trkpt>
      <trkpt lat="37.11457" lon="-2.62395">
        <ele>724.360569</ele>
        <time>2022-02-24T23:35:23.562Z</time>
      </trkpt>
      <trkpt lat="37.1143" lon="-2.62359">
        <ele>725.468357</ele>
        <time>2022-02-24T23:35:42.430Z</time>
      </trkpt>
      <trkpt lat="37.11393" lon="-2.62324">
        <ele>726.76495</ele>
        <time>2022-02-24T23:36:01.121Z</time>
      </trkpt>
      <trkpt lat="37.11324" lon="-2.62278">
        <ele>728.936961</ele>
        <time>2022-02-24T23:36:25.240Z</time>
      </trkpt>
      <trkpt lat="37.11204" lon="-2.62207">
        <ele>730.205678</ele>
        <time>2022-02-24T23:36:59.791Z</time>
      </trkpt>
      <trkpt lat="37.11177" lon="-2.62193">
        <ele>730.447815</ele>
        <time>2022-02-24T23:37:07.329Z</time>
      </trkpt>
      <trkpt lat="37.11131" lon="-2.62141">
        <ele>730.857797</ele>
        <time>2022-02-24T23:37:23.034Z</time>
      </trkpt>
      <trkpt lat="37.11093" lon="-2.62112">
        <ele>731.094412</ele>
        <time>2022-02-24T23:37:34.593Z</time>
      </trkpt>
      <trkpt lat="37.11068" lon="-2.62087">
        <ele>731.267509</ele>
        <time>2022-02-24T23:37:43.063Z</time>
      </trkpt>
      <trkpt lat="37.11052" lon="-2.62062">
        <ele>731.404518</ele>
        <time>2022-02-24T23:37:49.273Z</time>
      </trkpt>
      <trkpt lat="37.1105" lon="-2.6206">
        <ele>731.416592</ele>
        <time>2022-02-24T23:37:49.815Z</time>
      </trkpt>
      <trkpt lat="37.10756" lon="-2.61639">
        <ele>731.836179</ele>
        <time>2022-02-24T23:39:32.382Z</time>
      </trkpt>
      <trkpt lat="37.10141" lon="-2.60789">
        <ele>726.594406</ele>
        <time>2022-02-24T23:42:41.292Z</time>
      </trkpt>
      <trkpt lat="37.10113" lon="-2.60747">
        <ele>726.321137</ele>
        <time>2022-02-24T23:42:50.337Z</time>
      </trkpt>
      <trkpt lat="37.10111" lon="-2.60743">
        <ele>726.298728</ele>
        <time>2022-02-24T23:42:51.078Z</time>
      </trkpt>
      <trkpt lat="37.08949" lon="-2.59099">
        <ele>715.589994</ele>
        <time>2022-02-24T23:48:57.820Z</time>
      </trkpt>
      <trkpt lat="37.08921" lon="-2.59092">
        <ele>714.600527</ele>
        <time>2022-02-24T23:49:02.500Z</time>
      </trkpt>
      <trkpt lat="37.08927" lon="-2.59072">
        <ele>713.999365</ele>
        <time>2022-02-24T23:49:05.070Z</time>
      </trkpt>
      <trkpt lat="37.08924" lon="-2.59025">
        <ele>712.660162</ele>
        <time>2022-02-24T23:49:11.049Z</time>
      </trkpt>
      <trkpt lat="37.08929" lon="-2.58996">
        <ele>711.824636</ele>
        <time>2022-02-24T23:49:14.795Z</time>
      </trkpt>
      <trkpt lat="37.08999" lon="-2.58784">
        <ele>700.034458</ele>
        <time>2022-02-24T23:49:42.454Z</time>
      </trkpt>
      <trkpt lat="37.09025" lon="-2.58658">
        <ele>692.851498</ele>
        <time>2022-02-24T23:49:58.014Z</time>
      </trkpt>
      <trkpt lat="37.09044" lon="-2.58616">
        <ele>690.239098</ele>
        <time>2022-02-24T23:50:03.686Z</time>
      </trkpt>
      <trkpt lat="37.09068" lon="-2.58589">
        <ele>687.980349</ele>
        <time>2022-02-24T23:50:08.622Z</time>
      </trkpt>
      <trkpt lat="37.09088" lon="-2.58556">
        <ele>686.129277</ele>
        <time>2022-02-24T23:50:13.866Z</time>
      </trkpt>
      <trkpt lat="37.09111" lon="-2.58512">
        <ele>684.085446</ele>
        <time>2022-02-24T23:50:20.621Z</time>
      </trkpt>
      <trkpt lat="37.09126" lon="-2.58455">
        <ele>681.710927</ele>
        <time>2022-02-24T23:50:28.676Z</time>
      </trkpt>
      <trkpt lat="37.09145" lon="-2.58419">
        <ele>680.032692</ele>
        <time>2022-02-24T23:50:34.504Z</time>
      </trkpt>
      <trkpt lat="37.09135" lon="-2.58382">
        <ele>678.505779</ele>
        <time>2022-02-24T23:50:40.025Z</time>
      </trkpt>
      <trkpt lat="37.09144" lon="-2.58374">
        <ele>678.167951</ele>
        <time>2022-02-24T23:50:42.112Z</time>
      </trkpt>
      <trkpt lat="37.09154" lon="-2.58366">
        <ele>677.890185</ele>
        <time>2022-02-24T23:50:44.286Z</time>
      </trkpt>
      <trkpt lat="37.0918" lon="-2.58345">
        <ele>677.138257</ele>
        <time>2022-02-24T23:50:50.297Z</time>
      </trkpt>
      <trkpt lat="37.0916" lon="-2.58317">
        <ele>676.414012</ele>
        <time>2022-02-24T23:50:56.056Z</time>
      </trkpt>
      <trkpt lat="37.09144" lon="-2.58269">
        <ele>675.423677</ele>
        <time>2022-02-24T23:51:03.925Z</time>
      </trkpt>
      <trkpt lat="37.09132" lon="-2.58247">
        <ele>674.908885</ele>
        <time>2022-02-24T23:51:07.892Z</time>
      </trkpt>
      <trkpt lat="37.09106" lon="-2.58221">
        <ele>674.105851</ele>
        <time>2022-02-24T23:51:14.299Z</time>
      </trkpt>
      <trkpt lat="37.09094" lon="-2.58189">
        <ele>673.320248</ele>
        <time>2022-02-24T23:51:19.541Z</time>
      </trkpt>
      <trkpt lat="37.09068" lon="-2.58131">
        <ele>671.845941</ele>
        <time>2022-02-24T23:51:29.117Z</time>
      </trkpt>
      <trkpt lat="37.09061" lon="-2.58086">
        <ele>670.834174</ele>
        <time>2022-02-24T23:51:35.534Z</time>
      </trkpt>
      <trkpt lat="37.0904" lon="-2.58019">
        <ele>669.226042</ele>
        <time>2022-02-24T23:51:46.039Z</time>
      </trkpt>
      <trkpt lat="37.09021" lon="-2.57994">
        <ele>668.84338</ele>
        <time>2022-02-24T23:51:51.219Z</time>
      </trkpt>
      <trkpt lat="37.08994" lon="-2.57994">
        <ele>668.617911</ele>
        <time>2022-02-24T23:51:56.296Z</time>
      </trkpt>
      <trkpt lat="37.08989" lon="-2.58">
        <ele>668.555536</ele>
        <time>2022-02-24T23:51:57.861Z</time>
      </trkpt>
      <trkpt lat="37.08969" lon="-2.58">
        <ele>668.3856</ele>
        <time>2022-02-24T23:52:01.751Z</time>
      </trkpt>
      <trkpt lat="37.08957" lon="-2.57976">
        <ele>668.198727</ele>
        <time>2022-02-24T23:52:09.648Z</time>
      </trkpt>
      <trkpt lat="37.08931" lon="-2.57886">
        <ele>667.552118</ele>
        <time>2022-02-24T23:52:38.495Z</time>
      </trkpt>
      <trkpt lat="37.08905" lon="-2.57827">
        <ele>667.613464</ele>
        <time>2022-02-24T23:53:00.477Z</time>
      </trkpt>
      <trkpt lat="37.08888" lon="-2.57813">
        <ele>667.66226</ele>
        <time>2022-02-24T23:53:09.716Z</time>
      </trkpt>
      <trkpt lat="37.08815" lon="-2.5778">
        <ele>667.852144</ele>
        <time>2022-02-24T23:53:42.695Z</time>
      </trkpt>
      <trkpt lat="37.08787" lon="-2.57755">
        <ele>667.934201</ele>
        <time>2022-02-24T23:53:54.022Z</time>
      </trkpt>
      <trkpt lat="37.08773" lon="-2.57729">
        <ele>667.247569</ele>
        <time>2022-02-24T23:54:02.128Z</time>
      </trkpt>
      <trkpt lat="37.0876" lon="-2.57687">
        <ele>666.224849</ele>
        <time>2022-02-24T23:54:13.623Z</time>
      </trkpt>
      <trkpt lat="37.08753" lon="-2.57634">
        <ele>665.02719</ele>
        <time>2022-02-24T23:54:26.878Z</time>
      </trkpt>
      <trkpt lat="37.08759" lon="-2.57593">
        <ele>664.090086</ele>
        <time>2022-02-24T23:54:37.180Z</time>
      </trkpt>
      <trkpt lat="37.08769" lon="-2.57579">
        <ele>663.665444</ele>
        <time>2022-02-24T23:54:41.537Z</time>
      </trkpt>
      <trkpt lat="37.08809" lon="-2.57548">
        <ele>662.285356</ele>
        <time>2022-02-24T23:54:55.720Z</time>
      </trkpt>
      <trkpt lat="37.08845" lon="-2.57499">
        <ele>660.613739</ele>
        <time>2022-02-24T23:55:11.240Z</time>
      </trkpt>
      <trkpt lat="37.08851" lon="-2.57482">
        <ele>660.139151</ele>
        <time>2022-02-24T23:55:15.729Z</time>
      </trkpt>
      <trkpt lat="37.08842" lon="-2.57446">
        <ele>659.209478</ele>
        <time>2022-02-24T23:55:24.654Z</time>
      </trkpt>
      <trkpt lat="37.08823" lon="-2.57406">
        <ele>658.03626</ele>
        <time>2022-02-24T23:55:37.036Z</time>
      </trkpt>
      <trkpt lat="37.08807" lon="-2.57337">
        <ele>657.18985</ele>
        <time>2022-02-24T23:55:56.271Z</time>
      </trkpt>
      <trkpt lat="37.08796" lon="-2.57265">
        <ele>657.118002</ele>
        <time>2022-02-24T23:56:16.893Z</time>
      </trkpt>
      <trkpt lat="37.08809" lon="-2.57241">
        <ele>657.089738</ele>
        <time>2022-02-24T23:56:25.573Z</time>
      </trkpt>
      <trkpt lat="37.08808" lon="-2.57228">
        <ele>657.07739</ele>
        <time>2022-02-24T23:56:29.751Z</time>
      </trkpt>
      <trkpt lat="37.08784" lon="-2.57176">
        <ele>657.018989</ele>
        <time>2022-02-24T23:56:50.435Z</time>
      </trkpt>
      <trkpt lat="37.08756" lon="-2.57134">
        <ele>657.027524</ele>
        <time>2022-02-24T23:57:09.015Z</time>
      </trkpt>
      <trkpt lat="37.08747" lon="-2.57128">
        <ele>657.032985</ele>
        <time>2022-02-24T23:57:13.117Z</time>
      </trkpt>
      <trkpt lat="37.08716" lon="-2.57127">
        <ele>657.050479</ele>
        <time>2022-02-24T23:57:25.591Z</time>
      </trkpt>
      <trkpt lat="37.08674" lon="-2.57113">
        <ele>657.075506</ele>
        <time>2022-02-24T23:57:42.987Z</time>
      </trkpt>
      <trkpt lat="37.08536" lon="-2.57093">
        <ele>655.259293</ele>
        <time>2022-02-24T23:58:29.983Z</time>
      </trkpt>
      <trkpt lat="37.0851" lon="-2.5708">
        <ele>654.590236</ele>
        <time>2022-02-24T23:58:38.686Z</time>
      </trkpt>
      <trkpt lat="37.0849" lon="-2.57057">
        <ele>653.937981</ele>
        <time>2022-02-24T23:58:47.119Z</time>
      </trkpt>
      <trkpt lat="37.08459" lon="-2.56965">
        <ele>651.438728</ele>
        <time>2022-02-24T23:59:11.332Z</time>
      </trkpt>
      <trkpt lat="37.08447" lon="-2.56868">
        <ele>648.09075</ele>
        <time>2022-02-24T23:59:34.513Z</time>
      </trkpt>
      <trkpt lat="37.08433" lon="-2.56849">
        <ele>647.205553</ele>
        <time>2022-02-24T23:59:40.670Z</time>
      </trkpt>
      <trkpt lat="37.08357" lon="-2.56808">
        <ele>643.646422</ele>
        <time>2022-02-25T00:00:04.473Z</time>
      </trkpt>
      <trkpt lat="37.08335" lon="-2.56782">
        <ele>642.292708</ele>
        <time>2022-02-25T00:00:13.497Z</time>
      </trkpt>
      <trkpt lat="37.08332" lon="-2.56769">
        <ele>641.836002</ele>
        <time>2022-02-25T00:00:16.451Z</time>
      </trkpt>
      <trkpt lat="37.08321" lon="-2.56705">
        <ele>639.571619</ele>
        <time>2022-02-25T00:00:31.434Z</time>
      </trkpt>
      <trkpt lat="37.08324" lon="-2.56669">
        <ele>638.31444</ele>
        <time>2022-02-25T00:00:39.871Z</time>
      </trkpt>
      <trkpt lat="37.08339" lon="-2.56646">
        <ele>637.345325</ele>
        <time>2022-02-25T00:00:47.081Z</time>
      </trkpt>
      <trkpt lat="37.08368" lon="-2.56644">
        <ele>637.564643</ele>
        <time>2022-02-25T00:00:56.774Z</time>
      </trkpt>
      <trkpt lat="37.08379" lon="-2.56636">
        <ele>637.657503</ele>
        <time>2022-02-25T00:01:00.990Z</time>
      </trkpt>
      <trkpt lat="37.08379" lon="-2.5662">
        <ele>637.755384</ele>
        <time>2022-02-25T00:01:05.644Z</time>
      </trkpt>
      <trkpt lat="37.08345" lon="-2.5657">
        <ele>638.148953</ele>
        <time>2022-02-25T00:01:30.055Z</time>
      </trkpt>
      <trkpt lat="37.08346" lon="-2.56549">
        <ele>638.27121</ele>
        <time>2022-02-25T00:01:37.099Z</time>
      </trkpt>
      <trkpt lat="37.08368" lon="-2.5651">
        <ele>638.55503</ele>
        <time>2022-02-25T00:01:56.066Z</time>
      </trkpt>
      <trkpt lat="37.08369" lon="-2.56499">
        <ele>638.623162</ele>
        <time>2022-02-25T00:02:02.019Z</time>
      </trkpt>
      <trkpt lat="37.08364" lon="-2.56461">
        <ele>639.406381</ele>
        <time>2022-02-25T00:02:16.733Z</time>
      </trkpt>
      <trkpt lat="37.08359" lon="-2.56456">
        <ele>639.595026</ele>
        <time>2022-02-25T00:02:20.574Z</time>
      </trkpt>
      <trkpt lat="37.08292" lon="-2.5645">
        <ele>641.718251</ele>
        <time>2022-02-25T00:02:56.017Z</time>
      </trkpt>
      <trkpt lat="37.0826" lon="-2.56434">
        <ele>642.815624</ele>
        <time>2022-02-25T00:03:15.624Z</time>
      </trkpt>
      <trkpt lat="37.08216" lon="-2.56429">
        <ele>644.214175</ele>
        <time>2022-02-25T00:03:40.326Z</time>
      </trkpt>
      <trkpt lat="37.08202" lon="-2.56419">
        <ele>644.583677</ele>
        <time>2022-02-25T00:03:47.595Z</time>
      </trkpt>
      <trkpt lat="37.0821" lon="-2.56376">
        <ele>645.325302</ele>
        <time>2022-02-25T00:04:04.895Z</time>
      </trkpt>
      <trkpt lat="37.08221" lon="-2.56351">
        <ele>645.800585</ele>
        <time>2022-02-25T00:04:15.762Z</time>
      </trkpt>
      <trkpt lat="37.08245" lon="-2.56322">
        <ele>646.478113</ele>
        <time>2022-02-25T00:04:31.419Z</time>
      </trkpt>
      <trkpt lat="37.08239" lon="-2.56304">
        <ele>646.810023</ele>
        <time>2022-02-25T00:04:39.351Z</time>
      </trkpt>
      <trkpt lat="37.08223" lon="-2.56286">
        <ele>647.251592</ele>
        <time>2022-02-25T00:04:49.602Z</time>
      </trkpt>
      <trkpt lat="37.08209" lon="-2.56258">
        <ele>647.799896</ele>
        <time>2022-02-25T00:05:01.771Z</time>
      </trkpt>
      <trkpt lat="37.08205" lon="-2.56234">
        <ele>647.961497</ele>
        <time>2022-02-25T00:05:10.790Z</time>
      </trkpt>
      <trkpt lat="37.08207" lon="-2.56116">
        <ele>646.248843</ele>
        <time>2022-02-25T00:05:46.365Z</time>
      </trkpt>
      <trkpt lat="37.08201" lon="-2.56102">
        <ele>646.021105</ele>
        <time>2022-02-25T00:05:50.585Z</time>
      </trkpt>
      <trkpt lat="37.08166" lon="-2.56073">
        <ele>645.262369</ele>
        <time>2022-02-25T00:06:03.739Z</time>
      </trkpt>
      <trkpt lat="37.08154" lon="-2.56057">
        <ele>644.932689</ele>
        <time>2022-02-25T00:06:08.930Z</time>
      </trkpt>
      <trkpt lat="37.08125" lon="-2.55965">
        <ele>637.937208</ele>
        <time>2022-02-25T00:06:29.443Z</time>
      </trkpt>
      <trkpt lat="37.08107" lon="-2.55937">
        <ele>635.151213</ele>
        <time>2022-02-25T00:06:36.718Z</time>
      </trkpt>
      <trkpt lat="37.08106" lon="-2.55906">
        <ele>632.719612</ele>
        <time>2022-02-25T00:06:43.087Z</time>
      </trkpt>
      <trkpt lat="37.08087" lon="-2.55833">
        <ele>626.891961</ele>
        <time>2022-02-25T00:06:58.437Z</time>
      </trkpt>
      <trkpt lat="37.08083" lon="-2.55798">
        <ele>624.528496</ele>
        <time>2022-02-25T00:07:05.517Z</time>
      </trkpt>
      <trkpt lat="37.08071" lon="-2.55768">
        <ele>622.285727</ele>
        <time>2022-02-25T00:07:12.316Z</time>
      </trkpt>
      <trkpt lat="37.08041" lon="-2.55746">
        <ele>619.341495</ele>
        <time>2022-02-25T00:07:21.237Z</time>
      </trkpt>
      <trkpt lat="37.07998" lon="-2.55681">
        <ele>613.672901</ele>
        <time>2022-02-25T00:07:39.456Z</time>
      </trkpt>
      <trkpt lat="37.07978" lon="-2.5567">
        <ele>612.125518</ele>
        <time>2022-02-25T00:07:45.774Z</time>
      </trkpt>
      <trkpt lat="37.07928" lon="-2.5566">
        <ele>611.019244</ele>
        <time>2022-02-25T00:08:02.154Z</time>
      </trkpt>
      <trkpt lat="37.07868" lon="-2.55613">
        <ele>609.462361</ele>
        <time>2022-02-25T00:08:26.002Z</time>
      </trkpt>
      <trkpt lat="37.07855" lon="-2.5562">
        <ele>609.155707</ele>
        <time>2022-02-25T00:08:30.715Z</time>
      </trkpt>
      <trkpt lat="37.07848" lon="-2.5564">
        <ele>608.779133</ele>
        <time>2022-02-25T00:08:36.616Z</time>
      </trkpt>
      <trkpt lat="37.07827" lon="-2.55663">
        <ele>608.160713</ele>
        <time>2022-02-25T00:08:46.038Z</time>
      </trkpt>
      <trkpt lat="37.07813" lon="-2.55668">
        <ele>607.789143</ele>
        <time>2022-02-25T00:08:51.206Z</time>
      </trkpt>
      <trkpt lat="37.0776" lon="-2.55673">
        <ele>606.476485</ele>
        <time>2022-02-25T00:09:08.923Z</time>
      </trkpt>
      <trkpt lat="37.07733" lon="-2.55666">
        <ele>605.796785</ele>
        <time>2022-02-25T00:09:17.665Z</time>
      </trkpt>
      <trkpt lat="37.07693" lon="-2.55626">
        <ele>604.527763</ele>
        <time>2022-02-25T00:09:33.493Z</time>
      </trkpt>
      <trkpt lat="37.0767" lon="-2.55612">
        <ele>603.908241</ele>
        <time>2022-02-25T00:09:41.068Z</time>
      </trkpt>
      <trkpt lat="37.07623" lon="-2.55601">
        <ele>601.579717</ele>
        <time>2022-02-25T00:09:55.514Z</time>
      </trkpt>
      <trkpt lat="37.07598" lon="-2.5558">
        <ele>600.123174</ele>
        <time>2022-02-25T00:10:04.176Z</time>
      </trkpt>
      <trkpt lat="37.07573" lon="-2.55542">
        <ele>598.186943</ele>
        <time>2022-02-25T00:10:15.398Z</time>
      </trkpt>
      <trkpt lat="37.0755" lon="-2.5553">
        <ele>596.969561</ele>
        <time>2022-02-25T00:10:22.428Z</time>
      </trkpt>
      <trkpt lat="37.07508" lon="-2.55529">
        <ele>594.82774</ele>
        <time>2022-02-25T00:10:34.417Z</time>
      </trkpt>
      <trkpt lat="37.07466" lon="-2.55544">
        <ele>591.817817</ele>
        <time>2022-02-25T00:10:46.497Z</time>
      </trkpt>
      <trkpt lat="37.07439" lon="-2.55538">
        <ele>589.900597</ele>
        <time>2022-02-25T00:10:54.081Z</time>
      </trkpt>
      <trkpt lat="37.07416" lon="-2.55517">
        <ele>587.953959</ele>
        <time>2022-02-25T00:11:01.746Z</time>
      </trkpt>
      <trkpt lat="37.07333" lon="-2.55364">
        <ele>577.229753</ele>
        <time>2022-02-25T00:11:41.713Z</time>
      </trkpt>
      <trkpt lat="37.07319" lon="-2.55349">
        <ele>575.861676</ele>
        <time>2022-02-25T00:11:46.553Z</time>
      </trkpt>
      <trkpt lat="37.07238" lon="-2.55349">
        <ele>569.711756</ele>
        <time>2022-02-25T00:12:08.335Z</time>
      </trkpt>
      <trkpt lat="37.07182" lon="-2.55325">
        <ele>565.18483</ele>
        <time>2022-02-25T00:12:24.359Z</time>
      </trkpt>
      <trkpt lat="37.07164" lon="-2.55302">
        <ele>563.231582</ele>
        <time>2022-02-25T00:12:31.247Z</time>
      </trkpt>
      <trkpt lat="37.07156" lon="-2.55267">
        <ele>561.014219</ele>
        <time>2022-02-25T00:12:38.997Z</time>
      </trkpt>
      <trkpt lat="37.0714" lon="-2.55236">
        <ele>558.722506</ele>
        <time>2022-02-25T00:12:47.071Z</time>
      </trkpt>
      <trkpt lat="37.07128" lon="-2.55223">
        <ele>557.524398</ele>
        <time>2022-02-25T00:12:51.246Z</time>
      </trkpt>
      <trkpt lat="37.07086" lon="-2.55218">
        <ele>554.238127</ele>
        <time>2022-02-25T00:13:02.631Z</time>
      </trkpt>
      <trkpt lat="37.07066" lon="-2.55201">
        <ele>552.331353</ele>
        <time>2022-02-25T00:13:08.986Z</time>
      </trkpt>
      <trkpt lat="37.07056" lon="-2.55191">
        <ele>551.342999</ele>
        <time>2022-02-25T00:13:12.337Z</time>
      </trkpt>
      <trkpt lat="37.07046" lon="-2.55167">
        <ele>549.626023</ele>
        <time>2022-02-25T00:13:18.021Z</time>
      </trkpt>
      <trkpt lat="37.07046" lon="-2.5513">
        <ele>547.264151</ele>
        <time>2022-02-25T00:13:25.885Z</time>
      </trkpt>
      <trkpt lat="37.07042" lon="-2.5512">
        <ele>546.531517</ele>
        <time>2022-02-25T00:13:28.329Z</time>
      </trkpt>
      <trkpt lat="37.07017" lon="-2.55101">
        <ele>544.240333</ele>
        <time>2022-02-25T00:13:35.945Z</time>
      </trkpt>
      <trkpt lat="37.06997" lon="-2.55094">
        <ele>542.567135</ele>
        <time>2022-02-25T00:13:41.563Z</time>
      </trkpt>
      <trkpt lat="37.06988" lon="-2.55084">
        <ele>541.582714</ele>
        <time>2022-02-25T00:13:44.792Z</time>
      </trkpt>
      <trkpt lat="37.06989" lon="-2.55017">
        <ele>537.404136</ele>
        <time>2022-02-25T00:13:59.094Z</time>
      </trkpt>
      <trkpt lat="37.06982" lon="-2.54993">
        <ele>535.790458</ele>
        <time>2022-02-25T00:14:04.573Z</time>
      </trkpt>
      <trkpt lat="37.06962" lon="-2.54958">
        <ele>533.14676</ele>
        <time>2022-02-25T00:14:13.490Z</time>
      </trkpt>
      <trkpt lat="37.0696" lon="-2.54947">
        <ele>532.428366</ele>
        <time>2022-02-25T00:14:15.933Z</time>
      </trkpt>
      <trkpt lat="37.06964" lon="-2.54923">
        <ele>530.895444</ele>
        <time>2022-02-25T00:14:21.143Z</time>
      </trkpt>
      <trkpt lat="37.06977" lon="-2.54911">
        <ele>529.632963</ele>
        <time>2022-02-25T00:14:25.502Z</time>
      </trkpt>
      <trkpt lat="37.06979" lon="-2.54902">
        <ele>529.067093</ele>
        <time>2022-02-25T00:14:27.434Z</time>
      </trkpt>
      <trkpt lat="37.06958" lon="-2.5486">
        <ele>526.224047</ele>
        <time>2022-02-25T00:14:38.209Z</time>
      </trkpt>
      <trkpt lat="37.06945" lon="-2.54802">
        <ele>523.657167</ele>
        <time>2022-02-25T00:14:51.775Z</time>
      </trkpt>
      <trkpt lat="37.06932" lon="-2.5478">
        <ele>522.502249</ele>
        <time>2022-02-25T00:14:57.980Z</time>
      </trkpt>
      <trkpt lat="37.06901" lon="-2.54747">
        <ele>520.363593</ele>
        <time>2022-02-25T00:15:09.691Z</time>
      </trkpt>
      <trkpt lat="37.06888" lon="-2.54722">
        <ele>519.101182</ele>
        <time>2022-02-25T00:15:16.594Z</time>
      </trkpt>
      <trkpt lat="37.06885" lon="-2.54711">
        <ele>518.600647</ele>
        <time>2022-02-25T00:15:19.350Z</time>
      </trkpt>
      <trkpt lat="37.06891" lon="-2.54678">
        <ele>517.201861</ele>
        <time>2022-02-25T00:15:27.003Z</time>
      </trkpt>
      <trkpt lat="37.06892" lon="-2.54646">
        <ele>516.115269</ele>
        <time>2022-02-25T00:15:34.801Z</time>
      </trkpt>
      <trkpt lat="37.0688" lon="-2.54624">
        <ele>515.242294</ele>
        <time>2022-02-25T00:15:41.165Z</time>
      </trkpt>
      <trkpt lat="37.06755" lon="-2.54596">
        <ele>510.01655</ele>
        <time>2022-02-25T00:16:18.980Z</time>
      </trkpt>
      <trkpt lat="37.06618" lon="-2.54583">
        <ele>504.470188</ele>
        <time>2022-02-25T00:16:59.401Z</time>
      </trkpt>
      <trkpt lat="37.06566" lon="-2.54565">
        <ele>502.281815</ele>
        <time>2022-02-25T00:17:16.021Z</time>
      </trkpt>
      <trkpt lat="37.06508" lon="-2.54553">
        <ele>499.961594</ele>
        <time>2022-02-25T00:17:33.842Z</time>
      </trkpt>
      <trkpt lat="37.06492" lon="-2.54529">
        <ele>498.959871</ele>
        <time>2022-02-25T00:17:41.384Z</time>
      </trkpt>
      <trkpt lat="37.06479" lon="-2.54457">
        <ele>496.614753</ele>
        <time>2022-02-25T00:17:58.830Z</time>
      </trkpt>
      <trkpt lat="37.06464" lon="-2.54427">
        <ele>495.526338</ele>
        <time>2022-02-25T00:18:06.898Z</time>
      </trkpt>
      <trkpt lat="37.0643" lon="-2.54387">
        <ele>493.559033</ele>
        <time>2022-02-25T00:18:20.501Z</time>
      </trkpt>
      <trkpt lat="37.06369" lon="-2.54349">
        <ele>490.683113</ele>
        <time>2022-02-25T00:18:40.262Z</time>
      </trkpt>
      <trkpt lat="37.06261" lon="-2.54323">
        <ele>486.94087</ele>
        <time>2022-02-25T00:19:13.299Z</time>
      </trkpt>
      <trkpt lat="37.06186" lon="-2.54278">
        <ele>485.245514</ele>
        <time>2022-02-25T00:19:41.981Z</time>
      </trkpt>
      <trkpt lat="37.06156" lon="-2.54284">
        <ele>484.615937</ele>
        <time>2022-02-25T00:19:52.405Z</time>
      </trkpt>
      <trkpt lat="37.06089" lon="-2.54328">
        <ele>482.501551</ele>
        <time>2022-02-25T00:20:16.677Z</time>
      </trkpt>
      <trkpt lat="37.06042" lon="-2.54339">
        <ele>480.960931</ele>
        <time>2022-02-25T00:20:31.368Z</time>
      </trkpt>
      <trkpt lat="37.059" lon="-2.54375">
        <ele>475.941147</ele>
        <time>2022-02-25T00:21:14.673Z</time>
      </trkpt>
      <trkpt lat="37.05865" lon="-2.54372">
        <ele>474.614998</ele>
        <time>2022-02-25T00:21:25.110Z</time>
      </trkpt>
      <trkpt lat="37.05842" lon="-2.54361">
        <ele>473.700027</ele>
        <time>2022-02-25T00:21:32.398Z</time>
      </trkpt>
      <trkpt lat="37.05821" lon="-2.54337">
        <ele>472.619519</ele>
        <time>2022-02-25T00:21:41.077Z</time>
      </trkpt>
      <trkpt lat="37.05819" lon="-2.54317">
        <ele>472.030271</ele>
        <time>2022-02-25T00:21:45.779Z</time>
      </trkpt>
      <trkpt lat="37.05829" lon="-2.54201">
        <ele>469.025698</ele>
        <time>2022-02-25T00:22:14.541Z</time>
      </trkpt>
      <trkpt lat="37.05828" lon="-2.54171">
        <ele>468.268721</ele>
        <time>2022-02-25T00:22:21.951Z</time>
      </trkpt>
      <trkpt lat="37.05808" lon="-2.54145">
        <ele>467.363139</ele>
        <time>2022-02-25T00:22:30.826Z</time>
      </trkpt>
      <trkpt lat="37.05768" lon="-2.54114">
        <ele>465.895294</ele>
        <time>2022-02-25T00:22:45.312Z</time>
      </trkpt>
      <trkpt lat="37.05724" lon="-2.54091">
        <ele>464.526363</ele>
        <time>2022-02-25T00:23:00.241Z</time>
      </trkpt>
      <trkpt lat="37.05649" lon="-2.54064">
        <ele>462.320101</ele>
        <time>2022-02-25T00:23:24.396Z</time>
      </trkpt>
      <trkpt lat="37.05602" lon="-2.54035">
        <ele>460.81432</ele>
        <time>2022-02-25T00:23:41.064Z</time>
      </trkpt>
      <trkpt lat="37.05573" lon="-2.54012">
        <ele>459.99059</ele>
        <time>2022-02-25T00:23:51.969Z</time>
      </trkpt>
      <trkpt lat="37.05549" lon="-2.53974">
        <ele>459.082015</ele>
        <time>2022-02-25T00:24:04.111Z</time>
      </trkpt>
      <trkpt lat="37.05477" lon="-2.53789">
        <ele>455.420067</ele>
        <time>2022-02-25T00:24:56.636Z</time>
      </trkpt>
      <trkpt lat="37.05447" lon="-2.53734">
        <ele>454.369835</ele>
        <time>2022-02-25T00:25:14.236Z</time>
      </trkpt>
      <trkpt lat="37.05372" lon="-2.53738">
        <ele>452.916979</ele>
        <time>2022-02-25T00:25:39.210Z</time>
      </trkpt>
      <trkpt lat="37.05354" lon="-2.53744">
        <ele>452.622954</ele>
        <time>2022-02-25T00:25:45.338Z</time>
      </trkpt>
      <trkpt lat="37.05295" lon="-2.5375">
        <ele>451.679845</ele>
        <time>2022-02-25T00:26:04.836Z</time>
      </trkpt>
      <trkpt lat="37.0524" lon="-2.5374">
        <ele>450.776883</ele>
        <time>2022-02-25T00:26:23.618Z</time>
      </trkpt>
      <trkpt lat="37.05219" lon="-2.53729">
        <ele>450.410707</ele>
        <time>2022-02-25T00:26:31.232Z</time>
      </trkpt>
      <trkpt lat="37.05132" lon="-2.53661">
        <ele>448.259065</ele>
        <time>2022-02-25T00:27:05.160Z</time>
      </trkpt>
      <trkpt lat="37.05035" lon="-2.53547">
        <ele>445.122121</ele>
        <time>2022-02-25T00:27:46.810Z</time>
      </trkpt>
      <trkpt lat="37.04989" lon="-2.53474">
        <ele>443.057924</ele>
        <time>2022-02-25T00:28:10.306Z</time>
      </trkpt>
      <trkpt lat="37.04968" lon="-2.53452">
        <ele>442.305802</ele>
        <time>2022-02-25T00:28:18.726Z</time>
      </trkpt>
      <trkpt lat="37.04955" lon="-2.53427">
        <ele>441.651498</ele>
        <time>2022-02-25T00:28:26.187Z</time>
      </trkpt>
      <trkpt lat="37.04945" lon="-2.534">
        <ele>441.012129</ele>
        <time>2022-02-25T00:28:33.665Z</time>
      </trkpt>
      <trkpt lat="37.04945" lon="-2.53393">
        <ele>440.877952</ele>
        <time>2022-02-25T00:28:35.304Z</time>
      </trkpt>
      <trkpt lat="37.04954" lon="-2.53386">
        <ele>440.598317</ele>
        <time>2022-02-25T00:28:38.802Z</time>
      </trkpt>
      <trkpt lat="37.04956" lon="-2.53378">
        <ele>440.425395</ele>
        <time>2022-02-25T00:28:40.997Z</time>
      </trkpt>
      <trkpt lat="37.04952" lon="-2.53358">
        <ele>440.008653</ele>
        <time>2022-02-25T00:28:46.300Z</time>
      </trkpt>
      <trkpt lat="37.04942" lon="-2.53335">
        <ele>439.487644</ele>
        <time>2022-02-25T00:28:52.918Z</time>
      </trkpt>
      <trkpt lat="37.04935" lon="-2.53336">
        <ele>439.30877</ele>
        <time>2022-02-25T00:28:55.317Z</time>
      </trkpt>
      <trkpt lat="37.04934" lon="-2.53343">
        <ele>439.165893</ele>
        <time>2022-02-25T00:28:56.987Z</time>
      </trkpt>
      <trkpt lat="37.04905" lon="-2.53309">
        <ele>438.186699</ele>
        <time>2022-02-25T00:29:09.367Z</time>
      </trkpt>
      <trkpt lat="37.04866" lon="-2.53303">
        <ele>437.185069</ele>
        <time>2022-02-25T00:29:22.280Z</time>
      </trkpt>
      <trkpt lat="37.04827" lon="-2.53286">
        <ele>436.175147</ele>
        <time>2022-02-25T00:29:35.296Z</time>
      </trkpt>
      <trkpt lat="37.04781" lon="-2.533">
        <ele>435.030813</ele>
        <time>2022-02-25T00:29:50.201Z</time>
      </trkpt>
      <trkpt lat="37.04767" lon="-2.53349">
        <ele>434.02051</ele>
        <time>2022-02-25T00:30:03.511Z</time>
      </trkpt>
      <trkpt lat="37.04722" lon="-2.53407">
        <ele>432.456753</ele>
        <time>2022-02-25T00:30:24.219Z</time>
      </trkpt>
      <trkpt lat="37.04673" lon="-2.53399">
        <ele>431.858309</ele>
        <time>2022-02-25T00:30:39.973Z</time>
      </trkpt>
      <trkpt lat="37.04635" lon="-2.53374">
        <ele>431.403735</ele>
        <time>2022-02-25T00:30:54.568Z</time>
      </trkpt>
      <trkpt lat="37.04602" lon="-2.5327">
        <ele>430.45719</ele>
        <time>2022-02-25T00:31:26.235Z</time>
      </trkpt>
      <trkpt lat="37.04566" lon="-2.53231">
        <ele>431.137441</ele>
        <time>2022-02-25T00:31:43.128Z</time>
      </trkpt>
      <trkpt lat="37.04503" lon="-2.53222">
        <ele>432.234143</ele>
        <time>2022-02-25T00:32:11.739Z</time>
      </trkpt>
      <trkpt lat="37.04427" lon="-2.53248">
        <ele>433.722437</ele>
        <time>2022-02-25T00:32:52.837Z</time>
      </trkpt>
      <trkpt lat="37.04453" lon="-2.53176">
        <ele>436.326613</ele>
        <time>2022-02-25T00:33:28.816Z</time>
      </trkpt>
      <trkpt lat="37.04466" lon="-2.53089">
        <ele>439.297357</ele>
        <time>2022-02-25T00:34:11.555Z</time>
      </trkpt>
      <trkpt lat="37.04447" lon="-2.53003">
        <ele>442.037706</ele>
        <time>2022-02-25T00:34:54.645Z</time>
      </trkpt>
      <trkpt lat="37.04428" lon="-2.52973">
        <ele>443.096575</ele>
        <time>2022-02-25T00:35:10.942Z</time>
      </trkpt>
      <trkpt lat="37.04409" lon="-2.52967">
        <ele>443.771127</ele>
        <time>2022-02-25T00:35:21.081Z</time>
      </trkpt>
      <trkpt lat="37.04403" lon="-2.52958">
        <ele>444.098495</ele>
        <time>2022-02-25T00:35:25.881Z</time>
      </trkpt>
      <trkpt lat="37.04406" lon="-2.52946">
        <ele>444.441055</ele>
        <time>2022-02-25T00:35:31.114Z</time>
      </trkpt>
      <trkpt lat="37.04415" lon="-2.52941">
        <ele>444.782734</ele>
        <time>2022-02-25T00:35:36.387Z</time>
      </trkpt>
      <trkpt lat="37.04433" lon="-2.52944">
        <ele>445.420847</ele>
        <time>2022-02-25T00:35:46.396Z</time>
      </trkpt>
      <trkpt lat="37.0444" lon="-2.52938">
        <ele>445.701472</ele>
        <time>2022-02-25T00:35:50.675Z</time>
      </trkpt>
      <trkpt lat="37.04424" lon="-2.52906">
        <ele>446.745748</ele>
        <time>2022-02-25T00:36:06.889Z</time>
      </trkpt>
      <trkpt lat="37.04428" lon="-2.52884">
        <ele>447.361323</ele>
        <time>2022-02-25T00:36:16.476Z</time>
      </trkpt>
      <trkpt lat="37.04426" lon="-2.52807">
        <ele>449.228479</ele>
        <time>2022-02-25T00:36:48.195Z</time>
      </trkpt>
      <trkpt lat="37.0443" lon="-2.52773">
        <ele>450.043652</ele>
        <time>2022-02-25T00:37:02.282Z</time>
      </trkpt>
      <trkpt lat="37.04442" lon="-2.52735">
        <ele>451.040814</ele>
        <time>2022-02-25T00:37:19.341Z</time>
      </trkpt>
      <trkpt lat="37.04442" lon="-2.52706">
        <ele>451.76054</ele>
        <time>2022-02-25T00:37:32.275Z</time>
      </trkpt>
      <trkpt lat="37.04402" lon="-2.52706">
        <ele>452.96286</ele>
        <time>2022-02-25T00:37:53.374Z</time>
      </trkpt>
      <trkpt lat="37.04385" lon="-2.527">
        <ele>453.437043</ele>
        <time>2022-02-25T00:38:02.988Z</time>
      </trkpt>
      <trkpt lat="37.04381" lon="-2.52622">
        <ele>455.121607</ele>
        <time>2022-02-25T00:38:33.475Z</time>
      </trkpt>
      <trkpt lat="37.04372" lon="-2.52621">
        <ele>455.373909</ele>
        <time>2022-02-25T00:38:38.933Z</time>
      </trkpt>
      <trkpt lat="37.0436" lon="-2.52629">
        <ele>455.752894</ele>
        <time>2022-02-25T00:38:45.647Z</time>
      </trkpt>
      <trkpt lat="37.04326" lon="-2.52674">
        <ele>457.094012</ele>
        <time>2022-02-25T00:39:09.920Z</time>
      </trkpt>
      <trkpt lat="37.04299" lon="-2.52668">
        <ele>457.844613</ele>
        <time>2022-02-25T00:39:23.457Z</time>
      </trkpt>
      <trkpt lat="37.04276" lon="-2.5268">
        <ele>458.554015</ele>
        <time>2022-02-25T00:39:36.130Z</time>
      </trkpt>
      <trkpt lat="37.04262" lon="-2.5268">
        <ele>458.937482</ele>
        <time>2022-02-25T00:39:42.702Z</time>
      </trkpt>
      <trkpt lat="37.04244" lon="-2.52662">
        <ele>459.579783</ele>
        <time>2022-02-25T00:39:55.051Z</time>
      </trkpt>
      <trkpt lat="37.04251" lon="-2.52635">
        <ele>460.196524</ele>
        <time>2022-02-25T00:40:06.291Z</time>
      </trkpt>
      <trkpt lat="37.04277" lon="-2.52601">
        <ele>461.258432</ele>
        <time>2022-02-25T00:40:26.418Z</time>
      </trkpt>
      <trkpt lat="37.043" lon="-2.52584">
        <ele>462.010422</ele>
        <time>2022-02-25T00:40:40.393Z</time>
      </trkpt>
      <trkpt lat="37.043" lon="-2.52567">
        <ele>462.377063</ele>
        <time>2022-02-25T00:40:46.422Z</time>
      </trkpt>
      <trkpt lat="37.04268" lon="-2.52507">
        <ele>463.912019</ele>
        <time>2022-02-25T00:41:16.254Z</time>
      </trkpt>
      <trkpt lat="37.04254" lon="-2.52497">
        <ele>464.325877</ele>
        <time>2022-02-25T00:41:23.918Z</time>
      </trkpt>
      <trkpt lat="37.0423" lon="-2.52493">
        <ele>464.954698</ele>
        <time>2022-02-25T00:41:36.377Z</time>
      </trkpt>
      <trkpt lat="37.04221" lon="-2.52512">
        <ele>465.405344</ele>
        <time>2022-02-25T00:41:44.646Z</time>
      </trkpt>
      <trkpt lat="37.04223" lon="-2.52548">
        <ele>466.15793</ele>
        <time>2022-02-25T00:41:58.680Z</time>
      </trkpt>
      <trkpt lat="37.04216" lon="-2.52555">
        <ele>466.396572</ele>
        <time>2022-02-25T00:42:03.599Z</time>
      </trkpt>
      <trkpt lat="37.04198" lon="-2.5256">
        <ele>466.878386</ele>
        <time>2022-02-25T00:42:13.586Z</time>
      </trkpt>
      <trkpt lat="37.04134" lon="-2.52562">
        <ele>468.156752</ele>
        <time>2022-02-25T00:42:45.079Z</time>
      </trkpt>
      <trkpt lat="37.04113" lon="-2.52557">
        <ele>468.553949</ele>
        <time>2022-02-25T00:42:54.806Z</time>
      </trkpt>
      <trkpt lat="37.04106" lon="-2.5255">
        <ele>468.719461</ele>
        <time>2022-02-25T00:42:58.824Z</time>
      </trkpt>
      <trkpt lat="37.04102" lon="-2.52526">
        <ele>469.075048</ele>
        <time>2022-02-25T00:43:07.357Z</time>
      </trkpt>
      <trkpt lat="37.04105" lon="-2.52521">
        <ele>469.167181</ele>
        <time>2022-02-25T00:43:09.605Z</time>
      </trkpt>
      <trkpt lat="37.04143" lon="-2.52515">
        <ele>469.865829</ele>
        <time>2022-02-25T00:43:27.465Z</time>
      </trkpt>
      <trkpt lat="37.04152" lon="-2.52514">
        <ele>470.029509</ele>
        <time>2022-02-25T00:43:31.631Z</time>
      </trkpt>
      <trkpt lat="37.04162" lon="-2.52483">
        <ele>470.511573</ele>
        <time>2022-02-25T00:43:43.536Z</time>
      </trkpt>
      <trkpt lat="37.04166" lon="-2.52481">
        <ele>470.573852</ele>
        <time>2022-02-25T00:43:45.665Z</time>
      </trkpt>
      <trkpt lat="37.0417" lon="-2.52482">
        <ele>470.602922</ele>
        <time>2022-02-25T00:43:47.367Z</time>
      </trkpt>
      <trkpt lat="37.04176" lon="-2.52516">
        <ele>470.80327</ele>
        <time>2022-02-25T00:43:58.784Z</time>
      </trkpt>
      <trkpt lat="37.04188" lon="-2.52518">
        <ele>470.898056</ele>
        <time>2022-02-25T00:44:04.025Z</time>
      </trkpt>
      <trkpt lat="37.042" lon="-2.52486">
        <ele>471.107835</ele>
        <time>2022-02-25T00:44:15.856Z</time>
      </trkpt>
      <trkpt lat="37.04198" lon="-2.52455">
        <ele>471.284227</ele>
        <time>2022-02-25T00:44:26.044Z</time>
      </trkpt>
      <trkpt lat="37.04206" lon="-2.52444">
        <ele>471.37232</ele>
        <time>2022-02-25T00:44:30.888Z</time>
      </trkpt>
      <trkpt lat="37.04218" lon="-2.52441">
        <ele>471.459648</ele>
        <time>2022-02-25T00:44:35.483Z</time>
      </trkpt>
      <trkpt lat="37.04286" lon="-2.52444">
        <ele>471.90491</ele>
        <time>2022-02-25T00:45:00.856Z</time>
      </trkpt>
      <trkpt lat="37.04301" lon="-2.52467">
        <ele>471.974128</ele>
        <time>2022-02-25T00:45:11.065Z</time>
      </trkpt>
      <trkpt lat="37.04319" lon="-2.52481">
        <ele>472.033196</ele>
        <time>2022-02-25T00:45:20.318Z</time>
      </trkpt>
      <trkpt lat="37.04345" lon="-2.52488">
        <ele>472.109733</ele>
        <time>2022-02-25T00:45:30.502Z</time>
      </trkpt>
      <trkpt lat="37.04355" lon="-2.52518">
        <ele>472.182398</ele>
        <time>2022-02-25T00:45:39.957Z</time>
      </trkpt>
      <trkpt lat="37.04364" lon="-2.52523">
        <ele>472.208922</ele>
        <time>2022-02-25T00:45:43.400Z</time>
      </trkpt>
      <trkpt lat="37.04382" lon="-2.52516">
        <ele>472.263421</ele>
        <time>2022-02-25T00:45:50.512Z</time>
      </trkpt>
      <trkpt lat="37.04401" lon="-2.525">
        <ele>472.328523</ele>
        <time>2022-02-25T00:45:59.234Z</time>
      </trkpt>
      <trkpt lat="37.04442" lon="-2.52488">
        <ele>472.337765</ele>
        <time>2022-02-25T00:46:15.168Z</time>
      </trkpt>
      <trkpt lat="37.04401" lon="-2.525">
        <ele>472.257267</ele>
        <time>2022-02-25T00:46:30.215Z</time>
      </trkpt>
      <trkpt lat="37.04382" lon="-2.52516">
        <ele>472.212822</ele>
        <time>2022-02-25T00:46:38.582Z</time>
      </trkpt>
      <trkpt lat="37.04364" lon="-2.52523">
        <ele>472.175615</ele>
        <time>2022-02-25T00:46:45.642Z</time>
      </trkpt>
      <trkpt lat="37.04355" lon="-2.52518">
        <ele>472.157508</ele>
        <time>2022-02-25T00:46:49.193Z</time>
      </trkpt>
      <trkpt lat="37.04345" lon="-2.52488">
        <ele>472.107899</ele>
        <time>2022-02-25T00:46:58.660Z</time>
      </trkpt>
      <trkpt lat="37.04319" lon="-2.52481">
        <ele>472.055647</ele>
        <time>2022-02-25T00:47:08.502Z</time>
      </trkpt>
      <trkpt lat="37.04301" lon="-2.52467">
        <ele>471.985744</ele>
        <time>2022-02-25T00:47:15.460Z</time>
      </trkpt>
      <trkpt lat="37.04286" lon="-2.52444">
        <ele>471.857254</ele>
        <time>2022-02-25T00:47:23.869Z</time>
      </trkpt>
      <trkpt lat="37.04218" lon="-2.52441">
        <ele>471.495886</ele>
        <time>2022-02-25T00:47:49.192Z</time>
      </trkpt>
      <trkpt lat="37.04206" lon="-2.52444">
        <ele>471.432733</ele>
        <time>2022-02-25T00:47:53.546Z</time>
      </trkpt>
      <trkpt lat="37.04198" lon="-2.52455">
        <ele>471.369026</ele>
        <time>2022-02-25T00:47:57.849Z</time>
      </trkpt>
      <trkpt lat="37.042" lon="-2.52486">
        <ele>471.241464</ele>
        <time>2022-02-25T00:48:06.146Z</time>
      </trkpt>
      <trkpt lat="37.04188" lon="-2.52518">
        <ele>471.089757</ele>
        <time>2022-02-25T00:48:16.177Z</time>
      </trkpt>
      <trkpt lat="37.04176" lon="-2.52516">
        <ele>470.903018</ele>
        <time>2022-02-25T00:48:20.781Z</time>
      </trkpt>
      <trkpt lat="37.0417" lon="-2.52482">
        <ele>470.47954</ele>
        <time>2022-02-25T00:48:30.285Z</time>
      </trkpt>
      <trkpt lat="37.04166" lon="-2.52481">
        <ele>470.418095</ele>
        <time>2022-02-25T00:48:31.626Z</time>
      </trkpt>
      <trkpt lat="37.04162" lon="-2.52483">
        <ele>470.343523</ele>
        <time>2022-02-25T00:48:33.288Z</time>
      </trkpt>
      <trkpt lat="37.04152" lon="-2.52514">
        <ele>469.93381</ele>
        <time>2022-02-25T00:48:42.145Z</time>
      </trkpt>
      <trkpt lat="37.04143" lon="-2.52515">
        <ele>469.794697</ele>
        <time>2022-02-25T00:48:45.098Z</time>
      </trkpt>
      <trkpt lat="37.04105" lon="-2.52521">
        <ele>469.200906</ele>
        <time>2022-02-25T00:48:57.665Z</time>
      </trkpt>
      <trkpt lat="37.04102" lon="-2.52526">
        <ele>469.122601</ele>
        <time>2022-02-25T00:48:59.386Z</time>
      </trkpt>
      <trkpt lat="37.04106" lon="-2.5255">
        <ele>468.820384</ele>
        <time>2022-02-25T00:49:06.025Z</time>
      </trkpt>
      <trkpt lat="37.04113" lon="-2.52557">
        <ele>468.679712</ele>
        <time>2022-02-25T00:49:09.118Z</time>
      </trkpt>
      <trkpt lat="37.04134" lon="-2.52562">
        <ele>468.34213</ele>
        <time>2022-02-25T00:49:16.413Z</time>
      </trkpt>
      <trkpt lat="37.04198" lon="-2.5256">
        <ele>466.782685</ele>
        <time>2022-02-25T00:49:36.584Z</time>
      </trkpt>
      <trkpt lat="37.04216" lon="-2.52555">
        <ele>466.322334</ele>
        <time>2022-02-25T00:49:42.244Z</time>
      </trkpt>
      <trkpt lat="37.04223" lon="-2.52548">
        <ele>466.094321</ele>
        <time>2022-02-25T00:49:45.010Z</time>
      </trkpt>
      <trkpt lat="37.04221" lon="-2.52512">
        <ele>465.37526</ele>
        <time>2022-02-25T00:49:54.276Z</time>
      </trkpt>
      <trkpt lat="37.0423" lon="-2.52493">
        <ele>464.944689</ele>
        <time>2022-02-25T00:49:59.876Z</time>
      </trkpt>
      <trkpt lat="37.04254" lon="-2.52497">
        <ele>464.34388</ele>
        <time>2022-02-25T00:50:07.386Z</time>
      </trkpt>
      <trkpt lat="37.04268" lon="-2.52507">
        <ele>463.948457</ele>
        <time>2022-02-25T00:50:12.501Z</time>
      </trkpt>
      <trkpt lat="37.043" lon="-2.52567">
        <ele>462.328127</ele>
        <time>2022-02-25T00:50:30.742Z</time>
      </trkpt>
      <trkpt lat="37.043" lon="-2.52584">
        <ele>461.960704</ele>
        <time>2022-02-25T00:50:35.040Z</time>
      </trkpt>
      <trkpt lat="37.04277" lon="-2.52601">
        <ele>461.207108</ele>
        <time>2022-02-25T00:50:43.394Z</time>
      </trkpt>
      <trkpt lat="37.04251" lon="-2.52635">
        <ele>460.142934</ele>
        <time>2022-02-25T00:50:55.067Z</time>
      </trkpt>
      <trkpt lat="37.04244" lon="-2.52662">
        <ele>459.524876</ele>
        <time>2022-02-25T00:51:01.965Z</time>
      </trkpt>
      <trkpt lat="37.04262" lon="-2.5268">
        <ele>458.881205</ele>
        <time>2022-02-25T00:51:09.009Z</time>
      </trkpt>
      <trkpt lat="37.04276" lon="-2.5268">
        <ele>458.512254</ele>
        <time>2022-02-25T00:51:13.412Z</time>
      </trkpt>
      <trkpt lat="37.04299" lon="-2.52668">
        <ele>457.839323</ele>
        <time>2022-02-25T00:51:21.413Z</time>
      </trkpt>
      <trkpt lat="37.04326" lon="-2.52674">
        <ele>457.114644</ele>
        <time>2022-02-25T00:51:30.085Z</time>
      </trkpt>
      <trkpt lat="37.0436" lon="-2.52629">
        <ele>455.806759</ele>
        <time>2022-02-25T00:51:45.761Z</time>
      </trkpt>
      <trkpt lat="37.04372" lon="-2.52621">
        <ele>455.437165</ele>
        <time>2022-02-25T00:51:50.230Z</time>
      </trkpt>
      <trkpt lat="37.04381" lon="-2.52622">
        <ele>455.191115</ele>
        <time>2022-02-25T00:51:52.981Z</time>
      </trkpt>
      <trkpt lat="37.04385" lon="-2.527">
        <ele>453.486745</ele>
        <time>2022-02-25T00:52:12.644Z</time>
      </trkpt>
      <trkpt lat="37.04402" lon="-2.52706">
        <ele>452.962481</ele>
        <time>2022-02-25T00:52:17.916Z</time>
      </trkpt>
      <trkpt lat="37.04442" lon="-2.52706">
        <ele>451.737416</ele>
        <time>2022-02-25T00:52:30.554Z</time>
      </trkpt>
      <trkpt lat="37.04442" lon="-2.52735">
        <ele>451.023892</ele>
        <time>2022-02-25T00:52:37.736Z</time>
      </trkpt>
      <trkpt lat="37.0443" lon="-2.52773">
        <ele>450.035324</ele>
        <time>2022-02-25T00:52:47.947Z</time>
      </trkpt>
      <trkpt lat="37.04426" lon="-2.52807">
        <ele>449.227176</ele>
        <time>2022-02-25T00:52:56.267Z</time>
      </trkpt>
      <trkpt lat="37.04428" lon="-2.52884">
        <ele>447.2796</ele>
        <time>2022-02-25T00:53:15.417Z</time>
      </trkpt>
      <trkpt lat="37.04424" lon="-2.52906">
        <ele>446.68079</ele>
        <time>2022-02-25T00:53:21.148Z</time>
      </trkpt>
      <trkpt lat="37.0444" lon="-2.52938">
        <ele>445.697384</ele>
        <time>2022-02-25T00:53:30.425Z</time>
      </trkpt>
      <trkpt lat="37.04433" lon="-2.52944">
        <ele>445.433117</ele>
        <time>2022-02-25T00:53:32.913Z</time>
      </trkpt>
      <trkpt lat="37.04415" lon="-2.52941">
        <ele>444.8322</ele>
        <time>2022-02-25T00:53:38.571Z</time>
      </trkpt>
      <trkpt lat="37.04406" lon="-2.52946">
        <ele>444.510437</ele>
        <time>2022-02-25T00:53:41.597Z</time>
      </trkpt>
      <trkpt lat="37.04403" lon="-2.52958">
        <ele>444.187845</ele>
        <time>2022-02-25T00:53:44.672Z</time>
      </trkpt>
      <trkpt lat="37.04409" lon="-2.52967">
        <ele>443.879559</ele>
        <time>2022-02-25T00:53:47.658Z</time>
      </trkpt>
      <trkpt lat="37.04428" lon="-2.52973">
        <ele>443.244326</ele>
        <time>2022-02-25T00:53:53.743Z</time>
      </trkpt>
      <trkpt lat="37.04447" lon="-2.53003">
        <ele>441.895382</ele>
        <time>2022-02-25T00:54:03.183Z</time>
      </trkpt>
      <trkpt lat="37.04466" lon="-2.53089">
        <ele>437.983208</ele>
        <time>2022-02-25T00:54:23.663Z</time>
      </trkpt>
      <trkpt lat="37.04453" lon="-2.53176">
        <ele>434.046058</ele>
        <time>2022-02-25T00:54:43.353Z</time>
      </trkpt>
      <trkpt lat="37.04427" lon="-2.53248">
        <ele>430.548646</ele>
        <time>2022-02-25T00:55:00.586Z</time>
      </trkpt>
      <trkpt lat="37.04401" lon="-2.53274">
        <ele>428.712565</ele>
        <time>2022-02-25T00:55:09.616Z</time>
      </trkpt>
      <trkpt lat="37.04361" lon="-2.53296">
        <ele>426.245275</ele>
        <time>2022-02-25T00:55:21.941Z</time>
      </trkpt>
      <trkpt lat="37.04306" lon="-2.53316">
        <ele>422.997945</ele>
        <time>2022-02-25T00:55:38.483Z</time>
      </trkpt>
      <trkpt lat="37.04252" lon="-2.53322">
        <ele>421.379327</ele>
        <time>2022-02-25T00:55:54.809Z</time>
      </trkpt>
      <trkpt lat="37.04233" lon="-2.5333">
        <ele>420.834395</ele>
        <time>2022-02-25T00:56:01.214Z</time>
      </trkpt>
      <trkpt lat="37.04198" lon="-2.53378">
        <ele>419.388569</ele>
        <time>2022-02-25T00:56:18.046Z</time>
      </trkpt>
      <trkpt lat="37.0413" lon="-2.53454">
        <ele>417.543598</ele>
        <time>2022-02-25T00:56:47.569Z</time>
      </trkpt>
      <trkpt lat="37.04104" lon="-2.53475">
        <ele>417.307193</ele>
        <time>2022-02-25T00:56:57.895Z</time>
      </trkpt>
      <trkpt lat="37.04069" lon="-2.53488">
        <ele>417.034636</ele>
        <time>2022-02-25T00:57:10.057Z</time>
      </trkpt>
      <trkpt lat="37.04047" lon="-2.53494">
        <ele>416.859287</ele>
        <time>2022-02-25T00:57:18.127Z</time>
      </trkpt>
      <trkpt lat="37.04022" lon="-2.53485">
        <ele>416.668001</ele>
        <time>2022-02-25T00:57:27.322Z</time>
      </trkpt>
      <trkpt lat="37.03939" lon="-2.53443">
        <ele>417.185447</ele>
        <time>2022-02-25T00:58:05.269Z</time>
      </trkpt>
      <trkpt lat="37.03906" lon="-2.53414">
        <ele>417.718588</ele>
        <time>2022-02-25T00:58:23.822Z</time>
      </trkpt>
      <trkpt lat="37.03878" lon="-2.53399">
        <ele>418.13365</ele>
        <time>2022-02-25T00:58:38.439Z</time>
      </trkpt>
      <trkpt lat="37.03838" lon="-2.53381">
        <ele>418.694095</ele>
        <time>2022-02-25T00:58:58.091Z</time>
      </trkpt>
      <trkpt lat="37.03794" lon="-2.53375">
        <ele>418.022603</ele>
        <time>2022-02-25T00:59:18.159Z</time>
      </trkpt>
      <trkpt lat="37.03713" lon="-2.53396">
        <ele>416.149878</ele>
        <time>2022-02-25T00:59:45.055Z</time>
      </trkpt>
      <trkpt lat="37.03683" lon="-2.53423">
        <ele>415.308965</ele>
        <time>2022-02-25T00:59:55.920Z</time>
      </trkpt>
      <trkpt lat="37.03669" lon="-2.53442">
        <ele>414.855892</ele>
        <time>2022-02-25T01:00:01.633Z</time>
      </trkpt>
      <trkpt lat="37.03665" lon="-2.5347">
        <ele>413.745621</ele>
        <time>2022-02-25T01:00:08.133Z</time>
      </trkpt>
      <trkpt lat="37.03667" lon="-2.53513">
        <ele>411.813443</ele>
        <time>2022-02-25T01:00:17.923Z</time>
      </trkpt>
      <trkpt lat="37.03654" lon="-2.53571">
        <ele>409.19139</ele>
        <time>2022-02-25T01:00:31.083Z</time>
      </trkpt>
      <trkpt lat="37.0362" lon="-2.53608">
        <ele>406.671256</ele>
        <time>2022-02-25T01:00:43.750Z</time>
      </trkpt>
      <trkpt lat="37.03584" lon="-2.53626">
        <ele>404.70686</ele>
        <time>2022-02-25T01:00:54.467Z</time>
      </trkpt>
      <trkpt lat="37.03554" lon="-2.53632">
        <ele>404.076921</ele>
        <time>2022-02-25T01:01:03.627Z</time>
      </trkpt>
      <trkpt lat="37.03527" lon="-2.53629">
        <ele>403.518581</ele>
        <time>2022-02-25T01:01:12.561Z</time>
      </trkpt>
      <trkpt lat="37.03496" lon="-2.53613">
        <ele>402.824245</ele>
        <time>2022-02-25T01:01:24.193Z</time>
      </trkpt>
      <trkpt lat="37.03467" lon="-2.53579">
        <ele>402.017096</ele>
        <time>2022-02-25T01:01:37.793Z</time>
      </trkpt>
      <trkpt lat="37.03429" lon="-2.53545">
        <ele>401.073342</ele>
        <time>2022-02-25T01:01:53.893Z</time>
      </trkpt>
      <trkpt lat="37.034" lon="-2.53546">
        <ele>400.739857</ele>
        <time>2022-02-25T01:02:03.818Z</time>
      </trkpt>
      <trkpt lat="37.03381" lon="-2.53565">
        <ele>400.446823</ele>
        <time>2022-02-25T01:02:12.480Z</time>
      </trkpt>
      <trkpt lat="37.03342" lon="-2.53634">
        <ele>399.66789</ele>
        <time>2022-02-25T01:02:35.337Z</time>
      </trkpt>
      <trkpt lat="37.03333" lon="-2.53663">
        <ele>399.375757</ele>
        <time>2022-02-25T01:02:43.834Z</time>
      </trkpt>
      <trkpt lat="37.0333" lon="-2.53692">
        <ele>399.102338</ele>
        <time>2022-02-25T01:02:51.715Z</time>
      </trkpt>
      <trkpt lat="37.03284" lon="-2.5373">
        <ele>398.331973</ele>
        <time>2022-02-25T01:03:10.185Z</time>
      </trkpt>
      <trkpt lat="37.03195" lon="-2.53734">
        <ele>397.049451</ele>
        <time>2022-02-25T01:03:40.313Z</time>
      </trkpt>
      <trkpt lat="37.0313" lon="-2.53704">
        <ele>395.798871</ele>
        <time>2022-02-25T01:04:03.476Z</time>
      </trkpt>
      <trkpt lat="37.03049" lon="-2.53735">
        <ele>393.679255</ele>
        <time>2022-02-25T01:04:30.833Z</time>
      </trkpt>
      <trkpt lat="37.0301" lon="-2.53741">
        <ele>392.693702</ele>
        <time>2022-02-25T01:04:43.116Z</time>
      </trkpt>
      <trkpt lat="37.02887" lon="-2.53763">
        <ele>388.642757</ele>
        <time>2022-02-25T01:05:20.340Z</time>
      </trkpt>
      <trkpt lat="37.0284" lon="-2.53766">
        <ele>386.976475</ele>
        <time>2022-02-25T01:05:34.546Z</time>
      </trkpt>
      <trkpt lat="37.02801" lon="-2.53788">
        <ele>385.482894</ele>
        <time>2022-02-25T01:05:47.544Z</time>
      </trkpt>
      <trkpt lat="37.0276" lon="-2.53784">
        <ele>384.210748</ele>
        <time>2022-02-25T01:06:00.481Z</time>
      </trkpt>
      <trkpt lat="37.02734" lon="-2.53769">
        <ele>383.337322</ele>
        <time>2022-02-25T01:06:09.420Z</time>
      </trkpt>
      <trkpt lat="37.02716" lon="-2.53768">
        <ele>382.785436</ele>
        <time>2022-02-25T01:06:15.209Z</time>
      </trkpt>
      <trkpt lat="37.0266" lon="-2.53827">
        <ele>380.583453</ele>
        <time>2022-02-25T01:06:37.766Z</time>
      </trkpt>
      <trkpt lat="37.02579" lon="-2.53833">
        <ele>377.622001</ele>
        <time>2022-02-25T01:07:02.336Z</time>
      </trkpt>
      <trkpt lat="37.02542" lon="-2.53851">
        <ele>376.112048</ele>
        <time>2022-02-25T01:07:14.158Z</time>
      </trkpt>
      <trkpt lat="37.02463" lon="-2.5392">
        <ele>372.52955</ele>
        <time>2022-02-25T01:07:42.802Z</time>
      </trkpt>
      <trkpt lat="37.02444" lon="-2.53914">
        <ele>371.883225</ele>
        <time>2022-02-25T01:07:48.585Z</time>
      </trkpt>
      <trkpt lat="37.02395" lon="-2.5385">
        <ele>369.518687</ele>
        <time>2022-02-25T01:08:09.945Z</time>
      </trkpt>
      <trkpt lat="37.02361" lon="-2.53821">
        <ele>368.136093</ele>
        <time>2022-02-25T01:08:22.818Z</time>
      </trkpt>
      <trkpt lat="37.02311" lon="-2.53744">
        <ele>365.927063</ele>
        <time>2022-02-25T01:08:48.146Z</time>
      </trkpt>
      <trkpt lat="37.02249" lon="-2.53702">
        <ele>364.190133</ele>
        <time>2022-02-25T01:09:10.717Z</time>
      </trkpt>
      <trkpt lat="37.02219" lon="-2.53693">
        <ele>363.422756</ele>
        <time>2022-02-25T01:09:20.652Z</time>
      </trkpt>
      <trkpt lat="37.02178" lon="-2.53692">
        <ele>362.380539</ele>
        <time>2022-02-25T01:09:33.450Z</time>
      </trkpt>
      <trkpt lat="37.02099" lon="-2.53709">
        <ele>360.165883</ele>
        <time>2022-02-25T01:09:58.549Z</time>
      </trkpt>
      <trkpt lat="37.02006" lon="-2.53739">
        <ele>357.568746</ele>
        <time>2022-02-25T01:10:28.424Z</time>
      </trkpt>
      <trkpt lat="37.01934" lon="-2.5377">
        <ele>355.677326</ele>
        <time>2022-02-25T01:10:52.738Z</time>
      </trkpt>
      <trkpt lat="37.01859" lon="-2.53802">
        <ele>353.733011</ele>
        <time>2022-02-25T01:11:17.952Z</time>
      </trkpt>
      <trkpt lat="37.01791" lon="-2.53858">
        <ele>351.652269</ele>
        <time>2022-02-25T01:11:44.076Z</time>
      </trkpt>
      <trkpt lat="37.01723" lon="-2.53904">
        <ele>349.693801</ele>
        <time>2022-02-25T01:12:08.411Z</time>
      </trkpt>
      <trkpt lat="37.01655" lon="-2.53933">
        <ele>347.755582</ele>
        <time>2022-02-25T01:12:30.943Z</time>
      </trkpt>
      <trkpt lat="37.01594" lon="-2.53944">
        <ele>346.000501</ele>
        <time>2022-02-25T01:12:50.136Z</time>
      </trkpt>
      <trkpt lat="37.01534" lon="-2.53926">
        <ele>344.242597</ele>
        <time>2022-02-25T01:13:09.519Z</time>
      </trkpt>
      <trkpt lat="37.01496" lon="-2.53905">
        <ele>343.140852</ele>
        <time>2022-02-25T01:13:22.378Z</time>
      </trkpt>
      <trkpt lat="37.01435" lon="-2.53883">
        <ele>341.513724</ele>
        <time>2022-02-25T01:13:42.316Z</time>
      </trkpt>
      <trkpt lat="37.01262" lon="-2.53845">
        <ele>337.729338</ele>
        <time>2022-02-25T01:14:38.615Z</time>
      </trkpt>
      <trkpt lat="37.01245" lon="-2.53831">
        <ele>337.402563</ele>
        <time>2022-02-25T01:14:45.039Z</time>
      </trkpt>
      <trkpt lat="37.01217" lon="-2.53784">
        <ele>336.614286</ele>
        <time>2022-02-25T01:15:00.942Z</time>
      </trkpt>
      <trkpt lat="37.01146" lon="-2.53715">
        <ele>335.825097</ele>
        <time>2022-02-25T01:15:32.749Z</time>
      </trkpt>
      <trkpt lat="37.01037" lon="-2.53654">
        <ele>335.310998</ele>
        <time>2022-02-25T01:16:16.034Z</time>
      </trkpt>
      <trkpt lat="37.00983" lon="-2.53661">
        <ele>334.977721</ele>
        <time>2022-02-25T01:16:35.529Z</time>
      </trkpt>
      <trkpt lat="37.0088" lon="-2.53626">
        <ele>334.297407</ele>
        <time>2022-02-25T01:17:14.395Z</time>
      </trkpt>
      <trkpt lat="37.00819" lon="-2.53627">
        <ele>332.748405</ele>
        <time>2022-02-25T01:17:34.302Z</time>
      </trkpt>
      <trkpt lat="37.00765" lon="-2.53643">
        <ele>330.747079</ele>
        <time>2022-02-25T01:17:51.745Z</time>
      </trkpt>
      <trkpt lat="37.00493" lon="-2.53696">
        <ele>318.399074</ele>
        <time>2022-02-25T01:19:10.305Z</time>
      </trkpt>
      <trkpt lat="37.0029" lon="-2.53697">
        <ele>314.741891</ele>
        <time>2022-02-25T01:20:15.177Z</time>
      </trkpt>
      <trkpt lat="37.0027" lon="-2.53695">
        <ele>315.195954</ele>
        <time>2022-02-25T01:20:23.002Z</time>
      </trkpt>
      <trkpt lat="37.00275" lon="-2.53806">
        <ele>317.26707</ele>
        <time>2022-02-25T01:21:09.561Z</time>
      </trkpt>
      <trkpt lat="37.00252" lon="-2.53899">
        <ele>320.730622</ele>
        <time>2022-02-25T01:22:00.970Z</time>
      </trkpt>
      <trkpt lat="37.00241" lon="-2.5392">
        <ele>322.036258</ele>
        <time>2022-02-25T01:22:15.991Z</time>
      </trkpt>
      <trkpt lat="37.00182" lon="-2.53998">
        <ele>327.646298</ele>
        <time>2022-02-25T01:23:16.610Z</time>
      </trkpt>
      <trkpt lat="37.00181" lon="-2.54062">
        <ele>331.064592</ele>
        <time>2022-02-25T01:23:53.612Z</time>
      </trkpt>
      <trkpt lat="37.00187" lon="-2.54087">
        <ele>332.61871</ele>
        <time>2022-02-25T01:24:09.613Z</time>
      </trkpt>
      <trkpt lat="37.00218" lon="-2.54152">
        <ele>336.943926</ele>
        <time>2022-02-25T01:24:52.129Z</time>
      </trkpt>
      <trkpt lat="37.0022" lon="-2.54177">
        <ele>338.393118</ele>
        <time>2022-02-25T01:25:07.171Z</time>
      </trkpt>
      <trkpt lat="37.00168" lon="-2.54243">
        <ele>343.847859</ele>
        <time>2022-02-25T01:26:01.186Z</time>
      </trkpt>
      <trkpt lat="37.00146" lon="-2.54295">
        <ele>347.825425</ele>
        <time>2022-02-25T01:26:38.071Z</time>
      </trkpt>
      <trkpt lat="37.00139" lon="-2.5435">
        <ele>351.538569</ele>
        <time>2022-02-25T01:27:15.482Z</time>
      </trkpt>
      <trkpt lat="37.0015" lon="-2.5441">
        <ele>355.642265</ele>
        <time>2022-02-25T01:27:55.353Z</time>
      </trkpt>
      <trkpt lat="37.00166" lon="-2.54428">
        <ele>357.453639</ele>
        <time>2022-02-25T01:28:12.277Z</time>
      </trkpt>
      <trkpt lat="37.00217" lon="-2.54442">
        <ele>360.513468</ele>
        <time>2022-02-25T01:28:52.665Z</time>
      </trkpt>
      <trkpt lat="37.00247" lon="-2.54456">
        <ele>362.287391</ele>
        <time>2022-02-25T01:29:14.183Z</time>
      </trkpt>
      <trkpt lat="37.003" lon="-2.54522">
        <ele>366.436228</ele>
        <time>2022-02-25T01:29:59.343Z</time>
      </trkpt>
      <trkpt lat="37.00296" lon="-2.54546">
        <ele>367.524736</ele>
        <time>2022-02-25T01:30:10.464Z</time>
      </trkpt>
      <trkpt lat="37.00255" lon="-2.54518">
        <ele>370.353326</ele>
        <time>2022-02-25T01:30:32.587Z</time>
      </trkpt>
      <trkpt lat="37.00219" lon="-2.54514">
        <ele>372.654269</ele>
        <time>2022-02-25T01:30:52.247Z</time>
      </trkpt>
      <trkpt lat="37.00238" lon="-2.54536">
        <ele>374.279563</ele>
        <time>2022-02-25T01:31:08.910Z</time>
      </trkpt>
      <trkpt lat="37.00232" lon="-2.54541">
        <ele>374.74387</ele>
        <time>2022-02-25T01:31:13.697Z</time>
      </trkpt>
      <trkpt lat="37.00215" lon="-2.54539">
        <ele>375.772909</ele>
        <time>2022-02-25T01:31:25.433Z</time>
      </trkpt>
      <trkpt lat="37.00235" lon="-2.54562">
        <ele>377.445912</ele>
        <time>2022-02-25T01:31:47.465Z</time>
      </trkpt>
      <trkpt lat="37.00223" lon="-2.54575">
        <ele>378.39748</ele>
        <time>2022-02-25T01:32:00.346Z</time>
      </trkpt>
      <trkpt lat="37.00228" lon="-2.54596">
        <ele>379.87042</ele>
        <time>2022-02-25T01:32:16.936Z</time>
      </trkpt>
      <trkpt lat="37.00223" lon="-2.5466">
        <ele>386.80825</ele>
        <time>2022-02-25T01:33:06.944Z</time>
      </trkpt>
      <trkpt lat="37.00256" lon="-2.5472">
        <ele>394.620514</ele>
        <time>2022-02-25T01:34:10.455Z</time>
      </trkpt>
      <trkpt lat="37.00251" lon="-2.54764">
        <ele>399.44351</ele>
        <time>2022-02-25T01:34:50.251Z</time>
      </trkpt>
      <trkpt lat="37.00255" lon="-2.54777">
        <ele>400.898476</ele>
        <time>2022-02-25T01:35:01.985Z</time>
      </trkpt>
      <trkpt lat="37.00276" lon="-2.54781">
        <ele>403.839084</ele>
        <time>2022-02-25T01:35:27.516Z</time>
      </trkpt>
      <trkpt lat="37.00269" lon="-2.54821">
        <ele>408.079069</ele>
        <time>2022-02-25T01:36:05.395Z</time>
      </trkpt>
      <trkpt lat="37.00247" lon="-2.54827">
        <ele>410.961625</ele>
        <time>2022-02-25T01:36:29.780Z</time>
      </trkpt>
      <trkpt lat="37.00247" lon="-2.54872">
        <ele>415.634089</ele>
        <time>2022-02-25T01:37:07.436Z</time>
      </trkpt>
      <trkpt lat="37.00221" lon="-2.54923">
        <ele>421.816145</ele>
        <time>2022-02-25T01:37:53.224Z</time>
      </trkpt>
      <trkpt lat="37.00224" lon="-2.54968">
        <ele>426.556873</ele>
        <time>2022-02-25T01:38:27.748Z</time>
      </trkpt>
      <trkpt lat="37.00213" lon="-2.55019">
        <ele>430.692249</ele>
        <time>2022-02-25T01:39:05.028Z</time>
      </trkpt>
      <trkpt lat="37.00212" lon="-2.55059">
        <ele>433.796395</ele>
        <time>2022-02-25T01:39:33.276Z</time>
      </trkpt>
      <trkpt lat="37.00206" lon="-2.55093">
        <ele>436.576593</ele>
        <time>2022-02-25T01:39:58.134Z</time>
      </trkpt>
      <trkpt lat="37.00218" lon="-2.5521">
        <ele>445.745018</ele>
        <time>2022-02-25T01:41:14.460Z</time>
      </trkpt>
      <trkpt lat="37.00226" lon="-2.55247">
        <ele>448.724012</ele>
        <time>2022-02-25T01:41:38.272Z</time>
      </trkpt>
      <trkpt lat="37.00222" lon="-2.55309">
        <ele>453.532664</ele>
        <time>2022-02-25T01:42:23.089Z</time>
      </trkpt>
      <trkpt lat="37.00236" lon="-2.55337">
        <ele>456.07207</ele>
        <time>2022-02-25T01:42:46.118Z</time>
      </trkpt>
      <trkpt lat="37.00229" lon="-2.55361">
        <ele>458.052201</ele>
        <time>2022-02-25T01:43:04.813Z</time>
      </trkpt>
      <trkpt lat="37.00238" lon="-2.5541">
        <ele>461.854025</ele>
        <time>2022-02-25T01:43:38.488Z</time>
      </trkpt>
      <trkpt lat="37.00238" lon="-2.55464">
        <ele>465.321736</ele>
        <time>2022-02-25T01:44:14.381Z</time>
      </trkpt>
      <trkpt lat="37.00224" lon="-2.5548">
        <ele>466.882308</ele>
        <time>2022-02-25T01:44:31.693Z</time>
      </trkpt>
      <trkpt lat="37.00189" lon="-2.55474">
        <ele>469.72471</ele>
        <time>2022-02-25T01:44:59.502Z</time>
      </trkpt>
      <trkpt lat="37.0017" lon="-2.55489">
        <ele>471.592304</ele>
        <time>2022-02-25T01:45:16.999Z</time>
      </trkpt>
      <trkpt lat="37.0016" lon="-2.55525">
        <ele>474.036635</ele>
        <time>2022-02-25T01:45:40.233Z</time>
      </trkpt>
      <trkpt lat="37.00153" lon="-2.55531">
        <ele>474.724564</ele>
        <time>2022-02-25T01:45:47.501Z</time>
      </trkpt>
      <trkpt lat="37.00138" lon="-2.55528">
        <ele>475.972121</ele>
        <time>2022-02-25T01:45:59.041Z</time>
      </trkpt>
      <trkpt lat="37.00127" lon="-2.55538">
        <ele>476.237462</ele>
        <time>2022-02-25T01:46:07.426Z</time>
      </trkpt>
      <trkpt lat="37.00131" lon="-2.55574">
        <ele>476.443022</ele>
        <time>2022-02-25T01:46:23.974Z</time>
      </trkpt>
      <trkpt lat="37.00144" lon="-2.5559">
        <ele>476.576729</ele>
        <time>2022-02-25T01:46:31.964Z</time>
      </trkpt>
      <trkpt lat="37.00141" lon="-2.55603">
        <ele>476.651944</ele>
        <time>2022-02-25T01:46:35.599Z</time>
      </trkpt>
      <trkpt lat="37.00118" lon="-2.55608">
        <ele>476.820287</ele>
        <time>2022-02-25T01:46:43.634Z</time>
      </trkpt>
      <trkpt lat="37.00104" lon="-2.55595">
        <ele>476.94629</ele>
        <time>2022-02-25T01:46:49.643Z</time>
      </trkpt>
      <trkpt lat="37.00094" lon="-2.55611">
        <ele>477.063853</ele>
        <time>2022-02-25T01:46:55.479Z</time>
      </trkpt>
      <trkpt lat="37.00112" lon="-2.5564">
        <ele>477.276637</ele>
        <time>2022-02-25T01:47:05.633Z</time>
      </trkpt>
      <trkpt lat="37.00134" lon="-2.557">
        <ele>475.673861</ele>
        <time>2022-02-25T01:47:24.050Z</time>
      </trkpt>
      <trkpt lat="37.0013" lon="-2.5572">
        <ele>474.675377</ele>
        <time>2022-02-25T01:47:28.492Z</time>
      </trkpt>
      <trkpt lat="37.00079" lon="-2.55732">
        <ele>471.532222</ele>
        <time>2022-02-25T01:47:36.710Z</time>
      </trkpt>
      <trkpt lat="37.00066" lon="-2.55757">
        <ele>470.090761</ele>
        <time>2022-02-25T01:47:40.173Z</time>
      </trkpt>
      <trkpt lat="37.00061" lon="-2.55791">
        <ele>468.39503</ele>
        <time>2022-02-25T01:47:44.345Z</time>
      </trkpt>
      <trkpt lat="37.00071" lon="-2.55823">
        <ele>466.717806</ele>
        <time>2022-02-25T01:47:48.375Z</time>
      </trkpt>
      <trkpt lat="37.00084" lon="-2.55843">
        <ele>464.441474</ele>
        <time>2022-02-25T01:47:53.261Z</time>
      </trkpt>
      <trkpt lat="37.00083" lon="-2.55893">
        <ele>459.508022</ele>
        <time>2022-02-25T01:48:03.588Z</time>
      </trkpt>
      <trkpt lat="37.00067" lon="-2.55946">
        <ele>453.929686</ele>
        <time>2022-02-25T01:48:14.767Z</time>
      </trkpt>
      <trkpt lat="37.00062" lon="-2.56023">
        <ele>446.218215</ele>
        <time>2022-02-25T01:48:29.714Z</time>
      </trkpt>
      <trkpt lat="37.00074" lon="-2.56049">
        <ele>443.204413</ele>
        <time>2022-02-25T01:48:35.663Z</time>
      </trkpt>
      <trkpt lat="37.00067" lon="-2.56124">
        <ele>435.578386</ele>
        <time>2022-02-25T01:48:50.464Z</time>
      </trkpt>
      <trkpt lat="37.0007" lon="-2.56161">
        <ele>431.806539</ele>
        <time>2022-02-25T01:48:57.748Z</time>
      </trkpt>
      <trkpt lat="37.00082" lon="-2.5618">
        <ele>429.382898</ele>
        <time>2022-02-25T01:49:02.500Z</time>
      </trkpt>
      <trkpt lat="37.0008" lon="-2.56218">
        <ele>425.560842</ele>
        <time>2022-02-25T01:49:10.029Z</time>
      </trkpt>
      <trkpt lat="37.00073" lon="-2.56233">
        <ele>423.742771</ele>
        <time>2022-02-25T01:49:13.671Z</time>
      </trkpt>
      <trkpt lat="37.00074" lon="-2.56271">
        <ele>420.578716</ele>
        <time>2022-02-25T01:49:21.406Z</time>
      </trkpt>
      <trkpt lat="37.00062" lon="-2.56287">
        <ele>419.346476</ele>
        <time>2022-02-25T01:49:26.015Z</time>
      </trkpt>
      <trkpt lat="37.00052" lon="-2.5633">
        <ele>416.883244</ele>
        <time>2022-02-25T01:49:35.615Z</time>
      </trkpt>
      <trkpt lat="37.00027" lon="-2.56403">
        <ele>412.515146</ele>
        <time>2022-02-25T01:49:53.397Z</time>
      </trkpt>
      <trkpt lat="37.00009" lon="-2.5643">
        <ele>410.559411</ele>
        <time>2022-02-25T01:50:01.491Z</time>
      </trkpt>
      <trkpt lat="36.9998" lon="-2.56435">
        <ele>408.788497</ele>
        <time>2022-02-25T01:50:10.019Z</time>
      </trkpt>
      <trkpt lat="36.99967" lon="-2.56444">
        <ele>408.278015</ele>
        <time>2022-02-25T01:50:14.536Z</time>
      </trkpt>
      <trkpt lat="36.99959" lon="-2.56486">
        <ele>407.111631</ele>
        <time>2022-02-25T01:50:25.000Z</time>
      </trkpt>
      <trkpt lat="36.99964" lon="-2.56531">
        <ele>405.868519</ele>
        <time>2022-02-25T01:50:36.487Z</time>
      </trkpt>
      <trkpt lat="36.9996" lon="-2.56566">
        <ele>404.925324</ele>
        <time>2022-02-25T01:50:45.186Z</time>
      </trkpt>
      <trkpt lat="36.99903" lon="-2.56657">
        <ele>401.848696</ele>
        <time>2022-02-25T01:51:01.913Z</time>
      </trkpt>
      <trkpt lat="36.99874" lon="-2.5668">
        <ele>400.767704</ele>
        <time>2022-02-25T01:51:07.982Z</time>
      </trkpt>
      <trkpt lat="36.99842" lon="-2.56719">
        <ele>399.350604</ele>
        <time>2022-02-25T01:51:16.046Z</time>
      </trkpt>
      <trkpt lat="36.99827" lon="-2.56769">
        <ele>398.012757</ele>
        <time>2022-02-25T01:51:23.695Z</time>
      </trkpt>
      <trkpt lat="36.99768" lon="-2.5682">
        <ele>395.536104</ele>
        <time>2022-02-25T01:51:36.610Z</time>
      </trkpt>
      <trkpt lat="36.99738" lon="-2.56827">
        <ele>394.438631</ele>
        <time>2022-02-25T01:51:42.111Z</time>
      </trkpt>
      <trkpt lat="36.99716" lon="-2.56823">
        <ele>393.647083</ele>
        <time>2022-02-25T01:51:45.974Z</time>
      </trkpt>
      <trkpt lat="36.99685" lon="-2.56806">
        <ele>392.417</ele>
        <time>2022-02-25T01:51:52.042Z</time>
      </trkpt>
      <trkpt lat="36.99648" lon="-2.56852">
        <ele>390.379654</ele>
        <time>2022-02-25T01:52:01.224Z</time>
      </trkpt>
      <trkpt lat="36.9963" lon="-2.56893">
        <ele>388.250106</ele>
        <time>2022-02-25T01:52:07.285Z</time>
      </trkpt>
      <trkpt lat="36.99626" lon="-2.56937">
        <ele>386.179753</ele>
        <time>2022-02-25T01:52:13.022Z</time>
      </trkpt>
      <trkpt lat="36.9965" lon="-2.56997">
        <ele>383.096238</ele>
        <time>2022-02-25T01:52:21.571Z</time>
      </trkpt>
      <trkpt lat="36.99666" lon="-2.571">
        <ele>378.464767</ele>
        <time>2022-02-25T01:52:34.918Z</time>
      </trkpt>
      <trkpt lat="36.99683" lon="-2.57157">
        <ele>375.971751</ele>
        <time>2022-02-25T01:52:42.791Z</time>
      </trkpt>
      <trkpt lat="36.99693" lon="-2.57193">
        <ele>374.390098</ele>
        <time>2022-02-25T01:52:47.826Z</time>
      </trkpt>
      <trkpt lat="36.99695" lon="-2.57218">
        <ele>373.32702</ele>
        <time>2022-02-25T01:52:51.274Z</time>
      </trkpt>
      <trkpt lat="36.99686" lon="-2.57258">
        <ele>371.630144</ele>
        <time>2022-02-25T01:52:56.955Z</time>
      </trkpt>
      <trkpt lat="36.99657" lon="-2.57306">
        <ele>369.727411</ele>
        <time>2022-02-25T01:53:05.621Z</time>
      </trkpt>
      <trkpt lat="36.99633" lon="-2.57335">
        <ele>368.535016</ele>
        <time>2022-02-25T01:53:11.566Z</time>
      </trkpt>
      <trkpt lat="36.9963" lon="-2.57354">
        <ele>367.975226</ele>
        <time>2022-02-25T01:53:14.380Z</time>
      </trkpt>
      <trkpt lat="36.99632" lon="-2.57371">
        <ele>367.482842</ele>
        <time>2022-02-25T01:53:16.860Z</time>
      </trkpt>
      <trkpt lat="36.99669" lon="-2.57396">
        <ele>365.978332</ele>
        <time>2022-02-25T01:53:24.451Z</time>
      </trkpt>
      <trkpt lat="36.99682" lon="-2.57441">
        <ele>364.624824</ele>
        <time>2022-02-25T01:53:30.889Z</time>
      </trkpt>
      <trkpt lat="36.99684" lon="-2.57458">
        <ele>364.081427</ele>
        <time>2022-02-25T01:53:33.192Z</time>
      </trkpt>
      <trkpt lat="36.99678" lon="-2.57491">
        <ele>363.02758</ele>
        <time>2022-02-25T01:53:37.780Z</time>
      </trkpt>
      <trkpt lat="36.99687" lon="-2.57517">
        <ele>362.145968</ele>
        <time>2022-02-25T01:53:41.620Z</time>
      </trkpt>
      <trkpt lat="36.99685" lon="-2.57569">
        <ele>360.549675</ele>
        <time>2022-02-25T01:53:48.641Z</time>
      </trkpt>
      <trkpt lat="36.99671" lon="-2.57579">
        <ele>359.945462</ele>
        <time>2022-02-25T01:53:51.187Z</time>
      </trkpt>
      <trkpt lat="36.99625" lon="-2.57585">
        <ele>358.128359</ele>
        <time>2022-02-25T01:53:59.604Z</time>
      </trkpt>
      <trkpt lat="36.99593" lon="-2.57578">
        <ele>357.275817</ele>
        <time>2022-02-25T01:54:05.559Z</time>
      </trkpt>
      <trkpt lat="36.9957" lon="-2.57584">
        <ele>356.837707</ele>
        <time>2022-02-25T01:54:10.245Z</time>
      </trkpt>
      <trkpt lat="36.99531" lon="-2.57605">
        <ele>356.045164</ele>
        <time>2022-02-25T01:54:18.446Z</time>
      </trkpt>
      <trkpt lat="36.99512" lon="-2.57607">
        <ele>355.708557</ele>
        <time>2022-02-25T01:54:22.364Z</time>
      </trkpt>
      <trkpt lat="36.99476" lon="-2.57616">
        <ele>355.03038</ele>
        <time>2022-02-25T01:54:30.223Z</time>
      </trkpt>
      <trkpt lat="36.9946" lon="-2.5763">
        <ele>354.663912</ele>
        <time>2022-02-25T01:54:34.264Z</time>
      </trkpt>
      <trkpt lat="36.99451" lon="-2.57648">
        <ele>354.344622</ele>
        <time>2022-02-25T01:54:37.931Z</time>
      </trkpt>
      <trkpt lat="36.9945" lon="-2.57665">
        <ele>353.628019</ele>
        <time>2022-02-25T01:54:40.396Z</time>
      </trkpt>
      <trkpt lat="36.99457" lon="-2.57683">
        <ele>352.607465</ele>
        <time>2022-02-25T01:54:43.547Z</time>
      </trkpt>
      <trkpt lat="36.99461" lon="-2.57731">
        <ele>350.280653</ele>
        <time>2022-02-25T01:54:50.157Z</time>
      </trkpt>
      <trkpt lat="36.99471" lon="-2.57788">
        <ele>347.437017</ele>
        <time>2022-02-25T01:54:57.682Z</time>
      </trkpt>
      <trkpt lat="36.99503" lon="-2.57832">
        <ele>344.543212</ele>
        <time>2022-02-25T01:55:04.888Z</time>
      </trkpt>
      <trkpt lat="36.99506" lon="-2.57861">
        <ele>343.062248</ele>
        <time>2022-02-25T01:55:08.289Z</time>
      </trkpt>
      <trkpt lat="36.99499" lon="-2.5791">
        <ele>339.634713</ele>
        <time>2022-02-25T01:55:14.212Z</time>
      </trkpt>
      <trkpt lat="36.99488" lon="-2.57973">
        <ele>335.161321</ele>
        <time>2022-02-25T01:55:21.984Z</time>
      </trkpt>
      <trkpt lat="36.99491" lon="-2.57983">
        <ele>334.464918</ele>
        <time>2022-02-25T01:55:23.165Z</time>
      </trkpt>
      <trkpt lat="36.99502" lon="-2.58022">
        <ele>331.601858</ele>
        <time>2022-02-25T01:55:28.210Z</time>
      </trkpt>
      <trkpt lat="36.9951" lon="-2.58049">
        <ele>329.619327</ele>
        <time>2022-02-25T01:55:31.793Z</time>
      </trkpt>
      <trkpt lat="36.9947" lon="-2.58043">
        <ele>327.173057</ele>
        <time>2022-02-25T01:55:38.306Z</time>
      </trkpt>
      <trkpt lat="36.99402" lon="-2.58062">
        <ele>324.683764</ele>
        <time>2022-02-25T01:55:50.591Z</time>
      </trkpt>
      <trkpt lat="36.99382" lon="-2.58061">
        <ele>323.972896</ele>
        <time>2022-02-25T01:55:54.317Z</time>
      </trkpt>
      <trkpt lat="36.99354" lon="-2.58128">
        <ele>321.829005</ele>
        <time>2022-02-25T01:56:05.470Z</time>
      </trkpt>
      <trkpt lat="36.99332" lon="-2.58174">
        <ele>320.334347</ele>
        <time>2022-02-25T01:56:14.087Z</time>
      </trkpt>
      <trkpt lat="36.99311" lon="-2.58206">
        <ele>319.223891</ele>
        <time>2022-02-25T01:56:20.554Z</time>
      </trkpt>
      <trkpt lat="36.99295" lon="-2.58217">
        <ele>318.601469</ele>
        <time>2022-02-25T01:56:23.859Z</time>
      </trkpt>
      <trkpt lat="36.99283" lon="-2.5822">
        <ele>318.182753</ele>
        <time>2022-02-25T01:56:26.026Z</time>
      </trkpt>
      <trkpt lat="36.99269" lon="-2.58231">
        <ele>317.614082</ele>
        <time>2022-02-25T01:56:29.005Z</time>
      </trkpt>
      <trkpt lat="36.99262" lon="-2.5827">
        <ele>316.520163</ele>
        <time>2022-02-25T01:56:34.351Z</time>
      </trkpt>
      <trkpt lat="36.99254" lon="-2.58292">
        <ele>315.848795</ele>
        <time>2022-02-25T01:56:37.553Z</time>
      </trkpt>
      <trkpt lat="36.99227" lon="-2.58345">
        <ele>313.559587</ele>
        <time>2022-02-25T01:56:45.865Z</time>
      </trkpt>
      <trkpt lat="36.99207" lon="-2.5836">
        <ele>312.406828</ele>
        <time>2022-02-25T01:56:49.553Z</time>
      </trkpt>
      <trkpt lat="36.99186" lon="-2.58371">
        <ele>311.263712</ele>
        <time>2022-02-25T01:56:53.440Z</time>
      </trkpt>
      <trkpt lat="36.99169" lon="-2.58389">
        <ele>310.110836</ele>
        <time>2022-02-25T01:56:57.403Z</time>
      </trkpt>
      <trkpt lat="36.99164" lon="-2.58403">
        <ele>309.476772</ele>
        <time>2022-02-25T01:56:59.578Z</time>
      </trkpt>
      <trkpt lat="36.99124" lon="-2.58423">
        <ele>307.319638</ele>
        <time>2022-02-25T01:57:06.642Z</time>
      </trkpt>
      <trkpt lat="36.9911" lon="-2.58445">
        <ele>306.202115</ele>
        <time>2022-02-25T01:57:10.189Z</time>
      </trkpt>
      <trkpt lat="36.991" lon="-2.58498">
        <ele>303.960371</ele>
        <time>2022-02-25T01:57:17.186Z</time>
      </trkpt>
      <trkpt lat="36.99096" lon="-2.58504">
        <ele>303.676338</ele>
        <time>2022-02-25T01:57:18.083Z</time>
      </trkpt>
      <trkpt lat="36.99104" lon="-2.58506">
        <ele>303.261416</ele>
        <time>2022-02-25T01:57:19.446Z</time>
      </trkpt>
      <trkpt lat="36.99086" lon="-2.58533">
        <ele>301.811172</ele>
        <time>2022-02-25T01:57:24.155Z</time>
      </trkpt>
      <trkpt lat="36.99073" lon="-2.58539">
        <ele>301.11019</ele>
        <time>2022-02-25T01:57:26.539Z</time>
      </trkpt>
      <trkpt lat="36.99054" lon="-2.58557">
        <ele>299.902194</ele>
        <time>2022-02-25T01:57:30.601Z</time>
      </trkpt>
      <trkpt lat="36.99053" lon="-2.58559">
        <ele>299.813229</ele>
        <time>2022-02-25T01:57:30.926Z</time>
      </trkpt>
      <trkpt lat="36.9905" lon="-2.58558">
        <ele>299.685354</ele>
        <time>2022-02-25T01:57:31.385Z</time>
      </trkpt>
      <trkpt lat="36.99034" lon="-2.5855">
        <ele>298.804221</ele>
        <time>2022-02-25T01:57:34.262Z</time>
      </trkpt>
      <trkpt lat="36.99028" lon="-2.58552">
        <ele>298.480269</ele>
        <time>2022-02-25T01:57:35.353Z</time>
      </trkpt>
      <trkpt lat="36.98991" lon="-2.58562">
        <ele>296.494503</ele>
        <time>2022-02-25T01:57:41.671Z</time>
      </trkpt>
      <trkpt lat="36.98975" lon="-2.58578">
        <ele>295.311639</ele>
        <time>2022-02-25T01:57:45.108Z</time>
      </trkpt>
      <trkpt lat="36.9896" lon="-2.58592">
        <ele>294.242189</ele>
        <time>2022-02-25T01:57:48.125Z</time>
      </trkpt>
      <trkpt lat="36.98938" lon="-2.58608">
        <ele>292.788188</ele>
        <time>2022-02-25T01:57:52.161Z</time>
      </trkpt>
      <trkpt lat="36.98935" lon="-2.58612">
        <ele>292.511938</ele>
        <time>2022-02-25T01:57:52.928Z</time>
      </trkpt>
      <trkpt lat="36.98927" lon="-2.58654">
        <ele>290.534869</ele>
        <time>2022-02-25T01:57:58.489Z</time>
      </trkpt>
      <trkpt lat="36.98914" lon="-2.58688">
        <ele>288.814563</ele>
        <time>2022-02-25T01:58:03.400Z</time>
      </trkpt>
      <trkpt lat="36.9891" lon="-2.58689">
        <ele>288.58387</ele>
        <time>2022-02-25T01:58:04.008Z</time>
      </trkpt>
      <trkpt lat="36.98895" lon="-2.58681">
        <ele>287.656392</ele>
        <time>2022-02-25T01:58:06.770Z</time>
      </trkpt>
      <trkpt lat="36.9889" lon="-2.58679">
        <ele>287.329015</ele>
        <time>2022-02-25T01:58:07.683Z</time>
      </trkpt>
      <trkpt lat="36.98877" lon="-2.5871">
        <ele>285.863086</ele>
        <time>2022-02-25T01:58:12.174Z</time>
      </trkpt>
      <trkpt lat="36.98852" lon="-2.58766">
        <ele>283.215989</ele>
        <time>2022-02-25T01:58:20.522Z</time>
      </trkpt>
      <trkpt lat="36.98852" lon="-2.5877">
        <ele>283.064328</ele>
        <time>2022-02-25T01:58:22.614Z</time>
      </trkpt>
      <trkpt lat="36.98851" lon="-2.5877">
        <ele>283.002783</ele>
        <time>2022-02-25T01:58:22.787Z</time>
      </trkpt>
      <trkpt lat="36.98845" lon="-2.58769">
        <ele>282.683511</ele>
        <time>2022-02-25T01:58:23.731Z</time>
      </trkpt>
      <trkpt lat="36.98844" lon="-2.58772">
        <ele>282.555476</ele>
        <time>2022-02-25T01:58:24.150Z</time>
      </trkpt>
      <trkpt lat="36.98841" lon="-2.58787">
        <ele>281.947103</ele>
        <time>2022-02-25T01:58:26.176Z</time>
      </trkpt>
      <trkpt lat="36.98836" lon="-2.58807">
        <ele>281.079978</ele>
        <time>2022-02-25T01:58:28.860Z</time>
      </trkpt>
      <trkpt lat="36.98853" lon="-2.58816">
        <ele>280.13493</ele>
        <time>2022-02-25T01:58:31.948Z</time>
      </trkpt>
      <trkpt lat="36.98839" lon="-2.5889">
        <ele>277.391453</ele>
        <time>2022-02-25T01:58:42.253Z</time>
      </trkpt>
      <trkpt lat="36.98716" lon="-2.58887">
        <ele>275.384387</ele>
        <time>2022-02-25T01:59:05.891Z</time>
      </trkpt>
      <trkpt lat="36.98754" lon="-2.58926">
        <ele>274.804369</ele>
        <time>2022-02-25T01:59:17.840Z</time>
      </trkpt>
      <trkpt lat="36.98755" lon="-2.5893">
        <ele>274.90041</ele>
        <time>2022-02-25T01:59:18.607Z</time>
      </trkpt>
      <trkpt lat="36.98761" lon="-2.59084">
        <ele>278.894741</ele>
        <time>2022-02-25T02:00:02.537Z</time>
      </trkpt>
      <trkpt lat="36.9877" lon="-2.59123">
        <ele>279.943324</ele>
        <time>2022-02-25T02:00:18.912Z</time>
      </trkpt>
      <trkpt lat="36.98781" lon="-2.59148">
        <ele>280.900246</ele>
        <time>2022-02-25T02:00:31.582Z</time>
      </trkpt>
      <trkpt lat="36.9878" lon="-2.59181">
        <ele>282.703324</ele>
        <time>2022-02-25T02:00:45.911Z</time>
      </trkpt>
      <trkpt lat="36.98771" lon="-2.59193">
        <ele>283.56009</ele>
        <time>2022-02-25T02:00:54.721Z</time>
      </trkpt>
      <trkpt lat="36.98736" lon="-2.59219">
        <ele>286.344029</ele>
        <time>2022-02-25T02:01:19.120Z</time>
      </trkpt>
      <trkpt lat="36.98647" lon="-2.59277">
        <ele>292.862108</ele>
        <time>2022-02-25T02:02:19.865Z</time>
      </trkpt>
      <trkpt lat="36.98573" lon="-2.5929">
        <ele>294.272419</ele>
        <time>2022-02-25T02:02:55.419Z</time>
      </trkpt>
      <trkpt lat="36.9849" lon="-2.59325">
        <ele>295.918546</ele>
        <time>2022-02-25T02:03:15.019Z</time>
      </trkpt>
      <trkpt lat="36.98462" lon="-2.59351">
        <ele>295.033487</ele>
        <time>2022-02-25T02:03:21.390Z</time>
      </trkpt>
      <trkpt lat="36.98428" lon="-2.59361">
        <ele>293.437761</ele>
        <time>2022-02-25T02:03:27.297Z</time>
      </trkpt>
      <trkpt lat="36.98401" lon="-2.59371">
        <ele>292.142749</ele>
        <time>2022-02-25T02:03:32.006Z</time>
      </trkpt>
      <trkpt lat="36.98388" lon="-2.59379">
        <ele>291.497548</ele>
        <time>2022-02-25T02:03:34.370Z</time>
      </trkpt>
      <trkpt lat="36.9838" lon="-2.59397">
        <ele>290.763561</ele>
        <time>2022-02-25T02:03:37.046Z</time>
      </trkpt>
      <trkpt lat="36.98383" lon="-2.59409">
        <ele>290.326464</ele>
        <time>2022-02-25T02:03:38.520Z</time>
      </trkpt>
      <trkpt lat="36.98377" lon="-2.59428">
        <ele>289.561691</ele>
        <time>2022-02-25T02:03:41.449Z</time>
      </trkpt>
      <trkpt lat="36.98379" lon="-2.59475">
        <ele>287.880971</ele>
        <time>2022-02-25T02:03:47.467Z</time>
      </trkpt>
      <trkpt lat="36.98372" lon="-2.59492">
        <ele>287.270676</ele>
        <time>2022-02-25T02:03:49.855Z</time>
      </trkpt>
      <trkpt lat="36.98382" lon="-2.59523">
        <ele>286.19187</ele>
        <time>2022-02-25T02:03:54.480Z</time>
      </trkpt>
      <trkpt lat="36.98383" lon="-2.59528">
        <ele>286.037584</ele>
        <time>2022-02-25T02:03:55.095Z</time>
      </trkpt>
      <trkpt lat="36.9838" lon="-2.59538">
        <ele>285.708626</ele>
        <time>2022-02-25T02:03:56.387Z</time>
      </trkpt>
      <trkpt lat="36.98375" lon="-2.59553">
        <ele>285.211279</ele>
        <time>2022-02-25T02:03:58.715Z</time>
      </trkpt>
      <trkpt lat="36.98376" lon="-2.59591">
        <ele>284.021355</ele>
        <time>2022-02-25T02:04:03.950Z</time>
      </trkpt>
      <trkpt lat="36.98379" lon="-2.59597">
        <ele>283.790032</ele>
        <time>2022-02-25T02:04:05.207Z</time>
      </trkpt>
      <trkpt lat="36.98377" lon="-2.59625">
        <ele>282.902286</ele>
        <time>2022-02-25T02:04:09.235Z</time>
      </trkpt>
      <trkpt lat="36.9837" lon="-2.5963">
        <ele>282.591532</ele>
        <time>2022-02-25T02:04:10.719Z</time>
      </trkpt>
      <trkpt lat="36.98367" lon="-2.59651">
        <ele>281.90274</ele>
        <time>2022-02-25T02:04:13.867Z</time>
      </trkpt>
      <trkpt lat="36.98366" lon="-2.5967">
        <ele>281.295503</ele>
        <time>2022-02-25T02:04:16.579Z</time>
      </trkpt>
      <trkpt lat="36.98362" lon="-2.5969">
        <ele>280.748763</ele>
        <time>2022-02-25T02:04:19.735Z</time>
      </trkpt>
      <trkpt lat="36.98361" lon="-2.59718">
        <ele>280.320406</ele>
        <time>2022-02-25T02:04:23.779Z</time>
      </trkpt>
      <trkpt lat="36.98365" lon="-2.59733">
        <ele>280.067956</ele>
        <time>2022-02-25T02:04:26.098Z</time>
      </trkpt>
      <trkpt lat="36.98372" lon="-2.59735">
        <ele>279.924006</ele>
        <time>2022-02-25T02:04:27.493Z</time>
      </trkpt>
      <trkpt lat="36.98376" lon="-2.59747">
        <ele>279.710415</ele>
        <time>2022-02-25T02:04:29.634Z</time>
      </trkpt>
      <trkpt lat="36.98388" lon="-2.598">
        <ele>278.845103</ele>
        <time>2022-02-25T02:04:37.907Z</time>
      </trkpt>
      <trkpt lat="36.98375" lon="-2.59811">
        <ele>278.533188</ele>
        <time>2022-02-25T02:04:40.831Z</time>
      </trkpt>
      <trkpt lat="36.98377" lon="-2.59839">
        <ele>278.08131</ele>
        <time>2022-02-25T02:04:45.453Z</time>
      </trkpt>
      <trkpt lat="36.98386" lon="-2.59869">
        <ele>277.586784</ele>
        <time>2022-02-25T02:04:50.487Z</time>
      </trkpt>
      <trkpt lat="36.98318" lon="-2.59902">
        <ele>277.614173</ele>
        <time>2022-02-25T02:05:05.318Z</time>
      </trkpt>
      <trkpt lat="36.98312" lon="-2.59906">
        <ele>277.656792</ele>
        <time>2022-02-25T02:05:06.953Z</time>
      </trkpt>
      <trkpt lat="36.98472" lon="-2.60351">
        <ele>280.558798</ele>
        <time>2022-02-25T02:06:51.976Z</time>
      </trkpt>
      <trkpt lat="36.98517" lon="-2.60479">
        <ele>282.105112</ele>
        <time>2022-02-25T02:07:26.912Z</time>
      </trkpt>
      <trkpt lat="36.98516" lon="-2.60697">
        <ele>284.822024</ele>
        <time>2022-02-25T02:08:18.971Z</time>
      </trkpt>
      <trkpt lat="36.98514" lon="-2.60822">
        <ele>286.391505</ele>
        <time>2022-02-25T02:08:48.320Z</time>
      </trkpt>
      <trkpt lat="36.98593" lon="-2.60998">
        <ele>289.207374</ele>
        <time>2022-02-25T02:09:38.384Z</time>
      </trkpt>
      <trkpt lat="36.98612" lon="-2.61052">
        <ele>290.064182</ele>
        <time>2022-02-25T02:09:53.414Z</time>
      </trkpt>
      <trkpt lat="36.98617" lon="-2.61094">
        <ele>290.673648</ele>
        <time>2022-02-25T02:10:04.307Z</time>
      </trkpt>
      <trkpt lat="36.98615" lon="-2.61217">
        <ele>292.486112</ele>
        <time>2022-02-25T02:10:35.725Z</time>
      </trkpt>
      <trkpt lat="36.98623" lon="-2.61264">
        <ele>293.192012</ele>
        <time>2022-02-25T02:10:47.908Z</time>
      </trkpt>
      <trkpt lat="36.98678" lon="-2.61396">
        <ele>294.867157</ele>
        <time>2022-02-25T02:11:23.666Z</time>
      </trkpt>
      <trkpt lat="36.98704" lon="-2.61502">
        <ele>295.940569</ele>
        <time>2022-02-25T02:11:48.032Z</time>
      </trkpt>
      <trkpt lat="36.98705" lon="-2.61574">
        <ele>296.518284</ele>
        <time>2022-02-25T02:12:02.352Z</time>
      </trkpt>
      <trkpt lat="36.98697" lon="-2.61601">
        <ele>296.73256</ele>
        <time>2022-02-25T02:12:07.720Z</time>
      </trkpt>
      <trkpt lat="36.98607" lon="-2.61757">
        <ele>298.713708</ele>
        <time>2022-02-25T02:12:50.501Z</time>
      </trkpt>
      <trkpt lat="36.9859" lon="-2.61814">
        <ele>299.77309</ele>
        <time>2022-02-25T02:13:06.156Z</time>
      </trkpt>
      <trkpt lat="36.98589" lon="-2.61877">
        <ele>300.866101</ele>
        <time>2022-02-25T02:13:23.442Z</time>
      </trkpt>
      <trkpt lat="36.98577" lon="-2.61938">
        <ele>302.066299</ele>
        <time>2022-02-25T02:13:42.584Z</time>
      </trkpt>
      <trkpt lat="36.98567" lon="-2.61986">
        <ele>303.247268</ele>
        <time>2022-02-25T02:13:57.982Z</time>
      </trkpt>
      <trkpt lat="36.98569" lon="-2.62014">
        <ele>303.900688</ele>
        <time>2022-02-25T02:14:06.724Z</time>
      </trkpt>
      <trkpt lat="36.98576" lon="-2.62031">
        <ele>304.368144</ele>
        <time>2022-02-25T02:14:12.984Z</time>
      </trkpt>
      <trkpt lat="36.98635" lon="-2.62099">
        <ele>306.742324</ele>
        <time>2022-02-25T02:14:41.858Z</time>
      </trkpt>
      <trkpt lat="36.98651" lon="-2.62139">
        <ele>307.753216</ele>
        <time>2022-02-25T02:14:54.404Z</time>
      </trkpt>
      <trkpt lat="36.98654" lon="-2.62155">
        <ele>308.125066</ele>
        <time>2022-02-25T02:14:59.417Z</time>
      </trkpt>
      <trkpt lat="36.98606" lon="-2.62587">
        <ele>319.746413</ele>
        <time>2022-02-25T02:17:04.567Z</time>
      </trkpt>
      <trkpt lat="36.98563" lon="-2.62741">
        <ele>329.934548</ele>
        <time>2022-02-25T02:18:31.211Z</time>
      </trkpt>
      <trkpt lat="36.98562" lon="-2.62744">
        <ele>330.190296</ele>
        <time>2022-02-25T02:18:33.454Z</time>
      </trkpt>
      <trkpt lat="36.98544" lon="-2.62794">
        <ele>334.054011</ele>
        <time>2022-02-25T02:19:06.271Z</time>
      </trkpt>
      <trkpt lat="36.98523" lon="-2.62831">
        <ele>337.525131</ele>
        <time>2022-02-25T02:19:32.464Z</time>
      </trkpt>
      <trkpt lat="36.98435" lon="-2.62928">
        <ele>348.863202</ele>
        <time>2022-02-25T02:20:52.610Z</time>
      </trkpt>
      <trkpt lat="36.98387" lon="-2.63008">
        <ele>356.617655</ele>
        <time>2022-02-25T02:21:52.494Z</time>
      </trkpt>
      <trkpt lat="36.9836" lon="-2.63034">
        <ele>359.95526</ele>
        <time>2022-02-25T02:22:17.472Z</time>
      </trkpt>
      <trkpt lat="36.9832" lon="-2.63054">
        <ele>364.113679</ele>
        <time>2022-02-25T02:22:48.299Z</time>
      </trkpt>
      <trkpt lat="36.98289" lon="-2.63075">
        <ele>367.174457</ele>
        <time>2022-02-25T02:23:12.249Z</time>
      </trkpt>
      <trkpt lat="36.98274" lon="-2.63094">
        <ele>368.450092</ele>
        <time>2022-02-25T02:23:25.975Z</time>
      </trkpt>
      <trkpt lat="36.98232" lon="-2.63232">
        <ele>375.378985</ele>
        <time>2022-02-25T02:24:31.419Z</time>
      </trkpt>
      <trkpt lat="36.98232" lon="-2.63259">
        <ele>376.649245</ele>
        <time>2022-02-25T02:24:37.508Z</time>
      </trkpt>
      <trkpt lat="36.98244" lon="-2.63296">
        <ele>377.721588</ele>
        <time>2022-02-25T02:24:45.707Z</time>
      </trkpt>
      <trkpt lat="36.9826" lon="-2.63318">
        <ele>378.271443</ele>
        <time>2022-02-25T02:24:51.249Z</time>
      </trkpt>
      <trkpt lat="36.98279" lon="-2.6332">
        <ele>378.721068</ele>
        <time>2022-02-25T02:24:56.121Z</time>
      </trkpt>
      <trkpt lat="36.98294" lon="-2.63312">
        <ele>379.093431</ele>
        <time>2022-02-25T02:25:00.515Z</time>
      </trkpt>
      <trkpt lat="36.98321" lon="-2.63263">
        <ele>380.18046</ele>
        <time>2022-02-25T02:25:15.333Z</time>
      </trkpt>
      <trkpt lat="36.98339" lon="-2.63249">
        <ele>380.665058</ele>
        <time>2022-02-25T02:25:22.872Z</time>
      </trkpt>
      <trkpt lat="36.98364" lon="-2.63256">
        <ele>381.273775</ele>
        <time>2022-02-25T02:25:33.331Z</time>
      </trkpt>
      <trkpt lat="36.98375" lon="-2.63277">
        <ele>382.50731</ele>
        <time>2022-02-25T02:25:41.333Z</time>
      </trkpt>
      <trkpt lat="36.98373" lon="-2.63304">
        <ele>383.984626</ele>
        <time>2022-02-25T02:25:51.401Z</time>
      </trkpt>
      <trkpt lat="36.98274" lon="-2.63407">
        <ele>392.890212</ele>
        <time>2022-02-25T02:27:08.052Z</time>
      </trkpt>
      <trkpt lat="36.98265" lon="-2.63421">
        <ele>393.909808</ele>
        <time>2022-02-25T02:27:19.176Z</time>
      </trkpt>
      <trkpt lat="36.9826" lon="-2.63441">
        <ele>395.378274</ele>
        <time>2022-02-25T02:27:31.304Z</time>
      </trkpt>
      <trkpt lat="36.9826" lon="-2.6355">
        <ele>403.009485</ele>
        <time>2022-02-25T02:28:32.389Z</time>
      </trkpt>
      <trkpt lat="36.98264" lon="-2.63582">
        <ele>405.264272</ele>
        <time>2022-02-25T02:28:48.858Z</time>
      </trkpt>
      <trkpt lat="36.98277" lon="-2.63602">
        <ele>407.048078</ele>
        <time>2022-02-25T02:29:02.119Z</time>
      </trkpt>
      <trkpt lat="36.98303" lon="-2.63616">
        <ele>409.514184</ele>
        <time>2022-02-25T02:29:19.135Z</time>
      </trkpt>
      <trkpt lat="36.98348" lon="-2.63625">
        <ele>412.701316</ele>
        <time>2022-02-25T02:29:46.109Z</time>
      </trkpt>
      <trkpt lat="36.98372" lon="-2.63647">
        <ele>414.77087</ele>
        <time>2022-02-25T02:30:04.329Z</time>
      </trkpt>
      <trkpt lat="36.98425" lon="-2.63766">
        <ele>422.088843</ele>
        <time>2022-02-25T02:31:06.128Z</time>
      </trkpt>
      <trkpt lat="36.98428" lon="-2.63791">
        <ele>422.460721</ele>
        <time>2022-02-25T02:31:15.708Z</time>
      </trkpt>
      <trkpt lat="36.98424" lon="-2.63862">
        <ele>423.532211</ele>
        <time>2022-02-25T02:31:38.446Z</time>
      </trkpt>
      <trkpt lat="36.98459" lon="-2.63859">
        <ele>424.187947</ele>
        <time>2022-02-25T02:31:48.264Z</time>
      </trkpt>
      <trkpt lat="36.98473" lon="-2.63873">
        <ele>424.53059</ele>
        <time>2022-02-25T02:31:52.432Z</time>
      </trkpt>
      <trkpt lat="36.9848" lon="-2.63891">
        <ele>424.817079</ele>
        <time>2022-02-25T02:31:55.614Z</time>
      </trkpt>
      <trkpt lat="36.98485" lon="-2.63905">
        <ele>425.04697</ele>
        <time>2022-02-25T02:31:58.084Z</time>
      </trkpt>
      <trkpt lat="36.9849" lon="-2.63918">
        <ele>425.260766</ele>
        <time>2022-02-25T02:32:00.331Z</time>
      </trkpt>
      <trkpt lat="36.98497" lon="-2.63922">
        <ele>425.315889</ele>
        <time>2022-02-25T02:32:01.741Z</time>
      </trkpt>
      <trkpt lat="36.98511" lon="-2.63925">
        <ele>425.016521</ele>
        <time>2022-02-25T02:32:04.330Z</time>
      </trkpt>
      <trkpt lat="36.98531" lon="-2.63917">
        <ele>424.557845</ele>
        <time>2022-02-25T02:32:08.026Z</time>
      </trkpt>
      <trkpt lat="36.98539" lon="-2.63913">
        <ele>424.365197</ele>
        <time>2022-02-25T02:32:09.587Z</time>
      </trkpt>
      <trkpt lat="36.98569" lon="-2.63899">
        <ele>423.677931</ele>
        <time>2022-02-25T02:32:14.712Z</time>
      </trkpt>
      <trkpt lat="36.98577" lon="-2.63895">
        <ele>423.497151</ele>
        <time>2022-02-25T02:32:16.160Z</time>
      </trkpt>
      <trkpt lat="36.98588" lon="-2.63891">
        <ele>423.257015</ele>
        <time>2022-02-25T02:32:18.111Z</time>
      </trkpt>
      <trkpt lat="36.98614" lon="-2.63894">
        <ele>422.693096</ele>
        <time>2022-02-25T02:32:22.600Z</time>
      </trkpt>
      <trkpt lat="36.98626" lon="-2.63905">
        <ele>422.366044</ele>
        <time>2022-02-25T02:32:25.263Z</time>
      </trkpt>
      <trkpt lat="36.98664" lon="-2.63899">
        <ele>421.551982</ele>
        <time>2022-02-25T02:32:32.296Z</time>
      </trkpt>
      <trkpt lat="36.98676" lon="-2.63904">
        <ele>421.705126</ele>
        <time>2022-02-25T02:32:35.061Z</time>
      </trkpt>
      <trkpt lat="36.98754" lon="-2.63984">
        <ele>423.910043</ele>
        <time>2022-02-25T02:33:07.203Z</time>
      </trkpt>
      <trkpt lat="36.98779" lon="-2.64039">
        <ele>425.013598</ele>
        <time>2022-02-25T02:33:28.615Z</time>
      </trkpt>
      <trkpt lat="36.9878" lon="-2.64042">
        <ele>425.074395</ele>
        <time>2022-02-25T02:33:29.819Z</time>
      </trkpt>
      <trkpt lat="36.98796" lon="-2.641">
        <ele>426.677849</ele>
        <time>2022-02-25T02:33:50.465Z</time>
      </trkpt>
      <trkpt lat="36.98804" lon="-2.6413">
        <ele>427.626297</ele>
        <time>2022-02-25T02:34:01.604Z</time>
      </trkpt>
      <trkpt lat="36.98838" lon="-2.64268">
        <ele>431.981141</ele>
        <time>2022-02-25T02:34:49.742Z</time>
      </trkpt>
      <trkpt lat="36.9884" lon="-2.64312">
        <ele>432.735701</ele>
        <time>2022-02-25T02:35:02.636Z</time>
      </trkpt>
      <trkpt lat="36.98852" lon="-2.64379">
        <ele>433.707875</ele>
        <time>2022-02-25T02:35:21.269Z</time>
      </trkpt>
      <trkpt lat="36.98862" lon="-2.64432">
        <ele>434.479374</ele>
        <time>2022-02-25T02:35:35.008Z</time>
      </trkpt>
      <trkpt lat="36.98902" lon="-2.64509">
        <ele>434.955471</ele>
        <time>2022-02-25T02:35:53.097Z</time>
      </trkpt>
      <trkpt lat="36.98929" lon="-2.64566">
        <ele>433.828801</ele>
        <time>2022-02-25T02:36:03.462Z</time>
      </trkpt>
      <trkpt lat="36.9894" lon="-2.64587">
        <ele>433.401188</ele>
        <time>2022-02-25T02:36:07.099Z</time>
      </trkpt>
      <trkpt lat="36.9912" lon="-2.6494">
        <ele>424.346864</ele>
        <time>2022-02-25T02:37:03.163Z</time>
      </trkpt>
      <trkpt lat="36.99151" lon="-2.65022">
        <ele>423.605556</ele>
        <time>2022-02-25T02:37:18.251Z</time>
      </trkpt>
      <trkpt lat="36.99161" lon="-2.65073">
        <ele>423.291063</ele>
        <time>2022-02-25T02:37:30.710Z</time>
      </trkpt>
      <trkpt lat="36.99164" lon="-2.65132">
        <ele>424.571684</ele>
        <time>2022-02-25T02:37:48.424Z</time>
      </trkpt>
      <trkpt lat="36.99159" lon="-2.65423">
        <ele>429.959167</ele>
        <time>2022-02-25T02:39:14.513Z</time>
      </trkpt>
      <trkpt lat="36.9916" lon="-2.65444">
        <ele>430.28018</ele>
        <time>2022-02-25T02:39:19.283Z</time>
      </trkpt>
      <trkpt lat="36.99173" lon="-2.65506">
        <ele>431.230367</ele>
        <time>2022-02-25T02:39:33.478Z</time>
      </trkpt>
      <trkpt lat="36.99198" lon="-2.65562">
        <ele>430.733974</ele>
        <time>2022-02-25T02:39:44.193Z</time>
      </trkpt>
      <trkpt lat="36.99216" lon="-2.65597">
        <ele>430.215008</ele>
        <time>2022-02-25T02:39:50.103Z</time>
      </trkpt>
      <trkpt lat="36.9921" lon="-2.6562">
        <ele>429.909893</ele>
        <time>2022-02-25T02:39:53.399Z</time>
      </trkpt>
      <trkpt lat="36.99206" lon="-2.65629">
        <ele>429.783825</ele>
        <time>2022-02-25T02:39:54.782Z</time>
      </trkpt>
      <trkpt lat="36.99208" lon="-2.6565">
        <ele>429.519634</ele>
        <time>2022-02-25T02:39:57.501Z</time>
      </trkpt>
      <trkpt lat="36.99237" lon="-2.65719">
        <ele>428.679685</ele>
        <time>2022-02-25T02:40:08.716Z</time>
      </trkpt>
      <trkpt lat="36.99255" lon="-2.65749">
        <ele>429.736821</ele>
        <time>2022-02-25T02:40:16.481Z</time>
      </trkpt>
      <trkpt lat="36.99271" lon="-2.6576">
        <ele>430.381305</ele>
        <time>2022-02-25T02:40:22.881Z</time>
      </trkpt>
      <trkpt lat="36.99303" lon="-2.65782">
        <ele>431.650515</ele>
        <time>2022-02-25T02:40:37.756Z</time>
      </trkpt>
      <trkpt lat="36.99338" lon="-2.65831">
        <ele>433.491577</ele>
        <time>2022-02-25T02:41:00.258Z</time>
      </trkpt>
      <trkpt lat="36.99314" lon="-2.6587">
        <ele>434.83337</ele>
        <time>2022-02-25T02:41:19.835Z</time>
      </trkpt>
      <trkpt lat="36.99301" lon="-2.65884">
        <ele>436.586096</ele>
        <time>2022-02-25T02:41:30.437Z</time>
      </trkpt>
      <trkpt lat="36.9929" lon="-2.65884">
        <ele>437.731744</ele>
        <time>2022-02-25T02:41:37.420Z</time>
      </trkpt>
      <trkpt lat="36.9926" lon="-2.65907">
        <ele>441.404257</ele>
        <time>2022-02-25T02:42:03.085Z</time>
      </trkpt>
      <trkpt lat="36.99271" lon="-2.65948">
        <ele>445.058848</ele>
        <time>2022-02-25T02:42:32.523Z</time>
      </trkpt>
      <trkpt lat="36.99278" lon="-2.6598">
        <ele>447.812587</ele>
        <time>2022-02-25T02:42:56.499Z</time>
      </trkpt>
      <trkpt lat="36.9928" lon="-2.66002">
        <ele>449.720552</ele>
        <time>2022-02-25T02:43:12.596Z</time>
      </trkpt>
      <trkpt lat="36.9928" lon="-2.66018">
        <ele>451.030406</ele>
        <time>2022-02-25T02:43:22.504Z</time>
      </trkpt>
      <trkpt lat="36.99272" lon="-2.66075">
        <ele>455.837175</ele>
        <time>2022-02-25T02:43:57.027Z</time>
      </trkpt>
      <trkpt lat="36.99256" lon="-2.66091">
        <ele>458.014131</ele>
        <time>2022-02-25T02:44:15.283Z</time>
      </trkpt>
      <trkpt lat="36.99256" lon="-2.66107">
        <ele>459.285193</ele>
        <time>2022-02-25T02:44:21.766Z</time>
      </trkpt>
      <trkpt lat="36.99243" lon="-2.66113">
        <ele>460.661887</ele>
        <time>2022-02-25T02:44:33.547Z</time>
      </trkpt>
      <trkpt lat="36.99236" lon="-2.66129">
        <ele>462.208973</ele>
        <time>2022-02-25T02:44:43.041Z</time>
      </trkpt>
      <trkpt lat="36.99235" lon="-2.66165">
        <ele>465.180845</ele>
        <time>2022-02-25T02:45:08.575Z</time>
      </trkpt>
      <trkpt lat="36.9924" lon="-2.6617">
        <ele>465.87158</ele>
        <time>2022-02-25T02:45:11.898Z</time>
      </trkpt>
      <trkpt lat="36.99243" lon="-2.66183">
        <ele>467.001683</ele>
        <time>2022-02-25T02:45:19.911Z</time>
      </trkpt>
      <trkpt lat="36.99233" lon="-2.66211">
        <ele>469.545952</ele>
        <time>2022-02-25T02:45:40.155Z</time>
      </trkpt>
      <trkpt lat="36.99227" lon="-2.66239">
        <ele>471.947395</ele>
        <time>2022-02-25T02:45:59.965Z</time>
      </trkpt>
      <trkpt lat="36.99199" lon="-2.66293">
        <ele>474.108857</ele>
        <time>2022-02-25T02:46:25.482Z</time>
      </trkpt>
      <trkpt lat="36.99192" lon="-2.66317">
        <ele>474.8588</ele>
        <time>2022-02-25T02:46:35.417Z</time>
      </trkpt>
      <trkpt lat="36.99171" lon="-2.66355">
        <ele>476.21474</ele>
        <time>2022-02-25T02:46:48.614Z</time>
      </trkpt>
      <trkpt lat="36.99175" lon="-2.66373">
        <ele>476.754206</ele>
        <time>2022-02-25T02:46:52.775Z</time>
      </trkpt>
      <trkpt lat="36.99174" lon="-2.664">
        <ele>477.537217</ele>
        <time>2022-02-25T02:47:01.979Z</time>
      </trkpt>
      <trkpt lat="36.99168" lon="-2.66417">
        <ele>478.080847</ele>
        <time>2022-02-25T02:47:05.087Z</time>
      </trkpt>
      <trkpt lat="36.99171" lon="-2.66424">
        <ele>478.303457</ele>
        <time>2022-02-25T02:47:06.210Z</time>
      </trkpt>
      <trkpt lat="36.9916" lon="-2.66446">
        <ele>479.003033</ele>
        <time>2022-02-25T02:47:11.507Z</time>
      </trkpt>
      <trkpt lat="36.99161" lon="-2.66458">
        <ele>479.074643</ele>
        <time>2022-02-25T02:47:13.694Z</time>
      </trkpt>
      <trkpt lat="36.99166" lon="-2.66466">
        <ele>479.141462</ele>
        <time>2022-02-25T02:47:15.370Z</time>
      </trkpt>
      <trkpt lat="36.99205" lon="-2.66481">
        <ele>479.468198</ele>
        <time>2022-02-25T02:47:23.238Z</time>
      </trkpt>
      <trkpt lat="36.99213" lon="-2.6649">
        <ele>479.551566</ele>
        <time>2022-02-25T02:47:25.171Z</time>
      </trkpt>
      <trkpt lat="36.9922" lon="-2.66511">
        <ele>479.699945</ele>
        <time>2022-02-25T02:47:28.689Z</time>
      </trkpt>
      <trkpt lat="36.99222" lon="-2.66552">
        <ele>479.957227</ele>
        <time>2022-02-25T02:47:35.631Z</time>
      </trkpt>
      <trkpt lat="36.9923" lon="-2.66598">
        <ele>480.261736</ele>
        <time>2022-02-25T02:47:44.816Z</time>
      </trkpt>
      <trkpt lat="36.99245" lon="-2.66645">
        <ele>482.421502</ele>
        <time>2022-02-25T02:48:02.923Z</time>
      </trkpt>
      <trkpt lat="36.99231" lon="-2.66684">
        <ele>485.853792</ele>
        <time>2022-02-25T02:48:23.501Z</time>
      </trkpt>
      <trkpt lat="36.99232" lon="-2.66695">
        <ele>486.783496</ele>
        <time>2022-02-25T02:48:29.025Z</time>
      </trkpt>
      <trkpt lat="36.99244" lon="-2.66715">
        <ele>488.787152</ele>
        <time>2022-02-25T02:48:44.026Z</time>
      </trkpt>
      <trkpt lat="36.99267" lon="-2.66726">
        <ele>491.305054</ele>
        <time>2022-02-25T02:49:04.432Z</time>
      </trkpt>
      <trkpt lat="36.99272" lon="-2.66736">
        <ele>492.229668</ele>
        <time>2022-02-25T02:49:12.779Z</time>
      </trkpt>
      <trkpt lat="36.99272" lon="-2.66756">
        <ele>493.853237</ele>
        <time>2022-02-25T02:49:26.774Z</time>
      </trkpt>
      <trkpt lat="36.99265" lon="-2.66814">
        <ele>498.548789</ele>
        <time>2022-02-25T02:50:10.601Z</time>
      </trkpt>
      <trkpt lat="36.99241" lon="-2.66867">
        <ele>504.12532</ele>
        <time>2022-02-25T02:50:55.371Z</time>
      </trkpt>
      <trkpt lat="36.99228" lon="-2.66922">
        <ele>509.312288</ele>
        <time>2022-02-25T02:51:34.591Z</time>
      </trkpt>
      <trkpt lat="36.99202" lon="-2.66946">
        <ele>512.956175</ele>
        <time>2022-02-25T02:51:59.203Z</time>
      </trkpt>
      <trkpt lat="36.9921" lon="-2.66973">
        <ele>515.587461</ele>
        <time>2022-02-25T02:52:16.037Z</time>
      </trkpt>
      <trkpt lat="36.99209" lon="-2.66986">
        <ele>516.791788</ele>
        <time>2022-02-25T02:52:22.309Z</time>
      </trkpt>
      <trkpt lat="36.99192" lon="-2.67033">
        <ele>520.615194</ele>
        <time>2022-02-25T02:52:48.514Z</time>
      </trkpt>
      <trkpt lat="36.99192" lon="-2.67042">
        <ele>521.101505</ele>
        <time>2022-02-25T02:52:52.952Z</time>
      </trkpt>
      <trkpt lat="36.99199" lon="-2.6705">
        <ele>521.784554</ele>
        <time>2022-02-25T02:52:58.547Z</time>
      </trkpt>
      <trkpt lat="36.99247" lon="-2.67052">
        <ele>525.171389</ele>
        <time>2022-02-25T02:53:23.590Z</time>
      </trkpt>
      <trkpt lat="36.99253" lon="-2.67058">
        <ele>525.74236</ele>
        <time>2022-02-25T02:53:27.461Z</time>
      </trkpt>
      <trkpt lat="36.99256" lon="-2.67071">
        <ele>526.501533</ele>
        <time>2022-02-25T02:53:33.635Z</time>
      </trkpt>
      <trkpt lat="36.99255" lon="-2.67174">
        <ele>532.281464</ele>
        <time>2022-02-25T02:54:20.658Z</time>
      </trkpt>
      <trkpt lat="36.99233" lon="-2.67332">
        <ele>540.355926</ele>
        <time>2022-02-25T02:55:35.856Z</time>
      </trkpt>
      <trkpt lat="36.99226" lon="-2.67348">
        <ele>541.262316</ele>
        <time>2022-02-25T02:55:43.421Z</time>
      </trkpt>
      <trkpt lat="36.99128" lon="-2.67427">
        <ele>544.3763</ele>
        <time>2022-02-25T02:56:28.882Z</time>
      </trkpt>
      <trkpt lat="36.99121" lon="-2.67438">
        <ele>544.533475</ele>
        <time>2022-02-25T02:56:31.361Z</time>
      </trkpt>
      <trkpt lat="36.9912" lon="-2.67463">
        <ele>544.809215</ele>
        <time>2022-02-25T02:56:35.442Z</time>
      </trkpt>
      <trkpt lat="36.99127" lon="-2.67476">
        <ele>544.990264</ele>
        <time>2022-02-25T02:56:37.769Z</time>
      </trkpt>
      <trkpt lat="36.9917" lon="-2.67467">
        <ele>545.595866</ele>
        <time>2022-02-25T02:56:45.819Z</time>
      </trkpt>
      <trkpt lat="36.99194" lon="-2.67485">
        <ele>546.205452</ele>
        <time>2022-02-25T02:56:51.445Z</time>
      </trkpt>
      <trkpt lat="36.99216" lon="-2.67493">
        <ele>546.758228</ele>
        <time>2022-02-25T02:56:59.090Z</time>
      </trkpt>
      <trkpt lat="36.99222" lon="-2.67502">
        <ele>546.986218</ele>
        <time>2022-02-25T02:57:02.693Z</time>
      </trkpt>
      <trkpt lat="36.99226" lon="-2.67522">
        <ele>547.386271</ele>
        <time>2022-02-25T02:57:08.500Z</time>
      </trkpt>
      <trkpt lat="36.99208" lon="-2.67571">
        <ele>548.429631</ele>
        <time>2022-02-25T02:57:24.738Z</time>
      </trkpt>
      <trkpt lat="36.99201" lon="-2.67599">
        <ele>548.998302</ele>
        <time>2022-02-25T02:57:34.283Z</time>
      </trkpt>
      <trkpt lat="36.99204" lon="-2.67639">
        <ele>549.767888</ele>
        <time>2022-02-25T02:57:47.208Z</time>
      </trkpt>
      <trkpt lat="36.99187" lon="-2.67677">
        <ele>551.293438</ele>
        <time>2022-02-25T02:58:02.070Z</time>
      </trkpt>
      <trkpt lat="36.99185" lon="-2.677">
        <ele>552.261062</ele>
        <time>2022-02-25T02:58:09.687Z</time>
      </trkpt>
      <trkpt lat="36.99193" lon="-2.67747">
        <ele>554.285323</ele>
        <time>2022-02-25T02:58:27.995Z</time>
      </trkpt>
      <trkpt lat="36.99218" lon="-2.67786">
        <ele>556.38005</ele>
        <time>2022-02-25T02:58:48.836Z</time>
      </trkpt>
      <trkpt lat="36.9921" lon="-2.67829">
        <ele>558.204307</ele>
        <time>2022-02-25T02:59:07.468Z</time>
      </trkpt>
      <trkpt lat="36.99234" lon="-2.67863">
        <ele>560.432961</ele>
        <time>2022-02-25T02:59:25.277Z</time>
      </trkpt>
      <trkpt lat="36.9925" lon="-2.67905">
        <ele>563.349297</ele>
        <time>2022-02-25T02:59:45.182Z</time>
      </trkpt>
      <trkpt lat="36.99275" lon="-2.67921">
        <ele>565.506519</ele>
        <time>2022-02-25T03:00:01.884Z</time>
      </trkpt>
      <trkpt lat="36.99277" lon="-2.67948">
        <ele>567.20699</ele>
        <time>2022-02-25T03:00:17.214Z</time>
      </trkpt>
      <trkpt lat="36.99273" lon="-2.67968">
        <ele>568.511952</ele>
        <time>2022-02-25T03:00:28.274Z</time>
      </trkpt>
      <trkpt lat="36.99201" lon="-2.68064">
        <ele>575.992843</ele>
        <time>2022-02-25T03:01:37.237Z</time>
      </trkpt>
      <trkpt lat="36.99195" lon="-2.68107">
        <ele>578.146972</ele>
        <time>2022-02-25T03:01:58.768Z</time>
      </trkpt>
      <trkpt lat="36.99166" lon="-2.68146">
        <ele>580.803931</ele>
        <time>2022-02-25T03:02:22.306Z</time>
      </trkpt>
      <trkpt lat="36.99164" lon="-2.68163">
        <ele>581.652963</ele>
        <time>2022-02-25T03:02:29.079Z</time>
      </trkpt>
      <trkpt lat="36.99182" lon="-2.68199">
        <ele>583.693754</ele>
        <time>2022-02-25T03:02:43.565Z</time>
      </trkpt>
      <trkpt lat="36.9918" lon="-2.68212">
        <ele>584.370089</ele>
        <time>2022-02-25T03:02:47.945Z</time>
      </trkpt>
      <trkpt lat="36.99157" lon="-2.68231">
        <ele>584.701403</ele>
        <time>2022-02-25T03:02:56.490Z</time>
      </trkpt>
      <trkpt lat="36.9913" lon="-2.68233">
        <ele>584.924263</ele>
        <time>2022-02-25T03:03:03.387Z</time>
      </trkpt>
      <trkpt lat="36.99082" lon="-2.68253">
        <ele>585.338184</ele>
        <time>2022-02-25T03:03:14.350Z</time>
      </trkpt>
      <trkpt lat="36.9908" lon="-2.68263">
        <ele>585.411595</ele>
        <time>2022-02-25T03:03:16.365Z</time>
      </trkpt>
      <trkpt lat="36.99107" lon="-2.68302">
        <ele>585.751417</ele>
        <time>2022-02-25T03:03:25.369Z</time>
      </trkpt>
      <trkpt lat="36.99123" lon="-2.68339">
        <ele>585.914192</ele>
        <time>2022-02-25T03:03:33.688Z</time>
      </trkpt>
      <trkpt lat="36.99126" lon="-2.68381">
        <ele>585.555407</ele>
        <time>2022-02-25T03:03:43.138Z</time>
      </trkpt>
      <trkpt lat="36.99123" lon="-2.68391">
        <ele>585.466996</ele>
        <time>2022-02-25T03:03:45.066Z</time>
      </trkpt>
      <trkpt lat="36.99077" lon="-2.68429">
        <ele>584.881234</ele>
        <time>2022-02-25T03:03:56.491Z</time>
      </trkpt>
      <trkpt lat="36.99037" lon="-2.68495">
        <ele>584.182242</ele>
        <time>2022-02-25T03:04:08.612Z</time>
      </trkpt>
      <trkpt lat="36.99047" lon="-2.68512">
        <ele>583.874112</ele>
        <time>2022-02-25T03:04:11.507Z</time>
      </trkpt>
      <trkpt lat="36.99111" lon="-2.6854">
        <ele>581.551349</ele>
        <time>2022-02-25T03:04:22.682Z</time>
      </trkpt>
      <trkpt lat="36.99124" lon="-2.68574">
        <ele>580.506038</ele>
        <time>2022-02-25T03:04:27.718Z</time>
      </trkpt>
      <trkpt lat="36.99137" lon="-2.68589">
        <ele>579.904473</ele>
        <time>2022-02-25T03:04:30.724Z</time>
      </trkpt>
      <trkpt lat="36.99148" lon="-2.6859">
        <ele>579.506283</ele>
        <time>2022-02-25T03:04:32.588Z</time>
      </trkpt>
      <trkpt lat="36.99181" lon="-2.68576">
        <ele>578.31313</ele>
        <time>2022-02-25T03:04:38.407Z</time>
      </trkpt>
      <trkpt lat="36.99209" lon="-2.68585">
        <ele>577.851705</ele>
        <time>2022-02-25T03:04:43.405Z</time>
      </trkpt>
      <trkpt lat="36.99213" lon="-2.68605">
        <ele>577.804931</ele>
        <time>2022-02-25T03:04:46.191Z</time>
      </trkpt>
      <trkpt lat="36.99199" lon="-2.68658">
        <ele>577.673372</ele>
        <time>2022-02-25T03:04:54.624Z</time>
      </trkpt>
      <trkpt lat="36.99205" lon="-2.68674">
        <ele>577.631195</ele>
        <time>2022-02-25T03:04:57.463Z</time>
      </trkpt>
      <trkpt lat="36.99227" lon="-2.68695">
        <ele>577.550247</ele>
        <time>2022-02-25T03:05:03.160Z</time>
      </trkpt>
      <trkpt lat="36.99249" lon="-2.6876">
        <ele>577.384212</ele>
        <time>2022-02-25T03:05:21.518Z</time>
      </trkpt>
      <trkpt lat="36.99246" lon="-2.68768">
        <ele>577.529002</ele>
        <time>2022-02-25T03:05:24.131Z</time>
      </trkpt>
      <trkpt lat="36.99213" lon="-2.68782">
        <ele>578.762343</ele>
        <time>2022-02-25T03:05:39.248Z</time>
      </trkpt>
      <trkpt lat="36.99183" lon="-2.68758">
        <ele>579.985264</ele>
        <time>2022-02-25T03:05:55.441Z</time>
      </trkpt>
      <trkpt lat="36.99161" lon="-2.68749">
        <ele>580.807438</ele>
        <time>2022-02-25T03:06:06.723Z</time>
      </trkpt>
      <trkpt lat="36.99087" lon="-2.68762">
        <ele>583.434431</ele>
        <time>2022-02-25T03:06:34.803Z</time>
      </trkpt>
      <trkpt lat="36.99042" lon="-2.68819">
        <ele>584.101026</ele>
        <time>2022-02-25T03:06:57.600Z</time>
      </trkpt>
      <trkpt lat="36.99027" lon="-2.68825">
        <ele>584.207477</ele>
        <time>2022-02-25T03:07:03.368Z</time>
      </trkpt>
      <trkpt lat="36.99017" lon="-2.68835">
        <ele>584.295454</ele>
        <time>2022-02-25T03:07:06.934Z</time>
      </trkpt>
      <trkpt lat="36.99004" lon="-2.68863">
        <ele>584.474771</ele>
        <time>2022-02-25T03:07:15.818Z</time>
      </trkpt>
      <trkpt lat="36.98991" lon="-2.68864">
        <ele>584.566217</ele>
        <time>2022-02-25T03:07:18.732Z</time>
      </trkpt>
      <trkpt lat="36.98981" lon="-2.68858">
        <ele>584.647168</ele>
        <time>2022-02-25T03:07:21.386Z</time>
      </trkpt>
      <trkpt lat="36.98968" lon="-2.68861">
        <ele>584.736718</ele>
        <time>2022-02-25T03:07:23.874Z</time>
      </trkpt>
      <trkpt lat="36.98964" lon="-2.68869">
        <ele>584.790194</ele>
        <time>2022-02-25T03:07:25.201Z</time>
      </trkpt>
      <trkpt lat="36.98968" lon="-2.68887">
        <ele>584.892095</ele>
        <time>2022-02-25T03:07:27.822Z</time>
      </trkpt>
      <trkpt lat="36.98963" lon="-2.68902">
        <ele>584.759001</ele>
        <time>2022-02-25T03:07:30.104Z</time>
      </trkpt>
      <trkpt lat="36.9893" lon="-2.68902">
        <ele>583.102026</ele>
        <time>2022-02-25T03:07:35.498Z</time>
      </trkpt>
      <trkpt lat="36.98925" lon="-2.6891">
        <ele>582.693202</ele>
        <time>2022-02-25T03:07:36.768Z</time>
      </trkpt>
      <trkpt lat="36.98949" lon="-2.68946">
        <ele>580.804226</ele>
        <time>2022-02-25T03:07:42.914Z</time>
      </trkpt>
      <trkpt lat="36.98968" lon="-2.69003">
        <ele>578.323752</ele>
        <time>2022-02-25T03:07:50.767Z</time>
      </trkpt>
      <trkpt lat="36.98972" lon="-2.69112">
        <ele>572.790078</ele>
        <time>2022-02-25T03:08:03.803Z</time>
      </trkpt>
      <trkpt lat="36.98975" lon="-2.69121">
        <ele>572.161084</ele>
        <time>2022-02-25T03:08:04.942Z</time>
      </trkpt>
      <trkpt lat="36.98989" lon="-2.69132">
        <ele>570.86244</ele>
        <time>2022-02-25T03:08:07.253Z</time>
      </trkpt>
      <trkpt lat="36.99004" lon="-2.69129">
        <ele>569.666411</ele>
        <time>2022-02-25T03:08:09.365Z</time>
      </trkpt>
      <trkpt lat="36.99017" lon="-2.69093">
        <ele>567.149841</ele>
        <time>2022-02-25T03:08:13.895Z</time>
      </trkpt>
      <trkpt lat="36.99045" lon="-2.69039">
        <ele>563.074317</ele>
        <time>2022-02-25T03:08:21.399Z</time>
      </trkpt>
      <trkpt lat="36.99079" lon="-2.68992">
        <ele>562.481256</ele>
        <time>2022-02-25T03:08:29.262Z</time>
      </trkpt>
      <trkpt lat="36.99097" lon="-2.68977">
        <ele>563.05858</ele>
        <time>2022-02-25T03:08:32.853Z</time>
      </trkpt>
      <trkpt lat="36.99115" lon="-2.6897">
        <ele>563.55716</ele>
        <time>2022-02-25T03:08:36.191Z</time>
      </trkpt>
      <trkpt lat="36.99128" lon="-2.68969">
        <ele>563.904702</ele>
        <time>2022-02-25T03:08:40.189Z</time>
      </trkpt>
      <trkpt lat="36.99137" lon="-2.68977">
        <ele>564.193174</ele>
        <time>2022-02-25T03:08:43.990Z</time>
      </trkpt>
      <trkpt lat="36.99132" lon="-2.69003">
        <ele>564.743725</ele>
        <time>2022-02-25T03:08:53.662Z</time>
      </trkpt>
      <trkpt lat="36.99133" lon="-2.69034">
        <ele>565.394991</ele>
        <time>2022-02-25T03:09:08.338Z</time>
      </trkpt>
      <trkpt lat="36.99145" lon="-2.69072">
        <ele>566.262104</ele>
        <time>2022-02-25T03:09:33.121Z</time>
      </trkpt>
      <trkpt lat="36.99144" lon="-2.69128">
        <ele>573.234058</ele>
        <time>2022-02-25T03:10:14.553Z</time>
      </trkpt>
      <trkpt lat="36.9913" lon="-2.69167">
        <ele>579.095177</ele>
        <time>2022-02-25T03:10:50.650Z</time>
      </trkpt>
      <trkpt lat="36.99106" lon="-2.69217">
        <ele>586.933679</ele>
        <time>2022-02-25T03:11:45.477Z</time>
      </trkpt>
      <trkpt lat="36.991" lon="-2.69256">
        <ele>592.32242</ele>
        <time>2022-02-25T03:12:24.082Z</time>
      </trkpt>
      <trkpt lat="36.99056" lon="-2.69316">
        <ele>602.532894</ele>
        <time>2022-02-25T03:13:44.474Z</time>
      </trkpt>
      <trkpt lat="36.99054" lon="-2.69327">
        <ele>603.874548</ele>
        <time>2022-02-25T03:13:54.935Z</time>
      </trkpt>
      <trkpt lat="36.99062" lon="-2.69393">
        <ele>611.771669</ele>
        <time>2022-02-25T03:14:47.499Z</time>
      </trkpt>
      <trkpt lat="36.99066" lon="-2.69528">
        <ele>625.153784</ele>
        <time>2022-02-25T03:16:15.762Z</time>
      </trkpt>
      <trkpt lat="36.99049" lon="-2.6955">
        <ele>626.535361</ele>
        <time>2022-02-25T03:16:31.637Z</time>
      </trkpt>
      <trkpt lat="36.99017" lon="-2.69565">
        <ele>628.469119</ele>
        <time>2022-02-25T03:16:48.852Z</time>
      </trkpt>
      <trkpt lat="36.99005" lon="-2.69578">
        <ele>629.332011</ele>
        <time>2022-02-25T03:16:55.304Z</time>
      </trkpt>
      <trkpt lat="36.99001" lon="-2.69593">
        <ele>630.03591</ele>
        <time>2022-02-25T03:17:00.092Z</time>
      </trkpt>
      <trkpt lat="36.99005" lon="-2.69602">
        <ele>630.508434</ele>
        <time>2022-02-25T03:17:03.163Z</time>
      </trkpt>
      <trkpt lat="36.99083" lon="-2.69612">
        <ele>634.495977</ele>
        <time>2022-02-25T03:17:27.174Z</time>
      </trkpt>
      <trkpt lat="36.99089" lon="-2.69615">
        <ele>634.710762</ele>
        <time>2022-02-25T03:17:28.500Z</time>
      </trkpt>
      <trkpt lat="36.99096" lon="-2.69628">
        <ele>635.161711</ele>
        <time>2022-02-25T03:17:32.842Z</time>
      </trkpt>
      <trkpt lat="36.99102" lon="-2.69714">
        <ele>637.601599</ele>
        <time>2022-02-25T03:17:59.630Z</time>
      </trkpt>
      <trkpt lat="36.9906" lon="-2.69784">
        <ele>640.077819</ele>
        <time>2022-02-25T03:18:29.498Z</time>
      </trkpt>
      <trkpt lat="36.99054" lon="-2.69805">
        <ele>641.375563</ele>
        <time>2022-02-25T03:18:39.363Z</time>
      </trkpt>
      <trkpt lat="36.99061" lon="-2.69829">
        <ele>642.887222</ele>
        <time>2022-02-25T03:18:50.174Z</time>
      </trkpt>
      <trkpt lat="36.99056" lon="-2.69874">
        <ele>645.497372</ele>
        <time>2022-02-25T03:19:11.526Z</time>
      </trkpt>
      <trkpt lat="36.9907" lon="-2.69954">
        <ele>650.309363</ele>
        <time>2022-02-25T03:19:52.112Z</time>
      </trkpt>
      <trkpt lat="36.99068" lon="-2.69981">
        <ele>651.919504</ele>
        <time>2022-02-25T03:20:07.258Z</time>
      </trkpt>
      <trkpt lat="36.99049" lon="-2.70021">
        <ele>654.851785</ele>
        <time>2022-02-25T03:20:30.385Z</time>
      </trkpt>
      <trkpt lat="36.99075" lon="-2.70062">
        <ele>658.527307</ele>
        <time>2022-02-25T03:20:57.480Z</time>
      </trkpt>
      <trkpt lat="36.99084" lon="-2.70084">
        <ele>660.235516</ele>
        <time>2022-02-25T03:21:09.104Z</time>
      </trkpt>
      <trkpt lat="36.9907" lon="-2.70231">
        <ele>670.194731</ele>
        <time>2022-02-25T03:22:47.282Z</time>
      </trkpt>
      <trkpt lat="36.99105" lon="-2.70335">
        <ele>676.446368</ele>
        <time>2022-02-25T03:23:59.837Z</time>
      </trkpt>
      <trkpt lat="36.99111" lon="-2.70399">
        <ele>680.018225</ele>
        <time>2022-02-25T03:24:33.629Z</time>
      </trkpt>
      <trkpt lat="36.99092" lon="-2.70427">
        <ele>681.62248</ele>
        <time>2022-02-25T03:24:49.913Z</time>
      </trkpt>
      <trkpt lat="36.99131" lon="-2.7054">
        <ele>683.819275</ele>
        <time>2022-02-25T03:25:32.596Z</time>
      </trkpt>
      <trkpt lat="36.99202" lon="-2.70622">
        <ele>686.832522</ele>
        <time>2022-02-25T03:26:17.758Z</time>
      </trkpt>
      <trkpt lat="36.99216" lon="-2.70648">
        <ele>688.282921</ele>
        <time>2022-02-25T03:26:32.323Z</time>
      </trkpt>
      <trkpt lat="36.99215" lon="-2.70676">
        <ele>689.576143</ele>
        <time>2022-02-25T03:26:46.222Z</time>
      </trkpt>
      <trkpt lat="36.99174" lon="-2.70793">
        <ele>695.409573</ele>
        <time>2022-02-25T03:28:00.035Z</time>
      </trkpt>
      <trkpt lat="36.9915" lon="-2.70811">
        <ele>697.195188</ele>
        <time>2022-02-25T03:28:23.098Z</time>
      </trkpt>
      <trkpt lat="36.99148" lon="-2.70856">
        <ele>699.50573</ele>
        <time>2022-02-25T03:28:51.703Z</time>
      </trkpt>
      <trkpt lat="36.99135" lon="-2.70906">
        <ele>702.148268</ele>
        <time>2022-02-25T03:29:22.464Z</time>
      </trkpt>
      <trkpt lat="36.99138" lon="-2.70965">
        <ele>705.148102</ele>
        <time>2022-02-25T03:29:53.776Z</time>
      </trkpt>
      <trkpt lat="36.99151" lon="-2.7101">
        <ele>707.356253</ele>
        <time>2022-02-25T03:30:16.611Z</time>
      </trkpt>
      <trkpt lat="36.99155" lon="-2.71037">
        <ele>707.741454</ele>
        <time>2022-02-25T03:30:28.450Z</time>
      </trkpt>
      <trkpt lat="36.99161" lon="-2.71084">
        <ele>708.386265</ele>
        <time>2022-02-25T03:30:45.877Z</time>
      </trkpt>
      <trkpt lat="36.99178" lon="-2.71099">
        <ele>708.74948</ele>
        <time>2022-02-25T03:30:54.375Z</time>
      </trkpt>
      <trkpt lat="36.99177" lon="-2.71126">
        <ele>709.122129</ele>
        <time>2022-02-25T03:31:03.298Z</time>
      </trkpt>
      <trkpt lat="36.99162" lon="-2.71173">
        <ele>709.809183</ele>
        <time>2022-02-25T03:31:19.197Z</time>
      </trkpt>
      <trkpt lat="36.99151" lon="-2.71261">
        <ele>710.750128</ele>
        <time>2022-02-25T03:31:49.199Z</time>
      </trkpt>
      <trkpt lat="36.99099" lon="-2.71432">
        <ele>712.147513</ele>
        <time>2022-02-25T03:32:51.296Z</time>
      </trkpt>
      <trkpt lat="36.99105" lon="-2.71495">
        <ele>712.401998</ele>
        <time>2022-02-25T03:33:11.504Z</time>
      </trkpt>
      <trkpt lat="36.99127" lon="-2.71517">
        <ele>712.541476</ele>
        <time>2022-02-25T03:33:21.910Z</time>
      </trkpt>
      <trkpt lat="36.99131" lon="-2.71549">
        <ele>712.672881</ele>
        <time>2022-02-25T03:33:31.485Z</time>
      </trkpt>
      <trkpt lat="36.99128" lon="-2.71597">
        <ele>712.863007</ele>
        <time>2022-02-25T03:33:45.625Z</time>
      </trkpt>
      <trkpt lat="36.99108" lon="-2.71629">
        <ele>713.06679</ele>
        <time>2022-02-25T03:33:58.851Z</time>
      </trkpt>
      <trkpt lat="36.9911" lon="-2.71662">
        <ele>713.724701</ele>
        <time>2022-02-25T03:34:10.010Z</time>
      </trkpt>
      <trkpt lat="36.99105" lon="-2.71702">
        <ele>714.53439</ele>
        <time>2022-02-25T03:34:24.896Z</time>
      </trkpt>
      <trkpt lat="36.99112" lon="-2.71745">
        <ele>715.417318</ele>
        <time>2022-02-25T03:34:43.094Z</time>
      </trkpt>
      <trkpt lat="36.99099" lon="-2.71934">
        <ele>719.155141</ele>
        <time>2022-02-25T03:36:05.564Z</time>
      </trkpt>
      <trkpt lat="36.99109" lon="-2.72058">
        <ele>721.556738</ele>
        <time>2022-02-25T03:36:52.833Z</time>
      </trkpt>
      <trkpt lat="36.99131" lon="-2.72112">
        <ele>722.467254</ele>
        <time>2022-02-25T03:37:12.604Z</time>
      </trkpt>
      <trkpt lat="36.99141" lon="-2.72175">
        <ele>723.330072</ele>
        <time>2022-02-25T03:37:33.262Z</time>
      </trkpt>
      <trkpt lat="36.99133" lon="-2.72263">
        <ele>724.523581</ele>
        <time>2022-02-25T03:38:06.119Z</time>
      </trkpt>
      <trkpt lat="36.99119" lon="-2.72314">
        <ele>725.26959</ele>
        <time>2022-02-25T03:38:28.541Z</time>
      </trkpt>
      <trkpt lat="36.99069" lon="-2.72365">
        <ele>726.391253</ele>
        <time>2022-02-25T03:39:04.040Z</time>
      </trkpt>
      <trkpt lat="36.99061" lon="-2.72393">
        <ele>726.818038</ele>
        <time>2022-02-25T03:39:16.195Z</time>
      </trkpt>
      <trkpt lat="36.99003" lon="-2.72459">
        <ele>727.806547</ele>
        <time>2022-02-25T03:39:47.391Z</time>
      </trkpt>
      <trkpt lat="36.98998" lon="-2.72482">
        <ele>727.11605</ele>
        <time>2022-02-25T03:39:53.741Z</time>
      </trkpt>
      <trkpt lat="36.98999" lon="-2.72512">
        <ele>726.244615</ele>
        <time>2022-02-25T03:40:01.316Z</time>
      </trkpt>
      <trkpt lat="36.99022" lon="-2.72553">
        <ele>724.795003</ele>
        <time>2022-02-25T03:40:13.204Z</time>
      </trkpt>
      <trkpt lat="36.99028" lon="-2.72574">
        <ele>724.137525</ele>
        <time>2022-02-25T03:40:18.448Z</time>
      </trkpt>
      <trkpt lat="36.99015" lon="-2.72713">
        <ele>719.331952</ele>
        <time>2022-02-25T03:40:50.503Z</time>
      </trkpt>
      <trkpt lat="36.98959" lon="-2.72828">
        <ele>713.383658</ele>
        <time>2022-02-25T03:41:20.626Z</time>
      </trkpt>
      <trkpt lat="36.98936" lon="-2.72912">
        <ele>709.581502</ele>
        <time>2022-02-25T03:41:41.004Z</time>
      </trkpt>
      <trkpt lat="36.98917" lon="-2.72932">
        <ele>708.310539</ele>
        <time>2022-02-25T03:41:47.983Z</time>
      </trkpt>
      <trkpt lat="36.98888" lon="-2.72949">
        <ele>706.664443</ele>
        <time>2022-02-25T03:41:57.034Z</time>
      </trkpt>
      <trkpt lat="36.9878" lon="-2.7298">
        <ele>701.290687</ele>
        <time>2022-02-25T03:42:29.110Z</time>
      </trkpt>
      <trkpt lat="36.98738" lon="-2.73">
        <ele>699.522607</ele>
        <time>2022-02-25T03:42:43.028Z</time>
      </trkpt>
      <trkpt lat="36.98722" lon="-2.72999">
        <ele>698.890721</ele>
        <time>2022-02-25T03:42:48.206Z</time>
      </trkpt>
      <trkpt lat="36.98697" lon="-2.73017">
        <ele>697.765147</ele>
        <time>2022-02-25T03:42:57.175Z</time>
      </trkpt>
      <trkpt lat="36.98673" lon="-2.73021">
        <ele>696.835409</ele>
        <time>2022-02-25T03:43:04.451Z</time>
      </trkpt>
      <trkpt lat="36.98669" lon="-2.73031">
        <ele>696.481086</ele>
        <time>2022-02-25T03:43:07.116Z</time>
      </trkpt>
      <trkpt lat="36.98664" lon="-2.7308">
        <ele>694.609128</ele>
        <time>2022-02-25T03:43:18.688Z</time>
      </trkpt>
      <trkpt lat="36.98634" lon="-2.73128">
        <ele>691.032494</ele>
        <time>2022-02-25T03:43:32.587Z</time>
      </trkpt>
      <trkpt lat="36.98592" lon="-2.73156">
        <ele>687.543132</ele>
        <time>2022-02-25T03:43:45.443Z</time>
      </trkpt>
      <trkpt lat="36.98562" lon="-2.73192">
        <ele>684.52778</ele>
        <time>2022-02-25T03:43:56.159Z</time>
      </trkpt>
      <trkpt lat="36.98558" lon="-2.73233">
        <ele>682.094306</ele>
        <time>2022-02-25T03:44:04.794Z</time>
      </trkpt>
      <trkpt lat="36.98535" lon="-2.73273">
        <ele>678.900784</ele>
        <time>2022-02-25T03:44:15.104Z</time>
      </trkpt>
      <trkpt lat="36.985" lon="-2.73313">
        <ele>675.04497</ele>
        <time>2022-02-25T03:44:27.503Z</time>
      </trkpt>
      <trkpt lat="36.98466" lon="-2.73338">
        <ele>671.779241</ele>
        <time>2022-02-25T03:44:38.206Z</time>
      </trkpt>
      <trkpt lat="36.98426" lon="-2.73337">
        <ele>668.47667</ele>
        <time>2022-02-25T03:44:49.051Z</time>
      </trkpt>
      <trkpt lat="36.9842" lon="-2.73352">
        <ele>667.403829</ele>
        <time>2022-02-25T03:44:52.612Z</time>
      </trkpt>
      <trkpt lat="36.98432" lon="-2.73383">
        <ele>665.48901</ele>
        <time>2022-02-25T03:44:59.768Z</time>
      </trkpt>
      <trkpt lat="36.98453" lon="-2.73417">
        <ele>663.047987</ele>
        <time>2022-02-25T03:45:09.088Z</time>
      </trkpt>
      <trkpt lat="36.98472" lon="-2.73427">
        <ele>661.603069</ele>
        <time>2022-02-25T03:45:14.720Z</time>
      </trkpt>
      <trkpt lat="36.98555" lon="-2.73441">
        <ele>655.676754</ele>
        <time>2022-02-25T03:45:37.725Z</time>
      </trkpt>
      <trkpt lat="36.98571" lon="-2.73457">
        <ele>654.302365</ele>
        <time>2022-02-25T03:45:43.298Z</time>
      </trkpt>
      <trkpt lat="36.98574" lon="-2.73481">
        <ele>653.186439</ele>
        <time>2022-02-25T03:45:48.529Z</time>
      </trkpt>
      <trkpt lat="36.98553" lon="-2.73545">
        <ele>649.918833</ele>
        <time>2022-02-25T03:46:03.888Z</time>
      </trkpt>
      <trkpt lat="36.98564" lon="-2.73592">
        <ele>647.580937</ele>
        <time>2022-02-25T03:46:15.100Z</time>
      </trkpt>
      <trkpt lat="36.98605" lon="-2.73595">
        <ele>645.194443</ele>
        <time>2022-02-25T03:46:26.674Z</time>
      </trkpt>
      <trkpt lat="36.98635" lon="-2.73568">
        <ele>643.205912</ele>
        <time>2022-02-25T03:46:37.470Z</time>
      </trkpt>
      <trkpt lat="36.98686" lon="-2.73536">
        <ele>640.519752</ele>
        <time>2022-02-25T03:46:53.924Z</time>
      </trkpt>
      <trkpt lat="36.98751" lon="-2.73482">
        <ele>636.877109</ele>
        <time>2022-02-25T03:47:16.784Z</time>
      </trkpt>
      <trkpt lat="36.98764" lon="-2.73455">
        <ele>635.684235</ele>
        <time>2022-02-25T03:47:24.019Z</time>
      </trkpt>
      <trkpt lat="36.98784" lon="-2.73431">
        <ele>635.436793</ele>
        <time>2022-02-25T03:47:32.132Z</time>
      </trkpt>
      <trkpt lat="36.98798" lon="-2.73397">
        <ele>635.217643</ele>
        <time>2022-02-25T03:47:41.239Z</time>
      </trkpt>
      <trkpt lat="36.98798" lon="-2.73365">
        <ele>635.028205</ele>
        <time>2022-02-25T03:47:49.522Z</time>
      </trkpt>
      <trkpt lat="36.98811" lon="-2.73329">
        <ele>634.796704</ele>
        <time>2022-02-25T03:48:00.118Z</time>
      </trkpt>
      <trkpt lat="36.98813" lon="-2.73303">
        <ele>634.646036</ele>
        <time>2022-02-25T03:48:07.086Z</time>
      </trkpt>
      <trkpt lat="36.98825" lon="-2.73287">
        <ele>634.521109</ele>
        <time>2022-02-25T03:48:14.091Z</time>
      </trkpt>
      <trkpt lat="36.98853" lon="-2.73278">
        <ele>634.45928</ele>
        <time>2022-02-25T03:48:25.397Z</time>
      </trkpt>
      <trkpt lat="36.98856" lon="-2.7329">
        <ele>635.610821</ele>
        <time>2022-02-25T03:48:35.631Z</time>
      </trkpt>
      <trkpt lat="36.98833" lon="-2.73317">
        <ele>639.070727</ele>
        <time>2022-02-25T03:49:01.045Z</time>
      </trkpt>
      <trkpt lat="36.98827" lon="-2.73351">
        <ele>642.155104</ele>
        <time>2022-02-25T03:49:27.575Z</time>
      </trkpt>
      <trkpt lat="36.98863" lon="-2.73437">
        <ele>650.716127</ele>
        <time>2022-02-25T03:50:41.246Z</time>
      </trkpt>
      <trkpt lat="36.98867" lon="-2.73466">
        <ele>653.326668</ele>
        <time>2022-02-25T03:51:14.109Z</time>
      </trkpt>
      <trkpt lat="36.98853" lon="-2.7348">
        <ele>655.634382</ele>
        <time>2022-02-25T03:51:25.353Z</time>
      </trkpt>
      <trkpt lat="36.98782" lon="-2.73603">
        <ele>674.69554</ele>
        <time>2022-02-25T03:53:44.139Z</time>
      </trkpt>
      <trkpt lat="36.98722" lon="-2.73728">
        <ele>690.777632</ele>
        <time>2022-02-25T03:55:19.276Z</time>
      </trkpt>
      <trkpt lat="36.98677" lon="-2.73792">
        <ele>699.139247</ele>
        <time>2022-02-25T03:56:17.512Z</time>
      </trkpt>
      <trkpt lat="36.98674" lon="-2.73817">
        <ele>701.720986</ele>
        <time>2022-02-25T03:56:36.401Z</time>
      </trkpt>
      <trkpt lat="36.98681" lon="-2.73908">
        <ele>710.374673</ele>
        <time>2022-02-25T03:57:34.057Z</time>
      </trkpt>
      <trkpt lat="36.9868" lon="-2.73936">
        <ele>713.014723</ele>
        <time>2022-02-25T03:57:53.464Z</time>
      </trkpt>
      <trkpt lat="36.98653" lon="-2.73922">
        <ele>716.418326</ele>
        <time>2022-02-25T03:58:13.877Z</time>
      </trkpt>
      <trkpt lat="36.98642" lon="-2.73924">
        <ele>717.681291</ele>
        <time>2022-02-25T03:58:24.834Z</time>
      </trkpt>
      <trkpt lat="36.98596" lon="-2.73956">
        <ele>723.916265</ele>
        <time>2022-02-25T03:59:04.930Z</time>
      </trkpt>
      <trkpt lat="36.98589" lon="-2.73977">
        <ele>725.991729</ele>
        <time>2022-02-25T03:59:21.715Z</time>
      </trkpt>
      <trkpt lat="36.9859" lon="-2.74078">
        <ele>737.415367</ele>
        <time>2022-02-25T04:00:31.317Z</time>
      </trkpt>
      <trkpt lat="36.98591" lon="-2.74169">
        <ele>747.730751</ele>
        <time>2022-02-25T04:01:41.183Z</time>
      </trkpt>
      <trkpt lat="36.98582" lon="-2.74224">
        <ele>754.617666</ele>
        <time>2022-02-25T04:02:30.834Z</time>
      </trkpt>
      <trkpt lat="36.98551" lon="-2.74343">
        <ele>771.467754</ele>
        <time>2022-02-25T04:04:21.427Z</time>
      </trkpt>
      <trkpt lat="36.98547" lon="-2.74404">
        <ele>779.659911</ele>
        <time>2022-02-25T04:05:16.942Z</time>
      </trkpt>
      <trkpt lat="36.98523" lon="-2.74565">
        <ele>796.327264</ele>
        <time>2022-02-25T04:07:20.201Z</time>
      </trkpt>
      <trkpt lat="36.98527" lon="-2.74592">
        <ele>799.000543</ele>
        <time>2022-02-25T04:07:36.641Z</time>
      </trkpt>
      <trkpt lat="36.98543" lon="-2.74621">
        <ele>802.527585</ele>
        <time>2022-02-25T04:07:55.420Z</time>
      </trkpt>
      <trkpt lat="36.98553" lon="-2.74655">
        <ele>804.200618</ele>
        <time>2022-02-25T04:08:12.411Z</time>
      </trkpt>
      <trkpt lat="36.98549" lon="-2.74746">
        <ele>806.151587</ele>
        <time>2022-02-25T04:08:45.373Z</time>
      </trkpt>
      <trkpt lat="36.98543" lon="-2.74762">
        <ele>806.532216</ele>
        <time>2022-02-25T04:08:50.795Z</time>
      </trkpt>
      <trkpt lat="36.9852" lon="-2.74795">
        <ele>807.458256</ele>
        <time>2022-02-25T04:08:58.813Z</time>
      </trkpt>
      <trkpt lat="36.98467" lon="-2.74941">
        <ele>805.218156</ele>
        <time>2022-02-25T04:09:22.874Z</time>
      </trkpt>
      <trkpt lat="36.98443" lon="-2.74978">
        <ele>803.807482</ele>
        <time>2022-02-25T04:09:29.232Z</time>
      </trkpt>
      <trkpt lat="36.98423" lon="-2.74993">
        <ele>802.978893</ele>
        <time>2022-02-25T04:09:32.937Z</time>
      </trkpt>
      <trkpt lat="36.98419" lon="-2.75006">
        <ele>802.558491</ele>
        <time>2022-02-25T04:09:34.808Z</time>
      </trkpt>
      <trkpt lat="36.98421" lon="-2.75016">
        <ele>802.262498</ele>
        <time>2022-02-25T04:09:36.142Z</time>
      </trkpt>
      <trkpt lat="36.9844" lon="-2.75028">
        <ele>801.486075</ele>
        <time>2022-02-25T04:09:39.644Z</time>
      </trkpt>
      <trkpt lat="36.98468" lon="-2.75062">
        <ele>800.075202</ele>
        <time>2022-02-25T04:09:46.231Z</time>
      </trkpt>
      <trkpt lat="36.98476" lon="-2.75082">
        <ele>799.421215</ele>
        <time>2022-02-25T04:09:49.352Z</time>
      </trkpt>
      <trkpt lat="36.98476" lon="-2.75191">
        <ele>796.309315</ele>
        <time>2022-02-25T04:10:04.534Z</time>
      </trkpt>
      <trkpt lat="36.98361" lon="-2.75427">
        <ele>793.759013</ele>
        <time>2022-02-25T04:10:51.077Z</time>
      </trkpt>
      <trkpt lat="36.98367" lon="-2.75455">
        <ele>793.962681</ele>
        <time>2022-02-25T04:10:55.583Z</time>
      </trkpt>
      <trkpt lat="36.98369" lon="-2.75462">
        <ele>794.0132</ele>
        <time>2022-02-25T04:10:58.772Z</time>
      </trkpt>
      <trkpt lat="36.98354" lon="-2.75497">
        <ele>794.296143</ele>
        <time>2022-02-25T04:11:05.700Z</time>
      </trkpt>
      <trkpt lat="36.98335" lon="-2.75525">
        <ele>794.55574</ele>
        <time>2022-02-25T04:11:13.283Z</time>
      </trkpt>
      <trkpt lat="36.98299" lon="-2.75545">
        <ele>794.907783</ele>
        <time>2022-02-25T04:11:25.113Z</time>
      </trkpt>
      <trkpt lat="36.98288" lon="-2.75557">
        <ele>795.035701</ele>
        <time>2022-02-25T04:11:32.661Z</time>
      </trkpt>
      <trkpt lat="36.98289" lon="-2.75573">
        <ele>795.144334</ele>
        <time>2022-02-25T04:11:35.292Z</time>
      </trkpt>
      <trkpt lat="36.98322" lon="-2.75611">
        <ele>796.550693</ele>
        <time>2022-02-25T04:11:53.396Z</time>
      </trkpt>
      <trkpt lat="36.98327" lon="-2.75646">
        <ele>797.530099</ele>
        <time>2022-02-25T04:12:04.880Z</time>
      </trkpt>
      <trkpt lat="36.98302" lon="-2.75755">
        <ele>800.720826</ele>
        <time>2022-02-25T04:12:42.354Z</time>
      </trkpt>
      <trkpt lat="36.98293" lon="-2.7579">
        <ele>801.813271</ele>
        <time>2022-02-25T04:12:54.811Z</time>
      </trkpt>
      <trkpt lat="36.98227" lon="-2.75959">
        <ele>808.608704</ele>
        <time>2022-02-25T04:14:03.553Z</time>
      </trkpt>
      <trkpt lat="36.98147" lon="-2.7613">
        <ele>816.509519</ele>
        <time>2022-02-25T04:15:20.863Z</time>
      </trkpt>
      <trkpt lat="36.98099" lon="-2.76217">
        <ele>820.608112</ele>
        <time>2022-02-25T04:16:02.668Z</time>
      </trkpt>
      <trkpt lat="36.98076" lon="-2.76275">
        <ele>822.958764</ele>
        <time>2022-02-25T04:16:25.723Z</time>
      </trkpt>
      <trkpt lat="36.98051" lon="-2.76317">
        <ele>824.867551</ele>
        <time>2022-02-25T04:16:44.133Z</time>
      </trkpt>
      <trkpt lat="36.98021" lon="-2.7635">
        <ele>826.699966</ele>
        <time>2022-02-25T04:17:02.136Z</time>
      </trkpt>
      <trkpt lat="36.98014" lon="-2.7645">
        <ele>831.029588</ele>
        <time>2022-02-25T04:17:38.454Z</time>
      </trkpt>
      <trkpt lat="36.98017" lon="-2.7654">
        <ele>835.00396</ele>
        <time>2022-02-25T04:18:14.821Z</time>
      </trkpt>
      <trkpt lat="36.98046" lon="-2.76656">
        <ele>840.277518</ele>
        <time>2022-02-25T04:19:14.418Z</time>
      </trkpt>
      <trkpt lat="36.98086" lon="-2.76758">
        <ele>845.122929</ele>
        <time>2022-02-25T04:20:01.023Z</time>
      </trkpt>
      <trkpt lat="36.98087" lon="-2.7679">
        <ele>846.457743</ele>
        <time>2022-02-25T04:20:14.286Z</time>
      </trkpt>
      <trkpt lat="36.98073" lon="-2.76829">
        <ele>845.495391</ele>
        <time>2022-02-25T04:20:29.151Z</time>
      </trkpt>
      <trkpt lat="36.98061" lon="-2.76885">
        <ele>844.148091</ele>
        <time>2022-02-25T04:20:45.039Z</time>
      </trkpt>
      <trkpt lat="36.98059" lon="-2.76961">
        <ele>842.368658</ele>
        <time>2022-02-25T04:21:03.361Z</time>
      </trkpt>
      <trkpt lat="36.98045" lon="-2.77115">
        <ele>833.932461</ele>
        <time>2022-02-25T04:21:35.619Z</time>
      </trkpt>
      <trkpt lat="36.98044" lon="-2.77185">
        <ele>829.061702</ele>
        <time>2022-02-25T04:21:50.080Z</time>
      </trkpt>
      <trkpt lat="36.98024" lon="-2.77339">
        <ele>821.240965</ele>
        <time>2022-02-25T04:22:24.243Z</time>
      </trkpt>
      <trkpt lat="36.98012" lon="-2.77362">
        <ele>820.117028</ele>
        <time>2022-02-25T04:22:30.764Z</time>
      </trkpt>
      <trkpt lat="36.98004" lon="-2.77367">
        <ele>819.659278</ele>
        <time>2022-02-25T04:22:33.372Z</time>
      </trkpt>
      <trkpt lat="36.97977" lon="-2.77367">
        <ele>818.241786</ele>
        <time>2022-02-25T04:22:41.801Z</time>
      </trkpt>
      <trkpt lat="36.97911" lon="-2.77343">
        <ele>815.091408</ele>
        <time>2022-02-25T04:23:02.733Z</time>
      </trkpt>
      <trkpt lat="36.97878" lon="-2.77307">
        <ele>813.361477</ele>
        <time>2022-02-25T04:23:16.303Z</time>
      </trkpt>
      <trkpt lat="36.97867" lon="-2.7731">
        <ele>812.941531</ele>
        <time>2022-02-25T04:23:19.496Z</time>
      </trkpt>
      <trkpt lat="36.97824" lon="-2.77483">
        <ele>807.023532</ele>
        <time>2022-02-25T04:24:01.964Z</time>
      </trkpt>
      <trkpt lat="36.97805" lon="-2.77521">
        <ele>805.486572</ele>
        <time>2022-02-25T04:24:11.945Z</time>
      </trkpt>
      <trkpt lat="36.97774" lon="-2.77552">
        <ele>803.742369</ele>
        <time>2022-02-25T04:24:23.483Z</time>
      </trkpt>
      <trkpt lat="36.97788" lon="-2.77621">
        <ele>801.423876</ele>
        <time>2022-02-25T04:24:40.224Z</time>
      </trkpt>
      <trkpt lat="36.97754" lon="-2.77771">
        <ele>800.889287</ele>
        <time>2022-02-25T04:25:22.234Z</time>
      </trkpt>
      <trkpt lat="36.97764" lon="-2.77809">
        <ele>800.7536</ele>
        <time>2022-02-25T04:25:36.169Z</time>
      </trkpt>
      <trkpt lat="36.97752" lon="-2.7795">
        <ele>804.554554</ele>
        <time>2022-02-25T04:26:40.427Z</time>
      </trkpt>
      <trkpt lat="36.97765" lon="-2.7804">
        <ele>807.593737</ele>
        <time>2022-02-25T04:27:28.031Z</time>
      </trkpt>
      <trkpt lat="36.97763" lon="-2.78067">
        <ele>808.383651</ele>
        <time>2022-02-25T04:27:41.263Z</time>
      </trkpt>
      <trkpt lat="36.97752" lon="-2.78091">
        <ele>808.986329</ele>
        <time>2022-02-25T04:27:53.076Z</time>
      </trkpt>
      <trkpt lat="36.97736" lon="-2.78109">
        <ele>809.568431</ele>
        <time>2022-02-25T04:28:04.174Z</time>
      </trkpt>
      <trkpt lat="36.97718" lon="-2.78118">
        <ele>810.118715</ele>
        <time>2022-02-25T04:28:14.664Z</time>
      </trkpt>
      <trkpt lat="36.97664" lon="-2.78121">
        <ele>811.577824</ele>
        <time>2022-02-25T04:28:41.006Z</time>
      </trkpt>
      <trkpt lat="36.97654" lon="-2.78133">
        <ele>811.963482</ele>
        <time>2022-02-25T04:28:47.260Z</time>
      </trkpt>
      <trkpt lat="36.97655" lon="-2.78139">
        <ele>812.115932</ele>
        <time>2022-02-25T04:28:49.893Z</time>
      </trkpt>
      <trkpt lat="36.97697" lon="-2.78183">
        <ele>813.357248</ele>
        <time>2022-02-25T04:29:14.564Z</time>
      </trkpt>
      <trkpt lat="36.97769" lon="-2.78241">
        <ele>814.657973</ele>
        <time>2022-02-25T04:29:51.491Z</time>
      </trkpt>
      <trkpt lat="36.97779" lon="-2.78257">
        <ele>814.894582</ele>
        <time>2022-02-25T04:29:57.623Z</time>
      </trkpt>
      <trkpt lat="36.97783" lon="-2.78284">
        <ele>815.225346</ele>
        <time>2022-02-25T04:30:07.056Z</time>
      </trkpt>
      <trkpt lat="36.9778" lon="-2.783">
        <ele>815.423857</ele>
        <time>2022-02-25T04:30:12.971Z</time>
      </trkpt>
      <trkpt lat="36.97773" lon="-2.78321">
        <ele>815.702378</ele>
        <time>2022-02-25T04:30:21.904Z</time>
      </trkpt>
      <trkpt lat="36.97756" lon="-2.78348">
        <ele>816.487652</ele>
        <time>2022-02-25T04:30:36.446Z</time>
      </trkpt>
      <trkpt lat="36.97756" lon="-2.78359">
        <ele>816.751563</ele>
        <time>2022-02-25T04:30:40.484Z</time>
      </trkpt>
      <trkpt lat="36.97767" lon="-2.78363">
        <ele>817.105819</ele>
        <time>2022-02-25T04:30:46.202Z</time>
      </trkpt>
      <trkpt lat="36.97789" lon="-2.78357">
        <ele>817.798094</ele>
        <time>2022-02-25T04:30:57.567Z</time>
      </trkpt>
      <trkpt lat="36.97807" lon="-2.78362">
        <ele>818.373222</ele>
        <time>2022-02-25T04:31:06.920Z</time>
      </trkpt>
      <trkpt lat="36.97826" lon="-2.78411">
        <ele>819.72527</ele>
        <time>2022-02-25T04:31:29.343Z</time>
      </trkpt>
      <trkpt lat="36.97842" lon="-2.78424">
        <ele>820.304931</ele>
        <time>2022-02-25T04:31:38.511Z</time>
      </trkpt>
      <trkpt lat="36.97885" lon="-2.78432">
        <ele>822.044229</ele>
        <time>2022-02-25T04:32:02.411Z</time>
      </trkpt>
      <trkpt lat="36.97917" lon="-2.78421">
        <ele>824.402115</ele>
        <time>2022-02-25T04:32:24.278Z</time>
      </trkpt>
      <trkpt lat="36.97929" lon="-2.7843">
        <ele>825.377664</ele>
        <time>2022-02-25T04:32:34.573Z</time>
      </trkpt>
      <trkpt lat="36.97932" lon="-2.78489">
        <ele>828.739582</ele>
        <time>2022-02-25T04:33:12.734Z</time>
      </trkpt>
      <trkpt lat="36.97942" lon="-2.78522">
        <ele>830.747774</ele>
        <time>2022-02-25T04:33:36.141Z</time>
      </trkpt>
      <trkpt lat="36.97946" lon="-2.78568">
        <ele>833.390844</ele>
        <time>2022-02-25T04:34:06.046Z</time>
      </trkpt>
      <trkpt lat="36.97935" lon="-2.78649">
        <ele>835.712427</ele>
        <time>2022-02-25T04:34:51.922Z</time>
      </trkpt>
      <trkpt lat="36.9791" lon="-2.78725">
        <ele>837.62374</ele>
        <time>2022-02-25T04:35:27.331Z</time>
      </trkpt>
      <trkpt lat="36.97907" lon="-2.78758">
        <ele>838.394196</ele>
        <time>2022-02-25T04:35:38.136Z</time>
      </trkpt>
      <trkpt lat="36.97919" lon="-2.78794">
        <ele>839.291703</ele>
        <time>2022-02-25T04:35:48.860Z</time>
      </trkpt>
      <trkpt lat="36.97952" lon="-2.78851">
        <ele>836.178312</ele>
        <time>2022-02-25T04:36:05.752Z</time>
      </trkpt>
      <trkpt lat="36.97979" lon="-2.78871">
        <ele>834.431694</ele>
        <time>2022-02-25T04:36:14.372Z</time>
      </trkpt>
      <trkpt lat="36.98018" lon="-2.78887">
        <ele>832.076941</ele>
        <time>2022-02-25T04:36:25.543Z</time>
      </trkpt>
      <trkpt lat="36.98028" lon="-2.78898">
        <ele>831.352076</ele>
        <time>2022-02-25T04:36:28.976Z</time>
      </trkpt>
      <trkpt lat="36.98027" lon="-2.79003">
        <ele>825.636975</ele>
        <time>2022-02-25T04:36:51.968Z</time>
      </trkpt>
      <trkpt lat="36.98035" lon="-2.79028">
        <ele>824.003465</ele>
        <time>2022-02-25T04:36:57.671Z</time>
      </trkpt>
      <trkpt lat="36.98061" lon="-2.79078">
        <ele>820.339915</ele>
        <time>2022-02-25T04:37:10.374Z</time>
      </trkpt>
      <trkpt lat="36.98072" lon="-2.79138">
        <ele>816.523159</ele>
        <time>2022-02-25T04:37:23.477Z</time>
      </trkpt>
      <trkpt lat="36.98068" lon="-2.79162">
        <ele>815.026036</ele>
        <time>2022-02-25T04:37:28.647Z</time>
      </trkpt>
      <trkpt lat="36.98009" lon="-2.79242">
        <ele>808.744331</ele>
        <time>2022-02-25T04:37:52.482Z</time>
      </trkpt>
      <trkpt lat="36.97962" lon="-2.79284">
        <ele>804.594216</ele>
        <time>2022-02-25T04:38:07.745Z</time>
      </trkpt>
      <trkpt lat="36.97946" lon="-2.79282">
        <ele>803.407705</ele>
        <time>2022-02-25T04:38:12.361Z</time>
      </trkpt>
      <trkpt lat="36.97887" lon="-2.79244">
        <ele>800.176602</ele>
        <time>2022-02-25T04:38:30.862Z</time>
      </trkpt>
      <trkpt lat="36.97866" lon="-2.79225">
        <ele>799.092758</ele>
        <time>2022-02-25T04:38:38.218Z</time>
      </trkpt>
      <trkpt lat="36.97855" lon="-2.79226">
        <ele>798.605052</ele>
        <time>2022-02-25T04:38:42.168Z</time>
      </trkpt>
      <trkpt lat="36.97852" lon="-2.79236">
        <ele>798.273249</ele>
        <time>2022-02-25T04:38:44.499Z</time>
      </trkpt>
      <trkpt lat="36.97875" lon="-2.79278">
        <ele>796.544564</ele>
        <time>2022-02-25T04:38:57.302Z</time>
      </trkpt>
      <trkpt lat="36.97881" lon="-2.79304">
        <ele>795.637312</ele>
        <time>2022-02-25T04:39:04.176Z</time>
      </trkpt>
      <trkpt lat="36.97871" lon="-2.79329">
        <ele>794.760247</ele>
        <time>2022-02-25T04:39:10.696Z</time>
      </trkpt>
      <trkpt lat="36.97853" lon="-2.79353">
        <ele>794.600628</ele>
        <time>2022-02-25T04:39:19.112Z</time>
      </trkpt>
      <trkpt lat="36.9784" lon="-2.79361">
        <ele>794.517366</ele>
        <time>2022-02-25T04:39:23.342Z</time>
      </trkpt>
      <trkpt lat="36.97828" lon="-2.7936">
        <ele>794.445696</ele>
        <time>2022-02-25T04:39:27.585Z</time>
      </trkpt>
      <trkpt lat="36.978" lon="-2.79341">
        <ele>794.251867</ele>
        <time>2022-02-25T04:39:39.218Z</time>
      </trkpt>
      <trkpt lat="36.97789" lon="-2.79349">
        <ele>794.176185</ele>
        <time>2022-02-25T04:39:43.910Z</time>
      </trkpt>
      <trkpt lat="36.97785" lon="-2.79364">
        <ele>794.098711</ele>
        <time>2022-02-25T04:39:48.734Z</time>
      </trkpt>
      <trkpt lat="36.97789" lon="-2.79394">
        <ele>793.952099</ele>
        <time>2022-02-25T04:39:58.721Z</time>
      </trkpt>
      <trkpt lat="36.97797" lon="-2.79409">
        <ele>793.867636</ele>
        <time>2022-02-25T04:40:04.412Z</time>
      </trkpt>
      <trkpt lat="36.97849" lon="-2.79461">
        <ele>794.276789</ele>
        <time>2022-02-25T04:40:32.234Z</time>
      </trkpt>
      <trkpt lat="36.97868" lon="-2.79489">
        <ele>794.743809</ele>
        <time>2022-02-25T04:40:44.977Z</time>
      </trkpt>
      <trkpt lat="36.97878" lon="-2.79533">
        <ele>795.325457</ele>
        <time>2022-02-25T04:41:01.128Z</time>
      </trkpt>
      <trkpt lat="36.97888" lon="-2.79632">
        <ele>796.618873</ele>
        <time>2022-02-25T04:41:39.063Z</time>
      </trkpt>
      <trkpt lat="36.97895" lon="-2.79727">
        <ele>798.370594</ele>
        <time>2022-02-25T04:42:16.536Z</time>
      </trkpt>
      <trkpt lat="36.97885" lon="-2.79945">
        <ele>802.167202</ele>
        <time>2022-02-25T04:43:41.337Z</time>
      </trkpt>
      <trkpt lat="36.97873" lon="-2.79994">
        <ele>802.960197</ele>
        <time>2022-02-25T04:44:00.592Z</time>
      </trkpt>
      <trkpt lat="36.9784" lon="-2.80063">
        <ele>804.234595</ele>
        <time>2022-02-25T04:44:30.369Z</time>
      </trkpt>
      <trkpt lat="36.97812" lon="-2.80129">
        <ele>804.145935</ele>
        <time>2022-02-25T04:44:55.871Z</time>
      </trkpt>
      <trkpt lat="36.97807" lon="-2.80161">
        <ele>804.099395</ele>
        <time>2022-02-25T04:45:05.547Z</time>
      </trkpt>
      <trkpt lat="36.97856" lon="-2.8025">
        <ele>803.941893</ele>
        <time>2022-02-25T04:45:35.884Z</time>
      </trkpt>
      <trkpt lat="36.97929" lon="-2.80415">
        <ele>800.759998</ele>
        <time>2022-02-25T04:46:24.128Z</time>
      </trkpt>
      <trkpt lat="36.97974" lon="-2.80534">
        <ele>798.504359</ele>
        <time>2022-02-25T04:46:57.349Z</time>
      </trkpt>
      <trkpt lat="36.98006" lon="-2.80637">
        <ele>796.649869</ele>
        <time>2022-02-25T04:47:26.188Z</time>
      </trkpt>
      <trkpt lat="36.98066" lon="-2.80903">
        <ele>792.962365</ele>
        <time>2022-02-25T04:48:39.279Z</time>
      </trkpt>
      <trkpt lat="36.98093" lon="-2.80978">
        <ele>791.988427</ele>
        <time>2022-02-25T04:49:01.492Z</time>
      </trkpt>
      <trkpt lat="36.98147" lon="-2.81112">
        <ele>790.190428</ele>
        <time>2022-02-25T04:49:41.778Z</time>
      </trkpt>
      <trkpt lat="36.98162" lon="-2.81167">
        <ele>789.487358</ele>
        <time>2022-02-25T04:49:57.203Z</time>
      </trkpt>
      <trkpt lat="36.98178" lon="-2.81235">
        <ele>788.633997</ele>
        <time>2022-02-25T04:50:15.883Z</time>
      </trkpt>
      <trkpt lat="36.9818" lon="-2.81248">
        <ele>788.476769</ele>
        <time>2022-02-25T04:50:19.405Z</time>
      </trkpt>
      <trkpt lat="36.98176" lon="-2.81263">
        <ele>788.281331</ele>
        <time>2022-02-25T04:50:23.697Z</time>
      </trkpt>
      <trkpt lat="36.9815" lon="-2.81303">
        <ele>787.820821</ele>
        <time>2022-02-25T04:50:37.378Z</time>
      </trkpt>
      <trkpt lat="36.98114" lon="-2.81344">
        <ele>787.871056</ele>
        <time>2022-02-25T04:50:54.001Z</time>
      </trkpt>
      <trkpt lat="36.98094" lon="-2.81397">
        <ele>787.919228</ele>
        <time>2022-02-25T04:51:10.938Z</time>
      </trkpt>
      <trkpt lat="36.98092" lon="-2.81419">
        <ele>787.937362</ele>
        <time>2022-02-25T04:51:17.916Z</time>
      </trkpt>
      <trkpt lat="36.98104" lon="-2.81429">
        <ele>787.952716</ele>
        <time>2022-02-25T04:51:24.170Z</time>
      </trkpt>
      <trkpt lat="36.98165" lon="-2.81419">
        <ele>788.71896</ele>
        <time>2022-02-25T04:51:51.759Z</time>
      </trkpt>
      <trkpt lat="36.98201" lon="-2.81423">
        <ele>790.005393</ele>
        <time>2022-02-25T04:52:10.576Z</time>
      </trkpt>
      <trkpt lat="36.98234" lon="-2.81438">
        <ele>791.300625</ele>
        <time>2022-02-25T04:52:31.623Z</time>
      </trkpt>
      <trkpt lat="36.98304" lon="-2.81488">
        <ele>794.200489</ele>
        <time>2022-02-25T04:53:18.366Z</time>
      </trkpt>
      <trkpt lat="36.98328" lon="-2.81523">
        <ele>795.676389</ele>
        <time>2022-02-25T04:53:40.137Z</time>
      </trkpt>
      <trkpt lat="36.98336" lon="-2.8155">
        <ele>796.633922</ele>
        <time>2022-02-25T04:53:54.335Z</time>
      </trkpt>
      <trkpt lat="36.98345" lon="-2.81605">
        <ele>798.480923</ele>
        <time>2022-02-25T04:54:19.335Z</time>
      </trkpt>
      <trkpt lat="36.98344" lon="-2.81672">
        <ele>800.707875</ele>
        <time>2022-02-25T04:54:50.365Z</time>
      </trkpt>
      <trkpt lat="36.9835" lon="-2.81685">
        <ele>801.201447</ele>
        <time>2022-02-25T04:54:57.408Z</time>
      </trkpt>
      <trkpt lat="36.98361" lon="-2.81692">
        <ele>801.707575</ele>
        <time>2022-02-25T04:55:04.250Z</time>
      </trkpt>
      <trkpt lat="36.98414" lon="-2.81713">
        <ele>805.221707</ele>
        <time>2022-02-25T04:55:34.599Z</time>
      </trkpt>
      <trkpt lat="36.98423" lon="-2.81724">
        <ele>806.100552</ele>
        <time>2022-02-25T04:55:43.107Z</time>
      </trkpt>
      <trkpt lat="36.98425" lon="-2.81756">
        <ele>807.821237</ele>
        <time>2022-02-25T04:56:00.933Z</time>
      </trkpt>
      <trkpt lat="36.98444" lon="-2.81874">
        <ele>814.310883</ele>
        <time>2022-02-25T04:57:16.463Z</time>
      </trkpt>
      <trkpt lat="36.98443" lon="-2.81958">
        <ele>819.935233</ele>
        <time>2022-02-25T04:58:13.173Z</time>
      </trkpt>
      <trkpt lat="36.98422" lon="-2.82066">
        <ele>827.341729</ele>
        <time>2022-02-25T04:59:26.242Z</time>
      </trkpt>
      <trkpt lat="36.98422" lon="-2.82105">
        <ele>829.34812</ele>
        <time>2022-02-25T04:59:49.404Z</time>
      </trkpt>
      <trkpt lat="36.98449" lon="-2.82205">
        <ele>831.859222</ele>
        <time>2022-02-25T05:00:35.594Z</time>
      </trkpt>
      <trkpt lat="36.98464" lon="-2.82329">
        <ele>834.429127</ele>
        <time>2022-02-25T05:01:17.610Z</time>
      </trkpt>
      <trkpt lat="36.98475" lon="-2.82338">
        <ele>834.457705</ele>
        <time>2022-02-25T05:01:22.534Z</time>
      </trkpt>
      <trkpt lat="36.98524" lon="-2.82337">
        <ele>834.56251</ele>
        <time>2022-02-25T05:01:40.294Z</time>
      </trkpt>
      <trkpt lat="36.98536" lon="-2.82343">
        <ele>834.588692</ele>
        <time>2022-02-25T05:01:44.623Z</time>
      </trkpt>
      <trkpt lat="36.98543" lon="-2.82357">
        <ele>834.617826</ele>
        <time>2022-02-25T05:01:49.453Z</time>
      </trkpt>
      <trkpt lat="36.98558" lon="-2.8246">
        <ele>834.936738</ele>
        <time>2022-02-25T05:02:20.053Z</time>
      </trkpt>
      <trkpt lat="36.9854" lon="-2.82617">
        <ele>837.49762</ele>
        <time>2022-02-25T05:03:22.157Z</time>
      </trkpt>
      <trkpt lat="36.98516" lon="-2.82656">
        <ele>838.300579</ele>
        <time>2022-02-25T05:03:42.036Z</time>
      </trkpt>
      <trkpt lat="36.98479" lon="-2.82674">
        <ele>838.873996</ele>
        <time>2022-02-25T05:04:01.248Z</time>
      </trkpt>
      <trkpt lat="36.98466" lon="-2.82685">
        <ele>839.098699</ele>
        <time>2022-02-25T05:04:09.469Z</time>
      </trkpt>
      <trkpt lat="36.98458" lon="-2.82699">
        <ele>839.277818</ele>
        <time>2022-02-25T05:04:14.897Z</time>
      </trkpt>
      <trkpt lat="36.98446" lon="-2.82742">
        <ele>839.777809</ele>
        <time>2022-02-25T05:04:31.250Z</time>
      </trkpt>
      <trkpt lat="36.98432" lon="-2.82806">
        <ele>840.50114</ele>
        <time>2022-02-25T05:04:54.411Z</time>
      </trkpt>
      <trkpt lat="36.98422" lon="-2.82906">
        <ele>840.468354</ele>
        <time>2022-02-25T05:05:23.939Z</time>
      </trkpt>
      <trkpt lat="36.98416" lon="-2.82977">
        <ele>840.016697</ele>
        <time>2022-02-25T05:05:35.477Z</time>
      </trkpt>
      <trkpt lat="36.98406" lon="-2.83022">
        <ele>839.727829</ele>
        <time>2022-02-25T05:05:42.609Z</time>
      </trkpt>
      <trkpt lat="36.98382" lon="-2.83067">
        <ele>839.226203</ele>
        <time>2022-02-25T05:05:50.962Z</time>
      </trkpt>
      <trkpt lat="36.98338" lon="-2.83104">
        <ele>838.034966</ele>
        <time>2022-02-25T05:06:00.968Z</time>
      </trkpt>
      <trkpt lat="36.98276" lon="-2.83247">
        <ele>835.018655</ele>
        <time>2022-02-25T05:06:23.891Z</time>
      </trkpt>
      <trkpt lat="36.98235" lon="-2.83371">
        <ele>831.728723</ele>
        <time>2022-02-25T05:06:42.326Z</time>
      </trkpt>
      <trkpt lat="36.98229" lon="-2.83401">
        <ele>831.000458</ele>
        <time>2022-02-25T05:06:46.469Z</time>
      </trkpt>
      <trkpt lat="36.98215" lon="-2.83737">
        <ele>824.008513</ele>
        <time>2022-02-25T05:07:32.845Z</time>
      </trkpt>
      <trkpt lat="36.98212" lon="-2.83809">
        <ele>823.433645</ele>
        <time>2022-02-25T05:07:44.629Z</time>
      </trkpt>
      <trkpt lat="36.98208" lon="-2.83881">
        <ele>822.861585</ele>
        <time>2022-02-25T05:07:57.802Z</time>
      </trkpt>
      <trkpt lat="36.98211" lon="-2.83944">
        <ele>823.171654</ele>
        <time>2022-02-25T05:08:11.644Z</time>
      </trkpt>
      <trkpt lat="36.98225" lon="-2.84073">
        <ele>824.20051</ele>
        <time>2022-02-25T05:08:41.123Z</time>
      </trkpt>
      <trkpt lat="36.98284" lon="-2.84254">
        <ele>826.834627</ele>
        <time>2022-02-25T05:09:23.598Z</time>
      </trkpt>
      <trkpt lat="36.98304" lon="-2.84341">
        <ele>828.840801</ele>
        <time>2022-02-25T05:09:49.343Z</time>
      </trkpt>
      <trkpt lat="36.98296" lon="-2.84451">
        <ele>834.701592</ele>
        <time>2022-02-25T05:10:35.104Z</time>
      </trkpt>
      <trkpt lat="36.98271" lon="-2.84671">
        <ele>846.792391</ele>
        <time>2022-02-25T05:12:33.656Z</time>
      </trkpt>
      <trkpt lat="36.98264" lon="-2.84698">
        <ele>848.359088</ele>
        <time>2022-02-25T05:12:47.649Z</time>
      </trkpt>
      <trkpt lat="36.98211" lon="-2.84877">
        <ele>853.496818</ele>
        <time>2022-02-25T05:13:47.552Z</time>
      </trkpt>
      <trkpt lat="36.98198" lon="-2.84891">
        <ele>853.706286</ele>
        <time>2022-02-25T05:13:50.992Z</time>
      </trkpt>
      <trkpt lat="36.98195" lon="-2.84919">
        <ele>853.984115</ele>
        <time>2022-02-25T05:13:58.391Z</time>
      </trkpt>
      <trkpt lat="36.98194" lon="-2.84932">
        <ele>854.116152</ele>
        <time>2022-02-25T05:14:00.558Z</time>
      </trkpt>
      <trkpt lat="36.98186" lon="-2.84946">
        <ele>854.286129</ele>
        <time>2022-02-25T05:14:03.091Z</time>
      </trkpt>
      <trkpt lat="36.98161" lon="-2.84973">
        <ele>854.391811</ele>
        <time>2022-02-25T05:14:09.930Z</time>
      </trkpt>
      <trkpt lat="36.98156" lon="-2.84986">
        <ele>854.251313</ele>
        <time>2022-02-25T05:14:12.321Z</time>
      </trkpt>
      <trkpt lat="36.98156" lon="-2.84998">
        <ele>854.133284</ele>
        <time>2022-02-25T05:14:14.877Z</time>
      </trkpt>
      <trkpt lat="36.98163" lon="-2.85021">
        <ele>853.890645</ele>
        <time>2022-02-25T05:14:18.597Z</time>
      </trkpt>
      <trkpt lat="36.98178" lon="-2.85101">
        <ele>853.083317</ele>
        <time>2022-02-25T05:14:31.685Z</time>
      </trkpt>
      <trkpt lat="36.98184" lon="-2.85149">
        <ele>852.603383</ele>
        <time>2022-02-25T05:14:39.430Z</time>
      </trkpt>
      <trkpt lat="36.98189" lon="-2.85196">
        <ele>852.240734</ele>
        <time>2022-02-25T05:14:47.064Z</time>
      </trkpt>
      <trkpt lat="36.98193" lon="-2.85235">
        <ele>852.061235</ele>
        <time>2022-02-25T05:14:55.385Z</time>
      </trkpt>
      <trkpt lat="36.98203" lon="-2.85336">
        <ele>851.589426</ele>
        <time>2022-02-25T05:15:16.831Z</time>
      </trkpt>
      <trkpt lat="36.98165" lon="-2.85372">
        <ele>851.313272</ele>
        <time>2022-02-25T05:15:25.796Z</time>
      </trkpt>
      <trkpt lat="36.98125" lon="-2.85424">
        <ele>849.404181</ele>
        <time>2022-02-25T05:15:35.887Z</time>
      </trkpt>
      <trkpt lat="36.98149" lon="-2.85454">
        <ele>848.198358</ele>
        <time>2022-02-25T05:15:42.067Z</time>
      </trkpt>
      <trkpt lat="36.98209" lon="-2.85504">
        <ele>845.644184</ele>
        <time>2022-02-25T05:15:54.639Z</time>
      </trkpt>
      <trkpt lat="36.98207" lon="-2.85572">
        <ele>843.589487</ele>
        <time>2022-02-25T05:16:03.494Z</time>
      </trkpt>
      <trkpt lat="36.98206" lon="-2.856">
        <ele>842.714705</ele>
        <time>2022-02-25T05:16:07.095Z</time>
      </trkpt>
      <trkpt lat="36.98207" lon="-2.85611">
        <ele>842.358119</ele>
        <time>2022-02-25T05:16:08.609Z</time>
      </trkpt>
      <trkpt lat="36.98211" lon="-2.85684">
        <ele>840.067424</ele>
        <time>2022-02-25T05:16:18.448Z</time>
      </trkpt>
      <trkpt lat="36.98209" lon="-2.85697">
        <ele>839.650904</ele>
        <time>2022-02-25T05:16:20.300Z</time>
      </trkpt>
      <trkpt lat="36.98188" lon="-2.8583">
        <ele>837.924983</ele>
        <time>2022-02-25T05:16:41.525Z</time>
      </trkpt>
      <trkpt lat="36.98189" lon="-2.8588">
        <ele>837.959225</ele>
        <time>2022-02-25T05:16:52.070Z</time>
      </trkpt>
      <trkpt lat="36.98178" lon="-2.85942">
        <ele>838.002479</ele>
        <time>2022-02-25T05:17:06.645Z</time>
      </trkpt>
      <trkpt lat="36.98166" lon="-2.85956">
        <ele>838.01607</ele>
        <time>2022-02-25T05:17:11.786Z</time>
      </trkpt>
      <trkpt lat="36.98115" lon="-2.86011">
        <ele>839.300415</ele>
        <time>2022-02-25T05:17:34.314Z</time>
      </trkpt>
      <trkpt lat="36.98108" lon="-2.8603">
        <ele>839.663218</ele>
        <time>2022-02-25T05:17:39.974Z</time>
      </trkpt>
      <trkpt lat="36.98107" lon="-2.8604">
        <ele>839.851</ele>
        <time>2022-02-25T05:17:43.453Z</time>
      </trkpt>
      <trkpt lat="36.98116" lon="-2.86067">
        <ele>840.363392</ele>
        <time>2022-02-25T05:17:52.785Z</time>
      </trkpt>
      <trkpt lat="36.98146" lon="-2.86159">
        <ele>842.073683</ele>
        <time>2022-02-25T05:18:20.448Z</time>
      </trkpt>
      <trkpt lat="36.98144" lon="-2.86199">
        <ele>842.520926</ele>
        <time>2022-02-25T05:18:29.500Z</time>
      </trkpt>
      <trkpt lat="36.98131" lon="-2.86224">
        <ele>842.855586</ele>
        <time>2022-02-25T05:18:36.738Z</time>
      </trkpt>
      <trkpt lat="36.98132" lon="-2.86287">
        <ele>843.552991</ele>
        <time>2022-02-25T05:18:50.908Z</time>
      </trkpt>
      <trkpt lat="36.98171" lon="-2.86365">
        <ele>844.562319</ele>
        <time>2022-02-25T05:19:12.924Z</time>
      </trkpt>
      <trkpt lat="36.982" lon="-2.86482">
        <ele>845.505598</ele>
        <time>2022-02-25T05:19:39.252Z</time>
      </trkpt>
      <trkpt lat="36.98371" lon="-2.87175">
        <ele>850.488139</ele>
        <time>2022-02-25T05:22:12.820Z</time>
      </trkpt>
      <trkpt lat="36.98414" lon="-2.87303">
        <ele>851.469572</ele>
        <time>2022-02-25T05:22:41.849Z</time>
      </trkpt>
      <trkpt lat="36.98452" lon="-2.87416">
        <ele>852.357251</ele>
        <time>2022-02-25T05:23:07.743Z</time>
      </trkpt>
      <trkpt lat="36.98498" lon="-2.87513">
        <ele>853.426581</ele>
        <time>2022-02-25T05:23:34.378Z</time>
      </trkpt>
      <trkpt lat="36.98527" lon="-2.87601">
        <ele>854.341046</ele>
        <time>2022-02-25T05:23:55.830Z</time>
      </trkpt>
      <trkpt lat="36.9855" lon="-2.87677">
        <ele>854.876403</ele>
        <time>2022-02-25T05:24:13.104Z</time>
      </trkpt>
      <trkpt lat="36.98553" lon="-2.87685">
        <ele>854.920028</ele>
        <time>2022-02-25T05:24:14.833Z</time>
      </trkpt>
      <trkpt lat="36.98558" lon="-2.87701">
        <ele>855.007436</ele>
        <time>2022-02-25T05:24:18.471Z</time>
      </trkpt>
      <trkpt lat="36.98563" lon="-2.87718">
        <ele>855.095311</ele>
        <time>2022-02-25T05:24:22.103Z</time>
      </trkpt>
      <trkpt lat="36.9857" lon="-2.87741">
        <ele>855.22211</ele>
        <time>2022-02-25T05:24:27.083Z</time>
      </trkpt>
      <trkpt lat="36.98582" lon="-2.87777">
        <ele>855.418371</ele>
        <time>2022-02-25T05:24:34.603Z</time>
      </trkpt>
      <trkpt lat="36.98649" lon="-2.87951">
        <ele>856.994876</ele>
        <time>2022-02-25T05:25:12.656Z</time>
      </trkpt>
      <trkpt lat="36.98873" lon="-2.88197">
        <ele>863.202889</ele>
        <time>2022-02-25T05:26:52.143Z</time>
      </trkpt>
      <trkpt lat="36.98963" lon="-2.88297">
        <ele>866.642083</ele>
        <time>2022-02-25T05:27:36.205Z</time>
      </trkpt>
      <trkpt lat="36.99117" lon="-2.88463">
        <ele>874.285251</ele>
        <time>2022-02-25T05:28:58.655Z</time>
      </trkpt>
      <trkpt lat="36.99259" lon="-2.88617">
        <ele>884.718413</ele>
        <time>2022-02-25T05:30:33.193Z</time>
      </trkpt>
      <trkpt lat="36.99323" lon="-2.88693">
        <ele>890.599526</ele>
        <time>2022-02-25T05:31:24.206Z</time>
      </trkpt>
      <trkpt lat="36.99376" lon="-2.88793">
        <ele>896.699068</ele>
        <time>2022-02-25T05:32:18.318Z</time>
      </trkpt>
      <trkpt lat="36.9939" lon="-2.88828">
        <ele>898.188707</ele>
        <time>2022-02-25T05:32:35.843Z</time>
      </trkpt>
      <trkpt lat="36.99392" lon="-2.88843">
        <ele>898.745945</ele>
        <time>2022-02-25T05:32:42.106Z</time>
      </trkpt>
      <trkpt lat="36.994" lon="-2.88855">
        <ele>899.331755</ele>
        <time>2022-02-25T05:32:49.195Z</time>
      </trkpt>
      <trkpt lat="36.99392" lon="-2.88864">
        <ele>899.834596</ele>
        <time>2022-02-25T05:32:53.970Z</time>
      </trkpt>
      <trkpt lat="36.99391" lon="-2.88892">
        <ele>900.902706</ele>
        <time>2022-02-25T05:33:05.208Z</time>
      </trkpt>
      <trkpt lat="36.9939" lon="-2.88904">
        <ele>901.33424</ele>
        <time>2022-02-25T05:33:09.283Z</time>
      </trkpt>
      <trkpt lat="36.99388" lon="-2.88925">
        <ele>902.152837</ele>
        <time>2022-02-25T05:33:16.655Z</time>
      </trkpt>
      <trkpt lat="36.99388" lon="-2.88929">
        <ele>902.289186</ele>
        <time>2022-02-25T05:33:18.004Z</time>
      </trkpt>
      <trkpt lat="36.99388" lon="-2.88933">
        <ele>902.429282</ele>
        <time>2022-02-25T05:33:19.410Z</time>
      </trkpt>
      <trkpt lat="36.99384" lon="-2.88971">
        <ele>903.888426</ele>
        <time>2022-02-25T05:33:30.637Z</time>
      </trkpt>
      <trkpt lat="36.99396" lon="-2.89005">
        <ele>904.17969</ele>
        <time>2022-02-25T05:33:39.585Z</time>
      </trkpt>
      <trkpt lat="36.99393" lon="-2.89033">
        <ele>904.02401</ele>
        <time>2022-02-25T05:33:45.358Z</time>
      </trkpt>
      <trkpt lat="36.99388" lon="-2.89072">
        <ele>903.800437</ele>
        <time>2022-02-25T05:33:52.164Z</time>
      </trkpt>
      <trkpt lat="36.99387" lon="-2.89073">
        <ele>903.792479</ele>
        <time>2022-02-25T05:33:52.405Z</time>
      </trkpt>
      <trkpt lat="36.9939" lon="-2.89105">
        <ele>903.613678</ele>
        <time>2022-02-25T05:33:57.615Z</time>
      </trkpt>
      <trkpt lat="36.9939" lon="-2.8911">
        <ele>903.584505</ele>
        <time>2022-02-25T05:33:58.446Z</time>
      </trkpt>
      <trkpt lat="36.99379" lon="-2.89143">
        <ele>903.387356</ele>
        <time>2022-02-25T05:34:03.702Z</time>
      </trkpt>
      <trkpt lat="36.99361" lon="-2.89192">
        <ele>903.086432</ele>
        <time>2022-02-25T05:34:11.332Z</time>
      </trkpt>
      <trkpt lat="36.99359" lon="-2.89197">
        <ele>903.035984</ele>
        <time>2022-02-25T05:34:12.144Z</time>
      </trkpt>
      <trkpt lat="36.99331" lon="-2.89267">
        <ele>901.669351</ele>
        <time>2022-02-25T05:34:22.592Z</time>
      </trkpt>
      <trkpt lat="36.99317" lon="-2.89304">
        <ele>900.94393</ele>
        <time>2022-02-25T05:34:28.294Z</time>
      </trkpt>
      <trkpt lat="36.99303" lon="-2.89355">
        <ele>899.99461</ele>
        <time>2022-02-25T05:34:36.257Z</time>
      </trkpt>
      <trkpt lat="36.99294" lon="-2.89403">
        <ele>899.118244</ele>
        <time>2022-02-25T05:34:44.012Z</time>
      </trkpt>
      <trkpt lat="36.9929" lon="-2.89431">
        <ele>899.235869</ele>
        <time>2022-02-25T05:34:48.650Z</time>
      </trkpt>
      <trkpt lat="36.99282" lon="-2.89503">
        <ele>899.624284</ele>
        <time>2022-02-25T05:35:01.513Z</time>
      </trkpt>
      <trkpt lat="36.99279" lon="-2.89523">
        <ele>899.735263</ele>
        <time>2022-02-25T05:35:05.928Z</time>
      </trkpt>
      <trkpt lat="36.99267" lon="-2.89609">
        <ele>900.19718</ele>
        <time>2022-02-25T05:35:26.209Z</time>
      </trkpt>
      <trkpt lat="36.99264" lon="-2.89635">
        <ele>900.477271</ele>
        <time>2022-02-25T05:35:33.340Z</time>
      </trkpt>
      <trkpt lat="36.99252" lon="-2.89713">
        <ele>902.145168</ele>
        <time>2022-02-25T05:35:55.077Z</time>
      </trkpt>
      <trkpt lat="36.99241" lon="-2.89797">
        <ele>903.95035</ele>
        <time>2022-02-25T05:36:20.003Z</time>
      </trkpt>
      <trkpt lat="36.9924" lon="-2.89832">
        <ele>904.672701</ele>
        <time>2022-02-25T05:36:30.258Z</time>
      </trkpt>
      <trkpt lat="36.99246" lon="-2.89884">
        <ele>905.765974</ele>
        <time>2022-02-25T05:36:45.932Z</time>
      </trkpt>
      <trkpt lat="36.99253" lon="-2.89887">
        <ele>905.936575</ele>
        <time>2022-02-25T05:36:48.366Z</time>
      </trkpt>
      <trkpt lat="36.99256" lon="-2.89894">
        <ele>906.104972</ele>
        <time>2022-02-25T05:36:50.980Z</time>
      </trkpt>
      <trkpt lat="36.99254" lon="-2.89902">
        <ele>906.274151</ele>
        <time>2022-02-25T05:36:53.494Z</time>
      </trkpt>
      <trkpt lat="36.99246" lon="-2.89907">
        <ele>906.518005</ele>
        <time>2022-02-25T05:36:56.739Z</time>
      </trkpt>
      <trkpt lat="36.99244" lon="-2.89924">
        <ele>906.877182</ele>
        <time>2022-02-25T05:37:02.009Z</time>
      </trkpt>
      <trkpt lat="36.99243" lon="-2.89935">
        <ele>907.092548</ele>
        <time>2022-02-25T05:37:05.245Z</time>
      </trkpt>
      <trkpt lat="36.99237" lon="-2.89959">
        <ele>907.609284</ele>
        <time>2022-02-25T05:37:12.353Z</time>
      </trkpt>
      <trkpt lat="36.99196" lon="-2.90043">
        <ele>909.64614</ele>
        <time>2022-02-25T05:37:39.417Z</time>
      </trkpt>
      <trkpt lat="36.99181" lon="-2.90089">
        <ele>910.122202</ele>
        <time>2022-02-25T05:37:51.359Z</time>
      </trkpt>
      <trkpt lat="36.99147" lon="-2.90232">
        <ele>911.501589</ele>
        <time>2022-02-25T05:38:23.169Z</time>
      </trkpt>
      <trkpt lat="36.99136" lon="-2.90316">
        <ele>912.325263</ele>
        <time>2022-02-25T05:38:41.044Z</time>
      </trkpt>
      <trkpt lat="36.99101" lon="-2.90421">
        <ele>913.453728</ele>
        <time>2022-02-25T05:39:06.420Z</time>
      </trkpt>
      <trkpt lat="36.99064" lon="-2.9053">
        <ele>915.050855</ele>
        <time>2022-02-25T05:39:36.424Z</time>
      </trkpt>
      <trkpt lat="36.99057" lon="-2.90556">
        <ele>915.504399</ele>
        <time>2022-02-25T05:39:43.780Z</time>
      </trkpt>
      <trkpt lat="36.99013" lon="-2.90707">
        <ele>917.966592</ele>
        <time>2022-02-25T05:40:26.629Z</time>
      </trkpt>
      <trkpt lat="36.99008" lon="-2.90721">
        <ele>918.109337</ele>
        <time>2022-02-25T05:40:30.752Z</time>
      </trkpt>
      <trkpt lat="36.9896" lon="-2.90865">
        <ele>919.517266</ele>
        <time>2022-02-25T05:41:05.806Z</time>
      </trkpt>
      <trkpt lat="36.98956" lon="-2.90875">
        <ele>919.624725</ele>
        <time>2022-02-25T05:41:08.106Z</time>
      </trkpt>
      <trkpt lat="36.98948" lon="-2.90894">
        <ele>919.734226</ele>
        <time>2022-02-25T05:41:11.926Z</time>
      </trkpt>
      <trkpt lat="36.98675" lon="-2.91513">
        <ele>916.370541</ele>
        <time>2022-02-25T05:43:07.165Z</time>
      </trkpt>
      <trkpt lat="36.98671" lon="-2.91521">
        <ele>916.398035</ele>
        <time>2022-02-25T05:43:08.680Z</time>
      </trkpt>
      <trkpt lat="36.98521" lon="-2.91862">
        <ele>918.31193</ele>
        <time>2022-02-25T05:44:28.992Z</time>
      </trkpt>
      <trkpt lat="36.98484" lon="-2.91946">
        <ele>919.172259</ele>
        <time>2022-02-25T05:44:50.858Z</time>
      </trkpt>
      <trkpt lat="36.98473" lon="-2.91968">
        <ele>919.410918</ele>
        <time>2022-02-25T05:44:56.575Z</time>
      </trkpt>
      <trkpt lat="36.98453" lon="-2.91998">
        <ele>919.774679</ele>
        <time>2022-02-25T05:45:05.275Z</time>
      </trkpt>
      <trkpt lat="36.98419" lon="-2.92088">
        <ele>920.72164</ele>
        <time>2022-02-25T05:45:27.855Z</time>
      </trkpt>
      <trkpt lat="36.98377" lon="-2.92182">
        <ele>921.794808</ele>
        <time>2022-02-25T05:45:53.201Z</time>
      </trkpt>
      <trkpt lat="36.98302" lon="-2.92359">
        <ele>923.368614</ele>
        <time>2022-02-25T05:46:37.637Z</time>
      </trkpt>
      <trkpt lat="36.98203" lon="-2.92589">
        <ele>924.41342</ele>
        <time>2022-02-25T05:47:28.252Z</time>
      </trkpt>
      <trkpt lat="36.98178" lon="-2.92673">
        <ele>924.61418</ele>
        <time>2022-02-25T05:47:44.722Z</time>
      </trkpt>
      <trkpt lat="36.98178" lon="-2.92679">
        <ele>924.601468</ele>
        <time>2022-02-25T05:47:45.909Z</time>
      </trkpt>
      <trkpt lat="36.9817" lon="-2.92692">
        <ele>924.565814</ele>
        <time>2022-02-25T05:47:49.125Z</time>
      </trkpt>
      <trkpt lat="36.98133" lon="-2.92772">
        <ele>924.371816</ele>
        <time>2022-02-25T05:48:06.020Z</time>
      </trkpt>
      <trkpt lat="36.98072" lon="-2.9297">
        <ele>922.951296</ele>
        <time>2022-02-25T05:48:40.520Z</time>
      </trkpt>
      <trkpt lat="36.98032" lon="-2.93172">
        <ele>919.941463</ele>
        <time>2022-02-25T05:49:11.106Z</time>
      </trkpt>
      <trkpt lat="36.98004" lon="-2.93374">
        <ele>915.827667</ele>
        <time>2022-02-25T05:49:40.093Z</time>
      </trkpt>
      <trkpt lat="36.97979" lon="-2.93567">
        <ele>911.351234</ele>
        <time>2022-02-25T05:50:07.161Z</time>
      </trkpt>
      <trkpt lat="36.97954" lon="-2.93674">
        <ele>908.793634</ele>
        <time>2022-02-25T05:50:22.594Z</time>
      </trkpt>
      <trkpt lat="36.9792" lon="-2.93788">
        <ele>905.898025</ele>
        <time>2022-02-25T05:50:39.595Z</time>
      </trkpt>
      <trkpt lat="36.97907" lon="-2.93829">
        <ele>904.826946</ele>
        <time>2022-02-25T05:50:45.581Z</time>
      </trkpt>
      <trkpt lat="36.97814" lon="-2.94126">
        <ele>897.55604</ele>
        <time>2022-02-25T05:51:29.253Z</time>
      </trkpt>
      <trkpt lat="36.97785" lon="-2.94213">
        <ele>895.945379</ele>
        <time>2022-02-25T05:51:43.982Z</time>
      </trkpt>
      <trkpt lat="36.97771" lon="-2.94259">
        <ele>895.261357</ele>
        <time>2022-02-25T05:51:51.644Z</time>
      </trkpt>
      <trkpt lat="36.97751" lon="-2.94325">
        <ele>894.288127</ele>
        <time>2022-02-25T05:52:02.472Z</time>
      </trkpt>
      <trkpt lat="36.97734" lon="-2.94409">
        <ele>892.401304</ele>
        <time>2022-02-25T05:52:15.028Z</time>
      </trkpt>
      <trkpt lat="36.97729" lon="-2.94531">
        <ele>888.355307</ele>
        <time>2022-02-25T05:52:30.839Z</time>
      </trkpt>
      <trkpt lat="36.97731" lon="-2.9462">
        <ele>884.898501</ele>
        <time>2022-02-25T05:52:42.139Z</time>
      </trkpt>
      <trkpt lat="36.97733" lon="-2.94693">
        <ele>880.958503</ele>
        <time>2022-02-25T05:52:51.261Z</time>
      </trkpt>
      <trkpt lat="36.97729" lon="-2.94957">
        <ele>862.992799</ele>
        <time>2022-02-25T05:53:22.323Z</time>
      </trkpt>
      <trkpt lat="36.97726" lon="-2.94989">
        <ele>860.384642</ele>
        <time>2022-02-25T05:53:25.877Z</time>
      </trkpt>
      <trkpt lat="36.97744" lon="-2.94995">
        <ele>858.444891</ele>
        <time>2022-02-25T05:53:30.484Z</time>
      </trkpt>
      <trkpt lat="36.97758" lon="-2.94981">
        <ele>856.659553</ele>
        <time>2022-02-25T05:53:34.923Z</time>
      </trkpt>
      <trkpt lat="36.97764" lon="-2.94986">
        <ele>855.915276</ele>
        <time>2022-02-25T05:53:36.754Z</time>
      </trkpt>
      <trkpt lat="36.97755" lon="-2.95009">
        <ele>853.331493</ele>
        <time>2022-02-25T05:53:41.800Z</time>
      </trkpt>
      <trkpt lat="36.97753" lon="-2.9503">
        <ele>851.181905</ele>
        <time>2022-02-25T05:53:45.975Z</time>
      </trkpt>
      <trkpt lat="36.9776" lon="-2.95148">
        <ele>839.056164</ele>
        <time>2022-02-25T05:54:09.014Z</time>
      </trkpt>
      <trkpt lat="36.97777" lon="-2.95132">
        <ele>836.353092</ele>
        <time>2022-02-25T05:54:14.459Z</time>
      </trkpt>
      <trkpt lat="36.97758" lon="-2.95189">
        <ele>831.234456</ele>
        <time>2022-02-25T05:54:21.371Z</time>
      </trkpt>
      <trkpt lat="36.97749" lon="-2.95206">
        <ele>830.098271</ele>
        <time>2022-02-25T05:54:23.648Z</time>
      </trkpt>
      <trkpt lat="36.97706" lon="-2.9524">
        <ele>826.527025</ele>
        <time>2022-02-25T05:54:31.225Z</time>
      </trkpt>
      <trkpt lat="36.97705" lon="-2.95267">
        <ele>825.008431</ele>
        <time>2022-02-25T05:54:34.563Z</time>
      </trkpt>
      <trkpt lat="36.97715" lon="-2.95323">
        <ele>821.786145</ele>
        <time>2022-02-25T05:54:41.941Z</time>
      </trkpt>
      <trkpt lat="36.97709" lon="-2.95365">
        <ele>819.481058</ele>
        <time>2022-02-25T05:54:47.232Z</time>
      </trkpt>
      <trkpt lat="36.97693" lon="-2.95404">
        <ele>817.301206</ele>
        <time>2022-02-25T05:54:52.839Z</time>
      </trkpt>
      <trkpt lat="36.97662" lon="-2.95439">
        <ele>814.720594</ele>
        <time>2022-02-25T05:54:59.254Z</time>
      </trkpt>
      <trkpt lat="36.97652" lon="-2.95465">
        <ele>813.30367</ele>
        <time>2022-02-25T05:55:02.710Z</time>
      </trkpt>
      <trkpt lat="36.97654" lon="-2.95601">
        <ele>806.009633</ele>
        <time>2022-02-25T05:55:19.083Z</time>
      </trkpt>
      <trkpt lat="36.97666" lon="-2.95643">
        <ele>803.284486</ele>
        <time>2022-02-25T05:55:24.424Z</time>
      </trkpt>
      <trkpt lat="36.97662" lon="-2.95688">
        <ele>800.579064</ele>
        <time>2022-02-25T05:55:29.570Z</time>
      </trkpt>
      <trkpt lat="36.97654" lon="-2.95702">
        <ele>799.509622</ele>
        <time>2022-02-25T05:55:31.626Z</time>
      </trkpt>
      <trkpt lat="36.97575" lon="-2.95761">
        <ele>792.405316</ele>
        <time>2022-02-25T05:55:45.205Z</time>
      </trkpt>
      <trkpt lat="36.9756" lon="-2.95778">
        <ele>790.818039</ele>
        <time>2022-02-25T05:55:48.240Z</time>
      </trkpt>
      <trkpt lat="36.97534" lon="-2.95887">
        <ele>783.778306</ele>
        <time>2022-02-25T05:56:01.798Z</time>
      </trkpt>
      <trkpt lat="36.9751" lon="-2.95915">
        <ele>781.255676</ele>
        <time>2022-02-25T05:56:06.515Z</time>
      </trkpt>
      <trkpt lat="36.9747" lon="-2.95942">
        <ele>777.758766</ele>
        <time>2022-02-25T05:56:13.142Z</time>
      </trkpt>
      <trkpt lat="36.97443" lon="-2.95954">
        <ele>775.600373</ele>
        <time>2022-02-25T05:56:17.239Z</time>
      </trkpt>
      <trkpt lat="36.97371" lon="-2.95971">
        <ele>770.101353</ele>
        <time>2022-02-25T05:56:27.915Z</time>
      </trkpt>
      <trkpt lat="36.97346" lon="-2.95986">
        <ele>767.955573</ele>
        <time>2022-02-25T05:56:32.421Z</time>
      </trkpt>
      <trkpt lat="36.97326" lon="-2.96009">
        <ele>766.581551</ele>
        <time>2022-02-25T05:56:36.629Z</time>
      </trkpt>
      <trkpt lat="36.97313" lon="-2.96025">
        <ele>765.730357</ele>
        <time>2022-02-25T05:56:39.625Z</time>
      </trkpt>
      <trkpt lat="36.97254" lon="-2.96093">
        <ele>762.094756</ele>
        <time>2022-02-25T05:56:52.461Z</time>
      </trkpt>
      <trkpt lat="36.9722" lon="-2.9613">
        <ele>760.041162</ele>
        <time>2022-02-25T05:56:59.843Z</time>
      </trkpt>
      <trkpt lat="36.97136" lon="-2.96227">
        <ele>755.040524</ele>
        <time>2022-02-25T05:57:19.696Z</time>
      </trkpt>
      <trkpt lat="36.97111" lon="-2.96253">
        <ele>753.647316</ele>
        <time>2022-02-25T05:57:24.620Z</time>
      </trkpt>
      <trkpt lat="36.97075" lon="-2.96253">
        <ele>752.084586</ele>
        <time>2022-02-25T05:57:30.211Z</time>
      </trkpt>
      <trkpt lat="36.97022" lon="-2.96245">
        <ele>749.032686</ele>
        <time>2022-02-25T05:57:38.596Z</time>
      </trkpt>
      <trkpt lat="36.97002" lon="-2.9629">
        <ele>746.474402</ele>
        <time>2022-02-25T05:57:45.173Z</time>
      </trkpt>
      <trkpt lat="36.96952" lon="-2.96276">
        <ele>743.317616</ele>
        <time>2022-02-25T05:57:53.166Z</time>
      </trkpt>
      <trkpt lat="36.96928" lon="-2.96275">
        <ele>741.824483</ele>
        <time>2022-02-25T05:57:56.909Z</time>
      </trkpt>
      <trkpt lat="36.96865" lon="-2.96292">
        <ele>737.86999</ele>
        <time>2022-02-25T05:58:06.418Z</time>
      </trkpt>
      <trkpt lat="36.96795" lon="-2.96293">
        <ele>733.534121</ele>
        <time>2022-02-25T05:58:17.111Z</time>
      </trkpt>
      <trkpt lat="36.96768" lon="-2.96332">
        <ele>730.92943</ele>
        <time>2022-02-25T05:58:23.383Z</time>
      </trkpt>
      <trkpt lat="36.96679" lon="-2.96392">
        <ele>727.526999</ele>
        <time>2022-02-25T05:58:39.855Z</time>
      </trkpt>
      <trkpt lat="36.96635" lon="-2.96412">
        <ele>726.403584</ele>
        <time>2022-02-25T05:58:48.125Z</time>
      </trkpt>
      <trkpt lat="36.96624" lon="-2.96412">
        <ele>726.1391</ele>
        <time>2022-02-25T05:58:50.347Z</time>
      </trkpt>
      <trkpt lat="36.96614" lon="-2.96401">
        <ele>725.823945</ele>
        <time>2022-02-25T05:58:52.803Z</time>
      </trkpt>
      <trkpt lat="36.96607" lon="-2.96335">
        <ele>725.562524</ele>
        <time>2022-02-25T05:59:06.368Z</time>
      </trkpt>
      <trkpt lat="36.96582" lon="-2.96282">
        <ele>726.893049</ele>
        <time>2022-02-25T05:59:24.374Z</time>
      </trkpt>
      <trkpt lat="36.96537" lon="-2.96262">
        <ele>728.185256</ele>
        <time>2022-02-25T05:59:45.057Z</time>
      </trkpt>
      <trkpt lat="36.96524" lon="-2.96261">
        <ele>728.559316</ele>
        <time>2022-02-25T05:59:50.840Z</time>
      </trkpt>
      <trkpt lat="36.96471" lon="-2.96284">
        <ele>730.007332</ele>
        <time>2022-02-25T06:00:11.919Z</time>
      </trkpt>
      <trkpt lat="36.96399" lon="-2.96294">
        <ele>731.109574</ele>
        <time>2022-02-25T06:00:36.422Z</time>
      </trkpt>
      <trkpt lat="36.96378" lon="-2.96303">
        <ele>731.446714</ele>
        <time>2022-02-25T06:00:42.710Z</time>
      </trkpt>
      <trkpt lat="36.96353" lon="-2.96335">
        <ele>731.991508</ele>
        <time>2022-02-25T06:00:52.669Z</time>
      </trkpt>
      <trkpt lat="36.96308" lon="-2.96368">
        <ele>732.572108</ele>
        <time>2022-02-25T06:01:05.908Z</time>
      </trkpt>
      <trkpt lat="36.96299" lon="-2.96374">
        <ele>732.488118</ele>
        <time>2022-02-25T06:01:08.029Z</time>
      </trkpt>
      <trkpt lat="36.96238" lon="-2.96465">
        <ele>731.730772</ele>
        <time>2022-02-25T06:01:27.618Z</time>
      </trkpt>
      <trkpt lat="36.96206" lon="-2.96588">
        <ele>730.742963</ele>
        <time>2022-02-25T06:01:46.956Z</time>
      </trkpt>
      <trkpt lat="36.96171" lon="-2.96687">
        <ele>729.645776</ele>
        <time>2022-02-25T06:02:03.560Z</time>
      </trkpt>
      <trkpt lat="36.96043" lon="-2.96953">
        <ele>726.754533</ele>
        <time>2022-02-25T06:02:54.346Z</time>
      </trkpt>
      <trkpt lat="36.95999" lon="-2.97071">
        <ele>722.097562</ele>
        <time>2022-02-25T06:03:12.400Z</time>
      </trkpt>
      <trkpt lat="36.95992" lon="-2.97106">
        <ele>720.823083</ele>
        <time>2022-02-25T06:03:16.806Z</time>
      </trkpt>
      <trkpt lat="36.95981" lon="-2.97137">
        <ele>719.598752</ele>
        <time>2022-02-25T06:03:20.912Z</time>
      </trkpt>
      <trkpt lat="36.95891" lon="-2.97323">
        <ele>702.831437</ele>
        <time>2022-02-25T06:03:45.371Z</time>
      </trkpt>
      <trkpt lat="36.95855" lon="-2.9742">
        <ele>695.356698</ele>
        <time>2022-02-25T06:03:57.597Z</time>
      </trkpt>
      <trkpt lat="36.95846" lon="-2.97434">
        <ele>694.186542</ele>
        <time>2022-02-25T06:03:59.597Z</time>
      </trkpt>
      <trkpt lat="36.95823" lon="-2.97445">
        <ele>692.058762</ele>
        <time>2022-02-25T06:04:03.266Z</time>
      </trkpt>
      <trkpt lat="36.958" lon="-2.97425">
        <ele>689.745852</ele>
        <time>2022-02-25T06:04:07.278Z</time>
      </trkpt>
      <trkpt lat="36.9578" lon="-2.97384">
        <ele>686.497017</ele>
        <time>2022-02-25T06:04:13.005Z</time>
      </trkpt>
      <trkpt lat="36.95763" lon="-2.97374">
        <ele>685.276353</ele>
        <time>2022-02-25T06:04:15.882Z</time>
      </trkpt>
      <trkpt lat="36.95668" lon="-2.97394">
        <ele>679.516049</ele>
        <time>2022-02-25T06:04:30.621Z</time>
      </trkpt>
      <trkpt lat="36.956" lon="-2.97434">
        <ele>675.116512</ele>
        <time>2022-02-25T06:04:42.378Z</time>
      </trkpt>
      <trkpt lat="36.95576" lon="-2.97463">
        <ele>673.779821</ele>
        <time>2022-02-25T06:04:47.542Z</time>
      </trkpt>
      <trkpt lat="36.95536" lon="-2.97478">
        <ele>672.090223</ele>
        <time>2022-02-25T06:04:54.227Z</time>
      </trkpt>
      <trkpt lat="36.95475" lon="-2.97577">
        <ele>668.098976</ele>
        <time>2022-02-25T06:05:11.165Z</time>
      </trkpt>
      <trkpt lat="36.95458" lon="-2.97622">
        <ele>667.337337</ele>
        <time>2022-02-25T06:05:18.275Z</time>
      </trkpt>
      <trkpt lat="36.95426" lon="-2.97671">
        <ele>666.367382</ele>
        <time>2022-02-25T06:05:27.548Z</time>
      </trkpt>
      <trkpt lat="36.95367" lon="-2.97817">
        <ele>663.790167</ele>
        <time>2022-02-25T06:05:53.057Z</time>
      </trkpt>
      <trkpt lat="36.95335" lon="-2.97913">
        <ele>662.062898</ele>
        <time>2022-02-25T06:06:08.448Z</time>
      </trkpt>
      <trkpt lat="36.95328" lon="-2.9792">
        <ele>661.877177</ele>
        <time>2022-02-25T06:06:10.046Z</time>
      </trkpt>
      <trkpt lat="36.95315" lon="-2.97922">
        <ele>661.595924</ele>
        <time>2022-02-25T06:06:12.480Z</time>
      </trkpt>
      <trkpt lat="36.95297" lon="-2.97996">
        <ele>659.636503</ele>
        <time>2022-02-25T06:06:23.199Z</time>
      </trkpt>
      <trkpt lat="36.95212" lon="-2.98167">
        <ele>652.873428</ele>
        <time>2022-02-25T06:06:49.155Z</time>
      </trkpt>
      <trkpt lat="36.9519" lon="-2.98226">
        <ele>650.424256</ele>
        <time>2022-02-25T06:06:57.334Z</time>
      </trkpt>
      <trkpt lat="36.95183" lon="-2.98285">
        <ele>648.121767</ele>
        <time>2022-02-25T06:07:05.053Z</time>
      </trkpt>
      <trkpt lat="36.95187" lon="-2.98348">
        <ele>645.74549</ele>
        <time>2022-02-25T06:07:13.042Z</time>
      </trkpt>
      <trkpt lat="36.95198" lon="-2.98389">
        <ele>644.252626</ele>
        <time>2022-02-25T06:07:18.600Z</time>
      </trkpt>
      <trkpt lat="36.95231" lon="-2.98449">
        <ele>641.981639</ele>
        <time>2022-02-25T06:07:28.062Z</time>
      </trkpt>
      <trkpt lat="36.95289" lon="-2.985">
        <ele>639.179146</ele>
        <time>2022-02-25T06:07:39.880Z</time>
      </trkpt>
      <trkpt lat="36.95634" lon="-2.98638">
        <ele>628.871157</ele>
        <time>2022-02-25T06:08:42.347Z</time>
      </trkpt>
      <trkpt lat="36.95698" lon="-2.9868">
        <ele>628.498022</ele>
        <time>2022-02-25T06:08:57.832Z</time>
      </trkpt>
      <trkpt lat="36.95742" lon="-2.98739">
        <ele>629.048877</ele>
        <time>2022-02-25T06:09:16.412Z</time>
      </trkpt>
      <trkpt lat="36.95767" lon="-2.98798">
        <ele>629.503198</ele>
        <time>2022-02-25T06:09:32.389Z</time>
      </trkpt>
      <trkpt lat="36.95779" lon="-2.98882">
        <ele>629.950625</ele>
        <time>2022-02-25T06:09:53.775Z</time>
      </trkpt>
      <trkpt lat="36.95776" lon="-2.98934">
        <ele>630.182558</ele>
        <time>2022-02-25T06:10:05.897Z</time>
      </trkpt>
      <trkpt lat="36.95764" lon="-2.98989">
        <ele>630.439558</ele>
        <time>2022-02-25T06:10:17.785Z</time>
      </trkpt>
      <trkpt lat="36.95703" lon="-2.99136">
        <ele>627.355867</ele>
        <time>2022-02-25T06:10:43.102Z</time>
      </trkpt>
      <trkpt lat="36.95671" lon="-2.99229">
        <ele>624.297436</ele>
        <time>2022-02-25T06:10:55.913Z</time>
      </trkpt>
      <trkpt lat="36.95597" lon="-2.99542">
        <ele>602.102172</ele>
        <time>2022-02-25T06:11:33.556Z</time>
      </trkpt>
      <trkpt lat="36.95561" lon="-2.99665">
        <ele>592.567509</ele>
        <time>2022-02-25T06:11:48.536Z</time>
      </trkpt>
      <trkpt lat="36.95555" lon="-2.99697">
        <ele>590.378388</ele>
        <time>2022-02-25T06:11:52.322Z</time>
      </trkpt>
      <trkpt lat="36.95554" lon="-2.9975">
        <ele>586.816665</ele>
        <time>2022-02-25T06:11:58.614Z</time>
      </trkpt>
      <trkpt lat="36.95565" lon="-2.99808">
        <ele>582.900333</ele>
        <time>2022-02-25T06:12:05.471Z</time>
      </trkpt>
      <trkpt lat="36.95603" lon="-2.99891">
        <ele>576.704086</ele>
        <time>2022-02-25T06:12:16.637Z</time>
      </trkpt>
      <trkpt lat="36.95618" lon="-2.99943">
        <ele>574.184367</ele>
        <time>2022-02-25T06:12:23.163Z</time>
      </trkpt>
      <trkpt lat="36.95625" lon="-3.00075">
        <ele>568.157153</ele>
        <time>2022-02-25T06:12:39.683Z</time>
      </trkpt>
      <trkpt lat="36.95635" lon="-3.00131">
        <ele>565.67249</ele>
        <time>2022-02-25T06:12:47.362Z</time>
      </trkpt>
      <trkpt lat="36.95655" lon="-3.00238">
        <ele>561.195539</ele>
        <time>2022-02-25T06:13:03.299Z</time>
      </trkpt>
      <trkpt lat="36.95661" lon="-3.00363">
        <ele>555.222463</ele>
        <time>2022-02-25T06:13:17.901Z</time>
      </trkpt>
      <trkpt lat="36.95665" lon="-3.00392">
        <ele>553.312411</ele>
        <time>2022-02-25T06:13:21.193Z</time>
      </trkpt>
      <trkpt lat="36.95667" lon="-3.00403">
        <ele>552.558566</ele>
        <time>2022-02-25T06:13:22.507Z</time>
      </trkpt>
      <trkpt lat="36.95669" lon="-3.00409">
        <ele>552.14965</ele>
        <time>2022-02-25T06:13:23.240Z</time>
      </trkpt>
      <trkpt lat="36.9568" lon="-3.0044">
        <ele>549.958664</ele>
        <time>2022-02-25T06:13:27.100Z</time>
      </trkpt>
      <trkpt lat="36.95698" lon="-3.00467">
        <ele>547.664268</ele>
        <time>2022-02-25T06:13:31.242Z</time>
      </trkpt>
      <trkpt lat="36.95752" lon="-3.00506">
        <ele>543.155469</ele>
        <time>2022-02-25T06:13:40.558Z</time>
      </trkpt>
      <trkpt lat="36.95783" lon="-3.00524">
        <ele>543.269204</ele>
        <time>2022-02-25T06:13:45.967Z</time>
      </trkpt>
      <trkpt lat="36.95819" lon="-3.00558">
        <ele>543.418466</ele>
        <time>2022-02-25T06:13:53.722Z</time>
      </trkpt>
      <trkpt lat="36.95842" lon="-3.00604">
        <ele>543.562182</ele>
        <time>2022-02-25T06:14:07.043Z</time>
      </trkpt>
      <trkpt lat="36.95862" lon="-3.0065">
        <ele>543.700822</ele>
        <time>2022-02-25T06:14:29.085Z</time>
      </trkpt>
      <trkpt lat="36.95892" lon="-3.00697">
        <ele>546.294714</ele>
        <time>2022-02-25T06:15:00.901Z</time>
      </trkpt>
      <trkpt lat="36.95911" lon="-3.00717">
        <ele>547.935141</ele>
        <time>2022-02-25T06:15:17.488Z</time>
      </trkpt>
      <trkpt lat="36.95951" lon="-3.00744">
        <ele>550.903297</ele>
        <time>2022-02-25T06:15:44.497Z</time>
      </trkpt>
      <trkpt lat="36.95993" lon="-3.00758">
        <ele>553.737901</ele>
        <time>2022-02-25T06:16:06.467Z</time>
      </trkpt>
      <trkpt lat="36.96016" lon="-3.0076">
        <ele>555.274335</ele>
        <time>2022-02-25T06:16:17.081Z</time>
      </trkpt>
      <trkpt lat="36.96111" lon="-3.00751">
        <ele>556.99593</ele>
        <time>2022-02-25T06:16:56.834Z</time>
      </trkpt>
      <trkpt lat="36.96157" lon="-3.00757">
        <ele>557.708766</ele>
        <time>2022-02-25T06:17:09.272Z</time>
      </trkpt>
      <trkpt lat="36.96182" lon="-3.00766">
        <ele>558.133185</ele>
        <time>2022-02-25T06:17:14.427Z</time>
      </trkpt>
      <trkpt lat="36.96231" lon="-3.00804">
        <ele>555.700277</ele>
        <time>2022-02-25T06:17:24.198Z</time>
      </trkpt>
      <trkpt lat="36.96264" lon="-3.00849">
        <ele>552.47404</ele>
        <time>2022-02-25T06:17:31.891Z</time>
      </trkpt>
      <trkpt lat="36.96278" lon="-3.0088">
        <ele>550.57442</ele>
        <time>2022-02-25T06:17:36.120Z</time>
      </trkpt>
      <trkpt lat="36.96301" lon="-3.00919">
        <ele>548.045926</ele>
        <time>2022-02-25T06:17:41.641Z</time>
      </trkpt>
      <trkpt lat="36.96319" lon="-3.00931">
        <ele>546.722612</ele>
        <time>2022-02-25T06:17:44.488Z</time>
      </trkpt>
      <trkpt lat="36.96328" lon="-3.00956">
        <ele>544.517797</ele>
        <time>2022-02-25T06:17:47.617Z</time>
      </trkpt>
      <trkpt lat="36.96319" lon="-3.00989">
        <ele>541.666431</ele>
        <time>2022-02-25T06:17:51.395Z</time>
      </trkpt>
      <trkpt lat="36.96308" lon="-3.01">
        <ele>540.153767</ele>
        <time>2022-02-25T06:17:53.421Z</time>
      </trkpt>
      <trkpt lat="36.96298" lon="-3.01039">
        <ele>536.692579</ele>
        <time>2022-02-25T06:17:58.021Z</time>
      </trkpt>
      <trkpt lat="36.96301" lon="-3.01125">
        <ele>529.602806</ele>
        <time>2022-02-25T06:18:07.487Z</time>
      </trkpt>
      <trkpt lat="36.96306" lon="-3.01306">
        <ele>522.607802</ele>
        <time>2022-02-25T06:18:29.679Z</time>
      </trkpt>
      <trkpt lat="36.96299" lon="-3.01406">
        <ele>521.851044</ele>
        <time>2022-02-25T06:18:53.252Z</time>
      </trkpt>
      <trkpt lat="36.96282" lon="-3.01466">
        <ele>524.344352</ele>
        <time>2022-02-25T06:19:16.817Z</time>
      </trkpt>
      <trkpt lat="36.96256" lon="-3.01515">
        <ele>526.618347</ele>
        <time>2022-02-25T06:19:44.097Z</time>
      </trkpt>
      <trkpt lat="36.96223" lon="-3.01556">
        <ele>528.904104</ele>
        <time>2022-02-25T06:20:10.674Z</time>
      </trkpt>
      <trkpt lat="36.962" lon="-3.01577">
        <ele>530.190599</ele>
        <time>2022-02-25T06:20:25.352Z</time>
      </trkpt>
      <trkpt lat="36.96068" lon="-3.01651">
        <ele>536.567196</ele>
        <time>2022-02-25T06:21:29.095Z</time>
      </trkpt>
      <trkpt lat="36.9602" lon="-3.01694">
        <ele>537.646873</ele>
        <time>2022-02-25T06:21:48.980Z</time>
      </trkpt>
      <trkpt lat="36.95986" lon="-3.01741">
        <ele>538.188517</ele>
        <time>2022-02-25T06:22:04.246Z</time>
      </trkpt>
      <trkpt lat="36.95918" lon="-3.01891">
        <ele>538.897042</ele>
        <time>2022-02-25T06:22:33.535Z</time>
      </trkpt>
      <trkpt lat="36.95878" lon="-3.01959">
        <ele>538.669594</ele>
        <time>2022-02-25T06:22:47.203Z</time>
      </trkpt>
      <trkpt lat="36.95827" lon="-3.02024">
        <ele>538.590452</ele>
        <time>2022-02-25T06:23:02.819Z</time>
      </trkpt>
      <trkpt lat="36.95675" lon="-3.02157">
        <ele>540.210563</ele>
        <time>2022-02-25T06:23:53.980Z</time>
      </trkpt>
      <trkpt lat="36.95613" lon="-3.02224">
        <ele>540.759701</ele>
        <time>2022-02-25T06:24:19.240Z</time>
      </trkpt>
      <trkpt lat="36.9554" lon="-3.02334">
        <ele>540.622921</ele>
        <time>2022-02-25T06:24:44.157Z</time>
      </trkpt>
      <trkpt lat="36.95499" lon="-3.02417">
        <ele>539.15933</ele>
        <time>2022-02-25T06:24:58.272Z</time>
      </trkpt>
      <trkpt lat="36.95479" lon="-3.02469">
        <ele>538.293437</ele>
        <time>2022-02-25T06:25:06.277Z</time>
      </trkpt>
      <trkpt lat="36.9545" lon="-3.02564">
        <ele>537.678627</ele>
        <time>2022-02-25T06:25:20.745Z</time>
      </trkpt>
      <trkpt lat="36.95434" lon="-3.02658">
        <ele>537.377447</ele>
        <time>2022-02-25T06:25:37.004Z</time>
      </trkpt>
      <trkpt lat="36.95429" lon="-3.02706">
        <ele>537.227153</ele>
        <time>2022-02-25T06:25:48.178Z</time>
      </trkpt>
      <trkpt lat="36.95428" lon="-3.02851">
        <ele>541.431637</ele>
        <time>2022-02-25T06:26:34.899Z</time>
      </trkpt>
      <trkpt lat="36.95439" lon="-3.02944">
        <ele>544.250653</ele>
        <time>2022-02-25T06:27:10.642Z</time>
      </trkpt>
      <trkpt lat="36.9547" lon="-3.03112">
        <ele>549.930424</ele>
        <time>2022-02-25T06:28:09.289Z</time>
      </trkpt>
      <trkpt lat="36.95473" lon="-3.03157">
        <ele>551.423596</ele>
        <time>2022-02-25T06:28:23.953Z</time>
      </trkpt>
      <trkpt lat="36.95467" lon="-3.03247">
        <ele>554.803812</ele>
        <time>2022-02-25T06:28:53.253Z</time>
      </trkpt>
      <trkpt lat="36.95448" lon="-3.03324">
        <ele>557.827727</ele>
        <time>2022-02-25T06:29:21.465Z</time>
      </trkpt>
      <trkpt lat="36.95413" lon="-3.03402">
        <ele>562.313985</ele>
        <time>2022-02-25T06:29:59.217Z</time>
      </trkpt>
      <trkpt lat="36.95325" lon="-3.03527">
        <ele>573.409515</ele>
        <time>2022-02-25T06:31:28.925Z</time>
      </trkpt>
      <trkpt lat="36.95278" lon="-3.03604">
        <ele>579.206137</ele>
        <time>2022-02-25T06:32:22.433Z</time>
      </trkpt>
      <trkpt lat="36.95225" lon="-3.03723">
        <ele>587.160083</ele>
        <time>2022-02-25T06:33:26.770Z</time>
      </trkpt>
      <trkpt lat="36.95199" lon="-3.03809">
        <ele>587.424801</ele>
        <time>2022-02-25T06:33:53.911Z</time>
      </trkpt>
      <trkpt lat="36.95179" lon="-3.03915">
        <ele>586.77748</ele>
        <time>2022-02-25T06:34:09.992Z</time>
      </trkpt>
      <trkpt lat="36.95171" lon="-3.04005">
        <ele>583.276399</ele>
        <time>2022-02-25T06:34:20.989Z</time>
      </trkpt>
      <trkpt lat="36.95166" lon="-3.04209">
        <ele>571.029182</ele>
        <time>2022-02-25T06:34:44.693Z</time>
      </trkpt>
      <trkpt lat="36.9516" lon="-3.04265">
        <ele>568.172438</ele>
        <time>2022-02-25T06:34:51.424Z</time>
      </trkpt>
      <trkpt lat="36.95141" lon="-3.04361">
        <ele>563.148537</ele>
        <time>2022-02-25T06:35:03.811Z</time>
      </trkpt>
      <trkpt lat="36.95126" lon="-3.04407">
        <ele>560.586523</ele>
        <time>2022-02-25T06:35:10.161Z</time>
      </trkpt>
      <trkpt lat="36.95091" lon="-3.04486">
        <ele>555.679918</ele>
        <time>2022-02-25T06:35:21.458Z</time>
      </trkpt>
      <trkpt lat="36.94984" lon="-3.04661">
        <ele>540.692003</ele>
        <time>2022-02-25T06:35:47.208Z</time>
      </trkpt>
      <trkpt lat="36.9493" lon="-3.04763">
        <ele>530.303717</ele>
        <time>2022-02-25T06:36:00.840Z</time>
      </trkpt>
      <trkpt lat="36.9491" lon="-3.04816">
        <ele>524.416024</ele>
        <time>2022-02-25T06:36:07.202Z</time>
      </trkpt>
      <trkpt lat="36.94881" lon="-3.04916">
        <ele>513.646519</ele>
        <time>2022-02-25T06:36:18.634Z</time>
      </trkpt>
      <trkpt lat="36.94864" lon="-3.0504">
        <ele>506.596158</ele>
        <time>2022-02-25T06:36:32.823Z</time>
      </trkpt>
      <trkpt lat="36.94849" lon="-3.05231">
        <ele>507.089426</ele>
        <time>2022-02-25T06:37:21.722Z</time>
      </trkpt>
      <trkpt lat="36.94841" lon="-3.05331">
        <ele>514.232316</ele>
        <time>2022-02-25T06:38:24.180Z</time>
      </trkpt>
      <trkpt lat="36.94832" lon="-3.05456">
        <ele>522.63652</ele>
        <time>2022-02-25T06:39:39.626Z</time>
      </trkpt>
      <trkpt lat="36.94829" lon="-3.05561">
        <ele>528.359795</ele>
        <time>2022-02-25T06:40:29.984Z</time>
      </trkpt>
      <trkpt lat="36.94833" lon="-3.05658">
        <ele>533.283868</ele>
        <time>2022-02-25T06:41:07.867Z</time>
      </trkpt>
      <trkpt lat="36.94846" lon="-3.05746">
        <ele>533.450096</ele>
        <time>2022-02-25T06:41:29.542Z</time>
      </trkpt>
      <trkpt lat="36.94868" lon="-3.05844">
        <ele>533.639474</ele>
        <time>2022-02-25T06:41:45.197Z</time>
      </trkpt>
      <trkpt lat="36.94884" lon="-3.05904">
        <ele>533.796039</ele>
        <time>2022-02-25T06:41:53.775Z</time>
      </trkpt>
      <trkpt lat="36.94886" lon="-3.05909">
        <ele>533.811547</ele>
        <time>2022-02-25T06:41:54.483Z</time>
      </trkpt>
      <trkpt lat="36.94926" lon="-3.06054">
        <ele>534.269179</ele>
        <time>2022-02-25T06:42:20.149Z</time>
      </trkpt>
      <trkpt lat="36.94961" lon="-3.0615">
        <ele>540.434188</ele>
        <time>2022-02-25T06:43:03.577Z</time>
      </trkpt>
      <trkpt lat="36.95035" lon="-3.06296">
        <ele>554.598215</ele>
        <time>2022-02-25T06:45:05.523Z</time>
      </trkpt>
      <trkpt lat="36.95057" lon="-3.06349">
        <ele>559.953548</ele>
        <time>2022-02-25T06:45:46.280Z</time>
      </trkpt>
      <trkpt lat="36.95075" lon="-3.0642">
        <ele>566.582944</ele>
        <time>2022-02-25T06:46:32.442Z</time>
      </trkpt>
      <trkpt lat="36.95079" lon="-3.06472">
        <ele>571.219477</ele>
        <time>2022-02-25T06:47:03.028Z</time>
      </trkpt>
      <trkpt lat="36.95073" lon="-3.06555">
        <ele>576.627125</ele>
        <time>2022-02-25T06:47:46.154Z</time>
      </trkpt>
      <trkpt lat="36.95052" lon="-3.06676">
        <ele>583.965817</ele>
        <time>2022-02-25T06:48:40.044Z</time>
      </trkpt>
      <trkpt lat="36.9505" lon="-3.06732">
        <ele>587.242267</ele>
        <time>2022-02-25T06:49:05.694Z</time>
      </trkpt>
      <trkpt lat="36.95054" lon="-3.06776">
        <ele>589.845612</ele>
        <time>2022-02-25T06:49:26.396Z</time>
      </trkpt>
      <trkpt lat="36.95076" lon="-3.06852">
        <ele>594.483003</ele>
        <time>2022-02-25T06:50:04.627Z</time>
      </trkpt>
      <trkpt lat="36.95098" lon="-3.06892">
        <ele>597.284179</ele>
        <time>2022-02-25T06:50:28.104Z</time>
      </trkpt>
      <trkpt lat="36.95122" lon="-3.06925">
        <ele>599.624066</ele>
        <time>2022-02-25T06:50:49.188Z</time>
      </trkpt>
      <trkpt lat="36.95157" lon="-3.06957">
        <ele>601.928313</ele>
        <time>2022-02-25T06:51:14.191Z</time>
      </trkpt>
      <trkpt lat="36.95268" lon="-3.07024">
        <ele>608.552421</ele>
        <time>2022-02-25T06:52:12.020Z</time>
      </trkpt>
      <trkpt lat="36.9532" lon="-3.07065">
        <ele>609.362711</ele>
        <time>2022-02-25T06:52:32.766Z</time>
      </trkpt>
      <trkpt lat="36.95357" lon="-3.07107">
        <ele>609.989502</ele>
        <time>2022-02-25T06:52:46.332Z</time>
      </trkpt>
      <trkpt lat="36.95395" lon="-3.07165">
        <ele>610.73673</ele>
        <time>2022-02-25T06:52:59.089Z</time>
      </trkpt>
      <trkpt lat="36.95428" lon="-3.07242">
        <ele>611.548237</ele>
        <time>2022-02-25T06:53:13.695Z</time>
      </trkpt>
      <trkpt lat="36.95447" lon="-3.07323">
        <ele>612.329141</ele>
        <time>2022-02-25T06:53:31.689Z</time>
      </trkpt>
      <trkpt lat="36.95452" lon="-3.07415">
        <ele>613.630266</ele>
        <time>2022-02-25T06:53:59.376Z</time>
      </trkpt>
      <trkpt lat="36.95443" lon="-3.07499">
        <ele>615.79581</ele>
        <time>2022-02-25T06:54:28.163Z</time>
      </trkpt>
      <trkpt lat="36.9541" lon="-3.07609">
        <ele>618.72037</ele>
        <time>2022-02-25T06:55:06.353Z</time>
      </trkpt>
      <trkpt lat="36.95215" lon="-3.0808">
        <ele>619.863491</ele>
        <time>2022-02-25T06:56:41.124Z</time>
      </trkpt>
      <trkpt lat="36.95139" lon="-3.08269">
        <ele>621.10341</ele>
        <time>2022-02-25T06:57:21.476Z</time>
      </trkpt>
      <trkpt lat="36.95102" lon="-3.08405">
        <ele>623.025262</ele>
        <time>2022-02-25T06:57:59.760Z</time>
      </trkpt>
      <trkpt lat="36.95088" lon="-3.08496">
        <ele>624.970394</ele>
        <time>2022-02-25T06:58:26.864Z</time>
      </trkpt>
      <trkpt lat="36.95082" lon="-3.08584">
        <ele>626.924422</ele>
        <time>2022-02-25T06:58:53.351Z</time>
      </trkpt>
      <trkpt lat="36.95095" lon="-3.08891">
        <ele>633.557454</ele>
        <time>2022-02-25T07:00:18.219Z</time>
      </trkpt>
      <trkpt lat="36.95091" lon="-3.08945">
        <ele>635.248164</ele>
        <time>2022-02-25T07:00:35.369Z</time>
      </trkpt>
      <trkpt lat="36.95077" lon="-3.09019">
        <ele>637.615664</ele>
        <time>2022-02-25T07:01:01.406Z</time>
      </trkpt>
      <trkpt lat="36.94997" lon="-3.0934">
        <ele>649.352567</ele>
        <time>2022-02-25T07:03:05.596Z</time>
      </trkpt>
      <trkpt lat="36.94962" lon="-3.09529">
        <ele>654.602208</ele>
        <time>2022-02-25T07:04:03.040Z</time>
      </trkpt>
      <trkpt lat="36.9494" lon="-3.09708">
        <ele>659.075348</ele>
        <time>2022-02-25T07:04:56.396Z</time>
      </trkpt>
      <trkpt lat="36.94929" lon="-3.09857">
        <ele>663.495447</ele>
        <time>2022-02-25T07:05:45.371Z</time>
      </trkpt>
      <trkpt lat="36.94927" lon="-3.10079">
        <ele>670.768661</ele>
        <time>2022-02-25T07:07:01.282Z</time>
      </trkpt>
      <trkpt lat="36.94942" lon="-3.1031">
        <ele>678.844227</ele>
        <time>2022-02-25T07:08:23.831Z</time>
      </trkpt>
      <trkpt lat="36.9496" lon="-3.10457">
        <ele>684.031621</ele>
        <time>2022-02-25T07:09:16.590Z</time>
      </trkpt>
      <trkpt lat="36.94988" lon="-3.10622">
        <ele>689.741073</ele>
        <time>2022-02-25T07:10:15.067Z</time>
      </trkpt>
      <trkpt lat="36.95058" lon="-3.10955">
        <ele>701.037239</ele>
        <time>2022-02-25T07:12:11.520Z</time>
      </trkpt>
      <trkpt lat="36.95067" lon="-3.11049">
        <ele>704.25682</ele>
        <time>2022-02-25T07:12:45.022Z</time>
      </trkpt>
      <trkpt lat="36.95066" lon="-3.1115">
        <ele>707.557441</ele>
        <time>2022-02-25T07:13:21.688Z</time>
      </trkpt>
      <trkpt lat="36.95057" lon="-3.11258">
        <ele>711.064252</ele>
        <time>2022-02-25T07:13:59.101Z</time>
      </trkpt>
      <trkpt lat="36.95031" lon="-3.11373">
        <ele>713.478376</ele>
        <time>2022-02-25T07:14:34.471Z</time>
      </trkpt>
      <trkpt lat="36.9498" lon="-3.11534">
        <ele>715.418652</ele>
        <time>2022-02-25T07:15:13.889Z</time>
      </trkpt>
      <trkpt lat="36.94962" lon="-3.11606">
        <ele>714.969902</ele>
        <time>2022-02-25T07:15:26.466Z</time>
      </trkpt>
      <trkpt lat="36.94952" lon="-3.11687">
        <ele>714.488044</ele>
        <time>2022-02-25T07:15:38.853Z</time>
      </trkpt>
      <trkpt lat="36.94954" lon="-3.11878">
        <ele>713.084376</ele>
        <time>2022-02-25T07:16:07.810Z</time>
      </trkpt>
      <trkpt lat="36.94942" lon="-3.12055">
        <ele>714.740177</ele>
        <time>2022-02-25T07:16:40.391Z</time>
      </trkpt>
      <trkpt lat="36.94904" lon="-3.12206">
        <ele>719.440414</ele>
        <time>2022-02-25T07:17:36.971Z</time>
      </trkpt>
      <trkpt lat="36.94827" lon="-3.12468">
        <ele>733.485646</ele>
        <time>2022-02-25T07:19:54.887Z</time>
      </trkpt>
      <trkpt lat="36.94824" lon="-3.12509">
        <ele>735.056707</ele>
        <time>2022-02-25T07:20:12.055Z</time>
      </trkpt>
      <trkpt lat="36.94828" lon="-3.12548">
        <ele>736.507126</ele>
        <time>2022-02-25T07:20:24.724Z</time>
      </trkpt>
      <trkpt lat="36.94847" lon="-3.12633">
        <ele>736.976378</ele>
        <time>2022-02-25T07:20:40.824Z</time>
      </trkpt>
      <trkpt lat="36.9485" lon="-3.12666">
        <ele>735.723024</ele>
        <time>2022-02-25T07:20:45.310Z</time>
      </trkpt>
      <trkpt lat="36.94844" lon="-3.12701">
        <ele>734.3492</ele>
        <time>2022-02-25T07:20:49.915Z</time>
      </trkpt>
      <trkpt lat="36.94751" lon="-3.12883">
        <ele>724.80433</ele>
        <time>2022-02-25T07:21:15.652Z</time>
      </trkpt>
      <trkpt lat="36.94745" lon="-3.1293">
        <ele>722.366376</ele>
        <time>2022-02-25T07:21:21.223Z</time>
      </trkpt>
      <trkpt lat="36.94747" lon="-3.12981">
        <ele>719.731694</ele>
        <time>2022-02-25T07:21:27.518Z</time>
      </trkpt>
      <trkpt lat="36.9476" lon="-3.13026">
        <ele>718.196294</ele>
        <time>2022-02-25T07:21:33.738Z</time>
      </trkpt>
      <trkpt lat="36.94804" lon="-3.13087">
        <ele>717.869905</ele>
        <time>2022-02-25T07:21:45.633Z</time>
      </trkpt>
      <trkpt lat="36.94989" lon="-3.13307">
        <ele>720.960236</ele>
        <time>2022-02-25T07:23:04.153Z</time>
      </trkpt>
      <trkpt lat="36.95068" lon="-3.13378">
        <ele>725.378769</ele>
        <time>2022-02-25T07:23:48.692Z</time>
      </trkpt>
      <trkpt lat="36.95154" lon="-3.13425">
        <ele>730.321728</ele>
        <time>2022-02-25T07:24:39.078Z</time>
      </trkpt>
      <trkpt lat="36.95249" lon="-3.13459">
        <ele>734.342139</ele>
        <time>2022-02-25T07:25:27.101Z</time>
      </trkpt>
      <trkpt lat="36.95296" lon="-3.13482">
        <ele>736.290904</ele>
        <time>2022-02-25T07:25:44.894Z</time>
      </trkpt>
      <trkpt lat="36.95326" lon="-3.13505">
        <ele>737.656588</ele>
        <time>2022-02-25T07:25:55.300Z</time>
      </trkpt>
      <trkpt lat="36.95363" lon="-3.13547">
        <ele>740.427826</ele>
        <time>2022-02-25T07:26:12.687Z</time>
      </trkpt>
      <trkpt lat="36.95391" lon="-3.13597">
        <ele>743.256919</ele>
        <time>2022-02-25T07:26:33.824Z</time>
      </trkpt>
      <trkpt lat="36.95402" lon="-3.13634">
        <ele>745.123174</ele>
        <time>2022-02-25T07:26:49.782Z</time>
      </trkpt>
      <trkpt lat="36.95413" lon="-3.1368">
        <ele>747.340348</ele>
        <time>2022-02-25T07:27:12.744Z</time>
      </trkpt>
      <trkpt lat="36.95417" lon="-3.13752">
        <ele>753.215767</ele>
        <time>2022-02-25T07:27:58.123Z</time>
      </trkpt>
      <trkpt lat="36.95408" lon="-3.13813">
        <ele>759.283703</ele>
        <time>2022-02-25T07:28:44.525Z</time>
      </trkpt>
      <trkpt lat="36.95395" lon="-3.13855">
        <ele>763.777272</ele>
        <time>2022-02-25T07:29:21.284Z</time>
      </trkpt>
      <trkpt lat="36.95349" lon="-3.13956">
        <ele>772.853865</ele>
        <time>2022-02-25T07:30:34.567Z</time>
      </trkpt>
      <trkpt lat="36.95332" lon="-3.14028">
        <ele>776.529868</ele>
        <time>2022-02-25T07:31:08.783Z</time>
      </trkpt>
      <trkpt lat="36.95333" lon="-3.14078">
        <ele>778.934915</ele>
        <time>2022-02-25T07:31:26.123Z</time>
      </trkpt>
      <trkpt lat="36.95338" lon="-3.14105">
        <ele>780.275774</ele>
        <time>2022-02-25T07:31:34.389Z</time>
      </trkpt>
      <trkpt lat="36.95386" lon="-3.14234">
        <ele>782.937428</ele>
        <time>2022-02-25T07:32:02.427Z</time>
      </trkpt>
      <trkpt lat="36.95391" lon="-3.1426">
        <ele>783.262377</ele>
        <time>2022-02-25T07:32:08.715Z</time>
      </trkpt>
      <trkpt lat="36.95395" lon="-3.14324">
        <ele>784.051623</ele>
        <time>2022-02-25T07:32:25.228Z</time>
      </trkpt>
      <trkpt lat="36.95386" lon="-3.14377">
        <ele>785.452962</ele>
        <time>2022-02-25T07:32:40.679Z</time>
      </trkpt>
      <trkpt lat="36.95367" lon="-3.14424">
        <ele>787.142842</ele>
        <time>2022-02-25T07:32:56.615Z</time>
      </trkpt>
      <trkpt lat="36.95319" lon="-3.14515">
        <ele>790.65242</ele>
        <time>2022-02-25T07:33:32.770Z</time>
      </trkpt>
      <trkpt lat="36.95307" lon="-3.14555">
        <ele>792.674496</ele>
        <time>2022-02-25T07:33:51.435Z</time>
      </trkpt>
      <trkpt lat="36.95303" lon="-3.14601">
        <ele>795.854731</ele>
        <time>2022-02-25T07:34:14.063Z</time>
      </trkpt>
      <trkpt lat="36.9531" lon="-3.14651">
        <ele>799.369179</ele>
        <time>2022-02-25T07:34:42.098Z</time>
      </trkpt>
      <trkpt lat="36.95356" lon="-3.14855">
        <ele>814.488077</ele>
        <time>2022-02-25T07:36:42.798Z</time>
      </trkpt>
      <trkpt lat="36.95364" lon="-3.14909">
        <ele>818.525678</ele>
        <time>2022-02-25T07:37:12.369Z</time>
      </trkpt>
      <trkpt lat="36.95362" lon="-3.14961">
        <ele>822.328553</ele>
        <time>2022-02-25T07:37:40.366Z</time>
      </trkpt>
      <trkpt lat="36.95344" lon="-3.15043">
        <ele>828.277217</ele>
        <time>2022-02-25T07:38:21.862Z</time>
      </trkpt>
      <trkpt lat="36.95338" lon="-3.15095">
        <ele>831.961899</ele>
        <time>2022-02-25T07:38:47.843Z</time>
      </trkpt>
      <trkpt lat="36.95344" lon="-3.15134">
        <ele>834.783758</ele>
        <time>2022-02-25T07:39:10.684Z</time>
      </trkpt>
      <trkpt lat="36.95384" lon="-3.15221">
        <ele>841.904727</ele>
        <time>2022-02-25T07:40:06.494Z</time>
      </trkpt>
      <trkpt lat="36.95394" lon="-3.15263">
        <ele>845.228945</ele>
        <time>2022-02-25T07:40:31.006Z</time>
      </trkpt>
      <trkpt lat="36.9539" lon="-3.15303">
        <ele>848.172278</ele>
        <time>2022-02-25T07:40:53.043Z</time>
      </trkpt>
      <trkpt lat="36.95367" lon="-3.15368">
        <ele>853.522984</ele>
        <time>2022-02-25T07:41:33.203Z</time>
      </trkpt>
      <trkpt lat="36.9536" lon="-3.15409">
        <ele>856.591969</ele>
        <time>2022-02-25T07:41:56.699Z</time>
      </trkpt>
      <trkpt lat="36.95368" lon="-3.15448">
        <ele>859.338551</ele>
        <time>2022-02-25T07:42:17.236Z</time>
      </trkpt>
      <trkpt lat="36.95395" lon="-3.15535">
        <ele>865.677789</ele>
        <time>2022-02-25T07:42:58.677Z</time>
      </trkpt>
      <trkpt lat="36.95395" lon="-3.15555">
        <ele>867.075526</ele>
        <time>2022-02-25T07:43:09.496Z</time>
      </trkpt>
      <trkpt lat="36.95388" lon="-3.15589">
        <ele>869.484385</ele>
        <time>2022-02-25T07:43:27.909Z</time>
      </trkpt>
      <trkpt lat="36.95346" lon="-3.15663">
        <ele>877.215836</ele>
        <time>2022-02-25T07:44:24.649Z</time>
      </trkpt>
      <trkpt lat="36.95342" lon="-3.15699">
        <ele>880.525548</ele>
        <time>2022-02-25T07:44:48.108Z</time>
      </trkpt>
      <trkpt lat="36.95346" lon="-3.15718">
        <ele>882.434564</ele>
        <time>2022-02-25T07:45:02.396Z</time>
      </trkpt>
      <trkpt lat="36.95389" lon="-3.15855">
        <ele>895.199025</ele>
        <time>2022-02-25T07:46:38.031Z</time>
      </trkpt>
      <trkpt lat="36.95398" lon="-3.15871">
        <ele>896.596479</ele>
        <time>2022-02-25T07:46:50.854Z</time>
      </trkpt>
      <trkpt lat="36.95417" lon="-3.1589">
        <ele>898.83199</ele>
        <time>2022-02-25T07:47:12.605Z</time>
      </trkpt>
      <trkpt lat="36.95474" lon="-3.15893">
        <ele>903.907302</ele>
        <time>2022-02-25T07:47:51.938Z</time>
      </trkpt>
      <trkpt lat="36.95499" lon="-3.15901">
        <ele>906.240125</ele>
        <time>2022-02-25T07:48:06.558Z</time>
      </trkpt>
      <trkpt lat="36.95518" lon="-3.15923">
        <ele>908.484456</ele>
        <time>2022-02-25T07:48:19.528Z</time>
      </trkpt>
      <trkpt lat="36.95524" lon="-3.15958">
        <ele>909.550494</ele>
        <time>2022-02-25T07:48:27.808Z</time>
      </trkpt>
      <trkpt lat="36.95513" lon="-3.15988">
        <ele>910.565823</ele>
        <time>2022-02-25T07:48:35.207Z</time>
      </trkpt>
      <trkpt lat="36.95503" lon="-3.15999">
        <ele>911.058992</ele>
        <time>2022-02-25T07:48:38.088Z</time>
      </trkpt>
      <trkpt lat="36.95424" lon="-3.16035">
        <ele>914.251529</ele>
        <time>2022-02-25T07:49:09.953Z</time>
      </trkpt>
      <trkpt lat="36.95403" lon="-3.1606">
        <ele>915.444809</ele>
        <time>2022-02-25T07:49:22.972Z</time>
      </trkpt>
      <trkpt lat="36.95394" lon="-3.16096">
        <ele>918.835781</ele>
        <time>2022-02-25T07:49:41.313Z</time>
      </trkpt>
      <trkpt lat="36.95402" lon="-3.16178">
        <ele>925.980345</ele>
        <time>2022-02-25T07:50:28.750Z</time>
      </trkpt>
      <trkpt lat="36.95429" lon="-3.16305">
        <ele>938.015951</ele>
        <time>2022-02-25T07:52:06.763Z</time>
      </trkpt>
      <trkpt lat="36.95452" lon="-3.16355">
        <ele>944.087613</ele>
        <time>2022-02-25T07:52:52.145Z</time>
      </trkpt>
      <trkpt lat="36.95483" lon="-3.16392">
        <ele>949.84437</ele>
        <time>2022-02-25T07:53:32.735Z</time>
      </trkpt>
      <trkpt lat="36.95552" lon="-3.16445">
        <ele>959.976353</ele>
        <time>2022-02-25T07:54:36.210Z</time>
      </trkpt>
      <trkpt lat="36.95581" lon="-3.16484">
        <ele>964.010868</ele>
        <time>2022-02-25T07:55:09.112Z</time>
      </trkpt>
      <trkpt lat="36.95588" lon="-3.16507">
        <ele>965.844292</ele>
        <time>2022-02-25T07:55:23.129Z</time>
      </trkpt>
      <trkpt lat="36.95587" lon="-3.16532">
        <ele>967.730706</ele>
        <time>2022-02-25T07:55:37.310Z</time>
      </trkpt>
      <trkpt lat="36.95578" lon="-3.16558">
        <ele>969.8485</ele>
        <time>2022-02-25T07:55:51.529Z</time>
      </trkpt>
      <trkpt lat="36.95561" lon="-3.16577">
        <ele>971.960838</ele>
        <time>2022-02-25T07:56:07.089Z</time>
      </trkpt>
      <trkpt lat="36.95549" lon="-3.16583">
        <ele>973.142396</ele>
        <time>2022-02-25T07:56:13.786Z</time>
      </trkpt>
      <trkpt lat="36.95529" lon="-3.16588">
        <ele>975.083336</ele>
        <time>2022-02-25T07:56:27.219Z</time>
      </trkpt>
      <trkpt lat="36.95472" lon="-3.16578">
        <ele>979.560518</ele>
        <time>2022-02-25T07:57:00.286Z</time>
      </trkpt>
      <trkpt lat="36.95359" lon="-3.16561">
        <ele>988.179943</ele>
        <time>2022-02-25T07:58:15.463Z</time>
      </trkpt>
      <trkpt lat="36.95314" lon="-3.16573">
        <ele>989.87738</ele>
        <time>2022-02-25T07:58:37.092Z</time>
      </trkpt>
      <trkpt lat="36.95287" lon="-3.16588">
        <ele>990.439196</ele>
        <time>2022-02-25T07:58:47.060Z</time>
      </trkpt>
      <trkpt lat="36.95252" lon="-3.16626">
        <ele>991.342024</ele>
        <time>2022-02-25T07:59:03.767Z</time>
      </trkpt>
      <trkpt lat="36.9523" lon="-3.16679">
        <ele>992.270339</ele>
        <time>2022-02-25T07:59:17.328Z</time>
      </trkpt>
      <trkpt lat="36.9522" lon="-3.16726">
        <ele>991.81379</ele>
        <time>2022-02-25T07:59:24.829Z</time>
      </trkpt>
      <trkpt lat="36.95211" lon="-3.16837">
        <ele>986.319263</ele>
        <time>2022-02-25T07:59:38.219Z</time>
      </trkpt>
      <trkpt lat="36.95201" lon="-3.16872">
        <ele>984.455229</ele>
        <time>2022-02-25T07:59:42.564Z</time>
      </trkpt>
      <trkpt lat="36.95192" lon="-3.16889">
        <ele>983.448428</ele>
        <time>2022-02-25T07:59:44.900Z</time>
      </trkpt>
      <trkpt lat="36.95146" lon="-3.16956">
        <ele>978.18604</ele>
        <time>2022-02-25T07:59:55.557Z</time>
      </trkpt>
      <trkpt lat="36.95119" lon="-3.16985">
        <ele>975.251805</ele>
        <time>2022-02-25T08:00:00.573Z</time>
      </trkpt>
      <trkpt lat="36.95097" lon="-3.16998">
        <ele>973.231809</ele>
        <time>2022-02-25T08:00:04.033Z</time>
      </trkpt>
      <trkpt lat="36.95049" lon="-3.17005">
        <ele>969.185157</ele>
        <time>2022-02-25T08:00:10.950Z</time>
      </trkpt>
      <trkpt lat="36.95026" lon="-3.17015">
        <ele>967.109234</ele>
        <time>2022-02-25T08:00:14.614Z</time>
      </trkpt>
      <trkpt lat="36.95008" lon="-3.17038">
        <ele>965.422304</ele>
        <time>2022-02-25T08:00:18.431Z</time>
      </trkpt>
      <trkpt lat="36.94985" lon="-3.17052">
        <ele>963.909824</ele>
        <time>2022-02-25T08:00:22.292Z</time>
      </trkpt>
      <trkpt lat="36.94944" lon="-3.17054">
        <ele>961.450118</ele>
        <time>2022-02-25T08:00:28.827Z</time>
      </trkpt>
      <trkpt lat="36.94905" lon="-3.17081">
        <ele>958.809142</ele>
        <time>2022-02-25T08:00:35.793Z</time>
      </trkpt>
      <trkpt lat="36.9489" lon="-3.17088">
        <ele>957.895015</ele>
        <time>2022-02-25T08:00:38.174Z</time>
      </trkpt>
      <trkpt lat="36.94862" lon="-3.17089">
        <ele>956.199647</ele>
        <time>2022-02-25T08:00:42.655Z</time>
      </trkpt>
      <trkpt lat="36.94837" lon="-3.17103">
        <ele>954.958267</ele>
        <time>2022-02-25T08:00:46.984Z</time>
      </trkpt>
      <trkpt lat="36.94826" lon="-3.17122">
        <ele>954.15688</ele>
        <time>2022-02-25T08:00:50.059Z</time>
      </trkpt>
      <trkpt lat="36.94822" lon="-3.1714">
        <ele>953.534788</ele>
        <time>2022-02-25T08:00:52.474Z</time>
      </trkpt>
      <trkpt lat="36.94822" lon="-3.17189">
        <ele>951.868687</ele>
        <time>2022-02-25T08:00:58.896Z</time>
      </trkpt>
      <trkpt lat="36.94816" lon="-3.17206">
        <ele>951.230287</ele>
        <time>2022-02-25T08:01:01.366Z</time>
      </trkpt>
      <trkpt lat="36.94806" lon="-3.17219">
        <ele>950.620632</ele>
        <time>2022-02-25T08:01:03.828Z</time>
      </trkpt>
      <trkpt lat="36.94763" lon="-3.17251">
        <ele>948.50435</ele>
        <time>2022-02-25T08:01:12.156Z</time>
      </trkpt>
      <trkpt lat="36.9474" lon="-3.17267">
        <ele>947.18202</ele>
        <time>2022-02-25T08:01:16.476Z</time>
      </trkpt>
      <trkpt lat="36.94703" lon="-3.17294">
        <ele>944.907996</ele>
        <time>2022-02-25T08:01:23.315Z</time>
      </trkpt>
      <trkpt lat="36.94693" lon="-3.17311">
        <ele>944.035639</ele>
        <time>2022-02-25T08:01:25.894Z</time>
      </trkpt>
      <trkpt lat="36.94688" lon="-3.17329">
        <ele>943.266169</ele>
        <time>2022-02-25T08:01:28.135Z</time>
      </trkpt>
      <trkpt lat="36.94691" lon="-3.17392">
        <ele>940.605763</ele>
        <time>2022-02-25T08:01:35.967Z</time>
      </trkpt>
      <trkpt lat="36.94687" lon="-3.17427">
        <ele>939.128749</ele>
        <time>2022-02-25T08:01:40.367Z</time>
      </trkpt>
      <trkpt lat="36.94675" lon="-3.17472">
        <ele>937.256401</ele>
        <time>2022-02-25T08:01:46.360Z</time>
      </trkpt>
      <trkpt lat="36.94677" lon="-3.1749">
        <ele>936.54127</ele>
        <time>2022-02-25T08:01:48.779Z</time>
      </trkpt>
      <trkpt lat="36.94665" lon="-3.17541">
        <ele>934.464871</ele>
        <time>2022-02-25T08:01:55.735Z</time>
      </trkpt>
      <trkpt lat="36.94657" lon="-3.17578">
        <ele>933.00047</ele>
        <time>2022-02-25T08:02:00.678Z</time>
      </trkpt>
      <trkpt lat="36.94653" lon="-3.17612">
        <ele>931.642952</ele>
        <time>2022-02-25T08:02:05.352Z</time>
      </trkpt>
      <trkpt lat="36.94652" lon="-3.17633">
        <ele>930.827647</ele>
        <time>2022-02-25T08:02:08.272Z</time>
      </trkpt>
      <trkpt lat="36.94648" lon="-3.17667">
        <ele>930.03713</ele>
        <time>2022-02-25T08:02:13.178Z</time>
      </trkpt>
      <trkpt lat="36.94643" lon="-3.1767">
        <ele>930.02019</ele>
        <time>2022-02-25T08:02:14.170Z</time>
      </trkpt>
      <trkpt lat="36.94644" lon="-3.17674">
        <ele>930.009289</ele>
        <time>2022-02-25T08:02:14.853Z</time>
      </trkpt>
      <trkpt lat="36.94643" lon="-3.17678">
        <ele>929.998388</ele>
        <time>2022-02-25T08:02:15.522Z</time>
      </trkpt>
      <trkpt lat="36.94636" lon="-3.17681">
        <ele>929.977402</ele>
        <time>2022-02-25T08:02:16.747Z</time>
      </trkpt>
      <trkpt lat="36.94634" lon="-3.17678">
        <ele>929.966888</ele>
        <time>2022-02-25T08:02:17.380Z</time>
      </trkpt>
      <trkpt lat="36.94633" lon="-3.17672">
        <ele>929.953041</ele>
        <time>2022-02-25T08:02:18.263Z</time>
      </trkpt>
      <trkpt lat="36.94604" lon="-3.17668">
        <ele>929.864842</ele>
        <time>2022-02-25T08:02:24.014Z</time>
      </trkpt>
      <trkpt lat="36.94555" lon="-3.17659">
        <ele>929.712197</ele>
        <time>2022-02-25T08:02:35.268Z</time>
      </trkpt>
      <trkpt lat="36.94521" lon="-3.17659">
        <ele>929.606652</ele>
        <time>2022-02-25T08:02:45.068Z</time>
      </trkpt>
      <trkpt lat="36.94461" lon="-3.17696">
        <ele>929.789921</ele>
        <time>2022-02-25T08:03:06.835Z</time>
      </trkpt>
      <trkpt lat="36.94454" lon="-3.177">
        <ele>929.84664</ele>
        <time>2022-02-25T08:03:09.459Z</time>
      </trkpt>
      <trkpt lat="36.94442" lon="-3.17702">
        <ele>929.933928</ele>
        <time>2022-02-25T08:03:13.501Z</time>
      </trkpt>
      <trkpt lat="36.94421" lon="-3.177">
        <ele>930.082058</ele>
        <time>2022-02-25T08:03:19.884Z</time>
      </trkpt>
      <trkpt lat="36.94363" lon="-3.17675">
        <ele>930.518437</ele>
        <time>2022-02-25T08:03:36.517Z</time>
      </trkpt>
      <trkpt lat="36.94335" lon="-3.17677">
        <ele>930.72096</ele>
        <time>2022-02-25T08:03:43.019Z</time>
      </trkpt>
      <trkpt lat="36.94202" lon="-3.17772">
        <ele>928.028987</ele>
        <time>2022-02-25T08:04:09.707Z</time>
      </trkpt>
      <trkpt lat="36.9417" lon="-3.17784">
        <ele>927.37195</ele>
        <time>2022-02-25T08:04:16.228Z</time>
      </trkpt>
      <trkpt lat="36.94139" lon="-3.1778">
        <ele>927.402969</ele>
        <time>2022-02-25T08:04:23.229Z</time>
      </trkpt>
      <trkpt lat="36.94118" lon="-3.17771">
        <ele>927.498588</ele>
        <time>2022-02-25T08:04:27.866Z</time>
      </trkpt>
      <trkpt lat="36.94073" lon="-3.1776">
        <ele>927.694163</ele>
        <time>2022-02-25T08:04:37.889Z</time>
      </trkpt>
      <trkpt lat="36.9404" lon="-3.1777">
        <ele>927.838268</ele>
        <time>2022-02-25T08:04:44.774Z</time>
      </trkpt>
      <trkpt lat="36.94022" lon="-3.17784">
        <ele>927.931191</ele>
        <time>2022-02-25T08:04:51.435Z</time>
      </trkpt>
      <trkpt lat="36.93987" lon="-3.17814">
        <ele>928.264565</ele>
        <time>2022-02-25T08:05:05.073Z</time>
      </trkpt>
      <trkpt lat="36.93972" lon="-3.17826">
        <ele>928.549763</ele>
        <time>2022-02-25T08:05:13.194Z</time>
      </trkpt>
      <trkpt lat="36.93946" lon="-3.17844">
        <ele>929.033329</ele>
        <time>2022-02-25T08:05:26.822Z</time>
      </trkpt>
      <trkpt lat="36.93919" lon="-3.17847">
        <ele>929.476748</ele>
        <time>2022-02-25T08:05:37.557Z</time>
      </trkpt>
      <trkpt lat="36.93903" lon="-3.17842">
        <ele>929.741817</ele>
        <time>2022-02-25T08:05:42.833Z</time>
      </trkpt>
      <trkpt lat="36.93862" lon="-3.17816">
        <ele>930.489704</ele>
        <time>2022-02-25T08:05:54.080Z</time>
      </trkpt>
      <trkpt lat="36.93843" lon="-3.17811">
        <ele>930.814368</ele>
        <time>2022-02-25T08:05:58.320Z</time>
      </trkpt>
      <trkpt lat="36.93827" lon="-3.17812">
        <ele>930.89833</ele>
        <time>2022-02-25T08:06:01.290Z</time>
      </trkpt>
      <trkpt lat="36.938" lon="-3.17826">
        <ele>930.380633</ele>
        <time>2022-02-25T08:06:06.796Z</time>
      </trkpt>
      <trkpt lat="36.93738" lon="-3.17919">
        <ele>928.62894</ele>
        <time>2022-02-25T08:06:26.244Z</time>
      </trkpt>
      <trkpt lat="36.93716" lon="-3.17943">
        <ele>928.100956</ele>
        <time>2022-02-25T08:06:31.302Z</time>
      </trkpt>
      <trkpt lat="36.93689" lon="-3.1796">
        <ele>927.062233</ele>
        <time>2022-02-25T08:06:36.387Z</time>
      </trkpt>
      <trkpt lat="36.9367" lon="-3.17965">
        <ele>925.764484</ele>
        <time>2022-02-25T08:06:39.553Z</time>
      </trkpt>
      <trkpt lat="36.93574" lon="-3.17973">
        <ele>919.364876</ele>
        <time>2022-02-25T08:06:54.200Z</time>
      </trkpt>
      <trkpt lat="36.93554" lon="-3.17974">
        <ele>918.023725</ele>
        <time>2022-02-25T08:06:57.210Z</time>
      </trkpt>
      <trkpt lat="36.93409" lon="-3.18008">
        <ele>904.849367</ele>
        <time>2022-02-25T08:07:18.079Z</time>
      </trkpt>
      <trkpt lat="36.93381" lon="-3.18002">
        <ele>902.074521</ele>
        <time>2022-02-25T08:07:22.149Z</time>
      </trkpt>
      <trkpt lat="36.93368" lon="-3.17992">
        <ele>900.64556</ele>
        <time>2022-02-25T08:07:24.200Z</time>
      </trkpt>
      <trkpt lat="36.93349" lon="-3.17956">
        <ele>898.29789</ele>
        <time>2022-02-25T08:07:29.143Z</time>
      </trkpt>
      <trkpt lat="36.93322" lon="-3.1784">
        <ele>896.711066</ele>
        <time>2022-02-25T08:07:45.004Z</time>
      </trkpt>
      <trkpt lat="36.93312" lon="-3.17814">
        <ele>896.333445</ele>
        <time>2022-02-25T08:07:50.247Z</time>
      </trkpt>
      <trkpt lat="36.93288" lon="-3.17777">
        <ele>895.711154</ele>
        <time>2022-02-25T08:08:07.225Z</time>
      </trkpt>
      <trkpt lat="36.93268" lon="-3.1776">
        <ele>896.825907</ele>
        <time>2022-02-25T08:08:20.783Z</time>
      </trkpt>
      <trkpt lat="36.9324" lon="-3.17746">
        <ele>899.439925</ele>
        <time>2022-02-25T08:08:38.725Z</time>
      </trkpt>
      <trkpt lat="36.93026" lon="-3.17667">
        <ele>918.262783</ele>
        <time>2022-02-25T08:11:20.295Z</time>
      </trkpt>
      <trkpt lat="36.93" lon="-3.17662">
        <ele>920.33826</ele>
        <time>2022-02-25T08:11:35.953Z</time>
      </trkpt>
      <trkpt lat="36.92954" lon="-3.17666">
        <ele>923.887467</ele>
        <time>2022-02-25T08:12:02.228Z</time>
      </trkpt>
      <trkpt lat="36.92731" lon="-3.17742">
        <ele>930.676851</ele>
        <time>2022-02-25T08:13:29.184Z</time>
      </trkpt>
      <trkpt lat="36.92723" lon="-3.17745">
        <ele>930.577239</ele>
        <time>2022-02-25T08:13:30.927Z</time>
      </trkpt>
      <trkpt lat="36.92615" lon="-3.17778">
        <ele>929.219525</ele>
        <time>2022-02-25T08:13:51.111Z</time>
      </trkpt>
      <trkpt lat="36.92577" lon="-3.17768">
        <ele>928.65099</ele>
        <time>2022-02-25T08:13:57.660Z</time>
      </trkpt>
      <trkpt lat="36.92556" lon="-3.17793">
        <ele>928.004367</ele>
        <time>2022-02-25T08:14:02.514Z</time>
      </trkpt>
      <trkpt lat="36.92539" lon="-3.17817">
        <ele>927.437662</ele>
        <time>2022-02-25T08:14:06.881Z</time>
      </trkpt>
      <trkpt lat="36.92529" lon="-3.17843">
        <ele>926.924937</ele>
        <time>2022-02-25T08:14:10.913Z</time>
      </trkpt>
      <trkpt lat="36.92489" lon="-3.18003">
        <ele>924.423054</ele>
        <time>2022-02-25T08:14:36.642Z</time>
      </trkpt>
      <trkpt lat="36.92361" lon="-3.18295">
        <ele>920.18669</ele>
        <time>2022-02-25T08:15:29.736Z</time>
      </trkpt>
      <trkpt lat="36.92355" lon="-3.18308">
        <ele>919.941189</ele>
        <time>2022-02-25T08:15:31.607Z</time>
      </trkpt>
      <trkpt lat="36.92314" lon="-3.1834">
        <ele>918.728269</ele>
        <time>2022-02-25T08:15:39.420Z</time>
      </trkpt>
      <trkpt lat="36.92197" lon="-3.18344">
        <ele>913.522441</ele>
        <time>2022-02-25T08:15:57.986Z</time>
      </trkpt>
      <trkpt lat="36.92153" lon="-3.18355">
        <ele>911.536295</ele>
        <time>2022-02-25T08:16:05.266Z</time>
      </trkpt>
      <trkpt lat="36.92106" lon="-3.18372">
        <ele>910.208408</ele>
        <time>2022-02-25T08:16:13.627Z</time>
      </trkpt>
      <trkpt lat="36.92082" lon="-3.1839">
        <ele>909.569102</ele>
        <time>2022-02-25T08:16:18.573Z</time>
      </trkpt>
      <trkpt lat="36.92064" lon="-3.18412">
        <ele>909.000261</ele>
        <time>2022-02-25T08:16:23.088Z</time>
      </trkpt>
      <trkpt lat="36.92051" lon="-3.1844">
        <ele>908.407664</ele>
        <time>2022-02-25T08:16:27.990Z</time>
      </trkpt>
      <trkpt lat="36.92041" lon="-3.18481">
        <ele>907.637649</ele>
        <time>2022-02-25T08:16:34.545Z</time>
      </trkpt>
      <trkpt lat="36.92022" lon="-3.18653">
        <ele>903.99589</ele>
        <time>2022-02-25T08:17:01.673Z</time>
      </trkpt>
      <trkpt lat="36.92007" lon="-3.18729">
        <ele>902.298103</ele>
        <time>2022-02-25T08:17:11.952Z</time>
      </trkpt>
      <trkpt lat="36.91984" lon="-3.18795">
        <ele>898.590414</ele>
        <time>2022-02-25T08:17:20.631Z</time>
      </trkpt>
      <trkpt lat="36.91911" lon="-3.18948">
        <ele>888.949545</ele>
        <time>2022-02-25T08:17:41.839Z</time>
      </trkpt>
      <trkpt lat="36.91879" lon="-3.19079">
        <ele>882.052809</ele>
        <time>2022-02-25T08:17:58.416Z</time>
      </trkpt>
      <trkpt lat="36.91837" lon="-3.1918">
        <ele>876.765408</ele>
        <time>2022-02-25T08:18:12.846Z</time>
      </trkpt>
      <trkpt lat="36.91812" lon="-3.19257">
        <ele>873.258967</ele>
        <time>2022-02-25T08:18:23.365Z</time>
      </trkpt>
      <trkpt lat="36.91797" lon="-3.19345">
        <ele>869.495286</ele>
        <time>2022-02-25T08:18:34.568Z</time>
      </trkpt>
      <trkpt lat="36.91794" lon="-3.1944">
        <ele>866.127536</ele>
        <time>2022-02-25T08:18:46.539Z</time>
      </trkpt>
      <trkpt lat="36.91787" lon="-3.19494">
        <ele>864.186297</ele>
        <time>2022-02-25T08:18:53.693Z</time>
      </trkpt>
      <trkpt lat="36.91709" lon="-3.19677">
        <ele>858.523387</ele>
        <time>2022-02-25T08:19:21.951Z</time>
      </trkpt>
      <trkpt lat="36.91693" lon="-3.197">
        <ele>857.840008</ele>
        <time>2022-02-25T08:19:26.228Z</time>
      </trkpt>
      <trkpt lat="36.91663" lon="-3.1973">
        <ele>856.761655</ele>
        <time>2022-02-25T08:19:32.974Z</time>
      </trkpt>
      <trkpt lat="36.91587" lon="-3.19798">
        <ele>856.637788</ele>
        <time>2022-02-25T08:19:50.371Z</time>
      </trkpt>
      <trkpt lat="36.91552" lon="-3.19907">
        <ele>857.083792</ele>
        <time>2022-02-25T08:20:18.359Z</time>
      </trkpt>
      <trkpt lat="36.91505" lon="-3.19968">
        <ele>860.130697</ele>
        <time>2022-02-25T08:20:47.526Z</time>
      </trkpt>
      <trkpt lat="36.91409" lon="-3.20171">
        <ele>867.256852</ele>
        <time>2022-02-25T08:22:27.680Z</time>
      </trkpt>
      <trkpt lat="36.91391" lon="-3.20226">
        <ele>867.852545</ele>
        <time>2022-02-25T08:22:40.808Z</time>
      </trkpt>
      <trkpt lat="36.91362" lon="-3.20305">
        <ele>868.402954</ele>
        <time>2022-02-25T08:22:53.011Z</time>
      </trkpt>
      <trkpt lat="36.91338" lon="-3.20339">
        <ele>865.478092</ele>
        <time>2022-02-25T08:22:58.721Z</time>
      </trkpt>
      <trkpt lat="36.91319" lon="-3.20358">
        <ele>863.531045</ele>
        <time>2022-02-25T08:23:02.379Z</time>
      </trkpt>
      <trkpt lat="36.913" lon="-3.20373">
        <ele>861.673045</ele>
        <time>2022-02-25T08:23:05.703Z</time>
      </trkpt>
      <trkpt lat="36.91261" lon="-3.20387">
        <ele>858.448009</ele>
        <time>2022-02-25T08:23:11.443Z</time>
      </trkpt>
      <trkpt lat="36.91225" lon="-3.20389">
        <ele>855.523619</ele>
        <time>2022-02-25T08:23:16.568Z</time>
      </trkpt>
      <trkpt lat="36.9119" lon="-3.20381">
        <ele>852.954162</ele>
        <time>2022-02-25T08:23:21.483Z</time>
      </trkpt>
      <trkpt lat="36.91146" lon="-3.20352">
        <ele>849.628441</ele>
        <time>2022-02-25T08:23:28.535Z</time>
      </trkpt>
      <trkpt lat="36.91119" lon="-3.20318">
        <ele>847.018609</ele>
        <time>2022-02-25T08:23:34.285Z</time>
      </trkpt>
      <trkpt lat="36.91089" lon="-3.20273">
        <ele>843.880832</ele>
        <time>2022-02-25T08:23:41.588Z</time>
      </trkpt>
      <trkpt lat="36.91061" lon="-3.20192">
        <ele>843.440837</ele>
        <time>2022-02-25T08:23:55.439Z</time>
      </trkpt>
      <trkpt lat="36.91044" lon="-3.20171">
        <ele>844.124058</ele>
        <time>2022-02-25T08:24:02.612Z</time>
      </trkpt>
      <trkpt lat="36.91021" lon="-3.20163">
        <ele>844.789161</ele>
        <time>2022-02-25T08:24:12.042Z</time>
      </trkpt>
      <trkpt lat="36.91016" lon="-3.20161">
        <ele>844.942273</ele>
        <time>2022-02-25T08:24:14.196Z</time>
      </trkpt>
      <trkpt lat="36.90996" lon="-3.20162">
        <ele>845.533265</ele>
        <time>2022-02-25T08:24:23.876Z</time>
      </trkpt>
      <trkpt lat="36.90966" lon="-3.2018">
        <ele>846.487875</ele>
        <time>2022-02-25T08:24:40.175Z</time>
      </trkpt>
      <trkpt lat="36.90952" lon="-3.20209">
        <ele>847.252553</ele>
        <time>2022-02-25T08:24:53.959Z</time>
      </trkpt>
      <trkpt lat="36.90948" lon="-3.20224">
        <ele>847.933275</ele>
        <time>2022-02-25T08:25:01.936Z</time>
      </trkpt>
      <trkpt lat="36.90963" lon="-3.2037">
        <ele>854.928341</ele>
        <time>2022-02-25T08:26:11.001Z</time>
      </trkpt>
      <trkpt lat="36.90963" lon="-3.20415">
        <ele>857.067626</ele>
        <time>2022-02-25T08:26:28.530Z</time>
      </trkpt>
      <trkpt lat="36.9094" lon="-3.20541">
        <ele>858.495749</ele>
        <time>2022-02-25T08:27:02.572Z</time>
      </trkpt>
      <trkpt lat="36.90941" lon="-3.20585">
        <ele>858.714114</ele>
        <time>2022-02-25T08:27:11.058Z</time>
      </trkpt>
      <trkpt lat="36.9095" lon="-3.20627">
        <ele>858.932317</ele>
        <time>2022-02-25T08:27:18.038Z</time>
      </trkpt>
      <trkpt lat="36.91068" lon="-3.20855">
        <ele>853.436938</ele>
        <time>2022-02-25T08:27:54.576Z</time>
      </trkpt>
      <trkpt lat="36.91084" lon="-3.2087">
        <ele>853.449278</ele>
        <time>2022-02-25T08:27:58.446Z</time>
      </trkpt>
      <trkpt lat="36.91129" lon="-3.20887">
        <ele>853.478439</ele>
        <time>2022-02-25T08:28:07.582Z</time>
      </trkpt>
      <trkpt lat="36.91141" lon="-3.20897">
        <ele>853.487548</ele>
        <time>2022-02-25T08:28:11.613Z</time>
      </trkpt>
      <trkpt lat="36.91152" lon="-3.20923">
        <ele>853.502677</ele>
        <time>2022-02-25T08:28:19.084Z</time>
      </trkpt>
      <trkpt lat="36.91155" lon="-3.20946">
        <ele>853.514194</ele>
        <time>2022-02-25T08:28:25.360Z</time>
      </trkpt>
      <trkpt lat="36.91137" lon="-3.20983">
        <ele>853.535499</ele>
        <time>2022-02-25T08:28:36.319Z</time>
      </trkpt>
      <trkpt lat="36.91121" lon="-3.20992">
        <ele>853.772994</ele>
        <time>2022-02-25T08:28:42.201Z</time>
      </trkpt>
      <trkpt lat="36.91082" lon="-3.20997">
        <ele>854.621753</ele>
        <time>2022-02-25T08:28:53.810Z</time>
      </trkpt>
      <trkpt lat="36.91051" lon="-3.21002">
        <ele>855.288431</ele>
        <time>2022-02-25T08:29:05.650Z</time>
      </trkpt>
      <trkpt lat="36.90972" lon="-3.21057">
        <ele>857.243209</ele>
        <time>2022-02-25T08:29:38.919Z</time>
      </trkpt>
      <trkpt lat="36.9094" lon="-3.21076">
        <ele>856.967601</ele>
        <time>2022-02-25T08:29:48.457Z</time>
      </trkpt>
      <trkpt lat="36.90827" lon="-3.21101">
        <ele>855.140633</ele>
        <time>2022-02-25T08:30:09.807Z</time>
      </trkpt>
      <trkpt lat="36.90786" lon="-3.21153">
        <ele>853.547084</ele>
        <time>2022-02-25T08:30:19.455Z</time>
      </trkpt>
      <trkpt lat="36.90714" lon="-3.21177">
        <ele>849.915867</ele>
        <time>2022-02-25T08:30:31.380Z</time>
      </trkpt>
      <trkpt lat="36.90699" lon="-3.21202">
        <ele>848.67758</ele>
        <time>2022-02-25T08:30:35.251Z</time>
      </trkpt>
      <trkpt lat="36.90696" lon="-3.21215">
        <ele>848.134375</ele>
        <time>2022-02-25T08:30:36.880Z</time>
      </trkpt>
      <trkpt lat="36.90703" lon="-3.21251">
        <ele>846.698939</ele>
        <time>2022-02-25T08:30:41.413Z</time>
      </trkpt>
      <trkpt lat="36.90716" lon="-3.21266">
        <ele>845.852415</ele>
        <time>2022-02-25T08:30:44.005Z</time>
      </trkpt>
      <trkpt lat="36.90733" lon="-3.21275">
        <ele>845.917767</ele>
        <time>2022-02-25T08:30:47.315Z</time>
      </trkpt>
      <trkpt lat="36.90791" lon="-3.21287">
        <ele>846.373596</ele>
        <time>2022-02-25T08:30:57.906Z</time>
      </trkpt>
      <trkpt lat="36.9086" lon="-3.2131">
        <ele>846.930454</ele>
        <time>2022-02-25T08:31:17.660Z</time>
      </trkpt>
      <trkpt lat="36.90888" lon="-3.21327">
        <ele>847.173754</ele>
        <time>2022-02-25T08:31:33.262Z</time>
      </trkpt>
      <trkpt lat="36.909" lon="-3.21352">
        <ele>849.463892</ele>
        <time>2022-02-25T08:31:49.003Z</time>
      </trkpt>
      <trkpt lat="36.90903" lon="-3.21389">
        <ele>852.573378</ele>
        <time>2022-02-25T08:32:12.951Z</time>
      </trkpt>
      <trkpt lat="36.9089" lon="-3.2142">
        <ele>855.444658</ele>
        <time>2022-02-25T08:32:37.165Z</time>
      </trkpt>
      <trkpt lat="36.90866" lon="-3.21437">
        <ele>858.323502</ele>
        <time>2022-02-25T08:33:01.444Z</time>
      </trkpt>
      <trkpt lat="36.90788" lon="-3.21445">
        <ele>866.074352</ele>
        <time>2022-02-25T08:34:04.316Z</time>
      </trkpt>
      <trkpt lat="36.9077" lon="-3.21455">
        <ele>866.842572</ele>
        <time>2022-02-25T08:34:16.457Z</time>
      </trkpt>
      <trkpt lat="36.90712" lon="-3.21503">
        <ele>869.460217</ele>
        <time>2022-02-25T08:34:56.545Z</time>
      </trkpt>
      <trkpt lat="36.90689" lon="-3.21525">
        <ele>870.539626</ele>
        <time>2022-02-25T08:35:09.281Z</time>
      </trkpt>
      <trkpt lat="36.90659" lon="-3.21575">
        <ele>872.447696</ele>
        <time>2022-02-25T08:35:19.198Z</time>
      </trkpt>
      <trkpt lat="36.9065" lon="-3.21603">
        <ele>871.930254</ele>
        <time>2022-02-25T08:35:22.752Z</time>
      </trkpt>
      <trkpt lat="36.90653" lon="-3.21626">
        <ele>871.134602</ele>
        <time>2022-02-25T08:35:25.545Z</time>
      </trkpt>
      <trkpt lat="36.90668" lon="-3.21647">
        <ele>870.220311</ele>
        <time>2022-02-25T08:35:28.797Z</time>
      </trkpt>
      <trkpt lat="36.90704" lon="-3.21651">
        <ele>868.708217</ele>
        <time>2022-02-25T08:35:34.564Z</time>
      </trkpt>
      <trkpt lat="36.90728" lon="-3.21659">
        <ele>867.677439</ele>
        <time>2022-02-25T08:35:38.867Z</time>
      </trkpt>
      <trkpt lat="36.90748" lon="-3.21679">
        <ele>866.61486</ele>
        <time>2022-02-25T08:35:43.267Z</time>
      </trkpt>
      <trkpt lat="36.9076" lon="-3.2171">
        <ele>865.501425</ele>
        <time>2022-02-25T08:35:47.667Z</time>
      </trkpt>
      <trkpt lat="36.9076" lon="-3.21741">
        <ele>864.590638</ele>
        <time>2022-02-25T08:35:52.723Z</time>
      </trkpt>
      <trkpt lat="36.9075" lon="-3.2177">
        <ele>863.730161</ele>
        <time>2022-02-25T08:35:57.505Z</time>
      </trkpt>
      <trkpt lat="36.90724" lon="-3.21804">
        <ele>862.459826</ele>
        <time>2022-02-25T08:36:03.859Z</time>
      </trkpt>
      <trkpt lat="36.9069" lon="-3.21845">
        <ele>860.86731</ele>
        <time>2022-02-25T08:36:11.370Z</time>
      </trkpt>
      <trkpt lat="36.90662" lon="-3.2189">
        <ele>859.30432</ele>
        <time>2022-02-25T08:36:20.397Z</time>
      </trkpt>
      <trkpt lat="36.90656" lon="-3.21935">
        <ele>856.595288</ele>
        <time>2022-02-25T08:36:26.354Z</time>
      </trkpt>
      <trkpt lat="36.90649" lon="-3.22057">
        <ele>848.464513</ele>
        <time>2022-02-25T08:36:40.349Z</time>
      </trkpt>
      <trkpt lat="36.90643" lon="-3.22144">
        <ele>843.267897</ele>
        <time>2022-02-25T08:36:50.174Z</time>
      </trkpt>
      <trkpt lat="36.90622" lon="-3.22172">
        <ele>841.676094</ele>
        <time>2022-02-25T08:36:54.714Z</time>
      </trkpt>
      <trkpt lat="36.90596" lon="-3.22182">
        <ele>840.284681</ele>
        <time>2022-02-25T08:36:58.670Z</time>
      </trkpt>
      <trkpt lat="36.90559" lon="-3.22193">
        <ele>838.284037</ele>
        <time>2022-02-25T08:37:04.666Z</time>
      </trkpt>
      <trkpt lat="36.90538" lon="-3.22216">
        <ele>836.844147</ele>
        <time>2022-02-25T08:37:09.305Z</time>
      </trkpt>
      <trkpt lat="36.9052" lon="-3.22257">
        <ele>834.92494</ele>
        <time>2022-02-25T08:37:16.526Z</time>
      </trkpt>
      <trkpt lat="36.90518" lon="-3.2228">
        <ele>834.979394</ele>
        <time>2022-02-25T08:37:22.262Z</time>
      </trkpt>
      <trkpt lat="36.9051" lon="-3.22357">
        <ele>835.330058</ele>
        <time>2022-02-25T08:37:43.013Z</time>
      </trkpt>
      <trkpt lat="36.90503" lon="-3.22471">
        <ele>835.846516</ele>
        <time>2022-02-25T08:38:06.343Z</time>
      </trkpt>
      <trkpt lat="36.90508" lon="-3.22494">
        <ele>835.791219</ele>
        <time>2022-02-25T08:38:10.245Z</time>
      </trkpt>
      <trkpt lat="36.90526" lon="-3.22531">
        <ele>835.471063</ele>
        <time>2022-02-25T08:38:17.248Z</time>
      </trkpt>
      <trkpt lat="36.90541" lon="-3.2256">
        <ele>835.214294</ele>
        <time>2022-02-25T08:38:22.914Z</time>
      </trkpt>
      <trkpt lat="36.90544" lon="-3.22583">
        <ele>835.045242</ele>
        <time>2022-02-25T08:38:26.853Z</time>
      </trkpt>
      <trkpt lat="36.90545" lon="-3.22598">
        <ele>834.936343</ele>
        <time>2022-02-25T08:38:29.135Z</time>
      </trkpt>
      <trkpt lat="36.90536" lon="-3.22621">
        <ele>834.741092</ele>
        <time>2022-02-25T08:38:33.263Z</time>
      </trkpt>
      <trkpt lat="36.90531" lon="-3.22629">
        <ele>834.662448</ele>
        <time>2022-02-25T08:38:34.971Z</time>
      </trkpt>
      <trkpt lat="36.90513" lon="-3.2266">
        <ele>834.380376</ele>
        <time>2022-02-25T08:38:40.838Z</time>
      </trkpt>
      <trkpt lat="36.90507" lon="-3.22687">
        <ele>834.110809</ele>
        <time>2022-02-25T08:38:44.736Z</time>
      </trkpt>
      <trkpt lat="36.90496" lon="-3.228">
        <ele>832.388957</ele>
        <time>2022-02-25T08:39:02.135Z</time>
      </trkpt>
      <trkpt lat="36.90479" lon="-3.22836">
        <ele>831.757801</ele>
        <time>2022-02-25T08:39:08.389Z</time>
      </trkpt>
      <trkpt lat="36.9046" lon="-3.2287">
        <ele>831.129292</ele>
        <time>2022-02-25T08:39:14.447Z</time>
      </trkpt>
      <trkpt lat="36.90447" lon="-3.22906">
        <ele>830.129335</ele>
        <time>2022-02-25T08:39:20.064Z</time>
      </trkpt>
      <trkpt lat="36.90445" lon="-3.22946">
        <ele>828.612094</ele>
        <time>2022-02-25T08:39:25.571Z</time>
      </trkpt>
      <trkpt lat="36.9045" lon="-3.22977">
        <ele>827.446255</ele>
        <time>2022-02-25T08:39:29.644Z</time>
      </trkpt>
      <trkpt lat="36.90468" lon="-3.23029">
        <ele>825.338761</ele>
        <time>2022-02-25T08:39:36.715Z</time>
      </trkpt>
      <trkpt lat="36.90485" lon="-3.23056">
        <ele>824.101498</ele>
        <time>2022-02-25T08:39:40.900Z</time>
      </trkpt>
      <trkpt lat="36.90516" lon="-3.23084">
        <ele>822.245313</ele>
        <time>2022-02-25T08:39:46.971Z</time>
      </trkpt>
      <trkpt lat="36.9052" lon="-3.23102">
        <ele>821.322895</ele>
        <time>2022-02-25T08:39:49.264Z</time>
      </trkpt>
      <trkpt lat="36.90509" lon="-3.23142">
        <ele>819.258432</ele>
        <time>2022-02-25T08:39:54.450Z</time>
      </trkpt>
      <trkpt lat="36.90493" lon="-3.23149">
        <ele>818.233535</ele>
        <time>2022-02-25T08:39:57.049Z</time>
      </trkpt>
      <trkpt lat="36.90441" lon="-3.23151">
        <ele>815.007487</ele>
        <time>2022-02-25T08:40:05.145Z</time>
      </trkpt>
      <trkpt lat="36.90321" lon="-3.23179">
        <ele>806.431399</ele>
        <time>2022-02-25T08:40:23.623Z</time>
      </trkpt>
      <trkpt lat="36.90254" lon="-3.23163">
        <ele>801.137292</ele>
        <time>2022-02-25T08:40:33.421Z</time>
      </trkpt>
      <trkpt lat="36.90181" lon="-3.23209">
        <ele>795.630789</ele>
        <time>2022-02-25T08:40:45.306Z</time>
      </trkpt>
      <trkpt lat="36.90172" lon="-3.23225">
        <ele>794.80984</ele>
        <time>2022-02-25T08:40:47.678Z</time>
      </trkpt>
      <trkpt lat="36.90164" lon="-3.23254">
        <ele>793.517101</ele>
        <time>2022-02-25T08:40:51.349Z</time>
      </trkpt>
      <trkpt lat="36.90168" lon="-3.23291">
        <ele>791.969651</ele>
        <time>2022-02-25T08:40:55.817Z</time>
      </trkpt>
      <trkpt lat="36.90189" lon="-3.23322">
        <ele>790.278775</ele>
        <time>2022-02-25T08:41:00.983Z</time>
      </trkpt>
      <trkpt lat="36.90204" lon="-3.23327">
        <ele>789.464504</ele>
        <time>2022-02-25T08:41:03.747Z</time>
      </trkpt>
      <trkpt lat="36.90217" lon="-3.23328">
        <ele>788.819626</ele>
        <time>2022-02-25T08:41:06.035Z</time>
      </trkpt>
      <trkpt lat="36.90259" lon="-3.23313">
        <ele>789.328115</ele>
        <time>2022-02-25T08:41:16.501Z</time>
      </trkpt>
      <trkpt lat="36.90273" lon="-3.23312">
        <ele>789.975225</ele>
        <time>2022-02-25T08:41:21.510Z</time>
      </trkpt>
      <trkpt lat="36.90292" lon="-3.23322">
        <ele>790.963981</ele>
        <time>2022-02-25T08:41:29.655Z</time>
      </trkpt>
      <trkpt lat="36.90443" lon="-3.23499">
        <ele>802.189028</ele>
        <time>2022-02-25T08:43:27.734Z</time>
      </trkpt>
      <trkpt lat="36.90448" lon="-3.23521">
        <ele>803.361775</ele>
        <time>2022-02-25T08:43:39.531Z</time>
      </trkpt>
      <trkpt lat="36.90445" lon="-3.23549">
        <ele>804.817169</ele>
        <time>2022-02-25T08:43:52.786Z</time>
      </trkpt>
      <trkpt lat="36.90403" lon="-3.23637">
        <ele>808.334728</ele>
        <time>2022-02-25T08:44:32.292Z</time>
      </trkpt>
      <trkpt lat="36.90392" lon="-3.23685">
        <ele>808.753111</ele>
        <time>2022-02-25T08:44:45.994Z</time>
      </trkpt>
      <trkpt lat="36.90386" lon="-3.23709">
        <ele>808.959225</ele>
        <time>2022-02-25T08:44:50.603Z</time>
      </trkpt>
      <trkpt lat="36.90389" lon="-3.23737">
        <ele>809.19779</ele>
        <time>2022-02-25T08:44:56.663Z</time>
      </trkpt>
      <trkpt lat="36.90416" lon="-3.23819">
        <ele>809.532028</ele>
        <time>2022-02-25T08:45:10.328Z</time>
      </trkpt>
      <trkpt lat="36.90425" lon="-3.23959">
        <ele>804.390601</ele>
        <time>2022-02-25T08:45:28.712Z</time>
      </trkpt>
      <trkpt lat="36.90424" lon="-3.23985">
        <ele>803.424743</ele>
        <time>2022-02-25T08:45:32.021Z</time>
      </trkpt>
      <trkpt lat="36.90415" lon="-3.24013">
        <ele>802.313146</ele>
        <time>2022-02-25T08:45:35.673Z</time>
      </trkpt>
      <trkpt lat="36.9039" lon="-3.24048">
        <ele>799.919497</ele>
        <time>2022-02-25T08:45:41.312Z</time>
      </trkpt>
      <trkpt lat="36.90379" lon="-3.24075">
        <ele>798.163543</ele>
        <time>2022-02-25T08:45:44.700Z</time>
      </trkpt>
      <trkpt lat="36.90377" lon="-3.24098">
        <ele>796.748307</ele>
        <time>2022-02-25T08:45:47.619Z</time>
      </trkpt>
      <trkpt lat="36.90388" lon="-3.24237">
        <ele>788.391778</ele>
        <time>2022-02-25T08:46:04.104Z</time>
      </trkpt>
      <trkpt lat="36.90386" lon="-3.24249">
        <ele>787.749645</ele>
        <time>2022-02-25T08:46:05.557Z</time>
      </trkpt>
      <trkpt lat="36.90381" lon="-3.2426">
        <ele>787.148442</ele>
        <time>2022-02-25T08:46:07.096Z</time>
      </trkpt>
      <trkpt lat="36.90358" lon="-3.2428">
        <ele>785.523127</ele>
        <time>2022-02-25T08:46:11.229Z</time>
      </trkpt>
      <trkpt lat="36.9034" lon="-3.243">
        <ele>784.143463</ele>
        <time>2022-02-25T08:46:14.650Z</time>
      </trkpt>
      <trkpt lat="36.90336" lon="-3.24323">
        <ele>783.054095</ele>
        <time>2022-02-25T08:46:17.543Z</time>
      </trkpt>
      <trkpt lat="36.90342" lon="-3.24345">
        <ele>781.945522</ele>
        <time>2022-02-25T08:46:20.490Z</time>
      </trkpt>
      <trkpt lat="36.90364" lon="-3.2439">
        <ele>779.516595</ele>
        <time>2022-02-25T08:46:27.577Z</time>
      </trkpt>
      <trkpt lat="36.9037" lon="-3.24423">
        <ele>777.923888</ele>
        <time>2022-02-25T08:46:32.363Z</time>
      </trkpt>
      <trkpt lat="36.90368" lon="-3.24452">
        <ele>776.838153</ele>
        <time>2022-02-25T08:46:36.111Z</time>
      </trkpt>
      <trkpt lat="36.90361" lon="-3.24479">
        <ele>775.815348</ele>
        <time>2022-02-25T08:46:39.825Z</time>
      </trkpt>
      <trkpt lat="36.90313" lon="-3.24533">
        <ele>772.907289</ele>
        <time>2022-02-25T08:46:50.803Z</time>
      </trkpt>
      <trkpt lat="36.90301" lon="-3.24547">
        <ele>772.161598</ele>
        <time>2022-02-25T08:46:53.286Z</time>
      </trkpt>
      <trkpt lat="36.90295" lon="-3.24571">
        <ele>771.26325</ele>
        <time>2022-02-25T08:46:56.660Z</time>
      </trkpt>
      <trkpt lat="36.90284" lon="-3.24687">
        <ele>766.326814</ele>
        <time>2022-02-25T08:47:10.879Z</time>
      </trkpt>
      <trkpt lat="36.90289" lon="-3.24711">
        <ele>765.205474</ele>
        <time>2022-02-25T08:47:13.788Z</time>
      </trkpt>
      <trkpt lat="36.90304" lon="-3.24727">
        <ele>764.055345</ele>
        <time>2022-02-25T08:47:16.705Z</time>
      </trkpt>
      <trkpt lat="36.90344" lon="-3.24737">
        <ele>761.716138</ele>
        <time>2022-02-25T08:47:22.891Z</time>
      </trkpt>
      <trkpt lat="36.90356" lon="-3.2476">
        <ele>760.456558</ele>
        <time>2022-02-25T08:47:26.500Z</time>
      </trkpt>
      <trkpt lat="36.90358" lon="-3.24787">
        <ele>759.191341</ele>
        <time>2022-02-25T08:47:30.194Z</time>
      </trkpt>
      <trkpt lat="36.90353" lon="-3.24827">
        <ele>757.80327</ele>
        <time>2022-02-25T08:47:36.224Z</time>
      </trkpt>
      <trkpt lat="36.9032" lon="-3.24907">
        <ele>754.709637</ele>
        <time>2022-02-25T08:47:47.510Z</time>
      </trkpt>
      <trkpt lat="36.9032" lon="-3.24988">
        <ele>751.917333</ele>
        <time>2022-02-25T08:47:58.173Z</time>
      </trkpt>
      <trkpt lat="36.90324" lon="-3.25003">
        <ele>751.34412</ele>
        <time>2022-02-25T08:48:00.292Z</time>
      </trkpt>
      <trkpt lat="36.9037" lon="-3.25069">
        <ele>748.373472</ele>
        <time>2022-02-25T08:48:11.470Z</time>
      </trkpt>
      <trkpt lat="36.90377" lon="-3.25103">
        <ele>747.138234</ele>
        <time>2022-02-25T08:48:16.345Z</time>
      </trkpt>
      <trkpt lat="36.90376" lon="-3.25176">
        <ele>744.66101</ele>
        <time>2022-02-25T08:48:25.311Z</time>
      </trkpt>
      <trkpt lat="36.9039" lon="-3.25201">
        <ele>743.604493</ele>
        <time>2022-02-25T08:48:29.164Z</time>
      </trkpt>
      <trkpt lat="36.90405" lon="-3.25233">
        <ele>742.456552</ele>
        <time>2022-02-25T08:48:34.409Z</time>
      </trkpt>
      <trkpt lat="36.90413" lon="-3.25273">
        <ele>741.197213</ele>
        <time>2022-02-25T08:48:44.357Z</time>
      </trkpt>
      <trkpt lat="36.90415" lon="-3.25284">
        <ele>740.840902</ele>
        <time>2022-02-25T08:48:47.505Z</time>
      </trkpt>
      <trkpt lat="36.90424" lon="-3.2536">
        <ele>738.494505</ele>
        <time>2022-02-25T08:48:57.906Z</time>
      </trkpt>
      <trkpt lat="36.90415" lon="-3.25423">
        <ele>736.240003</ele>
        <time>2022-02-25T08:49:05.646Z</time>
      </trkpt>
      <trkpt lat="36.90414" lon="-3.25466">
        <ele>733.445636</ele>
        <time>2022-02-25T08:49:10.576Z</time>
      </trkpt>
      <trkpt lat="36.90424" lon="-3.25486">
        <ele>731.9376</ele>
        <time>2022-02-25T08:49:13.419Z</time>
      </trkpt>
      <trkpt lat="36.90432" lon="-3.25495">
        <ele>731.079541</ele>
        <time>2022-02-25T08:49:14.814Z</time>
      </trkpt>
      <trkpt lat="36.90451" lon="-3.25505">
        <ele>729.423465</ele>
        <time>2022-02-25T08:49:18.205Z</time>
      </trkpt>
      <trkpt lat="36.90493" lon="-3.25511">
        <ele>725.975527</ele>
        <time>2022-02-25T08:49:24.306Z</time>
      </trkpt>
      <trkpt lat="36.9053" lon="-3.25524">
        <ele>722.8844</ele>
        <time>2022-02-25T08:49:29.851Z</time>
      </trkpt>
      <trkpt lat="36.90553" lon="-3.25546">
        <ele>721.600394</ele>
        <time>2022-02-25T08:49:34.548Z</time>
      </trkpt>
      <trkpt lat="36.90557" lon="-3.25566">
        <ele>721.091231</ele>
        <time>2022-02-25T08:49:36.744Z</time>
      </trkpt>
      <trkpt lat="36.90552" lon="-3.25584">
        <ele>720.607775</ele>
        <time>2022-02-25T08:49:40.171Z</time>
      </trkpt>
      <trkpt lat="36.90524" lon="-3.25639">
        <ele>718.953563</ele>
        <time>2022-02-25T08:49:49.126Z</time>
      </trkpt>
      <trkpt lat="36.905" lon="-3.2572">
        <ele>716.776006</ele>
        <time>2022-02-25T08:50:05.290Z</time>
      </trkpt>
      <trkpt lat="36.90465" lon="-3.25933">
        <ele>712.978875</ele>
        <time>2022-02-25T08:50:38.301Z</time>
      </trkpt>
      <trkpt lat="36.90466" lon="-3.25962">
        <ele>711.982166</ele>
        <time>2022-02-25T08:50:41.783Z</time>
      </trkpt>
      <trkpt lat="36.90517" lon="-3.26115">
        <ele>703.220473</ele>
        <time>2022-02-25T08:51:01.862Z</time>
      </trkpt>
      <trkpt lat="36.90512" lon="-3.26137">
        <ele>702.032627</ele>
        <time>2022-02-25T08:51:04.581Z</time>
      </trkpt>
      <trkpt lat="36.90496" lon="-3.26151">
        <ele>700.748947</ele>
        <time>2022-02-25T08:51:07.428Z</time>
      </trkpt>
      <trkpt lat="36.90461" lon="-3.2616">
        <ele>698.726618</ele>
        <time>2022-02-25T08:51:12.563Z</time>
      </trkpt>
      <trkpt lat="36.90446" lon="-3.26172">
        <ele>697.704814</ele>
        <time>2022-02-25T08:51:15.270Z</time>
      </trkpt>
      <trkpt lat="36.90438" lon="-3.26195">
        <ele>696.539485</ele>
        <time>2022-02-25T08:51:18.255Z</time>
      </trkpt>
      <trkpt lat="36.90439" lon="-3.2623">
        <ele>694.960643</ele>
        <time>2022-02-25T08:51:22.459Z</time>
      </trkpt>
      <trkpt lat="36.90458" lon="-3.26263">
        <ele>693.111361</ele>
        <time>2022-02-25T08:51:27.603Z</time>
      </trkpt>
      <trkpt lat="36.90464" lon="-3.26284">
        <ele>692.068886</ele>
        <time>2022-02-25T08:51:30.700Z</time>
      </trkpt>
      <trkpt lat="36.90451" lon="-3.26311">
        <ele>690.627594</ele>
        <time>2022-02-25T08:51:34.894Z</time>
      </trkpt>
      <trkpt lat="36.90404" lon="-3.26348">
        <ele>690.27776</ele>
        <time>2022-02-25T08:51:44.969Z</time>
      </trkpt>
      <trkpt lat="36.90391" lon="-3.26376">
        <ele>690.122852</ele>
        <time>2022-02-25T08:51:50.496Z</time>
      </trkpt>
      <trkpt lat="36.90372" lon="-3.26525">
        <ele>689.465879</ele>
        <time>2022-02-25T08:52:22.508Z</time>
      </trkpt>
      <trkpt lat="36.90371" lon="-3.26588">
        <ele>689.324302</ele>
        <time>2022-02-25T08:52:32.778Z</time>
      </trkpt>
      <trkpt lat="36.90376" lon="-3.26622">
        <ele>689.246323</ele>
        <time>2022-02-25T08:52:38.032Z</time>
      </trkpt>
      <trkpt lat="36.90393" lon="-3.26652">
        <ele>689.162678</ele>
        <time>2022-02-25T08:52:43.722Z</time>
      </trkpt>
      <trkpt lat="36.90466" lon="-3.26713">
        <ele>689.315615</ele>
        <time>2022-02-25T08:53:02.964Z</time>
      </trkpt>
      <trkpt lat="36.90478" lon="-3.26748">
        <ele>689.571406</ele>
        <time>2022-02-25T08:53:12.795Z</time>
      </trkpt>
      <trkpt lat="36.90478" lon="-3.2677">
        <ele>689.717954</ele>
        <time>2022-02-25T08:53:19.178Z</time>
      </trkpt>
      <trkpt lat="36.90464" lon="-3.26828">
        <ele>690.112452</ele>
        <time>2022-02-25T08:53:34.841Z</time>
      </trkpt>
      <trkpt lat="36.90466" lon="-3.26889">
        <ele>690.440983</ele>
        <time>2022-02-25T08:53:47.184Z</time>
      </trkpt>
      <trkpt lat="36.90453" lon="-3.26948">
        <ele>688.918804</ele>
        <time>2022-02-25T08:53:56.652Z</time>
      </trkpt>
      <trkpt lat="36.90466" lon="-3.27008">
        <ele>687.367035</ele>
        <time>2022-02-25T08:54:04.711Z</time>
      </trkpt>
      <trkpt lat="36.9045" lon="-3.27025">
        <ele>686.721806</ele>
        <time>2022-02-25T08:54:07.999Z</time>
      </trkpt>
      <trkpt lat="36.90412" lon="-3.27041">
        <ele>685.464908</ele>
        <time>2022-02-25T08:54:14.508Z</time>
      </trkpt>
      <trkpt lat="36.90404" lon="-3.27055">
        <ele>685.045027</ele>
        <time>2022-02-25T08:54:16.650Z</time>
      </trkpt>
      <trkpt lat="36.90405" lon="-3.27078">
        <ele>685.312277</ele>
        <time>2022-02-25T08:54:19.894Z</time>
      </trkpt>
      <trkpt lat="36.90413" lon="-3.27101">
        <ele>685.850016</ele>
        <time>2022-02-25T08:54:23.008Z</time>
      </trkpt>
      <trkpt lat="36.90438" lon="-3.27125">
        <ele>686.720686</ele>
        <time>2022-02-25T08:54:29.516Z</time>
      </trkpt>
      <trkpt lat="36.90443" lon="-3.27135">
        <ele>686.978915</ele>
        <time>2022-02-25T08:54:30.982Z</time>
      </trkpt>
      <trkpt lat="36.90441" lon="-3.27165">
        <ele>687.640071</ele>
        <time>2022-02-25T08:54:40.754Z</time>
      </trkpt>
      <trkpt lat="36.90418" lon="-3.27195">
        <ele>688.561442</ele>
        <time>2022-02-25T08:54:53.688Z</time>
      </trkpt>
      <trkpt lat="36.90402" lon="-3.27225">
        <ele>689.348763</ele>
        <time>2022-02-25T08:55:10.130Z</time>
      </trkpt>
      <trkpt lat="36.90362" lon="-3.27321">
        <ele>697.471739</ele>
        <time>2022-02-25T08:56:25.324Z</time>
      </trkpt>
      <trkpt lat="36.90339" lon="-3.27351">
        <ele>701.234063</ele>
        <time>2022-02-25T08:56:55.889Z</time>
      </trkpt>
      <trkpt lat="36.90297" lon="-3.27368">
        <ele>706.191425</ele>
        <time>2022-02-25T08:57:33.181Z</time>
      </trkpt>
      <trkpt lat="36.90275" lon="-3.27369">
        <ele>708.747497</ele>
        <time>2022-02-25T08:57:49.709Z</time>
      </trkpt>
      <trkpt lat="36.9026" lon="-3.2737">
        <ele>710.183354</ele>
        <time>2022-02-25T08:58:00.168Z</time>
      </trkpt>
      <trkpt lat="36.90199" lon="-3.27403">
        <ele>712.532686</ele>
        <time>2022-02-25T08:58:35.380Z</time>
      </trkpt>
      <trkpt lat="36.90177" lon="-3.27425">
        <ele>713.534412</ele>
        <time>2022-02-25T08:58:46.519Z</time>
      </trkpt>
      <trkpt lat="36.90169" lon="-3.27447">
        <ele>714.218468</ele>
        <time>2022-02-25T08:58:53.599Z</time>
      </trkpt>
      <trkpt lat="36.90169" lon="-3.27475">
        <ele>714.985377</ele>
        <time>2022-02-25T08:58:59.442Z</time>
      </trkpt>
      <trkpt lat="36.90174" lon="-3.27507">
        <ele>715.908832</ele>
        <time>2022-02-25T08:59:05.089Z</time>
      </trkpt>
      <trkpt lat="36.90201" lon="-3.27552">
        <ele>715.797376</ele>
        <time>2022-02-25T08:59:13.542Z</time>
      </trkpt>
      <trkpt lat="36.90205" lon="-3.2757">
        <ele>715.479997</ele>
        <time>2022-02-25T08:59:16.305Z</time>
      </trkpt>
      <trkpt lat="36.90204" lon="-3.27592">
        <ele>715.109931</ele>
        <time>2022-02-25T08:59:19.343Z</time>
      </trkpt>
      <trkpt lat="36.90184" lon="-3.27646">
        <ele>714.091667</ele>
        <time>2022-02-25T08:59:27.630Z</time>
      </trkpt>
      <trkpt lat="36.90188" lon="-3.27668">
        <ele>713.697387</ele>
        <time>2022-02-25T08:59:30.807Z</time>
      </trkpt>
      <trkpt lat="36.90198" lon="-3.27686">
        <ele>713.327443</ele>
        <time>2022-02-25T08:59:33.588Z</time>
      </trkpt>
      <trkpt lat="36.90289" lon="-3.27798">
        <ele>711.468499</ele>
        <time>2022-02-25T08:59:58.308Z</time>
      </trkpt>
      <trkpt lat="36.903" lon="-3.27821">
        <ele>711.195959</ele>
        <time>2022-02-25T09:00:05.545Z</time>
      </trkpt>
      <trkpt lat="36.903" lon="-3.27846">
        <ele>710.958477</ele>
        <time>2022-02-25T09:00:10.908Z</time>
      </trkpt>
      <trkpt lat="36.90284" lon="-3.27872">
        <ele>710.637012</ele>
        <time>2022-02-25T09:00:16.340Z</time>
      </trkpt>
      <trkpt lat="36.90233" lon="-3.27935">
        <ele>706.993285</ele>
        <time>2022-02-25T09:00:28.437Z</time>
      </trkpt>
      <trkpt lat="36.90216" lon="-3.27967">
        <ele>705.035234</ele>
        <time>2022-02-25T09:00:33.134Z</time>
      </trkpt>
      <trkpt lat="36.9016" lon="-3.28158">
        <ele>694.224952</ele>
        <time>2022-02-25T09:00:56.705Z</time>
      </trkpt>
      <trkpt lat="36.90151" lon="-3.28176">
        <ele>692.983316</ele>
        <time>2022-02-25T09:00:59.204Z</time>
      </trkpt>
      <trkpt lat="36.90141" lon="-3.28187">
        <ele>692.078469</ele>
        <time>2022-02-25T09:01:01.013Z</time>
      </trkpt>
      <trkpt lat="36.90118" lon="-3.28182">
        <ele>690.436971</ele>
        <time>2022-02-25T09:01:04.441Z</time>
      </trkpt>
      <trkpt lat="36.90076" lon="-3.28128">
        <ele>686.257516</ele>
        <time>2022-02-25T09:01:13.924Z</time>
      </trkpt>
      <trkpt lat="36.90058" lon="-3.28116">
        <ele>686.363435</ele>
        <time>2022-02-25T09:01:17.626Z</time>
      </trkpt>
      <trkpt lat="36.89984" lon="-3.28113">
        <ele>686.751128</ele>
        <time>2022-02-25T09:01:37.781Z</time>
      </trkpt>
      <trkpt lat="36.89948" lon="-3.28099">
        <ele>686.948469</ele>
        <time>2022-02-25T09:01:51.661Z</time>
      </trkpt>
      <trkpt lat="36.89898" lon="-3.2805">
        <ele>686.866798</ele>
        <time>2022-02-25T09:02:14.736Z</time>
      </trkpt>
      <trkpt lat="36.89873" lon="-3.28051">
        <ele>686.355919</ele>
        <time>2022-02-25T09:02:20.808Z</time>
      </trkpt>
      <trkpt lat="36.8985" lon="-3.2806">
        <ele>685.879197</ele>
        <time>2022-02-25T09:02:25.343Z</time>
      </trkpt>
      <trkpt lat="36.89776" lon="-3.28053">
        <ele>684.42939</ele>
        <time>2022-02-25T09:02:37.479Z</time>
      </trkpt>
      <trkpt lat="36.89763" lon="-3.28063">
        <ele>684.120006</ele>
        <time>2022-02-25T09:02:40.180Z</time>
      </trkpt>
      <trkpt lat="36.89753" lon="-3.28071">
        <ele>683.888394</ele>
        <time>2022-02-25T09:02:42.107Z</time>
      </trkpt>
      <trkpt lat="36.89739" lon="-3.28099">
        <ele>683.857856</ele>
        <time>2022-02-25T09:02:46.434Z</time>
      </trkpt>
      <trkpt lat="36.89738" lon="-3.28129">
        <ele>684.226366</ele>
        <time>2022-02-25T09:02:50.513Z</time>
      </trkpt>
      <trkpt lat="36.89748" lon="-3.28167">
        <ele>684.709116</ele>
        <time>2022-02-25T09:02:56.230Z</time>
      </trkpt>
      <trkpt lat="36.89754" lon="-3.28179">
        <ele>684.877722</ele>
        <time>2022-02-25T09:02:58.845Z</time>
      </trkpt>
      <trkpt lat="36.89802" lon="-3.28204">
        <ele>685.676392</ele>
        <time>2022-02-25T09:03:11.414Z</time>
      </trkpt>
      <trkpt lat="36.89825" lon="-3.28234">
        <ele>686.18441</ele>
        <time>2022-02-25T09:03:25.662Z</time>
      </trkpt>
      <trkpt lat="36.8989" lon="-3.28453">
        <ele>707.114486</ele>
        <time>2022-02-25T09:06:10.259Z</time>
      </trkpt>
      <trkpt lat="36.8989" lon="-3.28481">
        <ele>709.245587</ele>
        <time>2022-02-25T09:06:30.013Z</time>
      </trkpt>
      <trkpt lat="36.89878" lon="-3.28505">
        <ele>711.19198</ele>
        <time>2022-02-25T09:06:48.635Z</time>
      </trkpt>
      <trkpt lat="36.89723" lon="-3.28695">
        <ele>726.837361</ele>
        <time>2022-02-25T09:08:56.437Z</time>
      </trkpt>
      <trkpt lat="36.89685" lon="-3.28723">
        <ele>728.782598</ele>
        <time>2022-02-25T09:09:14.220Z</time>
      </trkpt>
      <trkpt lat="36.89593" lon="-3.28773">
        <ele>731.654425</ele>
        <time>2022-02-25T09:09:44.068Z</time>
      </trkpt>
      <trkpt lat="36.89565" lon="-3.288">
        <ele>731.896677</ele>
        <time>2022-02-25T09:09:51.846Z</time>
      </trkpt>
      <trkpt lat="36.89547" lon="-3.28839">
        <ele>732.139325</ele>
        <time>2022-02-25T09:09:59.690Z</time>
      </trkpt>
      <trkpt lat="36.89524" lon="-3.28941">
        <ele>732.651349</ele>
        <time>2022-02-25T09:10:21.016Z</time>
      </trkpt>
      <trkpt lat="36.89508" lon="-3.28989">
        <ele>732.773709</ele>
        <time>2022-02-25T09:10:33.597Z</time>
      </trkpt>
      <trkpt lat="36.89426" lon="-3.29137">
        <ele>732.412767</ele>
        <time>2022-02-25T09:11:07.340Z</time>
      </trkpt>
      <trkpt lat="36.89419" lon="-3.29166">
        <ele>731.673928</ele>
        <time>2022-02-25T09:11:11.646Z</time>
      </trkpt>
      <trkpt lat="36.89396" lon="-3.2937">
        <ele>726.77777</ele>
        <time>2022-02-25T09:11:38.594Z</time>
      </trkpt>
      <trkpt lat="36.89385" lon="-3.29426">
        <ele>725.687555</ele>
        <time>2022-02-25T09:11:46.392Z</time>
      </trkpt>
      <trkpt lat="36.89372" lon="-3.29457">
        <ele>725.036086</ele>
        <time>2022-02-25T09:11:51.373Z</time>
      </trkpt>
      <trkpt lat="36.89341" lon="-3.29509">
        <ele>723.820807</ele>
        <time>2022-02-25T09:12:02.006Z</time>
      </trkpt>
      <trkpt lat="36.89254" lon="-3.29585">
        <ele>720.767839</ele>
        <time>2022-02-25T09:12:23.447Z</time>
      </trkpt>
      <trkpt lat="36.89225" lon="-3.29626">
        <ele>719.479668</ele>
        <time>2022-02-25T09:12:30.759Z</time>
      </trkpt>
      <trkpt lat="36.89211" lon="-3.29654">
        <ele>718.690593</ele>
        <time>2022-02-25T09:12:35.023Z</time>
      </trkpt>
      <trkpt lat="36.89197" lon="-3.29699">
        <ele>716.98985</ele>
        <time>2022-02-25T09:12:40.988Z</time>
      </trkpt>
      <trkpt lat="36.8917" lon="-3.29861">
        <ele>707.349909</ele>
        <time>2022-02-25T09:13:00.699Z</time>
      </trkpt>
      <trkpt lat="36.89155" lon="-3.29891">
        <ele>705.260536</ele>
        <time>2022-02-25T09:13:04.889Z</time>
      </trkpt>
      <trkpt lat="36.89101" lon="-3.29955">
        <ele>698.946115</ele>
        <time>2022-02-25T09:13:15.748Z</time>
      </trkpt>
      <trkpt lat="36.89077" lon="-3.29995">
        <ele>695.538644</ele>
        <time>2022-02-25T09:13:21.528Z</time>
      </trkpt>
      <trkpt lat="36.8903" lon="-3.30091">
        <ele>687.678963</ele>
        <time>2022-02-25T09:13:34.618Z</time>
      </trkpt>
      <trkpt lat="36.89015" lon="-3.3011">
        <ele>685.767957</ele>
        <time>2022-02-25T09:13:37.560Z</time>
      </trkpt>
      <trkpt lat="36.88994" lon="-3.30127">
        <ele>683.408872</ele>
        <time>2022-02-25T09:13:41.181Z</time>
      </trkpt>
      <trkpt lat="36.8884" lon="-3.30197">
        <ele>669.460086</ele>
        <time>2022-02-25T09:14:04.806Z</time>
      </trkpt>
      <trkpt lat="36.88813" lon="-3.30192">
        <ele>667.62027</ele>
        <time>2022-02-25T09:14:08.772Z</time>
      </trkpt>
      <trkpt lat="36.88757" lon="-3.30164">
        <ele>663.475514</ele>
        <time>2022-02-25T09:14:17.956Z</time>
      </trkpt>
      <trkpt lat="36.88725" lon="-3.30165">
        <ele>661.337424</ele>
        <time>2022-02-25T09:14:22.950Z</time>
      </trkpt>
      <trkpt lat="36.88698" lon="-3.30183">
        <ele>659.996532</ele>
        <time>2022-02-25T09:14:28.132Z</time>
      </trkpt>
      <trkpt lat="36.88663" lon="-3.30224">
        <ele>658.627411</ele>
        <time>2022-02-25T09:14:36.387Z</time>
      </trkpt>
      <trkpt lat="36.88638" lon="-3.30237">
        <ele>657.856332</ele>
        <time>2022-02-25T09:14:41.087Z</time>
      </trkpt>
      <trkpt lat="36.8862" lon="-3.30234">
        <ele>657.319196</ele>
        <time>2022-02-25T09:14:44.348Z</time>
      </trkpt>
      <trkpt lat="36.88573" lon="-3.30207">
        <ele>655.850907</ele>
        <time>2022-02-25T09:14:53.515Z</time>
      </trkpt>
      <trkpt lat="36.88541" lon="-3.30201">
        <ele>655.297721</ele>
        <time>2022-02-25T09:14:59.481Z</time>
      </trkpt>
      <trkpt lat="36.88421" lon="-3.30248">
        <ele>654.422945</ele>
        <time>2022-02-25T09:15:25.823Z</time>
      </trkpt>
      <trkpt lat="36.88396" lon="-3.3025">
        <ele>654.25376</ele>
        <time>2022-02-25T09:15:31.088Z</time>
      </trkpt>
      <trkpt lat="36.88365" lon="-3.30242">
        <ele>654.410126</ele>
        <time>2022-02-25T09:15:37.966Z</time>
      </trkpt>
      <trkpt lat="36.88336" lon="-3.30221">
        <ele>654.821608</ele>
        <time>2022-02-25T09:15:45.776Z</time>
      </trkpt>
      <trkpt lat="36.88285" lon="-3.30149">
        <ele>655.770352</ele>
        <time>2022-02-25T09:16:07.338Z</time>
      </trkpt>
      <trkpt lat="36.88266" lon="-3.30134">
        <ele>656.04714</ele>
        <time>2022-02-25T09:16:14.900Z</time>
      </trkpt>
      <trkpt lat="36.88244" lon="-3.30125">
        <ele>656.330203</ele>
        <time>2022-02-25T09:16:22.468Z</time>
      </trkpt>
      <trkpt lat="36.88171" lon="-3.30121">
        <ele>658.178972</ele>
        <time>2022-02-25T09:16:50.279Z</time>
      </trkpt>
      <trkpt lat="36.88142" lon="-3.30105">
        <ele>658.991506</ele>
        <time>2022-02-25T09:17:03.652Z</time>
      </trkpt>
      <trkpt lat="36.88113" lon="-3.30081">
        <ele>659.894696</ele>
        <time>2022-02-25T09:17:16.546Z</time>
      </trkpt>
      <trkpt lat="36.88075" lon="-3.30031">
        <ele>661.027528</ele>
        <time>2022-02-25T09:17:34.284Z</time>
      </trkpt>
      <trkpt lat="36.88056" lon="-3.30013">
        <ele>660.975096</ele>
        <time>2022-02-25T09:17:39.914Z</time>
      </trkpt>
      <trkpt lat="36.88041" lon="-3.30003">
        <ele>660.936092</ele>
        <time>2022-02-25T09:17:43.645Z</time>
      </trkpt>
      <trkpt lat="36.88033" lon="-3.30002">
        <ele>660.918298</ele>
        <time>2022-02-25T09:17:45.343Z</time>
      </trkpt>
      <trkpt lat="36.87999" lon="-3.30014">
        <ele>660.840963</ele>
        <time>2022-02-25T09:17:52.521Z</time>
      </trkpt>
      <trkpt lat="36.87978" lon="-3.30015">
        <ele>660.793449</ele>
        <time>2022-02-25T09:17:56.691Z</time>
      </trkpt>
      <trkpt lat="36.87929" lon="-3.30018">
        <ele>660.684868</ele>
        <time>2022-02-25T09:18:07.586Z</time>
      </trkpt>
      <trkpt lat="36.87921" lon="-3.3002">
        <ele>660.667355</ele>
        <time>2022-02-25T09:18:09.544Z</time>
      </trkpt>
      <trkpt lat="36.87915" lon="-3.30026">
        <ele>660.645195</ele>
        <time>2022-02-25T09:18:10.968Z</time>
      </trkpt>
      <trkpt lat="36.87912" lon="-3.3003">
        <ele>660.597796</ele>
        <time>2022-02-25T09:18:11.835Z</time>
      </trkpt>
      <trkpt lat="36.87907" lon="-3.30036">
        <ele>660.517241</ele>
        <time>2022-02-25T09:18:13.306Z</time>
      </trkpt>
      <trkpt lat="36.87903" lon="-3.30041">
        <ele>660.462197</ele>
        <time>2022-02-25T09:18:14.297Z</time>
      </trkpt>
      <trkpt lat="36.87852" lon="-3.30109">
        <ele>659.665745</ele>
        <time>2022-02-25T09:18:27.221Z</time>
      </trkpt>
      <trkpt lat="36.87845" lon="-3.30118">
        <ele>659.558076</ele>
        <time>2022-02-25T09:18:29.181Z</time>
      </trkpt>
      <trkpt lat="36.87837" lon="-3.30139">
        <ele>659.356192</ele>
        <time>2022-02-25T09:18:32.681Z</time>
      </trkpt>
      <trkpt lat="36.87835" lon="-3.30155">
        <ele>659.215301</ele>
        <time>2022-02-25T09:18:35.750Z</time>
      </trkpt>
      <trkpt lat="36.87844" lon="-3.30188">
        <ele>658.917799</ele>
        <time>2022-02-25T09:18:41.433Z</time>
      </trkpt>
      <trkpt lat="36.87886" lon="-3.30216">
        <ele>658.889543</ele>
        <time>2022-02-25T09:18:55.560Z</time>
      </trkpt>
      <trkpt lat="36.87895" lon="-3.30221">
        <ele>658.946153</ele>
        <time>2022-02-25T09:18:58.556Z</time>
      </trkpt>
      <trkpt lat="36.87906" lon="-3.30228">
        <ele>659.011673</ele>
        <time>2022-02-25T09:19:02.592Z</time>
      </trkpt>
      <trkpt lat="36.87919" lon="-3.3024">
        <ele>659.101993</ele>
        <time>2022-02-25T09:19:08.530Z</time>
      </trkpt>
      <trkpt lat="36.88005" lon="-3.3033">
        <ele>659.720346</ele>
        <time>2022-02-25T09:19:33.839Z</time>
      </trkpt>
      <trkpt lat="36.88018" lon="-3.30352">
        <ele>660.015931</ele>
        <time>2022-02-25T09:19:38.296Z</time>
      </trkpt>
      <trkpt lat="36.88035" lon="-3.30406">
        <ele>660.629407</ele>
        <time>2022-02-25T09:19:49.255Z</time>
      </trkpt>
      <trkpt lat="36.88041" lon="-3.30423">
        <ele>660.835981</ele>
        <time>2022-02-25T09:19:52.409Z</time>
      </trkpt>
      <trkpt lat="36.88055" lon="-3.30441">
        <ele>661.095478</ele>
        <time>2022-02-25T09:20:01.439Z</time>
      </trkpt>
      <trkpt lat="36.88074" lon="-3.30453">
        <ele>661.385492</ele>
        <time>2022-02-25T09:20:08.245Z</time>
      </trkpt>
      <trkpt lat="36.88121" lon="-3.30467">
        <ele>662.019799</ele>
        <time>2022-02-25T09:20:25.781Z</time>
      </trkpt>
      <trkpt lat="36.88142" lon="-3.30483">
        <ele>662.639383</ele>
        <time>2022-02-25T09:20:32.585Z</time>
      </trkpt>
      <trkpt lat="36.88158" lon="-3.30503">
        <ele>663.2916</ele>
        <time>2022-02-25T09:20:39.038Z</time>
      </trkpt>
      <trkpt lat="36.88176" lon="-3.30539">
        <ele>664.266186</ele>
        <time>2022-02-25T09:20:49.225Z</time>
      </trkpt>
      <trkpt lat="36.88188" lon="-3.30558">
        <ele>664.850287</ele>
        <time>2022-02-25T09:20:56.521Z</time>
      </trkpt>
      <trkpt lat="36.8821" lon="-3.30573">
        <ele>665.556064</ele>
        <time>2022-02-25T09:21:05.877Z</time>
      </trkpt>
      <trkpt lat="36.8826" lon="-3.30582">
        <ele>667.024226</ele>
        <time>2022-02-25T09:21:28.115Z</time>
      </trkpt>
      <trkpt lat="36.88314" lon="-3.30611">
        <ele>669.215651</ele>
        <time>2022-02-25T09:21:53.875Z</time>
      </trkpt>
      <trkpt lat="36.88385" lon="-3.30629">
        <ele>672.080804</ele>
        <time>2022-02-25T09:22:19.553Z</time>
      </trkpt>
      <trkpt lat="36.88403" lon="-3.30643">
        <ele>672.899011</ele>
        <time>2022-02-25T09:22:28.187Z</time>
      </trkpt>
      <trkpt lat="36.88449" lon="-3.307">
        <ele>676.376169</ele>
        <time>2022-02-25T09:22:57.250Z</time>
      </trkpt>
      <trkpt lat="36.88571" lon="-3.30768">
        <ele>686.187268</ele>
        <time>2022-02-25T09:24:21.869Z</time>
      </trkpt>
      <trkpt lat="36.88585" lon="-3.30785">
        <ele>687.6407</ele>
        <time>2022-02-25T09:24:35.233Z</time>
      </trkpt>
      <trkpt lat="36.88596" lon="-3.30812">
        <ele>688.85061</ele>
        <time>2022-02-25T09:24:49.737Z</time>
      </trkpt>
      <trkpt lat="36.88599" lon="-3.30828">
        <ele>689.524645</ele>
        <time>2022-02-25T09:24:57.733Z</time>
      </trkpt>
      <trkpt lat="36.88597" lon="-3.3086">
        <ele>690.829165</ele>
        <time>2022-02-25T09:25:13.119Z</time>
      </trkpt>
      <trkpt lat="36.88584" lon="-3.30896">
        <ele>692.42507</ele>
        <time>2022-02-25T09:25:30.985Z</time>
      </trkpt>
      <trkpt lat="36.88465" lon="-3.31149">
        <ele>699.567581</ele>
        <time>2022-02-25T09:26:50.273Z</time>
      </trkpt>
      <trkpt lat="36.88447" lon="-3.31201">
        <ele>700.136537</ele>
        <time>2022-02-25T09:27:00.647Z</time>
      </trkpt>
      <trkpt lat="36.88438" lon="-3.3127">
        <ele>700.184381</ele>
        <time>2022-02-25T09:27:15.117Z</time>
      </trkpt>
      <trkpt lat="36.88428" lon="-3.31309">
        <ele>700.213122</ele>
        <time>2022-02-25T09:27:22.377Z</time>
      </trkpt>
      <trkpt lat="36.88372" lon="-3.31431">
        <ele>699.74768</ele>
        <time>2022-02-25T09:27:46.312Z</time>
      </trkpt>
      <trkpt lat="36.88364" lon="-3.31455">
        <ele>699.430996</ele>
        <time>2022-02-25T09:27:50.298Z</time>
      </trkpt>
      <trkpt lat="36.88354" lon="-3.31529">
        <ele>698.549407</ele>
        <time>2022-02-25T09:28:01.683Z</time>
      </trkpt>
      <trkpt lat="36.88355" lon="-3.31575">
        <ele>698.013175</ele>
        <time>2022-02-25T09:28:08.341Z</time>
      </trkpt>
      <trkpt lat="36.88367" lon="-3.31642">
        <ele>696.93502</ele>
        <time>2022-02-25T09:28:18.206Z</time>
      </trkpt>
      <trkpt lat="36.88381" lon="-3.31699">
        <ele>695.821679</ele>
        <time>2022-02-25T09:28:27.025Z</time>
      </trkpt>
      <trkpt lat="36.88383" lon="-3.31738">
        <ele>695.082295</ele>
        <time>2022-02-25T09:28:32.736Z</time>
      </trkpt>
      <trkpt lat="36.88373" lon="-3.31789">
        <ele>694.09728</ele>
        <time>2022-02-25T09:28:40.161Z</time>
      </trkpt>
      <trkpt lat="36.88346" lon="-3.31889">
        <ele>691.524612</ele>
        <time>2022-02-25T09:28:54.806Z</time>
      </trkpt>
      <trkpt lat="36.88337" lon="-3.31953">
        <ele>689.726158</ele>
        <time>2022-02-25T09:29:03.613Z</time>
      </trkpt>
      <trkpt lat="36.88333" lon="-3.32023">
        <ele>687.8139</ele>
        <time>2022-02-25T09:29:12.809Z</time>
      </trkpt>
      <trkpt lat="36.88336" lon="-3.3213">
        <ele>684.308446</ele>
        <time>2022-02-25T09:29:27.111Z</time>
      </trkpt>
      <trkpt lat="36.88331" lon="-3.32168">
        <ele>682.971512</ele>
        <time>2022-02-25T09:29:32.420Z</time>
      </trkpt>
      <trkpt lat="36.88315" lon="-3.32204">
        <ele>681.557021</ele>
        <time>2022-02-25T09:29:37.825Z</time>
      </trkpt>
      <trkpt lat="36.88263" lon="-3.32273">
        <ele>678.18261</ele>
        <time>2022-02-25T09:29:49.597Z</time>
      </trkpt>
      <trkpt lat="36.88242" lon="-3.32316">
        <ele>676.222087</ele>
        <time>2022-02-25T09:29:55.867Z</time>
      </trkpt>
      <trkpt lat="36.88213" lon="-3.32415">
        <ele>672.099912</ele>
        <time>2022-02-25T09:30:09.257Z</time>
      </trkpt>
      <trkpt lat="36.88195" lon="-3.32446">
        <ele>670.720718</ele>
        <time>2022-02-25T09:30:14.341Z</time>
      </trkpt>
      <trkpt lat="36.88177" lon="-3.32462">
        <ele>670.225308</ele>
        <time>2022-02-25T09:30:18.037Z</time>
      </trkpt>
      <trkpt lat="36.88152" lon="-3.32474">
        <ele>669.598426</ele>
        <time>2022-02-25T09:30:22.791Z</time>
      </trkpt>
      <trkpt lat="36.8812" lon="-3.32476">
        <ele>668.868244</ele>
        <time>2022-02-25T09:30:28.943Z</time>
      </trkpt>
      <trkpt lat="36.88042" lon="-3.32441">
        <ele>666.980845</ele>
        <time>2022-02-25T09:30:45.537Z</time>
      </trkpt>
      <trkpt lat="36.88009" lon="-3.32438">
        <ele>666.006287</ele>
        <time>2022-02-25T09:30:51.141Z</time>
      </trkpt>
      <trkpt lat="36.87986" lon="-3.32446">
        <ele>665.215516</ele>
        <time>2022-02-25T09:30:54.979Z</time>
      </trkpt>
      <trkpt lat="36.87968" lon="-3.32462">
        <ele>664.498293</ele>
        <time>2022-02-25T09:30:58.597Z</time>
      </trkpt>
      <trkpt lat="36.87944" lon="-3.32504">
        <ele>663.128578</ele>
        <time>2022-02-25T09:31:05.770Z</time>
      </trkpt>
      <trkpt lat="36.87941" lon="-3.32556">
        <ele>661.748281</ele>
        <time>2022-02-25T09:31:12.717Z</time>
      </trkpt>
      <trkpt lat="36.87957" lon="-3.32616">
        <ele>660.391976</ele>
        <time>2022-02-25T09:31:21.242Z</time>
      </trkpt>
      <trkpt lat="36.87968" lon="-3.32653">
        <ele>659.823757</ele>
        <time>2022-02-25T09:31:26.766Z</time>
      </trkpt>
      <trkpt lat="36.87972" lon="-3.32699">
        <ele>659.161829</ele>
        <time>2022-02-25T09:31:33.310Z</time>
      </trkpt>
      <trkpt lat="36.87965" lon="-3.32738">
        <ele>658.578538</ele>
        <time>2022-02-25T09:31:39.321Z</time>
      </trkpt>
      <trkpt lat="36.87949" lon="-3.32771">
        <ele>658.036889</ele>
        <time>2022-02-25T09:31:45.972Z</time>
      </trkpt>
      <trkpt lat="36.8789" lon="-3.32835">
        <ele>656.792094</ele>
        <time>2022-02-25T09:32:04.439Z</time>
      </trkpt>
      <trkpt lat="36.87878" lon="-3.32855">
        <ele>656.509147</ele>
        <time>2022-02-25T09:32:07.809Z</time>
      </trkpt>
      <trkpt lat="36.87871" lon="-3.32878">
        <ele>656.21375</ele>
        <time>2022-02-25T09:32:11.905Z</time>
      </trkpt>
      <trkpt lat="36.87876" lon="-3.32917">
        <ele>655.762144</ele>
        <time>2022-02-25T09:32:17.636Z</time>
      </trkpt>
      <trkpt lat="36.87889" lon="-3.32939">
        <ele>655.433566</ele>
        <time>2022-02-25T09:32:21.394Z</time>
      </trkpt>
      <trkpt lat="36.87982" lon="-3.33033">
        <ele>653.691332</ele>
        <time>2022-02-25T09:32:43.395Z</time>
      </trkpt>
      <trkpt lat="36.88004" lon="-3.33086">
        <ele>652.986923</ele>
        <time>2022-02-25T09:32:53.255Z</time>
      </trkpt>
      <trkpt lat="36.88007" lon="-3.33138">
        <ele>652.377676</ele>
        <time>2022-02-25T09:33:01.465Z</time>
      </trkpt>
      <trkpt lat="36.8799" lon="-3.33228">
        <ele>651.063422</ele>
        <time>2022-02-25T09:33:15.813Z</time>
      </trkpt>
      <trkpt lat="36.87989" lon="-3.33259">
        <ele>650.599218</ele>
        <time>2022-02-25T09:33:20.571Z</time>
      </trkpt>
      <trkpt lat="36.87999" lon="-3.333">
        <ele>649.982908</ele>
        <time>2022-02-25T09:33:26.481Z</time>
      </trkpt>
      <trkpt lat="36.88045" lon="-3.33391">
        <ele>648.376625</ele>
        <time>2022-02-25T09:33:42.133Z</time>
      </trkpt>
      <trkpt lat="36.88053" lon="-3.33421">
        <ele>647.895566</ele>
        <time>2022-02-25T09:33:46.735Z</time>
      </trkpt>
      <trkpt lat="36.88055" lon="-3.33461">
        <ele>647.29666</ele>
        <time>2022-02-25T09:33:52.578Z</time>
      </trkpt>
      <trkpt lat="36.88052" lon="-3.33483">
        <ele>646.944681</ele>
        <time>2022-02-25T09:33:56.162Z</time>
      </trkpt>
      <trkpt lat="36.88026" lon="-3.33581">
        <ele>645.222813</ele>
        <time>2022-02-25T09:34:11.670Z</time>
      </trkpt>
      <trkpt lat="36.88033" lon="-3.3373">
        <ele>641.265697</ele>
        <time>2022-02-25T09:34:33.019Z</time>
      </trkpt>
      <trkpt lat="36.88031" lon="-3.3377">
        <ele>640.207542</ele>
        <time>2022-02-25T09:34:38.193Z</time>
      </trkpt>
      <trkpt lat="36.88016" lon="-3.3383">
        <ele>636.971161</ele>
        <time>2022-02-25T09:34:45.821Z</time>
      </trkpt>
      <trkpt lat="36.87988" lon="-3.33888">
        <ele>632.459379</ele>
        <time>2022-02-25T09:34:53.771Z</time>
      </trkpt>
      <trkpt lat="36.8795" lon="-3.33931">
        <ele>628.203858</ele>
        <time>2022-02-25T09:35:01.141Z</time>
      </trkpt>
      <trkpt lat="36.87888" lon="-3.33982">
        <ele>622.000772</ele>
        <time>2022-02-25T09:35:11.747Z</time>
      </trkpt>
      <trkpt lat="36.87844" lon="-3.34047">
        <ele>616.149498</ele>
        <time>2022-02-25T09:35:21.573Z</time>
      </trkpt>
      <trkpt lat="36.87826" lon="-3.34063">
        <ele>614.230108</ele>
        <time>2022-02-25T09:35:24.835Z</time>
      </trkpt>
      <trkpt lat="36.87788" lon="-3.34073">
        <ele>610.881256</ele>
        <time>2022-02-25T09:35:30.662Z</time>
      </trkpt>
      <trkpt lat="36.87632" lon="-3.34079">
        <ele>595.721409</ele>
        <time>2022-02-25T09:35:53.064Z</time>
      </trkpt>
      <trkpt lat="36.87594" lon="-3.3409">
        <ele>591.814813</ele>
        <time>2022-02-25T09:35:58.471Z</time>
      </trkpt>
      <trkpt lat="36.87563" lon="-3.34111">
        <ele>588.152024</ele>
        <time>2022-02-25T09:36:03.273Z</time>
      </trkpt>
      <trkpt lat="36.87544" lon="-3.34139">
        <ele>585.098344</ele>
        <time>2022-02-25T09:36:07.333Z</time>
      </trkpt>
      <trkpt lat="36.87534" lon="-3.34168">
        <ele>582.419596</ele>
        <time>2022-02-25T09:36:10.891Z</time>
      </trkpt>
      <trkpt lat="36.87534" lon="-3.34203">
        <ele>579.527217</ele>
        <time>2022-02-25T09:36:14.761Z</time>
      </trkpt>
      <trkpt lat="36.87544" lon="-3.34242">
        <ele>576.094948</ele>
        <time>2022-02-25T09:36:19.355Z</time>
      </trkpt>
      <trkpt lat="36.87552" lon="-3.34255">
        <ele>574.709598</ele>
        <time>2022-02-25T09:36:21.177Z</time>
      </trkpt>
      <trkpt lat="36.8756" lon="-3.34268">
        <ele>573.324249</ele>
        <time>2022-02-25T09:36:23.100Z</time>
      </trkpt>
      <trkpt lat="36.87589" lon="-3.34296">
        <ele>571.081532</ele>
        <time>2022-02-25T09:36:28.493Z</time>
      </trkpt>
      <trkpt lat="36.87624" lon="-3.34319">
        <ele>569.094918</ele>
        <time>2022-02-25T09:36:34.931Z</time>
      </trkpt>
      <trkpt lat="36.87684" lon="-3.34345">
        <ele>565.865551</ele>
        <time>2022-02-25T09:36:45.980Z</time>
      </trkpt>
      <trkpt lat="36.87742" lon="-3.34331">
        <ele>562.92147</ele>
        <time>2022-02-25T09:36:55.526Z</time>
      </trkpt>
      <trkpt lat="36.87793" lon="-3.34351">
        <ele>560.170216</ele>
        <time>2022-02-25T09:37:03.816Z</time>
      </trkpt>
      <trkpt lat="36.87836" lon="-3.34339">
        <ele>557.931431</ele>
        <time>2022-02-25T09:37:10.551Z</time>
      </trkpt>
      <trkpt lat="36.87917" lon="-3.3434">
        <ele>553.939417</ele>
        <time>2022-02-25T09:37:23.524Z</time>
      </trkpt>
      <trkpt lat="36.87931" lon="-3.34333">
        <ele>553.451914</ele>
        <time>2022-02-25T09:37:25.965Z</time>
      </trkpt>
      <trkpt lat="36.87972" lon="-3.34297">
        <ele>551.843068</ele>
        <time>2022-02-25T09:37:34.057Z</time>
      </trkpt>
      <trkpt lat="36.88031" lon="-3.34281">
        <ele>549.907665</ele>
        <time>2022-02-25T09:37:44.309Z</time>
      </trkpt>
      <trkpt lat="36.88093" lon="-3.34244">
        <ele>549.129016</ele>
        <time>2022-02-25T09:37:57.657Z</time>
      </trkpt>
      <trkpt lat="36.88139" lon="-3.34235">
        <ele>550.323862</ele>
        <time>2022-02-25T09:38:09.403Z</time>
      </trkpt>
      <trkpt lat="36.88181" lon="-3.34206">
        <ele>551.556083</ele>
        <time>2022-02-25T09:38:25.551Z</time>
      </trkpt>
      <trkpt lat="36.88277" lon="-3.34168">
        <ele>557.030994</ele>
        <time>2022-02-25T09:39:18.194Z</time>
      </trkpt>
      <trkpt lat="36.88326" lon="-3.34162">
        <ele>561.793282</ele>
        <time>2022-02-25T09:39:51.711Z</time>
      </trkpt>
      <trkpt lat="36.8838" lon="-3.34175">
        <ele>567.175073</ele>
        <time>2022-02-25T09:40:35.583Z</time>
      </trkpt>
      <trkpt lat="36.88408" lon="-3.34191">
        <ele>570.114782</ele>
        <time>2022-02-25T09:41:04.469Z</time>
      </trkpt>
      <trkpt lat="36.88434" lon="-3.34216">
        <ele>572.757083</ele>
        <time>2022-02-25T09:41:32.797Z</time>
      </trkpt>
      <trkpt lat="36.88451" lon="-3.34245">
        <ele>574.956321</ele>
        <time>2022-02-25T09:41:53.374Z</time>
      </trkpt>
      <trkpt lat="36.8846" lon="-3.34273">
        <ele>576.780301</ele>
        <time>2022-02-25T09:42:08.345Z</time>
      </trkpt>
      <trkpt lat="36.88471" lon="-3.34348">
        <ele>581.478583</ele>
        <time>2022-02-25T09:42:44.346Z</time>
      </trkpt>
      <trkpt lat="36.88485" lon="-3.344">
        <ele>584.229022</ele>
        <time>2022-02-25T09:43:01.655Z</time>
      </trkpt>
      <trkpt lat="36.88505" lon="-3.34433">
        <ele>583.252545</ele>
        <time>2022-02-25T09:43:12.402Z</time>
      </trkpt>
      <trkpt lat="36.88544" lon="-3.34498">
        <ele>581.36093</ele>
        <time>2022-02-25T09:43:24.600Z</time>
      </trkpt>
      <trkpt lat="36.88595" lon="-3.34617">
        <ele>577.716779</ele>
        <time>2022-02-25T09:43:40.513Z</time>
      </trkpt>
      <trkpt lat="36.88613" lon="-3.3464">
        <ele>576.5549</ele>
        <time>2022-02-25T09:43:44.486Z</time>
      </trkpt>
      <trkpt lat="36.8863" lon="-3.34649">
        <ele>575.741716</ele>
        <time>2022-02-25T09:43:47.262Z</time>
      </trkpt>
      <trkpt lat="36.88691" lon="-3.34653">
        <ele>573.045866</ele>
        <time>2022-02-25T09:43:57.374Z</time>
      </trkpt>
      <trkpt lat="36.8875" lon="-3.34665">
        <ele>571.918305</ele>
        <time>2022-02-25T09:44:08.601Z</time>
      </trkpt>
      <trkpt lat="36.88781" lon="-3.34681">
        <ele>573.412647</ele>
        <time>2022-02-25T09:44:16.721Z</time>
      </trkpt>
      <trkpt lat="36.88817" lon="-3.34718">
        <ele>575.524318</ele>
        <time>2022-02-25T09:44:42.152Z</time>
      </trkpt>
      <trkpt lat="36.8884" lon="-3.34761">
        <ele>577.383787</ele>
        <time>2022-02-25T09:45:05.328Z</time>
      </trkpt>
      <trkpt lat="36.88846" lon="-3.34793">
        <ele>578.553313</ele>
        <time>2022-02-25T09:45:21.448Z</time>
      </trkpt>
      <trkpt lat="36.88848" lon="-3.34848">
        <ele>580.470079</ele>
        <time>2022-02-25T09:45:48.483Z</time>
      </trkpt>
      <trkpt lat="36.88837" lon="-3.34888">
        <ele>581.881302</ele>
        <time>2022-02-25T09:46:07.352Z</time>
      </trkpt>
      <trkpt lat="36.88845" lon="-3.3489">
        <ele>582.241918</ele>
        <time>2022-02-25T09:46:11.124Z</time>
      </trkpt>
      <trkpt lat="36.88849" lon="-3.349">
        <ele>582.621593</ele>
        <time>2022-02-25T09:46:16.742Z</time>
      </trkpt>
      <trkpt lat="36.88848" lon="-3.34913">
        <ele>583.069946</ele>
        <time>2022-02-25T09:46:23.919Z</time>
      </trkpt>
      <trkpt lat="36.88801" lon="-3.35004">
        <ele>586.732023</ele>
        <time>2022-02-25T09:47:08.998Z</time>
      </trkpt>
      <trkpt lat="36.88787" lon="-3.35062">
        <ele>585.586787</ele>
        <time>2022-02-25T09:47:26.413Z</time>
      </trkpt>
      <trkpt lat="36.88778" lon="-3.35072">
        <ele>585.241041</ele>
        <time>2022-02-25T09:47:30.359Z</time>
      </trkpt>
      <trkpt lat="36.8877" lon="-3.351">
        <ele>584.584922</ele>
        <time>2022-02-25T09:47:37.812Z</time>
      </trkpt>
      <trkpt lat="36.88735" lon="-3.3528">
        <ele>578.401611</ele>
        <time>2022-02-25T09:48:20.868Z</time>
      </trkpt>
      <trkpt lat="36.88736" lon="-3.35348">
        <ele>574.643832</ele>
        <time>2022-02-25T09:48:35.647Z</time>
      </trkpt>
      <trkpt lat="36.88728" lon="-3.35464">
        <ele>567.49793</ele>
        <time>2022-02-25T09:49:00.566Z</time>
      </trkpt>
      <trkpt lat="36.88713" lon="-3.35494">
        <ele>564.547343</ele>
        <time>2022-02-25T09:49:07.877Z</time>
      </trkpt>
      <trkpt lat="36.8869" lon="-3.35567">
        <ele>557.960904</ele>
        <time>2022-02-25T09:49:24.028Z</time>
      </trkpt>
      <trkpt lat="36.88687" lon="-3.35657">
        <ele>550.45086</ele>
        <time>2022-02-25T09:49:42.033Z</time>
      </trkpt>
      <trkpt lat="36.88697" lon="-3.35698">
        <ele>546.337374</ele>
        <time>2022-02-25T09:49:50.654Z</time>
      </trkpt>
      <trkpt lat="36.88689" lon="-3.35728">
        <ele>543.307142</ele>
        <time>2022-02-25T09:49:57.023Z</time>
      </trkpt>
      <trkpt lat="36.88684" lon="-3.35772">
        <ele>539.139475</ele>
        <time>2022-02-25T09:50:05.757Z</time>
      </trkpt>
      <trkpt lat="36.88689" lon="-3.35797">
        <ele>536.68941</ele>
        <time>2022-02-25T09:50:10.877Z</time>
      </trkpt>
      <trkpt lat="36.88678" lon="-3.35885">
        <ele>528.437037</ele>
        <time>2022-02-25T09:50:28.617Z</time>
      </trkpt>
      <trkpt lat="36.88679" lon="-3.35941">
        <ele>524.019748</ele>
        <time>2022-02-25T09:50:40.061Z</time>
      </trkpt>
      <trkpt lat="36.88686" lon="-3.35986">
        <ele>520.386179</ele>
        <time>2022-02-25T09:50:49.505Z</time>
      </trkpt>
      <trkpt lat="36.8868" lon="-3.3602">
        <ele>517.709157</ele>
        <time>2022-02-25T09:50:56.581Z</time>
      </trkpt>
      <trkpt lat="36.88673" lon="-3.36149">
        <ele>508.58038</ele>
        <time>2022-02-25T09:51:24.010Z</time>
      </trkpt>
      <trkpt lat="36.88683" lon="-3.36211">
        <ele>504.874834</ele>
        <time>2022-02-25T09:51:37.680Z</time>
      </trkpt>
      <trkpt lat="36.88778" lon="-3.36442">
        <ele>491.088921</ele>
        <time>2022-02-25T09:52:35.076Z</time>
      </trkpt>
      <trkpt lat="36.888" lon="-3.36475">
        <ele>488.992453</ele>
        <time>2022-02-25T09:52:45.033Z</time>
      </trkpt>
      <trkpt lat="36.88834" lon="-3.36516">
        <ele>485.181344</ele>
        <time>2022-02-25T09:52:58.774Z</time>
      </trkpt>
      <trkpt lat="36.88898" lon="-3.36537">
        <ele>478.119613</ele>
        <time>2022-02-25T09:53:16.351Z</time>
      </trkpt>
      <trkpt lat="36.88936" lon="-3.36539">
        <ele>474.022125</ele>
        <time>2022-02-25T09:53:25.962Z</time>
      </trkpt>
      <trkpt lat="36.88955" lon="-3.36568">
        <ele>470.856571</ele>
        <time>2022-02-25T09:53:33.290Z</time>
      </trkpt>
      <trkpt lat="36.89006" lon="-3.36738">
        <ele>445.480588</ele>
        <time>2022-02-25T09:54:07.638Z</time>
      </trkpt>
      <trkpt lat="36.8901" lon="-3.36791">
        <ele>437.518939</ele>
        <time>2022-02-25T09:54:17.391Z</time>
      </trkpt>
      <trkpt lat="36.89026" lon="-3.36823">
        <ele>431.391372</ele>
        <time>2022-02-25T09:54:24.585Z</time>
      </trkpt>
      <trkpt lat="36.89034" lon="-3.3689">
        <ele>420.136371</ele>
        <time>2022-02-25T09:54:37.043Z</time>
      </trkpt>
      <trkpt lat="36.89069" lon="-3.36935">
        <ele>409.602758</ele>
        <time>2022-02-25T09:54:48.611Z</time>
      </trkpt>
      <trkpt lat="36.89092" lon="-3.3699">
        <ele>399.099122</ele>
        <time>2022-02-25T09:55:00.221Z</time>
      </trkpt>
      <trkpt lat="36.89087" lon="-3.37018">
        <ele>395.066578</ele>
        <time>2022-02-25T09:55:05.538Z</time>
      </trkpt>
      <trkpt lat="36.89052" lon="-3.37066">
        <ele>387.685798</ele>
        <time>2022-02-25T09:55:17.853Z</time>
      </trkpt>
      <trkpt lat="36.891" lon="-3.37119">
        <ele>378.691726</ele>
        <time>2022-02-25T09:55:33.257Z</time>
      </trkpt>
      <trkpt lat="36.891" lon="-3.37155">
        <ele>374.673628</ele>
        <time>2022-02-25T09:55:40.361Z</time>
      </trkpt>
      <trkpt lat="36.89057" lon="-3.37262">
        <ele>369.617239</ele>
        <time>2022-02-25T09:56:07.707Z</time>
      </trkpt>
      <trkpt lat="36.89049" lon="-3.37317">
        <ele>368.671319</ele>
        <time>2022-02-25T09:56:26.392Z</time>
      </trkpt>
      <trkpt lat="36.89018" lon="-3.37425">
        <ele>366.78926</ele>
        <time>2022-02-25T09:57:06.121Z</time>
      </trkpt>
      <trkpt lat="36.89002" lon="-3.37533">
        <ele>365.082273</ele>
        <time>2022-02-25T09:57:36.217Z</time>
      </trkpt>
      <trkpt lat="36.88971" lon="-3.37659">
        <ele>361.836562</ele>
        <time>2022-02-25T09:58:06.964Z</time>
      </trkpt>
      <trkpt lat="36.8894" lon="-3.37749">
        <ele>358.025674</ele>
        <time>2022-02-25T09:58:29.088Z</time>
      </trkpt>
      <trkpt lat="36.88926" lon="-3.37792">
        <ele>356.190745</ele>
        <time>2022-02-25T09:58:39.884Z</time>
      </trkpt>
      <trkpt lat="36.88924" lon="-3.37947">
        <ele>351.863144</ele>
        <time>2022-02-25T09:59:17.096Z</time>
      </trkpt>
      <trkpt lat="36.88919" lon="-3.38012">
        <ele>350.206252</ele>
        <time>2022-02-25T09:59:33.967Z</time>
      </trkpt>
      <trkpt lat="36.8893" lon="-3.38082">
        <ele>348.893705</ele>
        <time>2022-02-25T09:59:52.245Z</time>
      </trkpt>
      <trkpt lat="36.88933" lon="-3.38167">
        <ele>347.836395</ele>
        <time>2022-02-25T10:00:14.464Z</time>
      </trkpt>
      <trkpt lat="36.8893" lon="-3.38218">
        <ele>347.191981</ele>
        <time>2022-02-25T10:00:28.321Z</time>
      </trkpt>
      <trkpt lat="36.88911" lon="-3.38298">
        <ele>346.318224</ele>
        <time>2022-02-25T10:00:51.505Z</time>
      </trkpt>
      <trkpt lat="36.88878" lon="-3.38368">
        <ele>345.712685</ele>
        <time>2022-02-25T10:01:14.593Z</time>
      </trkpt>
      <trkpt lat="36.88864" lon="-3.38437">
        <ele>345.181474</ele>
        <time>2022-02-25T10:01:34.484Z</time>
      </trkpt>
      <trkpt lat="36.88868" lon="-3.38485">
        <ele>344.768149</ele>
        <time>2022-02-25T10:01:47.363Z</time>
      </trkpt>
      <trkpt lat="36.88895" lon="-3.38534">
        <ele>343.835228</ele>
        <time>2022-02-25T10:02:03.186Z</time>
      </trkpt>
      <trkpt lat="36.88911" lon="-3.38621">
        <ele>342.440597</ele>
        <time>2022-02-25T10:02:26.368Z</time>
      </trkpt>
      <trkpt lat="36.88916" lon="-3.3868">
        <ele>341.510697</ele>
        <time>2022-02-25T10:02:41.554Z</time>
      </trkpt>
      <trkpt lat="36.88908" lon="-3.38742">
        <ele>340.442888</ele>
        <time>2022-02-25T10:02:57.517Z</time>
      </trkpt>
      <trkpt lat="36.88913" lon="-3.388">
        <ele>339.429741</ele>
        <time>2022-02-25T10:03:12.574Z</time>
      </trkpt>
      <trkpt lat="36.88912" lon="-3.38892">
        <ele>337.851126</ele>
        <time>2022-02-25T10:03:36.372Z</time>
      </trkpt>
      <trkpt lat="36.88933" lon="-3.39021">
        <ele>336.158712</ele>
        <time>2022-02-25T10:04:11.139Z</time>
      </trkpt>
      <trkpt lat="36.88926" lon="-3.39091">
        <ele>335.298589</ele>
        <time>2022-02-25T10:04:30.193Z</time>
      </trkpt>
      <trkpt lat="36.88877" lon="-3.39257">
        <ele>333.651278</ele>
        <time>2022-02-25T10:05:18.676Z</time>
      </trkpt>
      <trkpt lat="36.88852" lon="-3.39325">
        <ele>333.017884</ele>
        <time>2022-02-25T10:05:39.443Z</time>
      </trkpt>
      <trkpt lat="36.88791" lon="-3.39459">
        <ele>331.84209</ele>
        <time>2022-02-25T10:06:21.376Z</time>
      </trkpt>
      <trkpt lat="36.88744" lon="-3.3953">
        <ele>331.253638</ele>
        <time>2022-02-25T10:06:47.149Z</time>
      </trkpt>
      <trkpt lat="36.88724" lon="-3.39561">
        <ele>331.838246</ele>
        <time>2022-02-25T10:06:58.610Z</time>
      </trkpt>
      <trkpt lat="36.88681" lon="-3.39587">
        <ele>332.721162</ele>
        <time>2022-02-25T10:07:17.443Z</time>
      </trkpt>
      <trkpt lat="36.88647" lon="-3.39648">
        <ele>333.799193</ele>
        <time>2022-02-25T10:07:46.033Z</time>
      </trkpt>
      <trkpt lat="36.88635" lon="-3.39684">
        <ele>334.368438</ele>
        <time>2022-02-25T10:08:03.686Z</time>
      </trkpt>
      <trkpt lat="36.88608" lon="-3.3973">
        <ele>337.272951</ele>
        <time>2022-02-25T10:08:32.479Z</time>
      </trkpt>
      <trkpt lat="36.88579" lon="-3.39757">
        <ele>339.856353</ele>
        <time>2022-02-25T10:08:54.876Z</time>
      </trkpt>
      <trkpt lat="36.88572" lon="-3.39793">
        <ele>341.970103</ele>
        <time>2022-02-25T10:09:13.140Z</time>
      </trkpt>
      <trkpt lat="36.88506" lon="-3.39804">
        <ele>346.653183</ele>
        <time>2022-02-25T10:09:54.958Z</time>
      </trkpt>
      <trkpt lat="36.88485" lon="-3.39833">
        <ele>349.04355</ele>
        <time>2022-02-25T10:10:15.602Z</time>
      </trkpt>
      <trkpt lat="36.88483" lon="-3.39848">
        <ele>349.949101</ele>
        <time>2022-02-25T10:10:24.469Z</time>
      </trkpt>
      <trkpt lat="36.88498" lon="-3.3989">
        <ele>352.807856</ele>
        <time>2022-02-25T10:10:49.595Z</time>
      </trkpt>
      <trkpt lat="36.88497" lon="-3.39912">
        <ele>354.160587</ele>
        <time>2022-02-25T10:11:00.261Z</time>
      </trkpt>
      <trkpt lat="36.88506" lon="-3.39942">
        <ele>356.167099</ele>
        <time>2022-02-25T10:11:16.964Z</time>
      </trkpt>
      <trkpt lat="36.88486" lon="-3.39952">
        <ele>357.82678</ele>
        <time>2022-02-25T10:11:31.243Z</time>
      </trkpt>
      <trkpt lat="36.88498" lon="-3.4">
        <ele>360.876089</ele>
        <time>2022-02-25T10:11:53.895Z</time>
      </trkpt>
      <trkpt lat="36.88465" lon="-3.40012">
        <ele>362.27649</ele>
        <time>2022-02-25T10:12:10.457Z</time>
      </trkpt>
      <trkpt lat="36.8844" lon="-3.40087">
        <ele>364.764024</ele>
        <time>2022-02-25T10:12:38.925Z</time>
      </trkpt>
      <trkpt lat="36.88442" lon="-3.40109">
        <ele>365.445253</ele>
        <time>2022-02-25T10:12:45.693Z</time>
      </trkpt>
      <trkpt lat="36.88437" lon="-3.40128">
        <ele>366.081147</ele>
        <time>2022-02-25T10:12:51.494Z</time>
      </trkpt>
      <trkpt lat="36.88392" lon="-3.40164">
        <ele>368.052142</ele>
        <time>2022-02-25T10:13:10.807Z</time>
      </trkpt>
      <trkpt lat="36.88388" lon="-3.40206">
        <ele>368.809965</ele>
        <time>2022-02-25T10:13:21.614Z</time>
      </trkpt>
      <trkpt lat="36.88407" lon="-3.40264">
        <ele>369.934244</ele>
        <time>2022-02-25T10:13:37.038Z</time>
      </trkpt>
      <trkpt lat="36.88406" lon="-3.40277">
        <ele>370.182174</ele>
        <time>2022-02-25T10:13:40.814Z</time>
      </trkpt>
      <trkpt lat="36.88374" lon="-3.40428">
        <ele>373.887729</ele>
        <time>2022-02-25T10:14:25.559Z</time>
      </trkpt>
      <trkpt lat="36.88372" lon="-3.40481">
        <ele>375.70447</ele>
        <time>2022-02-25T10:14:43.577Z</time>
      </trkpt>
      <trkpt lat="36.88402" lon="-3.40521">
        <ele>377.588715</ele>
        <time>2022-02-25T10:15:05.223Z</time>
      </trkpt>
      <trkpt lat="36.88419" lon="-3.40575">
        <ele>379.594141</ele>
        <time>2022-02-25T10:15:28.888Z</time>
      </trkpt>
      <trkpt lat="36.8846" lon="-3.40648">
        <ele>382.133678</ele>
        <time>2022-02-25T10:16:05.027Z</time>
      </trkpt>
      <trkpt lat="36.8846" lon="-3.40676">
        <ele>382.926654</ele>
        <time>2022-02-25T10:16:16.184Z</time>
      </trkpt>
      <trkpt lat="36.8848" lon="-3.40744">
        <ele>384.979781</ele>
        <time>2022-02-25T10:16:38.164Z</time>
      </trkpt>
      <trkpt lat="36.88481" lon="-3.40825">
        <ele>385.151202</ele>
        <time>2022-02-25T10:16:54.254Z</time>
      </trkpt>
      <trkpt lat="36.88468" lon="-3.40946">
        <ele>382.462365</ele>
        <time>2022-02-25T10:17:11.046Z</time>
      </trkpt>
      <trkpt lat="36.88472" lon="-3.41022">
        <ele>380.552823</ele>
        <time>2022-02-25T10:17:20.571Z</time>
      </trkpt>
      <trkpt lat="36.88485" lon="-3.41143">
        <ele>376.046234</ele>
        <time>2022-02-25T10:17:36.082Z</time>
      </trkpt>
      <trkpt lat="36.88481" lon="-3.41205">
        <ele>373.74686</ele>
        <time>2022-02-25T10:17:44.262Z</time>
      </trkpt>
      <trkpt lat="36.88466" lon="-3.41235">
        <ele>372.402071</ele>
        <time>2022-02-25T10:17:49.025Z</time>
      </trkpt>
      <trkpt lat="36.88439" lon="-3.41257">
        <ele>370.826029</ele>
        <time>2022-02-25T10:17:54.354Z</time>
      </trkpt>
      <trkpt lat="36.88403" lon="-3.41278">
        <ele>368.879607</ele>
        <time>2022-02-25T10:18:00.953Z</time>
      </trkpt>
      <trkpt lat="36.8838" lon="-3.41307">
        <ele>367.272829</ele>
        <time>2022-02-25T10:18:06.365Z</time>
      </trkpt>
      <trkpt lat="36.88335" lon="-3.41514">
        <ele>355.599057</ele>
        <time>2022-02-25T10:18:32.352Z</time>
      </trkpt>
      <trkpt lat="36.88334" lon="-3.41534">
        <ele>354.272352</ele>
        <time>2022-02-25T10:18:34.711Z</time>
      </trkpt>
      <trkpt lat="36.88336" lon="-3.41584">
        <ele>351.106258</ele>
        <time>2022-02-25T10:18:40.296Z</time>
      </trkpt>
      <trkpt lat="36.88341" lon="-3.41648">
        <ele>346.777931</ele>
        <time>2022-02-25T10:18:47.614Z</time>
      </trkpt>
      <trkpt lat="36.88356" lon="-3.41775">
        <ele>338.004743</ele>
        <time>2022-02-25T10:19:02.120Z</time>
      </trkpt>
      <trkpt lat="36.88346" lon="-3.41799">
        <ele>336.191669</ele>
        <time>2022-02-25T10:19:05.299Z</time>
      </trkpt>
      <trkpt lat="36.88325" lon="-3.41815">
        <ele>334.232251</ele>
        <time>2022-02-25T10:19:09.428Z</time>
      </trkpt>
      <trkpt lat="36.88307" lon="-3.41818">
        <ele>334.881346</ele>
        <time>2022-02-25T10:19:12.102Z</time>
      </trkpt>
      <trkpt lat="36.8829" lon="-3.41813">
        <ele>335.52121</ele>
        <time>2022-02-25T10:19:17.614Z</time>
      </trkpt>
      <trkpt lat="36.88233" lon="-3.41766">
        <ele>337.940416</ele>
        <time>2022-02-25T10:19:39.576Z</time>
      </trkpt>
      <trkpt lat="36.8819" lon="-3.41689">
        <ele>340.648882</ele>
        <time>2022-02-25T10:20:29.232Z</time>
      </trkpt>
      <trkpt lat="36.88173" lon="-3.4167">
        <ele>342.977503</ele>
        <time>2022-02-25T10:20:46.981Z</time>
      </trkpt>
      <trkpt lat="36.88157" lon="-3.41663">
        <ele>344.731309</ele>
        <time>2022-02-25T10:21:02.134Z</time>
      </trkpt>
      <trkpt lat="36.88111" lon="-3.41665">
        <ele>349.460232</ele>
        <time>2022-02-25T10:21:39.275Z</time>
      </trkpt>
      <trkpt lat="36.8807" lon="-3.41639">
        <ele>354.182953</ele>
        <time>2022-02-25T10:22:13.941Z</time>
      </trkpt>
      <trkpt lat="36.8802" lon="-3.41621">
        <ele>359.34441</ele>
        <time>2022-02-25T10:22:51.818Z</time>
      </trkpt>
      <trkpt lat="36.88" lon="-3.41624">
        <ele>360.419397</ele>
        <time>2022-02-25T10:23:04.455Z</time>
      </trkpt>
      <trkpt lat="36.87982" lon="-3.41634">
        <ele>361.497564</ele>
        <time>2022-02-25T10:23:16.025Z</time>
      </trkpt>
      <trkpt lat="36.87957" lon="-3.4166">
        <ele>363.162108</ele>
        <time>2022-02-25T10:23:31.150Z</time>
      </trkpt>
      <trkpt lat="36.87949" lon="-3.41681">
        <ele>364.16404</ele>
        <time>2022-02-25T10:23:39.389Z</time>
      </trkpt>
      <trkpt lat="36.87948" lon="-3.41808">
        <ele>369.206954</ele>
        <time>2022-02-25T10:24:20.591Z</time>
      </trkpt>
      <trkpt lat="36.87953" lon="-3.41846">
        <ele>370.220092</ele>
        <time>2022-02-25T10:24:31.682Z</time>
      </trkpt>
      <trkpt lat="36.87982" lon="-3.41915">
        <ele>372.261929</ele>
        <time>2022-02-25T10:24:54.443Z</time>
      </trkpt>
      <trkpt lat="36.87994" lon="-3.41957">
        <ele>373.446733</ele>
        <time>2022-02-25T10:25:07.733Z</time>
      </trkpt>
      <trkpt lat="36.87989" lon="-3.42031">
        <ele>376.189352</ele>
        <time>2022-02-25T10:25:31.924Z</time>
      </trkpt>
      <trkpt lat="36.87989" lon="-3.42083">
        <ele>378.863427</ele>
        <time>2022-02-25T10:25:51.180Z</time>
      </trkpt>
      <trkpt lat="36.8798" lon="-3.42119">
        <ele>380.801692</ele>
        <time>2022-02-25T10:26:06.812Z</time>
      </trkpt>
      <trkpt lat="36.87955" lon="-3.42169">
        <ele>383.867467</ele>
        <time>2022-02-25T10:26:35.703Z</time>
      </trkpt>
      <trkpt lat="36.87904" lon="-3.42235">
        <ele>388.638638</ele>
        <time>2022-02-25T10:27:26.377Z</time>
      </trkpt>
      <trkpt lat="36.8789" lon="-3.42282">
        <ele>391.268063</ele>
        <time>2022-02-25T10:27:53.041Z</time>
      </trkpt>
      <trkpt lat="36.87879" lon="-3.42407">
        <ele>397.916381</ele>
        <time>2022-02-25T10:28:41.281Z</time>
      </trkpt>
      <trkpt lat="36.87916" lon="-3.42469">
        <ele>398.541657</ele>
        <time>2022-02-25T10:29:06.275Z</time>
      </trkpt>
      <trkpt lat="36.87919" lon="-3.42492">
        <ele>398.709292</ele>
        <time>2022-02-25T10:29:12.409Z</time>
      </trkpt>
      <trkpt lat="36.87912" lon="-3.4252">
        <ele>398.916002</ele>
        <time>2022-02-25T10:29:16.903Z</time>
      </trkpt>
      <trkpt lat="36.87877" lon="-3.42559">
        <ele>399.332775</ele>
        <time>2022-02-25T10:29:26.646Z</time>
      </trkpt>
      <trkpt lat="36.8787" lon="-3.42585">
        <ele>399.531955</ele>
        <time>2022-02-25T10:29:30.378Z</time>
      </trkpt>
      <trkpt lat="36.87876" lon="-3.42603">
        <ele>399.647868</ele>
        <time>2022-02-25T10:29:33.604Z</time>
      </trkpt>
      <trkpt lat="36.8792" lon="-3.42664">
        <ele>400.052516</ele>
        <time>2022-02-25T10:29:45.797Z</time>
      </trkpt>
      <trkpt lat="36.87927" lon="-3.4269">
        <ele>400.188147</ele>
        <time>2022-02-25T10:29:54.341Z</time>
      </trkpt>
      <trkpt lat="36.87909" lon="-3.42831">
        <ele>401.566421</ele>
        <time>2022-02-25T10:30:30.968Z</time>
      </trkpt>
      <trkpt lat="36.87916" lon="-3.42917">
        <ele>403.586853</ele>
        <time>2022-02-25T10:30:52.432Z</time>
      </trkpt>
      <trkpt lat="36.87915" lon="-3.43069">
        <ele>407.594425</ele>
        <time>2022-02-25T10:31:44.681Z</time>
      </trkpt>
      <trkpt lat="36.87911" lon="-3.43082">
        <ele>408.048877</ele>
        <time>2022-02-25T10:31:49.670Z</time>
      </trkpt>
      <trkpt lat="36.87893" lon="-3.43098">
        <ele>408.950943</ele>
        <time>2022-02-25T10:32:01.256Z</time>
      </trkpt>
      <trkpt lat="36.87771" lon="-3.43104">
        <ele>413.222925</ele>
        <time>2022-02-25T10:32:53.232Z</time>
      </trkpt>
      <trkpt lat="36.87753" lon="-3.43116">
        <ele>413.077487</ele>
        <time>2022-02-25T10:33:00.501Z</time>
      </trkpt>
      <trkpt lat="36.87747" lon="-3.43134">
        <ele>412.969888</ele>
        <time>2022-02-25T10:33:05.315Z</time>
      </trkpt>
      <trkpt lat="36.87757" lon="-3.43198">
        <ele>412.607041</ele>
        <time>2022-02-25T10:33:17.168Z</time>
      </trkpt>
      <trkpt lat="36.8775" lon="-3.4323">
        <ele>412.421227</ele>
        <time>2022-02-25T10:33:22.232Z</time>
      </trkpt>
      <trkpt lat="36.87693" lon="-3.43318">
        <ele>409.634034</ele>
        <time>2022-02-25T10:33:36.689Z</time>
      </trkpt>
      <trkpt lat="36.87646" lon="-3.43373">
        <ele>405.849219</ele>
        <time>2022-02-25T10:33:46.241Z</time>
      </trkpt>
      <trkpt lat="36.87629" lon="-3.43421">
        <ele>403.373033</ele>
        <time>2022-02-25T10:33:52.589Z</time>
      </trkpt>
      <trkpt lat="36.87622" lon="-3.4343">
        <ele>402.754758</ele>
        <time>2022-02-25T10:33:54.218Z</time>
      </trkpt>
      <trkpt lat="36.87604" lon="-3.43438">
        <ele>401.617041</ele>
        <time>2022-02-25T10:33:57.225Z</time>
      </trkpt>
      <trkpt lat="36.87475" lon="-3.43399">
        <ele>395.296994</ele>
        <time>2022-02-25T10:34:19.022Z</time>
      </trkpt>
      <trkpt lat="36.87447" lon="-3.434">
        <ele>393.933654</ele>
        <time>2022-02-25T10:34:23.579Z</time>
      </trkpt>
      <trkpt lat="36.87432" lon="-3.43413">
        <ele>393.0757</ele>
        <time>2022-02-25T10:34:26.380Z</time>
      </trkpt>
      <trkpt lat="36.8743" lon="-3.4344">
        <ele>391.680571</ele>
        <time>2022-02-25T10:34:29.658Z</time>
      </trkpt>
      <trkpt lat="36.87458" lon="-3.43478">
        <ele>388.791845</ele>
        <time>2022-02-25T10:34:35.911Z</time>
      </trkpt>
      <trkpt lat="36.87472" lon="-3.43508">
        <ele>386.89119</ele>
        <time>2022-02-25T10:34:39.985Z</time>
      </trkpt>
      <trkpt lat="36.87518" lon="-3.43664">
        <ele>378.19344</ele>
        <time>2022-02-25T10:34:59.847Z</time>
      </trkpt>
      <trkpt lat="36.87519" lon="-3.43686">
        <ele>377.235134</ele>
        <time>2022-02-25T10:35:02.439Z</time>
      </trkpt>
      <trkpt lat="36.87514" lon="-3.43699">
        <ele>376.601071</ele>
        <time>2022-02-25T10:35:04.145Z</time>
      </trkpt>
      <trkpt lat="36.87487" lon="-3.4374">
        <ele>374.226922</ele>
        <time>2022-02-25T10:35:10.712Z</time>
      </trkpt>
      <trkpt lat="36.87489" lon="-3.43762">
        <ele>373.237765</ele>
        <time>2022-02-25T10:35:13.552Z</time>
      </trkpt>
      <trkpt lat="36.87512" lon="-3.43819">
        <ele>370.432823</ele>
        <time>2022-02-25T10:35:22.027Z</time>
      </trkpt>
      <trkpt lat="36.87509" lon="-3.43855">
        <ele>369.898972</ele>
        <time>2022-02-25T10:35:27.123Z</time>
      </trkpt>
      <trkpt lat="36.87493" lon="-3.43879">
        <ele>369.43336</ele>
        <time>2022-02-25T10:35:31.671Z</time>
      </trkpt>
      <trkpt lat="36.87472" lon="-3.43892">
        <ele>368.994579</ele>
        <time>2022-02-25T10:35:35.942Z</time>
      </trkpt>
      <trkpt lat="36.87338" lon="-3.43914">
        <ele>365.908156</ele>
        <time>2022-02-25T10:36:02.534Z</time>
      </trkpt>
      <trkpt lat="36.87242" lon="-3.43947">
        <ele>362.370027</ele>
        <time>2022-02-25T10:36:20.834Z</time>
      </trkpt>
      <trkpt lat="36.87231" lon="-3.43958">
        <ele>361.850829</ele>
        <time>2022-02-25T10:36:23.126Z</time>
      </trkpt>
      <trkpt lat="36.87229" lon="-3.4398">
        <ele>361.234186</ele>
        <time>2022-02-25T10:36:25.694Z</time>
      </trkpt>
      <trkpt lat="36.87245" lon="-3.44004">
        <ele>359.771252</ele>
        <time>2022-02-25T10:36:29.361Z</time>
      </trkpt>
      <trkpt lat="36.8733" lon="-3.44039">
        <ele>351.609067</ele>
        <time>2022-02-25T10:36:42.162Z</time>
      </trkpt>
      <trkpt lat="36.87362" lon="-3.44072">
        <ele>347.823057</ele>
        <time>2022-02-25T10:36:47.957Z</time>
      </trkpt>
      <trkpt lat="36.87424" lon="-3.44106">
        <ele>343.591263</ele>
        <time>2022-02-25T10:36:57.755Z</time>
      </trkpt>
      <trkpt lat="36.8746" lon="-3.4414">
        <ele>342.454004</ele>
        <time>2022-02-25T10:37:04.676Z</time>
      </trkpt>
      <trkpt lat="36.87466" lon="-3.44161">
        <ele>342.010114</ele>
        <time>2022-02-25T10:37:07.546Z</time>
      </trkpt>
      <trkpt lat="36.87456" lon="-3.44248">
        <ele>340.230237</ele>
        <time>2022-02-25T10:37:26.885Z</time>
      </trkpt>
      <trkpt lat="36.8746" lon="-3.44279">
        <ele>340.117616</ele>
        <time>2022-02-25T10:37:37.140Z</time>
      </trkpt>
      <trkpt lat="36.87483" lon="-3.4436">
        <ele>343.26568</ele>
        <time>2022-02-25T10:38:07.763Z</time>
      </trkpt>
      <trkpt lat="36.87516" lon="-3.44522">
        <ele>349.739999</ele>
        <time>2022-02-25T10:39:11.772Z</time>
      </trkpt>
      <trkpt lat="36.87539" lon="-3.44585">
        <ele>352.985612</ele>
        <time>2022-02-25T10:39:40.818Z</time>
      </trkpt>
      <trkpt lat="36.87529" lon="-3.44707">
        <ele>358.698665</ele>
        <time>2022-02-25T10:40:33.625Z</time>
      </trkpt>
      <trkpt lat="36.87506" lon="-3.4479">
        <ele>362.268021</ele>
        <time>2022-02-25T10:41:07.442Z</time>
      </trkpt>
      <trkpt lat="36.87511" lon="-3.44813">
        <ele>363.24632</ele>
        <time>2022-02-25T10:41:15.676Z</time>
      </trkpt>
      <trkpt lat="36.87533" lon="-3.44859">
        <ele>365.442349</ele>
        <time>2022-02-25T10:41:35.345Z</time>
      </trkpt>
      <trkpt lat="36.87539" lon="-3.44945">
        <ele>369.327135</ele>
        <time>2022-02-25T10:42:07.252Z</time>
      </trkpt>
      <trkpt lat="36.87538" lon="-3.44966">
        <ele>370.422979</ele>
        <time>2022-02-25T10:42:17.292Z</time>
      </trkpt>
      <trkpt lat="36.87532" lon="-3.44992">
        <ele>371.868603</ele>
        <time>2022-02-25T10:42:26.624Z</time>
      </trkpt>
      <trkpt lat="36.87496" lon="-3.45039">
        <ele>375.229804</ele>
        <time>2022-02-25T10:42:56.452Z</time>
      </trkpt>
      <trkpt lat="36.87486" lon="-3.45056">
        <ele>376.332743</ele>
        <time>2022-02-25T10:43:04.841Z</time>
      </trkpt>
      <trkpt lat="36.87481" lon="-3.45078">
        <ele>377.536429</ele>
        <time>2022-02-25T10:43:17.917Z</time>
      </trkpt>
      <trkpt lat="36.87476" lon="-3.45196">
        <ele>383.199893</ele>
        <time>2022-02-25T10:44:15.306Z</time>
      </trkpt>
      <trkpt lat="36.87462" lon="-3.45307">
        <ele>388.318948</ele>
        <time>2022-02-25T10:44:59.569Z</time>
      </trkpt>
      <trkpt lat="36.87467" lon="-3.45404">
        <ele>391.284038</ele>
        <time>2022-02-25T10:45:27.563Z</time>
      </trkpt>
      <trkpt lat="36.87456" lon="-3.45448">
        <ele>392.338976</ele>
        <time>2022-02-25T10:45:41.337Z</time>
      </trkpt>
      <trkpt lat="36.87439" lon="-3.45463">
        <ele>392.922933</ele>
        <time>2022-02-25T10:45:50.080Z</time>
      </trkpt>
      <trkpt lat="36.8743" lon="-3.45462">
        <ele>393.198109</ele>
        <time>2022-02-25T10:45:53.367Z</time>
      </trkpt>
      <trkpt lat="36.87402" lon="-3.45449">
        <ele>394.037703</ele>
        <time>2022-02-25T10:46:02.821Z</time>
      </trkpt>
      <trkpt lat="36.8735" lon="-3.45435">
        <ele>395.842057</ele>
        <time>2022-02-25T10:46:18.204Z</time>
      </trkpt>
      <trkpt lat="36.87327" lon="-3.45434">
        <ele>396.809706</ele>
        <time>2022-02-25T10:46:28.061Z</time>
      </trkpt>
      <trkpt lat="36.87316" lon="-3.4545">
        <ele>397.485694</ele>
        <time>2022-02-25T10:46:34.516Z</time>
      </trkpt>
      <trkpt lat="36.87323" lon="-3.45481">
        <ele>398.53964</ele>
        <time>2022-02-25T10:46:45.742Z</time>
      </trkpt>
      <trkpt lat="36.8733" lon="-3.45509">
        <ele>399.488065</ele>
        <time>2022-02-25T10:46:56.554Z</time>
      </trkpt>
      <trkpt lat="36.8733" lon="-3.45531">
        <ele>400.226267</ele>
        <time>2022-02-25T10:47:04.301Z</time>
      </trkpt>
      <trkpt lat="36.87314" lon="-3.45711">
        <ele>408.407141</ele>
        <time>2022-02-25T10:48:16.938Z</time>
      </trkpt>
      <trkpt lat="36.87298" lon="-3.45777">
        <ele>412.021897</ele>
        <time>2022-02-25T10:48:51.309Z</time>
      </trkpt>
      <trkpt lat="36.87272" lon="-3.45845">
        <ele>415.684956</ele>
        <time>2022-02-25T10:49:26.501Z</time>
      </trkpt>
      <trkpt lat="36.87256" lon="-3.45926">
        <ele>419.569581</ele>
        <time>2022-02-25T10:50:03.552Z</time>
      </trkpt>
      <trkpt lat="36.87246" lon="-3.45946">
        <ele>420.637552</ele>
        <time>2022-02-25T10:50:13.709Z</time>
      </trkpt>
      <trkpt lat="36.87183" lon="-3.46036">
        <ele>424.625556</ele>
        <time>2022-02-25T10:50:55.246Z</time>
      </trkpt>
      <trkpt lat="36.87177" lon="-3.46053">
        <ele>424.761516</ele>
        <time>2022-02-25T10:51:00.444Z</time>
      </trkpt>
      <trkpt lat="36.87177" lon="-3.46078">
        <ele>424.950427</ele>
        <time>2022-02-25T10:51:06.907Z</time>
      </trkpt>
      <trkpt lat="36.87191" lon="-3.46132">
        <ele>425.381386</ele>
        <time>2022-02-25T10:51:19.762Z</time>
      </trkpt>
      <trkpt lat="36.87158" lon="-3.46357">
        <ele>423.554538</ele>
        <time>2022-02-25T10:51:53.597Z</time>
      </trkpt>
      <trkpt lat="36.87167" lon="-3.46499">
        <ele>421.475671</ele>
        <time>2022-02-25T10:52:13.597Z</time>
      </trkpt>
      <trkpt lat="36.87153" lon="-3.46599">
        <ele>420.307481</ele>
        <time>2022-02-25T10:52:29.017Z</time>
      </trkpt>
      <trkpt lat="36.87151" lon="-3.46657">
        <ele>419.633458</ele>
        <time>2022-02-25T10:52:38.787Z</time>
      </trkpt>
      <trkpt lat="36.87156" lon="-3.46777">
        <ele>419.347883</ele>
        <time>2022-02-25T10:53:02.673Z</time>
      </trkpt>
      <trkpt lat="36.87147" lon="-3.46898">
        <ele>418.741521</ele>
        <time>2022-02-25T10:53:22.785Z</time>
      </trkpt>
      <trkpt lat="36.87153" lon="-3.46924">
        <ele>418.008267</ele>
        <time>2022-02-25T10:53:26.971Z</time>
      </trkpt>
      <trkpt lat="36.87175" lon="-3.46949">
        <ele>417.025891</ele>
        <time>2022-02-25T10:53:32.211Z</time>
      </trkpt>
      <trkpt lat="36.87181" lon="-3.4698">
        <ele>416.162774</ele>
        <time>2022-02-25T10:53:36.883Z</time>
      </trkpt>
      <trkpt lat="36.87167" lon="-3.47127">
        <ele>411.175894</ele>
        <time>2022-02-25T10:53:55.887Z</time>
      </trkpt>
      <trkpt lat="36.8717" lon="-3.47145">
        <ele>410.10182</ele>
        <time>2022-02-25T10:53:58.117Z</time>
      </trkpt>
      <trkpt lat="36.8718" lon="-3.47162">
        <ele>408.933347</ele>
        <time>2022-02-25T10:54:00.566Z</time>
      </trkpt>
      <trkpt lat="36.87223" lon="-3.47179">
        <ele>405.680677</ele>
        <time>2022-02-25T10:54:07.468Z</time>
      </trkpt>
      <trkpt lat="36.87233" lon="-3.47189">
        <ele>404.778057</ele>
        <time>2022-02-25T10:54:09.323Z</time>
      </trkpt>
      <trkpt lat="36.87241" lon="-3.47214">
        <ele>403.275458</ele>
        <time>2022-02-25T10:54:12.520Z</time>
      </trkpt>
      <trkpt lat="36.87213" lon="-3.47326">
        <ele>396.007933</ele>
        <time>2022-02-25T10:54:26.046Z</time>
      </trkpt>
      <trkpt lat="36.87212" lon="-3.47349">
        <ele>394.474639</ele>
        <time>2022-02-25T10:54:28.776Z</time>
      </trkpt>
      <trkpt lat="36.87215" lon="-3.47363">
        <ele>393.519588</ele>
        <time>2022-02-25T10:54:30.393Z</time>
      </trkpt>
      <trkpt lat="36.8726" lon="-3.47474">
        <ele>385.340155</ele>
        <time>2022-02-25T10:54:45.031Z</time>
      </trkpt>
      <trkpt lat="36.87265" lon="-3.47498">
        <ele>384.131169</ele>
        <time>2022-02-25T10:54:48.010Z</time>
      </trkpt>
      <trkpt lat="36.87207" lon="-3.47589">
        <ele>378.526695</ele>
        <time>2022-02-25T10:55:01.905Z</time>
      </trkpt>
      <trkpt lat="36.87189" lon="-3.47602">
        <ele>377.245095</ele>
        <time>2022-02-25T10:55:05.306Z</time>
      </trkpt>
      <trkpt lat="36.87099" lon="-3.47618">
        <ele>371.823725</ele>
        <time>2022-02-25T10:55:20.214Z</time>
      </trkpt>
      <trkpt lat="36.87077" lon="-3.47616">
        <ele>370.484435</ele>
        <time>2022-02-25T10:55:23.927Z</time>
      </trkpt>
      <trkpt lat="36.87056" lon="-3.47603">
        <ele>369.113799</ele>
        <time>2022-02-25T10:55:27.674Z</time>
      </trkpt>
      <trkpt lat="36.87047" lon="-3.47603">
        <ele>368.602622</ele>
        <time>2022-02-25T10:55:29.028Z</time>
      </trkpt>
      <trkpt lat="36.87036" lon="-3.47615">
        <ele>367.749242</ele>
        <time>2022-02-25T10:55:31.293Z</time>
      </trkpt>
      <trkpt lat="36.87034" lon="-3.47628">
        <ele>367.153495</ele>
        <time>2022-02-25T10:55:32.828Z</time>
      </trkpt>
      <trkpt lat="36.87037" lon="-3.47686">
        <ele>364.421273</ele>
        <time>2022-02-25T10:55:39.673Z</time>
      </trkpt>
      <trkpt lat="36.87027" lon="-3.47725">
        <ele>361.915234</ele>
        <time>2022-02-25T10:55:44.454Z</time>
      </trkpt>
      <trkpt lat="36.87006" lon="-3.47747">
        <ele>359.685001</ele>
        <time>2022-02-25T10:55:48.397Z</time>
      </trkpt>
      <trkpt lat="36.86952" lon="-3.47775">
        <ele>354.890615</ele>
        <time>2022-02-25T10:55:56.844Z</time>
      </trkpt>
      <trkpt lat="36.86931" lon="-3.47773">
        <ele>353.145779</ele>
        <time>2022-02-25T10:55:59.906Z</time>
      </trkpt>
      <trkpt lat="36.86871" lon="-3.47735">
        <ele>348.49654</ele>
        <time>2022-02-25T10:56:09.798Z</time>
      </trkpt>
      <trkpt lat="36.86848" lon="-3.47725">
        <ele>347.519577</ele>
        <time>2022-02-25T10:56:13.680Z</time>
      </trkpt>
      <trkpt lat="36.86796" lon="-3.47715">
        <ele>345.462512</ele>
        <time>2022-02-25T10:56:22.365Z</time>
      </trkpt>
      <trkpt lat="36.86754" lon="-3.47674">
        <ele>343.348052</ele>
        <time>2022-02-25T10:56:33.493Z</time>
      </trkpt>
      <trkpt lat="36.86735" lon="-3.47679">
        <ele>342.5967</ele>
        <time>2022-02-25T10:56:36.818Z</time>
      </trkpt>
      <trkpt lat="36.86724" lon="-3.47699">
        <ele>341.510267</ele>
        <time>2022-02-25T10:56:40.299Z</time>
      </trkpt>
      <trkpt lat="36.86721" lon="-3.47755">
        <ele>337.853476</ele>
        <time>2022-02-25T10:56:47.350Z</time>
      </trkpt>
      <trkpt lat="36.86722" lon="-3.47826">
        <ele>333.32</ele>
        <time>2022-02-25T10:56:55.676Z</time>
      </trkpt>
      <trkpt lat="36.86736" lon="-3.47869">
        <ele>330.323317</ele>
        <time>2022-02-25T10:57:01.005Z</time>
      </trkpt>
      <trkpt lat="36.86769" lon="-3.47933">
        <ele>324.571866</ele>
        <time>2022-02-25T10:57:09.373Z</time>
      </trkpt>
      <trkpt lat="36.86805" lon="-3.48048">
        <ele>313.561099</ele>
        <time>2022-02-25T10:57:22.886Z</time>
      </trkpt>
      <trkpt lat="36.86829" lon="-3.48096">
        <ele>308.589148</ele>
        <time>2022-02-25T10:57:29.279Z</time>
      </trkpt>
      <trkpt lat="36.86842" lon="-3.48142">
        <ele>306.695483</ele>
        <time>2022-02-25T10:57:35.372Z</time>
      </trkpt>
      <trkpt lat="36.8684" lon="-3.48162">
        <ele>306.179893</ele>
        <time>2022-02-25T10:57:37.987Z</time>
      </trkpt>
      <trkpt lat="36.86826" lon="-3.48192">
        <ele>305.283665</ele>
        <time>2022-02-25T10:57:42.618Z</time>
      </trkpt>
      <trkpt lat="36.86752" lon="-3.48237">
        <ele>302.65662</ele>
        <time>2022-02-25T10:57:57.961Z</time>
      </trkpt>
      <trkpt lat="36.86693" lon="-3.48283">
        <ele>302.608339</ele>
        <time>2022-02-25T10:58:14.910Z</time>
      </trkpt>
      <trkpt lat="36.86632" lon="-3.48288">
        <ele>303.411032</ele>
        <time>2022-02-25T10:58:34.961Z</time>
      </trkpt>
      <trkpt lat="36.86578" lon="-3.48309">
        <ele>304.159609</ele>
        <time>2022-02-25T10:58:53.309Z</time>
      </trkpt>
      <trkpt lat="36.86564" lon="-3.4832">
        <ele>304.354413</ele>
        <time>2022-02-25T10:58:58.374Z</time>
      </trkpt>
      <trkpt lat="36.86505" lon="-3.48412">
        <ele>304.210398</ele>
        <time>2022-02-25T10:59:24.622Z</time>
      </trkpt>
      <trkpt lat="36.86467" lon="-3.48448">
        <ele>304.137382</ele>
        <time>2022-02-25T10:59:35.769Z</time>
      </trkpt>
      <trkpt lat="36.86398" lon="-3.48476">
        <ele>301.380821</ele>
        <time>2022-02-25T10:59:48.398Z</time>
      </trkpt>
      <trkpt lat="36.86369" lon="-3.48496">
        <ele>298.96749</ele>
        <time>2022-02-25T10:59:53.282Z</time>
      </trkpt>
      <trkpt lat="36.86362" lon="-3.48505">
        <ele>298.185627</ele>
        <time>2022-02-25T10:59:54.803Z</time>
      </trkpt>
      <trkpt lat="36.86349" lon="-3.48548">
        <ele>295.499749</ele>
        <time>2022-02-25T11:00:00.005Z</time>
      </trkpt>
      <trkpt lat="36.86335" lon="-3.48575">
        <ele>293.617414</ele>
        <time>2022-02-25T11:00:03.664Z</time>
      </trkpt>
      <trkpt lat="36.86299" lon="-3.48618">
        <ele>289.976472</ele>
        <time>2022-02-25T11:00:10.782Z</time>
      </trkpt>
      <trkpt lat="36.86249" lon="-3.48657">
        <ele>285.862401</ele>
        <time>2022-02-25T11:00:19.234Z</time>
      </trkpt>
      <trkpt lat="36.86227" lon="-3.4866">
        <ele>284.305357</ele>
        <time>2022-02-25T11:00:22.494Z</time>
      </trkpt>
      <trkpt lat="36.86217" lon="-3.48656">
        <ele>283.581925</ele>
        <time>2022-02-25T11:00:24.027Z</time>
      </trkpt>
      <trkpt lat="36.86201" lon="-3.48636">
        <ele>281.963539</ele>
        <time>2022-02-25T11:00:27.455Z</time>
      </trkpt>
      <trkpt lat="36.86184" lon="-3.48574">
        <ele>278.339078</ele>
        <time>2022-02-25T11:00:35.677Z</time>
      </trkpt>
      <trkpt lat="36.86168" lon="-3.48542">
        <ele>278.322172</ele>
        <time>2022-02-25T11:00:41.507Z</time>
      </trkpt>
      <trkpt lat="36.86151" lon="-3.48531">
        <ele>278.371035</ele>
        <time>2022-02-25T11:00:46.482Z</time>
      </trkpt>
      <trkpt lat="36.86135" lon="-3.48538">
        <ele>278.415948</ele>
        <time>2022-02-25T11:00:51.608Z</time>
      </trkpt>
      <trkpt lat="36.86126" lon="-3.48561">
        <ele>278.468866</ele>
        <time>2022-02-25T11:00:57.654Z</time>
      </trkpt>
      <trkpt lat="36.86126" lon="-3.48594">
        <ele>278.538481</ele>
        <time>2022-02-25T11:01:05.043Z</time>
      </trkpt>
      <trkpt lat="36.86101" lon="-3.48662">
        <ele>278.69181</ele>
        <time>2022-02-25T11:01:21.624Z</time>
      </trkpt>
      <trkpt lat="36.86098" lon="-3.4872">
        <ele>279.584564</ele>
        <time>2022-02-25T11:01:37.101Z</time>
      </trkpt>
      <trkpt lat="36.86089" lon="-3.4875">
        <ele>280.139083</ele>
        <time>2022-02-25T11:01:44.361Z</time>
      </trkpt>
      <trkpt lat="36.86068" lon="-3.48767">
        <ele>280.698049</ele>
        <time>2022-02-25T11:01:53.355Z</time>
      </trkpt>
      <trkpt lat="36.86056" lon="-3.48769">
        <ele>280.978505</ele>
        <time>2022-02-25T11:01:57.627Z</time>
      </trkpt>
      <trkpt lat="36.85941" lon="-3.48766">
        <ele>283.523479</ele>
        <time>2022-02-25T11:02:37.433Z</time>
      </trkpt>
      <trkpt lat="36.85921" lon="-3.48772">
        <ele>283.979643</ele>
        <time>2022-02-25T11:02:45.790Z</time>
      </trkpt>
      <trkpt lat="36.85884" lon="-3.48801">
        <ele>284.902377</ele>
        <time>2022-02-25T11:03:01.831Z</time>
      </trkpt>
      <trkpt lat="36.85856" lon="-3.48849">
        <ele>285.948324</ele>
        <time>2022-02-25T11:03:17.956Z</time>
      </trkpt>
      <trkpt lat="36.85832" lon="-3.48914">
        <ele>286.238353</ele>
        <time>2022-02-25T11:03:33.762Z</time>
      </trkpt>
      <trkpt lat="36.85818" lon="-3.49024">
        <ele>284.893421</ele>
        <time>2022-02-25T11:03:50.709Z</time>
      </trkpt>
      <trkpt lat="36.85806" lon="-3.49068">
        <ele>284.327715</ele>
        <time>2022-02-25T11:03:57.286Z</time>
      </trkpt>
      <trkpt lat="36.85786" lon="-3.49101">
        <ele>283.669336</ele>
        <time>2022-02-25T11:04:02.922Z</time>
      </trkpt>
      <trkpt lat="36.85744" lon="-3.49137">
        <ele>281.391176</ele>
        <time>2022-02-25T11:04:11.521Z</time>
      </trkpt>
      <trkpt lat="36.85716" lon="-3.49167">
        <ele>279.745203</ele>
        <time>2022-02-25T11:04:17.758Z</time>
      </trkpt>
      <trkpt lat="36.85707" lon="-3.49178">
        <ele>279.171266</ele>
        <time>2022-02-25T11:04:19.790Z</time>
      </trkpt>
      <trkpt lat="36.85684" lon="-3.49216">
        <ele>277.483388</ele>
        <time>2022-02-25T11:04:25.699Z</time>
      </trkpt>
      <trkpt lat="36.85661" lon="-3.49243">
        <ele>276.057796</ele>
        <time>2022-02-25T11:04:30.598Z</time>
      </trkpt>
      <trkpt lat="36.85646" lon="-3.49265">
        <ele>274.43047</ele>
        <time>2022-02-25T11:04:34.122Z</time>
      </trkpt>
      <trkpt lat="36.8564" lon="-3.49285">
        <ele>273.069294</ele>
        <time>2022-02-25T11:04:36.782Z</time>
      </trkpt>
      <trkpt lat="36.85642" lon="-3.49307">
        <ele>271.704174</ele>
        <time>2022-02-25T11:04:39.480Z</time>
      </trkpt>
      <trkpt lat="36.85655" lon="-3.49343">
        <ele>269.244974</ele>
        <time>2022-02-25T11:04:44.246Z</time>
      </trkpt>
      <trkpt lat="36.85677" lon="-3.49415">
        <ele>264.505363</ele>
        <time>2022-02-25T11:04:53.230Z</time>
      </trkpt>
      <trkpt lat="36.85686" lon="-3.49496">
        <ele>259.241992</ele>
        <time>2022-02-25T11:05:02.484Z</time>
      </trkpt>
      <trkpt lat="36.85694" lon="-3.49535">
        <ele>256.476769</ele>
        <time>2022-02-25T11:05:07.157Z</time>
      </trkpt>
      <trkpt lat="36.85702" lon="-3.49554">
        <ele>255.053415</ele>
        <time>2022-02-25T11:05:09.622Z</time>
      </trkpt>
      <trkpt lat="36.85717" lon="-3.49615">
        <ele>250.749739</ele>
        <time>2022-02-25T11:05:17.076Z</time>
      </trkpt>
      <trkpt lat="36.85716" lon="-3.4964">
        <ele>249.063718</ele>
        <time>2022-02-25T11:05:20.073Z</time>
      </trkpt>
      <trkpt lat="36.85701" lon="-3.49676">
        <ele>246.349517</ele>
        <time>2022-02-25T11:05:24.937Z</time>
      </trkpt>
      <trkpt lat="36.85682" lon="-3.49695">
        <ele>244.511721</ele>
        <time>2022-02-25T11:05:28.488Z</time>
      </trkpt>
      <trkpt lat="36.85636" lon="-3.49715">
        <ele>240.751398</ele>
        <time>2022-02-25T11:05:35.736Z</time>
      </trkpt>
      <trkpt lat="36.85616" lon="-3.49741">
        <ele>238.631981</ele>
        <time>2022-02-25T11:05:39.891Z</time>
      </trkpt>
      <trkpt lat="36.85592" lon="-3.49795">
        <ele>234.873407</ele>
        <time>2022-02-25T11:05:47.385Z</time>
      </trkpt>
      <trkpt lat="36.85544" lon="-3.49827">
        <ele>231.123927</ele>
        <time>2022-02-25T11:05:55.383Z</time>
      </trkpt>
      <trkpt lat="36.85523" lon="-3.49839">
        <ele>229.652056</ele>
        <time>2022-02-25T11:05:58.852Z</time>
      </trkpt>
      <trkpt lat="36.855" lon="-3.49852">
        <ele>228.007453</ele>
        <time>2022-02-25T11:06:02.685Z</time>
      </trkpt>
      <trkpt lat="36.85444" lon="-3.49886">
        <ele>224.056997</ele>
        <time>2022-02-25T11:06:11.923Z</time>
      </trkpt>
      <trkpt lat="36.85374" lon="-3.49952">
        <ele>219.12064</ele>
        <time>2022-02-25T11:06:26.410Z</time>
      </trkpt>
      <trkpt lat="36.85359" lon="-3.49959">
        <ele>218.335739</ele>
        <time>2022-02-25T11:06:29.023Z</time>
      </trkpt>
      <trkpt lat="36.85337" lon="-3.49955">
        <ele>217.192039</ele>
        <time>2022-02-25T11:06:32.670Z</time>
      </trkpt>
      <trkpt lat="36.85305" lon="-3.49939">
        <ele>215.514847</ele>
        <time>2022-02-25T11:06:38.034Z</time>
      </trkpt>
      <trkpt lat="36.85292" lon="-3.49941">
        <ele>214.863208</ele>
        <time>2022-02-25T11:06:40.138Z</time>
      </trkpt>
      <trkpt lat="36.8528" lon="-3.4995">
        <ele>214.142747</ele>
        <time>2022-02-25T11:06:42.352Z</time>
      </trkpt>
      <trkpt lat="36.85265" lon="-3.49977">
        <ele>212.835116</ele>
        <time>2022-02-25T11:06:46.384Z</time>
      </trkpt>
      <trkpt lat="36.85229" lon="-3.50165">
        <ele>203.871851</ele>
        <time>2022-02-25T11:07:10.153Z</time>
      </trkpt>
      <trkpt lat="36.85226" lon="-3.50224">
        <ele>201.681588</ele>
        <time>2022-02-25T11:07:17.486Z</time>
      </trkpt>
      <trkpt lat="36.85214" lon="-3.50253">
        <ele>200.943631</ele>
        <time>2022-02-25T11:07:21.961Z</time>
      </trkpt>
      <trkpt lat="36.85169" lon="-3.50309">
        <ele>199.166078</ele>
        <time>2022-02-25T11:07:33.662Z</time>
      </trkpt>
      <trkpt lat="36.85127" lon="-3.50321">
        <ele>197.922429</ele>
        <time>2022-02-25T11:07:42.628Z</time>
      </trkpt>
      <trkpt lat="36.85104" lon="-3.50338">
        <ele>197.170461</ele>
        <time>2022-02-25T11:07:47.098Z</time>
      </trkpt>
      <trkpt lat="36.85091" lon="-3.50355">
        <ele>196.460639</ele>
        <time>2022-02-25T11:07:50.317Z</time>
      </trkpt>
      <trkpt lat="36.85032" lon="-3.50471">
        <ele>192.229884</ele>
        <time>2022-02-25T11:08:08.489Z</time>
      </trkpt>
      <trkpt lat="36.85028" lon="-3.50513">
        <ele>190.92366</ele>
        <time>2022-02-25T11:08:14.135Z</time>
      </trkpt>
      <trkpt lat="36.85029" lon="-3.50519">
        <ele>190.702739</ele>
        <time>2022-02-25T11:08:14.943Z</time>
      </trkpt>
      <trkpt lat="36.85003" lon="-3.5053">
        <ele>189.790053</ele>
        <time>2022-02-25T11:08:19.365Z</time>
      </trkpt>
      <trkpt lat="36.84961" lon="-3.50579">
        <ele>188.213743</ele>
        <time>2022-02-25T11:08:28.524Z</time>
      </trkpt>
      <trkpt lat="36.84788" lon="-3.50658">
        <ele>184.528747</ele>
        <time>2022-02-25T11:09:03.798Z</time>
      </trkpt>
      <trkpt lat="36.84716" lon="-3.50714">
        <ele>183.741832</ele>
        <time>2022-02-25T11:09:20.932Z</time>
      </trkpt>
      <trkpt lat="36.84698" lon="-3.50717">
        <ele>183.570388</ele>
        <time>2022-02-25T11:09:24.979Z</time>
      </trkpt>
      <trkpt lat="36.84619" lon="-3.50701">
        <ele>184.177159</ele>
        <time>2022-02-25T11:09:43.164Z</time>
      </trkpt>
      <trkpt lat="36.84604" lon="-3.50703">
        <ele>184.294059</ele>
        <time>2022-02-25T11:09:47.103Z</time>
      </trkpt>
      <trkpt lat="36.84591" lon="-3.50718">
        <ele>184.432512</ele>
        <time>2022-02-25T11:09:51.750Z</time>
      </trkpt>
      <trkpt lat="36.8457" lon="-3.50768">
        <ele>184.788305</ele>
        <time>2022-02-25T11:10:05.015Z</time>
      </trkpt>
      <trkpt lat="36.84405" lon="-3.50975">
        <ele>189.080989</ele>
        <time>2022-02-25T11:11:21.499Z</time>
      </trkpt>
      <trkpt lat="36.84385" lon="-3.5101">
        <ele>189.599999</ele>
        <time>2022-02-25T11:11:32.225Z</time>
      </trkpt>
      <trkpt lat="36.84362" lon="-3.51033">
        <ele>190.035277</ele>
        <time>2022-02-25T11:11:41.219Z</time>
      </trkpt>
      <trkpt lat="36.84264" lon="-3.51112">
        <ele>191.464569</ele>
        <time>2022-02-25T11:12:13.636Z</time>
      </trkpt>
      <trkpt lat="36.84236" lon="-3.51148">
        <ele>191.66022</ele>
        <time>2022-02-25T11:12:24.053Z</time>
      </trkpt>
      <trkpt lat="36.84199" lon="-3.51208">
        <ele>191.947704</ele>
        <time>2022-02-25T11:12:39.149Z</time>
      </trkpt>
      <trkpt lat="36.84159" lon="-3.51227">
        <ele>192.150927</ele>
        <time>2022-02-25T11:12:50.405Z</time>
      </trkpt>
      <trkpt lat="36.84096" lon="-3.51217">
        <ele>191.085567</ele>
        <time>2022-02-25T11:13:02.836Z</time>
      </trkpt>
      <trkpt lat="36.84062" lon="-3.51218">
        <ele>190.436651</ele>
        <time>2022-02-25T11:13:08.868Z</time>
      </trkpt>
      <trkpt lat="36.84043" lon="-3.51236">
        <ele>189.989025</ele>
        <time>2022-02-25T11:13:13.179Z</time>
      </trkpt>
      <trkpt lat="36.8401" lon="-3.51297">
        <ele>188.88313</ele>
        <time>2022-02-25T11:13:23.583Z</time>
      </trkpt>
      <trkpt lat="36.83982" lon="-3.51312">
        <ele>188.325913</ele>
        <time>2022-02-25T11:13:28.860Z</time>
      </trkpt>
      <trkpt lat="36.8394" lon="-3.51328">
        <ele>187.546803</ele>
        <time>2022-02-25T11:13:36.654Z</time>
      </trkpt>
      <trkpt lat="36.83687" lon="-3.51427">
        <ele>184.62141</ele>
        <time>2022-02-25T11:14:28.424Z</time>
      </trkpt>
      <trkpt lat="36.83685" lon="-3.51428">
        <ele>184.608429</ele>
        <time>2022-02-25T11:14:29.104Z</time>
      </trkpt>
      <trkpt lat="36.8359" lon="-3.51468">
        <ele>184.973402</ele>
        <time>2022-02-25T11:14:59.911Z</time>
      </trkpt>
      <trkpt lat="36.83583" lon="-3.5147">
        <ele>185.019258</ele>
        <time>2022-02-25T11:15:02.028Z</time>
      </trkpt>
      <trkpt lat="36.83521" lon="-3.51497">
        <ele>185.444535</ele>
        <time>2022-02-25T11:15:19.684Z</time>
      </trkpt>
      <trkpt lat="36.83484" lon="-3.51513">
        <ele>185.380195</ele>
        <time>2022-02-25T11:15:27.833Z</time>
      </trkpt>
      <trkpt lat="36.83454" lon="-3.51526">
        <ele>184.528557</ele>
        <time>2022-02-25T11:15:33.831Z</time>
      </trkpt>
      <trkpt lat="36.83389" lon="-3.51552">
        <ele>182.699717</ele>
        <time>2022-02-25T11:15:45.816Z</time>
      </trkpt>
      <trkpt lat="36.83371" lon="-3.51559">
        <ele>182.198609</ele>
        <time>2022-02-25T11:15:48.921Z</time>
      </trkpt>
      <trkpt lat="36.83353" lon="-3.51567">
        <ele>181.694291</ele>
        <time>2022-02-25T11:15:52.076Z</time>
      </trkpt>
      <trkpt lat="36.83335" lon="-3.51574">
        <ele>181.170891</ele>
        <time>2022-02-25T11:15:55.288Z</time>
      </trkpt>
      <trkpt lat="36.83332" lon="-3.51575">
        <ele>181.106424</ele>
        <time>2022-02-25T11:15:55.696Z</time>
      </trkpt>
      <trkpt lat="36.83308" lon="-3.51585">
        <ele>180.286373</ele>
        <time>2022-02-25T11:15:59.839Z</time>
      </trkpt>
      <trkpt lat="36.83271" lon="-3.51582">
        <ele>178.951012</ele>
        <time>2022-02-25T11:16:05.913Z</time>
      </trkpt>
      <trkpt lat="36.83253" lon="-3.51578">
        <ele>178.272683</ele>
        <time>2022-02-25T11:16:09.076Z</time>
      </trkpt>
      <trkpt lat="36.83243" lon="-3.51578">
        <ele>177.944057</ele>
        <time>2022-02-25T11:16:10.583Z</time>
      </trkpt>
      <trkpt lat="36.83237" lon="-3.51583">
        <ele>177.682208</ele>
        <time>2022-02-25T11:16:11.770Z</time>
      </trkpt>
      <trkpt lat="36.83231" lon="-3.5158">
        <ele>177.45555</ele>
        <time>2022-02-25T11:16:12.855Z</time>
      </trkpt>
      <trkpt lat="36.83231" lon="-3.51577">
        <ele>177.370775</ele>
        <time>2022-02-25T11:16:13.277Z</time>
      </trkpt>
      <trkpt lat="36.83218" lon="-3.51576">
        <ele>176.915376</ele>
        <time>2022-02-25T11:16:15.394Z</time>
      </trkpt>
      <trkpt lat="36.83154" lon="-3.51573">
        <ele>174.613609</ele>
        <time>2022-02-25T11:16:26.308Z</time>
      </trkpt>
      <trkpt lat="36.83147" lon="-3.51573">
        <ele>174.342559</ele>
        <time>2022-02-25T11:16:27.596Z</time>
      </trkpt>
      <trkpt lat="36.83126" lon="-3.51572">
        <ele>173.619492</ele>
        <time>2022-02-25T11:16:31.149Z</time>
      </trkpt>
      <trkpt lat="36.831" lon="-3.51571">
        <ele>172.739741</ele>
        <time>2022-02-25T11:16:35.470Z</time>
      </trkpt>
      <trkpt lat="36.83033" lon="-3.51567">
        <ele>170.428957</ele>
        <time>2022-02-25T11:16:46.613Z</time>
      </trkpt>
      <trkpt lat="36.83011" lon="-3.51566">
        <ele>169.703129</ele>
        <time>2022-02-25T11:16:50.302Z</time>
      </trkpt>
      <trkpt lat="36.83007" lon="-3.51566">
        <ele>169.54226</ele>
        <time>2022-02-25T11:16:51.120Z</time>
      </trkpt>
      <trkpt lat="36.82968" lon="-3.51566">
        <ele>168.21157</ele>
        <time>2022-02-25T11:16:57.847Z</time>
      </trkpt>
      <trkpt lat="36.82964" lon="-3.51566">
        <ele>168.12142</ele>
        <time>2022-02-25T11:16:58.474Z</time>
      </trkpt>
      <trkpt lat="36.8295" lon="-3.51564">
        <ele>167.815088</ele>
        <time>2022-02-25T11:17:00.934Z</time>
      </trkpt>
      <trkpt lat="36.82931" lon="-3.51562">
        <ele>167.416005</ele>
        <time>2022-02-25T11:17:04.260Z</time>
      </trkpt>
      <trkpt lat="36.8292" lon="-3.51562">
        <ele>167.174419</ele>
        <time>2022-02-25T11:17:06.189Z</time>
      </trkpt>
      <trkpt lat="36.82884" lon="-3.51561">
        <ele>166.4098</ele>
        <time>2022-02-25T11:17:12.585Z</time>
      </trkpt>
      <trkpt lat="36.82864" lon="-3.51569">
        <ele>165.981187</ele>
        <time>2022-02-25T11:17:16.372Z</time>
      </trkpt>
      <trkpt lat="36.8282" lon="-3.51602">
        <ele>164.885292</ele>
        <time>2022-02-25T11:17:26.010Z</time>
      </trkpt>
      <trkpt lat="36.828" lon="-3.51633">
        <ele>164.220349</ele>
        <time>2022-02-25T11:17:32.432Z</time>
      </trkpt>
      <trkpt lat="36.82794" lon="-3.5174">
        <ele>162.53149</ele>
        <time>2022-02-25T11:17:49.365Z</time>
      </trkpt>
      <trkpt lat="36.82743" lon="-3.51821">
        <ele>160.879393</ele>
        <time>2022-02-25T11:18:04.026Z</time>
      </trkpt>
      <trkpt lat="36.82734" lon="-3.51901">
        <ele>157.216902</ele>
        <time>2022-02-25T11:18:14.848Z</time>
      </trkpt>
      <trkpt lat="36.82706" lon="-3.51969">
        <ele>153.557676</ele>
        <time>2022-02-25T11:18:24.256Z</time>
      </trkpt>
      <trkpt lat="36.82694" lon="-3.52087">
        <ele>147.212314</ele>
        <time>2022-02-25T11:18:38.103Z</time>
      </trkpt>
      <trkpt lat="36.82702" lon="-3.5214">
        <ele>143.881992</ele>
        <time>2022-02-25T11:18:44.334Z</time>
      </trkpt>
      <trkpt lat="36.82722" lon="-3.52188">
        <ele>140.469247</ele>
        <time>2022-02-25T11:18:50.718Z</time>
      </trkpt>
      <trkpt lat="36.82692" lon="-3.52234">
        <ele>136.818921</ele>
        <time>2022-02-25T11:18:57.642Z</time>
      </trkpt>
      <trkpt lat="36.82495" lon="-3.52505">
        <ele>122.404545</ele>
        <time>2022-02-25T11:19:44.379Z</time>
      </trkpt>
      <trkpt lat="36.82468" lon="-3.52529">
        <ele>121.056505</ele>
        <time>2022-02-25T11:19:49.825Z</time>
      </trkpt>
      <trkpt lat="36.82421" lon="-3.52553">
        <ele>119.161381</ele>
        <time>2022-02-25T11:19:58.582Z</time>
      </trkpt>
      <trkpt lat="36.8231" lon="-3.52567">
        <ele>117.447896</ele>
        <time>2022-02-25T11:20:19.111Z</time>
      </trkpt>
      <trkpt lat="36.8201" lon="-3.52598">
        <ele>115.035545</ele>
        <time>2022-02-25T11:21:23.120Z</time>
      </trkpt>
      <trkpt lat="36.81912" lon="-3.52632">
        <ele>113.76659</ele>
        <time>2022-02-25T11:21:42.236Z</time>
      </trkpt>
      <trkpt lat="36.8186" lon="-3.52664">
        <ele>112.879588</ele>
        <time>2022-02-25T11:21:52.916Z</time>
      </trkpt>
      <trkpt lat="36.81782" lon="-3.52744">
        <ele>111.202986</ele>
        <time>2022-02-25T11:22:11.877Z</time>
      </trkpt>
      <trkpt lat="36.81737" lon="-3.52803">
        <ele>110.129473</ele>
        <time>2022-02-25T11:22:24.546Z</time>
      </trkpt>
      <trkpt lat="36.81527" lon="-3.53117">
        <ele>105.20337</ele>
        <time>2022-02-25T11:23:26.098Z</time>
      </trkpt>
      <trkpt lat="36.81509" lon="-3.53161">
        <ele>105.257045</ele>
        <time>2022-02-25T11:23:34.819Z</time>
      </trkpt>
      <trkpt lat="36.815" lon="-3.53212">
        <ele>105.406713</ele>
        <time>2022-02-25T11:23:44.274Z</time>
      </trkpt>
      <trkpt lat="36.81504" lon="-3.53279">
        <ele>105.602545</ele>
        <time>2022-02-25T11:23:57.533Z</time>
      </trkpt>
      <trkpt lat="36.81504" lon="-3.53299">
        <ele>105.658801</ele>
        <time>2022-02-25T11:24:01.553Z</time>
      </trkpt>
      <trkpt lat="36.81493" lon="-3.53395">
        <ele>106.952793</ele>
        <time>2022-02-25T11:24:25.140Z</time>
      </trkpt>
      <trkpt lat="36.81493" lon="-3.53435">
        <ele>107.81029</ele>
        <time>2022-02-25T11:24:35.359Z</time>
      </trkpt>
      <trkpt lat="36.81502" lon="-3.53474">
        <ele>108.666258</ele>
        <time>2022-02-25T11:24:46.112Z</time>
      </trkpt>
      <trkpt lat="36.81523" lon="-3.53579">
        <ele>111.287438</ele>
        <time>2022-02-25T11:25:21.195Z</time>
      </trkpt>
      <trkpt lat="36.81521" lon="-3.53624">
        <ele>112.96476</ele>
        <time>2022-02-25T11:25:38.533Z</time>
      </trkpt>
      <trkpt lat="36.81506" lon="-3.53685">
        <ele>115.344051</ele>
        <time>2022-02-25T11:26:03.753Z</time>
      </trkpt>
      <trkpt lat="36.81465" lon="-3.53792">
        <ele>119.672327</ele>
        <time>2022-02-25T11:26:46.496Z</time>
      </trkpt>
      <trkpt lat="36.81426" lon="-3.5386">
        <ele>122.418541</ele>
        <time>2022-02-25T11:27:15.288Z</time>
      </trkpt>
      <trkpt lat="36.8139" lon="-3.53904">
        <ele>124.481845</ele>
        <time>2022-02-25T11:27:36.116Z</time>
      </trkpt>
      <trkpt lat="36.81304" lon="-3.53979">
        <ele>127.767778</ele>
        <time>2022-02-25T11:28:20.254Z</time>
      </trkpt>
      <trkpt lat="36.81254" lon="-3.54028">
        <ele>129.271069</ele>
        <time>2022-02-25T11:28:44.293Z</time>
      </trkpt>
      <trkpt lat="36.8123" lon="-3.54064">
        <ele>130.171755</ele>
        <time>2022-02-25T11:28:55.230Z</time>
      </trkpt>
      <trkpt lat="36.81203" lon="-3.54123">
        <ele>128.919903</ele>
        <time>2022-02-25T11:29:06.863Z</time>
      </trkpt>
      <trkpt lat="36.8117" lon="-3.54198">
        <ele>125.582612</ele>
        <time>2022-02-25T11:29:18.460Z</time>
      </trkpt>
      <trkpt lat="36.81142" lon="-3.54248">
        <ele>123.183565</ele>
        <time>2022-02-25T11:29:25.826Z</time>
      </trkpt>
      <trkpt lat="36.81105" lon="-3.54292">
        <ele>119.563143</ele>
        <time>2022-02-25T11:29:32.978Z</time>
      </trkpt>
      <trkpt lat="36.8107" lon="-3.5432">
        <ele>115.59116</ele>
        <time>2022-02-25T11:29:38.735Z</time>
      </trkpt>
      <trkpt lat="36.81019" lon="-3.5435">
        <ele>110.056704</ele>
        <time>2022-02-25T11:29:46.836Z</time>
      </trkpt>
      <trkpt lat="36.80963" lon="-3.54369">
        <ele>104.420217</ele>
        <time>2022-02-25T11:29:55.129Z</time>
      </trkpt>
      <trkpt lat="36.80901" lon="-3.54372">
        <ele>100.643136</ele>
        <time>2022-02-25T11:30:04.183Z</time>
      </trkpt>
      <trkpt lat="36.80823" lon="-3.54368">
        <ele>95.892751</ele>
        <time>2022-02-25T11:30:16.261Z</time>
      </trkpt>
      <trkpt lat="36.80764" lon="-3.54356">
        <ele>93.05978</ele>
        <time>2022-02-25T11:30:26.327Z</time>
      </trkpt>
      <trkpt lat="36.80491" lon="-3.54209">
        <ele>89.690512</ele>
        <time>2022-02-25T11:31:22.717Z</time>
      </trkpt>
      <trkpt lat="36.8011" lon="-3.53997">
        <ele>101.797659</ele>
        <time>2022-02-25T11:34:14.850Z</time>
      </trkpt>
      <trkpt lat="36.80063" lon="-3.53983">
        <ele>100.450606</ele>
        <time>2022-02-25T11:34:24.555Z</time>
      </trkpt>
      <trkpt lat="36.80004" lon="-3.5398">
        <ele>98.812206</ele>
        <time>2022-02-25T11:34:34.469Z</time>
      </trkpt>
      <trkpt lat="36.79932" lon="-3.53997">
        <ele>96.778024</ele>
        <time>2022-02-25T11:34:45.544Z</time>
      </trkpt>
      <trkpt lat="36.79873" lon="-3.54002">
        <ele>95.108681</ele>
        <time>2022-02-25T11:34:54.444Z</time>
      </trkpt>
      <trkpt lat="36.79822" lon="-3.53993">
        <ele>93.616508</ele>
        <time>2022-02-25T11:35:03.279Z</time>
      </trkpt>
      <trkpt lat="36.79772" lon="-3.53971">
        <ele>92.121322</ele>
        <time>2022-02-25T11:35:14.158Z</time>
      </trkpt>
      <trkpt lat="36.79589" lon="-3.53837">
        <ele>103.51186</ele>
        <time>2022-02-25T11:37:14.508Z</time>
      </trkpt>
      <trkpt lat="36.79544" lon="-3.53828">
        <ele>104.648766</ele>
        <time>2022-02-25T11:37:39.039Z</time>
      </trkpt>
      <trkpt lat="36.79507" lon="-3.53838">
        <ele>105.60413</ele>
        <time>2022-02-25T11:37:54.648Z</time>
      </trkpt>
      <trkpt lat="36.79479" lon="-3.53861">
        <ele>106.451198</ele>
        <time>2022-02-25T11:38:05.267Z</time>
      </trkpt>
      <trkpt lat="36.79268" lon="-3.54144">
        <ele>90.396857</ele>
        <time>2022-02-25T11:38:52.837Z</time>
      </trkpt>
      <trkpt lat="36.79244" lon="-3.54159">
        <ele>88.584059</ele>
        <time>2022-02-25T11:38:56.751Z</time>
      </trkpt>
      <trkpt lat="36.79207" lon="-3.54168">
        <ele>86.04716</ele>
        <time>2022-02-25T11:39:02.279Z</time>
      </trkpt>
      <trkpt lat="36.7917" lon="-3.54162">
        <ele>84.888296</ele>
        <time>2022-02-25T11:39:07.835Z</time>
      </trkpt>
      <trkpt lat="36.79146" lon="-3.5415">
        <ele>84.772072</ele>
        <time>2022-02-25T11:39:11.857Z</time>
      </trkpt>
      <trkpt lat="36.79128" lon="-3.54131">
        <ele>84.668285</ele>
        <time>2022-02-25T11:39:15.596Z</time>
      </trkpt>
      <trkpt lat="36.79108" lon="-3.54099">
        <ele>84.518853</ele>
        <time>2022-02-25T11:39:21.384Z</time>
      </trkpt>
      <trkpt lat="36.79097" lon="-3.54055">
        <ele>84.355634</ele>
        <time>2022-02-25T11:39:31.072Z</time>
      </trkpt>
      <trkpt lat="36.79092" lon="-3.53894">
        <ele>93.008924</ele>
        <time>2022-02-25T11:40:57.283Z</time>
      </trkpt>
      <trkpt lat="36.79083" lon="-3.53844">
        <ele>97.10041</ele>
        <time>2022-02-25T11:41:33.065Z</time>
      </trkpt>
      <trkpt lat="36.79066" lon="-3.53809">
        <ele>100.344552</ele>
        <time>2022-02-25T11:42:00.140Z</time>
      </trkpt>
      <trkpt lat="36.79048" lon="-3.53789">
        <ele>102.279629</ele>
        <time>2022-02-25T11:42:19.072Z</time>
      </trkpt>
      <trkpt lat="36.79019" lon="-3.53768">
        <ele>103.256829</ele>
        <time>2022-02-25T11:42:42.897Z</time>
      </trkpt>
      <trkpt lat="36.78987" lon="-3.53761">
        <ele>104.166663</ele>
        <time>2022-02-25T11:43:02.357Z</time>
      </trkpt>
      <trkpt lat="36.78956" lon="-3.53764">
        <ele>105.055929</ele>
        <time>2022-02-25T11:43:16.422Z</time>
      </trkpt>
      <trkpt lat="36.78927" lon="-3.53778">
        <ele>105.933056</ele>
        <time>2022-02-25T11:43:24.225Z</time>
      </trkpt>
      <trkpt lat="36.78683" lon="-3.53985">
        <ele>92.418057</ele>
        <time>2022-02-25T11:44:08.350Z</time>
      </trkpt>
      <trkpt lat="36.78529" lon="-3.54121">
        <ele>87.372299</ele>
        <time>2022-02-25T11:44:43.798Z</time>
      </trkpt>
      <trkpt lat="36.78509" lon="-3.54143">
        <ele>87.071261</ele>
        <time>2022-02-25T11:44:50.268Z</time>
      </trkpt>
      <trkpt lat="36.78506" lon="-3.54146">
        <ele>87.027065</ele>
        <time>2022-02-25T11:44:51.149Z</time>
      </trkpt>
      <trkpt lat="36.78479" lon="-3.5418">
        <ele>86.605501</ele>
        <time>2022-02-25T11:44:59.295Z</time>
      </trkpt>
      <trkpt lat="36.78451" lon="-3.54229">
        <ele>85.578216</ele>
        <time>2022-02-25T11:45:08.921Z</time>
      </trkpt>
      <trkpt lat="36.78429" lon="-3.54282">
        <ele>83.535125</ele>
        <time>2022-02-25T11:45:17.464Z</time>
      </trkpt>
      <trkpt lat="36.78395" lon="-3.54392">
        <ele>79.559487</ele>
        <time>2022-02-25T11:45:32.425Z</time>
      </trkpt>
      <trkpt lat="36.78367" lon="-3.54447">
        <ele>76.72733</ele>
        <time>2022-02-25T11:45:40.138Z</time>
      </trkpt>
      <trkpt lat="36.78326" lon="-3.54489">
        <ele>73.4339</ele>
        <time>2022-02-25T11:45:48.158Z</time>
      </trkpt>
      <trkpt lat="36.78293" lon="-3.54503">
        <ele>71.285187</ele>
        <time>2022-02-25T11:45:53.411Z</time>
      </trkpt>
      <trkpt lat="36.7826" lon="-3.54507">
        <ele>69.215002</ele>
        <time>2022-02-25T11:45:58.483Z</time>
      </trkpt>
      <trkpt lat="36.78145" lon="-3.54498">
        <ele>63.68604</ele>
        <time>2022-02-25T11:46:16.827Z</time>
      </trkpt>
      <trkpt lat="36.78094" lon="-3.54493">
        <ele>61.461408</ele>
        <time>2022-02-25T11:46:25.131Z</time>
      </trkpt>
      <trkpt lat="36.77915" lon="-3.54481">
        <ele>56.665023</ele>
        <time>2022-02-25T11:46:56.844Z</time>
      </trkpt>
      <trkpt lat="36.77885" lon="-3.54482">
        <ele>56.011943</ele>
        <time>2022-02-25T11:47:02.762Z</time>
      </trkpt>
      <trkpt lat="36.77834" lon="-3.54492">
        <ele>55.485568</ele>
        <time>2022-02-25T11:47:13.072Z</time>
      </trkpt>
      <trkpt lat="36.77783" lon="-3.54515">
        <ele>55.122244</ele>
        <time>2022-02-25T11:47:24.275Z</time>
      </trkpt>
      <trkpt lat="36.77732" lon="-3.54555">
        <ele>54.720478</ele>
        <time>2022-02-25T11:47:37.061Z</time>
      </trkpt>
      <trkpt lat="36.77661" lon="-3.54651">
        <ele>54.182618</ele>
        <time>2022-02-25T11:47:59.430Z</time>
      </trkpt>
      <trkpt lat="36.77648" lon="-3.54672">
        <ele>54.087455</ele>
        <time>2022-02-25T11:48:03.746Z</time>
      </trkpt>
      <trkpt lat="36.77633" lon="-3.54695">
        <ele>53.974884</ele>
        <time>2022-02-25T11:48:08.781Z</time>
      </trkpt>
      <trkpt lat="36.77619" lon="-3.54716">
        <ele>53.875082</ele>
        <time>2022-02-25T11:48:13.255Z</time>
      </trkpt>
      <trkpt lat="36.77597" lon="-3.54752">
        <ele>53.704538</ele>
        <time>2022-02-25T11:48:20.723Z</time>
      </trkpt>
      <trkpt lat="36.77495" lon="-3.54916">
        <ele>52.701236</ele>
        <time>2022-02-25T11:48:55.187Z</time>
      </trkpt>
      <trkpt lat="36.77447" lon="-3.55001">
        <ele>52.212291</ele>
        <time>2022-02-25T11:49:12.394Z</time>
      </trkpt>
      <trkpt lat="36.77343" lon="-3.55229">
        <ele>50.70057</ele>
        <time>2022-02-25T11:49:56.066Z</time>
      </trkpt>
      <trkpt lat="36.77116" lon="-3.55748">
        <ele>45.022666</ele>
        <time>2022-02-25T11:51:28.195Z</time>
      </trkpt>
      <trkpt lat="36.77099" lon="-3.55799">
        <ele>44.412448</ele>
        <time>2022-02-25T11:51:36.499Z</time>
      </trkpt>
      <trkpt lat="36.77095" lon="-3.55827">
        <ele>44.103456</ele>
        <time>2022-02-25T11:51:40.717Z</time>
      </trkpt>
      <trkpt lat="36.77077" lon="-3.55849">
        <ele>43.751448</ele>
        <time>2022-02-25T11:51:45.565Z</time>
      </trkpt>
      <trkpt lat="36.77054" lon="-3.55883">
        <ele>43.255036</ele>
        <time>2022-02-25T11:51:52.433Z</time>
      </trkpt>
      <trkpt lat="36.77012" lon="-3.55942">
        <ele>42.58335</ele>
        <time>2022-02-25T11:52:04.672Z</time>
      </trkpt>
      <trkpt lat="36.76966" lon="-3.55984">
        <ele>42.039081</ele>
        <time>2022-02-25T11:52:16.013Z</time>
      </trkpt>
      <trkpt lat="36.76838" lon="-3.56056">
        <ele>40.857853</ele>
        <time>2022-02-25T11:52:44.810Z</time>
      </trkpt>
      <trkpt lat="36.76514" lon="-3.56217">
        <ele>38.255043</ele>
        <time>2022-02-25T11:53:56.100Z</time>
      </trkpt>
      <trkpt lat="36.76226" lon="-3.56339">
        <ele>35.536237</ele>
        <time>2022-02-25T11:54:57.291Z</time>
      </trkpt>
      <trkpt lat="36.76206" lon="-3.56361">
        <ele>35.153485</ele>
        <time>2022-02-25T11:55:02.328Z</time>
      </trkpt>
      <trkpt lat="36.76205" lon="-3.56369">
        <ele>35.060208</ele>
        <time>2022-02-25T11:55:03.519Z</time>
      </trkpt>
      <trkpt lat="36.76216" lon="-3.56404">
        <ele>34.608507</ele>
        <time>2022-02-25T11:55:09.278Z</time>
      </trkpt>
      <trkpt lat="36.76236" lon="-3.56454">
        <ele>33.950155</ele>
        <time>2022-02-25T11:55:17.669Z</time>
      </trkpt>
      <trkpt lat="36.76251" lon="-3.56491">
        <ele>33.45357</ele>
        <time>2022-02-25T11:55:24.031Z</time>
      </trkpt>
      <trkpt lat="36.76287" lon="-3.56586">
        <ele>32.419745</ele>
        <time>2022-02-25T11:55:39.881Z</time>
      </trkpt>
      <trkpt lat="36.76289" lon="-3.56591">
        <ele>32.372014</ele>
        <time>2022-02-25T11:55:40.817Z</time>
      </trkpt>
      <trkpt lat="36.75952" lon="-3.56799">
        <ele>29.153185</ele>
        <time>2022-02-25T11:56:57.595Z</time>
      </trkpt>
      <trkpt lat="36.75755" lon="-3.56878">
        <ele>27.117888</ele>
        <time>2022-02-25T11:57:38.540Z</time>
      </trkpt>
      <trkpt lat="36.75621" lon="-3.56911">
        <ele>25.705593</ele>
        <time>2022-02-25T11:58:05.687Z</time>
      </trkpt>
      <trkpt lat="36.75458" lon="-3.56932">
        <ele>24.178927</ele>
        <time>2022-02-25T11:58:37.973Z</time>
      </trkpt>
      <trkpt lat="36.75292" lon="-3.57048">
        <ele>23.070535</ele>
        <time>2022-02-25T11:59:17.756Z</time>
      </trkpt>
      <trkpt lat="36.75201" lon="-3.57104">
        <ele>22.671303</ele>
        <time>2022-02-25T11:59:39.576Z</time>
      </trkpt>
      <trkpt lat="36.75145" lon="-3.57119">
        <ele>22.383494</ele>
        <time>2022-02-25T11:59:51.549Z</time>
      </trkpt>
      <trkpt lat="36.75117" lon="-3.57118">
        <ele>22.190657</ele>
        <time>2022-02-25T11:59:57.405Z</time>
      </trkpt>
      <trkpt lat="36.75097" lon="-3.57108">
        <ele>22.039575</ele>
        <time>2022-02-25T12:00:01.911Z</time>
      </trkpt>
      <trkpt lat="36.74976" lon="-3.57034">
        <ele>21.059687</ele>
        <time>2022-02-25T12:00:29.032Z</time>
      </trkpt>
      <trkpt lat="36.74952" lon="-3.57025">
        <ele>20.834446</ele>
        <time>2022-02-25T12:00:34.049Z</time>
      </trkpt>
      <trkpt lat="36.74922" lon="-3.57019">
        <ele>20.560953</ele>
        <time>2022-02-25T12:00:40.240Z</time>
      </trkpt>
      <trkpt lat="36.749" lon="-3.5702">
        <ele>20.368531</ele>
        <time>2022-02-25T12:00:44.584Z</time>
      </trkpt>
      <trkpt lat="36.74818" lon="-3.57044">
        <ele>19.626161</ele>
        <time>2022-02-25T12:01:01.392Z</time>
      </trkpt>
      <trkpt lat="36.74778" lon="-3.56997">
        <ele>19.197138</ele>
        <time>2022-02-25T12:01:12.638Z</time>
      </trkpt>
      <trkpt lat="36.74765" lon="-3.56995">
        <ele>19.100815</ele>
        <time>2022-02-25T12:01:15.146Z</time>
      </trkpt>
      <trkpt lat="36.74704" lon="-3.57077">
        <ele>18.407009</ele>
        <time>2022-02-25T12:01:33.578Z</time>
      </trkpt>
      <trkpt lat="36.7475" lon="-3.57111">
        <ele>18.096877</ele>
        <time>2022-02-25T12:01:44.907Z</time>
      </trkpt>
      <trkpt lat="36.74785" lon="-3.57133">
        <ele>17.891352</ele>
        <time>2022-02-25T12:01:53.494Z</time>
      </trkpt>
      <trkpt lat="36.7477" lon="-3.57248">
        <ele>17.406523</ele>
        <time>2022-02-25T12:02:13.205Z</time>
      </trkpt>
      <trkpt lat="36.74737" lon="-3.57388">
        <ele>16.900322</ele>
        <time>2022-02-25T12:02:37.837Z</time>
      </trkpt>
      <trkpt lat="36.7466" lon="-3.57601">
        <ele>16.039897</ele>
        <time>2022-02-25T12:03:17.197Z</time>
      </trkpt>
      <trkpt lat="36.74616" lon="-3.57742">
        <ele>15.458285</ele>
        <time>2022-02-25T12:03:42.402Z</time>
      </trkpt>
      <trkpt lat="36.74609" lon="-3.57775">
        <ele>15.324955</ele>
        <time>2022-02-25T12:03:48.169Z</time>
      </trkpt>
      <trkpt lat="36.74607" lon="-3.57807">
        <ele>15.199001</ele>
        <time>2022-02-25T12:03:53.600Z</time>
      </trkpt>
      <trkpt lat="36.74627" lon="-3.58058">
        <ele>14.604416</ele>
        <time>2022-02-25T12:04:38.386Z</time>
      </trkpt>
      <trkpt lat="36.74663" lon="-3.58258">
        <ele>14.837974</ele>
        <time>2022-02-25T12:05:17.958Z</time>
      </trkpt>
      <trkpt lat="36.74662" lon="-3.58287">
        <ele>14.902838</ele>
        <time>2022-02-25T12:05:23.814Z</time>
      </trkpt>
      <trkpt lat="36.7467" lon="-3.58292">
        <ele>14.926253</ele>
        <time>2022-02-25T12:05:25.715Z</time>
      </trkpt>
      <trkpt lat="36.74673" lon="-3.583">
        <ele>14.947086</ele>
        <time>2022-02-25T12:05:27.428Z</time>
      </trkpt>
      <trkpt lat="36.74671" lon="-3.58312">
        <ele>14.974528</ele>
        <time>2022-02-25T12:05:29.920Z</time>
      </trkpt>
      <trkpt lat="36.74662" lon="-3.58319">
        <ele>15.004282</ele>
        <time>2022-02-25T12:05:32.615Z</time>
      </trkpt>
      <trkpt lat="36.74649" lon="-3.58309">
        <ele>15.207158</ele>
        <time>2022-02-25T12:05:36.340Z</time>
      </trkpt>
      <trkpt lat="36.74636" lon="-3.58314">
        <ele>15.412002</ele>
        <time>2022-02-25T12:05:39.931Z</time>
      </trkpt>
      <trkpt lat="36.74625" lon="-3.58318">
        <ele>15.589179</ele>
        <time>2022-02-25T12:05:42.931Z</time>
      </trkpt>
      <trkpt lat="36.74605" lon="-3.58327">
        <ele>15.907909</ele>
        <time>2022-02-25T12:05:48.286Z</time>
      </trkpt>
      <trkpt lat="36.7459" lon="-3.58334">
        <ele>16.149088</ele>
        <time>2022-02-25T12:05:52.733Z</time>
      </trkpt>
      <trkpt lat="36.7457" lon="-3.58341">
        <ele>16.461026</ele>
        <time>2022-02-25T12:05:59.165Z</time>
      </trkpt>
      <trkpt lat="36.74552" lon="-3.58363">
        <ele>16.837889</ele>
        <time>2022-02-25T12:06:07.431Z</time>
      </trkpt>
      <trkpt lat="36.74552" lon="-3.58372">
        <ele>16.952528</ele>
        <time>2022-02-25T12:06:10.075Z</time>
      </trkpt>
      <trkpt lat="36.74558" lon="-3.58435">
        <ele>17.713806</ele>
        <time>2022-02-25T12:06:27.596Z</time>
      </trkpt>
      <trkpt lat="36.74529" lon="-3.58456">
        <ele>18.428173</ele>
        <time>2022-02-25T12:06:38.531Z</time>
      </trkpt>
      <trkpt lat="36.74543" lon="-3.58502">
        <ele>19.251662</ele>
        <time>2022-02-25T12:06:50.431Z</time>
      </trkpt>
      <trkpt lat="36.74553" lon="-3.58556">
        <ele>20.207137</ele>
        <time>2022-02-25T12:07:03.734Z</time>
      </trkpt>
      <trkpt lat="36.74563" lon="-3.58581">
        <ele>20.675909</ele>
        <time>2022-02-25T12:07:10.652Z</time>
      </trkpt>
      <trkpt lat="36.74572" lon="-3.58595">
        <ele>20.981169</ele>
        <time>2022-02-25T12:07:16.127Z</time>
      </trkpt>
      <trkpt lat="36.74584" lon="-3.58616">
        <ele>21.428559</ele>
        <time>2022-02-25T12:07:23.919Z</time>
      </trkpt>
      <trkpt lat="36.74599" lon="-3.58641">
        <ele>21.986932</ele>
        <time>2022-02-25T12:07:33.487Z</time>
      </trkpt>
      <trkpt lat="36.74603" lon="-3.58648">
        <ele>22.170766</ele>
        <time>2022-02-25T12:07:36.538Z</time>
      </trkpt>
      <trkpt lat="36.74613" lon="-3.58665">
        <ele>22.553508</ele>
        <time>2022-02-25T12:07:42.546Z</time>
      </trkpt>
      <trkpt lat="36.74621" lon="-3.58684">
        <ele>22.962599</ele>
        <time>2022-02-25T12:07:48.068Z</time>
      </trkpt>
      <trkpt lat="36.74625" lon="-3.58694">
        <ele>23.179002</ele>
        <time>2022-02-25T12:07:51.132Z</time>
      </trkpt>
      <trkpt lat="36.74623" lon="-3.58706">
        <ele>23.429027</ele>
        <time>2022-02-25T12:07:54.287Z</time>
      </trkpt>
      <trkpt lat="36.74613" lon="-3.58712">
        <ele>23.678472</ele>
        <time>2022-02-25T12:07:57.215Z</time>
      </trkpt>
      <trkpt lat="36.74609" lon="-3.58711">
        <ele>23.76478</ele>
        <time>2022-02-25T12:07:58.179Z</time>
      </trkpt>
      <trkpt lat="36.74588" lon="-3.58766">
        <ele>24.915077</ele>
        <time>2022-02-25T12:08:12.681Z</time>
      </trkpt>
      <trkpt lat="36.74604" lon="-3.58803">
        <ele>25.70869</ele>
        <time>2022-02-25T12:08:24.311Z</time>
      </trkpt>
      <trkpt lat="36.74628" lon="-3.58855">
        <ele>27.439919</ele>
        <time>2022-02-25T12:08:44.400Z</time>
      </trkpt>
      <trkpt lat="36.74655" lon="-3.58914">
        <ele>29.472981</ele>
        <time>2022-02-25T12:09:12.296Z</time>
      </trkpt>
      <trkpt lat="36.74651" lon="-3.58967">
        <ele>31.059947</ele>
        <time>2022-02-25T12:09:32.935Z</time>
      </trkpt>
      <trkpt lat="36.74634" lon="-3.59022">
        <ele>32.229779</ele>
        <time>2022-02-25T12:09:49.303Z</time>
      </trkpt>
      <trkpt lat="36.74625" lon="-3.59048">
        <ele>31.555145</ele>
        <time>2022-02-25T12:09:54.765Z</time>
      </trkpt>
      <trkpt lat="36.74589" lon="-3.59032">
        <ele>30.423317</ele>
        <time>2022-02-25T12:10:02.882Z</time>
      </trkpt>
      <trkpt lat="36.74583" lon="-3.59087">
        <ele>29.122655</ele>
        <time>2022-02-25T12:10:10.754Z</time>
      </trkpt>
      <trkpt lat="36.74585" lon="-3.591">
        <ele>28.808077</ele>
        <time>2022-02-25T12:10:12.475Z</time>
      </trkpt>
      <trkpt lat="36.74599" lon="-3.59135">
        <ele>27.886819</ele>
        <time>2022-02-25T12:10:17.377Z</time>
      </trkpt>
      <trkpt lat="36.74626" lon="-3.5924">
        <ele>21.391236</ele>
        <time>2022-02-25T12:10:30.079Z</time>
      </trkpt>
      <trkpt lat="36.74626" lon="-3.59272">
        <ele>19.142671</ele>
        <time>2022-02-25T12:10:33.589Z</time>
      </trkpt>
      <trkpt lat="36.74609" lon="-3.59304">
        <ele>16.414668</ele>
        <time>2022-02-25T12:10:37.869Z</time>
      </trkpt>
      <trkpt lat="36.74515" lon="-3.59381">
        <ele>8.958005</ele>
        <time>2022-02-25T12:10:54.498Z</time>
      </trkpt>
      <trkpt lat="36.74565" lon="-3.59505">
        <ele>4.21282</ele>
        <time>2022-02-25T12:11:13.421Z</time>
      </trkpt>
      <trkpt lat="36.74568" lon="-3.59527">
        <ele>3.615402</ele>
        <time>2022-02-25T12:11:17.038Z</time>
      </trkpt>
      <trkpt lat="36.74564" lon="-3.59589">
        <ele>3.723334</ele>
        <time>2022-02-25T12:11:27.690Z</time>
      </trkpt>
      <trkpt lat="36.74553" lon="-3.5964">
        <ele>3.816724</ele>
        <time>2022-02-25T12:11:37.977Z</time>
      </trkpt>
      <trkpt lat="36.74563" lon="-3.59704">
        <ele>3.931199</ele>
        <time>2022-02-25T12:11:51.881Z</time>
      </trkpt>
      <trkpt lat="36.74585" lon="-3.59927">
        <ele>5.872445</ele>
        <time>2022-02-25T12:12:44.474Z</time>
      </trkpt>
      <trkpt lat="36.74587" lon="-3.59989">
        <ele>6.629311</ele>
        <time>2022-02-25T12:12:58.020Z</time>
      </trkpt>
      <trkpt lat="36.74583" lon="-3.60042">
        <ele>7.488458</ele>
        <time>2022-02-25T12:13:09.280Z</time>
      </trkpt>
      <trkpt lat="36.74576" lon="-3.60101">
        <ele>8.442298</ele>
        <time>2022-02-25T12:13:22.630Z</time>
      </trkpt>
      <trkpt lat="36.74583" lon="-3.60118">
        <ele>8.746232</ele>
        <time>2022-02-25T12:13:27.507Z</time>
      </trkpt>
      <trkpt lat="36.74589" lon="-3.60137">
        <ele>9.058661</ele>
        <time>2022-02-25T12:13:32.998Z</time>
      </trkpt>
      <trkpt lat="36.74573" lon="-3.60151">
        <ele>9.445977</ele>
        <time>2022-02-25T12:13:38.476Z</time>
      </trkpt>
      <trkpt lat="36.74567" lon="-3.60164">
        <ele>9.688945</ele>
        <time>2022-02-25T12:13:44.267Z</time>
      </trkpt>
      <trkpt lat="36.74564" lon="-3.60185">
        <ele>10.562888</ele>
        <time>2022-02-25T12:13:50.758Z</time>
      </trkpt>
      <trkpt lat="36.74548" lon="-3.60214">
        <ele>13.000255</ele>
        <time>2022-02-25T12:14:06.432Z</time>
      </trkpt>
      <trkpt lat="36.74545" lon="-3.60228">
        <ele>14.024547</ele>
        <time>2022-02-25T12:14:11.655Z</time>
      </trkpt>
      <trkpt lat="36.74542" lon="-3.60269">
        <ele>16.857389</ele>
        <time>2022-02-25T12:14:31.930Z</time>
      </trkpt>
      <trkpt lat="36.74532" lon="-3.60291">
        <ele>18.571324</ele>
        <time>2022-02-25T12:14:46.103Z</time>
      </trkpt>
      <trkpt lat="36.74522" lon="-3.60296">
        <ele>19.47554</ele>
        <time>2022-02-25T12:14:54.189Z</time>
      </trkpt>
      <trkpt lat="36.74513" lon="-3.60296">
        <ele>20.249866</ele>
        <time>2022-02-25T12:14:59.733Z</time>
      </trkpt>
      <trkpt lat="36.74511" lon="-3.60311">
        <ele>21.35867</ele>
        <time>2022-02-25T12:15:10.474Z</time>
      </trkpt>
      <trkpt lat="36.74506" lon="-3.60323">
        <ele>22.275127</ele>
        <time>2022-02-25T12:15:19.660Z</time>
      </trkpt>
      <trkpt lat="36.74535" lon="-3.60339">
        <ele>25.006261</ele>
        <time>2022-02-25T12:15:46.431Z</time>
      </trkpt>
      <trkpt lat="36.74533" lon="-3.60349">
        <ele>25.8108</ele>
        <time>2022-02-25T12:15:54.034Z</time>
      </trkpt>
      <trkpt lat="36.74511" lon="-3.60354">
        <ele>28.341282</ele>
        <time>2022-02-25T12:16:12.880Z</time>
      </trkpt>
      <trkpt lat="36.74527" lon="-3.60381">
        <ele>31.352072</ele>
        <time>2022-02-25T12:16:35.758Z</time>
      </trkpt>
      <trkpt lat="36.74588" lon="-3.60391">
        <ele>38.283602</ele>
        <time>2022-02-25T12:17:27.524Z</time>
      </trkpt>
      <trkpt lat="36.74616" lon="-3.60381">
        <ele>41.579301</ele>
        <time>2022-02-25T12:17:49.622Z</time>
      </trkpt>
      <trkpt lat="36.74627" lon="-3.60384">
        <ele>42.847136</ele>
        <time>2022-02-25T12:17:58.129Z</time>
      </trkpt>
      <trkpt lat="36.74592" lon="-3.60413">
        <ele>46.66808</ele>
        <time>2022-02-25T12:18:25.980Z</time>
      </trkpt>
      <trkpt lat="36.74576" lon="-3.6044">
        <ele>48.456184</ele>
        <time>2022-02-25T12:18:44.309Z</time>
      </trkpt>
      <trkpt lat="36.74565" lon="-3.6049">
        <ele>51.221817</ele>
        <time>2022-02-25T12:19:08.874Z</time>
      </trkpt>
      <trkpt lat="36.74588" lon="-3.60628">
        <ele>58.068051</ele>
        <time>2022-02-25T12:20:00.760Z</time>
      </trkpt>
      <trkpt lat="36.74599" lon="-3.60706">
        <ele>60.455235</ele>
        <time>2022-02-25T12:20:29.321Z</time>
      </trkpt>
      <trkpt lat="36.746" lon="-3.60809">
        <ele>63.588644</ele>
        <time>2022-02-25T12:21:01.535Z</time>
      </trkpt>
      <trkpt lat="36.74593" lon="-3.60878">
        <ele>65.420166</ele>
        <time>2022-02-25T12:21:20.189Z</time>
      </trkpt>
      <trkpt lat="36.74576" lon="-3.6101">
        <ele>68.782034</ele>
        <time>2022-02-25T12:21:59.399Z</time>
      </trkpt>
      <trkpt lat="36.74566" lon="-3.61137">
        <ele>71.598464</ele>
        <time>2022-02-25T12:22:44.391Z</time>
      </trkpt>
      <trkpt lat="36.74564" lon="-3.61263">
        <ele>74.213124</ele>
        <time>2022-02-25T12:23:18.842Z</time>
      </trkpt>
      <trkpt lat="36.74566" lon="-3.61299">
        <ele>74.168218</ele>
        <time>2022-02-25T12:23:25.167Z</time>
      </trkpt>
      <trkpt lat="36.74552" lon="-3.61355">
        <ele>73.574884</ele>
        <time>2022-02-25T12:23:34.639Z</time>
      </trkpt>
      <trkpt lat="36.74559" lon="-3.61373">
        <ele>73.380249</ele>
        <time>2022-02-25T12:23:37.956Z</time>
      </trkpt>
      <trkpt lat="36.74543" lon="-3.61371">
        <ele>73.175607</ele>
        <time>2022-02-25T12:23:40.939Z</time>
      </trkpt>
      <trkpt lat="36.74521" lon="-3.61403">
        <ele>72.752183</ele>
        <time>2022-02-25T12:23:47.438Z</time>
      </trkpt>
      <trkpt lat="36.74505" lon="-3.61417">
        <ele>72.50984</ele>
        <time>2022-02-25T12:23:51.076Z</time>
      </trkpt>
      <trkpt lat="36.74485" lon="-3.61445">
        <ele>72.208004</ele>
        <time>2022-02-25T12:23:56.332Z</time>
      </trkpt>
      <trkpt lat="36.74448" lon="-3.61525">
        <ele>72.8306</ele>
        <time>2022-02-25T12:24:11.218Z</time>
      </trkpt>
      <trkpt lat="36.7443" lon="-3.6159">
        <ele>73.288835</ele>
        <time>2022-02-25T12:24:27.239Z</time>
      </trkpt>
      <trkpt lat="36.7441" lon="-3.61718">
        <ele>76.426805</ele>
        <time>2022-02-25T12:25:08.319Z</time>
      </trkpt>
      <trkpt lat="36.74402" lon="-3.61781">
        <ele>78.893194</ele>
        <time>2022-02-25T12:25:32.390Z</time>
      </trkpt>
      <trkpt lat="36.74388" lon="-3.61885">
        <ele>83.119664</ele>
        <time>2022-02-25T12:26:16.631Z</time>
      </trkpt>
      <trkpt lat="36.74393" lon="-3.61937">
        <ele>85.655196</ele>
        <time>2022-02-25T12:26:38.727Z</time>
      </trkpt>
      <trkpt lat="36.74408" lon="-3.6198">
        <ele>87.904619</ele>
        <time>2022-02-25T12:26:59.777Z</time>
      </trkpt>
      <trkpt lat="36.74424" lon="-3.62008">
        <ele>89.536609</ele>
        <time>2022-02-25T12:27:15.605Z</time>
      </trkpt>
      <trkpt lat="36.74529" lon="-3.62118">
        <ele>93.488071</ele>
        <time>2022-02-25T12:28:21.361Z</time>
      </trkpt>
      <trkpt lat="36.74582" lon="-3.6217">
        <ele>93.786699</ele>
        <time>2022-02-25T12:28:34.341Z</time>
      </trkpt>
      <trkpt lat="36.74604" lon="-3.62191">
        <ele>93.908719</ele>
        <time>2022-02-25T12:28:38.839Z</time>
      </trkpt>
      <trkpt lat="36.74637" lon="-3.62223">
        <ele>91.641836</ele>
        <time>2022-02-25T12:28:45.359Z</time>
      </trkpt>
      <trkpt lat="36.74644" lon="-3.6223">
        <ele>91.023082</ele>
        <time>2022-02-25T12:28:46.726Z</time>
      </trkpt>
      <trkpt lat="36.74665" lon="-3.62254">
        <ele>89.070019</ele>
        <time>2022-02-25T12:28:50.944Z</time>
      </trkpt>
      <trkpt lat="36.74677" lon="-3.62268">
        <ele>87.930482</ele>
        <time>2022-02-25T12:28:53.398Z</time>
      </trkpt>
      <trkpt lat="36.74697" lon="-3.62304">
        <ele>85.561769</ele>
        <time>2022-02-25T12:28:58.492Z</time>
      </trkpt>
      <trkpt lat="36.74705" lon="-3.62338">
        <ele>83.620876</ele>
        <time>2022-02-25T12:29:02.688Z</time>
      </trkpt>
      <trkpt lat="36.74706" lon="-3.62375">
        <ele>81.656666</ele>
        <time>2022-02-25T12:29:07.092Z</time>
      </trkpt>
      <trkpt lat="36.74696" lon="-3.62414">
        <ele>80.475367</ele>
        <time>2022-02-25T12:29:12.147Z</time>
      </trkpt>
      <trkpt lat="36.74668" lon="-3.62451">
        <ele>79.022243</ele>
        <time>2022-02-25T12:29:18.577Z</time>
      </trkpt>
      <trkpt lat="36.74637" lon="-3.62471">
        <ele>77.780337</ele>
        <time>2022-02-25T12:29:24.556Z</time>
      </trkpt>
      <trkpt lat="36.74579" lon="-3.625">
        <ele>75.544359</ele>
        <time>2022-02-25T12:29:36.089Z</time>
      </trkpt>
      <trkpt lat="36.7449" lon="-3.62543">
        <ele>75.487445</ele>
        <time>2022-02-25T12:29:59.432Z</time>
      </trkpt>
      <trkpt lat="36.74449" lon="-3.62571">
        <ele>75.595273</ele>
        <time>2022-02-25T12:30:12.149Z</time>
      </trkpt>
      <trkpt lat="36.74422" lon="-3.62603">
        <ele>75.682219</ele>
        <time>2022-02-25T12:30:21.772Z</time>
      </trkpt>
      <trkpt lat="36.74396" lon="-3.62655">
        <ele>76.03392</ele>
        <time>2022-02-25T12:30:32.448Z</time>
      </trkpt>
      <trkpt lat="36.74389" lon="-3.62689">
        <ele>76.264321</ele>
        <time>2022-02-25T12:30:38.234Z</time>
      </trkpt>
      <trkpt lat="36.74386" lon="-3.62733">
        <ele>76.552656</ele>
        <time>2022-02-25T12:30:45.056Z</time>
      </trkpt>
      <trkpt lat="36.74392" lon="-3.62921">
        <ele>79.139482</ele>
        <time>2022-02-25T12:31:38.281Z</time>
      </trkpt>
      <trkpt lat="36.74402" lon="-3.62968">
        <ele>80.166791</ele>
        <time>2022-02-25T12:31:49.984Z</time>
      </trkpt>
      <trkpt lat="36.74433" lon="-3.63023">
        <ele>81.584948</ele>
        <time>2022-02-25T12:32:10.227Z</time>
      </trkpt>
      <trkpt lat="36.74448" lon="-3.63054">
        <ele>82.253141</ele>
        <time>2022-02-25T12:32:20.958Z</time>
      </trkpt>
      <trkpt lat="36.74452" lon="-3.63072">
        <ele>82.563415</ele>
        <time>2022-02-25T12:32:26.959Z</time>
      </trkpt>
      <trkpt lat="36.7445" lon="-3.6311">
        <ele>83.194315</ele>
        <time>2022-02-25T12:32:41.098Z</time>
      </trkpt>
      <trkpt lat="36.74445" lon="-3.63132">
        <ele>83.591076</ele>
        <time>2022-02-25T12:32:47.780Z</time>
      </trkpt>
      <trkpt lat="36.74393" lon="-3.6327">
        <ele>86.379914</ele>
        <time>2022-02-25T12:33:19.076Z</time>
      </trkpt>
      <trkpt lat="36.74376" lon="-3.63331">
        <ele>87.978659</ele>
        <time>2022-02-25T12:33:37.218Z</time>
      </trkpt>
      <trkpt lat="36.7437" lon="-3.63391">
        <ele>89.473146</ele>
        <time>2022-02-25T12:33:57.045Z</time>
      </trkpt>
      <trkpt lat="36.74365" lon="-3.63611">
        <ele>97.521638</ele>
        <time>2022-02-25T12:35:15.035Z</time>
      </trkpt>
      <trkpt lat="36.74367" lon="-3.63642">
        <ele>98.815244</ele>
        <time>2022-02-25T12:35:29.302Z</time>
      </trkpt>
      <trkpt lat="36.74371" lon="-3.63666">
        <ele>99.86323</ele>
        <time>2022-02-25T12:35:40.939Z</time>
      </trkpt>
      <trkpt lat="36.7438" lon="-3.63698">
        <ele>101.326202</ele>
        <time>2022-02-25T12:35:56.563Z</time>
      </trkpt>
      <trkpt lat="36.74402" lon="-3.63749">
        <ele>103.905427</ele>
        <time>2022-02-25T12:36:21.532Z</time>
      </trkpt>
      <trkpt lat="36.74428" lon="-3.63791">
        <ele>106.304468</ele>
        <time>2022-02-25T12:36:43.617Z</time>
      </trkpt>
      <trkpt lat="36.74443" lon="-3.63812">
        <ele>107.548247</ele>
        <time>2022-02-25T12:36:54.884Z</time>
      </trkpt>
      <trkpt lat="36.74525" lon="-3.63884">
        <ele>111.62935</ele>
        <time>2022-02-25T12:37:40.383Z</time>
      </trkpt>
      <trkpt lat="36.74543" lon="-3.63915">
        <ele>112.284211</ele>
        <time>2022-02-25T12:37:50.535Z</time>
      </trkpt>
      <trkpt lat="36.74568" lon="-3.63988">
        <ele>113.627379</ele>
        <time>2022-02-25T12:38:07.118Z</time>
      </trkpt>
      <trkpt lat="36.74588" lon="-3.64015">
        <ele>114.242757</ele>
        <time>2022-02-25T12:38:14.907Z</time>
      </trkpt>
      <trkpt lat="36.74611" lon="-3.64033">
        <ele>114.471534</ele>
        <time>2022-02-25T12:38:22.833Z</time>
      </trkpt>
      <trkpt lat="36.74648" lon="-3.64043">
        <ele>114.383926</ele>
        <time>2022-02-25T12:38:33.495Z</time>
      </trkpt>
      <trkpt lat="36.74711" lon="-3.64017">
        <ele>114.231745</ele>
        <time>2022-02-25T12:38:48.452Z</time>
      </trkpt>
      <trkpt lat="36.74737" lon="-3.64013">
        <ele>114.17064</ele>
        <time>2022-02-25T12:38:53.511Z</time>
      </trkpt>
      <trkpt lat="36.7476" lon="-3.64022">
        <ele>114.116313</ele>
        <time>2022-02-25T12:38:59.639Z</time>
      </trkpt>
      <trkpt lat="36.74799" lon="-3.64062">
        <ele>111.322849</ele>
        <time>2022-02-25T12:39:08.491Z</time>
      </trkpt>
      <trkpt lat="36.74819" lon="-3.64073">
        <ele>109.763376</ele>
        <time>2022-02-25T12:39:12.166Z</time>
      </trkpt>
      <trkpt lat="36.74842" lon="-3.64075">
        <ele>108.188693</ele>
        <time>2022-02-25T12:39:15.598Z</time>
      </trkpt>
      <trkpt lat="36.74864" lon="-3.64065">
        <ele>106.503802</ele>
        <time>2022-02-25T12:39:19.078Z</time>
      </trkpt>
      <trkpt lat="36.74881" lon="-3.64056">
        <ele>105.242542</ele>
        <time>2022-02-25T12:39:21.718Z</time>
      </trkpt>
      <trkpt lat="36.74893" lon="-3.64049">
        <ele>104.356116</ele>
        <time>2022-02-25T12:39:23.493Z</time>
      </trkpt>
      <trkpt lat="36.74922" lon="-3.6404">
        <ele>102.277138</ele>
        <time>2022-02-25T12:39:27.676Z</time>
      </trkpt>
      <trkpt lat="36.74949" lon="-3.64042">
        <ele>99.830142</ele>
        <time>2022-02-25T12:39:31.540Z</time>
      </trkpt>
      <trkpt lat="36.74983" lon="-3.64064">
        <ele>96.037065</ele>
        <time>2022-02-25T12:39:36.892Z</time>
      </trkpt>
      <trkpt lat="36.75" lon="-3.6409">
        <ele>93.373681</ele>
        <time>2022-02-25T12:39:40.637Z</time>
      </trkpt>
      <trkpt lat="36.75005" lon="-3.64103">
        <ele>92.201174</ele>
        <time>2022-02-25T12:39:42.369Z</time>
      </trkpt>
      <trkpt lat="36.7501" lon="-3.6413">
        <ele>89.989752</ele>
        <time>2022-02-25T12:39:45.460Z</time>
      </trkpt>
      <trkpt lat="36.75008" lon="-3.64168">
        <ele>86.978932</ele>
        <time>2022-02-25T12:39:49.709Z</time>
      </trkpt>
      <trkpt lat="36.74991" lon="-3.64206">
        <ele>83.556405</ele>
        <time>2022-02-25T12:39:54.781Z</time>
      </trkpt>
      <trkpt lat="36.74962" lon="-3.64234">
        <ele>81.935085</ele>
        <time>2022-02-25T12:40:00.077Z</time>
      </trkpt>
      <trkpt lat="36.7484" lon="-3.64305">
        <ele>75.900068</ele>
        <time>2022-02-25T12:40:22.481Z</time>
      </trkpt>
      <trkpt lat="36.74803" lon="-3.64337">
        <ele>76.861622</ele>
        <time>2022-02-25T12:40:32.323Z</time>
      </trkpt>
      <trkpt lat="36.7477" lon="-3.64388">
        <ele>78.603111</ele>
        <time>2022-02-25T12:40:50.904Z</time>
      </trkpt>
      <trkpt lat="36.74709" lon="-3.64511">
        <ele>84.077437</ele>
        <time>2022-02-25T12:41:50.439Z</time>
      </trkpt>
      <trkpt lat="36.74698" lon="-3.64547">
        <ele>86.928186</ele>
        <time>2022-02-25T12:42:11.746Z</time>
      </trkpt>
      <trkpt lat="36.74698" lon="-3.6459">
        <ele>90.104962</ele>
        <time>2022-02-25T12:42:37.603Z</time>
      </trkpt>
      <trkpt lat="36.74703" lon="-3.64611">
        <ele>91.684626</ele>
        <time>2022-02-25T12:42:50.904Z</time>
      </trkpt>
      <trkpt lat="36.74719" lon="-3.64643">
        <ele>94.469371</ele>
        <time>2022-02-25T12:43:15.455Z</time>
      </trkpt>
      <trkpt lat="36.74743" lon="-3.64668">
        <ele>97.344109</ele>
        <time>2022-02-25T12:43:38.887Z</time>
      </trkpt>
      <trkpt lat="36.74843" lon="-3.64709">
        <ele>103.908416</ele>
        <time>2022-02-25T12:44:44.188Z</time>
      </trkpt>
      <trkpt lat="36.74922" lon="-3.64749">
        <ele>108.841158</ele>
        <time>2022-02-25T12:45:21.952Z</time>
      </trkpt>
      <trkpt lat="36.74938" lon="-3.64759">
        <ele>108.191168</ele>
        <time>2022-02-25T12:45:27.070Z</time>
      </trkpt>
      <trkpt lat="36.74948" lon="-3.64766">
        <ele>107.781735</ele>
        <time>2022-02-25T12:45:29.346Z</time>
      </trkpt>
      <trkpt lat="36.74959" lon="-3.64772">
        <ele>107.341029</ele>
        <time>2022-02-25T12:45:31.633Z</time>
      </trkpt>
      <trkpt lat="36.74994" lon="-3.64798">
        <ele>105.852489</ele>
        <time>2022-02-25T12:45:38.472Z</time>
      </trkpt>
      <trkpt lat="36.74977" lon="-3.64796">
        <ele>105.216932</ele>
        <time>2022-02-25T12:45:41.190Z</time>
      </trkpt>
      <trkpt lat="36.74955" lon="-3.64783">
        <ele>104.347039</ele>
        <time>2022-02-25T12:45:44.963Z</time>
      </trkpt>
      <trkpt lat="36.7493" lon="-3.64833">
        <ele>102.624653</ele>
        <time>2022-02-25T12:45:52.369Z</time>
      </trkpt>
      <trkpt lat="36.74915" lon="-3.64844">
        <ele>101.21627</ele>
        <time>2022-02-25T12:45:54.980Z</time>
      </trkpt>
      <trkpt lat="36.74878" lon="-3.6492">
        <ele>93.038257</ele>
        <time>2022-02-25T12:46:05.032Z</time>
      </trkpt>
      <trkpt lat="36.74865" lon="-3.64939">
        <ele>90.709839</ele>
        <time>2022-02-25T12:46:07.859Z</time>
      </trkpt>
      <trkpt lat="36.74851" lon="-3.64991">
        <ele>85.633547</ele>
        <time>2022-02-25T12:46:13.861Z</time>
      </trkpt>
      <trkpt lat="36.74824" lon="-3.64998">
        <ele>82.500928</ele>
        <time>2022-02-25T12:46:17.485Z</time>
      </trkpt>
      <trkpt lat="36.74798" lon="-3.65021">
        <ele>78.179228</ele>
        <time>2022-02-25T12:46:21.768Z</time>
      </trkpt>
      <trkpt lat="36.74772" lon="-3.65056">
        <ele>72.657586</ele>
        <time>2022-02-25T12:46:27.075Z</time>
      </trkpt>
      <trkpt lat="36.74749" lon="-3.65057">
        <ele>69.438155</ele>
        <time>2022-02-25T12:46:30.257Z</time>
      </trkpt>
      <trkpt lat="36.74746" lon="-3.65063">
        <ele>68.660556</ele>
        <time>2022-02-25T12:46:30.985Z</time>
      </trkpt>
      <trkpt lat="36.74781" lon="-3.65079">
        <ele>63.402532</ele>
        <time>2022-02-25T12:46:35.976Z</time>
      </trkpt>
      <trkpt lat="36.74822" lon="-3.65074">
        <ele>57.52018</ele>
        <time>2022-02-25T12:46:41.616Z</time>
      </trkpt>
      <trkpt lat="36.74836" lon="-3.65109">
        <ele>53.50325</ele>
        <time>2022-02-25T12:46:45.857Z</time>
      </trkpt>
      <trkpt lat="36.74847" lon="-3.6517">
        <ele>47.35092</ele>
        <time>2022-02-25T12:46:52.568Z</time>
      </trkpt>
      <trkpt lat="36.74854" lon="-3.65178">
        <ele>46.11275</ele>
        <time>2022-02-25T12:46:53.926Z</time>
      </trkpt>
      <trkpt lat="36.74887" lon="-3.65186">
        <ele>41.955474</ele>
        <time>2022-02-25T12:46:58.609Z</time>
      </trkpt>
      <trkpt lat="36.74894" lon="-3.65195">
        <ele>40.821137</ele>
        <time>2022-02-25T12:46:59.870Z</time>
      </trkpt>
      <trkpt lat="36.7491" lon="-3.65259">
        <ele>34.141657</ele>
        <time>2022-02-25T12:47:07.492Z</time>
      </trkpt>
      <trkpt lat="36.74903" lon="-3.65291">
        <ele>32.574692</ele>
        <time>2022-02-25T12:47:11.200Z</time>
      </trkpt>
      <trkpt lat="36.74934" lon="-3.65327">
        <ele>30.252731</ele>
        <time>2022-02-25T12:47:22.806Z</time>
      </trkpt>
      <trkpt lat="36.74937" lon="-3.65338">
        <ele>29.736923</ele>
        <time>2022-02-25T12:47:25.587Z</time>
      </trkpt>
      <trkpt lat="36.7493" lon="-3.65353">
        <ele>29.004607</ele>
        <time>2022-02-25T12:47:27.567Z</time>
      </trkpt>
      <trkpt lat="36.74919" lon="-3.65359">
        <ele>28.346574</ele>
        <time>2022-02-25T12:47:29.430Z</time>
      </trkpt>
      <trkpt lat="36.74949" lon="-3.6542">
        <ele>25.258535</ele>
        <time>2022-02-25T12:47:38.969Z</time>
      </trkpt>
      <trkpt lat="36.74975" lon="-3.65446">
        <ele>24.230251</ele>
        <time>2022-02-25T12:47:48.258Z</time>
      </trkpt>
      <trkpt lat="36.74999" lon="-3.65484">
        <ele>24.37575</ele>
        <time>2022-02-25T12:48:01.526Z</time>
      </trkpt>
      <trkpt lat="36.75024" lon="-3.65574">
        <ele>24.656419</ele>
        <time>2022-02-25T12:48:21.116Z</time>
      </trkpt>
      <trkpt lat="36.7503" lon="-3.65619">
        <ele>24.791408</ele>
        <time>2022-02-25T12:48:29.207Z</time>
      </trkpt>
      <trkpt lat="36.75023" lon="-3.65656">
        <ele>25.016888</ele>
        <time>2022-02-25T12:48:35.746Z</time>
      </trkpt>
      <trkpt lat="36.75015" lon="-3.65674">
        <ele>25.195455</ele>
        <time>2022-02-25T12:48:38.878Z</time>
      </trkpt>
      <trkpt lat="36.75011" lon="-3.65691">
        <ele>25.34911</ele>
        <time>2022-02-25T12:48:42.146Z</time>
      </trkpt>
      <trkpt lat="36.74998" lon="-3.65698">
        <ele>25.502313</ele>
        <time>2022-02-25T12:48:45.043Z</time>
      </trkpt>
      <trkpt lat="36.74993" lon="-3.65715">
        <ele>25.659401</ele>
        <time>2022-02-25T12:48:49.788Z</time>
      </trkpt>
      <trkpt lat="36.74961" lon="-3.65737">
        <ele>26.05941</ele>
        <time>2022-02-25T12:49:01.407Z</time>
      </trkpt>
      <trkpt lat="36.74894" lon="-3.65806">
        <ele>26.858028</ele>
        <time>2022-02-25T12:49:28.355Z</time>
      </trkpt>
      <trkpt lat="36.7488" lon="-3.65836">
        <ele>26.944247</ele>
        <time>2022-02-25T12:49:37.994Z</time>
      </trkpt>
      <trkpt lat="36.74882" lon="-3.65871">
        <ele>27.035162</ele>
        <time>2022-02-25T12:49:47.451Z</time>
      </trkpt>
      <trkpt lat="36.74913" lon="-3.6593">
        <ele>27.212874</ele>
        <time>2022-02-25T12:50:04.746Z</time>
      </trkpt>
      <trkpt lat="36.74914" lon="-3.65956">
        <ele>27.281025</ele>
        <time>2022-02-25T12:50:08.548Z</time>
      </trkpt>
      <trkpt lat="36.74906" lon="-3.65971">
        <ele>27.326483</ele>
        <time>2022-02-25T12:50:11.312Z</time>
      </trkpt>
      <trkpt lat="36.74872" lon="-3.65983">
        <ele>25.88096</ele>
        <time>2022-02-25T12:50:17.306Z</time>
      </trkpt>
      <trkpt lat="36.74835" lon="-3.66005">
        <ele>23.164508</ele>
        <time>2022-02-25T12:50:23.520Z</time>
      </trkpt>
      <trkpt lat="36.7481" lon="-3.66035">
        <ele>20.781583</ele>
        <time>2022-02-25T12:50:28.740Z</time>
      </trkpt>
      <trkpt lat="36.74796" lon="-3.66064">
        <ele>18.979301</ele>
        <time>2022-02-25T12:50:32.557Z</time>
      </trkpt>
      <trkpt lat="36.74759" lon="-3.66114">
        <ele>15.319327</ele>
        <time>2022-02-25T12:50:40.697Z</time>
      </trkpt>
      <trkpt lat="36.74714" lon="-3.66151">
        <ele>12.763327</ele>
        <time>2022-02-25T12:50:48.646Z</time>
      </trkpt>
      <trkpt lat="36.74674" lon="-3.66206">
        <ele>9.966149</ele>
        <time>2022-02-25T12:50:57.744Z</time>
      </trkpt>
      <trkpt lat="36.74648" lon="-3.66223">
        <ele>8.562527</ele>
        <time>2022-02-25T12:51:03.036Z</time>
      </trkpt>
      <trkpt lat="36.74635" lon="-3.66217">
        <ele>7.918344</ele>
        <time>2022-02-25T12:51:05.464Z</time>
      </trkpt>
      <trkpt lat="36.74599" lon="-3.66197">
        <ele>6.878891</ele>
        <time>2022-02-25T12:51:13.636Z</time>
      </trkpt>
      <trkpt lat="36.74583" lon="-3.66188">
        <ele>6.963186</ele>
        <time>2022-02-25T12:51:18.406Z</time>
      </trkpt>
      <trkpt lat="36.74575" lon="-3.66203">
        <ele>7.030781</ele>
        <time>2022-02-25T12:51:21.572Z</time>
      </trkpt>
      <trkpt lat="36.74566" lon="-3.66236">
        <ele>7.162104</ele>
        <time>2022-02-25T12:51:29.970Z</time>
      </trkpt>
      <trkpt lat="36.74559" lon="-3.66244">
        <ele>7.207445</ele>
        <time>2022-02-25T12:51:32.453Z</time>
      </trkpt>
      <trkpt lat="36.74494" lon="-3.66281">
        <ele>7.541082</ele>
        <time>2022-02-25T12:51:52.288Z</time>
      </trkpt>
      <trkpt lat="36.7447" lon="-3.66302">
        <ele>7.594982</ele>
        <time>2022-02-25T12:51:59.679Z</time>
      </trkpt>
      <trkpt lat="36.74461" lon="-3.66317">
        <ele>7.446286</ele>
        <time>2022-02-25T12:52:03.398Z</time>
      </trkpt>
      <trkpt lat="36.74447" lon="-3.66339">
        <ele>7.241517</ele>
        <time>2022-02-25T12:52:08.831Z</time>
      </trkpt>
      <trkpt lat="36.74434" lon="-3.66352">
        <ele>7.086548</ele>
        <time>2022-02-25T12:52:12.145Z</time>
      </trkpt>
      <trkpt lat="36.74414" lon="-3.66369">
        <ele>6.864888</ele>
        <time>2022-02-25T12:52:16.812Z</time>
      </trkpt>
      <trkpt lat="36.74391" lon="-3.66372">
        <ele>6.642751</ele>
        <time>2022-02-25T12:52:21.533Z</time>
      </trkpt>
      <trkpt lat="36.74384" lon="-3.66372">
        <ele>6.575573</ele>
        <time>2022-02-25T12:52:22.965Z</time>
      </trkpt>
      <trkpt lat="36.74373" lon="-3.66372">
        <ele>6.479514</ele>
        <time>2022-02-25T12:52:25.026Z</time>
      </trkpt>
      <trkpt lat="36.74357" lon="-3.66376">
        <ele>6.324886</ele>
        <time>2022-02-25T12:52:28.276Z</time>
      </trkpt>
      <trkpt lat="36.74346" lon="-3.66384">
        <ele>6.206607</ele>
        <time>2022-02-25T12:52:30.552Z</time>
      </trkpt>
      <trkpt lat="36.74328" lon="-3.66415">
        <ele>5.883955</ele>
        <time>2022-02-25T12:52:36.087Z</time>
      </trkpt>
      <trkpt lat="36.74306" lon="-3.66454">
        <ele>5.263154</ele>
        <time>2022-02-25T12:52:42.719Z</time>
      </trkpt>
      <trkpt lat="36.74296" lon="-3.66474">
        <ele>4.944123</ele>
        <time>2022-02-25T12:52:46.200Z</time>
      </trkpt>
      <trkpt lat="36.74281" lon="-3.66494">
        <ele>4.587352</ele>
        <time>2022-02-25T12:52:50.097Z</time>
      </trkpt>
      <trkpt lat="36.74266" lon="-3.66512">
        <ele>4.241355</ele>
        <time>2022-02-25T12:52:54.059Z</time>
      </trkpt>
      <trkpt lat="36.74263" lon="-3.66509">
        <ele>4.186846</ele>
        <time>2022-02-25T12:52:56.347Z</time>
      </trkpt>
      <trkpt lat="36.74262" lon="-3.66507">
        <ele>4.151829</ele>
        <time>2022-02-25T12:52:57.871Z</time>
      </trkpt>
      <trkpt lat="36.74211" lon="-3.66566">
        <ele>3.023416</ele>
        <time>2022-02-25T12:53:12.392Z</time>
      </trkpt>
      <trkpt lat="36.7417" lon="-3.66614">
        <ele>2.802797</ele>
        <time>2022-02-25T12:53:25.220Z</time>
      </trkpt>
      <trkpt lat="36.74092" lon="-3.66703">
        <ele>2.390562</ele>
        <time>2022-02-25T12:53:48.325Z</time>
      </trkpt>
      <trkpt lat="36.74048" lon="-3.66755">
        <ele>2.187731</ele>
        <time>2022-02-25T12:54:02.307Z</time>
      </trkpt>
      <trkpt lat="36.74025" lon="-3.66776">
        <ele>2.099575</ele>
        <time>2022-02-25T12:54:08.684Z</time>
      </trkpt>
      <trkpt lat="36.73956" lon="-3.66827">
        <ele>1.85173</ele>
        <time>2022-02-25T12:54:26.302Z</time>
      </trkpt>
      <trkpt lat="36.73909" lon="-3.66859">
        <ele>1.82408</ele>
        <time>2022-02-25T12:54:38.069Z</time>
      </trkpt>
      <trkpt lat="36.73837" lon="-3.66917">
        <ele>2.01824</ele>
        <time>2022-02-25T12:54:58.719Z</time>
      </trkpt>
      <trkpt lat="36.73793" lon="-3.66957">
        <ele>2.140691</ele>
        <time>2022-02-25T12:55:12.688Z</time>
      </trkpt>
      <trkpt lat="36.73742" lon="-3.67016">
        <ele>2.444159</ele>
        <time>2022-02-25T12:55:32.064Z</time>
      </trkpt>
      <trkpt lat="36.73692" lon="-3.67071">
        <ele>2.76892</ele>
        <time>2022-02-25T12:55:49.605Z</time>
      </trkpt>
      <trkpt lat="36.73634" lon="-3.67115">
        <ele>3.034072</ele>
        <time>2022-02-25T12:56:05.671Z</time>
      </trkpt>
      <trkpt lat="36.73608" lon="-3.67139">
        <ele>2.989546</ele>
        <time>2022-02-25T12:56:13.095Z</time>
      </trkpt>
      <trkpt lat="36.73576" lon="-3.67173">
        <ele>2.932038</ele>
        <time>2022-02-25T12:56:22.250Z</time>
      </trkpt>
      <trkpt lat="36.73545" lon="-3.67203">
        <ele>2.877954</ele>
        <time>2022-02-25T12:56:30.891Z</time>
      </trkpt>
      <trkpt lat="36.73526" lon="-3.67214">
        <ele>2.848967</ele>
        <time>2022-02-25T12:56:35.503Z</time>
      </trkpt>
      <trkpt lat="36.73481" lon="-3.67248">
        <ele>2.899396</ele>
        <time>2022-02-25T12:56:48.280Z</time>
      </trkpt>
      <trkpt lat="36.73451" lon="-3.67261">
        <ele>3.079323</ele>
        <time>2022-02-25T12:56:55.804Z</time>
      </trkpt>
      <trkpt lat="36.73419" lon="-3.67283">
        <ele>3.281637</ele>
        <time>2022-02-25T12:57:04.479Z</time>
      </trkpt>
      <trkpt lat="36.73405" lon="-3.67303">
        <ele>3.403814</ele>
        <time>2022-02-25T12:57:10.142Z</time>
      </trkpt>
      <trkpt lat="36.73368" lon="-3.6733">
        <ele>3.645002</ele>
        <time>2022-02-25T12:57:22.370Z</time>
      </trkpt>
      <trkpt lat="36.73342" lon="-3.67339">
        <ele>3.798002</ele>
        <time>2022-02-25T12:57:30.152Z</time>
      </trkpt>
      <trkpt lat="36.73316" lon="-3.67333">
        <ele>4.029878</ele>
        <time>2022-02-25T12:57:37.629Z</time>
      </trkpt>
      <trkpt lat="36.73312" lon="-3.67331">
        <ele>4.065249</ele>
        <time>2022-02-25T12:57:38.782Z</time>
      </trkpt>
      <trkpt lat="36.73286" lon="-3.67332">
        <ele>4.301962</ele>
        <time>2022-02-25T12:57:46.487Z</time>
      </trkpt>
      <trkpt lat="36.7326" lon="-3.67343">
        <ele>4.550897</ele>
        <time>2022-02-25T12:57:54.555Z</time>
      </trkpt>
      <trkpt lat="36.73262" lon="-3.67348">
        <ele>4.594271</ele>
        <time>2022-02-25T12:57:55.860Z</time>
      </trkpt>
      <trkpt lat="36.73249" lon="-3.67361">
        <ele>4.743716</ele>
        <time>2022-02-25T12:58:00.462Z</time>
      </trkpt>
      <trkpt lat="36.73216" lon="-3.67409">
        <ele>5.198685</ele>
        <time>2022-02-25T12:58:13.055Z</time>
      </trkpt>
      <trkpt lat="36.73209" lon="-3.6742">
        <ele>5.30647</ele>
        <time>2022-02-25T12:58:15.798Z</time>
      </trkpt>
      <trkpt lat="36.73135" lon="-3.67531">
        <ele>5.743086</ele>
        <time>2022-02-25T12:58:45.376Z</time>
      </trkpt>
      <trkpt lat="36.73099" lon="-3.67595">
        <ele>5.928371</ele>
        <time>2022-02-25T12:58:59.033Z</time>
      </trkpt>
      <trkpt lat="36.7306" lon="-3.67665">
        <ele>6.104441</ele>
        <time>2022-02-25T12:59:14.214Z</time>
      </trkpt>
      <trkpt lat="36.73042" lon="-3.67694">
        <ele>6.174512</ele>
        <time>2022-02-25T12:59:20.486Z</time>
      </trkpt>
      <trkpt lat="36.73018" lon="-3.67743">
        <ele>6.285289</ele>
        <time>2022-02-25T12:59:30.750Z</time>
      </trkpt>
      <trkpt lat="36.73004" lon="-3.67793">
        <ele>6.388812</ele>
        <time>2022-02-25T12:59:40.982Z</time>
      </trkpt>
      <trkpt lat="36.73006" lon="-3.67883">
        <ele>7.258895</ele>
        <time>2022-02-25T13:00:02.245Z</time>
      </trkpt>
      <trkpt lat="36.73007" lon="-3.67887">
        <ele>7.306517</ele>
        <time>2022-02-25T13:00:03.410Z</time>
      </trkpt>
      <trkpt lat="36.73011" lon="-3.67948">
        <ele>7.978055</ele>
        <time>2022-02-25T13:00:19.239Z</time>
      </trkpt>
      <trkpt lat="36.73017" lon="-3.67974">
        <ele>8.278372</ele>
        <time>2022-02-25T13:00:25.959Z</time>
      </trkpt>
      <trkpt lat="36.73029" lon="-3.68019">
        <ele>8.801227</ele>
        <time>2022-02-25T13:00:36.843Z</time>
      </trkpt>
      <trkpt lat="36.73046" lon="-3.68083">
        <ele>8.789294</ele>
        <time>2022-02-25T13:00:50.821Z</time>
      </trkpt>
      <trkpt lat="36.7307" lon="-3.68155">
        <ele>8.649721</ele>
        <time>2022-02-25T13:01:05.282Z</time>
      </trkpt>
      <trkpt lat="36.73096" lon="-3.68245">
        <ele>8.358096</ele>
        <time>2022-02-25T13:01:20.321Z</time>
      </trkpt>
      <trkpt lat="36.731" lon="-3.6827">
        <ele>7.941727</ele>
        <time>2022-02-25T13:01:24.098Z</time>
      </trkpt>
      <trkpt lat="36.73102" lon="-3.6829">
        <ele>7.617538</ele>
        <time>2022-02-25T13:01:26.926Z</time>
      </trkpt>
      <trkpt lat="36.73103" lon="-3.6836">
        <ele>6.489515</ele>
        <time>2022-02-25T13:01:36.865Z</time>
      </trkpt>
      <trkpt lat="36.73103" lon="-3.68372">
        <ele>6.296751</ele>
        <time>2022-02-25T13:01:38.539Z</time>
      </trkpt>
      <trkpt lat="36.73102" lon="-3.68393">
        <ele>5.953519</ele>
        <time>2022-02-25T13:01:41.598Z</time>
      </trkpt>
      <trkpt lat="36.73101" lon="-3.68447">
        <ele>5.084314</ele>
        <time>2022-02-25T13:01:49.515Z</time>
      </trkpt>
      <trkpt lat="36.731" lon="-3.68487">
        <ele>4.734504</ele>
        <time>2022-02-25T13:01:55.563Z</time>
      </trkpt>
      <trkpt lat="36.73099" lon="-3.68516">
        <ele>4.591749</ele>
        <time>2022-02-25T13:02:00.011Z</time>
      </trkpt>
      <trkpt lat="36.731" lon="-3.68558">
        <ele>4.386664</ele>
        <time>2022-02-25T13:02:06.545Z</time>
      </trkpt>
      <trkpt lat="36.73101" lon="-3.68601">
        <ele>4.178974</ele>
        <time>2022-02-25T13:02:13.508Z</time>
      </trkpt>
      <trkpt lat="36.73102" lon="-3.68609">
        <ele>4.138998</ele>
        <time>2022-02-25T13:02:14.919Z</time>
      </trkpt>
      <trkpt lat="36.73102" lon="-3.68616">
        <ele>4.106346</ele>
        <time>2022-02-25T13:02:16.105Z</time>
      </trkpt>
      <trkpt lat="36.73103" lon="-3.68649">
        <ele>3.942622</ele>
        <time>2022-02-25T13:02:22.207Z</time>
      </trkpt>
      <trkpt lat="36.73103" lon="-3.6866">
        <ele>3.891455</ele>
        <time>2022-02-25T13:02:24.336Z</time>
      </trkpt>
      <trkpt lat="36.73108" lon="-3.68719">
        <ele>4.278393</ele>
        <time>2022-02-25T13:02:37.275Z</time>
      </trkpt>
      <trkpt lat="36.73116" lon="-3.68726">
        <ele>4.459331</ele>
        <time>2022-02-25T13:02:40.196Z</time>
      </trkpt>
      <trkpt lat="36.73206" lon="-3.6873">
        <ele>6.078792</ele>
        <time>2022-02-25T13:03:08.831Z</time>
      </trkpt>
      <trkpt lat="36.73233" lon="-3.68731">
        <ele>6.56471</ele>
        <time>2022-02-25T13:03:18.470Z</time>
      </trkpt>
      <trkpt lat="36.73256" lon="-3.68739">
        <ele>6.987452</ele>
        <time>2022-02-25T13:03:26.749Z</time>
      </trkpt>
      <trkpt lat="36.73256" lon="-3.68736">
        <ele>7.021438</ele>
        <time>2022-02-25T13:03:27.307Z</time>
      </trkpt>
      <trkpt lat="36.73266" lon="-3.68731">
        <ele>7.118047</ele>
        <time>2022-02-25T13:03:30.701Z</time>
      </trkpt>
      <trkpt lat="36.73277" lon="-3.68738">
        <ele>7.235633</ele>
        <time>2022-02-25T13:03:35.189Z</time>
      </trkpt>
      <trkpt lat="36.73279" lon="-3.68749">
        <ele>7.320287</ele>
        <time>2022-02-25T13:03:38.367Z</time>
      </trkpt>
      <trkpt lat="36.73273" lon="-3.6876">
        <ele>7.418717</ele>
        <time>2022-02-25T13:03:41.721Z</time>
      </trkpt>
      <trkpt lat="36.7326" lon="-3.6876">
        <ele>7.537032</ele>
        <time>2022-02-25T13:03:45.507Z</time>
      </trkpt>
      <trkpt lat="36.73255" lon="-3.68785">
        <ele>7.726994</ele>
        <time>2022-02-25T13:03:51.584Z</time>
      </trkpt>
      <trkpt lat="36.7324" lon="-3.68815">
        <ele>7.999753</ele>
        <time>2022-02-25T13:03:59.394Z</time>
      </trkpt>
      <trkpt lat="36.73225" lon="-3.68846">
        <ele>8.268967</ele>
        <time>2022-02-25T13:04:05.785Z</time>
      </trkpt>
      <trkpt lat="36.73196" lon="-3.68845">
        <ele>8.541394</ele>
        <time>2022-02-25T13:04:13.692Z</time>
      </trkpt>
      <trkpt lat="36.73186" lon="-3.68877">
        <ele>8.638886</ele>
        <time>2022-02-25T13:04:21.411Z</time>
      </trkpt>
      <trkpt lat="36.73176" lon="-3.68921">
        <ele>8.387064</ele>
        <time>2022-02-25T13:04:32.304Z</time>
      </trkpt>
      <trkpt lat="36.73175" lon="-3.68925">
        <ele>8.365846</ele>
        <time>2022-02-25T13:04:32.974Z</time>
      </trkpt>
      <trkpt lat="36.73178" lon="-3.68929">
        <ele>8.333376</ele>
        <time>2022-02-25T13:04:34.512Z</time>
      </trkpt>
      <trkpt lat="36.73172" lon="-3.68956">
        <ele>8.18306</ele>
        <time>2022-02-25T13:04:42.450Z</time>
      </trkpt>
      <trkpt lat="36.73167" lon="-3.68972">
        <ele>8.085631</ele>
        <time>2022-02-25T13:04:45.941Z</time>
      </trkpt>
      <trkpt lat="36.73144" lon="-3.6905">
        <ele>7.62573</ele>
        <time>2022-02-25T13:04:58.819Z</time>
      </trkpt>
      <trkpt lat="36.73132" lon="-3.69078">
        <ele>7.449219</ele>
        <time>2022-02-25T13:05:05.723Z</time>
      </trkpt>
      <trkpt lat="36.73115" lon="-3.69123">
        <ele>7.163627</ele>
        <time>2022-02-25T13:05:13.696Z</time>
      </trkpt>
      <trkpt lat="36.73103" lon="-3.69138">
        <ele>7.04251</ele>
        <time>2022-02-25T13:05:17.337Z</time>
      </trkpt>
      <trkpt lat="36.73096" lon="-3.69145">
        <ele>6.982079</ele>
        <time>2022-02-25T13:05:19.554Z</time>
      </trkpt>
      <trkpt lat="36.7308" lon="-3.69161">
        <ele>6.835639</ele>
        <time>2022-02-25T13:05:23.314Z</time>
      </trkpt>
      <trkpt lat="36.73035" lon="-3.69189">
        <ele>6.474703</ele>
        <time>2022-02-25T13:05:36.081Z</time>
      </trkpt>
      <trkpt lat="36.7302" lon="-3.69206">
        <ele>6.333208</ele>
        <time>2022-02-25T13:05:39.864Z</time>
      </trkpt>
      <trkpt lat="36.7298" lon="-3.69302">
        <ele>6.246255</ele>
        <time>2022-02-25T13:05:57.778Z</time>
      </trkpt>
      <trkpt lat="36.72939" lon="-3.69358">
        <ele>6.302601</ele>
        <time>2022-02-25T13:06:13.687Z</time>
      </trkpt>
      <trkpt lat="36.72931" lon="-3.69391">
        <ele>6.328279</ele>
        <time>2022-02-25T13:06:20.361Z</time>
      </trkpt>
      <trkpt lat="36.72931" lon="-3.69406">
        <ele>6.339774</ele>
        <time>2022-02-25T13:06:23.039Z</time>
      </trkpt>
      <trkpt lat="36.72929" lon="-3.69432">
        <ele>6.322641</ele>
        <time>2022-02-25T13:06:28.073Z</time>
      </trkpt>
      <trkpt lat="36.72925" lon="-3.69453">
        <ele>6.256485</ele>
        <time>2022-02-25T13:06:31.744Z</time>
      </trkpt>
      <trkpt lat="36.72928" lon="-3.6947">
        <ele>6.20297</ele>
        <time>2022-02-25T13:06:35.130Z</time>
      </trkpt>
      <trkpt lat="36.72972" lon="-3.69538">
        <ele>5.933428</ele>
        <time>2022-02-25T13:06:50.233Z</time>
      </trkpt>
      <trkpt lat="36.73007" lon="-3.69593">
        <ele>5.713866</ele>
        <time>2022-02-25T13:07:01.639Z</time>
      </trkpt>
      <trkpt lat="36.73046" lon="-3.69652">
        <ele>5.363506</ele>
        <time>2022-02-25T13:07:13.789Z</time>
      </trkpt>
      <trkpt lat="36.7306" lon="-3.69674">
        <ele>5.225084</ele>
        <time>2022-02-25T13:07:18.087Z</time>
      </trkpt>
      <trkpt lat="36.73073" lon="-3.69694">
        <ele>5.090601</ele>
        <time>2022-02-25T13:07:22.553Z</time>
      </trkpt>
      <trkpt lat="36.73078" lon="-3.69703">
        <ele>5.036533</ele>
        <time>2022-02-25T13:07:24.284Z</time>
      </trkpt>
      <trkpt lat="36.73086" lon="-3.69715">
        <ele>4.957266</ele>
        <time>2022-02-25T13:07:27.005Z</time>
      </trkpt>
      <trkpt lat="36.73087" lon="-3.69716">
        <ele>4.947358</ele>
        <time>2022-02-25T13:07:27.368Z</time>
      </trkpt>
      <trkpt lat="36.73144" lon="-3.69803">
        <ele>4.548158</ele>
        <time>2022-02-25T13:07:46.443Z</time>
      </trkpt>
      <trkpt lat="36.73141" lon="-3.69808">
        <ele>4.554338</ele>
        <time>2022-02-25T13:07:47.480Z</time>
      </trkpt>
      <trkpt lat="36.73146" lon="-3.69837">
        <ele>4.584774</ele>
        <time>2022-02-25T13:07:53.079Z</time>
      </trkpt>
      <trkpt lat="36.73159" lon="-3.69847">
        <ele>4.60453</ele>
        <time>2022-02-25T13:07:56.708Z</time>
      </trkpt>
      <trkpt lat="36.73177" lon="-3.69877">
        <ele>4.642091</ele>
        <time>2022-02-25T13:08:03.918Z</time>
      </trkpt>
      <trkpt lat="36.73193" lon="-3.69892">
        <ele>4.667647</ele>
        <time>2022-02-25T13:08:08.806Z</time>
      </trkpt>
      <trkpt lat="36.73322" lon="-3.70088">
        <ele>5.458582</ele>
        <time>2022-02-25T13:09:00.103Z</time>
      </trkpt>
      <trkpt lat="36.73358" lon="-3.70156">
        <ele>5.677027</ele>
        <time>2022-02-25T13:09:18.701Z</time>
      </trkpt>
      <trkpt lat="36.73362" lon="-3.70177">
        <ele>5.686025</ele>
        <time>2022-02-25T13:09:22.558Z</time>
      </trkpt>
      <trkpt lat="36.73377" lon="-3.70185">
        <ele>5.694689</ele>
        <time>2022-02-25T13:09:27.142Z</time>
      </trkpt>
      <trkpt lat="36.73393" lon="-3.70213">
        <ele>5.709271</ele>
        <time>2022-02-25T13:09:33.226Z</time>
      </trkpt>
      <trkpt lat="36.73401" lon="-3.70215">
        <ele>5.713259</ele>
        <time>2022-02-25T13:09:35.734Z</time>
      </trkpt>
      <trkpt lat="36.73403" lon="-3.70226">
        <ele>5.718016</ele>
        <time>2022-02-25T13:09:37.613Z</time>
      </trkpt>
      <trkpt lat="36.73403" lon="-3.70229">
        <ele>5.719561</ele>
        <time>2022-02-25T13:09:38.214Z</time>
      </trkpt>
      <trkpt lat="36.73408" lon="-3.7026">
        <ele>5.732885</ele>
        <time>2022-02-25T13:09:43.869Z</time>
      </trkpt>
      <trkpt lat="36.73408" lon="-3.70293">
        <ele>5.746457</ele>
        <time>2022-02-25T13:09:49.053Z</time>
      </trkpt>
      <trkpt lat="36.73415" lon="-3.70305">
        <ele>5.753079</ele>
        <time>2022-02-25T13:09:52.853Z</time>
      </trkpt>
      <trkpt lat="36.7341" lon="-3.70314">
        <ele>5.755714</ele>
        <time>2022-02-25T13:09:54.760Z</time>
      </trkpt>
      <trkpt lat="36.73404" lon="-3.70315">
        <ele>5.679339</ele>
        <time>2022-02-25T13:09:56.002Z</time>
      </trkpt>
      <trkpt lat="36.73396" lon="-3.70347">
        <ele>5.35979</ele>
        <time>2022-02-25T13:10:02.120Z</time>
      </trkpt>
      <trkpt lat="36.73388" lon="-3.70455">
        <ele>4.303435</ele>
        <time>2022-02-25T13:10:18.151Z</time>
      </trkpt>
      <trkpt lat="36.73398" lon="-3.70485">
        <ele>3.987065</ele>
        <time>2022-02-25T13:10:23.098Z</time>
      </trkpt>
      <trkpt lat="36.73398" lon="-3.70518">
        <ele>3.666043</ele>
        <time>2022-02-25T13:10:28.205Z</time>
      </trkpt>
      <trkpt lat="36.73366" lon="-3.70565">
        <ele>3.385162</ele>
        <time>2022-02-25T13:10:38.438Z</time>
      </trkpt>
      <trkpt lat="36.73344" lon="-3.70593">
        <ele>3.235593</ele>
        <time>2022-02-25T13:10:45.146Z</time>
      </trkpt>
      <trkpt lat="36.73333" lon="-3.70621">
        <ele>3.117779</ele>
        <time>2022-02-25T13:10:50.320Z</time>
      </trkpt>
      <trkpt lat="36.73328" lon="-3.70653">
        <ele>2.996125</ele>
        <time>2022-02-25T13:10:55.619Z</time>
      </trkpt>
      <trkpt lat="36.73316" lon="-3.70737">
        <ele>2.775537</ele>
        <time>2022-02-25T13:11:10.188Z</time>
      </trkpt>
      <trkpt lat="36.73304" lon="-3.70777">
        <ele>2.872356</ele>
        <time>2022-02-25T13:11:19.521Z</time>
      </trkpt>
      <trkpt lat="36.73287" lon="-3.70822">
        <ele>2.987124</ele>
        <time>2022-02-25T13:11:30.641Z</time>
      </trkpt>
      <trkpt lat="36.73246" lon="-3.70914">
        <ele>3.232</ele>
        <time>2022-02-25T13:11:49.365Z</time>
      </trkpt>
      <trkpt lat="36.73193" lon="-3.70963">
        <ele>3.628232</ele>
        <time>2022-02-25T13:12:03.865Z</time>
      </trkpt>
      <trkpt lat="36.73186" lon="-3.70984">
        <ele>3.748982</ele>
        <time>2022-02-25T13:12:09.097Z</time>
      </trkpt>
      <trkpt lat="36.7319" lon="-3.71023">
        <ele>3.954356</ele>
        <time>2022-02-25T13:12:17.941Z</time>
      </trkpt>
      <trkpt lat="36.73234" lon="-3.71118">
        <ele>4.893811</ele>
        <time>2022-02-25T13:12:40.621Z</time>
      </trkpt>
      <trkpt lat="36.73236" lon="-3.71144">
        <ele>5.513156</ele>
        <time>2022-02-25T13:12:46.784Z</time>
      </trkpt>
      <trkpt lat="36.73227" lon="-3.71177">
        <ele>6.335824</ele>
        <time>2022-02-25T13:12:55.004Z</time>
      </trkpt>
      <trkpt lat="36.73223" lon="-3.71198">
        <ele>6.84791</ele>
        <time>2022-02-25T13:13:00.605Z</time>
      </trkpt>
      <trkpt lat="36.73252" lon="-3.71292">
        <ele>9.265703</ele>
        <time>2022-02-25T13:13:35.825Z</time>
      </trkpt>
      <trkpt lat="36.73256" lon="-3.71302">
        <ele>9.542841</ele>
        <time>2022-02-25T13:13:39.424Z</time>
      </trkpt>
      <trkpt lat="36.73287" lon="-3.71326">
        <ele>11.194323</ele>
        <time>2022-02-25T13:13:56.328Z</time>
      </trkpt>
      <trkpt lat="36.73319" lon="-3.71344">
        <ele>12.928237</ele>
        <time>2022-02-25T13:14:12.663Z</time>
      </trkpt>
      <trkpt lat="36.73322" lon="-3.7135">
        <ele>13.202753</ele>
        <time>2022-02-25T13:14:14.232Z</time>
      </trkpt>
      <trkpt lat="36.73342" lon="-3.71349">
        <ele>14.215684</ele>
        <time>2022-02-25T13:14:26.177Z</time>
      </trkpt>
      <trkpt lat="36.73385" lon="-3.71358">
        <ele>16.386857</ele>
        <time>2022-02-25T13:14:47.187Z</time>
      </trkpt>
      <trkpt lat="36.73446" lon="-3.71353">
        <ele>19.281223</ele>
        <time>2022-02-25T13:15:18.300Z</time>
      </trkpt>
      <trkpt lat="36.73466" lon="-3.71377">
        <ele>20.332318</ele>
        <time>2022-02-25T13:15:30.613Z</time>
      </trkpt>
      <trkpt lat="36.73502" lon="-3.71372">
        <ele>21.676662</ele>
        <time>2022-02-25T13:15:44.524Z</time>
      </trkpt>
      <trkpt lat="36.73531" lon="-3.71376">
        <ele>22.751405</ele>
        <time>2022-02-25T13:15:52.544Z</time>
      </trkpt>
      <trkpt lat="36.73529" lon="-3.71384">
        <ele>22.998611</ele>
        <time>2022-02-25T13:15:55.124Z</time>
      </trkpt>
      <trkpt lat="36.73507" lon="-3.71389">
        <ele>23.824869</ele>
        <time>2022-02-25T13:16:04.622Z</time>
      </trkpt>
      <trkpt lat="36.73477" lon="-3.7142">
        <ele>25.306198</ele>
        <time>2022-02-25T13:16:19.986Z</time>
      </trkpt>
      <trkpt lat="36.73454" lon="-3.71414">
        <ele>27.055259</ele>
        <time>2022-02-25T13:16:31.163Z</time>
      </trkpt>
      <trkpt lat="36.73444" lon="-3.71418">
        <ele>28.067415</ele>
        <time>2022-02-25T13:16:35.891Z</time>
      </trkpt>
      <trkpt lat="36.73418" lon="-3.71443">
        <ele>31.025626</ele>
        <time>2022-02-25T13:16:55.722Z</time>
      </trkpt>
      <trkpt lat="36.73417" lon="-3.71458">
        <ele>32.067215</ele>
        <time>2022-02-25T13:17:00.772Z</time>
      </trkpt>
      <trkpt lat="36.73426" lon="-3.71476">
        <ele>33.626044</ele>
        <time>2022-02-25T13:17:13.095Z</time>
      </trkpt>
      <trkpt lat="36.73427" lon="-3.71504">
        <ele>35.677345</ele>
        <time>2022-02-25T13:17:33.313Z</time>
      </trkpt>
      <trkpt lat="36.73414" lon="-3.71542">
        <ele>38.602784</ele>
        <time>2022-02-25T13:17:58.789Z</time>
      </trkpt>
      <trkpt lat="36.73421" lon="-3.71569">
        <ele>40.668698</ele>
        <time>2022-02-25T13:18:16.586Z</time>
      </trkpt>
      <trkpt lat="36.73447" lon="-3.71603">
        <ele>44.361916</ele>
        <time>2022-02-25T13:18:49.368Z</time>
      </trkpt>
      <trkpt lat="36.7348" lon="-3.71616">
        <ele>47.876387</ele>
        <time>2022-02-25T13:19:18.894Z</time>
      </trkpt>
      <trkpt lat="36.73493" lon="-3.71629">
        <ele>49.595431</ele>
        <time>2022-02-25T13:19:37.026Z</time>
      </trkpt>
      <trkpt lat="36.73527" lon="-3.71727">
        <ele>58.346298</ele>
        <time>2022-02-25T13:20:35.680Z</time>
      </trkpt>
      <trkpt lat="36.7354" lon="-3.71737">
        <ele>59.925762</ele>
        <time>2022-02-25T13:20:45.541Z</time>
      </trkpt>
      <trkpt lat="36.736" lon="-3.71748">
        <ele>63.013866</ele>
        <time>2022-02-25T13:21:15.430Z</time>
      </trkpt>
      <trkpt lat="36.7361" lon="-3.71761">
        <ele>63.759122</ele>
        <time>2022-02-25T13:21:19.930Z</time>
      </trkpt>
      <trkpt lat="36.73619" lon="-3.71787">
        <ele>64.842393</ele>
        <time>2022-02-25T13:21:28.123Z</time>
      </trkpt>
      <trkpt lat="36.73618" lon="-3.71807">
        <ele>65.664424</ele>
        <time>2022-02-25T13:21:34.060Z</time>
      </trkpt>
      <trkpt lat="36.73605" lon="-3.71816">
        <ele>66.370132</ele>
        <time>2022-02-25T13:21:40.347Z</time>
      </trkpt>
      <trkpt lat="36.73585" lon="-3.71816">
        <ele>67.390839</ele>
        <time>2022-02-25T13:21:49.048Z</time>
      </trkpt>
      <trkpt lat="36.73572" lon="-3.71823">
        <ele>68.051023</ele>
        <time>2022-02-25T13:21:55.736Z</time>
      </trkpt>
      <trkpt lat="36.73562" lon="-3.7184">
        <ele>68.900135</ele>
        <time>2022-02-25T13:22:04.621Z</time>
      </trkpt>
      <trkpt lat="36.73556" lon="-3.71896">
        <ele>72.433347</ele>
        <time>2022-02-25T13:22:30.443Z</time>
      </trkpt>
      <trkpt lat="36.73586" lon="-3.71982">
        <ele>78.406644</ele>
        <time>2022-02-25T13:23:18.005Z</time>
      </trkpt>
      <trkpt lat="36.73597" lon="-3.72037">
        <ele>82.011773</ele>
        <time>2022-02-25T13:23:47.068Z</time>
      </trkpt>
      <trkpt lat="36.73617" lon="-3.72058">
        <ele>84.321507</ele>
        <time>2022-02-25T13:24:04.921Z</time>
      </trkpt>
      <trkpt lat="36.73655" lon="-3.72065">
        <ele>88.280425</ele>
        <time>2022-02-25T13:24:36.883Z</time>
      </trkpt>
      <trkpt lat="36.73675" lon="-3.72089">
        <ele>91.13354</ele>
        <time>2022-02-25T13:25:01.287Z</time>
      </trkpt>
      <trkpt lat="36.73678" lon="-3.72101">
        <ele>92.200942</ele>
        <time>2022-02-25T13:25:10.024Z</time>
      </trkpt>
      <trkpt lat="36.73663" lon="-3.72168">
        <ele>97.960247</ele>
        <time>2022-02-25T13:25:52.695Z</time>
      </trkpt>
      <trkpt lat="36.7367" lon="-3.72213">
        <ele>101.743025</ele>
        <time>2022-02-25T13:26:16.817Z</time>
      </trkpt>
      <trkpt lat="36.73683" lon="-3.72255">
        <ele>105.198373</ele>
        <time>2022-02-25T13:26:38.730Z</time>
      </trkpt>
      <trkpt lat="36.73711" lon="-3.72289">
        <ele>108.975668</ele>
        <time>2022-02-25T13:27:05.130Z</time>
      </trkpt>
      <trkpt lat="36.73709" lon="-3.72299">
        <ele>109.837634</ele>
        <time>2022-02-25T13:27:12.160Z</time>
      </trkpt>
      <trkpt lat="36.73699" lon="-3.72302">
        <ele>110.801422</ele>
        <time>2022-02-25T13:27:19.078Z</time>
      </trkpt>
      <trkpt lat="36.73656" lon="-3.72271">
        <ele>115.549533</ele>
        <time>2022-02-25T13:28:00.354Z</time>
      </trkpt>
      <trkpt lat="36.73614" lon="-3.72218">
        <ele>120.853612</ele>
        <time>2022-02-25T13:28:42.162Z</time>
      </trkpt>
      <trkpt lat="36.7359" lon="-3.72241">
        <ele>123.116065</ele>
        <time>2022-02-25T13:29:01.610Z</time>
      </trkpt>
      <trkpt lat="36.73576" lon="-3.72243">
        <ele>124.163271</ele>
        <time>2022-02-25T13:29:09.266Z</time>
      </trkpt>
      <trkpt lat="36.73567" lon="-3.7224">
        <ele>124.869716</ele>
        <time>2022-02-25T13:29:15.356Z</time>
      </trkpt>
      <trkpt lat="36.73505" lon="-3.7219">
        <ele>130.315426</ele>
        <time>2022-02-25T13:29:58.809Z</time>
      </trkpt>
      <trkpt lat="36.73496" lon="-3.72199">
        <ele>131.202707</ele>
        <time>2022-02-25T13:30:05.866Z</time>
      </trkpt>
      <trkpt lat="36.73502" lon="-3.72211">
        <ele>132.026065</ele>
        <time>2022-02-25T13:30:11.443Z</time>
      </trkpt>
      <trkpt lat="36.73535" lon="-3.72251">
        <ele>133.067182</ele>
        <time>2022-02-25T13:30:32.761Z</time>
      </trkpt>
      <trkpt lat="36.73512" lon="-3.72254">
        <ele>133.351758</ele>
        <time>2022-02-25T13:30:40.819Z</time>
      </trkpt>
      <trkpt lat="36.73506" lon="-3.72265">
        <ele>133.484422</ele>
        <time>2022-02-25T13:30:44.685Z</time>
      </trkpt>
      <trkpt lat="36.73506" lon="-3.72291">
        <ele>133.751599</ele>
        <time>2022-02-25T13:30:50.410Z</time>
      </trkpt>
      <trkpt lat="36.73525" lon="-3.72334">
        <ele>134.24965</ele>
        <time>2022-02-25T13:30:59.032Z</time>
      </trkpt>
      <trkpt lat="36.7353" lon="-3.72376">
        <ele>134.677321</ele>
        <time>2022-02-25T13:31:05.098Z</time>
      </trkpt>
      <trkpt lat="36.73538" lon="-3.72404">
        <ele>134.896905</ele>
        <time>2022-02-25T13:31:09.438Z</time>
      </trkpt>
      <trkpt lat="36.73561" lon="-3.72443">
        <ele>135.07249</ele>
        <time>2022-02-25T13:31:16.138Z</time>
      </trkpt>
      <trkpt lat="36.73563" lon="-3.72457">
        <ele>135.126307</ele>
        <time>2022-02-25T13:31:18.263Z</time>
      </trkpt>
      <trkpt lat="36.73557" lon="-3.72474">
        <ele>135.19282</ele>
        <time>2022-02-25T13:31:21.076Z</time>
      </trkpt>
      <trkpt lat="36.73531" lon="-3.7251">
        <ele>135.3699</ele>
        <time>2022-02-25T13:31:29.182Z</time>
      </trkpt>
      <trkpt lat="36.73462" lon="-3.72552">
        <ele>135.997085</ele>
        <time>2022-02-25T13:32:02.082Z</time>
      </trkpt>
      <trkpt lat="36.73423" lon="-3.72607">
        <ele>137.87378</ele>
        <time>2022-02-25T13:32:25.068Z</time>
      </trkpt>
      <trkpt lat="36.73406" lon="-3.72652">
        <ele>139.109612</ele>
        <time>2022-02-25T13:32:41.098Z</time>
      </trkpt>
      <trkpt lat="36.73405" lon="-3.72679">
        <ele>139.804142</ele>
        <time>2022-02-25T13:32:50.245Z</time>
      </trkpt>
      <trkpt lat="36.7341" lon="-3.72692">
        <ele>140.161058</ele>
        <time>2022-02-25T13:32:53.602Z</time>
      </trkpt>
      <trkpt lat="36.73429" lon="-3.72708">
        <ele>140.89578</ele>
        <time>2022-02-25T13:33:03.549Z</time>
      </trkpt>
      <trkpt lat="36.73407" lon="-3.7273">
        <ele>140.728085</ele>
        <time>2022-02-25T13:33:12.846Z</time>
      </trkpt>
      <trkpt lat="36.73395" lon="-3.72804">
        <ele>138.292511</ele>
        <time>2022-02-25T13:33:28.292Z</time>
      </trkpt>
      <trkpt lat="36.73402" lon="-3.72809">
        <ele>137.975362</ele>
        <time>2022-02-25T13:33:29.550Z</time>
      </trkpt>
      <trkpt lat="36.7345" lon="-3.72806">
        <ele>136.016876</ele>
        <time>2022-02-25T13:33:37.072Z</time>
      </trkpt>
      <trkpt lat="36.73468" lon="-3.72811">
        <ele>135.264878</ele>
        <time>2022-02-25T13:33:39.743Z</time>
      </trkpt>
      <trkpt lat="36.73483" lon="-3.72826">
        <ele>134.516045</ele>
        <time>2022-02-25T13:33:42.388Z</time>
      </trkpt>
      <trkpt lat="36.73493" lon="-3.72844">
        <ele>133.276754</ele>
        <time>2022-02-25T13:33:44.870Z</time>
      </trkpt>
      <trkpt lat="36.73518" lon="-3.72925">
        <ele>124.407162</ele>
        <time>2022-02-25T13:33:54.493Z</time>
      </trkpt>
      <trkpt lat="36.73522" lon="-3.72965">
        <ele>120.248814</ele>
        <time>2022-02-25T13:33:58.960Z</time>
      </trkpt>
      <trkpt lat="36.73518" lon="-3.73015">
        <ele>115.15667</ele>
        <time>2022-02-25T13:34:04.391Z</time>
      </trkpt>
      <trkpt lat="36.73521" lon="-3.73104">
        <ele>105.923191</ele>
        <time>2022-02-25T13:34:13.995Z</time>
      </trkpt>
      <trkpt lat="36.73534" lon="-3.7316">
        <ele>99.741915</ele>
        <time>2022-02-25T13:34:20.332Z</time>
      </trkpt>
      <trkpt lat="36.7354" lon="-3.73244">
        <ele>90.819156</ele>
        <time>2022-02-25T13:34:29.533Z</time>
      </trkpt>
      <trkpt lat="36.73558" lon="-3.73318">
        <ele>83.681713</ele>
        <time>2022-02-25T13:34:38.246Z</time>
      </trkpt>
      <trkpt lat="36.73559" lon="-3.7335">
        <ele>81.031992</ele>
        <time>2022-02-25T13:34:41.897Z</time>
      </trkpt>
      <trkpt lat="36.73554" lon="-3.73366">
        <ele>79.675248</ele>
        <time>2022-02-25T13:34:43.759Z</time>
      </trkpt>
      <trkpt lat="36.73526" lon="-3.73396">
        <ele>75.806837</ele>
        <time>2022-02-25T13:34:49.150Z</time>
      </trkpt>
      <trkpt lat="36.73517" lon="-3.73414">
        <ele>74.09107</ele>
        <time>2022-02-25T13:34:51.579Z</time>
      </trkpt>
      <trkpt lat="36.73512" lon="-3.7344">
        <ele>71.890884</ele>
        <time>2022-02-25T13:34:54.667Z</time>
      </trkpt>
      <trkpt lat="36.73504" lon="-3.73531">
        <ele>64.010098</ele>
        <time>2022-02-25T13:35:05.006Z</time>
      </trkpt>
      <trkpt lat="36.73494" lon="-3.73625">
        <ele>55.56411</ele>
        <time>2022-02-25T13:35:15.657Z</time>
      </trkpt>
      <trkpt lat="36.73495" lon="-3.73644">
        <ele>53.78466</ele>
        <time>2022-02-25T13:35:17.881Z</time>
      </trkpt>
      <trkpt lat="36.73497" lon="-3.73649">
        <ele>53.302903</ele>
        <time>2022-02-25T13:35:18.472Z</time>
      </trkpt>
      <trkpt lat="36.73511" lon="-3.73685">
        <ele>49.703826</ele>
        <time>2022-02-25T13:35:22.931Z</time>
      </trkpt>
      <trkpt lat="36.7353" lon="-3.73733">
        <ele>44.720886</ele>
        <time>2022-02-25T13:35:28.700Z</time>
      </trkpt>
      <trkpt lat="36.7354" lon="-3.73769">
        <ele>41.096523</ele>
        <time>2022-02-25T13:35:32.828Z</time>
      </trkpt>
      <trkpt lat="36.7354" lon="-3.73793">
        <ele>38.849539</ele>
        <time>2022-02-25T13:35:35.401Z</time>
      </trkpt>
      <trkpt lat="36.73528" lon="-3.73856">
        <ele>32.637369</ele>
        <time>2022-02-25T13:35:42.670Z</time>
      </trkpt>
      <trkpt lat="36.73519" lon="-3.73877">
        <ele>30.437215</ele>
        <time>2022-02-25T13:35:45.257Z</time>
      </trkpt>
      <trkpt lat="36.735" lon="-3.73915">
        <ele>26.782452</ele>
        <time>2022-02-25T13:35:50.366Z</time>
      </trkpt>
      <trkpt lat="36.73491" lon="-3.73927">
        <ele>25.866222</ele>
        <time>2022-02-25T13:35:52.358Z</time>
      </trkpt>
      <trkpt lat="36.73497" lon="-3.73938">
        <ele>25.214763</ele>
        <time>2022-02-25T13:35:53.750Z</time>
      </trkpt>
      <trkpt lat="36.73555" lon="-3.73903">
        <ele>20.832368</ele>
        <time>2022-02-25T13:36:03.511Z</time>
      </trkpt>
      <trkpt lat="36.73558" lon="-3.73908">
        <ele>20.515979</ele>
        <time>2022-02-25T13:36:04.212Z</time>
      </trkpt>
      <trkpt lat="36.73561" lon="-3.73915">
        <ele>20.047648</ele>
        <time>2022-02-25T13:36:05.293Z</time>
      </trkpt>
      <trkpt lat="36.73536" lon="-3.73936">
        <ele>18.007842</ele>
        <time>2022-02-25T13:36:10.019Z</time>
      </trkpt>
      <trkpt lat="36.73519" lon="-3.73949">
        <ele>16.677759</ele>
        <time>2022-02-25T13:36:13.252Z</time>
      </trkpt>
      <trkpt lat="36.73516" lon="-3.73958">
        <ele>16.185519</ele>
        <time>2022-02-25T13:36:14.435Z</time>
      </trkpt>
      <trkpt lat="36.73514" lon="-3.73964">
        <ele>15.802427</ele>
        <time>2022-02-25T13:36:15.358Z</time>
      </trkpt>
      <trkpt lat="36.73515" lon="-3.73997">
        <ele>14.613745</ele>
        <time>2022-02-25T13:36:19.913Z</time>
      </trkpt>
      <trkpt lat="36.73505" lon="-3.74017">
        <ele>13.880654</ele>
        <time>2022-02-25T13:36:23.055Z</time>
      </trkpt>
      <trkpt lat="36.73487" lon="-3.74037">
        <ele>12.910441</ele>
        <time>2022-02-25T13:36:27.051Z</time>
      </trkpt>
      <trkpt lat="36.73431" lon="-3.74098">
        <ele>9.944511</ele>
        <time>2022-02-25T13:36:38.985Z</time>
      </trkpt>
      <trkpt lat="36.73486" lon="-3.74181">
        <ele>7.420593</ele>
        <time>2022-02-25T13:36:54.124Z</time>
      </trkpt>
      <trkpt lat="36.73512" lon="-3.7422">
        <ele>6.626334</ele>
        <time>2022-02-25T13:37:01.380Z</time>
      </trkpt>
      <trkpt lat="36.7352" lon="-3.74235">
        <ele>6.333998</ele>
        <time>2022-02-25T13:37:04.158Z</time>
      </trkpt>
      <trkpt lat="36.7353" lon="-3.74269">
        <ele>5.767062</ele>
        <time>2022-02-25T13:37:09.705Z</time>
      </trkpt>
      <trkpt lat="36.7355" lon="-3.7432">
        <ele>4.865827</ele>
        <time>2022-02-25T13:37:18.612Z</time>
      </trkpt>
      <trkpt lat="36.73538" lon="-3.7433">
        <ele>4.720583</ele>
        <time>2022-02-25T13:37:21.536Z</time>
      </trkpt>
      <trkpt lat="36.73517" lon="-3.74348">
        <ele>4.567319</ele>
        <time>2022-02-25T13:37:26.560Z</time>
      </trkpt>
      <trkpt lat="36.73536" lon="-3.74384">
        <ele>4.356636</ele>
        <time>2022-02-25T13:37:33.831Z</time>
      </trkpt>
      <trkpt lat="36.7356" lon="-3.74429">
        <ele>4.09923</ele>
        <time>2022-02-25T13:37:42.821Z</time>
      </trkpt>
      <trkpt lat="36.73574" lon="-3.74456">
        <ele>3.940079</ele>
        <time>2022-02-25T13:37:48.281Z</time>
      </trkpt>
      <trkpt lat="36.73594" lon="-3.7449">
        <ele>3.739342</ele>
        <time>2022-02-25T13:37:55.305Z</time>
      </trkpt>
      <trkpt lat="36.73609" lon="-3.7452">
        <ele>3.719443</ele>
        <time>2022-02-25T13:38:01.596Z</time>
      </trkpt>
      <trkpt lat="36.73612" lon="-3.74525">
        <ele>3.723255</ele>
        <time>2022-02-25T13:38:02.780Z</time>
      </trkpt>
      <trkpt lat="36.73622" lon="-3.74543">
        <ele>3.735523</ele>
        <time>2022-02-25T13:38:06.689Z</time>
      </trkpt>
      <trkpt lat="36.7363" lon="-3.74558">
        <ele>3.7466</ele>
        <time>2022-02-25T13:38:09.978Z</time>
      </trkpt>
      <trkpt lat="36.73635" lon="-3.74568">
        <ele>3.753281</ele>
        <time>2022-02-25T13:38:12.058Z</time>
      </trkpt>
      <trkpt lat="36.73641" lon="-3.74578">
        <ele>3.760887</ele>
        <time>2022-02-25T13:38:14.576Z</time>
      </trkpt>
      <trkpt lat="36.73651" lon="-3.74596">
        <ele>3.772976</ele>
        <time>2022-02-25T13:38:18.187Z</time>
      </trkpt>
      <trkpt lat="36.73662" lon="-3.74617">
        <ele>3.787986</ele>
        <time>2022-02-25T13:38:23.136Z</time>
      </trkpt>
      <trkpt lat="36.73666" lon="-3.74626">
        <ele>3.793828</ele>
        <time>2022-02-25T13:38:24.880Z</time>
      </trkpt>
      <trkpt lat="36.7372" lon="-3.74728">
        <ele>3.876683</ele>
        <time>2022-02-25T13:38:48.116Z</time>
      </trkpt>
      <trkpt lat="36.73727" lon="-3.74742">
        <ele>3.889372</ele>
        <time>2022-02-25T13:38:51.207Z</time>
      </trkpt>
      <trkpt lat="36.7375" lon="-3.7479">
        <ele>3.932833</ele>
        <time>2022-02-25T13:39:02.130Z</time>
      </trkpt>
      <trkpt lat="36.73765" lon="-3.74825">
        <ele>3.964282</ele>
        <time>2022-02-25T13:39:09.512Z</time>
      </trkpt>
      <trkpt lat="36.73777" lon="-3.74854">
        <ele>3.98939</ele>
        <time>2022-02-25T13:39:15.077Z</time>
      </trkpt>
      <trkpt lat="36.73785" lon="-3.74874">
        <ele>4.007446</ele>
        <time>2022-02-25T13:39:19.037Z</time>
      </trkpt>
      <trkpt lat="36.73789" lon="-3.74882">
        <ele>3.987984</ele>
        <time>2022-02-25T13:39:20.577Z</time>
      </trkpt>
      <trkpt lat="36.73794" lon="-3.74897">
        <ele>3.919894</ele>
        <time>2022-02-25T13:39:23.236Z</time>
      </trkpt>
      <trkpt lat="36.73803" lon="-3.74921">
        <ele>3.81048</ele>
        <time>2022-02-25T13:39:27.664Z</time>
      </trkpt>
      <trkpt lat="36.7383" lon="-3.75">
        <ele>3.456284</ele>
        <time>2022-02-25T13:39:41.716Z</time>
      </trkpt>
      <trkpt lat="36.73835" lon="-3.75028">
        <ele>3.336607</ele>
        <time>2022-02-25T13:39:46.479Z</time>
      </trkpt>
      <trkpt lat="36.73848" lon="-3.75155">
        <ele>3.285363</ele>
        <time>2022-02-25T13:40:08.083Z</time>
      </trkpt>
      <trkpt lat="36.7385" lon="-3.75182">
        <ele>3.368448</ele>
        <time>2022-02-25T13:40:12.870Z</time>
      </trkpt>
      <trkpt lat="36.73861" lon="-3.7529">
        <ele>3.706035</ele>
        <time>2022-02-25T13:40:35.202Z</time>
      </trkpt>
      <trkpt lat="36.73878" lon="-3.7536">
        <ele>4.601993</ele>
        <time>2022-02-25T13:40:51.939Z</time>
      </trkpt>
      <trkpt lat="36.73941" lon="-3.75344">
        <ele>5.914761</ele>
        <time>2022-02-25T13:41:14.165Z</time>
      </trkpt>
      <trkpt lat="36.73957" lon="-3.75348">
        <ele>6.260823</ele>
        <time>2022-02-25T13:41:19.765Z</time>
      </trkpt>
      <trkpt lat="36.73963" lon="-3.75374">
        <ele>6.702797</ele>
        <time>2022-02-25T13:41:27.377Z</time>
      </trkpt>
      <trkpt lat="36.73959" lon="-3.7541">
        <ele>7.287921</ele>
        <time>2022-02-25T13:41:36.830Z</time>
      </trkpt>
      <trkpt lat="36.7395" lon="-3.75439">
        <ele>8.076533</ele>
        <time>2022-02-25T13:41:45.169Z</time>
      </trkpt>
      <trkpt lat="36.73965" lon="-3.75447">
        <ele>8.657138</ele>
        <time>2022-02-25T13:41:51.117Z</time>
      </trkpt>
      <trkpt lat="36.73983" lon="-3.75444">
        <ele>9.278316</ele>
        <time>2022-02-25T13:41:56.700Z</time>
      </trkpt>
      <trkpt lat="36.74019" lon="-3.75421">
        <ele>10.713634</ele>
        <time>2022-02-25T13:42:10.439Z</time>
      </trkpt>
      <trkpt lat="36.74042" lon="-3.75393">
        <ele>11.888157</ele>
        <time>2022-02-25T13:42:23.913Z</time>
      </trkpt>
      <trkpt lat="36.74071" lon="-3.75372">
        <ele>13.08759</ele>
        <time>2022-02-25T13:42:40.319Z</time>
      </trkpt>
      <trkpt lat="36.74081" lon="-3.75331">
        <ele>14.650816</ele>
        <time>2022-02-25T13:42:57.762Z</time>
      </trkpt>
      <trkpt lat="36.7412" lon="-3.75281">
        <ele>18.214245</ele>
        <time>2022-02-25T13:43:24.551Z</time>
      </trkpt>
      <trkpt lat="36.74133" lon="-3.75277">
        <ele>19.04442</ele>
        <time>2022-02-25T13:43:32.125Z</time>
      </trkpt>
      <trkpt lat="36.74185" lon="-3.75308">
        <ele>22.702907</ele>
        <time>2022-02-25T13:44:05.141Z</time>
      </trkpt>
      <trkpt lat="36.74241" lon="-3.75332">
        <ele>26.637111</ele>
        <time>2022-02-25T13:44:39.521Z</time>
      </trkpt>
      <trkpt lat="36.74276" lon="-3.75366">
        <ele>29.728778</ele>
        <time>2022-02-25T13:45:05.537Z</time>
      </trkpt>
      <trkpt lat="36.74282" lon="-3.75381">
        <ele>30.657966</ele>
        <time>2022-02-25T13:45:13.864Z</time>
      </trkpt>
      <trkpt lat="36.74182" lon="-3.75382">
        <ele>37.625333</ele>
        <time>2022-02-25T13:46:10.842Z</time>
      </trkpt>
      <trkpt lat="36.74176" lon="-3.75387">
        <ele>38.192936</ele>
        <time>2022-02-25T13:46:16.239Z</time>
      </trkpt>
      <trkpt lat="36.74174" lon="-3.75396">
        <ele>38.716041</ele>
        <time>2022-02-25T13:46:20.016Z</time>
      </trkpt>
      <trkpt lat="36.74186" lon="-3.75468">
        <ele>43.04442</ele>
        <time>2022-02-25T13:46:52.303Z</time>
      </trkpt>
      <trkpt lat="36.74194" lon="-3.75497">
        <ele>44.829894</ele>
        <time>2022-02-25T13:47:06.230Z</time>
      </trkpt>
      <trkpt lat="36.74213" lon="-3.75499">
        <ele>46.268527</ele>
        <time>2022-02-25T13:47:17.438Z</time>
      </trkpt>
      <trkpt lat="36.74207" lon="-3.75451">
        <ele>49.146578</ele>
        <time>2022-02-25T13:47:41.503Z</time>
      </trkpt>
      <trkpt lat="36.74214" lon="-3.75436">
        <ele>50.160105</ele>
        <time>2022-02-25T13:47:50.686Z</time>
      </trkpt>
      <trkpt lat="36.74222" lon="-3.75434">
        <ele>50.721756</ele>
        <time>2022-02-25T13:47:55.825Z</time>
      </trkpt>
      <trkpt lat="36.74258" lon="-3.75456">
        <ele>54.594953</ele>
        <time>2022-02-25T13:48:24.411Z</time>
      </trkpt>
      <trkpt lat="36.74283" lon="-3.7548">
        <ele>57.689383</ele>
        <time>2022-02-25T13:48:46.321Z</time>
      </trkpt>
      <trkpt lat="36.74293" lon="-3.75497">
        <ele>59.315622</ele>
        <time>2022-02-25T13:48:57.437Z</time>
      </trkpt>
      <trkpt lat="36.74296" lon="-3.7552">
        <ele>61.119257</ele>
        <time>2022-02-25T13:49:09.702Z</time>
      </trkpt>
      <trkpt lat="36.74289" lon="-3.75561">
        <ele>64.417411</ele>
        <time>2022-02-25T13:49:34.356Z</time>
      </trkpt>
      <trkpt lat="36.74294" lon="-3.75591">
        <ele>66.804307</ele>
        <time>2022-02-25T13:49:54.703Z</time>
      </trkpt>
      <trkpt lat="36.74313" lon="-3.75626">
        <ele>70.599745</ele>
        <time>2022-02-25T13:50:22.523Z</time>
      </trkpt>
      <trkpt lat="36.74343" lon="-3.75641">
        <ele>74.59299</ele>
        <time>2022-02-25T13:50:48.557Z</time>
      </trkpt>
      <trkpt lat="36.74352" lon="-3.75652">
        <ele>76.148012</ele>
        <time>2022-02-25T13:50:58.483Z</time>
      </trkpt>
      <trkpt lat="36.74356" lon="-3.75664">
        <ele>77.424684</ele>
        <time>2022-02-25T13:51:07.541Z</time>
      </trkpt>
      <trkpt lat="36.74352" lon="-3.75719">
        <ele>82.97501</ele>
        <time>2022-02-25T13:51:43.246Z</time>
      </trkpt>
      <trkpt lat="36.74365" lon="-3.75745">
        <ele>85.992159</ele>
        <time>2022-02-25T13:52:10.158Z</time>
      </trkpt>
      <trkpt lat="36.74384" lon="-3.7576">
        <ele>88.763489</ele>
        <time>2022-02-25T13:52:28.805Z</time>
      </trkpt>
      <trkpt lat="36.7439" lon="-3.75771">
        <ele>90.113114</ele>
        <time>2022-02-25T13:52:40.412Z</time>
      </trkpt>
      <trkpt lat="36.74394" lon="-3.75841">
        <ele>96.119708</ele>
        <time>2022-02-25T13:53:26.954Z</time>
      </trkpt>
      <trkpt lat="36.74402" lon="-3.75881">
        <ele>99.637915</ele>
        <time>2022-02-25T13:53:53.430Z</time>
      </trkpt>
      <trkpt lat="36.74396" lon="-3.75908">
        <ele>101.991234</ele>
        <time>2022-02-25T13:54:13.243Z</time>
      </trkpt>
      <trkpt lat="36.74385" lon="-3.75898">
        <ele>103.402206</ele>
        <time>2022-02-25T13:54:19.453Z</time>
      </trkpt>
      <trkpt lat="36.74344" lon="-3.75848">
        <ele>109.419649</ele>
        <time>2022-02-25T13:54:58.864Z</time>
      </trkpt>
      <trkpt lat="36.74317" lon="-3.7582">
        <ele>111.43363</ele>
        <time>2022-02-25T13:55:19.642Z</time>
      </trkpt>
      <trkpt lat="36.7428" lon="-3.75804">
        <ele>113.417254</ele>
        <time>2022-02-25T13:55:42.277Z</time>
      </trkpt>
      <trkpt lat="36.74236" lon="-3.75805">
        <ele>115.62073</ele>
        <time>2022-02-25T13:55:56.400Z</time>
      </trkpt>
      <trkpt lat="36.74204" lon="-3.75821">
        <ele>117.350036</ele>
        <time>2022-02-25T13:56:09.878Z</time>
      </trkpt>
      <trkpt lat="36.7417" lon="-3.75858">
        <ele>119.656547</ele>
        <time>2022-02-25T13:56:29.792Z</time>
      </trkpt>
      <trkpt lat="36.74154" lon="-3.75896">
        <ele>121.450175</ele>
        <time>2022-02-25T13:56:45.488Z</time>
      </trkpt>
      <trkpt lat="36.74148" lon="-3.75944">
        <ele>123.527403</ele>
        <time>2022-02-25T13:57:04.766Z</time>
      </trkpt>
      <trkpt lat="36.74149" lon="-3.75989">
        <ele>125.410007</ele>
        <time>2022-02-25T13:57:23.254Z</time>
      </trkpt>
      <trkpt lat="36.7416" lon="-3.76102">
        <ele>131.263202</ele>
        <time>2022-02-25T13:58:09.076Z</time>
      </trkpt>
      <trkpt lat="36.74175" lon="-3.76167">
        <ele>135.702797</ele>
        <time>2022-02-25T13:58:39.294Z</time>
      </trkpt>
      <trkpt lat="36.74194" lon="-3.76234">
        <ele>140.451569</ele>
        <time>2022-02-25T13:59:17.160Z</time>
      </trkpt>
      <trkpt lat="36.74208" lon="-3.76311">
        <ele>146.727185</ele>
        <time>2022-02-25T14:00:07.531Z</time>
      </trkpt>
      <trkpt lat="36.74233" lon="-3.76464">
        <ele>161.813046</ele>
        <time>2022-02-25T14:01:58.360Z</time>
      </trkpt>
      <trkpt lat="36.74307" lon="-3.76848">
        <ele>192.500502</ele>
        <time>2022-02-25T14:05:49.553Z</time>
      </trkpt>
      <trkpt lat="36.74354" lon="-3.77006">
        <ele>195.707736</ele>
        <time>2022-02-25T14:07:03.779Z</time>
      </trkpt>
      <trkpt lat="36.74411" lon="-3.77124">
        <ele>191.394411</ele>
        <time>2022-02-25T14:07:20.653Z</time>
      </trkpt>
      <trkpt lat="36.74501" lon="-3.77235">
        <ele>170.989883</ele>
        <time>2022-02-25T14:07:37.464Z</time>
      </trkpt>
      <trkpt lat="36.74549" lon="-3.77301">
        <ele>160.538854</ele>
        <time>2022-02-25T14:07:46.773Z</time>
      </trkpt>
      <trkpt lat="36.74576" lon="-3.77366">
        <ele>155.787621</ele>
        <time>2022-02-25T14:07:54.812Z</time>
      </trkpt>
      <trkpt lat="36.74603" lon="-3.77458">
        <ele>149.405447</ele>
        <time>2022-02-25T14:08:07.617Z</time>
      </trkpt>
      <trkpt lat="36.74633" lon="-3.77515">
        <ele>147.174988</ele>
        <time>2022-02-25T14:08:18.257Z</time>
      </trkpt>
      <trkpt lat="36.74662" lon="-3.77541">
        <ele>147.237009</ele>
        <time>2022-02-25T14:08:26.427Z</time>
      </trkpt>
      <trkpt lat="36.74717" lon="-3.77577">
        <ele>147.3453</ele>
        <time>2022-02-25T14:08:41.983Z</time>
      </trkpt>
      <trkpt lat="36.74768" lon="-3.77628">
        <ele>147.425062</ele>
        <time>2022-02-25T14:09:01.185Z</time>
      </trkpt>
      <trkpt lat="36.74805" lon="-3.77667">
        <ele>147.340445</ele>
        <time>2022-02-25T14:09:15.260Z</time>
      </trkpt>
      <trkpt lat="36.74942" lon="-3.77792">
        <ele>146.042364</ele>
        <time>2022-02-25T14:09:49.356Z</time>
      </trkpt>
      <trkpt lat="36.75005" lon="-3.77907">
        <ele>143.5068</ele>
        <time>2022-02-25T14:10:08.894Z</time>
      </trkpt>
      <trkpt lat="36.75021" lon="-3.77928">
        <ele>142.973863</ele>
        <time>2022-02-25T14:10:12.827Z</time>
      </trkpt>
      <trkpt lat="36.75049" lon="-3.77948">
        <ele>141.995943</ele>
        <time>2022-02-25T14:10:18.408Z</time>
      </trkpt>
      <trkpt lat="36.75131" lon="-3.77992">
        <ele>139.237371</ele>
        <time>2022-02-25T14:10:34.010Z</time>
      </trkpt>
      <trkpt lat="36.7519" lon="-3.78023">
        <ele>137.337691</ele>
        <time>2022-02-25T14:10:44.554Z</time>
      </trkpt>
      <trkpt lat="36.75205" lon="-3.78038">
        <ele>136.884189</ele>
        <time>2022-02-25T14:10:48.326Z</time>
      </trkpt>
      <trkpt lat="36.75222" lon="-3.7806">
        <ele>136.321001</ele>
        <time>2022-02-25T14:10:52.354Z</time>
      </trkpt>
      <trkpt lat="36.75233" lon="-3.78083">
        <ele>135.833197</ele>
        <time>2022-02-25T14:10:56.094Z</time>
      </trkpt>
      <trkpt lat="36.75238" lon="-3.78111">
        <ele>135.294618</ele>
        <time>2022-02-25T14:11:00.261Z</time>
      </trkpt>
      <trkpt lat="36.75238" lon="-3.78131">
        <ele>134.929905</ele>
        <time>2022-02-25T14:11:02.887Z</time>
      </trkpt>
      <trkpt lat="36.75227" lon="-3.78177">
        <ele>134.043382</ele>
        <time>2022-02-25T14:11:09.528Z</time>
      </trkpt>
      <trkpt lat="36.75214" lon="-3.78203">
        <ele>133.477569</ele>
        <time>2022-02-25T14:11:14.573Z</time>
      </trkpt>
      <trkpt lat="36.75195" lon="-3.78221">
        <ele>134.219344</ele>
        <time>2022-02-25T14:11:19.147Z</time>
      </trkpt>
      <trkpt lat="36.75153" lon="-3.78244">
        <ele>136.144898</ele>
        <time>2022-02-25T14:11:35.580Z</time>
      </trkpt>
      <trkpt lat="36.75102" lon="-3.78261">
        <ele>138.375605</ele>
        <time>2022-02-25T14:12:01.642Z</time>
      </trkpt>
      <trkpt lat="36.75064" lon="-3.78289">
        <ele>140.215943</ele>
        <time>2022-02-25T14:12:30.092Z</time>
      </trkpt>
      <trkpt lat="36.7507" lon="-3.78301">
        <ele>140.687671</ele>
        <time>2022-02-25T14:12:36.978Z</time>
      </trkpt>
      <trkpt lat="36.7507" lon="-3.78309">
        <ele>140.948769</ele>
        <time>2022-02-25T14:12:40.727Z</time>
      </trkpt>
      <trkpt lat="36.75061" lon="-3.78326">
        <ele>141.238692</ele>
        <time>2022-02-25T14:12:49.906Z</time>
      </trkpt>
      <trkpt lat="36.75052" lon="-3.78329">
        <ele>141.414436</ele>
        <time>2022-02-25T14:12:55.362Z</time>
      </trkpt>
      <trkpt lat="36.75039" lon="-3.78321">
        <ele>141.661728</ele>
        <time>2022-02-25T14:13:01.619Z</time>
      </trkpt>
      <trkpt lat="36.75028" lon="-3.78405">
        <ele>142.873375</ele>
        <time>2022-02-25T14:13:28.000Z</time>
      </trkpt>
      <trkpt lat="36.75025" lon="-3.78484">
        <ele>143.988233</ele>
        <time>2022-02-25T14:13:39.963Z</time>
      </trkpt>
      <trkpt lat="36.75" lon="-3.78554">
        <ele>140.275895</ele>
        <time>2022-02-25T14:13:49.892Z</time>
      </trkpt>
      <trkpt lat="36.74991" lon="-3.78606">
        <ele>137.174991</ele>
        <time>2022-02-25T14:13:56.183Z</time>
      </trkpt>
      <trkpt lat="36.75024" lon="-3.78743">
        <ele>128.002369</ele>
        <time>2022-02-25T14:14:12.488Z</time>
      </trkpt>
      <trkpt lat="36.75017" lon="-3.78795">
        <ele>123.66864</ele>
        <time>2022-02-25T14:14:18.608Z</time>
      </trkpt>
      <trkpt lat="36.75002" lon="-3.78826">
        <ele>120.798407</ele>
        <time>2022-02-25T14:14:22.700Z</time>
      </trkpt>
      <trkpt lat="36.74937" lon="-3.78891">
        <ele>112.479125</ele>
        <time>2022-02-25T14:14:34.417Z</time>
      </trkpt>
      <trkpt lat="36.74908" lon="-3.78899">
        <ele>110.211879</ele>
        <time>2022-02-25T14:14:38.505Z</time>
      </trkpt>
      <trkpt lat="36.74842" lon="-3.78898">
        <ele>105.058229</ele>
        <time>2022-02-25T14:14:47.927Z</time>
      </trkpt>
      <trkpt lat="36.74821" lon="-3.78907">
        <ele>103.337878</ele>
        <time>2022-02-25T14:14:51.221Z</time>
      </trkpt>
      <trkpt lat="36.74801" lon="-3.78928">
        <ele>101.31604</ele>
        <time>2022-02-25T14:14:55.263Z</time>
      </trkpt>
      <trkpt lat="36.74788" lon="-3.78963">
        <ele>98.941172</ele>
        <time>2022-02-25T14:15:00.482Z</time>
      </trkpt>
      <trkpt lat="36.74784" lon="-3.78989">
        <ele>98.99798</ele>
        <time>2022-02-25T14:15:04.367Z</time>
      </trkpt>
      <trkpt lat="36.74787" lon="-3.79016">
        <ele>99.05694</ele>
        <time>2022-02-25T14:15:08.874Z</time>
      </trkpt>
      <trkpt lat="36.74834" lon="-3.79206">
        <ele>99.266653</ele>
        <time>2022-02-25T14:15:56.820Z</time>
      </trkpt>
      <trkpt lat="36.74838" lon="-3.79237">
        <ele>99.088065</ele>
        <time>2022-02-25T14:16:03.941Z</time>
      </trkpt>
      <trkpt lat="36.74833" lon="-3.7928">
        <ele>98.844112</ele>
        <time>2022-02-25T14:16:11.484Z</time>
      </trkpt>
      <trkpt lat="36.7482" lon="-3.79333">
        <ele>98.538468</ele>
        <time>2022-02-25T14:16:19.669Z</time>
      </trkpt>
      <trkpt lat="36.74767" lon="-3.79482">
        <ele>99.570968</ele>
        <time>2022-02-25T14:16:43.204Z</time>
      </trkpt>
      <trkpt lat="36.74766" lon="-3.79515">
        <ele>100.056284</ele>
        <time>2022-02-25T14:16:50.286Z</time>
      </trkpt>
      <trkpt lat="36.74772" lon="-3.79547">
        <ele>100.520306</ele>
        <time>2022-02-25T14:16:59.722Z</time>
      </trkpt>
      <trkpt lat="36.74783" lon="-3.79574">
        <ele>100.957928</ele>
        <time>2022-02-25T14:17:11.314Z</time>
      </trkpt>
      <trkpt lat="36.74815" lon="-3.79605">
        <ele>102.499266</ele>
        <time>2022-02-25T14:17:35.407Z</time>
      </trkpt>
      <trkpt lat="36.74869" lon="-3.79616">
        <ele>106.436368</ele>
        <time>2022-02-25T14:18:18.426Z</time>
      </trkpt>
      <trkpt lat="36.75017" lon="-3.7959">
        <ele>112.458968</ele>
        <time>2022-02-25T14:19:40.894Z</time>
      </trkpt>
      <trkpt lat="36.75066" lon="-3.79583">
        <ele>110.138092</ele>
        <time>2022-02-25T14:19:49.274Z</time>
      </trkpt>
      <trkpt lat="36.75091" lon="-3.79593">
        <ele>108.897878</ele>
        <time>2022-02-25T14:19:53.462Z</time>
      </trkpt>
      <trkpt lat="36.75102" lon="-3.79621">
        <ele>107.699589</ele>
        <time>2022-02-25T14:19:57.060Z</time>
      </trkpt>
      <trkpt lat="36.75096" lon="-3.79654">
        <ele>106.444711</ele>
        <time>2022-02-25T14:20:00.748Z</time>
      </trkpt>
      <trkpt lat="36.75066" lon="-3.79672">
        <ele>102.663068</ele>
        <time>2022-02-25T14:20:05.266Z</time>
      </trkpt>
      <trkpt lat="36.75023" lon="-3.79679">
        <ele>96.074372</ele>
        <time>2022-02-25T14:20:10.955Z</time>
      </trkpt>
      <trkpt lat="36.74982" lon="-3.79704">
        <ele>89.177223</ele>
        <time>2022-02-25T14:20:16.933Z</time>
      </trkpt>
      <trkpt lat="36.74956" lon="-3.79738">
        <ele>83.325799</ele>
        <time>2022-02-25T14:20:22.110Z</time>
      </trkpt>
      <trkpt lat="36.74914" lon="-3.79781">
        <ele>75.998575</ele>
        <time>2022-02-25T14:20:29.382Z</time>
      </trkpt>
      <trkpt lat="36.74832" lon="-3.79832">
        <ele>65.727912</ele>
        <time>2022-02-25T14:20:42.047Z</time>
      </trkpt>
      <trkpt lat="36.74805" lon="-3.7986">
        <ele>61.863759</ele>
        <time>2022-02-25T14:20:46.996Z</time>
      </trkpt>
      <trkpt lat="36.74786" lon="-3.79906">
        <ele>58.205105</ele>
        <time>2022-02-25T14:20:53.289Z</time>
      </trkpt>
      <trkpt lat="36.74782" lon="-3.79953">
        <ele>57.710597</ele>
        <time>2022-02-25T14:20:59.307Z</time>
      </trkpt>
      <trkpt lat="36.74788" lon="-3.80043">
        <ele>56.765339</ele>
        <time>2022-02-25T14:21:12.815Z</time>
      </trkpt>
      <trkpt lat="36.74806" lon="-3.80119">
        <ele>56.077272</ele>
        <time>2022-02-25T14:21:37.195Z</time>
      </trkpt>
      <trkpt lat="36.74837" lon="-3.80169">
        <ele>57.371415</ele>
        <time>2022-02-25T14:22:00.539Z</time>
      </trkpt>
      <trkpt lat="36.74878" lon="-3.80202">
        <ele>58.626624</ele>
        <time>2022-02-25T14:22:21.931Z</time>
      </trkpt>
      <trkpt lat="36.7496" lon="-3.80253">
        <ele>60.039255</ele>
        <time>2022-02-25T14:22:47.722Z</time>
      </trkpt>
      <trkpt lat="36.75003" lon="-3.80293">
        <ele>58.188969</ele>
        <time>2022-02-25T14:22:57.696Z</time>
      </trkpt>
      <trkpt lat="36.75022" lon="-3.80341">
        <ele>56.702919</ele>
        <time>2022-02-25T14:23:04.274Z</time>
      </trkpt>
      <trkpt lat="36.75028" lon="-3.80389">
        <ele>55.362735</ele>
        <time>2022-02-25T14:23:10.204Z</time>
      </trkpt>
      <trkpt lat="36.75015" lon="-3.80455">
        <ele>53.775052</ele>
        <time>2022-02-25T14:23:18.913Z</time>
      </trkpt>
      <trkpt lat="36.7498" lon="-3.80535">
        <ele>52.11452</ele>
        <time>2022-02-25T14:23:32.280Z</time>
      </trkpt>
      <trkpt lat="36.74978" lon="-3.80557">
        <ele>51.715151</ele>
        <time>2022-02-25T14:23:35.920Z</time>
      </trkpt>
      <trkpt lat="36.74983" lon="-3.80581">
        <ele>51.282433</ele>
        <time>2022-02-25T14:23:39.401Z</time>
      </trkpt>
      <trkpt lat="36.74996" lon="-3.80605">
        <ele>50.741295</ele>
        <time>2022-02-25T14:23:44.263Z</time>
      </trkpt>
      <trkpt lat="36.75007" lon="-3.80621">
        <ele>50.357831</ele>
        <time>2022-02-25T14:23:48.179Z</time>
      </trkpt>
      <trkpt lat="36.75083" lon="-3.80722">
        <ele>47.923744</ele>
        <time>2022-02-25T14:24:09.479Z</time>
      </trkpt>
      <trkpt lat="36.751" lon="-3.80752">
        <ele>47.279798</ele>
        <time>2022-02-25T14:24:14.659Z</time>
      </trkpt>
      <trkpt lat="36.75121" lon="-3.80818">
        <ele>46.319195</ele>
        <time>2022-02-25T14:24:23.733Z</time>
      </trkpt>
      <trkpt lat="36.751" lon="-3.80846">
        <ele>46.297767</ele>
        <time>2022-02-25T14:24:28.619Z</time>
      </trkpt>
      <trkpt lat="36.75092" lon="-3.80871">
        <ele>46.282391</ele>
        <time>2022-02-25T14:24:36.468Z</time>
      </trkpt>
      <trkpt lat="36.75086" lon="-3.80896">
        <ele>46.267922</ele>
        <time>2022-02-25T14:24:40.471Z</time>
      </trkpt>
      <trkpt lat="36.75086" lon="-3.80926">
        <ele>46.250623</ele>
        <time>2022-02-25T14:24:45.810Z</time>
      </trkpt>
      <trkpt lat="36.7509" lon="-3.80967">
        <ele>46.227384</ele>
        <time>2022-02-25T14:24:55.867Z</time>
      </trkpt>
      <trkpt lat="36.75115" lon="-3.81008">
        <ele>46.286661</ele>
        <time>2022-02-25T14:25:07.552Z</time>
      </trkpt>
      <trkpt lat="36.75137" lon="-3.81021">
        <ele>46.730715</ele>
        <time>2022-02-25T14:25:21.182Z</time>
      </trkpt>
      <trkpt lat="36.75165" lon="-3.81124">
        <ele>48.31816</ele>
        <time>2022-02-25T14:26:00.065Z</time>
      </trkpt>
      <trkpt lat="36.75266" lon="-3.81309">
        <ele>46.344179</ele>
        <time>2022-02-25T14:26:32.727Z</time>
      </trkpt>
      <trkpt lat="36.75316" lon="-3.81394">
        <ele>44.530453</ele>
        <time>2022-02-25T14:26:46.437Z</time>
      </trkpt>
      <trkpt lat="36.75336" lon="-3.81445">
        <ele>44.354255</ele>
        <time>2022-02-25T14:26:54.789Z</time>
      </trkpt>
      <trkpt lat="36.75342" lon="-3.81474">
        <ele>44.263272</ele>
        <time>2022-02-25T14:26:59.139Z</time>
      </trkpt>
      <trkpt lat="36.75331" lon="-3.81535">
        <ele>44.075207</ele>
        <time>2022-02-25T14:27:09.279Z</time>
      </trkpt>
      <trkpt lat="36.75321" lon="-3.81613">
        <ele>45.116069</ele>
        <time>2022-02-25T14:27:35.035Z</time>
      </trkpt>
      <trkpt lat="36.75326" lon="-3.81641">
        <ele>46.298178</ele>
        <time>2022-02-25T14:27:48.276Z</time>
      </trkpt>
      <trkpt lat="36.75337" lon="-3.81678">
        <ele>47.947168</ele>
        <time>2022-02-25T14:28:08.193Z</time>
      </trkpt>
      <trkpt lat="36.75426" lon="-3.81808">
        <ele>56.026977</ele>
        <time>2022-02-25T14:29:11.631Z</time>
      </trkpt>
      <trkpt lat="36.75449" lon="-3.81869">
        <ele>60.243382</ele>
        <time>2022-02-25T14:29:42.705Z</time>
      </trkpt>
      <trkpt lat="36.75456" lon="-3.81911">
        <ele>62.948727</ele>
        <time>2022-02-25T14:30:06.687Z</time>
      </trkpt>
      <trkpt lat="36.75455" lon="-3.81949">
        <ele>65.378594</ele>
        <time>2022-02-25T14:30:28.099Z</time>
      </trkpt>
      <trkpt lat="36.75447" lon="-3.81997">
        <ele>68.885401</ele>
        <time>2022-02-25T14:30:55.752Z</time>
      </trkpt>
      <trkpt lat="36.75446" lon="-3.82003">
        <ele>69.463205</ele>
        <time>2022-02-25T14:30:59.870Z</time>
      </trkpt>
      <trkpt lat="36.7544" lon="-3.82078">
        <ele>76.434419</ele>
        <time>2022-02-25T14:31:44.794Z</time>
      </trkpt>
      <trkpt lat="36.7545" lon="-3.82129">
        <ele>81.2002</ele>
        <time>2022-02-25T14:32:19.935Z</time>
      </trkpt>
      <trkpt lat="36.75469" lon="-3.82174">
        <ele>85.945737</ele>
        <time>2022-02-25T14:32:57.710Z</time>
      </trkpt>
      <trkpt lat="36.75492" lon="-3.82203">
        <ele>89.256779</ele>
        <time>2022-02-25T14:33:24.784Z</time>
      </trkpt>
      <trkpt lat="36.75518" lon="-3.82236">
        <ele>92.634276</ele>
        <time>2022-02-25T14:33:53.119Z</time>
      </trkpt>
      <trkpt lat="36.75545" lon="-3.82274">
        <ele>96.22241</ele>
        <time>2022-02-25T14:34:20.922Z</time>
      </trkpt>
      <trkpt lat="36.75573" lon="-3.82373">
        <ele>103.760374</ele>
        <time>2022-02-25T14:35:10.684Z</time>
      </trkpt>
      <trkpt lat="36.75596" lon="-3.82424">
        <ele>106.401253</ele>
        <time>2022-02-25T14:35:35.347Z</time>
      </trkpt>
      <trkpt lat="36.75619" lon="-3.82442">
        <ele>107.825009</ele>
        <time>2022-02-25T14:35:49.052Z</time>
      </trkpt>
      <trkpt lat="36.75729" lon="-3.82457">
        <ele>113.626697</ele>
        <time>2022-02-25T14:36:39.039Z</time>
      </trkpt>
      <trkpt lat="36.7575" lon="-3.8247">
        <ele>114.417146</ele>
        <time>2022-02-25T14:36:50.807Z</time>
      </trkpt>
      <trkpt lat="36.75774" lon="-3.82495">
        <ele>115.516923</ele>
        <time>2022-02-25T14:37:03.497Z</time>
      </trkpt>
      <trkpt lat="36.75791" lon="-3.82523">
        <ele>116.487164</ele>
        <time>2022-02-25T14:37:14.595Z</time>
      </trkpt>
      <trkpt lat="36.75798" lon="-3.82551">
        <ele>117.313003</ele>
        <time>2022-02-25T14:37:24.955Z</time>
      </trkpt>
      <trkpt lat="36.758" lon="-3.82581">
        <ele>118.15628</ele>
        <time>2022-02-25T14:37:38.030Z</time>
      </trkpt>
      <trkpt lat="36.75795" lon="-3.82811">
        <ele>120.395971</ele>
        <time>2022-02-25T14:38:27.995Z</time>
      </trkpt>
      <trkpt lat="36.75799" lon="-3.82885">
        <ele>120.585183</ele>
        <time>2022-02-25T14:38:38.975Z</time>
      </trkpt>
      <trkpt lat="36.75813" lon="-3.82934">
        <ele>120.607674</ele>
        <time>2022-02-25T14:38:47.205Z</time>
      </trkpt>
      <trkpt lat="36.75863" lon="-3.83062">
        <ele>120.66877</ele>
        <time>2022-02-25T14:39:16.067Z</time>
      </trkpt>
      <trkpt lat="36.75907" lon="-3.83165">
        <ele>119.061635</ele>
        <time>2022-02-25T14:39:40.772Z</time>
      </trkpt>
      <trkpt lat="36.75928" lon="-3.83216">
        <ele>118.184282</ele>
        <time>2022-02-25T14:39:48.888Z</time>
      </trkpt>
      <trkpt lat="36.75951" lon="-3.83273">
        <ele>117.113929</ele>
        <time>2022-02-25T14:39:57.185Z</time>
      </trkpt>
      <trkpt lat="36.7596" lon="-3.83307">
        <ele>115.300244</ele>
        <time>2022-02-25T14:40:01.538Z</time>
      </trkpt>
      <trkpt lat="36.75963" lon="-3.83336">
        <ele>113.79398</ele>
        <time>2022-02-25T14:40:04.957Z</time>
      </trkpt>
      <trkpt lat="36.75958" lon="-3.83385">
        <ele>111.230611</ele>
        <time>2022-02-25T14:40:10.850Z</time>
      </trkpt>
      <trkpt lat="36.75942" lon="-3.8343">
        <ele>108.70838</ele>
        <time>2022-02-25T14:40:16.694Z</time>
      </trkpt>
      <trkpt lat="36.75932" lon="-3.83448">
        <ele>107.603293</ele>
        <time>2022-02-25T14:40:19.201Z</time>
      </trkpt>
      <trkpt lat="36.7593" lon="-3.83451">
        <ele>107.370712</ele>
        <time>2022-02-25T14:40:19.788Z</time>
      </trkpt>
      <trkpt lat="36.75893" lon="-3.8353">
        <ele>105.280206</ele>
        <time>2022-02-25T14:40:31.757Z</time>
      </trkpt>
      <trkpt lat="36.75884" lon="-3.8357">
        <ele>104.974912</ele>
        <time>2022-02-25T14:40:37.888Z</time>
      </trkpt>
      <trkpt lat="36.75882" lon="-3.83599">
        <ele>104.757978</ele>
        <time>2022-02-25T14:40:42.979Z</time>
      </trkpt>
      <trkpt lat="36.75885" lon="-3.83631">
        <ele>104.52193</ele>
        <time>2022-02-25T14:40:49.005Z</time>
      </trkpt>
      <trkpt lat="36.75924" lon="-3.83773">
        <ele>106.029128</ele>
        <time>2022-02-25T14:41:31.606Z</time>
      </trkpt>
      <trkpt lat="36.75924" lon="-3.83775">
        <ele>106.073495</ele>
        <time>2022-02-25T14:41:32.211Z</time>
      </trkpt>
      <trkpt lat="36.75925" lon="-3.83778">
        <ele>106.150088</ele>
        <time>2022-02-25T14:41:33.259Z</time>
      </trkpt>
      <trkpt lat="36.75967" lon="-3.83945">
        <ele>110.129316</ele>
        <time>2022-02-25T14:42:25.437Z</time>
      </trkpt>
      <trkpt lat="36.75974" lon="-3.84027">
        <ele>112.079122</ele>
        <time>2022-02-25T14:42:50.086Z</time>
      </trkpt>
      <trkpt lat="36.75975" lon="-3.84072">
        <ele>113.124668</ele>
        <time>2022-02-25T14:43:03.155Z</time>
      </trkpt>
      <trkpt lat="36.75982" lon="-3.84105">
        <ele>113.920095</ele>
        <time>2022-02-25T14:43:13.114Z</time>
      </trkpt>
      <trkpt lat="36.75986" lon="-3.84117">
        <ele>114.241142</ele>
        <time>2022-02-25T14:43:17.495Z</time>
      </trkpt>
      <trkpt lat="36.75984" lon="-3.84127">
        <ele>114.438514</ele>
        <time>2022-02-25T14:43:20.210Z</time>
      </trkpt>
      <trkpt lat="36.75974" lon="-3.84133">
        <ele>114.649974</ele>
        <time>2022-02-25T14:43:24.547Z</time>
      </trkpt>
      <trkpt lat="36.75974" lon="-3.84252">
        <ele>116.435482</ele>
        <time>2022-02-25T14:43:58.173Z</time>
      </trkpt>
      <trkpt lat="36.75999" lon="-3.84379">
        <ele>116.998327</ele>
        <time>2022-02-25T14:44:26.390Z</time>
      </trkpt>
      <trkpt lat="36.76001" lon="-3.84423">
        <ele>116.230728</ele>
        <time>2022-02-25T14:44:32.988Z</time>
      </trkpt>
      <trkpt lat="36.75985" lon="-3.8454">
        <ele>114.168819</ele>
        <time>2022-02-25T14:44:49.485Z</time>
      </trkpt>
      <trkpt lat="36.75965" lon="-3.84599">
        <ele>112.068927</ele>
        <time>2022-02-25T14:44:57.497Z</time>
      </trkpt>
      <trkpt lat="36.75949" lon="-3.8463">
        <ele>110.609132</ele>
        <time>2022-02-25T14:45:02.300Z</time>
      </trkpt>
      <trkpt lat="36.75944" lon="-3.84645">
        <ele>109.977634</ele>
        <time>2022-02-25T14:45:04.326Z</time>
      </trkpt>
      <trkpt lat="36.75943" lon="-3.84672">
        <ele>108.904499</ele>
        <time>2022-02-25T14:45:07.803Z</time>
      </trkpt>
      <trkpt lat="36.75925" lon="-3.84689">
        <ele>107.784578</ele>
        <time>2022-02-25T14:45:11.402Z</time>
      </trkpt>
      <trkpt lat="36.75907" lon="-3.84684">
        <ele>106.901716</ele>
        <time>2022-02-25T14:45:14.162Z</time>
      </trkpt>
      <trkpt lat="36.75878" lon="-3.84688">
        <ele>105.496577</ele>
        <time>2022-02-25T14:45:18.630Z</time>
      </trkpt>
      <trkpt lat="36.75822" lon="-3.84717">
        <ele>102.347697</ele>
        <time>2022-02-25T14:45:28.623Z</time>
      </trkpt>
      <trkpt lat="36.75776" lon="-3.84763">
        <ele>99.292082</ele>
        <time>2022-02-25T14:45:37.821Z</time>
      </trkpt>
      <trkpt lat="36.7576" lon="-3.84791">
        <ele>97.868167</ele>
        <time>2022-02-25T14:45:42.019Z</time>
      </trkpt>
      <trkpt lat="36.75738" lon="-3.84853">
        <ele>95.294158</ele>
        <time>2022-02-25T14:45:50.503Z</time>
      </trkpt>
      <trkpt lat="36.7573" lon="-3.84893">
        <ele>94.272639</ele>
        <time>2022-02-25T14:45:55.921Z</time>
      </trkpt>
      <trkpt lat="36.75729" lon="-3.84899">
        <ele>94.123846</ele>
        <time>2022-02-25T14:45:56.694Z</time>
      </trkpt>
      <trkpt lat="36.75694" lon="-3.85012">
        <ele>91.117812</ele>
        <time>2022-02-25T14:46:13.852Z</time>
      </trkpt>
      <trkpt lat="36.75678" lon="-3.85046">
        <ele>90.135218</ele>
        <time>2022-02-25T14:46:19.749Z</time>
      </trkpt>
      <trkpt lat="36.75634" lon="-3.85108">
        <ele>88.990737</ele>
        <time>2022-02-25T14:46:32.200Z</time>
      </trkpt>
      <trkpt lat="36.756" lon="-3.85144">
        <ele>88.233776</ele>
        <time>2022-02-25T14:46:40.852Z</time>
      </trkpt>
      <trkpt lat="36.75605" lon="-3.85163">
        <ele>87.957296</ele>
        <time>2022-02-25T14:46:44.253Z</time>
      </trkpt>
      <trkpt lat="36.756" lon="-3.85183">
        <ele>87.680617</ele>
        <time>2022-02-25T14:46:47.530Z</time>
      </trkpt>
      <trkpt lat="36.75581" lon="-3.85197">
        <ele>87.309281</ele>
        <time>2022-02-25T14:46:51.579Z</time>
      </trkpt>
      <trkpt lat="36.75569" lon="-3.85195">
        <ele>87.102289</ele>
        <time>2022-02-25T14:46:53.772Z</time>
      </trkpt>
      <trkpt lat="36.75556" lon="-3.8518">
        <ele>86.62046</ele>
        <time>2022-02-25T14:46:57.002Z</time>
      </trkpt>
      <trkpt lat="36.75529" lon="-3.85204">
        <ele>85.696244</ele>
        <time>2022-02-25T14:47:02.703Z</time>
      </trkpt>
      <trkpt lat="36.75517" lon="-3.85221">
        <ele>85.162701</ele>
        <time>2022-02-25T14:47:05.954Z</time>
      </trkpt>
      <trkpt lat="36.75493" lon="-3.85283">
        <ele>83.622746</ele>
        <time>2022-02-25T14:47:15.230Z</time>
      </trkpt>
      <trkpt lat="36.75489" lon="-3.8534">
        <ele>82.322961</ele>
        <time>2022-02-25T14:47:23.122Z</time>
      </trkpt>
      <trkpt lat="36.75491" lon="-3.85359">
        <ele>81.895076</ele>
        <time>2022-02-25T14:47:25.817Z</time>
      </trkpt>
      <trkpt lat="36.75505" lon="-3.85457">
        <ele>79.861188</ele>
        <time>2022-02-25T14:47:39.785Z</time>
      </trkpt>
      <trkpt lat="36.75515" lon="-3.85521">
        <ele>78.539644</ele>
        <time>2022-02-25T14:47:48.978Z</time>
      </trkpt>
      <trkpt lat="36.75532" lon="-3.85665">
        <ele>76.382591</ele>
        <time>2022-02-25T14:48:10.404Z</time>
      </trkpt>
      <trkpt lat="36.75552" lon="-3.85809">
        <ele>74.716459</ele>
        <time>2022-02-25T14:48:33.445Z</time>
      </trkpt>
      <trkpt lat="36.75562" lon="-3.8588">
        <ele>73.965909</ele>
        <time>2022-02-25T14:48:45.482Z</time>
      </trkpt>
      <trkpt lat="36.7557" lon="-3.85906">
        <ele>73.68923</ele>
        <time>2022-02-25T14:48:49.996Z</time>
      </trkpt>
      <trkpt lat="36.75592" lon="-3.8595">
        <ele>73.150205</ele>
        <time>2022-02-25T14:48:58.210Z</time>
      </trkpt>
      <trkpt lat="36.75631" lon="-3.8599">
        <ele>72.495547</ele>
        <time>2022-02-25T14:49:07.361Z</time>
      </trkpt>
      <trkpt lat="36.75688" lon="-3.86033">
        <ele>71.589655</ele>
        <time>2022-02-25T14:49:19.252Z</time>
      </trkpt>
      <trkpt lat="36.75727" lon="-3.86081">
        <ele>70.852824</ele>
        <time>2022-02-25T14:49:29.515Z</time>
      </trkpt>
      <trkpt lat="36.75736" lon="-3.861">
        <ele>70.615099</ele>
        <time>2022-02-25T14:49:32.993Z</time>
      </trkpt>
      <trkpt lat="36.75763" lon="-3.86189">
        <ele>70.658802</ele>
        <time>2022-02-25T14:49:50.237Z</time>
      </trkpt>
      <trkpt lat="36.75792" lon="-3.86311">
        <ele>72.258984</ele>
        <time>2022-02-25T14:50:21.452Z</time>
      </trkpt>
      <trkpt lat="36.75805" lon="-3.8634">
        <ele>72.687565</ele>
        <time>2022-02-25T14:50:31.460Z</time>
      </trkpt>
      <trkpt lat="36.75819" lon="-3.86353">
        <ele>72.965706</ele>
        <time>2022-02-25T14:50:37.922Z</time>
      </trkpt>
      <trkpt lat="36.75821" lon="-3.86367">
        <ele>73.195292</ele>
        <time>2022-02-25T14:50:42.556Z</time>
      </trkpt>
      <trkpt lat="36.75817" lon="-3.86377">
        <ele>73.357492</ele>
        <time>2022-02-25T14:50:45.488Z</time>
      </trkpt>
      <trkpt lat="36.75815" lon="-3.86397">
        <ele>73.687109</ele>
        <time>2022-02-25T14:50:51.948Z</time>
      </trkpt>
      <trkpt lat="36.75819" lon="-3.86425">
        <ele>74.13655</ele>
        <time>2022-02-25T14:51:00.163Z</time>
      </trkpt>
      <trkpt lat="36.75855" lon="-3.86602">
        <ele>76.668786</ele>
        <time>2022-02-25T14:51:43.961Z</time>
      </trkpt>
      <trkpt lat="36.75856" lon="-3.86674">
        <ele>77.049107</ele>
        <time>2022-02-25T14:51:59.539Z</time>
      </trkpt>
      <trkpt lat="36.75851" lon="-3.86732">
        <ele>77.360099</ele>
        <time>2022-02-25T14:52:11.103Z</time>
      </trkpt>
      <trkpt lat="36.75851" lon="-3.86762">
        <ele>77.519751</ele>
        <time>2022-02-25T14:52:16.656Z</time>
      </trkpt>
      <trkpt lat="36.7584" lon="-3.86848">
        <ele>77.406552</ele>
        <time>2022-02-25T14:52:32.279Z</time>
      </trkpt>
      <trkpt lat="36.75855" lon="-3.86849">
        <ele>77.323258</ele>
        <time>2022-02-25T14:52:35.523Z</time>
      </trkpt>
      <trkpt lat="36.75841" lon="-3.86876">
        <ele>77.176779</ele>
        <time>2022-02-25T14:52:41.065Z</time>
      </trkpt>
      <trkpt lat="36.75833" lon="-3.86878">
        <ele>77.130697</ele>
        <time>2022-02-25T14:52:42.750Z</time>
      </trkpt>
      <trkpt lat="36.75836" lon="-3.86884">
        <ele>77.102252</ele>
        <time>2022-02-25T14:52:44.130Z</time>
      </trkpt>
      <trkpt lat="36.75836" lon="-3.86902">
        <ele>77.016395</ele>
        <time>2022-02-25T14:52:47.569Z</time>
      </trkpt>
      <trkpt lat="36.75832" lon="-3.8691">
        <ele>76.972605</ele>
        <time>2022-02-25T14:52:49.230Z</time>
      </trkpt>
      <trkpt lat="36.75828" lon="-3.86958">
        <ele>76.749878</ele>
        <time>2022-02-25T14:52:57.194Z</time>
      </trkpt>
      <trkpt lat="36.75847" lon="-3.87047">
        <ele>75.229817</ele>
        <time>2022-02-25T14:53:11.463Z</time>
      </trkpt>
      <trkpt lat="36.75847" lon="-3.87082">
        <ele>74.493549</ele>
        <time>2022-02-25T14:53:16.871Z</time>
      </trkpt>
      <trkpt lat="36.75846" lon="-3.87094">
        <ele>74.244691</ele>
        <time>2022-02-25T14:53:18.674Z</time>
      </trkpt>
      <trkpt lat="36.75835" lon="-3.87133">
        <ele>73.384755</ele>
        <time>2022-02-25T14:53:24.770Z</time>
      </trkpt>
      <trkpt lat="36.75816" lon="-3.87167">
        <ele>72.520873</ele>
        <time>2022-02-25T14:53:30.700Z</time>
      </trkpt>
      <trkpt lat="36.75757" lon="-3.87216">
        <ele>70.006954</ele>
        <time>2022-02-25T14:53:42.952Z</time>
      </trkpt>
      <trkpt lat="36.75676" lon="-3.87271">
        <ele>66.345634</ele>
        <time>2022-02-25T14:53:58.922Z</time>
      </trkpt>
      <trkpt lat="36.75674" lon="-3.87284">
        <ele>65.919743</ele>
        <time>2022-02-25T14:54:00.729Z</time>
      </trkpt>
      <trkpt lat="36.75662" lon="-3.87297">
        <ele>65.293704</ele>
        <time>2022-02-25T14:54:03.353Z</time>
      </trkpt>
      <trkpt lat="36.75646" lon="-3.87294">
        <ele>64.704631</ele>
        <time>2022-02-25T14:54:05.929Z</time>
      </trkpt>
      <trkpt lat="36.75578" lon="-3.87347">
        <ele>61.980119</ele>
        <time>2022-02-25T14:54:19.974Z</time>
      </trkpt>
      <trkpt lat="36.75506" lon="-3.87398">
        <ele>59.173364</ele>
        <time>2022-02-25T14:54:34.894Z</time>
      </trkpt>
      <trkpt lat="36.75498" lon="-3.87404">
        <ele>58.875475</ele>
        <time>2022-02-25T14:54:36.475Z</time>
      </trkpt>
      <trkpt lat="36.75471" lon="-3.87424">
        <ele>58.144843</ele>
        <time>2022-02-25T14:54:42.256Z</time>
      </trkpt>
      <trkpt lat="36.75431" lon="-3.87454">
        <ele>57.112036</ele>
        <time>2022-02-25T14:54:51.003Z</time>
      </trkpt>
      <trkpt lat="36.75374" lon="-3.87496">
        <ele>55.674765</ele>
        <time>2022-02-25T14:55:03.425Z</time>
      </trkpt>
      <trkpt lat="36.75355" lon="-3.87497">
        <ele>55.244136</ele>
        <time>2022-02-25T14:55:07.253Z</time>
      </trkpt>
      <trkpt lat="36.75349" lon="-3.87501">
        <ele>55.088628</ele>
        <time>2022-02-25T14:55:08.685Z</time>
      </trkpt>
      <trkpt lat="36.75344" lon="-3.87505">
        <ele>54.958236</ele>
        <time>2022-02-25T14:55:09.873Z</time>
      </trkpt>
      <trkpt lat="36.75341" lon="-3.87525">
        <ele>54.693666</ele>
        <time>2022-02-25T14:55:13.144Z</time>
      </trkpt>
      <trkpt lat="36.75328" lon="-3.87536">
        <ele>54.496121</ele>
        <time>2022-02-25T14:55:16.098Z</time>
      </trkpt>
      <trkpt lat="36.75315" lon="-3.87538">
        <ele>54.31122</ele>
        <time>2022-02-25T14:55:18.902Z</time>
      </trkpt>
      <trkpt lat="36.75311" lon="-3.87541">
        <ele>54.250699</ele>
        <time>2022-02-25T14:55:19.884Z</time>
      </trkpt>
      <trkpt lat="36.75249" lon="-3.87586">
        <ele>53.312663</ele>
        <time>2022-02-25T14:55:34.532Z</time>
      </trkpt>
      <trkpt lat="36.75246" lon="-3.87588">
        <ele>53.258803</ele>
        <time>2022-02-25T14:55:35.396Z</time>
      </trkpt>
      <trkpt lat="36.75238" lon="-3.87584">
        <ele>53.1548</ele>
        <time>2022-02-25T14:55:36.933Z</time>
      </trkpt>
      <trkpt lat="36.75233" lon="-3.87602">
        <ele>52.954571</ele>
        <time>2022-02-25T14:55:40.027Z</time>
      </trkpt>
      <trkpt lat="36.75207" lon="-3.87621">
        <ele>52.561459</ele>
        <time>2022-02-25T14:55:46.101Z</time>
      </trkpt>
      <trkpt lat="36.75198" lon="-3.87619">
        <ele>52.42169</ele>
        <time>2022-02-25T14:55:47.928Z</time>
      </trkpt>
      <trkpt lat="36.75195" lon="-3.87622">
        <ele>52.345647</ele>
        <time>2022-02-25T14:55:48.596Z</time>
      </trkpt>
      <trkpt lat="36.75154" lon="-3.87654">
        <ele>51.304775</ele>
        <time>2022-02-25T14:55:57.877Z</time>
      </trkpt>
      <trkpt lat="36.7514" lon="-3.87682">
        <ele>50.737159</ele>
        <time>2022-02-25T14:56:02.946Z</time>
      </trkpt>
      <trkpt lat="36.7514" lon="-3.87685">
        <ele>50.684132</ele>
        <time>2022-02-25T14:56:03.394Z</time>
      </trkpt>
      <trkpt lat="36.75137" lon="-3.87702">
        <ele>50.380951</ele>
        <time>2022-02-25T14:56:05.975Z</time>
      </trkpt>
      <trkpt lat="36.75128" lon="-3.87709">
        <ele>50.16638</ele>
        <time>2022-02-25T14:56:07.818Z</time>
      </trkpt>
      <trkpt lat="36.75125" lon="-3.8771">
        <ele>50.093424</ele>
        <time>2022-02-25T14:56:08.412Z</time>
      </trkpt>
      <trkpt lat="36.75118" lon="-3.87709">
        <ele>49.932999</ele>
        <time>2022-02-25T14:56:09.716Z</time>
      </trkpt>
      <trkpt lat="36.75112" lon="-3.87705">
        <ele>49.789877</ele>
        <time>2022-02-25T14:56:10.901Z</time>
      </trkpt>
      <trkpt lat="36.75106" lon="-3.87685">
        <ele>49.429229</ele>
        <time>2022-02-25T14:56:13.931Z</time>
      </trkpt>
      <trkpt lat="36.75092" lon="-3.87695">
        <ele>49.092786</ele>
        <time>2022-02-25T14:56:16.611Z</time>
      </trkpt>
      <trkpt lat="36.75057" lon="-3.87719">
        <ele>48.164238</ele>
        <time>2022-02-25T14:56:23.622Z</time>
      </trkpt>
      <trkpt lat="36.74986" lon="-3.87767">
        <ele>46.092334</ele>
        <time>2022-02-25T14:56:38.010Z</time>
      </trkpt>
      <trkpt lat="36.7495" lon="-3.87793">
        <ele>45.046205</ele>
        <time>2022-02-25T14:56:45.278Z</time>
      </trkpt>
      <trkpt lat="36.74913" lon="-3.87818">
        <ele>43.960152</ele>
        <time>2022-02-25T14:56:52.802Z</time>
      </trkpt>
      <trkpt lat="36.74911" lon="-3.8782">
        <ele>43.904344</ele>
        <time>2022-02-25T14:56:53.156Z</time>
      </trkpt>
      <trkpt lat="36.74871" lon="-3.87847">
        <ele>42.62509</ele>
        <time>2022-02-25T14:57:01.363Z</time>
      </trkpt>
      <trkpt lat="36.74831" lon="-3.87876">
        <ele>41.322268</ele>
        <time>2022-02-25T14:57:09.530Z</time>
      </trkpt>
      <trkpt lat="36.74797" lon="-3.87906">
        <ele>40.165465</ele>
        <time>2022-02-25T14:57:16.633Z</time>
      </trkpt>
      <trkpt lat="36.74793" lon="-3.87909">
        <ele>40.043167</ele>
        <time>2022-02-25T14:57:17.392Z</time>
      </trkpt>
      <trkpt lat="36.74785" lon="-3.87945">
        <ele>39.18711</ele>
        <time>2022-02-25T14:57:22.616Z</time>
      </trkpt>
      <trkpt lat="36.74786" lon="-3.87963">
        <ele>38.77124</ele>
        <time>2022-02-25T14:57:25.094Z</time>
      </trkpt>
      <trkpt lat="36.7475" lon="-3.87942">
        <ele>37.552414</ele>
        <time>2022-02-25T14:57:31.884Z</time>
      </trkpt>
      <trkpt lat="36.74734" lon="-3.87929">
        <ele>36.963249</ele>
        <time>2022-02-25T14:57:35.153Z</time>
      </trkpt>
      <trkpt lat="36.74693" lon="-3.87932">
        <ele>35.71712</ele>
        <time>2022-02-25T14:57:42.217Z</time>
      </trkpt>
      <trkpt lat="36.74689" lon="-3.87935">
        <ele>35.571635</ele>
        <time>2022-02-25T14:57:43.067Z</time>
      </trkpt>
      <trkpt lat="36.74671" lon="-3.87948">
        <ele>34.917848</ele>
        <time>2022-02-25T14:57:46.741Z</time>
      </trkpt>
      <trkpt lat="36.74637" lon="-3.87972">
        <ele>33.728558</ele>
        <time>2022-02-25T14:57:53.386Z</time>
      </trkpt>
      <trkpt lat="36.74615" lon="-3.87984">
        <ele>32.837434</ele>
        <time>2022-02-25T14:57:57.515Z</time>
      </trkpt>
      <trkpt lat="36.74604" lon="-3.87985">
        <ele>32.39208</ele>
        <time>2022-02-25T14:57:59.331Z</time>
      </trkpt>
      <trkpt lat="36.74601" lon="-3.87985">
        <ele>32.263527</ele>
        <time>2022-02-25T14:57:59.858Z</time>
      </trkpt>
      <trkpt lat="36.74573" lon="-3.87983">
        <ele>31.126857</ele>
        <time>2022-02-25T14:58:04.493Z</time>
      </trkpt>
      <trkpt lat="36.74569" lon="-3.87984">
        <ele>30.950619</ele>
        <time>2022-02-25T14:58:05.202Z</time>
      </trkpt>
      <trkpt lat="36.74551" lon="-3.87989">
        <ele>30.170339</ele>
        <time>2022-02-25T14:58:08.356Z</time>
      </trkpt>
      <trkpt lat="36.74523" lon="-3.87996">
        <ele>29.012543</ele>
        <time>2022-02-25T14:58:12.943Z</time>
      </trkpt>
      <trkpt lat="36.74518" lon="-3.87998">
        <ele>28.795628</ele>
        <time>2022-02-25T14:58:13.807Z</time>
      </trkpt>
      <trkpt lat="36.74515" lon="-3.87999">
        <ele>28.642746</ele>
        <time>2022-02-25T14:58:14.412Z</time>
      </trkpt>
      <trkpt lat="36.74497" lon="-3.88004">
        <ele>27.875105</ele>
        <time>2022-02-25T14:58:17.413Z</time>
      </trkpt>
      <trkpt lat="36.74487" lon="-3.8801">
        <ele>27.420245</ele>
        <time>2022-02-25T14:58:19.217Z</time>
      </trkpt>
      <trkpt lat="36.74439" lon="-3.88019">
        <ele>25.332794</ele>
        <time>2022-02-25T14:58:26.855Z</time>
      </trkpt>
      <trkpt lat="36.74433" lon="-3.8802">
        <ele>25.050698</ele>
        <time>2022-02-25T14:58:27.752Z</time>
      </trkpt>
      <trkpt lat="36.74375" lon="-3.88031">
        <ele>22.17188</ele>
        <time>2022-02-25T14:58:36.898Z</time>
      </trkpt>
      <trkpt lat="36.74335" lon="-3.8804">
        <ele>20.17097</ele>
        <time>2022-02-25T14:58:43.357Z</time>
      </trkpt>
      <trkpt lat="36.74278" lon="-3.88052">
        <ele>17.313188</ele>
        <time>2022-02-25T14:58:52.708Z</time>
      </trkpt>
      <trkpt lat="36.74257" lon="-3.88095">
        <ele>17.172516</ele>
        <time>2022-02-25T14:58:59.232Z</time>
      </trkpt>
      <trkpt lat="36.74255" lon="-3.8813">
        <ele>17.172516</ele>
        <time>2022-02-25T14:59:04.072Z</time>
      </trkpt>
      <trkpt lat="36.74255" lon="-3.8813">
        <ele>17.172516</ele>
        <time>2022-02-25T14:59:04.120Z</time>
      </trkpt>
      <trkpt lat="36.74261" lon="-3.88165">
        <ele>17.172516</ele>
        <time>2022-02-25T14:59:09.172Z</time>
      </trkpt>
      <trkpt lat="36.74273" lon="-3.88198">
        <ele>17.172516</ele>
        <time>2022-02-25T14:59:14.582Z</time>
      </trkpt>
      <trkpt lat="36.74286" lon="-3.8823">
        <ele>17.172516</ele>
        <time>2022-02-25T14:59:20.141Z</time>
      </trkpt>
      <trkpt lat="36.74287" lon="-3.88233">
        <ele>17.172516</ele>
        <time>2022-02-25T14:59:20.583Z</time>
      </trkpt>
      <trkpt lat="36.74293" lon="-3.88246">
        <ele>17.172516</ele>
        <time>2022-02-25T14:59:23.013Z</time>
      </trkpt>
      <trkpt lat="36.743" lon="-3.88264">
        <ele>17.172516</ele>
        <time>2022-02-25T14:59:26.308Z</time>
      </trkpt>
    </trkseg>
  </trk>
</gpx>